<?xml version="1.0" encoding="UTF-8" standalone="no" ?>
<gpx xmlns="http://www.topografix.com/GPX/1/1" xmlns:xsi="http://www.w3.org/2001/XMLSchema-instance" xsi:schemaLocation="http://www.topografix.com/GPX/1/1 http://www.topografix.com/GPX/1/1/gpx.xsd" version="1.1" creator="VisuGPX - https://www.visugpx.com">
  <metadata>
    <name>caen ouistreham - caen</name>
  </metadata>
  <trk>
    <name><![CDATA[caen ouistreham - caen_1]]></name>
    <trkseg>
      <trkpt lat="49.18852" lon="-0.40074">
        <ele>51.2</ele>
        <time>2023-05-04T08:16:45Z</time>
      </trkpt>
      <trkpt lat="49.18852" lon="-0.40074">
        <ele>51.2</ele>
        <time>2023-05-04T08:16:46Z</time>
      </trkpt>
      <trkpt lat="49.18852" lon="-0.40074">
        <ele>51.2</ele>
        <time>2023-05-04T08:16:47Z</time>
      </trkpt>
      <trkpt lat="49.18852" lon="-0.40074">
        <ele>51.2</ele>
        <time>2023-05-04T08:16:48Z</time>
      </trkpt>
      <trkpt lat="49.18852" lon="-0.40074">
        <ele>51.2</ele>
        <time>2023-05-04T08:16:49Z</time>
      </trkpt>
      <trkpt lat="49.18852" lon="-0.40074">
        <ele>51.2</ele>
        <time>2023-05-04T08:16:50Z</time>
      </trkpt>
      <trkpt lat="49.18852" lon="-0.40074">
        <ele>51.2</ele>
        <time>2023-05-04T08:16:51Z</time>
      </trkpt>
      <trkpt lat="49.18852" lon="-0.40074">
        <ele>51.2</ele>
        <time>2023-05-04T08:16:52Z</time>
      </trkpt>
      <trkpt lat="49.18853" lon="-0.40075">
        <ele>51.2</ele>
        <time>2023-05-04T08:16:53Z</time>
      </trkpt>
      <trkpt lat="49.18853" lon="-0.40076">
        <ele>51.2</ele>
        <time>2023-05-04T08:16:54Z</time>
      </trkpt>
      <trkpt lat="49.18853" lon="-0.40078">
        <ele>51.4</ele>
        <time>2023-05-04T08:16:55Z</time>
      </trkpt>
      <trkpt lat="49.18854" lon="-0.4008">
        <ele>51.4</ele>
        <time>2023-05-04T08:16:56Z</time>
      </trkpt>
      <trkpt lat="49.18854" lon="-0.40082">
        <ele>51.6</ele>
        <time>2023-05-04T08:16:57Z</time>
      </trkpt>
      <trkpt lat="49.18853" lon="-0.40084">
        <ele>51.6</ele>
        <time>2023-05-04T08:16:58Z</time>
      </trkpt>
      <trkpt lat="49.18854" lon="-0.40087">
        <ele>51.6</ele>
        <time>2023-05-04T08:16:59Z</time>
      </trkpt>
      <trkpt lat="49.18856" lon="-0.40089">
        <ele>51.8</ele>
        <time>2023-05-04T08:17:00Z</time>
      </trkpt>
      <trkpt lat="49.18859" lon="-0.40092">
        <ele>52</ele>
        <time>2023-05-04T08:17:01Z</time>
      </trkpt>
      <trkpt lat="49.18862" lon="-0.40095">
        <ele>52.2</ele>
        <time>2023-05-04T08:17:02Z</time>
      </trkpt>
      <trkpt lat="49.18865" lon="-0.40098">
        <ele>52.4</ele>
        <time>2023-05-04T08:17:03Z</time>
      </trkpt>
      <trkpt lat="49.18868" lon="-0.40101">
        <ele>52.6</ele>
        <time>2023-05-04T08:17:04Z</time>
      </trkpt>
      <trkpt lat="49.18871" lon="-0.40104">
        <ele>53</ele>
        <time>2023-05-04T08:17:05Z</time>
      </trkpt>
      <trkpt lat="49.18874" lon="-0.40108">
        <ele>53</ele>
        <time>2023-05-04T08:17:06Z</time>
      </trkpt>
      <trkpt lat="49.18876" lon="-0.40111">
        <ele>53.2</ele>
        <time>2023-05-04T08:17:07Z</time>
      </trkpt>
      <trkpt lat="49.18878" lon="-0.40114">
        <ele>53.4</ele>
        <time>2023-05-04T08:17:08Z</time>
      </trkpt>
      <trkpt lat="49.1888" lon="-0.40116">
        <ele>53.6</ele>
        <time>2023-05-04T08:17:09Z</time>
      </trkpt>
      <trkpt lat="49.18881" lon="-0.40117">
        <ele>53.6</ele>
        <time>2023-05-04T08:17:10Z</time>
      </trkpt>
      <trkpt lat="49.18882" lon="-0.40117">
        <ele>53.6</ele>
        <time>2023-05-04T08:17:11Z</time>
      </trkpt>
      <trkpt lat="49.18882" lon="-0.40118">
        <ele>53.8</ele>
        <time>2023-05-04T08:17:12Z</time>
      </trkpt>
      <trkpt lat="49.18882" lon="-0.40118">
        <ele>53.8</ele>
        <time>2023-05-04T08:17:13Z</time>
      </trkpt>
      <trkpt lat="49.18883" lon="-0.40118">
        <ele>53.8</ele>
        <time>2023-05-04T08:17:14Z</time>
      </trkpt>
      <trkpt lat="49.18883" lon="-0.40118">
        <ele>53.8</ele>
        <time>2023-05-04T08:17:15Z</time>
      </trkpt>
      <trkpt lat="49.18883" lon="-0.40118">
        <ele>53.8</ele>
        <time>2023-05-04T08:17:16Z</time>
      </trkpt>
      <trkpt lat="49.18883" lon="-0.40118">
        <ele>53.8</ele>
        <time>2023-05-04T08:17:17Z</time>
      </trkpt>
      <trkpt lat="49.18883" lon="-0.40118">
        <ele>53.8</ele>
        <time>2023-05-04T08:17:18Z</time>
      </trkpt>
      <trkpt lat="49.18883" lon="-0.40118">
        <ele>53.8</ele>
        <time>2023-05-04T08:17:19Z</time>
      </trkpt>
      <trkpt lat="49.18883" lon="-0.40118">
        <ele>53.8</ele>
        <time>2023-05-04T08:17:20Z</time>
      </trkpt>
      <trkpt lat="49.18884" lon="-0.40119">
        <ele>53.8</ele>
        <time>2023-05-04T08:17:21Z</time>
      </trkpt>
      <trkpt lat="49.18885" lon="-0.40119">
        <ele>54</ele>
        <time>2023-05-04T08:17:22Z</time>
      </trkpt>
      <trkpt lat="49.18885" lon="-0.40119">
        <ele>54</ele>
        <time>2023-05-04T08:17:23Z</time>
      </trkpt>
      <trkpt lat="49.18885" lon="-0.40119">
        <ele>54</ele>
        <time>2023-05-04T08:17:24Z</time>
      </trkpt>
      <trkpt lat="49.18886" lon="-0.40119">
        <ele>54</ele>
        <time>2023-05-04T08:17:25Z</time>
      </trkpt>
      <trkpt lat="49.18886" lon="-0.40119">
        <ele>54</ele>
        <time>2023-05-04T08:17:26Z</time>
      </trkpt>
      <trkpt lat="49.18888" lon="-0.40119">
        <ele>54</ele>
        <time>2023-05-04T08:17:27Z</time>
      </trkpt>
      <trkpt lat="49.18889" lon="-0.40118">
        <ele>54</ele>
        <time>2023-05-04T08:17:28Z</time>
      </trkpt>
      <trkpt lat="49.1889" lon="-0.40117">
        <ele>54.2</ele>
        <time>2023-05-04T08:17:29Z</time>
      </trkpt>
      <trkpt lat="49.18891" lon="-0.40115">
        <ele>54.2</ele>
        <time>2023-05-04T08:17:30Z</time>
      </trkpt>
      <trkpt lat="49.18892" lon="-0.40113">
        <ele>54.2</ele>
        <time>2023-05-04T08:17:31Z</time>
      </trkpt>
      <trkpt lat="49.18893" lon="-0.4011">
        <ele>54.4</ele>
        <time>2023-05-04T08:17:32Z</time>
      </trkpt>
      <trkpt lat="49.18894" lon="-0.40107">
        <ele>54.6</ele>
        <time>2023-05-04T08:17:33Z</time>
      </trkpt>
      <trkpt lat="49.18895" lon="-0.40103">
        <ele>54.6</ele>
        <time>2023-05-04T08:17:34Z</time>
      </trkpt>
      <trkpt lat="49.18896" lon="-0.40099">
        <ele>54.6</ele>
        <time>2023-05-04T08:17:35Z</time>
      </trkpt>
      <trkpt lat="49.18898" lon="-0.40094">
        <ele>54.8</ele>
        <time>2023-05-04T08:17:36Z</time>
      </trkpt>
      <trkpt lat="49.18899" lon="-0.40088">
        <ele>54.8</ele>
        <time>2023-05-04T08:17:37Z</time>
      </trkpt>
      <trkpt lat="49.189" lon="-0.40083">
        <ele>54.8</ele>
        <time>2023-05-04T08:17:38Z</time>
      </trkpt>
      <trkpt lat="49.18902" lon="-0.40077">
        <ele>54.8</ele>
        <time>2023-05-04T08:17:39Z</time>
      </trkpt>
      <trkpt lat="49.18903" lon="-0.4007">
        <ele>55</ele>
        <time>2023-05-04T08:17:40Z</time>
      </trkpt>
      <trkpt lat="49.18904" lon="-0.40063">
        <ele>55</ele>
        <time>2023-05-04T08:17:41Z</time>
      </trkpt>
      <trkpt lat="49.18906" lon="-0.40056">
        <ele>55</ele>
        <time>2023-05-04T08:17:42Z</time>
      </trkpt>
      <trkpt lat="49.18907" lon="-0.40049">
        <ele>55</ele>
        <time>2023-05-04T08:17:43Z</time>
      </trkpt>
      <trkpt lat="49.18908" lon="-0.40041">
        <ele>55</ele>
        <time>2023-05-04T08:17:44Z</time>
      </trkpt>
      <trkpt lat="49.18909" lon="-0.40033">
        <ele>55</ele>
        <time>2023-05-04T08:17:45Z</time>
      </trkpt>
      <trkpt lat="49.18911" lon="-0.40025">
        <ele>55</ele>
        <time>2023-05-04T08:17:46Z</time>
      </trkpt>
      <trkpt lat="49.18912" lon="-0.40017">
        <ele>55</ele>
        <time>2023-05-04T08:17:47Z</time>
      </trkpt>
      <trkpt lat="49.18913" lon="-0.40009">
        <ele>54.8</ele>
        <time>2023-05-04T08:17:48Z</time>
      </trkpt>
      <trkpt lat="49.18914" lon="-0.40001">
        <ele>54.8</ele>
        <time>2023-05-04T08:17:49Z</time>
      </trkpt>
      <trkpt lat="49.18915" lon="-0.39992">
        <ele>54.8</ele>
        <time>2023-05-04T08:17:50Z</time>
      </trkpt>
      <trkpt lat="49.18915" lon="-0.39983">
        <ele>54.6</ele>
        <time>2023-05-04T08:17:51Z</time>
      </trkpt>
      <trkpt lat="49.18916" lon="-0.39974">
        <ele>54.2</ele>
        <time>2023-05-04T08:17:52Z</time>
      </trkpt>
      <trkpt lat="49.18916" lon="-0.39966">
        <ele>54.2</ele>
        <time>2023-05-04T08:17:53Z</time>
      </trkpt>
      <trkpt lat="49.18917" lon="-0.39957">
        <ele>54</ele>
        <time>2023-05-04T08:17:54Z</time>
      </trkpt>
      <trkpt lat="49.18917" lon="-0.39947">
        <ele>53.8</ele>
        <time>2023-05-04T08:17:55Z</time>
      </trkpt>
      <trkpt lat="49.18917" lon="-0.39938">
        <ele>53.6</ele>
        <time>2023-05-04T08:17:56Z</time>
      </trkpt>
      <trkpt lat="49.18917" lon="-0.39929">
        <ele>53.2</ele>
        <time>2023-05-04T08:17:57Z</time>
      </trkpt>
      <trkpt lat="49.18917" lon="-0.3992">
        <ele>53</ele>
        <time>2023-05-04T08:17:58Z</time>
      </trkpt>
      <trkpt lat="49.18916" lon="-0.39911">
        <ele>53</ele>
        <time>2023-05-04T08:17:59Z</time>
      </trkpt>
      <trkpt lat="49.18916" lon="-0.39901">
        <ele>53</ele>
        <time>2023-05-04T08:18:00Z</time>
      </trkpt>
      <trkpt lat="49.18915" lon="-0.39892">
        <ele>53</ele>
        <time>2023-05-04T08:18:01Z</time>
      </trkpt>
      <trkpt lat="49.18915" lon="-0.39882">
        <ele>53</ele>
        <time>2023-05-04T08:18:02Z</time>
      </trkpt>
      <trkpt lat="49.18914" lon="-0.39873">
        <ele>52.8</ele>
        <time>2023-05-04T08:18:03Z</time>
      </trkpt>
      <trkpt lat="49.18913" lon="-0.39863">
        <ele>52.8</ele>
        <time>2023-05-04T08:18:04Z</time>
      </trkpt>
      <trkpt lat="49.18912" lon="-0.39853">
        <ele>52.6</ele>
        <time>2023-05-04T08:18:05Z</time>
      </trkpt>
      <trkpt lat="49.18911" lon="-0.39844">
        <ele>52.6</ele>
        <time>2023-05-04T08:18:06Z</time>
      </trkpt>
      <trkpt lat="49.1891" lon="-0.39834">
        <ele>52.4</ele>
        <time>2023-05-04T08:18:07Z</time>
      </trkpt>
      <trkpt lat="49.1891" lon="-0.39824">
        <ele>52.2</ele>
        <time>2023-05-04T08:18:08Z</time>
      </trkpt>
      <trkpt lat="49.18909" lon="-0.39814">
        <ele>52</ele>
        <time>2023-05-04T08:18:09Z</time>
      </trkpt>
      <trkpt lat="49.18908" lon="-0.39804">
        <ele>52</ele>
        <time>2023-05-04T08:18:10Z</time>
      </trkpt>
      <trkpt lat="49.18907" lon="-0.39794">
        <ele>51.8</ele>
        <time>2023-05-04T08:18:11Z</time>
      </trkpt>
      <trkpt lat="49.18906" lon="-0.39784">
        <ele>51.6</ele>
        <time>2023-05-04T08:18:12Z</time>
      </trkpt>
      <trkpt lat="49.18906" lon="-0.39773">
        <ele>51.2</ele>
        <time>2023-05-04T08:18:13Z</time>
      </trkpt>
      <trkpt lat="49.18906" lon="-0.39763">
        <ele>51.2</ele>
        <time>2023-05-04T08:18:14Z</time>
      </trkpt>
      <trkpt lat="49.18905" lon="-0.39753">
        <ele>51</ele>
        <time>2023-05-04T08:18:15Z</time>
      </trkpt>
      <trkpt lat="49.18905" lon="-0.39742">
        <ele>51</ele>
        <time>2023-05-04T08:18:16Z</time>
      </trkpt>
      <trkpt lat="49.18905" lon="-0.39732">
        <ele>51</ele>
        <time>2023-05-04T08:18:17Z</time>
      </trkpt>
      <trkpt lat="49.18906" lon="-0.39721">
        <ele>51</ele>
        <time>2023-05-04T08:18:18Z</time>
      </trkpt>
      <trkpt lat="49.18906" lon="-0.3971">
        <ele>51.2</ele>
        <time>2023-05-04T08:18:19Z</time>
      </trkpt>
      <trkpt lat="49.18907" lon="-0.397">
        <ele>51.2</ele>
        <time>2023-05-04T08:18:20Z</time>
      </trkpt>
      <trkpt lat="49.18908" lon="-0.39689">
        <ele>51.2</ele>
        <time>2023-05-04T08:18:21Z</time>
      </trkpt>
      <trkpt lat="49.18909" lon="-0.39678">
        <ele>51.4</ele>
        <time>2023-05-04T08:18:22Z</time>
      </trkpt>
      <trkpt lat="49.18909" lon="-0.39667">
        <ele>51.6</ele>
        <time>2023-05-04T08:18:23Z</time>
      </trkpt>
      <trkpt lat="49.1891" lon="-0.39657">
        <ele>51.2</ele>
        <time>2023-05-04T08:18:24Z</time>
      </trkpt>
      <trkpt lat="49.18912" lon="-0.39647">
        <ele>51.2</ele>
        <time>2023-05-04T08:18:25Z</time>
      </trkpt>
      <trkpt lat="49.18914" lon="-0.39637">
        <ele>51</ele>
        <time>2023-05-04T08:18:26Z</time>
      </trkpt>
      <trkpt lat="49.18916" lon="-0.39627">
        <ele>51</ele>
        <time>2023-05-04T08:18:27Z</time>
      </trkpt>
      <trkpt lat="49.18918" lon="-0.39618">
        <ele>50.8</ele>
        <time>2023-05-04T08:18:28Z</time>
      </trkpt>
      <trkpt lat="49.18921" lon="-0.39609">
        <ele>50.6</ele>
        <time>2023-05-04T08:18:29Z</time>
      </trkpt>
      <trkpt lat="49.18924" lon="-0.396">
        <ele>50.4</ele>
        <time>2023-05-04T08:18:30Z</time>
      </trkpt>
      <trkpt lat="49.18927" lon="-0.39592">
        <ele>50.2</ele>
        <time>2023-05-04T08:18:31Z</time>
      </trkpt>
      <trkpt lat="49.1893" lon="-0.39584">
        <ele>50</ele>
        <time>2023-05-04T08:18:32Z</time>
      </trkpt>
      <trkpt lat="49.18934" lon="-0.39576">
        <ele>49.8</ele>
        <time>2023-05-04T08:18:33Z</time>
      </trkpt>
      <trkpt lat="49.18937" lon="-0.39568">
        <ele>49.6</ele>
        <time>2023-05-04T08:18:34Z</time>
      </trkpt>
      <trkpt lat="49.18939" lon="-0.3956">
        <ele>49.4</ele>
        <time>2023-05-04T08:18:35Z</time>
      </trkpt>
      <trkpt lat="49.18941" lon="-0.39554">
        <ele>49.2</ele>
        <time>2023-05-04T08:18:36Z</time>
      </trkpt>
      <trkpt lat="49.18942" lon="-0.3955">
        <ele>49.2</ele>
        <time>2023-05-04T08:18:37Z</time>
      </trkpt>
      <trkpt lat="49.18943" lon="-0.39547">
        <ele>49</ele>
        <time>2023-05-04T08:18:38Z</time>
      </trkpt>
      <trkpt lat="49.18944" lon="-0.39544">
        <ele>49</ele>
        <time>2023-05-04T08:18:39Z</time>
      </trkpt>
      <trkpt lat="49.18945" lon="-0.3954">
        <ele>49</ele>
        <time>2023-05-04T08:18:40Z</time>
      </trkpt>
      <trkpt lat="49.18947" lon="-0.39536">
        <ele>49</ele>
        <time>2023-05-04T08:18:41Z</time>
      </trkpt>
      <trkpt lat="49.18948" lon="-0.3953">
        <ele>48.8</ele>
        <time>2023-05-04T08:18:42Z</time>
      </trkpt>
      <trkpt lat="49.1895" lon="-0.39524">
        <ele>48.8</ele>
        <time>2023-05-04T08:18:43Z</time>
      </trkpt>
      <trkpt lat="49.18952" lon="-0.39518">
        <ele>48.6</ele>
        <time>2023-05-04T08:18:44Z</time>
      </trkpt>
      <trkpt lat="49.18955" lon="-0.39511">
        <ele>48.6</ele>
        <time>2023-05-04T08:18:45Z</time>
      </trkpt>
      <trkpt lat="49.18957" lon="-0.39504">
        <ele>48.6</ele>
        <time>2023-05-04T08:18:46Z</time>
      </trkpt>
      <trkpt lat="49.18959" lon="-0.39497">
        <ele>48.6</ele>
        <time>2023-05-04T08:18:47Z</time>
      </trkpt>
      <trkpt lat="49.18962" lon="-0.3949">
        <ele>48.6</ele>
        <time>2023-05-04T08:18:48Z</time>
      </trkpt>
      <trkpt lat="49.18964" lon="-0.39483">
        <ele>48.4</ele>
        <time>2023-05-04T08:18:49Z</time>
      </trkpt>
      <trkpt lat="49.18967" lon="-0.39476">
        <ele>48.4</ele>
        <time>2023-05-04T08:18:50Z</time>
      </trkpt>
      <trkpt lat="49.18969" lon="-0.39469">
        <ele>48.4</ele>
        <time>2023-05-04T08:18:51Z</time>
      </trkpt>
      <trkpt lat="49.18972" lon="-0.39461">
        <ele>48.4</ele>
        <time>2023-05-04T08:18:52Z</time>
      </trkpt>
      <trkpt lat="49.18975" lon="-0.39454">
        <ele>48.4</ele>
        <time>2023-05-04T08:18:53Z</time>
      </trkpt>
      <trkpt lat="49.18978" lon="-0.39447">
        <ele>48.4</ele>
        <time>2023-05-04T08:18:54Z</time>
      </trkpt>
      <trkpt lat="49.1898" lon="-0.39439">
        <ele>48.4</ele>
        <time>2023-05-04T08:18:55Z</time>
      </trkpt>
      <trkpt lat="49.18983" lon="-0.39431">
        <ele>48.4</ele>
        <time>2023-05-04T08:18:56Z</time>
      </trkpt>
      <trkpt lat="49.18986" lon="-0.39423">
        <ele>48.4</ele>
        <time>2023-05-04T08:18:57Z</time>
      </trkpt>
      <trkpt lat="49.18988" lon="-0.39415">
        <ele>48.4</ele>
        <time>2023-05-04T08:18:58Z</time>
      </trkpt>
      <trkpt lat="49.18991" lon="-0.39407">
        <ele>48.6</ele>
        <time>2023-05-04T08:18:59Z</time>
      </trkpt>
      <trkpt lat="49.18994" lon="-0.39399">
        <ele>48.6</ele>
        <time>2023-05-04T08:19:00Z</time>
      </trkpt>
      <trkpt lat="49.18997" lon="-0.39391">
        <ele>48.6</ele>
        <time>2023-05-04T08:19:01Z</time>
      </trkpt>
      <trkpt lat="49.19" lon="-0.39383">
        <ele>48.6</ele>
        <time>2023-05-04T08:19:02Z</time>
      </trkpt>
      <trkpt lat="49.19003" lon="-0.39375">
        <ele>48.8</ele>
        <time>2023-05-04T08:19:03Z</time>
      </trkpt>
      <trkpt lat="49.19006" lon="-0.39366">
        <ele>49</ele>
        <time>2023-05-04T08:19:04Z</time>
      </trkpt>
      <trkpt lat="49.19009" lon="-0.39358">
        <ele>49</ele>
        <time>2023-05-04T08:19:05Z</time>
      </trkpt>
      <trkpt lat="49.19011" lon="-0.3935">
        <ele>49.2</ele>
        <time>2023-05-04T08:19:06Z</time>
      </trkpt>
      <trkpt lat="49.19014" lon="-0.39342">
        <ele>49.2</ele>
        <time>2023-05-04T08:19:07Z</time>
      </trkpt>
      <trkpt lat="49.19017" lon="-0.39334">
        <ele>49.6</ele>
        <time>2023-05-04T08:19:08Z</time>
      </trkpt>
      <trkpt lat="49.1902" lon="-0.39326">
        <ele>49.8</ele>
        <time>2023-05-04T08:19:09Z</time>
      </trkpt>
      <trkpt lat="49.19023" lon="-0.39318">
        <ele>50</ele>
        <time>2023-05-04T08:19:10Z</time>
      </trkpt>
      <trkpt lat="49.19026" lon="-0.3931">
        <ele>50.2</ele>
        <time>2023-05-04T08:19:11Z</time>
      </trkpt>
      <trkpt lat="49.19029" lon="-0.39302">
        <ele>50.4</ele>
        <time>2023-05-04T08:19:12Z</time>
      </trkpt>
      <trkpt lat="49.19031" lon="-0.39294">
        <ele>50.6</ele>
        <time>2023-05-04T08:19:13Z</time>
      </trkpt>
      <trkpt lat="49.19034" lon="-0.39287">
        <ele>51</ele>
        <time>2023-05-04T08:19:14Z</time>
      </trkpt>
      <trkpt lat="49.19037" lon="-0.39279">
        <ele>51</ele>
        <time>2023-05-04T08:19:15Z</time>
      </trkpt>
      <trkpt lat="49.19039" lon="-0.39272">
        <ele>51.2</ele>
        <time>2023-05-04T08:19:16Z</time>
      </trkpt>
      <trkpt lat="49.19042" lon="-0.39265">
        <ele>51.6</ele>
        <time>2023-05-04T08:19:17Z</time>
      </trkpt>
      <trkpt lat="49.19044" lon="-0.39258">
        <ele>51.8</ele>
        <time>2023-05-04T08:19:18Z</time>
      </trkpt>
      <trkpt lat="49.19047" lon="-0.39251">
        <ele>52</ele>
        <time>2023-05-04T08:19:19Z</time>
      </trkpt>
      <trkpt lat="49.19049" lon="-0.39244">
        <ele>52.2</ele>
        <time>2023-05-04T08:19:20Z</time>
      </trkpt>
      <trkpt lat="49.19051" lon="-0.39238">
        <ele>52.4</ele>
        <time>2023-05-04T08:19:21Z</time>
      </trkpt>
      <trkpt lat="49.19053" lon="-0.39233">
        <ele>52.6</ele>
        <time>2023-05-04T08:19:22Z</time>
      </trkpt>
      <trkpt lat="49.19055" lon="-0.39227">
        <ele>52.8</ele>
        <time>2023-05-04T08:19:23Z</time>
      </trkpt>
      <trkpt lat="49.19057" lon="-0.39223">
        <ele>53</ele>
        <time>2023-05-04T08:19:24Z</time>
      </trkpt>
      <trkpt lat="49.19059" lon="-0.39219">
        <ele>53.2</ele>
        <time>2023-05-04T08:19:25Z</time>
      </trkpt>
      <trkpt lat="49.19061" lon="-0.39216">
        <ele>53.6</ele>
        <time>2023-05-04T08:19:26Z</time>
      </trkpt>
      <trkpt lat="49.19063" lon="-0.39213">
        <ele>53.6</ele>
        <time>2023-05-04T08:19:27Z</time>
      </trkpt>
      <trkpt lat="49.19064" lon="-0.39211">
        <ele>53.8</ele>
        <time>2023-05-04T08:19:28Z</time>
      </trkpt>
      <trkpt lat="49.19065" lon="-0.3921">
        <ele>54</ele>
        <time>2023-05-04T08:19:29Z</time>
      </trkpt>
      <trkpt lat="49.19066" lon="-0.3921">
        <ele>54</ele>
        <time>2023-05-04T08:19:30Z</time>
      </trkpt>
      <trkpt lat="49.19066" lon="-0.39209">
        <ele>54</ele>
        <time>2023-05-04T08:19:31Z</time>
      </trkpt>
      <trkpt lat="49.19066" lon="-0.39209">
        <ele>54</ele>
        <time>2023-05-04T08:19:32Z</time>
      </trkpt>
      <trkpt lat="49.19066" lon="-0.39209">
        <ele>54</ele>
        <time>2023-05-04T08:19:33Z</time>
      </trkpt>
      <trkpt lat="49.19066" lon="-0.39209">
        <ele>54</ele>
        <time>2023-05-04T08:19:34Z</time>
      </trkpt>
      <trkpt lat="49.19066" lon="-0.39209">
        <ele>54</ele>
        <time>2023-05-04T08:19:35Z</time>
      </trkpt>
      <trkpt lat="49.19066" lon="-0.39209">
        <ele>54</ele>
        <time>2023-05-04T08:19:36Z</time>
      </trkpt>
      <trkpt lat="49.19066" lon="-0.39209">
        <ele>54</ele>
        <time>2023-05-04T08:19:37Z</time>
      </trkpt>
      <trkpt lat="49.19066" lon="-0.39209">
        <ele>54</ele>
        <time>2023-05-04T08:19:38Z</time>
      </trkpt>
      <trkpt lat="49.19066" lon="-0.39209">
        <ele>54</ele>
        <time>2023-05-04T08:19:39Z</time>
      </trkpt>
      <trkpt lat="49.19066" lon="-0.39209">
        <ele>54</ele>
        <time>2023-05-04T08:19:40Z</time>
      </trkpt>
      <trkpt lat="49.19066" lon="-0.39209">
        <ele>54</ele>
        <time>2023-05-04T08:19:41Z</time>
      </trkpt>
      <trkpt lat="49.19066" lon="-0.39209">
        <ele>54</ele>
        <time>2023-05-04T08:19:42Z</time>
      </trkpt>
      <trkpt lat="49.19066" lon="-0.39209">
        <ele>54</ele>
        <time>2023-05-04T08:19:43Z</time>
      </trkpt>
      <trkpt lat="49.19066" lon="-0.39209">
        <ele>54</ele>
        <time>2023-05-04T08:19:44Z</time>
      </trkpt>
      <trkpt lat="49.19066" lon="-0.39209">
        <ele>54</ele>
        <time>2023-05-04T08:19:45Z</time>
      </trkpt>
      <trkpt lat="49.19066" lon="-0.39209">
        <ele>54</ele>
        <time>2023-05-04T08:19:46Z</time>
      </trkpt>
      <trkpt lat="49.19066" lon="-0.39209">
        <ele>54</ele>
        <time>2023-05-04T08:19:47Z</time>
      </trkpt>
      <trkpt lat="49.19066" lon="-0.39209">
        <ele>54</ele>
        <time>2023-05-04T08:19:48Z</time>
      </trkpt>
      <trkpt lat="49.19066" lon="-0.39209">
        <ele>54</ele>
        <time>2023-05-04T08:19:49Z</time>
      </trkpt>
      <trkpt lat="49.19066" lon="-0.39209">
        <ele>54</ele>
        <time>2023-05-04T08:19:50Z</time>
      </trkpt>
      <trkpt lat="49.19066" lon="-0.39209">
        <ele>54</ele>
        <time>2023-05-04T08:19:51Z</time>
      </trkpt>
      <trkpt lat="49.19066" lon="-0.39209">
        <ele>54</ele>
        <time>2023-05-04T08:19:52Z</time>
      </trkpt>
      <trkpt lat="49.19066" lon="-0.39209">
        <ele>54</ele>
        <time>2023-05-04T08:19:53Z</time>
      </trkpt>
      <trkpt lat="49.19066" lon="-0.39209">
        <ele>54</ele>
        <time>2023-05-04T08:19:54Z</time>
      </trkpt>
      <trkpt lat="49.19066" lon="-0.39209">
        <ele>54</ele>
        <time>2023-05-04T08:19:55Z</time>
      </trkpt>
      <trkpt lat="49.19066" lon="-0.39209">
        <ele>54</ele>
        <time>2023-05-04T08:19:56Z</time>
      </trkpt>
      <trkpt lat="49.19066" lon="-0.39209">
        <ele>54</ele>
        <time>2023-05-04T08:19:57Z</time>
      </trkpt>
      <trkpt lat="49.19066" lon="-0.39209">
        <ele>54</ele>
        <time>2023-05-04T08:19:58Z</time>
      </trkpt>
      <trkpt lat="49.19066" lon="-0.39209">
        <ele>54</ele>
        <time>2023-05-04T08:19:59Z</time>
      </trkpt>
      <trkpt lat="49.19066" lon="-0.39209">
        <ele>54</ele>
        <time>2023-05-04T08:20:00Z</time>
      </trkpt>
      <trkpt lat="49.19066" lon="-0.39209">
        <ele>54</ele>
        <time>2023-05-04T08:20:01Z</time>
      </trkpt>
      <trkpt lat="49.19066" lon="-0.39209">
        <ele>54</ele>
        <time>2023-05-04T08:20:02Z</time>
      </trkpt>
      <trkpt lat="49.19066" lon="-0.39208">
        <ele>54</ele>
        <time>2023-05-04T08:20:03Z</time>
      </trkpt>
      <trkpt lat="49.19067" lon="-0.39205">
        <ele>54</ele>
        <time>2023-05-04T08:20:04Z</time>
      </trkpt>
      <trkpt lat="49.19068" lon="-0.39202">
        <ele>54.2</ele>
        <time>2023-05-04T08:20:05Z</time>
      </trkpt>
      <trkpt lat="49.19069" lon="-0.39199">
        <ele>54.2</ele>
        <time>2023-05-04T08:20:06Z</time>
      </trkpt>
      <trkpt lat="49.19071" lon="-0.39195">
        <ele>54.6</ele>
        <time>2023-05-04T08:20:07Z</time>
      </trkpt>
      <trkpt lat="49.19073" lon="-0.39191">
        <ele>54.8</ele>
        <time>2023-05-04T08:20:08Z</time>
      </trkpt>
      <trkpt lat="49.19076" lon="-0.39188">
        <ele>55</ele>
        <time>2023-05-04T08:20:09Z</time>
      </trkpt>
      <trkpt lat="49.1908" lon="-0.39187">
        <ele>55.4</ele>
        <time>2023-05-04T08:20:10Z</time>
      </trkpt>
      <trkpt lat="49.19084" lon="-0.39188">
        <ele>55.8</ele>
        <time>2023-05-04T08:20:11Z</time>
      </trkpt>
      <trkpt lat="49.1909" lon="-0.39192">
        <ele>56</ele>
        <time>2023-05-04T08:20:12Z</time>
      </trkpt>
      <trkpt lat="49.19095" lon="-0.39197">
        <ele>56.2</ele>
        <time>2023-05-04T08:20:13Z</time>
      </trkpt>
      <trkpt lat="49.19101" lon="-0.39201">
        <ele>56.4</ele>
        <time>2023-05-04T08:20:14Z</time>
      </trkpt>
      <trkpt lat="49.19106" lon="-0.39206">
        <ele>56.6</ele>
        <time>2023-05-04T08:20:15Z</time>
      </trkpt>
      <trkpt lat="49.19112" lon="-0.39211">
        <ele>56.8</ele>
        <time>2023-05-04T08:20:16Z</time>
      </trkpt>
      <trkpt lat="49.19117" lon="-0.39215">
        <ele>57</ele>
        <time>2023-05-04T08:20:17Z</time>
      </trkpt>
      <trkpt lat="49.19121" lon="-0.39219">
        <ele>57.2</ele>
        <time>2023-05-04T08:20:18Z</time>
      </trkpt>
      <trkpt lat="49.19126" lon="-0.39223">
        <ele>57.4</ele>
        <time>2023-05-04T08:20:19Z</time>
      </trkpt>
      <trkpt lat="49.1913" lon="-0.39227">
        <ele>57.6</ele>
        <time>2023-05-04T08:20:20Z</time>
      </trkpt>
      <trkpt lat="49.19134" lon="-0.3923">
        <ele>57.8</ele>
        <time>2023-05-04T08:20:21Z</time>
      </trkpt>
      <trkpt lat="49.19139" lon="-0.39234">
        <ele>57.8</ele>
        <time>2023-05-04T08:20:22Z</time>
      </trkpt>
      <trkpt lat="49.19143" lon="-0.39236">
        <ele>58</ele>
        <time>2023-05-04T08:20:23Z</time>
      </trkpt>
      <trkpt lat="49.19146" lon="-0.39236">
        <ele>58.2</ele>
        <time>2023-05-04T08:20:24Z</time>
      </trkpt>
      <trkpt lat="49.19149" lon="-0.39233">
        <ele>58.4</ele>
        <time>2023-05-04T08:20:25Z</time>
      </trkpt>
      <trkpt lat="49.19152" lon="-0.39228">
        <ele>58.6</ele>
        <time>2023-05-04T08:20:26Z</time>
      </trkpt>
      <trkpt lat="49.19153" lon="-0.39222">
        <ele>58.8</ele>
        <time>2023-05-04T08:20:27Z</time>
      </trkpt>
      <trkpt lat="49.19155" lon="-0.39216">
        <ele>59</ele>
        <time>2023-05-04T08:20:28Z</time>
      </trkpt>
      <trkpt lat="49.19157" lon="-0.3921">
        <ele>59</ele>
        <time>2023-05-04T08:20:29Z</time>
      </trkpt>
      <trkpt lat="49.19159" lon="-0.39204">
        <ele>59.2</ele>
        <time>2023-05-04T08:20:30Z</time>
      </trkpt>
      <trkpt lat="49.19162" lon="-0.39198">
        <ele>59.4</ele>
        <time>2023-05-04T08:20:31Z</time>
      </trkpt>
      <trkpt lat="49.19165" lon="-0.39192">
        <ele>59.6</ele>
        <time>2023-05-04T08:20:32Z</time>
      </trkpt>
      <trkpt lat="49.19167" lon="-0.39186">
        <ele>59.8</ele>
        <time>2023-05-04T08:20:33Z</time>
      </trkpt>
      <trkpt lat="49.19169" lon="-0.3918">
        <ele>60</ele>
        <time>2023-05-04T08:20:34Z</time>
      </trkpt>
      <trkpt lat="49.19172" lon="-0.39174">
        <ele>60.2</ele>
        <time>2023-05-04T08:20:35Z</time>
      </trkpt>
      <trkpt lat="49.19174" lon="-0.39168">
        <ele>60.2</ele>
        <time>2023-05-04T08:20:36Z</time>
      </trkpt>
      <trkpt lat="49.19177" lon="-0.39162">
        <ele>60.6</ele>
        <time>2023-05-04T08:20:37Z</time>
      </trkpt>
      <trkpt lat="49.19179" lon="-0.39156">
        <ele>61</ele>
        <time>2023-05-04T08:20:38Z</time>
      </trkpt>
      <trkpt lat="49.19181" lon="-0.3915">
        <ele>61.2</ele>
        <time>2023-05-04T08:20:39Z</time>
      </trkpt>
      <trkpt lat="49.19184" lon="-0.39143">
        <ele>61.4</ele>
        <time>2023-05-04T08:20:40Z</time>
      </trkpt>
      <trkpt lat="49.19186" lon="-0.39137">
        <ele>61.8</ele>
        <time>2023-05-04T08:20:41Z</time>
      </trkpt>
      <trkpt lat="49.19188" lon="-0.39131">
        <ele>62</ele>
        <time>2023-05-04T08:20:42Z</time>
      </trkpt>
      <trkpt lat="49.19191" lon="-0.39124">
        <ele>62</ele>
        <time>2023-05-04T08:20:43Z</time>
      </trkpt>
      <trkpt lat="49.19193" lon="-0.39118">
        <ele>62.2</ele>
        <time>2023-05-04T08:20:44Z</time>
      </trkpt>
      <trkpt lat="49.19195" lon="-0.39111">
        <ele>62.4</ele>
        <time>2023-05-04T08:20:45Z</time>
      </trkpt>
      <trkpt lat="49.19197" lon="-0.39105">
        <ele>62.6</ele>
        <time>2023-05-04T08:20:46Z</time>
      </trkpt>
      <trkpt lat="49.192" lon="-0.39098">
        <ele>62.8</ele>
        <time>2023-05-04T08:20:47Z</time>
      </trkpt>
      <trkpt lat="49.19202" lon="-0.39092">
        <ele>63</ele>
        <time>2023-05-04T08:20:48Z</time>
      </trkpt>
      <trkpt lat="49.19204" lon="-0.39085">
        <ele>63</ele>
        <time>2023-05-04T08:20:49Z</time>
      </trkpt>
      <trkpt lat="49.19207" lon="-0.39078">
        <ele>63</ele>
        <time>2023-05-04T08:20:50Z</time>
      </trkpt>
      <trkpt lat="49.19209" lon="-0.39072">
        <ele>63</ele>
        <time>2023-05-04T08:20:51Z</time>
      </trkpt>
      <trkpt lat="49.19211" lon="-0.39065">
        <ele>63</ele>
        <time>2023-05-04T08:20:52Z</time>
      </trkpt>
      <trkpt lat="49.19214" lon="-0.39058">
        <ele>62.8</ele>
        <time>2023-05-04T08:20:53Z</time>
      </trkpt>
      <trkpt lat="49.19216" lon="-0.39051">
        <ele>62.8</ele>
        <time>2023-05-04T08:20:54Z</time>
      </trkpt>
      <trkpt lat="49.19219" lon="-0.39044">
        <ele>62.8</ele>
        <time>2023-05-04T08:20:55Z</time>
      </trkpt>
      <trkpt lat="49.19221" lon="-0.39037">
        <ele>62.6</ele>
        <time>2023-05-04T08:20:56Z</time>
      </trkpt>
      <trkpt lat="49.19224" lon="-0.3903">
        <ele>62.6</ele>
        <time>2023-05-04T08:20:57Z</time>
      </trkpt>
      <trkpt lat="49.19226" lon="-0.39024">
        <ele>62.6</ele>
        <time>2023-05-04T08:20:58Z</time>
      </trkpt>
      <trkpt lat="49.19229" lon="-0.39017">
        <ele>62.4</ele>
        <time>2023-05-04T08:20:59Z</time>
      </trkpt>
      <trkpt lat="49.19231" lon="-0.39009">
        <ele>62.2</ele>
        <time>2023-05-04T08:21:00Z</time>
      </trkpt>
      <trkpt lat="49.19234" lon="-0.39002">
        <ele>62.2</ele>
        <time>2023-05-04T08:21:01Z</time>
      </trkpt>
      <trkpt lat="49.19236" lon="-0.38995">
        <ele>62</ele>
        <time>2023-05-04T08:21:02Z</time>
      </trkpt>
      <trkpt lat="49.19239" lon="-0.38988">
        <ele>62</ele>
        <time>2023-05-04T08:21:03Z</time>
      </trkpt>
      <trkpt lat="49.19242" lon="-0.38981">
        <ele>62</ele>
        <time>2023-05-04T08:21:04Z</time>
      </trkpt>
      <trkpt lat="49.19245" lon="-0.38974">
        <ele>62</ele>
        <time>2023-05-04T08:21:05Z</time>
      </trkpt>
      <trkpt lat="49.19247" lon="-0.38967">
        <ele>62</ele>
        <time>2023-05-04T08:21:06Z</time>
      </trkpt>
      <trkpt lat="49.1925" lon="-0.3896">
        <ele>62</ele>
        <time>2023-05-04T08:21:07Z</time>
      </trkpt>
      <trkpt lat="49.19253" lon="-0.38952">
        <ele>62</ele>
        <time>2023-05-04T08:21:08Z</time>
      </trkpt>
      <trkpt lat="49.19256" lon="-0.38945">
        <ele>62</ele>
        <time>2023-05-04T08:21:09Z</time>
      </trkpt>
      <trkpt lat="49.19259" lon="-0.38938">
        <ele>62</ele>
        <time>2023-05-04T08:21:10Z</time>
      </trkpt>
      <trkpt lat="49.19262" lon="-0.38931">
        <ele>62</ele>
        <time>2023-05-04T08:21:11Z</time>
      </trkpt>
      <trkpt lat="49.19265" lon="-0.38924">
        <ele>62.2</ele>
        <time>2023-05-04T08:21:12Z</time>
      </trkpt>
      <trkpt lat="49.19268" lon="-0.38917">
        <ele>62.2</ele>
        <time>2023-05-04T08:21:13Z</time>
      </trkpt>
      <trkpt lat="49.19271" lon="-0.38909">
        <ele>62.2</ele>
        <time>2023-05-04T08:21:14Z</time>
      </trkpt>
      <trkpt lat="49.19274" lon="-0.38902">
        <ele>62.2</ele>
        <time>2023-05-04T08:21:15Z</time>
      </trkpt>
      <trkpt lat="49.19277" lon="-0.38894">
        <ele>62.4</ele>
        <time>2023-05-04T08:21:16Z</time>
      </trkpt>
      <trkpt lat="49.1928" lon="-0.38886">
        <ele>62.6</ele>
        <time>2023-05-04T08:21:17Z</time>
      </trkpt>
      <trkpt lat="49.19283" lon="-0.38879">
        <ele>62.6</ele>
        <time>2023-05-04T08:21:18Z</time>
      </trkpt>
      <trkpt lat="49.19286" lon="-0.38871">
        <ele>62.8</ele>
        <time>2023-05-04T08:21:19Z</time>
      </trkpt>
      <trkpt lat="49.19288" lon="-0.38863">
        <ele>62.8</ele>
        <time>2023-05-04T08:21:20Z</time>
      </trkpt>
      <trkpt lat="49.19291" lon="-0.38854">
        <ele>63</ele>
        <time>2023-05-04T08:21:21Z</time>
      </trkpt>
      <trkpt lat="49.19294" lon="-0.38846">
        <ele>63</ele>
        <time>2023-05-04T08:21:22Z</time>
      </trkpt>
      <trkpt lat="49.19297" lon="-0.38838">
        <ele>63</ele>
        <time>2023-05-04T08:21:23Z</time>
      </trkpt>
      <trkpt lat="49.193" lon="-0.3883">
        <ele>63.2</ele>
        <time>2023-05-04T08:21:24Z</time>
      </trkpt>
      <trkpt lat="49.19303" lon="-0.38821">
        <ele>63.2</ele>
        <time>2023-05-04T08:21:25Z</time>
      </trkpt>
      <trkpt lat="49.19305" lon="-0.38813">
        <ele>63.2</ele>
        <time>2023-05-04T08:21:26Z</time>
      </trkpt>
      <trkpt lat="49.19308" lon="-0.38804">
        <ele>63.2</ele>
        <time>2023-05-04T08:21:27Z</time>
      </trkpt>
      <trkpt lat="49.19311" lon="-0.38795">
        <ele>63.2</ele>
        <time>2023-05-04T08:21:28Z</time>
      </trkpt>
      <trkpt lat="49.19314" lon="-0.38787">
        <ele>63.4</ele>
        <time>2023-05-04T08:21:29Z</time>
      </trkpt>
      <trkpt lat="49.19317" lon="-0.38778">
        <ele>63.6</ele>
        <time>2023-05-04T08:21:30Z</time>
      </trkpt>
      <trkpt lat="49.1932" lon="-0.3877">
        <ele>63.6</ele>
        <time>2023-05-04T08:21:31Z</time>
      </trkpt>
      <trkpt lat="49.19322" lon="-0.38761">
        <ele>63.6</ele>
        <time>2023-05-04T08:21:32Z</time>
      </trkpt>
      <trkpt lat="49.19325" lon="-0.38752">
        <ele>63.8</ele>
        <time>2023-05-04T08:21:33Z</time>
      </trkpt>
      <trkpt lat="49.19328" lon="-0.38743">
        <ele>63.8</ele>
        <time>2023-05-04T08:21:34Z</time>
      </trkpt>
      <trkpt lat="49.19331" lon="-0.38734">
        <ele>63.8</ele>
        <time>2023-05-04T08:21:35Z</time>
      </trkpt>
      <trkpt lat="49.19334" lon="-0.38724">
        <ele>63.8</ele>
        <time>2023-05-04T08:21:36Z</time>
      </trkpt>
      <trkpt lat="49.19337" lon="-0.38715">
        <ele>63.6</ele>
        <time>2023-05-04T08:21:37Z</time>
      </trkpt>
      <trkpt lat="49.1934" lon="-0.38705">
        <ele>63.2</ele>
        <time>2023-05-04T08:21:38Z</time>
      </trkpt>
      <trkpt lat="49.19343" lon="-0.38695">
        <ele>63</ele>
        <time>2023-05-04T08:21:39Z</time>
      </trkpt>
      <trkpt lat="49.19346" lon="-0.38685">
        <ele>62.8</ele>
        <time>2023-05-04T08:21:40Z</time>
      </trkpt>
      <trkpt lat="49.19348" lon="-0.38675">
        <ele>62.6</ele>
        <time>2023-05-04T08:21:41Z</time>
      </trkpt>
      <trkpt lat="49.19351" lon="-0.38665">
        <ele>62.2</ele>
        <time>2023-05-04T08:21:42Z</time>
      </trkpt>
      <trkpt lat="49.19353" lon="-0.38654">
        <ele>62</ele>
        <time>2023-05-04T08:21:43Z</time>
      </trkpt>
      <trkpt lat="49.19356" lon="-0.38644">
        <ele>61.4</ele>
        <time>2023-05-04T08:21:44Z</time>
      </trkpt>
      <trkpt lat="49.19358" lon="-0.38633">
        <ele>61</ele>
        <time>2023-05-04T08:21:45Z</time>
      </trkpt>
      <trkpt lat="49.19361" lon="-0.38623">
        <ele>60.6</ele>
        <time>2023-05-04T08:21:46Z</time>
      </trkpt>
      <trkpt lat="49.19363" lon="-0.38612">
        <ele>60.2</ele>
        <time>2023-05-04T08:21:47Z</time>
      </trkpt>
      <trkpt lat="49.19366" lon="-0.38602">
        <ele>59.8</ele>
        <time>2023-05-04T08:21:48Z</time>
      </trkpt>
      <trkpt lat="49.19368" lon="-0.38591">
        <ele>59.4</ele>
        <time>2023-05-04T08:21:49Z</time>
      </trkpt>
      <trkpt lat="49.1937" lon="-0.3858">
        <ele>59</ele>
        <time>2023-05-04T08:21:50Z</time>
      </trkpt>
      <trkpt lat="49.19372" lon="-0.38569">
        <ele>58.6</ele>
        <time>2023-05-04T08:21:51Z</time>
      </trkpt>
      <trkpt lat="49.19375" lon="-0.38558">
        <ele>58</ele>
        <time>2023-05-04T08:21:52Z</time>
      </trkpt>
      <trkpt lat="49.19377" lon="-0.38548">
        <ele>57.4</ele>
        <time>2023-05-04T08:21:53Z</time>
      </trkpt>
      <trkpt lat="49.19379" lon="-0.38537">
        <ele>57</ele>
        <time>2023-05-04T08:21:54Z</time>
      </trkpt>
      <trkpt lat="49.19381" lon="-0.38527">
        <ele>56.4</ele>
        <time>2023-05-04T08:21:55Z</time>
      </trkpt>
      <trkpt lat="49.19382" lon="-0.38518">
        <ele>56</ele>
        <time>2023-05-04T08:21:56Z</time>
      </trkpt>
      <trkpt lat="49.19384" lon="-0.3851">
        <ele>55.6</ele>
        <time>2023-05-04T08:21:57Z</time>
      </trkpt>
      <trkpt lat="49.19385" lon="-0.38504">
        <ele>55.2</ele>
        <time>2023-05-04T08:21:58Z</time>
      </trkpt>
      <trkpt lat="49.19386" lon="-0.38499">
        <ele>55</ele>
        <time>2023-05-04T08:21:59Z</time>
      </trkpt>
      <trkpt lat="49.19387" lon="-0.38495">
        <ele>55</ele>
        <time>2023-05-04T08:22:00Z</time>
      </trkpt>
      <trkpt lat="49.19388" lon="-0.38492">
        <ele>55</ele>
        <time>2023-05-04T08:22:01Z</time>
      </trkpt>
      <trkpt lat="49.19388" lon="-0.38489">
        <ele>55</ele>
        <time>2023-05-04T08:22:02Z</time>
      </trkpt>
      <trkpt lat="49.19388" lon="-0.38488">
        <ele>55</ele>
        <time>2023-05-04T08:22:03Z</time>
      </trkpt>
      <trkpt lat="49.19388" lon="-0.38488">
        <ele>55</ele>
        <time>2023-05-04T08:22:04Z</time>
      </trkpt>
      <trkpt lat="49.19388" lon="-0.38488">
        <ele>55</ele>
        <time>2023-05-04T08:22:05Z</time>
      </trkpt>
      <trkpt lat="49.19388" lon="-0.38488">
        <ele>55</ele>
        <time>2023-05-04T08:22:06Z</time>
      </trkpt>
      <trkpt lat="49.19388" lon="-0.38488">
        <ele>55</ele>
        <time>2023-05-04T08:22:07Z</time>
      </trkpt>
      <trkpt lat="49.19388" lon="-0.38488">
        <ele>55</ele>
        <time>2023-05-04T08:22:08Z</time>
      </trkpt>
      <trkpt lat="49.19388" lon="-0.38488">
        <ele>55</ele>
        <time>2023-05-04T08:22:09Z</time>
      </trkpt>
      <trkpt lat="49.19388" lon="-0.38488">
        <ele>55</ele>
        <time>2023-05-04T08:22:10Z</time>
      </trkpt>
      <trkpt lat="49.19388" lon="-0.38488">
        <ele>55</ele>
        <time>2023-05-04T08:22:11Z</time>
      </trkpt>
      <trkpt lat="49.19388" lon="-0.38487">
        <ele>55</ele>
        <time>2023-05-04T08:22:12Z</time>
      </trkpt>
      <trkpt lat="49.19389" lon="-0.38485">
        <ele>55</ele>
        <time>2023-05-04T08:22:13Z</time>
      </trkpt>
      <trkpt lat="49.19389" lon="-0.38483">
        <ele>55</ele>
        <time>2023-05-04T08:22:14Z</time>
      </trkpt>
      <trkpt lat="49.1939" lon="-0.38479">
        <ele>55</ele>
        <time>2023-05-04T08:22:15Z</time>
      </trkpt>
      <trkpt lat="49.19392" lon="-0.38474">
        <ele>55</ele>
        <time>2023-05-04T08:22:16Z</time>
      </trkpt>
      <trkpt lat="49.19393" lon="-0.38468">
        <ele>55</ele>
        <time>2023-05-04T08:22:17Z</time>
      </trkpt>
      <trkpt lat="49.19394" lon="-0.38464">
        <ele>54.8</ele>
        <time>2023-05-04T08:22:18Z</time>
      </trkpt>
      <trkpt lat="49.19397" lon="-0.3846">
        <ele>54.8</ele>
        <time>2023-05-04T08:22:19Z</time>
      </trkpt>
      <trkpt lat="49.19401" lon="-0.38459">
        <ele>54.6</ele>
        <time>2023-05-04T08:22:20Z</time>
      </trkpt>
      <trkpt lat="49.19405" lon="-0.3846">
        <ele>54.4</ele>
        <time>2023-05-04T08:22:21Z</time>
      </trkpt>
      <trkpt lat="49.1941" lon="-0.38464">
        <ele>54.2</ele>
        <time>2023-05-04T08:22:22Z</time>
      </trkpt>
      <trkpt lat="49.19414" lon="-0.3847">
        <ele>54</ele>
        <time>2023-05-04T08:22:23Z</time>
      </trkpt>
      <trkpt lat="49.19418" lon="-0.38476">
        <ele>54</ele>
        <time>2023-05-04T08:22:24Z</time>
      </trkpt>
      <trkpt lat="49.19423" lon="-0.38482">
        <ele>53.8</ele>
        <time>2023-05-04T08:22:25Z</time>
      </trkpt>
      <trkpt lat="49.19427" lon="-0.38489">
        <ele>53.6</ele>
        <time>2023-05-04T08:22:26Z</time>
      </trkpt>
      <trkpt lat="49.19432" lon="-0.38496">
        <ele>53.2</ele>
        <time>2023-05-04T08:22:27Z</time>
      </trkpt>
      <trkpt lat="49.19437" lon="-0.38503">
        <ele>53.2</ele>
        <time>2023-05-04T08:22:28Z</time>
      </trkpt>
      <trkpt lat="49.19442" lon="-0.3851">
        <ele>53.2</ele>
        <time>2023-05-04T08:22:29Z</time>
      </trkpt>
      <trkpt lat="49.19447" lon="-0.38517">
        <ele>53.2</ele>
        <time>2023-05-04T08:22:30Z</time>
      </trkpt>
      <trkpt lat="49.19453" lon="-0.38524">
        <ele>53.2</ele>
        <time>2023-05-04T08:22:31Z</time>
      </trkpt>
      <trkpt lat="49.19458" lon="-0.38531">
        <ele>53.2</ele>
        <time>2023-05-04T08:22:32Z</time>
      </trkpt>
      <trkpt lat="49.19464" lon="-0.38538">
        <ele>53.2</ele>
        <time>2023-05-04T08:22:33Z</time>
      </trkpt>
      <trkpt lat="49.1947" lon="-0.38544">
        <ele>53.2</ele>
        <time>2023-05-04T08:22:34Z</time>
      </trkpt>
      <trkpt lat="49.19476" lon="-0.3855">
        <ele>53</ele>
        <time>2023-05-04T08:22:35Z</time>
      </trkpt>
      <trkpt lat="49.19482" lon="-0.38556">
        <ele>53</ele>
        <time>2023-05-04T08:22:36Z</time>
      </trkpt>
      <trkpt lat="49.19488" lon="-0.38562">
        <ele>53</ele>
        <time>2023-05-04T08:22:37Z</time>
      </trkpt>
      <trkpt lat="49.19494" lon="-0.38568">
        <ele>52.8</ele>
        <time>2023-05-04T08:22:38Z</time>
      </trkpt>
      <trkpt lat="49.19501" lon="-0.38573">
        <ele>52.6</ele>
        <time>2023-05-04T08:22:39Z</time>
      </trkpt>
      <trkpt lat="49.19507" lon="-0.38578">
        <ele>52.6</ele>
        <time>2023-05-04T08:22:40Z</time>
      </trkpt>
      <trkpt lat="49.19513" lon="-0.38583">
        <ele>52.6</ele>
        <time>2023-05-04T08:22:41Z</time>
      </trkpt>
      <trkpt lat="49.1952" lon="-0.38587">
        <ele>52.4</ele>
        <time>2023-05-04T08:22:42Z</time>
      </trkpt>
      <trkpt lat="49.19526" lon="-0.38592">
        <ele>52.2</ele>
        <time>2023-05-04T08:22:43Z</time>
      </trkpt>
      <trkpt lat="49.19532" lon="-0.38597">
        <ele>52.2</ele>
        <time>2023-05-04T08:22:44Z</time>
      </trkpt>
      <trkpt lat="49.19539" lon="-0.38601">
        <ele>52</ele>
        <time>2023-05-04T08:22:45Z</time>
      </trkpt>
      <trkpt lat="49.19545" lon="-0.38605">
        <ele>52</ele>
        <time>2023-05-04T08:22:46Z</time>
      </trkpt>
      <trkpt lat="49.19552" lon="-0.3861">
        <ele>52</ele>
        <time>2023-05-04T08:22:47Z</time>
      </trkpt>
      <trkpt lat="49.19559" lon="-0.38614">
        <ele>52</ele>
        <time>2023-05-04T08:22:48Z</time>
      </trkpt>
      <trkpt lat="49.19565" lon="-0.38618">
        <ele>52</ele>
        <time>2023-05-04T08:22:49Z</time>
      </trkpt>
      <trkpt lat="49.19572" lon="-0.38622">
        <ele>52</ele>
        <time>2023-05-04T08:22:50Z</time>
      </trkpt>
      <trkpt lat="49.19578" lon="-0.38627">
        <ele>52.2</ele>
        <time>2023-05-04T08:22:51Z</time>
      </trkpt>
      <trkpt lat="49.19585" lon="-0.3863">
        <ele>52.2</ele>
        <time>2023-05-04T08:22:52Z</time>
      </trkpt>
      <trkpt lat="49.19591" lon="-0.38634">
        <ele>52.2</ele>
        <time>2023-05-04T08:22:53Z</time>
      </trkpt>
      <trkpt lat="49.19598" lon="-0.38638">
        <ele>52.4</ele>
        <time>2023-05-04T08:22:54Z</time>
      </trkpt>
      <trkpt lat="49.19604" lon="-0.38642">
        <ele>52.6</ele>
        <time>2023-05-04T08:22:55Z</time>
      </trkpt>
      <trkpt lat="49.1961" lon="-0.38647">
        <ele>52.8</ele>
        <time>2023-05-04T08:22:56Z</time>
      </trkpt>
      <trkpt lat="49.19616" lon="-0.38651">
        <ele>53</ele>
        <time>2023-05-04T08:22:57Z</time>
      </trkpt>
      <trkpt lat="49.19621" lon="-0.38656">
        <ele>53.2</ele>
        <time>2023-05-04T08:22:58Z</time>
      </trkpt>
      <trkpt lat="49.19627" lon="-0.38661">
        <ele>53.6</ele>
        <time>2023-05-04T08:22:59Z</time>
      </trkpt>
      <trkpt lat="49.19633" lon="-0.38666">
        <ele>54</ele>
        <time>2023-05-04T08:23:00Z</time>
      </trkpt>
      <trkpt lat="49.19639" lon="-0.38671">
        <ele>54</ele>
        <time>2023-05-04T08:23:01Z</time>
      </trkpt>
      <trkpt lat="49.19645" lon="-0.38676">
        <ele>54.2</ele>
        <time>2023-05-04T08:23:02Z</time>
      </trkpt>
      <trkpt lat="49.19651" lon="-0.3868">
        <ele>54.2</ele>
        <time>2023-05-04T08:23:03Z</time>
      </trkpt>
      <trkpt lat="49.19657" lon="-0.38685">
        <ele>54.4</ele>
        <time>2023-05-04T08:23:04Z</time>
      </trkpt>
      <trkpt lat="49.19663" lon="-0.3869">
        <ele>54.6</ele>
        <time>2023-05-04T08:23:05Z</time>
      </trkpt>
      <trkpt lat="49.19669" lon="-0.38695">
        <ele>54.6</ele>
        <time>2023-05-04T08:23:06Z</time>
      </trkpt>
      <trkpt lat="49.19675" lon="-0.387">
        <ele>54.6</ele>
        <time>2023-05-04T08:23:07Z</time>
      </trkpt>
      <trkpt lat="49.19681" lon="-0.38706">
        <ele>54.4</ele>
        <time>2023-05-04T08:23:08Z</time>
      </trkpt>
      <trkpt lat="49.19687" lon="-0.38711">
        <ele>54.4</ele>
        <time>2023-05-04T08:23:09Z</time>
      </trkpt>
      <trkpt lat="49.19692" lon="-0.38716">
        <ele>54.2</ele>
        <time>2023-05-04T08:23:10Z</time>
      </trkpt>
      <trkpt lat="49.19698" lon="-0.38722">
        <ele>54.2</ele>
        <time>2023-05-04T08:23:11Z</time>
      </trkpt>
      <trkpt lat="49.19703" lon="-0.38727">
        <ele>54</ele>
        <time>2023-05-04T08:23:12Z</time>
      </trkpt>
      <trkpt lat="49.19709" lon="-0.38733">
        <ele>54</ele>
        <time>2023-05-04T08:23:13Z</time>
      </trkpt>
      <trkpt lat="49.19714" lon="-0.38738">
        <ele>54</ele>
        <time>2023-05-04T08:23:14Z</time>
      </trkpt>
      <trkpt lat="49.1972" lon="-0.38744">
        <ele>54</ele>
        <time>2023-05-04T08:23:15Z</time>
      </trkpt>
      <trkpt lat="49.19726" lon="-0.3875">
        <ele>54</ele>
        <time>2023-05-04T08:23:16Z</time>
      </trkpt>
      <trkpt lat="49.19731" lon="-0.38755">
        <ele>53.8</ele>
        <time>2023-05-04T08:23:17Z</time>
      </trkpt>
      <trkpt lat="49.19736" lon="-0.38761">
        <ele>53.8</ele>
        <time>2023-05-04T08:23:18Z</time>
      </trkpt>
      <trkpt lat="49.19742" lon="-0.38767">
        <ele>53.8</ele>
        <time>2023-05-04T08:23:19Z</time>
      </trkpt>
      <trkpt lat="49.19747" lon="-0.38773">
        <ele>53.6</ele>
        <time>2023-05-04T08:23:20Z</time>
      </trkpt>
      <trkpt lat="49.19752" lon="-0.38779">
        <ele>53.8</ele>
        <time>2023-05-04T08:23:21Z</time>
      </trkpt>
      <trkpt lat="49.19757" lon="-0.38785">
        <ele>54</ele>
        <time>2023-05-04T08:23:22Z</time>
      </trkpt>
      <trkpt lat="49.19763" lon="-0.38792">
        <ele>54.2</ele>
        <time>2023-05-04T08:23:23Z</time>
      </trkpt>
      <trkpt lat="49.19767" lon="-0.38798">
        <ele>54.2</ele>
        <time>2023-05-04T08:23:24Z</time>
      </trkpt>
      <trkpt lat="49.19772" lon="-0.38805">
        <ele>54.2</ele>
        <time>2023-05-04T08:23:25Z</time>
      </trkpt>
      <trkpt lat="49.19777" lon="-0.38811">
        <ele>54.2</ele>
        <time>2023-05-04T08:23:26Z</time>
      </trkpt>
      <trkpt lat="49.19782" lon="-0.38818">
        <ele>54.2</ele>
        <time>2023-05-04T08:23:27Z</time>
      </trkpt>
      <trkpt lat="49.19787" lon="-0.38825">
        <ele>54.2</ele>
        <time>2023-05-04T08:23:28Z</time>
      </trkpt>
      <trkpt lat="49.19791" lon="-0.38832">
        <ele>54</ele>
        <time>2023-05-04T08:23:29Z</time>
      </trkpt>
      <trkpt lat="49.19796" lon="-0.38839">
        <ele>54.2</ele>
        <time>2023-05-04T08:23:30Z</time>
      </trkpt>
      <trkpt lat="49.19801" lon="-0.38846">
        <ele>54.6</ele>
        <time>2023-05-04T08:23:31Z</time>
      </trkpt>
      <trkpt lat="49.19805" lon="-0.38853">
        <ele>55</ele>
        <time>2023-05-04T08:23:32Z</time>
      </trkpt>
      <trkpt lat="49.19809" lon="-0.3886">
        <ele>55</ele>
        <time>2023-05-04T08:23:33Z</time>
      </trkpt>
      <trkpt lat="49.19813" lon="-0.38867">
        <ele>55.2</ele>
        <time>2023-05-04T08:23:34Z</time>
      </trkpt>
      <trkpt lat="49.19817" lon="-0.38874">
        <ele>55.4</ele>
        <time>2023-05-04T08:23:35Z</time>
      </trkpt>
      <trkpt lat="49.19821" lon="-0.3888">
        <ele>55.6</ele>
        <time>2023-05-04T08:23:36Z</time>
      </trkpt>
      <trkpt lat="49.19825" lon="-0.38886">
        <ele>55.6</ele>
        <time>2023-05-04T08:23:37Z</time>
      </trkpt>
      <trkpt lat="49.19828" lon="-0.38892">
        <ele>55.6</ele>
        <time>2023-05-04T08:23:38Z</time>
      </trkpt>
      <trkpt lat="49.1983" lon="-0.38896">
        <ele>55.6</ele>
        <time>2023-05-04T08:23:39Z</time>
      </trkpt>
      <trkpt lat="49.19832" lon="-0.389">
        <ele>55.6</ele>
        <time>2023-05-04T08:23:40Z</time>
      </trkpt>
      <trkpt lat="49.19834" lon="-0.38903">
        <ele>55.6</ele>
        <time>2023-05-04T08:23:41Z</time>
      </trkpt>
      <trkpt lat="49.19835" lon="-0.38905">
        <ele>55.8</ele>
        <time>2023-05-04T08:23:42Z</time>
      </trkpt>
      <trkpt lat="49.19836" lon="-0.38906">
        <ele>55.8</ele>
        <time>2023-05-04T08:23:43Z</time>
      </trkpt>
      <trkpt lat="49.19837" lon="-0.38907">
        <ele>55.8</ele>
        <time>2023-05-04T08:23:44Z</time>
      </trkpt>
      <trkpt lat="49.19837" lon="-0.38908">
        <ele>56</ele>
        <time>2023-05-04T08:23:45Z</time>
      </trkpt>
      <trkpt lat="49.19838" lon="-0.38909">
        <ele>56</ele>
        <time>2023-05-04T08:23:46Z</time>
      </trkpt>
      <trkpt lat="49.19838" lon="-0.38909">
        <ele>56</ele>
        <time>2023-05-04T08:23:47Z</time>
      </trkpt>
      <trkpt lat="49.19838" lon="-0.3891">
        <ele>56</ele>
        <time>2023-05-04T08:23:48Z</time>
      </trkpt>
      <trkpt lat="49.19838" lon="-0.38911">
        <ele>56</ele>
        <time>2023-05-04T08:23:49Z</time>
      </trkpt>
      <trkpt lat="49.19839" lon="-0.38913">
        <ele>56.2</ele>
        <time>2023-05-04T08:23:50Z</time>
      </trkpt>
      <trkpt lat="49.19841" lon="-0.38916">
        <ele>56.2</ele>
        <time>2023-05-04T08:23:51Z</time>
      </trkpt>
      <trkpt lat="49.19843" lon="-0.3892">
        <ele>56.6</ele>
        <time>2023-05-04T08:23:52Z</time>
      </trkpt>
      <trkpt lat="49.19845" lon="-0.38924">
        <ele>57</ele>
        <time>2023-05-04T08:23:53Z</time>
      </trkpt>
      <trkpt lat="49.19847" lon="-0.38929">
        <ele>57.2</ele>
        <time>2023-05-04T08:23:54Z</time>
      </trkpt>
      <trkpt lat="49.19849" lon="-0.38935">
        <ele>57.8</ele>
        <time>2023-05-04T08:23:55Z</time>
      </trkpt>
      <trkpt lat="49.19852" lon="-0.38941">
        <ele>58</ele>
        <time>2023-05-04T08:23:56Z</time>
      </trkpt>
      <trkpt lat="49.19855" lon="-0.38947">
        <ele>58.6</ele>
        <time>2023-05-04T08:23:57Z</time>
      </trkpt>
      <trkpt lat="49.19858" lon="-0.38954">
        <ele>59</ele>
        <time>2023-05-04T08:23:58Z</time>
      </trkpt>
      <trkpt lat="49.19861" lon="-0.38961">
        <ele>59.2</ele>
        <time>2023-05-04T08:23:59Z</time>
      </trkpt>
      <trkpt lat="49.19864" lon="-0.38968">
        <ele>59.8</ele>
        <time>2023-05-04T08:24:00Z</time>
      </trkpt>
      <trkpt lat="49.19867" lon="-0.38975">
        <ele>60</ele>
        <time>2023-05-04T08:24:01Z</time>
      </trkpt>
      <trkpt lat="49.1987" lon="-0.38983">
        <ele>60.2</ele>
        <time>2023-05-04T08:24:02Z</time>
      </trkpt>
      <trkpt lat="49.19873" lon="-0.3899">
        <ele>60.6</ele>
        <time>2023-05-04T08:24:03Z</time>
      </trkpt>
      <trkpt lat="49.19876" lon="-0.38998">
        <ele>61</ele>
        <time>2023-05-04T08:24:04Z</time>
      </trkpt>
      <trkpt lat="49.19879" lon="-0.39005">
        <ele>61.2</ele>
        <time>2023-05-04T08:24:05Z</time>
      </trkpt>
      <trkpt lat="49.19882" lon="-0.39013">
        <ele>61.8</ele>
        <time>2023-05-04T08:24:06Z</time>
      </trkpt>
      <trkpt lat="49.19884" lon="-0.3902">
        <ele>62</ele>
        <time>2023-05-04T08:24:07Z</time>
      </trkpt>
      <trkpt lat="49.19887" lon="-0.39028">
        <ele>62.4</ele>
        <time>2023-05-04T08:24:08Z</time>
      </trkpt>
      <trkpt lat="49.1989" lon="-0.39035">
        <ele>62.8</ele>
        <time>2023-05-04T08:24:09Z</time>
      </trkpt>
      <trkpt lat="49.19893" lon="-0.39042">
        <ele>63</ele>
        <time>2023-05-04T08:24:10Z</time>
      </trkpt>
      <trkpt lat="49.19897" lon="-0.39047">
        <ele>63</ele>
        <time>2023-05-04T08:24:11Z</time>
      </trkpt>
      <trkpt lat="49.19902" lon="-0.39048">
        <ele>62.8</ele>
        <time>2023-05-04T08:24:12Z</time>
      </trkpt>
      <trkpt lat="49.19906" lon="-0.39046">
        <ele>62.6</ele>
        <time>2023-05-04T08:24:13Z</time>
      </trkpt>
      <trkpt lat="49.1991" lon="-0.39041">
        <ele>62.2</ele>
        <time>2023-05-04T08:24:14Z</time>
      </trkpt>
      <trkpt lat="49.19914" lon="-0.39037">
        <ele>62</ele>
        <time>2023-05-04T08:24:15Z</time>
      </trkpt>
      <trkpt lat="49.19917" lon="-0.39032">
        <ele>61.8</ele>
        <time>2023-05-04T08:24:16Z</time>
      </trkpt>
      <trkpt lat="49.19921" lon="-0.39028">
        <ele>61.8</ele>
        <time>2023-05-04T08:24:17Z</time>
      </trkpt>
      <trkpt lat="49.19925" lon="-0.39023">
        <ele>61.8</ele>
        <time>2023-05-04T08:24:18Z</time>
      </trkpt>
      <trkpt lat="49.19929" lon="-0.39019">
        <ele>62</ele>
        <time>2023-05-04T08:24:19Z</time>
      </trkpt>
      <trkpt lat="49.19933" lon="-0.39015">
        <ele>62</ele>
        <time>2023-05-04T08:24:20Z</time>
      </trkpt>
      <trkpt lat="49.19937" lon="-0.39011">
        <ele>62</ele>
        <time>2023-05-04T08:24:21Z</time>
      </trkpt>
      <trkpt lat="49.19942" lon="-0.39007">
        <ele>62</ele>
        <time>2023-05-04T08:24:22Z</time>
      </trkpt>
      <trkpt lat="49.19946" lon="-0.39003">
        <ele>62</ele>
        <time>2023-05-04T08:24:23Z</time>
      </trkpt>
      <trkpt lat="49.1995" lon="-0.38999">
        <ele>62.2</ele>
        <time>2023-05-04T08:24:24Z</time>
      </trkpt>
      <trkpt lat="49.19955" lon="-0.38994">
        <ele>62.2</ele>
        <time>2023-05-04T08:24:25Z</time>
      </trkpt>
      <trkpt lat="49.1996" lon="-0.3899">
        <ele>62.4</ele>
        <time>2023-05-04T08:24:26Z</time>
      </trkpt>
      <trkpt lat="49.19964" lon="-0.38985">
        <ele>62.6</ele>
        <time>2023-05-04T08:24:27Z</time>
      </trkpt>
      <trkpt lat="49.19969" lon="-0.38981">
        <ele>62.6</ele>
        <time>2023-05-04T08:24:28Z</time>
      </trkpt>
      <trkpt lat="49.19973" lon="-0.38976">
        <ele>62.8</ele>
        <time>2023-05-04T08:24:29Z</time>
      </trkpt>
      <trkpt lat="49.19978" lon="-0.38971">
        <ele>63</ele>
        <time>2023-05-04T08:24:30Z</time>
      </trkpt>
      <trkpt lat="49.19983" lon="-0.38966">
        <ele>63</ele>
        <time>2023-05-04T08:24:31Z</time>
      </trkpt>
      <trkpt lat="49.19987" lon="-0.38961">
        <ele>63</ele>
        <time>2023-05-04T08:24:32Z</time>
      </trkpt>
      <trkpt lat="49.19992" lon="-0.38956">
        <ele>63.2</ele>
        <time>2023-05-04T08:24:33Z</time>
      </trkpt>
      <trkpt lat="49.19996" lon="-0.38951">
        <ele>63.2</ele>
        <time>2023-05-04T08:24:34Z</time>
      </trkpt>
      <trkpt lat="49.2" lon="-0.38946">
        <ele>63.4</ele>
        <time>2023-05-04T08:24:35Z</time>
      </trkpt>
      <trkpt lat="49.20005" lon="-0.38941">
        <ele>63.4</ele>
        <time>2023-05-04T08:24:36Z</time>
      </trkpt>
      <trkpt lat="49.20009" lon="-0.38936">
        <ele>63.2</ele>
        <time>2023-05-04T08:24:37Z</time>
      </trkpt>
      <trkpt lat="49.20013" lon="-0.38932">
        <ele>63.2</ele>
        <time>2023-05-04T08:24:38Z</time>
      </trkpt>
      <trkpt lat="49.20017" lon="-0.38927">
        <ele>63.2</ele>
        <time>2023-05-04T08:24:39Z</time>
      </trkpt>
      <trkpt lat="49.20022" lon="-0.38922">
        <ele>63.2</ele>
        <time>2023-05-04T08:24:40Z</time>
      </trkpt>
      <trkpt lat="49.20026" lon="-0.38917">
        <ele>63.2</ele>
        <time>2023-05-04T08:24:41Z</time>
      </trkpt>
      <trkpt lat="49.20031" lon="-0.38912">
        <ele>63.2</ele>
        <time>2023-05-04T08:24:42Z</time>
      </trkpt>
      <trkpt lat="49.20035" lon="-0.38907">
        <ele>63.2</ele>
        <time>2023-05-04T08:24:43Z</time>
      </trkpt>
      <trkpt lat="49.2004" lon="-0.38902">
        <ele>63</ele>
        <time>2023-05-04T08:24:44Z</time>
      </trkpt>
      <trkpt lat="49.20045" lon="-0.38898">
        <ele>63</ele>
        <time>2023-05-04T08:24:45Z</time>
      </trkpt>
      <trkpt lat="49.2005" lon="-0.38893">
        <ele>63</ele>
        <time>2023-05-04T08:24:46Z</time>
      </trkpt>
      <trkpt lat="49.20055" lon="-0.38888">
        <ele>63</ele>
        <time>2023-05-04T08:24:47Z</time>
      </trkpt>
      <trkpt lat="49.2006" lon="-0.38883">
        <ele>63</ele>
        <time>2023-05-04T08:24:48Z</time>
      </trkpt>
      <trkpt lat="49.20065" lon="-0.38878">
        <ele>63</ele>
        <time>2023-05-04T08:24:49Z</time>
      </trkpt>
      <trkpt lat="49.20069" lon="-0.38873">
        <ele>63</ele>
        <time>2023-05-04T08:24:50Z</time>
      </trkpt>
      <trkpt lat="49.20073" lon="-0.38868">
        <ele>63</ele>
        <time>2023-05-04T08:24:51Z</time>
      </trkpt>
      <trkpt lat="49.20076" lon="-0.38863">
        <ele>63.2</ele>
        <time>2023-05-04T08:24:52Z</time>
      </trkpt>
      <trkpt lat="49.20079" lon="-0.38857">
        <ele>63.2</ele>
        <time>2023-05-04T08:24:53Z</time>
      </trkpt>
      <trkpt lat="49.20081" lon="-0.38852">
        <ele>63</ele>
        <time>2023-05-04T08:24:54Z</time>
      </trkpt>
      <trkpt lat="49.20082" lon="-0.38845">
        <ele>63</ele>
        <time>2023-05-04T08:24:55Z</time>
      </trkpt>
      <trkpt lat="49.20082" lon="-0.38839">
        <ele>63</ele>
        <time>2023-05-04T08:24:56Z</time>
      </trkpt>
      <trkpt lat="49.20082" lon="-0.38831">
        <ele>63</ele>
        <time>2023-05-04T08:24:57Z</time>
      </trkpt>
      <trkpt lat="49.20082" lon="-0.38824">
        <ele>63.2</ele>
        <time>2023-05-04T08:24:58Z</time>
      </trkpt>
      <trkpt lat="49.20082" lon="-0.38817">
        <ele>63.6</ele>
        <time>2023-05-04T08:24:59Z</time>
      </trkpt>
      <trkpt lat="49.20084" lon="-0.3881">
        <ele>64</ele>
        <time>2023-05-04T08:25:00Z</time>
      </trkpt>
      <trkpt lat="49.20088" lon="-0.38804">
        <ele>64.2</ele>
        <time>2023-05-04T08:25:01Z</time>
      </trkpt>
      <trkpt lat="49.20092" lon="-0.388">
        <ele>64.4</ele>
        <time>2023-05-04T08:25:02Z</time>
      </trkpt>
      <trkpt lat="49.20097" lon="-0.38798">
        <ele>64.6</ele>
        <time>2023-05-04T08:25:03Z</time>
      </trkpt>
      <trkpt lat="49.20102" lon="-0.38798">
        <ele>64.8</ele>
        <time>2023-05-04T08:25:04Z</time>
      </trkpt>
      <trkpt lat="49.20107" lon="-0.38801">
        <ele>65</ele>
        <time>2023-05-04T08:25:05Z</time>
      </trkpt>
      <trkpt lat="49.20111" lon="-0.38805">
        <ele>65</ele>
        <time>2023-05-04T08:25:06Z</time>
      </trkpt>
      <trkpt lat="49.20114" lon="-0.38811">
        <ele>65</ele>
        <time>2023-05-04T08:25:07Z</time>
      </trkpt>
      <trkpt lat="49.20116" lon="-0.38819">
        <ele>64.8</ele>
        <time>2023-05-04T08:25:08Z</time>
      </trkpt>
      <trkpt lat="49.20117" lon="-0.38828">
        <ele>64.6</ele>
        <time>2023-05-04T08:25:09Z</time>
      </trkpt>
      <trkpt lat="49.20117" lon="-0.38836">
        <ele>64.6</ele>
        <time>2023-05-04T08:25:10Z</time>
      </trkpt>
      <trkpt lat="49.20118" lon="-0.38844">
        <ele>64.8</ele>
        <time>2023-05-04T08:25:11Z</time>
      </trkpt>
      <trkpt lat="49.20121" lon="-0.38851">
        <ele>65</ele>
        <time>2023-05-04T08:25:12Z</time>
      </trkpt>
      <trkpt lat="49.20124" lon="-0.38857">
        <ele>65.4</ele>
        <time>2023-05-04T08:25:13Z</time>
      </trkpt>
      <trkpt lat="49.20128" lon="-0.38864">
        <ele>65.6</ele>
        <time>2023-05-04T08:25:14Z</time>
      </trkpt>
      <trkpt lat="49.20132" lon="-0.3887">
        <ele>65.8</ele>
        <time>2023-05-04T08:25:15Z</time>
      </trkpt>
      <trkpt lat="49.20136" lon="-0.38876">
        <ele>66</ele>
        <time>2023-05-04T08:25:16Z</time>
      </trkpt>
      <trkpt lat="49.2014" lon="-0.38883">
        <ele>66.4</ele>
        <time>2023-05-04T08:25:17Z</time>
      </trkpt>
      <trkpt lat="49.20144" lon="-0.38889">
        <ele>66.6</ele>
        <time>2023-05-04T08:25:18Z</time>
      </trkpt>
      <trkpt lat="49.20149" lon="-0.38895">
        <ele>67</ele>
        <time>2023-05-04T08:25:19Z</time>
      </trkpt>
      <trkpt lat="49.20153" lon="-0.38902">
        <ele>67</ele>
        <time>2023-05-04T08:25:20Z</time>
      </trkpt>
      <trkpt lat="49.20157" lon="-0.38908">
        <ele>67.4</ele>
        <time>2023-05-04T08:25:21Z</time>
      </trkpt>
      <trkpt lat="49.20161" lon="-0.38915">
        <ele>67.6</ele>
        <time>2023-05-04T08:25:22Z</time>
      </trkpt>
      <trkpt lat="49.20165" lon="-0.38922">
        <ele>67.8</ele>
        <time>2023-05-04T08:25:23Z</time>
      </trkpt>
      <trkpt lat="49.20169" lon="-0.38929">
        <ele>67.8</ele>
        <time>2023-05-04T08:25:24Z</time>
      </trkpt>
      <trkpt lat="49.20173" lon="-0.38935">
        <ele>67.6</ele>
        <time>2023-05-04T08:25:25Z</time>
      </trkpt>
      <trkpt lat="49.20177" lon="-0.38942">
        <ele>67.6</ele>
        <time>2023-05-04T08:25:26Z</time>
      </trkpt>
      <trkpt lat="49.20181" lon="-0.38949">
        <ele>67.6</ele>
        <time>2023-05-04T08:25:27Z</time>
      </trkpt>
      <trkpt lat="49.20185" lon="-0.38956">
        <ele>67.4</ele>
        <time>2023-05-04T08:25:28Z</time>
      </trkpt>
      <trkpt lat="49.20189" lon="-0.38962">
        <ele>67.4</ele>
        <time>2023-05-04T08:25:29Z</time>
      </trkpt>
      <trkpt lat="49.20193" lon="-0.38969">
        <ele>67.4</ele>
        <time>2023-05-04T08:25:30Z</time>
      </trkpt>
      <trkpt lat="49.20197" lon="-0.38976">
        <ele>67.2</ele>
        <time>2023-05-04T08:25:31Z</time>
      </trkpt>
      <trkpt lat="49.20201" lon="-0.38983">
        <ele>67</ele>
        <time>2023-05-04T08:25:32Z</time>
      </trkpt>
      <trkpt lat="49.20205" lon="-0.38989">
        <ele>67</ele>
        <time>2023-05-04T08:25:33Z</time>
      </trkpt>
      <trkpt lat="49.20209" lon="-0.38996">
        <ele>67</ele>
        <time>2023-05-04T08:25:34Z</time>
      </trkpt>
      <trkpt lat="49.20213" lon="-0.39003">
        <ele>67</ele>
        <time>2023-05-04T08:25:35Z</time>
      </trkpt>
      <trkpt lat="49.20217" lon="-0.39009">
        <ele>67</ele>
        <time>2023-05-04T08:25:36Z</time>
      </trkpt>
      <trkpt lat="49.20221" lon="-0.39016">
        <ele>66.8</ele>
        <time>2023-05-04T08:25:37Z</time>
      </trkpt>
      <trkpt lat="49.20225" lon="-0.39022">
        <ele>66.6</ele>
        <time>2023-05-04T08:25:38Z</time>
      </trkpt>
      <trkpt lat="49.20229" lon="-0.39029">
        <ele>66.6</ele>
        <time>2023-05-04T08:25:39Z</time>
      </trkpt>
      <trkpt lat="49.20233" lon="-0.39035">
        <ele>66.6</ele>
        <time>2023-05-04T08:25:40Z</time>
      </trkpt>
      <trkpt lat="49.20237" lon="-0.39042">
        <ele>66.6</ele>
        <time>2023-05-04T08:25:41Z</time>
      </trkpt>
      <trkpt lat="49.20241" lon="-0.39049">
        <ele>66.4</ele>
        <time>2023-05-04T08:25:42Z</time>
      </trkpt>
      <trkpt lat="49.20245" lon="-0.39055">
        <ele>66.4</ele>
        <time>2023-05-04T08:25:43Z</time>
      </trkpt>
      <trkpt lat="49.20249" lon="-0.39062">
        <ele>66.4</ele>
        <time>2023-05-04T08:25:44Z</time>
      </trkpt>
      <trkpt lat="49.20253" lon="-0.39068">
        <ele>66.2</ele>
        <time>2023-05-04T08:25:45Z</time>
      </trkpt>
      <trkpt lat="49.20257" lon="-0.39075">
        <ele>66.4</ele>
        <time>2023-05-04T08:25:46Z</time>
      </trkpt>
      <trkpt lat="49.20261" lon="-0.39081">
        <ele>66.4</ele>
        <time>2023-05-04T08:25:47Z</time>
      </trkpt>
      <trkpt lat="49.20264" lon="-0.39087">
        <ele>66.4</ele>
        <time>2023-05-04T08:25:48Z</time>
      </trkpt>
      <trkpt lat="49.20268" lon="-0.39092">
        <ele>66.4</ele>
        <time>2023-05-04T08:25:49Z</time>
      </trkpt>
      <trkpt lat="49.20271" lon="-0.39097">
        <ele>66.6</ele>
        <time>2023-05-04T08:25:50Z</time>
      </trkpt>
      <trkpt lat="49.20275" lon="-0.391">
        <ele>66.6</ele>
        <time>2023-05-04T08:25:51Z</time>
      </trkpt>
      <trkpt lat="49.20278" lon="-0.39101">
        <ele>66.6</ele>
        <time>2023-05-04T08:25:52Z</time>
      </trkpt>
      <trkpt lat="49.20282" lon="-0.391">
        <ele>66.8</ele>
        <time>2023-05-04T08:25:53Z</time>
      </trkpt>
      <trkpt lat="49.20286" lon="-0.39097">
        <ele>67</ele>
        <time>2023-05-04T08:25:54Z</time>
      </trkpt>
      <trkpt lat="49.2029" lon="-0.39094">
        <ele>67</ele>
        <time>2023-05-04T08:25:55Z</time>
      </trkpt>
      <trkpt lat="49.20295" lon="-0.39092">
        <ele>67</ele>
        <time>2023-05-04T08:25:56Z</time>
      </trkpt>
      <trkpt lat="49.203" lon="-0.39091">
        <ele>67.2</ele>
        <time>2023-05-04T08:25:57Z</time>
      </trkpt>
      <trkpt lat="49.20305" lon="-0.39091">
        <ele>67.4</ele>
        <time>2023-05-04T08:25:58Z</time>
      </trkpt>
      <trkpt lat="49.2031" lon="-0.39093">
        <ele>67.4</ele>
        <time>2023-05-04T08:25:59Z</time>
      </trkpt>
      <trkpt lat="49.20315" lon="-0.39096">
        <ele>67.6</ele>
        <time>2023-05-04T08:26:00Z</time>
      </trkpt>
      <trkpt lat="49.2032" lon="-0.39099">
        <ele>67.6</ele>
        <time>2023-05-04T08:26:01Z</time>
      </trkpt>
      <trkpt lat="49.20324" lon="-0.39105">
        <ele>67.8</ele>
        <time>2023-05-04T08:26:02Z</time>
      </trkpt>
      <trkpt lat="49.20328" lon="-0.39111">
        <ele>68</ele>
        <time>2023-05-04T08:26:03Z</time>
      </trkpt>
      <trkpt lat="49.20331" lon="-0.39117">
        <ele>68</ele>
        <time>2023-05-04T08:26:04Z</time>
      </trkpt>
      <trkpt lat="49.20334" lon="-0.39122">
        <ele>68</ele>
        <time>2023-05-04T08:26:05Z</time>
      </trkpt>
      <trkpt lat="49.20337" lon="-0.39126">
        <ele>68</ele>
        <time>2023-05-04T08:26:06Z</time>
      </trkpt>
      <trkpt lat="49.2034" lon="-0.39129">
        <ele>68</ele>
        <time>2023-05-04T08:26:07Z</time>
      </trkpt>
      <trkpt lat="49.20344" lon="-0.39128">
        <ele>68</ele>
        <time>2023-05-04T08:26:08Z</time>
      </trkpt>
      <trkpt lat="49.20348" lon="-0.39126">
        <ele>67.8</ele>
        <time>2023-05-04T08:26:09Z</time>
      </trkpt>
      <trkpt lat="49.20352" lon="-0.39124">
        <ele>67.8</ele>
        <time>2023-05-04T08:26:10Z</time>
      </trkpt>
      <trkpt lat="49.20357" lon="-0.39122">
        <ele>67.6</ele>
        <time>2023-05-04T08:26:11Z</time>
      </trkpt>
      <trkpt lat="49.20362" lon="-0.39121">
        <ele>67.6</ele>
        <time>2023-05-04T08:26:12Z</time>
      </trkpt>
      <trkpt lat="49.20367" lon="-0.39119">
        <ele>67.6</ele>
        <time>2023-05-04T08:26:13Z</time>
      </trkpt>
      <trkpt lat="49.20372" lon="-0.39118">
        <ele>67.6</ele>
        <time>2023-05-04T08:26:14Z</time>
      </trkpt>
      <trkpt lat="49.20377" lon="-0.39117">
        <ele>67.6</ele>
        <time>2023-05-04T08:26:15Z</time>
      </trkpt>
      <trkpt lat="49.20382" lon="-0.39115">
        <ele>67.4</ele>
        <time>2023-05-04T08:26:16Z</time>
      </trkpt>
      <trkpt lat="49.20387" lon="-0.39113">
        <ele>67.4</ele>
        <time>2023-05-04T08:26:17Z</time>
      </trkpt>
      <trkpt lat="49.20392" lon="-0.3911">
        <ele>67.4</ele>
        <time>2023-05-04T08:26:18Z</time>
      </trkpt>
      <trkpt lat="49.20397" lon="-0.39107">
        <ele>67.2</ele>
        <time>2023-05-04T08:26:19Z</time>
      </trkpt>
      <trkpt lat="49.20403" lon="-0.39103">
        <ele>67.2</ele>
        <time>2023-05-04T08:26:20Z</time>
      </trkpt>
      <trkpt lat="49.20407" lon="-0.391">
        <ele>67</ele>
        <time>2023-05-04T08:26:21Z</time>
      </trkpt>
      <trkpt lat="49.20412" lon="-0.39096">
        <ele>67</ele>
        <time>2023-05-04T08:26:22Z</time>
      </trkpt>
      <trkpt lat="49.20417" lon="-0.39091">
        <ele>67</ele>
        <time>2023-05-04T08:26:23Z</time>
      </trkpt>
      <trkpt lat="49.20422" lon="-0.39086">
        <ele>67</ele>
        <time>2023-05-04T08:26:24Z</time>
      </trkpt>
      <trkpt lat="49.20426" lon="-0.39082">
        <ele>67</ele>
        <time>2023-05-04T08:26:25Z</time>
      </trkpt>
      <trkpt lat="49.20431" lon="-0.39076">
        <ele>67</ele>
        <time>2023-05-04T08:26:26Z</time>
      </trkpt>
      <trkpt lat="49.20435" lon="-0.39071">
        <ele>67</ele>
        <time>2023-05-04T08:26:27Z</time>
      </trkpt>
      <trkpt lat="49.2044" lon="-0.39065">
        <ele>67.2</ele>
        <time>2023-05-04T08:26:28Z</time>
      </trkpt>
      <trkpt lat="49.20444" lon="-0.3906">
        <ele>67.2</ele>
        <time>2023-05-04T08:26:29Z</time>
      </trkpt>
      <trkpt lat="49.20449" lon="-0.39054">
        <ele>67.2</ele>
        <time>2023-05-04T08:26:30Z</time>
      </trkpt>
      <trkpt lat="49.20453" lon="-0.39047">
        <ele>67.2</ele>
        <time>2023-05-04T08:26:31Z</time>
      </trkpt>
      <trkpt lat="49.20458" lon="-0.39041">
        <ele>67.4</ele>
        <time>2023-05-04T08:26:32Z</time>
      </trkpt>
      <trkpt lat="49.20463" lon="-0.39035">
        <ele>67.4</ele>
        <time>2023-05-04T08:26:33Z</time>
      </trkpt>
      <trkpt lat="49.20468" lon="-0.39028">
        <ele>67.4</ele>
        <time>2023-05-04T08:26:34Z</time>
      </trkpt>
      <trkpt lat="49.20472" lon="-0.39022">
        <ele>67.2</ele>
        <time>2023-05-04T08:26:35Z</time>
      </trkpt>
      <trkpt lat="49.20477" lon="-0.39015">
        <ele>67.2</ele>
        <time>2023-05-04T08:26:36Z</time>
      </trkpt>
      <trkpt lat="49.20482" lon="-0.39008">
        <ele>67.2</ele>
        <time>2023-05-04T08:26:37Z</time>
      </trkpt>
      <trkpt lat="49.20487" lon="-0.39001">
        <ele>67.2</ele>
        <time>2023-05-04T08:26:38Z</time>
      </trkpt>
      <trkpt lat="49.20492" lon="-0.38995">
        <ele>67</ele>
        <time>2023-05-04T08:26:39Z</time>
      </trkpt>
      <trkpt lat="49.20497" lon="-0.38988">
        <ele>67</ele>
        <time>2023-05-04T08:26:40Z</time>
      </trkpt>
      <trkpt lat="49.20502" lon="-0.38981">
        <ele>66.6</ele>
        <time>2023-05-04T08:26:41Z</time>
      </trkpt>
      <trkpt lat="49.20507" lon="-0.38974">
        <ele>66.6</ele>
        <time>2023-05-04T08:26:42Z</time>
      </trkpt>
      <trkpt lat="49.20512" lon="-0.38968">
        <ele>66.4</ele>
        <time>2023-05-04T08:26:43Z</time>
      </trkpt>
      <trkpt lat="49.20517" lon="-0.38961">
        <ele>66.2</ele>
        <time>2023-05-04T08:26:44Z</time>
      </trkpt>
      <trkpt lat="49.20522" lon="-0.38954">
        <ele>66</ele>
        <time>2023-05-04T08:26:45Z</time>
      </trkpt>
      <trkpt lat="49.20527" lon="-0.38947">
        <ele>66</ele>
        <time>2023-05-04T08:26:46Z</time>
      </trkpt>
      <trkpt lat="49.20532" lon="-0.38941">
        <ele>65.8</ele>
        <time>2023-05-04T08:26:47Z</time>
      </trkpt>
      <trkpt lat="49.20537" lon="-0.38934">
        <ele>65.6</ele>
        <time>2023-05-04T08:26:48Z</time>
      </trkpt>
      <trkpt lat="49.20543" lon="-0.38928">
        <ele>65.6</ele>
        <time>2023-05-04T08:26:49Z</time>
      </trkpt>
      <trkpt lat="49.20547" lon="-0.38921">
        <ele>65.6</ele>
        <time>2023-05-04T08:26:50Z</time>
      </trkpt>
      <trkpt lat="49.20552" lon="-0.38915">
        <ele>65.4</ele>
        <time>2023-05-04T08:26:51Z</time>
      </trkpt>
      <trkpt lat="49.20557" lon="-0.38909">
        <ele>65.6</ele>
        <time>2023-05-04T08:26:52Z</time>
      </trkpt>
      <trkpt lat="49.20563" lon="-0.38902">
        <ele>65.6</ele>
        <time>2023-05-04T08:26:53Z</time>
      </trkpt>
      <trkpt lat="49.20568" lon="-0.38896">
        <ele>65.6</ele>
        <time>2023-05-04T08:26:54Z</time>
      </trkpt>
      <trkpt lat="49.20573" lon="-0.38889">
        <ele>65.6</ele>
        <time>2023-05-04T08:26:55Z</time>
      </trkpt>
      <trkpt lat="49.20578" lon="-0.38882">
        <ele>66</ele>
        <time>2023-05-04T08:26:56Z</time>
      </trkpt>
      <trkpt lat="49.20583" lon="-0.38876">
        <ele>66</ele>
        <time>2023-05-04T08:26:57Z</time>
      </trkpt>
      <trkpt lat="49.20589" lon="-0.38869">
        <ele>66.2</ele>
        <time>2023-05-04T08:26:58Z</time>
      </trkpt>
      <trkpt lat="49.20594" lon="-0.38862">
        <ele>66.4</ele>
        <time>2023-05-04T08:26:59Z</time>
      </trkpt>
      <trkpt lat="49.20599" lon="-0.38855">
        <ele>66.6</ele>
        <time>2023-05-04T08:27:00Z</time>
      </trkpt>
      <trkpt lat="49.20605" lon="-0.38848">
        <ele>66.6</ele>
        <time>2023-05-04T08:27:01Z</time>
      </trkpt>
      <trkpt lat="49.2061" lon="-0.38841">
        <ele>66.6</ele>
        <time>2023-05-04T08:27:02Z</time>
      </trkpt>
      <trkpt lat="49.20616" lon="-0.38834">
        <ele>66.6</ele>
        <time>2023-05-04T08:27:03Z</time>
      </trkpt>
      <trkpt lat="49.20621" lon="-0.38827">
        <ele>66.6</ele>
        <time>2023-05-04T08:27:04Z</time>
      </trkpt>
      <trkpt lat="49.20627" lon="-0.38821">
        <ele>66.6</ele>
        <time>2023-05-04T08:27:05Z</time>
      </trkpt>
      <trkpt lat="49.20633" lon="-0.38814">
        <ele>66.8</ele>
        <time>2023-05-04T08:27:06Z</time>
      </trkpt>
      <trkpt lat="49.20639" lon="-0.38808">
        <ele>66.8</ele>
        <time>2023-05-04T08:27:07Z</time>
      </trkpt>
      <trkpt lat="49.20644" lon="-0.38801">
        <ele>67</ele>
        <time>2023-05-04T08:27:08Z</time>
      </trkpt>
      <trkpt lat="49.2065" lon="-0.38795">
        <ele>67</ele>
        <time>2023-05-04T08:27:09Z</time>
      </trkpt>
      <trkpt lat="49.20656" lon="-0.38788">
        <ele>67.2</ele>
        <time>2023-05-04T08:27:10Z</time>
      </trkpt>
      <trkpt lat="49.20662" lon="-0.3878">
        <ele>67.4</ele>
        <time>2023-05-04T08:27:11Z</time>
      </trkpt>
      <trkpt lat="49.20668" lon="-0.38773">
        <ele>67.6</ele>
        <time>2023-05-04T08:27:12Z</time>
      </trkpt>
      <trkpt lat="49.20673" lon="-0.38765">
        <ele>67.6</ele>
        <time>2023-05-04T08:27:13Z</time>
      </trkpt>
      <trkpt lat="49.20679" lon="-0.38758">
        <ele>68</ele>
        <time>2023-05-04T08:27:14Z</time>
      </trkpt>
      <trkpt lat="49.20684" lon="-0.3875">
        <ele>68.2</ele>
        <time>2023-05-04T08:27:15Z</time>
      </trkpt>
      <trkpt lat="49.2069" lon="-0.38743">
        <ele>68.4</ele>
        <time>2023-05-04T08:27:16Z</time>
      </trkpt>
      <trkpt lat="49.20695" lon="-0.38736">
        <ele>68.6</ele>
        <time>2023-05-04T08:27:17Z</time>
      </trkpt>
      <trkpt lat="49.207" lon="-0.38728">
        <ele>68.8</ele>
        <time>2023-05-04T08:27:18Z</time>
      </trkpt>
      <trkpt lat="49.20705" lon="-0.38721">
        <ele>69</ele>
        <time>2023-05-04T08:27:19Z</time>
      </trkpt>
      <trkpt lat="49.20711" lon="-0.38713">
        <ele>69</ele>
        <time>2023-05-04T08:27:20Z</time>
      </trkpt>
      <trkpt lat="49.20716" lon="-0.38706">
        <ele>69</ele>
        <time>2023-05-04T08:27:21Z</time>
      </trkpt>
      <trkpt lat="49.20721" lon="-0.38699">
        <ele>69</ele>
        <time>2023-05-04T08:27:22Z</time>
      </trkpt>
      <trkpt lat="49.20726" lon="-0.38691">
        <ele>68.8</ele>
        <time>2023-05-04T08:27:23Z</time>
      </trkpt>
      <trkpt lat="49.20731" lon="-0.38684">
        <ele>68.6</ele>
        <time>2023-05-04T08:27:24Z</time>
      </trkpt>
      <trkpt lat="49.20736" lon="-0.38677">
        <ele>68.6</ele>
        <time>2023-05-04T08:27:25Z</time>
      </trkpt>
      <trkpt lat="49.20741" lon="-0.3867">
        <ele>68.4</ele>
        <time>2023-05-04T08:27:26Z</time>
      </trkpt>
      <trkpt lat="49.20746" lon="-0.38663">
        <ele>68.2</ele>
        <time>2023-05-04T08:27:27Z</time>
      </trkpt>
      <trkpt lat="49.20751" lon="-0.38656">
        <ele>68</ele>
        <time>2023-05-04T08:27:28Z</time>
      </trkpt>
      <trkpt lat="49.20757" lon="-0.38649">
        <ele>68.4</ele>
        <time>2023-05-04T08:27:29Z</time>
      </trkpt>
      <trkpt lat="49.20762" lon="-0.38643">
        <ele>68.4</ele>
        <time>2023-05-04T08:27:30Z</time>
      </trkpt>
      <trkpt lat="49.20767" lon="-0.38636">
        <ele>68.4</ele>
        <time>2023-05-04T08:27:31Z</time>
      </trkpt>
      <trkpt lat="49.20773" lon="-0.3863">
        <ele>68.6</ele>
        <time>2023-05-04T08:27:32Z</time>
      </trkpt>
      <trkpt lat="49.20778" lon="-0.38624">
        <ele>68.6</ele>
        <time>2023-05-04T08:27:33Z</time>
      </trkpt>
      <trkpt lat="49.20784" lon="-0.38618">
        <ele>68.6</ele>
        <time>2023-05-04T08:27:34Z</time>
      </trkpt>
      <trkpt lat="49.2079" lon="-0.38611">
        <ele>68.6</ele>
        <time>2023-05-04T08:27:35Z</time>
      </trkpt>
      <trkpt lat="49.20795" lon="-0.38605">
        <ele>68.6</ele>
        <time>2023-05-04T08:27:36Z</time>
      </trkpt>
      <trkpt lat="49.20801" lon="-0.38599">
        <ele>68.4</ele>
        <time>2023-05-04T08:27:37Z</time>
      </trkpt>
      <trkpt lat="49.20806" lon="-0.38592">
        <ele>68.4</ele>
        <time>2023-05-04T08:27:38Z</time>
      </trkpt>
      <trkpt lat="49.20811" lon="-0.38586">
        <ele>68.4</ele>
        <time>2023-05-04T08:27:39Z</time>
      </trkpt>
      <trkpt lat="49.20816" lon="-0.3858">
        <ele>68</ele>
        <time>2023-05-04T08:27:40Z</time>
      </trkpt>
      <trkpt lat="49.20821" lon="-0.38574">
        <ele>68</ele>
        <time>2023-05-04T08:27:41Z</time>
      </trkpt>
      <trkpt lat="49.20826" lon="-0.38568">
        <ele>67.6</ele>
        <time>2023-05-04T08:27:42Z</time>
      </trkpt>
      <trkpt lat="49.2083" lon="-0.38564">
        <ele>67.4</ele>
        <time>2023-05-04T08:27:43Z</time>
      </trkpt>
      <trkpt lat="49.20833" lon="-0.3856">
        <ele>67.2</ele>
        <time>2023-05-04T08:27:44Z</time>
      </trkpt>
      <trkpt lat="49.20836" lon="-0.38555">
        <ele>67</ele>
        <time>2023-05-04T08:27:45Z</time>
      </trkpt>
      <trkpt lat="49.2084" lon="-0.3855">
        <ele>66.8</ele>
        <time>2023-05-04T08:27:46Z</time>
      </trkpt>
      <trkpt lat="49.20844" lon="-0.38545">
        <ele>66.6</ele>
        <time>2023-05-04T08:27:47Z</time>
      </trkpt>
      <trkpt lat="49.20848" lon="-0.3854">
        <ele>66.4</ele>
        <time>2023-05-04T08:27:48Z</time>
      </trkpt>
      <trkpt lat="49.20853" lon="-0.38534">
        <ele>66</ele>
        <time>2023-05-04T08:27:49Z</time>
      </trkpt>
      <trkpt lat="49.20857" lon="-0.38527">
        <ele>66</ele>
        <time>2023-05-04T08:27:50Z</time>
      </trkpt>
      <trkpt lat="49.20862" lon="-0.38521">
        <ele>65.6</ele>
        <time>2023-05-04T08:27:51Z</time>
      </trkpt>
      <trkpt lat="49.20867" lon="-0.38514">
        <ele>65.4</ele>
        <time>2023-05-04T08:27:52Z</time>
      </trkpt>
      <trkpt lat="49.20872" lon="-0.38507">
        <ele>65.2</ele>
        <time>2023-05-04T08:27:53Z</time>
      </trkpt>
      <trkpt lat="49.20877" lon="-0.385">
        <ele>65</ele>
        <time>2023-05-04T08:27:54Z</time>
      </trkpt>
      <trkpt lat="49.20883" lon="-0.38493">
        <ele>65</ele>
        <time>2023-05-04T08:27:55Z</time>
      </trkpt>
      <trkpt lat="49.20888" lon="-0.38486">
        <ele>65</ele>
        <time>2023-05-04T08:27:56Z</time>
      </trkpt>
      <trkpt lat="49.20893" lon="-0.38478">
        <ele>65.2</ele>
        <time>2023-05-04T08:27:57Z</time>
      </trkpt>
      <trkpt lat="49.20898" lon="-0.38471">
        <ele>65.4</ele>
        <time>2023-05-04T08:27:58Z</time>
      </trkpt>
      <trkpt lat="49.20903" lon="-0.38464">
        <ele>65.4</ele>
        <time>2023-05-04T08:27:59Z</time>
      </trkpt>
      <trkpt lat="49.20908" lon="-0.38456">
        <ele>65.6</ele>
        <time>2023-05-04T08:28:00Z</time>
      </trkpt>
      <trkpt lat="49.20914" lon="-0.38449">
        <ele>65.6</ele>
        <time>2023-05-04T08:28:01Z</time>
      </trkpt>
      <trkpt lat="49.20919" lon="-0.38442">
        <ele>65.6</ele>
        <time>2023-05-04T08:28:02Z</time>
      </trkpt>
      <trkpt lat="49.20924" lon="-0.38434">
        <ele>66</ele>
        <time>2023-05-04T08:28:03Z</time>
      </trkpt>
      <trkpt lat="49.2093" lon="-0.38427">
        <ele>66</ele>
        <time>2023-05-04T08:28:04Z</time>
      </trkpt>
      <trkpt lat="49.20935" lon="-0.38419">
        <ele>66.2</ele>
        <time>2023-05-04T08:28:05Z</time>
      </trkpt>
      <trkpt lat="49.2094" lon="-0.38411">
        <ele>66.4</ele>
        <time>2023-05-04T08:28:06Z</time>
      </trkpt>
      <trkpt lat="49.20945" lon="-0.38403">
        <ele>66.4</ele>
        <time>2023-05-04T08:28:07Z</time>
      </trkpt>
      <trkpt lat="49.2095" lon="-0.38395">
        <ele>66.2</ele>
        <time>2023-05-04T08:28:08Z</time>
      </trkpt>
      <trkpt lat="49.20955" lon="-0.38386">
        <ele>66.2</ele>
        <time>2023-05-04T08:28:09Z</time>
      </trkpt>
      <trkpt lat="49.2096" lon="-0.38378">
        <ele>66</ele>
        <time>2023-05-04T08:28:10Z</time>
      </trkpt>
      <trkpt lat="49.20965" lon="-0.3837">
        <ele>65.8</ele>
        <time>2023-05-04T08:28:11Z</time>
      </trkpt>
      <trkpt lat="49.2097" lon="-0.38362">
        <ele>65.6</ele>
        <time>2023-05-04T08:28:12Z</time>
      </trkpt>
      <trkpt lat="49.20975" lon="-0.38354">
        <ele>65.4</ele>
        <time>2023-05-04T08:28:13Z</time>
      </trkpt>
      <trkpt lat="49.2098" lon="-0.38347">
        <ele>65</ele>
        <time>2023-05-04T08:28:14Z</time>
      </trkpt>
      <trkpt lat="49.20985" lon="-0.38339">
        <ele>64.6</ele>
        <time>2023-05-04T08:28:15Z</time>
      </trkpt>
      <trkpt lat="49.2099" lon="-0.38331">
        <ele>64.4</ele>
        <time>2023-05-04T08:28:16Z</time>
      </trkpt>
      <trkpt lat="49.20995" lon="-0.38323">
        <ele>64.4</ele>
        <time>2023-05-04T08:28:17Z</time>
      </trkpt>
      <trkpt lat="49.21" lon="-0.38315">
        <ele>64.2</ele>
        <time>2023-05-04T08:28:18Z</time>
      </trkpt>
      <trkpt lat="49.21005" lon="-0.38307">
        <ele>64.4</ele>
        <time>2023-05-04T08:28:19Z</time>
      </trkpt>
      <trkpt lat="49.2101" lon="-0.38299">
        <ele>64.6</ele>
        <time>2023-05-04T08:28:20Z</time>
      </trkpt>
      <trkpt lat="49.21014" lon="-0.38291">
        <ele>64.6</ele>
        <time>2023-05-04T08:28:21Z</time>
      </trkpt>
      <trkpt lat="49.21019" lon="-0.38283">
        <ele>64.6</ele>
        <time>2023-05-04T08:28:22Z</time>
      </trkpt>
      <trkpt lat="49.21024" lon="-0.38275">
        <ele>64.8</ele>
        <time>2023-05-04T08:28:23Z</time>
      </trkpt>
      <trkpt lat="49.21029" lon="-0.38267">
        <ele>65</ele>
        <time>2023-05-04T08:28:24Z</time>
      </trkpt>
      <trkpt lat="49.21034" lon="-0.38258">
        <ele>65</ele>
        <time>2023-05-04T08:28:25Z</time>
      </trkpt>
      <trkpt lat="49.21038" lon="-0.3825">
        <ele>65</ele>
        <time>2023-05-04T08:28:26Z</time>
      </trkpt>
      <trkpt lat="49.21043" lon="-0.38241">
        <ele>65</ele>
        <time>2023-05-04T08:28:27Z</time>
      </trkpt>
      <trkpt lat="49.21048" lon="-0.38232">
        <ele>65</ele>
        <time>2023-05-04T08:28:28Z</time>
      </trkpt>
      <trkpt lat="49.21053" lon="-0.38223">
        <ele>64.8</ele>
        <time>2023-05-04T08:28:29Z</time>
      </trkpt>
      <trkpt lat="49.21057" lon="-0.38214">
        <ele>64.6</ele>
        <time>2023-05-04T08:28:30Z</time>
      </trkpt>
      <trkpt lat="49.21062" lon="-0.38205">
        <ele>64.6</ele>
        <time>2023-05-04T08:28:31Z</time>
      </trkpt>
      <trkpt lat="49.21066" lon="-0.38196">
        <ele>64.6</ele>
        <time>2023-05-04T08:28:32Z</time>
      </trkpt>
      <trkpt lat="49.21071" lon="-0.38186">
        <ele>64.4</ele>
        <time>2023-05-04T08:28:33Z</time>
      </trkpt>
      <trkpt lat="49.21075" lon="-0.38177">
        <ele>64.2</ele>
        <time>2023-05-04T08:28:34Z</time>
      </trkpt>
      <trkpt lat="49.2108" lon="-0.38167">
        <ele>64</ele>
        <time>2023-05-04T08:28:35Z</time>
      </trkpt>
      <trkpt lat="49.21084" lon="-0.38158">
        <ele>64</ele>
        <time>2023-05-04T08:28:36Z</time>
      </trkpt>
      <trkpt lat="49.21088" lon="-0.38149">
        <ele>64</ele>
        <time>2023-05-04T08:28:37Z</time>
      </trkpt>
      <trkpt lat="49.21092" lon="-0.3814">
        <ele>64</ele>
        <time>2023-05-04T08:28:38Z</time>
      </trkpt>
      <trkpt lat="49.21096" lon="-0.38131">
        <ele>64</ele>
        <time>2023-05-04T08:28:39Z</time>
      </trkpt>
      <trkpt lat="49.21101" lon="-0.38122">
        <ele>64</ele>
        <time>2023-05-04T08:28:40Z</time>
      </trkpt>
      <trkpt lat="49.21105" lon="-0.38113">
        <ele>64.2</ele>
        <time>2023-05-04T08:28:41Z</time>
      </trkpt>
      <trkpt lat="49.21109" lon="-0.38105">
        <ele>64.2</ele>
        <time>2023-05-04T08:28:42Z</time>
      </trkpt>
      <trkpt lat="49.21113" lon="-0.38096">
        <ele>64.4</ele>
        <time>2023-05-04T08:28:43Z</time>
      </trkpt>
      <trkpt lat="49.21117" lon="-0.38087">
        <ele>64.4</ele>
        <time>2023-05-04T08:28:44Z</time>
      </trkpt>
      <trkpt lat="49.21121" lon="-0.38079">
        <ele>64.4</ele>
        <time>2023-05-04T08:28:45Z</time>
      </trkpt>
      <trkpt lat="49.21124" lon="-0.3807">
        <ele>64.4</ele>
        <time>2023-05-04T08:28:46Z</time>
      </trkpt>
      <trkpt lat="49.21128" lon="-0.38062">
        <ele>64.4</ele>
        <time>2023-05-04T08:28:47Z</time>
      </trkpt>
      <trkpt lat="49.21132" lon="-0.38053">
        <ele>64.4</ele>
        <time>2023-05-04T08:28:48Z</time>
      </trkpt>
      <trkpt lat="49.21135" lon="-0.38044">
        <ele>64.4</ele>
        <time>2023-05-04T08:28:49Z</time>
      </trkpt>
      <trkpt lat="49.21138" lon="-0.38035">
        <ele>64.4</ele>
        <time>2023-05-04T08:28:50Z</time>
      </trkpt>
      <trkpt lat="49.21141" lon="-0.38026">
        <ele>64.2</ele>
        <time>2023-05-04T08:28:51Z</time>
      </trkpt>
      <trkpt lat="49.21144" lon="-0.38016">
        <ele>64</ele>
        <time>2023-05-04T08:28:52Z</time>
      </trkpt>
      <trkpt lat="49.21147" lon="-0.38007">
        <ele>64</ele>
        <time>2023-05-04T08:28:53Z</time>
      </trkpt>
      <trkpt lat="49.21149" lon="-0.37998">
        <ele>64</ele>
        <time>2023-05-04T08:28:54Z</time>
      </trkpt>
      <trkpt lat="49.21151" lon="-0.37989">
        <ele>64</ele>
        <time>2023-05-04T08:28:55Z</time>
      </trkpt>
      <trkpt lat="49.21152" lon="-0.3798">
        <ele>64.2</ele>
        <time>2023-05-04T08:28:56Z</time>
      </trkpt>
      <trkpt lat="49.21154" lon="-0.37971">
        <ele>64.4</ele>
        <time>2023-05-04T08:28:57Z</time>
      </trkpt>
      <trkpt lat="49.21156" lon="-0.37962">
        <ele>64.4</ele>
        <time>2023-05-04T08:28:58Z</time>
      </trkpt>
      <trkpt lat="49.21157" lon="-0.37954">
        <ele>64.6</ele>
        <time>2023-05-04T08:28:59Z</time>
      </trkpt>
      <trkpt lat="49.21159" lon="-0.37946">
        <ele>64.6</ele>
        <time>2023-05-04T08:29:00Z</time>
      </trkpt>
      <trkpt lat="49.2116" lon="-0.37939">
        <ele>64.6</ele>
        <time>2023-05-04T08:29:01Z</time>
      </trkpt>
      <trkpt lat="49.21162" lon="-0.37932">
        <ele>64.8</ele>
        <time>2023-05-04T08:29:02Z</time>
      </trkpt>
      <trkpt lat="49.21163" lon="-0.37926">
        <ele>65</ele>
        <time>2023-05-04T08:29:03Z</time>
      </trkpt>
      <trkpt lat="49.21164" lon="-0.3792">
        <ele>65</ele>
        <time>2023-05-04T08:29:04Z</time>
      </trkpt>
      <trkpt lat="49.21165" lon="-0.37915">
        <ele>65</ele>
        <time>2023-05-04T08:29:05Z</time>
      </trkpt>
      <trkpt lat="49.21166" lon="-0.37911">
        <ele>64.8</ele>
        <time>2023-05-04T08:29:06Z</time>
      </trkpt>
      <trkpt lat="49.21167" lon="-0.37908">
        <ele>64.6</ele>
        <time>2023-05-04T08:29:07Z</time>
      </trkpt>
      <trkpt lat="49.21167" lon="-0.37907">
        <ele>64.6</ele>
        <time>2023-05-04T08:29:08Z</time>
      </trkpt>
      <trkpt lat="49.21167" lon="-0.37906">
        <ele>64.6</ele>
        <time>2023-05-04T08:29:09Z</time>
      </trkpt>
      <trkpt lat="49.21167" lon="-0.37906">
        <ele>64.6</ele>
        <time>2023-05-04T08:29:10Z</time>
      </trkpt>
      <trkpt lat="49.21167" lon="-0.37906">
        <ele>64.6</ele>
        <time>2023-05-04T08:29:11Z</time>
      </trkpt>
      <trkpt lat="49.21167" lon="-0.37906">
        <ele>64.6</ele>
        <time>2023-05-04T08:29:12Z</time>
      </trkpt>
      <trkpt lat="49.21167" lon="-0.37906">
        <ele>64.6</ele>
        <time>2023-05-04T08:29:13Z</time>
      </trkpt>
      <trkpt lat="49.21167" lon="-0.37906">
        <ele>64.6</ele>
        <time>2023-05-04T08:29:14Z</time>
      </trkpt>
      <trkpt lat="49.21167" lon="-0.37906">
        <ele>64.6</ele>
        <time>2023-05-04T08:29:15Z</time>
      </trkpt>
      <trkpt lat="49.21167" lon="-0.37906">
        <ele>64.6</ele>
        <time>2023-05-04T08:29:16Z</time>
      </trkpt>
      <trkpt lat="49.21167" lon="-0.37906">
        <ele>64.6</ele>
        <time>2023-05-04T08:29:17Z</time>
      </trkpt>
      <trkpt lat="49.21167" lon="-0.37906">
        <ele>64.6</ele>
        <time>2023-05-04T08:29:18Z</time>
      </trkpt>
      <trkpt lat="49.21167" lon="-0.37906">
        <ele>64.6</ele>
        <time>2023-05-04T08:29:19Z</time>
      </trkpt>
      <trkpt lat="49.21167" lon="-0.37906">
        <ele>64.6</ele>
        <time>2023-05-04T08:29:20Z</time>
      </trkpt>
      <trkpt lat="49.21167" lon="-0.37906">
        <ele>64.6</ele>
        <time>2023-05-04T08:29:21Z</time>
      </trkpt>
      <trkpt lat="49.21167" lon="-0.37906">
        <ele>64.6</ele>
        <time>2023-05-04T08:29:22Z</time>
      </trkpt>
      <trkpt lat="49.21167" lon="-0.37906">
        <ele>64.6</ele>
        <time>2023-05-04T08:29:23Z</time>
      </trkpt>
      <trkpt lat="49.21167" lon="-0.37907">
        <ele>64.6</ele>
        <time>2023-05-04T08:29:24Z</time>
      </trkpt>
      <trkpt lat="49.21167" lon="-0.37906">
        <ele>64.6</ele>
        <time>2023-05-04T08:29:25Z</time>
      </trkpt>
      <trkpt lat="49.21167" lon="-0.37905">
        <ele>64.6</ele>
        <time>2023-05-04T08:29:26Z</time>
      </trkpt>
      <trkpt lat="49.21167" lon="-0.37903">
        <ele>64.6</ele>
        <time>2023-05-04T08:29:27Z</time>
      </trkpt>
      <trkpt lat="49.21168" lon="-0.379">
        <ele>64.4</ele>
        <time>2023-05-04T08:29:28Z</time>
      </trkpt>
      <trkpt lat="49.21168" lon="-0.37896">
        <ele>64.2</ele>
        <time>2023-05-04T08:29:29Z</time>
      </trkpt>
      <trkpt lat="49.2117" lon="-0.37891">
        <ele>64</ele>
        <time>2023-05-04T08:29:30Z</time>
      </trkpt>
      <trkpt lat="49.21171" lon="-0.37886">
        <ele>63.8</ele>
        <time>2023-05-04T08:29:31Z</time>
      </trkpt>
      <trkpt lat="49.21173" lon="-0.37881">
        <ele>63.6</ele>
        <time>2023-05-04T08:29:32Z</time>
      </trkpt>
      <trkpt lat="49.21174" lon="-0.37874">
        <ele>63.2</ele>
        <time>2023-05-04T08:29:33Z</time>
      </trkpt>
      <trkpt lat="49.21177" lon="-0.37867">
        <ele>63</ele>
        <time>2023-05-04T08:29:34Z</time>
      </trkpt>
      <trkpt lat="49.21179" lon="-0.37859">
        <ele>62.6</ele>
        <time>2023-05-04T08:29:35Z</time>
      </trkpt>
      <trkpt lat="49.21182" lon="-0.37851">
        <ele>62.2</ele>
        <time>2023-05-04T08:29:36Z</time>
      </trkpt>
      <trkpt lat="49.21185" lon="-0.37842">
        <ele>62</ele>
        <time>2023-05-04T08:29:37Z</time>
      </trkpt>
      <trkpt lat="49.21189" lon="-0.37834">
        <ele>61.6</ele>
        <time>2023-05-04T08:29:38Z</time>
      </trkpt>
      <trkpt lat="49.21193" lon="-0.37827">
        <ele>61.2</ele>
        <time>2023-05-04T08:29:39Z</time>
      </trkpt>
      <trkpt lat="49.21197" lon="-0.37819">
        <ele>61.2</ele>
        <time>2023-05-04T08:29:40Z</time>
      </trkpt>
      <trkpt lat="49.21201" lon="-0.37811">
        <ele>61</ele>
        <time>2023-05-04T08:29:41Z</time>
      </trkpt>
      <trkpt lat="49.21206" lon="-0.37804">
        <ele>61</ele>
        <time>2023-05-04T08:29:42Z</time>
      </trkpt>
      <trkpt lat="49.2121" lon="-0.37796">
        <ele>60.8</ele>
        <time>2023-05-04T08:29:43Z</time>
      </trkpt>
      <trkpt lat="49.21215" lon="-0.37788">
        <ele>60.6</ele>
        <time>2023-05-04T08:29:44Z</time>
      </trkpt>
      <trkpt lat="49.21219" lon="-0.37781">
        <ele>60.6</ele>
        <time>2023-05-04T08:29:45Z</time>
      </trkpt>
      <trkpt lat="49.21224" lon="-0.37773">
        <ele>60.4</ele>
        <time>2023-05-04T08:29:46Z</time>
      </trkpt>
      <trkpt lat="49.21228" lon="-0.37766">
        <ele>60.2</ele>
        <time>2023-05-04T08:29:47Z</time>
      </trkpt>
      <trkpt lat="49.21233" lon="-0.3776">
        <ele>60.2</ele>
        <time>2023-05-04T08:29:48Z</time>
      </trkpt>
      <trkpt lat="49.21239" lon="-0.37754">
        <ele>60</ele>
        <time>2023-05-04T08:29:49Z</time>
      </trkpt>
      <trkpt lat="49.21244" lon="-0.37749">
        <ele>60</ele>
        <time>2023-05-04T08:29:50Z</time>
      </trkpt>
      <trkpt lat="49.2125" lon="-0.37744">
        <ele>60</ele>
        <time>2023-05-04T08:29:51Z</time>
      </trkpt>
      <trkpt lat="49.21256" lon="-0.3774">
        <ele>60</ele>
        <time>2023-05-04T08:29:52Z</time>
      </trkpt>
      <trkpt lat="49.21262" lon="-0.37735">
        <ele>60</ele>
        <time>2023-05-04T08:29:53Z</time>
      </trkpt>
      <trkpt lat="49.21269" lon="-0.37731">
        <ele>60</ele>
        <time>2023-05-04T08:29:54Z</time>
      </trkpt>
      <trkpt lat="49.21275" lon="-0.37726">
        <ele>60</ele>
        <time>2023-05-04T08:29:55Z</time>
      </trkpt>
      <trkpt lat="49.21281" lon="-0.37721">
        <ele>60</ele>
        <time>2023-05-04T08:29:56Z</time>
      </trkpt>
      <trkpt lat="49.21287" lon="-0.37715">
        <ele>60</ele>
        <time>2023-05-04T08:29:57Z</time>
      </trkpt>
      <trkpt lat="49.21293" lon="-0.37709">
        <ele>60</ele>
        <time>2023-05-04T08:29:58Z</time>
      </trkpt>
      <trkpt lat="49.21298" lon="-0.37702">
        <ele>60</ele>
        <time>2023-05-04T08:29:59Z</time>
      </trkpt>
      <trkpt lat="49.21303" lon="-0.37694">
        <ele>59.8</ele>
        <time>2023-05-04T08:30:00Z</time>
      </trkpt>
      <trkpt lat="49.21308" lon="-0.37685">
        <ele>59.8</ele>
        <time>2023-05-04T08:30:01Z</time>
      </trkpt>
      <trkpt lat="49.21311" lon="-0.37675">
        <ele>59.6</ele>
        <time>2023-05-04T08:30:02Z</time>
      </trkpt>
      <trkpt lat="49.21315" lon="-0.37666">
        <ele>59.4</ele>
        <time>2023-05-04T08:30:03Z</time>
      </trkpt>
      <trkpt lat="49.21318" lon="-0.37656">
        <ele>59.4</ele>
        <time>2023-05-04T08:30:04Z</time>
      </trkpt>
      <trkpt lat="49.21322" lon="-0.37647">
        <ele>59.2</ele>
        <time>2023-05-04T08:30:05Z</time>
      </trkpt>
      <trkpt lat="49.21326" lon="-0.37638">
        <ele>59.2</ele>
        <time>2023-05-04T08:30:06Z</time>
      </trkpt>
      <trkpt lat="49.2133" lon="-0.37629">
        <ele>59</ele>
        <time>2023-05-04T08:30:07Z</time>
      </trkpt>
      <trkpt lat="49.21335" lon="-0.3762">
        <ele>59</ele>
        <time>2023-05-04T08:30:08Z</time>
      </trkpt>
      <trkpt lat="49.21339" lon="-0.37612">
        <ele>59</ele>
        <time>2023-05-04T08:30:09Z</time>
      </trkpt>
      <trkpt lat="49.21344" lon="-0.37603">
        <ele>59</ele>
        <time>2023-05-04T08:30:10Z</time>
      </trkpt>
      <trkpt lat="49.21348" lon="-0.37595">
        <ele>58.8</ele>
        <time>2023-05-04T08:30:11Z</time>
      </trkpt>
      <trkpt lat="49.21352" lon="-0.37586">
        <ele>58.8</ele>
        <time>2023-05-04T08:30:12Z</time>
      </trkpt>
      <trkpt lat="49.21357" lon="-0.37577">
        <ele>58.8</ele>
        <time>2023-05-04T08:30:13Z</time>
      </trkpt>
      <trkpt lat="49.21361" lon="-0.37568">
        <ele>58.6</ele>
        <time>2023-05-04T08:30:14Z</time>
      </trkpt>
      <trkpt lat="49.21365" lon="-0.37559">
        <ele>58.6</ele>
        <time>2023-05-04T08:30:15Z</time>
      </trkpt>
      <trkpt lat="49.21369" lon="-0.3755">
        <ele>58.4</ele>
        <time>2023-05-04T08:30:16Z</time>
      </trkpt>
      <trkpt lat="49.21373" lon="-0.37542">
        <ele>58.2</ele>
        <time>2023-05-04T08:30:17Z</time>
      </trkpt>
      <trkpt lat="49.21377" lon="-0.37534">
        <ele>58.2</ele>
        <time>2023-05-04T08:30:18Z</time>
      </trkpt>
      <trkpt lat="49.21382" lon="-0.37526">
        <ele>58</ele>
        <time>2023-05-04T08:30:19Z</time>
      </trkpt>
      <trkpt lat="49.21386" lon="-0.37519">
        <ele>58</ele>
        <time>2023-05-04T08:30:20Z</time>
      </trkpt>
      <trkpt lat="49.21391" lon="-0.37511">
        <ele>57.8</ele>
        <time>2023-05-04T08:30:21Z</time>
      </trkpt>
      <trkpt lat="49.21395" lon="-0.37503">
        <ele>57.6</ele>
        <time>2023-05-04T08:30:22Z</time>
      </trkpt>
      <trkpt lat="49.21399" lon="-0.37495">
        <ele>57.6</ele>
        <time>2023-05-04T08:30:23Z</time>
      </trkpt>
      <trkpt lat="49.21404" lon="-0.37487">
        <ele>57.4</ele>
        <time>2023-05-04T08:30:24Z</time>
      </trkpt>
      <trkpt lat="49.21408" lon="-0.37479">
        <ele>57.4</ele>
        <time>2023-05-04T08:30:25Z</time>
      </trkpt>
      <trkpt lat="49.21413" lon="-0.37471">
        <ele>57.4</ele>
        <time>2023-05-04T08:30:26Z</time>
      </trkpt>
      <trkpt lat="49.21417" lon="-0.37463">
        <ele>57.4</ele>
        <time>2023-05-04T08:30:27Z</time>
      </trkpt>
      <trkpt lat="49.21421" lon="-0.37454">
        <ele>57.6</ele>
        <time>2023-05-04T08:30:28Z</time>
      </trkpt>
      <trkpt lat="49.21426" lon="-0.37446">
        <ele>57.6</ele>
        <time>2023-05-04T08:30:29Z</time>
      </trkpt>
      <trkpt lat="49.2143" lon="-0.37437">
        <ele>57.6</ele>
        <time>2023-05-04T08:30:30Z</time>
      </trkpt>
      <trkpt lat="49.21435" lon="-0.37429">
        <ele>57.6</ele>
        <time>2023-05-04T08:30:31Z</time>
      </trkpt>
      <trkpt lat="49.21439" lon="-0.3742">
        <ele>57.4</ele>
        <time>2023-05-04T08:30:32Z</time>
      </trkpt>
      <trkpt lat="49.21444" lon="-0.37412">
        <ele>57.4</ele>
        <time>2023-05-04T08:30:33Z</time>
      </trkpt>
      <trkpt lat="49.21449" lon="-0.37403">
        <ele>57.6</ele>
        <time>2023-05-04T08:30:34Z</time>
      </trkpt>
      <trkpt lat="49.21453" lon="-0.37394">
        <ele>57.6</ele>
        <time>2023-05-04T08:30:35Z</time>
      </trkpt>
      <trkpt lat="49.21458" lon="-0.37386">
        <ele>57.8</ele>
        <time>2023-05-04T08:30:36Z</time>
      </trkpt>
      <trkpt lat="49.21463" lon="-0.37377">
        <ele>58</ele>
        <time>2023-05-04T08:30:37Z</time>
      </trkpt>
      <trkpt lat="49.21468" lon="-0.37369">
        <ele>58</ele>
        <time>2023-05-04T08:30:38Z</time>
      </trkpt>
      <trkpt lat="49.21473" lon="-0.37361">
        <ele>58.2</ele>
        <time>2023-05-04T08:30:39Z</time>
      </trkpt>
      <trkpt lat="49.21478" lon="-0.37352">
        <ele>58.4</ele>
        <time>2023-05-04T08:30:40Z</time>
      </trkpt>
      <trkpt lat="49.21483" lon="-0.37344">
        <ele>58.8</ele>
        <time>2023-05-04T08:30:41Z</time>
      </trkpt>
      <trkpt lat="49.21488" lon="-0.37336">
        <ele>59</ele>
        <time>2023-05-04T08:30:42Z</time>
      </trkpt>
      <trkpt lat="49.21493" lon="-0.37328">
        <ele>59</ele>
        <time>2023-05-04T08:30:43Z</time>
      </trkpt>
      <trkpt lat="49.21498" lon="-0.3732">
        <ele>59</ele>
        <time>2023-05-04T08:30:44Z</time>
      </trkpt>
      <trkpt lat="49.21503" lon="-0.37313">
        <ele>58.8</ele>
        <time>2023-05-04T08:30:45Z</time>
      </trkpt>
      <trkpt lat="49.21508" lon="-0.37305">
        <ele>58.6</ele>
        <time>2023-05-04T08:30:46Z</time>
      </trkpt>
      <trkpt lat="49.21512" lon="-0.37298">
        <ele>58.2</ele>
        <time>2023-05-04T08:30:47Z</time>
      </trkpt>
      <trkpt lat="49.21517" lon="-0.3729">
        <ele>58</ele>
        <time>2023-05-04T08:30:48Z</time>
      </trkpt>
      <trkpt lat="49.21522" lon="-0.37283">
        <ele>58</ele>
        <time>2023-05-04T08:30:49Z</time>
      </trkpt>
      <trkpt lat="49.21526" lon="-0.37275">
        <ele>57.8</ele>
        <time>2023-05-04T08:30:50Z</time>
      </trkpt>
      <trkpt lat="49.21531" lon="-0.37268">
        <ele>57.8</ele>
        <time>2023-05-04T08:30:51Z</time>
      </trkpt>
      <trkpt lat="49.21535" lon="-0.3726">
        <ele>57.6</ele>
        <time>2023-05-04T08:30:52Z</time>
      </trkpt>
      <trkpt lat="49.2154" lon="-0.37252">
        <ele>57.6</ele>
        <time>2023-05-04T08:30:53Z</time>
      </trkpt>
      <trkpt lat="49.21544" lon="-0.37244">
        <ele>57.4</ele>
        <time>2023-05-04T08:30:54Z</time>
      </trkpt>
      <trkpt lat="49.21547" lon="-0.37235">
        <ele>57.4</ele>
        <time>2023-05-04T08:30:55Z</time>
      </trkpt>
      <trkpt lat="49.2155" lon="-0.37226">
        <ele>57.2</ele>
        <time>2023-05-04T08:30:56Z</time>
      </trkpt>
      <trkpt lat="49.21553" lon="-0.37218">
        <ele>57.2</ele>
        <time>2023-05-04T08:30:57Z</time>
      </trkpt>
      <trkpt lat="49.21556" lon="-0.37209">
        <ele>57.2</ele>
        <time>2023-05-04T08:30:58Z</time>
      </trkpt>
      <trkpt lat="49.21558" lon="-0.372">
        <ele>57</ele>
        <time>2023-05-04T08:30:59Z</time>
      </trkpt>
      <trkpt lat="49.21561" lon="-0.37191">
        <ele>57</ele>
        <time>2023-05-04T08:31:00Z</time>
      </trkpt>
      <trkpt lat="49.21564" lon="-0.37182">
        <ele>57</ele>
        <time>2023-05-04T08:31:01Z</time>
      </trkpt>
      <trkpt lat="49.21567" lon="-0.37173">
        <ele>57</ele>
        <time>2023-05-04T08:31:02Z</time>
      </trkpt>
      <trkpt lat="49.21569" lon="-0.37164">
        <ele>57</ele>
        <time>2023-05-04T08:31:03Z</time>
      </trkpt>
      <trkpt lat="49.21572" lon="-0.37155">
        <ele>56.8</ele>
        <time>2023-05-04T08:31:04Z</time>
      </trkpt>
      <trkpt lat="49.21575" lon="-0.37146">
        <ele>56.6</ele>
        <time>2023-05-04T08:31:05Z</time>
      </trkpt>
      <trkpt lat="49.21578" lon="-0.37136">
        <ele>56.2</ele>
        <time>2023-05-04T08:31:06Z</time>
      </trkpt>
      <trkpt lat="49.21581" lon="-0.37127">
        <ele>56</ele>
        <time>2023-05-04T08:31:07Z</time>
      </trkpt>
      <trkpt lat="49.21584" lon="-0.37117">
        <ele>55.8</ele>
        <time>2023-05-04T08:31:08Z</time>
      </trkpt>
      <trkpt lat="49.21587" lon="-0.37107">
        <ele>55.6</ele>
        <time>2023-05-04T08:31:09Z</time>
      </trkpt>
      <trkpt lat="49.2159" lon="-0.37098">
        <ele>55.4</ele>
        <time>2023-05-04T08:31:10Z</time>
      </trkpt>
      <trkpt lat="49.21593" lon="-0.37088">
        <ele>55.2</ele>
        <time>2023-05-04T08:31:11Z</time>
      </trkpt>
      <trkpt lat="49.21596" lon="-0.37078">
        <ele>55.2</ele>
        <time>2023-05-04T08:31:12Z</time>
      </trkpt>
      <trkpt lat="49.21599" lon="-0.37068">
        <ele>55.6</ele>
        <time>2023-05-04T08:31:13Z</time>
      </trkpt>
      <trkpt lat="49.21602" lon="-0.37058">
        <ele>55.8</ele>
        <time>2023-05-04T08:31:14Z</time>
      </trkpt>
      <trkpt lat="49.21606" lon="-0.37048">
        <ele>56</ele>
        <time>2023-05-04T08:31:15Z</time>
      </trkpt>
      <trkpt lat="49.21609" lon="-0.37038">
        <ele>56.2</ele>
        <time>2023-05-04T08:31:16Z</time>
      </trkpt>
      <trkpt lat="49.21613" lon="-0.37028">
        <ele>56.4</ele>
        <time>2023-05-04T08:31:17Z</time>
      </trkpt>
      <trkpt lat="49.21617" lon="-0.37019">
        <ele>56.6</ele>
        <time>2023-05-04T08:31:18Z</time>
      </trkpt>
      <trkpt lat="49.21621" lon="-0.3701">
        <ele>56.8</ele>
        <time>2023-05-04T08:31:19Z</time>
      </trkpt>
      <trkpt lat="49.21626" lon="-0.37001">
        <ele>57</ele>
        <time>2023-05-04T08:31:20Z</time>
      </trkpt>
      <trkpt lat="49.2163" lon="-0.36992">
        <ele>57</ele>
        <time>2023-05-04T08:31:21Z</time>
      </trkpt>
      <trkpt lat="49.21635" lon="-0.36984">
        <ele>57</ele>
        <time>2023-05-04T08:31:22Z</time>
      </trkpt>
      <trkpt lat="49.2164" lon="-0.36976">
        <ele>57</ele>
        <time>2023-05-04T08:31:23Z</time>
      </trkpt>
      <trkpt lat="49.21646" lon="-0.36968">
        <ele>57</ele>
        <time>2023-05-04T08:31:24Z</time>
      </trkpt>
      <trkpt lat="49.21651" lon="-0.3696">
        <ele>57</ele>
        <time>2023-05-04T08:31:25Z</time>
      </trkpt>
      <trkpt lat="49.21657" lon="-0.36953">
        <ele>57</ele>
        <time>2023-05-04T08:31:26Z</time>
      </trkpt>
      <trkpt lat="49.21663" lon="-0.36946">
        <ele>57</ele>
        <time>2023-05-04T08:31:27Z</time>
      </trkpt>
      <trkpt lat="49.21668" lon="-0.3694">
        <ele>57</ele>
        <time>2023-05-04T08:31:28Z</time>
      </trkpt>
      <trkpt lat="49.21674" lon="-0.36934">
        <ele>57</ele>
        <time>2023-05-04T08:31:29Z</time>
      </trkpt>
      <trkpt lat="49.2168" lon="-0.36928">
        <ele>56.8</ele>
        <time>2023-05-04T08:31:30Z</time>
      </trkpt>
      <trkpt lat="49.21687" lon="-0.36923">
        <ele>56.8</ele>
        <time>2023-05-04T08:31:31Z</time>
      </trkpt>
      <trkpt lat="49.21693" lon="-0.36918">
        <ele>56.8</ele>
        <time>2023-05-04T08:31:32Z</time>
      </trkpt>
      <trkpt lat="49.21699" lon="-0.36914">
        <ele>56.6</ele>
        <time>2023-05-04T08:31:33Z</time>
      </trkpt>
      <trkpt lat="49.21706" lon="-0.3691">
        <ele>56.6</ele>
        <time>2023-05-04T08:31:34Z</time>
      </trkpt>
      <trkpt lat="49.21712" lon="-0.36906">
        <ele>56.4</ele>
        <time>2023-05-04T08:31:35Z</time>
      </trkpt>
      <trkpt lat="49.21718" lon="-0.36901">
        <ele>56.2</ele>
        <time>2023-05-04T08:31:36Z</time>
      </trkpt>
      <trkpt lat="49.21724" lon="-0.36896">
        <ele>56.2</ele>
        <time>2023-05-04T08:31:37Z</time>
      </trkpt>
      <trkpt lat="49.21729" lon="-0.36891">
        <ele>56</ele>
        <time>2023-05-04T08:31:38Z</time>
      </trkpt>
      <trkpt lat="49.21735" lon="-0.36886">
        <ele>56</ele>
        <time>2023-05-04T08:31:39Z</time>
      </trkpt>
      <trkpt lat="49.21742" lon="-0.3688">
        <ele>55.8</ele>
        <time>2023-05-04T08:31:40Z</time>
      </trkpt>
      <trkpt lat="49.21748" lon="-0.36875">
        <ele>55.6</ele>
        <time>2023-05-04T08:31:41Z</time>
      </trkpt>
      <trkpt lat="49.21754" lon="-0.3687">
        <ele>55.2</ele>
        <time>2023-05-04T08:31:42Z</time>
      </trkpt>
      <trkpt lat="49.2176" lon="-0.36865">
        <ele>55</ele>
        <time>2023-05-04T08:31:43Z</time>
      </trkpt>
      <trkpt lat="49.21767" lon="-0.3686">
        <ele>55</ele>
        <time>2023-05-04T08:31:44Z</time>
      </trkpt>
      <trkpt lat="49.21773" lon="-0.36855">
        <ele>54.8</ele>
        <time>2023-05-04T08:31:45Z</time>
      </trkpt>
      <trkpt lat="49.21779" lon="-0.3685">
        <ele>54.6</ele>
        <time>2023-05-04T08:31:46Z</time>
      </trkpt>
      <trkpt lat="49.21785" lon="-0.36845">
        <ele>54.2</ele>
        <time>2023-05-04T08:31:47Z</time>
      </trkpt>
      <trkpt lat="49.21792" lon="-0.36841">
        <ele>54</ele>
        <time>2023-05-04T08:31:48Z</time>
      </trkpt>
      <trkpt lat="49.21798" lon="-0.36835">
        <ele>54</ele>
        <time>2023-05-04T08:31:49Z</time>
      </trkpt>
      <trkpt lat="49.21805" lon="-0.36831">
        <ele>53.8</ele>
        <time>2023-05-04T08:31:50Z</time>
      </trkpt>
      <trkpt lat="49.21811" lon="-0.36826">
        <ele>53.6</ele>
        <time>2023-05-04T08:31:51Z</time>
      </trkpt>
      <trkpt lat="49.21817" lon="-0.36821">
        <ele>53.4</ele>
        <time>2023-05-04T08:31:52Z</time>
      </trkpt>
      <trkpt lat="49.21822" lon="-0.36816">
        <ele>53.2</ele>
        <time>2023-05-04T08:31:53Z</time>
      </trkpt>
      <trkpt lat="49.21827" lon="-0.36811">
        <ele>53.2</ele>
        <time>2023-05-04T08:31:54Z</time>
      </trkpt>
      <trkpt lat="49.21832" lon="-0.36805">
        <ele>53</ele>
        <time>2023-05-04T08:31:55Z</time>
      </trkpt>
      <trkpt lat="49.21836" lon="-0.368">
        <ele>53</ele>
        <time>2023-05-04T08:31:56Z</time>
      </trkpt>
      <trkpt lat="49.2184" lon="-0.36794">
        <ele>53</ele>
        <time>2023-05-04T08:31:57Z</time>
      </trkpt>
      <trkpt lat="49.21844" lon="-0.36788">
        <ele>53</ele>
        <time>2023-05-04T08:31:58Z</time>
      </trkpt>
      <trkpt lat="49.21848" lon="-0.36782">
        <ele>53</ele>
        <time>2023-05-04T08:31:59Z</time>
      </trkpt>
      <trkpt lat="49.21853" lon="-0.36775">
        <ele>53</ele>
        <time>2023-05-04T08:32:00Z</time>
      </trkpt>
      <trkpt lat="49.21857" lon="-0.36769">
        <ele>53</ele>
        <time>2023-05-04T08:32:01Z</time>
      </trkpt>
      <trkpt lat="49.21861" lon="-0.36762">
        <ele>53</ele>
        <time>2023-05-04T08:32:02Z</time>
      </trkpt>
      <trkpt lat="49.21865" lon="-0.36756">
        <ele>53</ele>
        <time>2023-05-04T08:32:03Z</time>
      </trkpt>
      <trkpt lat="49.21868" lon="-0.36751">
        <ele>53</ele>
        <time>2023-05-04T08:32:04Z</time>
      </trkpt>
      <trkpt lat="49.21871" lon="-0.36746">
        <ele>53</ele>
        <time>2023-05-04T08:32:05Z</time>
      </trkpt>
      <trkpt lat="49.21874" lon="-0.36742">
        <ele>53</ele>
        <time>2023-05-04T08:32:06Z</time>
      </trkpt>
      <trkpt lat="49.21876" lon="-0.36739">
        <ele>53</ele>
        <time>2023-05-04T08:32:07Z</time>
      </trkpt>
      <trkpt lat="49.21877" lon="-0.36736">
        <ele>53</ele>
        <time>2023-05-04T08:32:08Z</time>
      </trkpt>
      <trkpt lat="49.21878" lon="-0.36735">
        <ele>53</ele>
        <time>2023-05-04T08:32:09Z</time>
      </trkpt>
      <trkpt lat="49.21879" lon="-0.36734">
        <ele>53</ele>
        <time>2023-05-04T08:32:10Z</time>
      </trkpt>
      <trkpt lat="49.21879" lon="-0.36734">
        <ele>53</ele>
        <time>2023-05-04T08:32:11Z</time>
      </trkpt>
      <trkpt lat="49.21879" lon="-0.36734">
        <ele>53</ele>
        <time>2023-05-04T08:32:12Z</time>
      </trkpt>
      <trkpt lat="49.21879" lon="-0.36734">
        <ele>53</ele>
        <time>2023-05-04T08:32:13Z</time>
      </trkpt>
      <trkpt lat="49.21879" lon="-0.36734">
        <ele>53</ele>
        <time>2023-05-04T08:32:14Z</time>
      </trkpt>
      <trkpt lat="49.21879" lon="-0.36734">
        <ele>53</ele>
        <time>2023-05-04T08:32:15Z</time>
      </trkpt>
      <trkpt lat="49.21879" lon="-0.36734">
        <ele>53</ele>
        <time>2023-05-04T08:32:16Z</time>
      </trkpt>
      <trkpt lat="49.21879" lon="-0.36734">
        <ele>53</ele>
        <time>2023-05-04T08:32:17Z</time>
      </trkpt>
      <trkpt lat="49.21879" lon="-0.36734">
        <ele>53</ele>
        <time>2023-05-04T08:32:18Z</time>
      </trkpt>
      <trkpt lat="49.21879" lon="-0.36734">
        <ele>53</ele>
        <time>2023-05-04T08:32:19Z</time>
      </trkpt>
      <trkpt lat="49.21879" lon="-0.36734">
        <ele>53</ele>
        <time>2023-05-04T08:32:20Z</time>
      </trkpt>
      <trkpt lat="49.21879" lon="-0.36734">
        <ele>53</ele>
        <time>2023-05-04T08:32:21Z</time>
      </trkpt>
      <trkpt lat="49.21879" lon="-0.36734">
        <ele>53</ele>
        <time>2023-05-04T08:32:22Z</time>
      </trkpt>
      <trkpt lat="49.21879" lon="-0.36734">
        <ele>53</ele>
        <time>2023-05-04T08:32:23Z</time>
      </trkpt>
      <trkpt lat="49.21879" lon="-0.36734">
        <ele>53</ele>
        <time>2023-05-04T08:32:24Z</time>
      </trkpt>
      <trkpt lat="49.21879" lon="-0.36734">
        <ele>53</ele>
        <time>2023-05-04T08:32:25Z</time>
      </trkpt>
      <trkpt lat="49.21879" lon="-0.36734">
        <ele>53</ele>
        <time>2023-05-04T08:32:26Z</time>
      </trkpt>
      <trkpt lat="49.21879" lon="-0.36734">
        <ele>53</ele>
        <time>2023-05-04T08:32:27Z</time>
      </trkpt>
      <trkpt lat="49.21879" lon="-0.36734">
        <ele>53</ele>
        <time>2023-05-04T08:32:28Z</time>
      </trkpt>
      <trkpt lat="49.21879" lon="-0.36734">
        <ele>53</ele>
        <time>2023-05-04T08:32:29Z</time>
      </trkpt>
      <trkpt lat="49.21879" lon="-0.36734">
        <ele>53</ele>
        <time>2023-05-04T08:32:30Z</time>
      </trkpt>
      <trkpt lat="49.21879" lon="-0.36734">
        <ele>53</ele>
        <time>2023-05-04T08:32:31Z</time>
      </trkpt>
      <trkpt lat="49.21879" lon="-0.36734">
        <ele>53</ele>
        <time>2023-05-04T08:32:32Z</time>
      </trkpt>
      <trkpt lat="49.21879" lon="-0.36734">
        <ele>53</ele>
        <time>2023-05-04T08:32:33Z</time>
      </trkpt>
      <trkpt lat="49.21879" lon="-0.36734">
        <ele>53</ele>
        <time>2023-05-04T08:32:34Z</time>
      </trkpt>
      <trkpt lat="49.21879" lon="-0.36734">
        <ele>53</ele>
        <time>2023-05-04T08:32:35Z</time>
      </trkpt>
      <trkpt lat="49.21879" lon="-0.36734">
        <ele>53</ele>
        <time>2023-05-04T08:32:36Z</time>
      </trkpt>
      <trkpt lat="49.21879" lon="-0.36734">
        <ele>53</ele>
        <time>2023-05-04T08:32:37Z</time>
      </trkpt>
      <trkpt lat="49.21879" lon="-0.36734">
        <ele>53</ele>
        <time>2023-05-04T08:32:38Z</time>
      </trkpt>
      <trkpt lat="49.21879" lon="-0.36734">
        <ele>53</ele>
        <time>2023-05-04T08:32:39Z</time>
      </trkpt>
      <trkpt lat="49.21879" lon="-0.36734">
        <ele>53</ele>
        <time>2023-05-04T08:32:40Z</time>
      </trkpt>
      <trkpt lat="49.21879" lon="-0.36734">
        <ele>53</ele>
        <time>2023-05-04T08:32:41Z</time>
      </trkpt>
      <trkpt lat="49.21879" lon="-0.36734">
        <ele>53</ele>
        <time>2023-05-04T08:32:42Z</time>
      </trkpt>
      <trkpt lat="49.21879" lon="-0.36734">
        <ele>53</ele>
        <time>2023-05-04T08:32:43Z</time>
      </trkpt>
      <trkpt lat="49.21879" lon="-0.36734">
        <ele>53</ele>
        <time>2023-05-04T08:32:44Z</time>
      </trkpt>
      <trkpt lat="49.21879" lon="-0.36734">
        <ele>53</ele>
        <time>2023-05-04T08:32:45Z</time>
      </trkpt>
      <trkpt lat="49.21879" lon="-0.36734">
        <ele>53</ele>
        <time>2023-05-04T08:32:46Z</time>
      </trkpt>
      <trkpt lat="49.21879" lon="-0.36734">
        <ele>53</ele>
        <time>2023-05-04T08:32:47Z</time>
      </trkpt>
      <trkpt lat="49.21879" lon="-0.36734">
        <ele>53</ele>
        <time>2023-05-04T08:32:48Z</time>
      </trkpt>
      <trkpt lat="49.21879" lon="-0.36734">
        <ele>53</ele>
        <time>2023-05-04T08:32:49Z</time>
      </trkpt>
      <trkpt lat="49.21879" lon="-0.36734">
        <ele>53</ele>
        <time>2023-05-04T08:32:50Z</time>
      </trkpt>
      <trkpt lat="49.21879" lon="-0.36734">
        <ele>53</ele>
        <time>2023-05-04T08:32:51Z</time>
      </trkpt>
      <trkpt lat="49.21879" lon="-0.36734">
        <ele>53</ele>
        <time>2023-05-04T08:32:52Z</time>
      </trkpt>
      <trkpt lat="49.21879" lon="-0.36734">
        <ele>53</ele>
        <time>2023-05-04T08:32:53Z</time>
      </trkpt>
      <trkpt lat="49.21879" lon="-0.36733">
        <ele>53</ele>
        <time>2023-05-04T08:32:54Z</time>
      </trkpt>
      <trkpt lat="49.2188" lon="-0.36733">
        <ele>53</ele>
        <time>2023-05-04T08:32:55Z</time>
      </trkpt>
      <trkpt lat="49.21881" lon="-0.36731">
        <ele>53</ele>
        <time>2023-05-04T08:32:56Z</time>
      </trkpt>
      <trkpt lat="49.21882" lon="-0.3673">
        <ele>53</ele>
        <time>2023-05-04T08:32:57Z</time>
      </trkpt>
      <trkpt lat="49.21884" lon="-0.36727">
        <ele>53</ele>
        <time>2023-05-04T08:32:58Z</time>
      </trkpt>
      <trkpt lat="49.21886" lon="-0.36724">
        <ele>53</ele>
        <time>2023-05-04T08:32:59Z</time>
      </trkpt>
      <trkpt lat="49.21889" lon="-0.3672">
        <ele>53</ele>
        <time>2023-05-04T08:33:00Z</time>
      </trkpt>
      <trkpt lat="49.21891" lon="-0.36716">
        <ele>53</ele>
        <time>2023-05-04T08:33:01Z</time>
      </trkpt>
      <trkpt lat="49.21894" lon="-0.3671">
        <ele>53</ele>
        <time>2023-05-04T08:33:02Z</time>
      </trkpt>
      <trkpt lat="49.21896" lon="-0.36704">
        <ele>53</ele>
        <time>2023-05-04T08:33:03Z</time>
      </trkpt>
      <trkpt lat="49.21898" lon="-0.36696">
        <ele>53</ele>
        <time>2023-05-04T08:33:04Z</time>
      </trkpt>
      <trkpt lat="49.219" lon="-0.36688">
        <ele>53</ele>
        <time>2023-05-04T08:33:05Z</time>
      </trkpt>
      <trkpt lat="49.21902" lon="-0.36679">
        <ele>53</ele>
        <time>2023-05-04T08:33:06Z</time>
      </trkpt>
      <trkpt lat="49.21904" lon="-0.3667">
        <ele>53</ele>
        <time>2023-05-04T08:33:07Z</time>
      </trkpt>
      <trkpt lat="49.21907" lon="-0.36661">
        <ele>53</ele>
        <time>2023-05-04T08:33:08Z</time>
      </trkpt>
      <trkpt lat="49.2191" lon="-0.36652">
        <ele>52.6</ele>
        <time>2023-05-04T08:33:09Z</time>
      </trkpt>
      <trkpt lat="49.21913" lon="-0.36643">
        <ele>52.4</ele>
        <time>2023-05-04T08:33:10Z</time>
      </trkpt>
      <trkpt lat="49.21916" lon="-0.36634">
        <ele>52.2</ele>
        <time>2023-05-04T08:33:11Z</time>
      </trkpt>
      <trkpt lat="49.2192" lon="-0.36624">
        <ele>51.8</ele>
        <time>2023-05-04T08:33:12Z</time>
      </trkpt>
      <trkpt lat="49.21922" lon="-0.36613">
        <ele>51.6</ele>
        <time>2023-05-04T08:33:13Z</time>
      </trkpt>
      <trkpt lat="49.21925" lon="-0.36603">
        <ele>51.2</ele>
        <time>2023-05-04T08:33:14Z</time>
      </trkpt>
      <trkpt lat="49.21927" lon="-0.36593">
        <ele>50.8</ele>
        <time>2023-05-04T08:33:15Z</time>
      </trkpt>
      <trkpt lat="49.2193" lon="-0.36583">
        <ele>50.6</ele>
        <time>2023-05-04T08:33:16Z</time>
      </trkpt>
      <trkpt lat="49.21933" lon="-0.36574">
        <ele>50.4</ele>
        <time>2023-05-04T08:33:17Z</time>
      </trkpt>
      <trkpt lat="49.21937" lon="-0.36564">
        <ele>50.4</ele>
        <time>2023-05-04T08:33:18Z</time>
      </trkpt>
      <trkpt lat="49.21941" lon="-0.36554">
        <ele>50.2</ele>
        <time>2023-05-04T08:33:19Z</time>
      </trkpt>
      <trkpt lat="49.21945" lon="-0.36545">
        <ele>50.2</ele>
        <time>2023-05-04T08:33:20Z</time>
      </trkpt>
      <trkpt lat="49.21949" lon="-0.36536">
        <ele>50.2</ele>
        <time>2023-05-04T08:33:21Z</time>
      </trkpt>
      <trkpt lat="49.21954" lon="-0.36527">
        <ele>50.2</ele>
        <time>2023-05-04T08:33:22Z</time>
      </trkpt>
      <trkpt lat="49.21959" lon="-0.36519">
        <ele>50.2</ele>
        <time>2023-05-04T08:33:23Z</time>
      </trkpt>
      <trkpt lat="49.21964" lon="-0.36512">
        <ele>50.2</ele>
        <time>2023-05-04T08:33:24Z</time>
      </trkpt>
      <trkpt lat="49.21969" lon="-0.36505">
        <ele>50.2</ele>
        <time>2023-05-04T08:33:25Z</time>
      </trkpt>
      <trkpt lat="49.21975" lon="-0.36499">
        <ele>50.2</ele>
        <time>2023-05-04T08:33:26Z</time>
      </trkpt>
      <trkpt lat="49.2198" lon="-0.36493">
        <ele>50.2</ele>
        <time>2023-05-04T08:33:27Z</time>
      </trkpt>
      <trkpt lat="49.21986" lon="-0.36488">
        <ele>50.2</ele>
        <time>2023-05-04T08:33:28Z</time>
      </trkpt>
      <trkpt lat="49.21991" lon="-0.36483">
        <ele>50</ele>
        <time>2023-05-04T08:33:29Z</time>
      </trkpt>
      <trkpt lat="49.21995" lon="-0.36478">
        <ele>50</ele>
        <time>2023-05-04T08:33:30Z</time>
      </trkpt>
      <trkpt lat="49.21999" lon="-0.36475">
        <ele>50</ele>
        <time>2023-05-04T08:33:31Z</time>
      </trkpt>
      <trkpt lat="49.22002" lon="-0.36471">
        <ele>50</ele>
        <time>2023-05-04T08:33:32Z</time>
      </trkpt>
      <trkpt lat="49.22006" lon="-0.36466">
        <ele>49.8</ele>
        <time>2023-05-04T08:33:33Z</time>
      </trkpt>
      <trkpt lat="49.22009" lon="-0.3646">
        <ele>49.8</ele>
        <time>2023-05-04T08:33:34Z</time>
      </trkpt>
      <trkpt lat="49.22013" lon="-0.36453">
        <ele>49.6</ele>
        <time>2023-05-04T08:33:35Z</time>
      </trkpt>
      <trkpt lat="49.22017" lon="-0.36447">
        <ele>49.4</ele>
        <time>2023-05-04T08:33:36Z</time>
      </trkpt>
      <trkpt lat="49.22022" lon="-0.3644">
        <ele>49.2</ele>
        <time>2023-05-04T08:33:37Z</time>
      </trkpt>
      <trkpt lat="49.22028" lon="-0.36433">
        <ele>49.2</ele>
        <time>2023-05-04T08:33:38Z</time>
      </trkpt>
      <trkpt lat="49.22033" lon="-0.36426">
        <ele>49</ele>
        <time>2023-05-04T08:33:39Z</time>
      </trkpt>
      <trkpt lat="49.22038" lon="-0.36419">
        <ele>49</ele>
        <time>2023-05-04T08:33:40Z</time>
      </trkpt>
      <trkpt lat="49.22044" lon="-0.36411">
        <ele>49</ele>
        <time>2023-05-04T08:33:41Z</time>
      </trkpt>
      <trkpt lat="49.2205" lon="-0.36403">
        <ele>48.8</ele>
        <time>2023-05-04T08:33:42Z</time>
      </trkpt>
      <trkpt lat="49.22055" lon="-0.36395">
        <ele>48.6</ele>
        <time>2023-05-04T08:33:43Z</time>
      </trkpt>
      <trkpt lat="49.22061" lon="-0.36387">
        <ele>48.2</ele>
        <time>2023-05-04T08:33:44Z</time>
      </trkpt>
      <trkpt lat="49.22067" lon="-0.36378">
        <ele>48.2</ele>
        <time>2023-05-04T08:33:45Z</time>
      </trkpt>
      <trkpt lat="49.22072" lon="-0.3637">
        <ele>48</ele>
        <time>2023-05-04T08:33:46Z</time>
      </trkpt>
      <trkpt lat="49.22078" lon="-0.36361">
        <ele>48</ele>
        <time>2023-05-04T08:33:47Z</time>
      </trkpt>
      <trkpt lat="49.22084" lon="-0.36352">
        <ele>48</ele>
        <time>2023-05-04T08:33:48Z</time>
      </trkpt>
      <trkpt lat="49.2209" lon="-0.36343">
        <ele>47.6</ele>
        <time>2023-05-04T08:33:49Z</time>
      </trkpt>
      <trkpt lat="49.22095" lon="-0.36335">
        <ele>47.2</ele>
        <time>2023-05-04T08:33:50Z</time>
      </trkpt>
      <trkpt lat="49.22101" lon="-0.36326">
        <ele>47</ele>
        <time>2023-05-04T08:33:51Z</time>
      </trkpt>
      <trkpt lat="49.22107" lon="-0.36317">
        <ele>46.4</ele>
        <time>2023-05-04T08:33:52Z</time>
      </trkpt>
      <trkpt lat="49.22113" lon="-0.36308">
        <ele>46</ele>
        <time>2023-05-04T08:33:53Z</time>
      </trkpt>
      <trkpt lat="49.22119" lon="-0.36299">
        <ele>45.6</ele>
        <time>2023-05-04T08:33:54Z</time>
      </trkpt>
      <trkpt lat="49.22125" lon="-0.3629">
        <ele>45.2</ele>
        <time>2023-05-04T08:33:55Z</time>
      </trkpt>
      <trkpt lat="49.22131" lon="-0.36281">
        <ele>45</ele>
        <time>2023-05-04T08:33:56Z</time>
      </trkpt>
      <trkpt lat="49.22137" lon="-0.36273">
        <ele>44.6</ele>
        <time>2023-05-04T08:33:57Z</time>
      </trkpt>
      <trkpt lat="49.22143" lon="-0.36264">
        <ele>44.2</ele>
        <time>2023-05-04T08:33:58Z</time>
      </trkpt>
      <trkpt lat="49.22149" lon="-0.36255">
        <ele>44</ele>
        <time>2023-05-04T08:33:59Z</time>
      </trkpt>
      <trkpt lat="49.22155" lon="-0.36246">
        <ele>43.6</ele>
        <time>2023-05-04T08:34:00Z</time>
      </trkpt>
      <trkpt lat="49.22161" lon="-0.36237">
        <ele>43.4</ele>
        <time>2023-05-04T08:34:01Z</time>
      </trkpt>
      <trkpt lat="49.22166" lon="-0.36228">
        <ele>43.2</ele>
        <time>2023-05-04T08:34:02Z</time>
      </trkpt>
      <trkpt lat="49.22172" lon="-0.36218">
        <ele>43.2</ele>
        <time>2023-05-04T08:34:03Z</time>
      </trkpt>
      <trkpt lat="49.22178" lon="-0.36209">
        <ele>43.2</ele>
        <time>2023-05-04T08:34:04Z</time>
      </trkpt>
      <trkpt lat="49.22183" lon="-0.36199">
        <ele>43.2</ele>
        <time>2023-05-04T08:34:05Z</time>
      </trkpt>
      <trkpt lat="49.22188" lon="-0.36189">
        <ele>43.2</ele>
        <time>2023-05-04T08:34:06Z</time>
      </trkpt>
      <trkpt lat="49.22193" lon="-0.36178">
        <ele>43.2</ele>
        <time>2023-05-04T08:34:07Z</time>
      </trkpt>
      <trkpt lat="49.22197" lon="-0.36167">
        <ele>43.2</ele>
        <time>2023-05-04T08:34:08Z</time>
      </trkpt>
      <trkpt lat="49.22201" lon="-0.36156">
        <ele>43.2</ele>
        <time>2023-05-04T08:34:09Z</time>
      </trkpt>
      <trkpt lat="49.22205" lon="-0.36145">
        <ele>43</ele>
        <time>2023-05-04T08:34:10Z</time>
      </trkpt>
      <trkpt lat="49.22208" lon="-0.36133">
        <ele>43</ele>
        <time>2023-05-04T08:34:11Z</time>
      </trkpt>
      <trkpt lat="49.22211" lon="-0.36121">
        <ele>43</ele>
        <time>2023-05-04T08:34:12Z</time>
      </trkpt>
      <trkpt lat="49.22214" lon="-0.3611">
        <ele>43</ele>
        <time>2023-05-04T08:34:13Z</time>
      </trkpt>
      <trkpt lat="49.22216" lon="-0.36098">
        <ele>42.8</ele>
        <time>2023-05-04T08:34:14Z</time>
      </trkpt>
      <trkpt lat="49.22217" lon="-0.36086">
        <ele>42.8</ele>
        <time>2023-05-04T08:34:15Z</time>
      </trkpt>
      <trkpt lat="49.22219" lon="-0.36074">
        <ele>42.8</ele>
        <time>2023-05-04T08:34:16Z</time>
      </trkpt>
      <trkpt lat="49.22219" lon="-0.36063">
        <ele>42.6</ele>
        <time>2023-05-04T08:34:17Z</time>
      </trkpt>
      <trkpt lat="49.2222" lon="-0.36052">
        <ele>42.6</ele>
        <time>2023-05-04T08:34:18Z</time>
      </trkpt>
      <trkpt lat="49.22221" lon="-0.36042">
        <ele>42.4</ele>
        <time>2023-05-04T08:34:19Z</time>
      </trkpt>
      <trkpt lat="49.22221" lon="-0.36032">
        <ele>42.2</ele>
        <time>2023-05-04T08:34:20Z</time>
      </trkpt>
      <trkpt lat="49.2222" lon="-0.36023">
        <ele>42.2</ele>
        <time>2023-05-04T08:34:21Z</time>
      </trkpt>
      <trkpt lat="49.2222" lon="-0.36014">
        <ele>42.2</ele>
        <time>2023-05-04T08:34:22Z</time>
      </trkpt>
      <trkpt lat="49.22219" lon="-0.36007">
        <ele>42.2</ele>
        <time>2023-05-04T08:34:23Z</time>
      </trkpt>
      <trkpt lat="49.22218" lon="-0.36">
        <ele>42.2</ele>
        <time>2023-05-04T08:34:24Z</time>
      </trkpt>
      <trkpt lat="49.22217" lon="-0.35994">
        <ele>42.2</ele>
        <time>2023-05-04T08:34:25Z</time>
      </trkpt>
      <trkpt lat="49.22215" lon="-0.35987">
        <ele>42.2</ele>
        <time>2023-05-04T08:34:26Z</time>
      </trkpt>
      <trkpt lat="49.22215" lon="-0.35979">
        <ele>42.2</ele>
        <time>2023-05-04T08:34:27Z</time>
      </trkpt>
      <trkpt lat="49.22214" lon="-0.35971">
        <ele>42.2</ele>
        <time>2023-05-04T08:34:28Z</time>
      </trkpt>
      <trkpt lat="49.22214" lon="-0.35963">
        <ele>42.2</ele>
        <time>2023-05-04T08:34:29Z</time>
      </trkpt>
      <trkpt lat="49.22213" lon="-0.35954">
        <ele>42.2</ele>
        <time>2023-05-04T08:34:30Z</time>
      </trkpt>
      <trkpt lat="49.22212" lon="-0.35946">
        <ele>42.4</ele>
        <time>2023-05-04T08:34:31Z</time>
      </trkpt>
      <trkpt lat="49.2221" lon="-0.35937">
        <ele>42.4</ele>
        <time>2023-05-04T08:34:32Z</time>
      </trkpt>
      <trkpt lat="49.22209" lon="-0.35929">
        <ele>42.6</ele>
        <time>2023-05-04T08:34:33Z</time>
      </trkpt>
      <trkpt lat="49.22208" lon="-0.35921">
        <ele>42.6</ele>
        <time>2023-05-04T08:34:34Z</time>
      </trkpt>
      <trkpt lat="49.22206" lon="-0.35913">
        <ele>42.6</ele>
        <time>2023-05-04T08:34:35Z</time>
      </trkpt>
      <trkpt lat="49.22203" lon="-0.35907">
        <ele>42.8</ele>
        <time>2023-05-04T08:34:36Z</time>
      </trkpt>
      <trkpt lat="49.22199" lon="-0.35902">
        <ele>43</ele>
        <time>2023-05-04T08:34:37Z</time>
      </trkpt>
      <trkpt lat="49.22194" lon="-0.35898">
        <ele>43</ele>
        <time>2023-05-04T08:34:38Z</time>
      </trkpt>
      <trkpt lat="49.2219" lon="-0.35892">
        <ele>43</ele>
        <time>2023-05-04T08:34:39Z</time>
      </trkpt>
      <trkpt lat="49.22186" lon="-0.35887">
        <ele>43.2</ele>
        <time>2023-05-04T08:34:40Z</time>
      </trkpt>
      <trkpt lat="49.22182" lon="-0.35883">
        <ele>43.2</ele>
        <time>2023-05-04T08:34:41Z</time>
      </trkpt>
      <trkpt lat="49.22176" lon="-0.35881">
        <ele>43.4</ele>
        <time>2023-05-04T08:34:42Z</time>
      </trkpt>
      <trkpt lat="49.22171" lon="-0.35881">
        <ele>43.6</ele>
        <time>2023-05-04T08:34:43Z</time>
      </trkpt>
      <trkpt lat="49.22166" lon="-0.35881">
        <ele>43.6</ele>
        <time>2023-05-04T08:34:44Z</time>
      </trkpt>
      <trkpt lat="49.2216" lon="-0.35881">
        <ele>43.6</ele>
        <time>2023-05-04T08:34:45Z</time>
      </trkpt>
      <trkpt lat="49.22155" lon="-0.3588">
        <ele>43.6</ele>
        <time>2023-05-04T08:34:46Z</time>
      </trkpt>
      <trkpt lat="49.2215" lon="-0.3588">
        <ele>43.6</ele>
        <time>2023-05-04T08:34:47Z</time>
      </trkpt>
      <trkpt lat="49.22144" lon="-0.3588">
        <ele>43.6</ele>
        <time>2023-05-04T08:34:48Z</time>
      </trkpt>
      <trkpt lat="49.22139" lon="-0.3588">
        <ele>43.6</ele>
        <time>2023-05-04T08:34:49Z</time>
      </trkpt>
      <trkpt lat="49.22133" lon="-0.35879">
        <ele>43.6</ele>
        <time>2023-05-04T08:34:50Z</time>
      </trkpt>
      <trkpt lat="49.22128" lon="-0.35879">
        <ele>43.6</ele>
        <time>2023-05-04T08:34:51Z</time>
      </trkpt>
      <trkpt lat="49.22122" lon="-0.35879">
        <ele>43.6</ele>
        <time>2023-05-04T08:34:52Z</time>
      </trkpt>
      <trkpt lat="49.22117" lon="-0.35879">
        <ele>43.6</ele>
        <time>2023-05-04T08:34:53Z</time>
      </trkpt>
      <trkpt lat="49.22112" lon="-0.35878">
        <ele>43.6</ele>
        <time>2023-05-04T08:34:54Z</time>
      </trkpt>
      <trkpt lat="49.22106" lon="-0.35878">
        <ele>43.6</ele>
        <time>2023-05-04T08:34:55Z</time>
      </trkpt>
      <trkpt lat="49.221" lon="-0.35878">
        <ele>43.6</ele>
        <time>2023-05-04T08:34:56Z</time>
      </trkpt>
      <trkpt lat="49.22095" lon="-0.35878">
        <ele>43.6</ele>
        <time>2023-05-04T08:34:57Z</time>
      </trkpt>
      <trkpt lat="49.2209" lon="-0.35877">
        <ele>43.6</ele>
        <time>2023-05-04T08:34:58Z</time>
      </trkpt>
      <trkpt lat="49.22084" lon="-0.35877">
        <ele>43.6</ele>
        <time>2023-05-04T08:34:59Z</time>
      </trkpt>
      <trkpt lat="49.22078" lon="-0.35877">
        <ele>43.6</ele>
        <time>2023-05-04T08:35:00Z</time>
      </trkpt>
      <trkpt lat="49.22073" lon="-0.35877">
        <ele>43.8</ele>
        <time>2023-05-04T08:35:01Z</time>
      </trkpt>
      <trkpt lat="49.22067" lon="-0.35877">
        <ele>43.8</ele>
        <time>2023-05-04T08:35:02Z</time>
      </trkpt>
      <trkpt lat="49.22062" lon="-0.35877">
        <ele>44</ele>
        <time>2023-05-04T08:35:03Z</time>
      </trkpt>
      <trkpt lat="49.22056" lon="-0.35876">
        <ele>44</ele>
        <time>2023-05-04T08:35:04Z</time>
      </trkpt>
      <trkpt lat="49.22051" lon="-0.35876">
        <ele>44</ele>
        <time>2023-05-04T08:35:05Z</time>
      </trkpt>
      <trkpt lat="49.22045" lon="-0.35876">
        <ele>44.2</ele>
        <time>2023-05-04T08:35:06Z</time>
      </trkpt>
      <trkpt lat="49.2204" lon="-0.35876">
        <ele>44.2</ele>
        <time>2023-05-04T08:35:07Z</time>
      </trkpt>
      <trkpt lat="49.22034" lon="-0.35876">
        <ele>44.4</ele>
        <time>2023-05-04T08:35:08Z</time>
      </trkpt>
      <trkpt lat="49.22029" lon="-0.35875">
        <ele>44.6</ele>
        <time>2023-05-04T08:35:09Z</time>
      </trkpt>
      <trkpt lat="49.22023" lon="-0.35875">
        <ele>44.6</ele>
        <time>2023-05-04T08:35:10Z</time>
      </trkpt>
      <trkpt lat="49.22018" lon="-0.35875">
        <ele>44.8</ele>
        <time>2023-05-04T08:35:11Z</time>
      </trkpt>
      <trkpt lat="49.22012" lon="-0.35875">
        <ele>44.8</ele>
        <time>2023-05-04T08:35:12Z</time>
      </trkpt>
      <trkpt lat="49.22006" lon="-0.35874">
        <ele>45</ele>
        <time>2023-05-04T08:35:13Z</time>
      </trkpt>
      <trkpt lat="49.22001" lon="-0.35874">
        <ele>45</ele>
        <time>2023-05-04T08:35:14Z</time>
      </trkpt>
      <trkpt lat="49.21995" lon="-0.35874">
        <ele>45</ele>
        <time>2023-05-04T08:35:15Z</time>
      </trkpt>
      <trkpt lat="49.2199" lon="-0.35874">
        <ele>45.2</ele>
        <time>2023-05-04T08:35:16Z</time>
      </trkpt>
      <trkpt lat="49.21984" lon="-0.35873">
        <ele>45.2</ele>
        <time>2023-05-04T08:35:17Z</time>
      </trkpt>
      <trkpt lat="49.21979" lon="-0.35873">
        <ele>45.4</ele>
        <time>2023-05-04T08:35:18Z</time>
      </trkpt>
      <trkpt lat="49.21973" lon="-0.35873">
        <ele>45.6</ele>
        <time>2023-05-04T08:35:19Z</time>
      </trkpt>
      <trkpt lat="49.21968" lon="-0.35872">
        <ele>45.6</ele>
        <time>2023-05-04T08:35:20Z</time>
      </trkpt>
      <trkpt lat="49.21962" lon="-0.35872">
        <ele>45.8</ele>
        <time>2023-05-04T08:35:21Z</time>
      </trkpt>
      <trkpt lat="49.21957" lon="-0.35871">
        <ele>45.8</ele>
        <time>2023-05-04T08:35:22Z</time>
      </trkpt>
      <trkpt lat="49.21951" lon="-0.3587">
        <ele>45.8</ele>
        <time>2023-05-04T08:35:23Z</time>
      </trkpt>
      <trkpt lat="49.21946" lon="-0.35869">
        <ele>46</ele>
        <time>2023-05-04T08:35:24Z</time>
      </trkpt>
      <trkpt lat="49.2194" lon="-0.35868">
        <ele>46</ele>
        <time>2023-05-04T08:35:25Z</time>
      </trkpt>
      <trkpt lat="49.21935" lon="-0.35866">
        <ele>46</ele>
        <time>2023-05-04T08:35:26Z</time>
      </trkpt>
      <trkpt lat="49.21929" lon="-0.35863">
        <ele>46.2</ele>
        <time>2023-05-04T08:35:27Z</time>
      </trkpt>
      <trkpt lat="49.21924" lon="-0.35861">
        <ele>46.2</ele>
        <time>2023-05-04T08:35:28Z</time>
      </trkpt>
      <trkpt lat="49.21919" lon="-0.35858">
        <ele>46.2</ele>
        <time>2023-05-04T08:35:29Z</time>
      </trkpt>
      <trkpt lat="49.21913" lon="-0.35854">
        <ele>46.2</ele>
        <time>2023-05-04T08:35:30Z</time>
      </trkpt>
      <trkpt lat="49.21908" lon="-0.35851">
        <ele>46.4</ele>
        <time>2023-05-04T08:35:31Z</time>
      </trkpt>
      <trkpt lat="49.21904" lon="-0.35847">
        <ele>46.6</ele>
        <time>2023-05-04T08:35:32Z</time>
      </trkpt>
      <trkpt lat="49.21899" lon="-0.35843">
        <ele>46.6</ele>
        <time>2023-05-04T08:35:33Z</time>
      </trkpt>
      <trkpt lat="49.21894" lon="-0.35839">
        <ele>46.6</ele>
        <time>2023-05-04T08:35:34Z</time>
      </trkpt>
      <trkpt lat="49.2189" lon="-0.35835">
        <ele>46.6</ele>
        <time>2023-05-04T08:35:35Z</time>
      </trkpt>
      <trkpt lat="49.21886" lon="-0.3583">
        <ele>46.8</ele>
        <time>2023-05-04T08:35:36Z</time>
      </trkpt>
      <trkpt lat="49.21882" lon="-0.35826">
        <ele>46.8</ele>
        <time>2023-05-04T08:35:37Z</time>
      </trkpt>
      <trkpt lat="49.21878" lon="-0.35821">
        <ele>47</ele>
        <time>2023-05-04T08:35:38Z</time>
      </trkpt>
      <trkpt lat="49.21874" lon="-0.35816">
        <ele>47</ele>
        <time>2023-05-04T08:35:39Z</time>
      </trkpt>
      <trkpt lat="49.2187" lon="-0.3581">
        <ele>47</ele>
        <time>2023-05-04T08:35:40Z</time>
      </trkpt>
      <trkpt lat="49.21867" lon="-0.35805">
        <ele>47.2</ele>
        <time>2023-05-04T08:35:41Z</time>
      </trkpt>
      <trkpt lat="49.21863" lon="-0.35799">
        <ele>47.4</ele>
        <time>2023-05-04T08:35:42Z</time>
      </trkpt>
      <trkpt lat="49.2186" lon="-0.35793">
        <ele>47.6</ele>
        <time>2023-05-04T08:35:43Z</time>
      </trkpt>
      <trkpt lat="49.21857" lon="-0.35787">
        <ele>47.8</ele>
        <time>2023-05-04T08:35:44Z</time>
      </trkpt>
      <trkpt lat="49.21853" lon="-0.35781">
        <ele>47.8</ele>
        <time>2023-05-04T08:35:45Z</time>
      </trkpt>
      <trkpt lat="49.2185" lon="-0.35774">
        <ele>48</ele>
        <time>2023-05-04T08:35:46Z</time>
      </trkpt>
      <trkpt lat="49.21848" lon="-0.35768">
        <ele>48.2</ele>
        <time>2023-05-04T08:35:47Z</time>
      </trkpt>
      <trkpt lat="49.21845" lon="-0.35761">
        <ele>48.2</ele>
        <time>2023-05-04T08:35:48Z</time>
      </trkpt>
      <trkpt lat="49.21843" lon="-0.35754">
        <ele>48.6</ele>
        <time>2023-05-04T08:35:49Z</time>
      </trkpt>
      <trkpt lat="49.2184" lon="-0.35747">
        <ele>48.6</ele>
        <time>2023-05-04T08:35:50Z</time>
      </trkpt>
      <trkpt lat="49.21838" lon="-0.3574">
        <ele>48.8</ele>
        <time>2023-05-04T08:35:51Z</time>
      </trkpt>
      <trkpt lat="49.21836" lon="-0.35733">
        <ele>48.8</ele>
        <time>2023-05-04T08:35:52Z</time>
      </trkpt>
      <trkpt lat="49.21834" lon="-0.35726">
        <ele>48.8</ele>
        <time>2023-05-04T08:35:53Z</time>
      </trkpt>
      <trkpt lat="49.21832" lon="-0.35719">
        <ele>48.8</ele>
        <time>2023-05-04T08:35:54Z</time>
      </trkpt>
      <trkpt lat="49.2183" lon="-0.35712">
        <ele>48.6</ele>
        <time>2023-05-04T08:35:55Z</time>
      </trkpt>
      <trkpt lat="49.21828" lon="-0.35704">
        <ele>48.6</ele>
        <time>2023-05-04T08:35:56Z</time>
      </trkpt>
      <trkpt lat="49.21826" lon="-0.35697">
        <ele>48.6</ele>
        <time>2023-05-04T08:35:57Z</time>
      </trkpt>
      <trkpt lat="49.21824" lon="-0.3569">
        <ele>48.6</ele>
        <time>2023-05-04T08:35:58Z</time>
      </trkpt>
      <trkpt lat="49.21821" lon="-0.35682">
        <ele>48.6</ele>
        <time>2023-05-04T08:35:59Z</time>
      </trkpt>
      <trkpt lat="49.2182" lon="-0.35675">
        <ele>48.6</ele>
        <time>2023-05-04T08:36:00Z</time>
      </trkpt>
      <trkpt lat="49.21817" lon="-0.35668">
        <ele>48.6</ele>
        <time>2023-05-04T08:36:01Z</time>
      </trkpt>
      <trkpt lat="49.21815" lon="-0.35661">
        <ele>48.6</ele>
        <time>2023-05-04T08:36:02Z</time>
      </trkpt>
      <trkpt lat="49.21814" lon="-0.35654">
        <ele>48.6</ele>
        <time>2023-05-04T08:36:03Z</time>
      </trkpt>
      <trkpt lat="49.21812" lon="-0.35647">
        <ele>48.6</ele>
        <time>2023-05-04T08:36:04Z</time>
      </trkpt>
      <trkpt lat="49.2181" lon="-0.3564">
        <ele>48.6</ele>
        <time>2023-05-04T08:36:05Z</time>
      </trkpt>
      <trkpt lat="49.21808" lon="-0.35633">
        <ele>48.6</ele>
        <time>2023-05-04T08:36:06Z</time>
      </trkpt>
      <trkpt lat="49.21806" lon="-0.35625">
        <ele>48.6</ele>
        <time>2023-05-04T08:36:07Z</time>
      </trkpt>
      <trkpt lat="49.21804" lon="-0.35618">
        <ele>48.6</ele>
        <time>2023-05-04T08:36:08Z</time>
      </trkpt>
      <trkpt lat="49.21803" lon="-0.3561">
        <ele>48.4</ele>
        <time>2023-05-04T08:36:09Z</time>
      </trkpt>
      <trkpt lat="49.21801" lon="-0.35603">
        <ele>48.4</ele>
        <time>2023-05-04T08:36:10Z</time>
      </trkpt>
      <trkpt lat="49.21799" lon="-0.35595">
        <ele>48.4</ele>
        <time>2023-05-04T08:36:11Z</time>
      </trkpt>
      <trkpt lat="49.21797" lon="-0.35588">
        <ele>48.2</ele>
        <time>2023-05-04T08:36:12Z</time>
      </trkpt>
      <trkpt lat="49.21796" lon="-0.3558">
        <ele>48.4</ele>
        <time>2023-05-04T08:36:13Z</time>
      </trkpt>
      <trkpt lat="49.21794" lon="-0.35572">
        <ele>48.6</ele>
        <time>2023-05-04T08:36:14Z</time>
      </trkpt>
      <trkpt lat="49.21792" lon="-0.35564">
        <ele>48.6</ele>
        <time>2023-05-04T08:36:15Z</time>
      </trkpt>
      <trkpt lat="49.2179" lon="-0.35555">
        <ele>48.8</ele>
        <time>2023-05-04T08:36:16Z</time>
      </trkpt>
      <trkpt lat="49.21788" lon="-0.35547">
        <ele>48.8</ele>
        <time>2023-05-04T08:36:17Z</time>
      </trkpt>
      <trkpt lat="49.21786" lon="-0.35539">
        <ele>49</ele>
        <time>2023-05-04T08:36:18Z</time>
      </trkpt>
      <trkpt lat="49.21784" lon="-0.35531">
        <ele>49</ele>
        <time>2023-05-04T08:36:19Z</time>
      </trkpt>
      <trkpt lat="49.21783" lon="-0.35522">
        <ele>49</ele>
        <time>2023-05-04T08:36:20Z</time>
      </trkpt>
      <trkpt lat="49.21781" lon="-0.35514">
        <ele>49.2</ele>
        <time>2023-05-04T08:36:21Z</time>
      </trkpt>
      <trkpt lat="49.21779" lon="-0.35506">
        <ele>49.2</ele>
        <time>2023-05-04T08:36:22Z</time>
      </trkpt>
      <trkpt lat="49.21777" lon="-0.35498">
        <ele>49.2</ele>
        <time>2023-05-04T08:36:23Z</time>
      </trkpt>
      <trkpt lat="49.21776" lon="-0.3549">
        <ele>49</ele>
        <time>2023-05-04T08:36:24Z</time>
      </trkpt>
      <trkpt lat="49.21774" lon="-0.35482">
        <ele>49</ele>
        <time>2023-05-04T08:36:25Z</time>
      </trkpt>
      <trkpt lat="49.21772" lon="-0.35474">
        <ele>48.8</ele>
        <time>2023-05-04T08:36:26Z</time>
      </trkpt>
      <trkpt lat="49.2177" lon="-0.35466">
        <ele>48.8</ele>
        <time>2023-05-04T08:36:27Z</time>
      </trkpt>
      <trkpt lat="49.21768" lon="-0.35459">
        <ele>48.6</ele>
        <time>2023-05-04T08:36:28Z</time>
      </trkpt>
      <trkpt lat="49.21764" lon="-0.35454">
        <ele>48.6</ele>
        <time>2023-05-04T08:36:29Z</time>
      </trkpt>
      <trkpt lat="49.21759" lon="-0.3545">
        <ele>48.6</ele>
        <time>2023-05-04T08:36:30Z</time>
      </trkpt>
      <trkpt lat="49.21755" lon="-0.35446">
        <ele>48.6</ele>
        <time>2023-05-04T08:36:31Z</time>
      </trkpt>
      <trkpt lat="49.21752" lon="-0.35441">
        <ele>48.6</ele>
        <time>2023-05-04T08:36:32Z</time>
      </trkpt>
      <trkpt lat="49.2175" lon="-0.35434">
        <ele>48.4</ele>
        <time>2023-05-04T08:36:33Z</time>
      </trkpt>
      <trkpt lat="49.21748" lon="-0.35428">
        <ele>48.2</ele>
        <time>2023-05-04T08:36:34Z</time>
      </trkpt>
      <trkpt lat="49.21747" lon="-0.35421">
        <ele>48</ele>
        <time>2023-05-04T08:36:35Z</time>
      </trkpt>
      <trkpt lat="49.21747" lon="-0.35414">
        <ele>48</ele>
        <time>2023-05-04T08:36:36Z</time>
      </trkpt>
      <trkpt lat="49.21748" lon="-0.35408">
        <ele>47.8</ele>
        <time>2023-05-04T08:36:37Z</time>
      </trkpt>
      <trkpt lat="49.21749" lon="-0.35402">
        <ele>47.8</ele>
        <time>2023-05-04T08:36:38Z</time>
      </trkpt>
      <trkpt lat="49.21751" lon="-0.35397">
        <ele>47.6</ele>
        <time>2023-05-04T08:36:39Z</time>
      </trkpt>
      <trkpt lat="49.21753" lon="-0.35393">
        <ele>47.4</ele>
        <time>2023-05-04T08:36:40Z</time>
      </trkpt>
      <trkpt lat="49.21755" lon="-0.35389">
        <ele>47.2</ele>
        <time>2023-05-04T08:36:41Z</time>
      </trkpt>
      <trkpt lat="49.21758" lon="-0.35387">
        <ele>47.2</ele>
        <time>2023-05-04T08:36:42Z</time>
      </trkpt>
      <trkpt lat="49.21761" lon="-0.35384">
        <ele>47</ele>
        <time>2023-05-04T08:36:43Z</time>
      </trkpt>
      <trkpt lat="49.21763" lon="-0.3538">
        <ele>47</ele>
        <time>2023-05-04T08:36:44Z</time>
      </trkpt>
      <trkpt lat="49.21763" lon="-0.35374">
        <ele>46.8</ele>
        <time>2023-05-04T08:36:45Z</time>
      </trkpt>
      <trkpt lat="49.21762" lon="-0.35367">
        <ele>46.8</ele>
        <time>2023-05-04T08:36:46Z</time>
      </trkpt>
      <trkpt lat="49.2176" lon="-0.35359">
        <ele>46.6</ele>
        <time>2023-05-04T08:36:47Z</time>
      </trkpt>
      <trkpt lat="49.21758" lon="-0.35351">
        <ele>46.4</ele>
        <time>2023-05-04T08:36:48Z</time>
      </trkpt>
      <trkpt lat="49.21757" lon="-0.35342">
        <ele>46.2</ele>
        <time>2023-05-04T08:36:49Z</time>
      </trkpt>
      <trkpt lat="49.21755" lon="-0.35334">
        <ele>46</ele>
        <time>2023-05-04T08:36:50Z</time>
      </trkpt>
      <trkpt lat="49.21753" lon="-0.35325">
        <ele>46</ele>
        <time>2023-05-04T08:36:51Z</time>
      </trkpt>
      <trkpt lat="49.21751" lon="-0.35316">
        <ele>45.8</ele>
        <time>2023-05-04T08:36:52Z</time>
      </trkpt>
      <trkpt lat="49.21749" lon="-0.35307">
        <ele>45.8</ele>
        <time>2023-05-04T08:36:53Z</time>
      </trkpt>
      <trkpt lat="49.21747" lon="-0.35298">
        <ele>45.8</ele>
        <time>2023-05-04T08:36:54Z</time>
      </trkpt>
      <trkpt lat="49.21745" lon="-0.3529">
        <ele>45.8</ele>
        <time>2023-05-04T08:36:55Z</time>
      </trkpt>
      <trkpt lat="49.21743" lon="-0.35281">
        <ele>45.8</ele>
        <time>2023-05-04T08:36:56Z</time>
      </trkpt>
      <trkpt lat="49.21742" lon="-0.35272">
        <ele>45.8</ele>
        <time>2023-05-04T08:36:57Z</time>
      </trkpt>
      <trkpt lat="49.2174" lon="-0.35263">
        <ele>45.8</ele>
        <time>2023-05-04T08:36:58Z</time>
      </trkpt>
      <trkpt lat="49.21739" lon="-0.35255">
        <ele>46</ele>
        <time>2023-05-04T08:36:59Z</time>
      </trkpt>
      <trkpt lat="49.21737" lon="-0.35246">
        <ele>46</ele>
        <time>2023-05-04T08:37:00Z</time>
      </trkpt>
      <trkpt lat="49.21736" lon="-0.35237">
        <ele>46.2</ele>
        <time>2023-05-04T08:37:01Z</time>
      </trkpt>
      <trkpt lat="49.21734" lon="-0.35229">
        <ele>46.6</ele>
        <time>2023-05-04T08:37:02Z</time>
      </trkpt>
      <trkpt lat="49.21732" lon="-0.3522">
        <ele>46.8</ele>
        <time>2023-05-04T08:37:03Z</time>
      </trkpt>
      <trkpt lat="49.21729" lon="-0.35211">
        <ele>47</ele>
        <time>2023-05-04T08:37:04Z</time>
      </trkpt>
      <trkpt lat="49.21727" lon="-0.35202">
        <ele>47.2</ele>
        <time>2023-05-04T08:37:05Z</time>
      </trkpt>
      <trkpt lat="49.21725" lon="-0.35193">
        <ele>47.6</ele>
        <time>2023-05-04T08:37:06Z</time>
      </trkpt>
      <trkpt lat="49.21723" lon="-0.35185">
        <ele>47.8</ele>
        <time>2023-05-04T08:37:07Z</time>
      </trkpt>
      <trkpt lat="49.21722" lon="-0.35176">
        <ele>48</ele>
        <time>2023-05-04T08:37:08Z</time>
      </trkpt>
      <trkpt lat="49.2172" lon="-0.35167">
        <ele>48</ele>
        <time>2023-05-04T08:37:09Z</time>
      </trkpt>
      <trkpt lat="49.21718" lon="-0.35159">
        <ele>48.6</ele>
        <time>2023-05-04T08:37:10Z</time>
      </trkpt>
      <trkpt lat="49.21718" lon="-0.3515">
        <ele>48.8</ele>
        <time>2023-05-04T08:37:11Z</time>
      </trkpt>
      <trkpt lat="49.2172" lon="-0.35142">
        <ele>49</ele>
        <time>2023-05-04T08:37:12Z</time>
      </trkpt>
      <trkpt lat="49.21723" lon="-0.35134">
        <ele>49.4</ele>
        <time>2023-05-04T08:37:13Z</time>
      </trkpt>
      <trkpt lat="49.21726" lon="-0.35127">
        <ele>49.8</ele>
        <time>2023-05-04T08:37:14Z</time>
      </trkpt>
      <trkpt lat="49.21728" lon="-0.35121">
        <ele>50</ele>
        <time>2023-05-04T08:37:15Z</time>
      </trkpt>
      <trkpt lat="49.21729" lon="-0.35115">
        <ele>50.2</ele>
        <time>2023-05-04T08:37:16Z</time>
      </trkpt>
      <trkpt lat="49.2173" lon="-0.3511">
        <ele>50.6</ele>
        <time>2023-05-04T08:37:17Z</time>
      </trkpt>
      <trkpt lat="49.21733" lon="-0.35105">
        <ele>50.8</ele>
        <time>2023-05-04T08:37:18Z</time>
      </trkpt>
      <trkpt lat="49.21736" lon="-0.35103">
        <ele>50.8</ele>
        <time>2023-05-04T08:37:19Z</time>
      </trkpt>
      <trkpt lat="49.21741" lon="-0.35102">
        <ele>50.8</ele>
        <time>2023-05-04T08:37:20Z</time>
      </trkpt>
      <trkpt lat="49.21747" lon="-0.35103">
        <ele>50.8</ele>
        <time>2023-05-04T08:37:21Z</time>
      </trkpt>
      <trkpt lat="49.21753" lon="-0.35105">
        <ele>50.6</ele>
        <time>2023-05-04T08:37:22Z</time>
      </trkpt>
      <trkpt lat="49.2176" lon="-0.35105">
        <ele>50.2</ele>
        <time>2023-05-04T08:37:23Z</time>
      </trkpt>
      <trkpt lat="49.21766" lon="-0.35106">
        <ele>49.8</ele>
        <time>2023-05-04T08:37:24Z</time>
      </trkpt>
      <trkpt lat="49.21773" lon="-0.35106">
        <ele>49.4</ele>
        <time>2023-05-04T08:37:25Z</time>
      </trkpt>
      <trkpt lat="49.21781" lon="-0.35107">
        <ele>49</ele>
        <time>2023-05-04T08:37:26Z</time>
      </trkpt>
      <trkpt lat="49.21788" lon="-0.35108">
        <ele>48.6</ele>
        <time>2023-05-04T08:37:27Z</time>
      </trkpt>
      <trkpt lat="49.21795" lon="-0.35109">
        <ele>48</ele>
        <time>2023-05-04T08:37:28Z</time>
      </trkpt>
      <trkpt lat="49.21803" lon="-0.35109">
        <ele>47.8</ele>
        <time>2023-05-04T08:37:29Z</time>
      </trkpt>
      <trkpt lat="49.21811" lon="-0.35108">
        <ele>47.2</ele>
        <time>2023-05-04T08:37:30Z</time>
      </trkpt>
      <trkpt lat="49.21819" lon="-0.35105">
        <ele>47</ele>
        <time>2023-05-04T08:37:31Z</time>
      </trkpt>
      <trkpt lat="49.21827" lon="-0.35102">
        <ele>46.8</ele>
        <time>2023-05-04T08:37:32Z</time>
      </trkpt>
      <trkpt lat="49.21834" lon="-0.35097">
        <ele>46.6</ele>
        <time>2023-05-04T08:37:33Z</time>
      </trkpt>
      <trkpt lat="49.21842" lon="-0.35091">
        <ele>46.2</ele>
        <time>2023-05-04T08:37:34Z</time>
      </trkpt>
      <trkpt lat="49.21849" lon="-0.35086">
        <ele>46</ele>
        <time>2023-05-04T08:37:35Z</time>
      </trkpt>
      <trkpt lat="49.21857" lon="-0.3508">
        <ele>45.8</ele>
        <time>2023-05-04T08:37:36Z</time>
      </trkpt>
      <trkpt lat="49.21864" lon="-0.35075">
        <ele>45.6</ele>
        <time>2023-05-04T08:37:37Z</time>
      </trkpt>
      <trkpt lat="49.21873" lon="-0.35071">
        <ele>45.6</ele>
        <time>2023-05-04T08:37:38Z</time>
      </trkpt>
      <trkpt lat="49.21881" lon="-0.35068">
        <ele>45.2</ele>
        <time>2023-05-04T08:37:39Z</time>
      </trkpt>
      <trkpt lat="49.21889" lon="-0.35064">
        <ele>45.2</ele>
        <time>2023-05-04T08:37:40Z</time>
      </trkpt>
      <trkpt lat="49.21898" lon="-0.3506">
        <ele>45</ele>
        <time>2023-05-04T08:37:41Z</time>
      </trkpt>
      <trkpt lat="49.21906" lon="-0.35057">
        <ele>45</ele>
        <time>2023-05-04T08:37:42Z</time>
      </trkpt>
      <trkpt lat="49.21915" lon="-0.35054">
        <ele>45</ele>
        <time>2023-05-04T08:37:43Z</time>
      </trkpt>
      <trkpt lat="49.21923" lon="-0.35051">
        <ele>44.8</ele>
        <time>2023-05-04T08:37:44Z</time>
      </trkpt>
      <trkpt lat="49.21931" lon="-0.35048">
        <ele>44.6</ele>
        <time>2023-05-04T08:37:45Z</time>
      </trkpt>
      <trkpt lat="49.2194" lon="-0.35045">
        <ele>44.4</ele>
        <time>2023-05-04T08:37:46Z</time>
      </trkpt>
      <trkpt lat="49.21948" lon="-0.35041">
        <ele>44.2</ele>
        <time>2023-05-04T08:37:47Z</time>
      </trkpt>
      <trkpt lat="49.21956" lon="-0.35037">
        <ele>44</ele>
        <time>2023-05-04T08:37:48Z</time>
      </trkpt>
      <trkpt lat="49.21964" lon="-0.35032">
        <ele>43.8</ele>
        <time>2023-05-04T08:37:49Z</time>
      </trkpt>
      <trkpt lat="49.21971" lon="-0.35026">
        <ele>43.8</ele>
        <time>2023-05-04T08:37:50Z</time>
      </trkpt>
      <trkpt lat="49.21978" lon="-0.35019">
        <ele>43.8</ele>
        <time>2023-05-04T08:37:51Z</time>
      </trkpt>
      <trkpt lat="49.21984" lon="-0.35011">
        <ele>43.8</ele>
        <time>2023-05-04T08:37:52Z</time>
      </trkpt>
      <trkpt lat="49.21989" lon="-0.35002">
        <ele>43.8</ele>
        <time>2023-05-04T08:37:53Z</time>
      </trkpt>
      <trkpt lat="49.21995" lon="-0.34992">
        <ele>43.6</ele>
        <time>2023-05-04T08:37:54Z</time>
      </trkpt>
      <trkpt lat="49.22" lon="-0.34982">
        <ele>43.4</ele>
        <time>2023-05-04T08:37:55Z</time>
      </trkpt>
      <trkpt lat="49.22004" lon="-0.34972">
        <ele>43.4</ele>
        <time>2023-05-04T08:37:56Z</time>
      </trkpt>
      <trkpt lat="49.22007" lon="-0.34961">
        <ele>43.4</ele>
        <time>2023-05-04T08:37:57Z</time>
      </trkpt>
      <trkpt lat="49.22009" lon="-0.34949">
        <ele>43.6</ele>
        <time>2023-05-04T08:37:58Z</time>
      </trkpt>
      <trkpt lat="49.2201" lon="-0.34937">
        <ele>43.8</ele>
        <time>2023-05-04T08:37:59Z</time>
      </trkpt>
      <trkpt lat="49.2201" lon="-0.34925">
        <ele>44.2</ele>
        <time>2023-05-04T08:38:00Z</time>
      </trkpt>
      <trkpt lat="49.22008" lon="-0.34914">
        <ele>44.6</ele>
        <time>2023-05-04T08:38:01Z</time>
      </trkpt>
      <trkpt lat="49.22006" lon="-0.34903">
        <ele>44.6</ele>
        <time>2023-05-04T08:38:02Z</time>
      </trkpt>
      <trkpt lat="49.22003" lon="-0.34893">
        <ele>44.8</ele>
        <time>2023-05-04T08:38:03Z</time>
      </trkpt>
      <trkpt lat="49.22" lon="-0.34883">
        <ele>45</ele>
        <time>2023-05-04T08:38:04Z</time>
      </trkpt>
      <trkpt lat="49.21998" lon="-0.34874">
        <ele>45.2</ele>
        <time>2023-05-04T08:38:05Z</time>
      </trkpt>
      <trkpt lat="49.21995" lon="-0.34864">
        <ele>45.4</ele>
        <time>2023-05-04T08:38:06Z</time>
      </trkpt>
      <trkpt lat="49.21993" lon="-0.34855">
        <ele>45.6</ele>
        <time>2023-05-04T08:38:07Z</time>
      </trkpt>
      <trkpt lat="49.21992" lon="-0.34846">
        <ele>45.8</ele>
        <time>2023-05-04T08:38:08Z</time>
      </trkpt>
      <trkpt lat="49.2199" lon="-0.34837">
        <ele>46</ele>
        <time>2023-05-04T08:38:09Z</time>
      </trkpt>
      <trkpt lat="49.21988" lon="-0.34829">
        <ele>46</ele>
        <time>2023-05-04T08:38:10Z</time>
      </trkpt>
      <trkpt lat="49.21987" lon="-0.3482">
        <ele>46.4</ele>
        <time>2023-05-04T08:38:11Z</time>
      </trkpt>
      <trkpt lat="49.21986" lon="-0.34811">
        <ele>46.6</ele>
        <time>2023-05-04T08:38:12Z</time>
      </trkpt>
      <trkpt lat="49.21985" lon="-0.34802">
        <ele>47</ele>
        <time>2023-05-04T08:38:13Z</time>
      </trkpt>
      <trkpt lat="49.21984" lon="-0.34793">
        <ele>47</ele>
        <time>2023-05-04T08:38:14Z</time>
      </trkpt>
      <trkpt lat="49.21984" lon="-0.34784">
        <ele>47.2</ele>
        <time>2023-05-04T08:38:15Z</time>
      </trkpt>
      <trkpt lat="49.21983" lon="-0.34775">
        <ele>47.6</ele>
        <time>2023-05-04T08:38:16Z</time>
      </trkpt>
      <trkpt lat="49.21983" lon="-0.34766">
        <ele>47.8</ele>
        <time>2023-05-04T08:38:17Z</time>
      </trkpt>
      <trkpt lat="49.21983" lon="-0.34758">
        <ele>47.8</ele>
        <time>2023-05-04T08:38:18Z</time>
      </trkpt>
      <trkpt lat="49.21984" lon="-0.34749">
        <ele>48</ele>
        <time>2023-05-04T08:38:19Z</time>
      </trkpt>
      <trkpt lat="49.21984" lon="-0.3474">
        <ele>48</ele>
        <time>2023-05-04T08:38:20Z</time>
      </trkpt>
      <trkpt lat="49.21985" lon="-0.34731">
        <ele>48</ele>
        <time>2023-05-04T08:38:21Z</time>
      </trkpt>
      <trkpt lat="49.21985" lon="-0.34722">
        <ele>48</ele>
        <time>2023-05-04T08:38:22Z</time>
      </trkpt>
      <trkpt lat="49.21986" lon="-0.34714">
        <ele>48</ele>
        <time>2023-05-04T08:38:23Z</time>
      </trkpt>
      <trkpt lat="49.21987" lon="-0.34705">
        <ele>48</ele>
        <time>2023-05-04T08:38:24Z</time>
      </trkpt>
      <trkpt lat="49.21988" lon="-0.34696">
        <ele>48.2</ele>
        <time>2023-05-04T08:38:25Z</time>
      </trkpt>
      <trkpt lat="49.2199" lon="-0.34688">
        <ele>48.2</ele>
        <time>2023-05-04T08:38:26Z</time>
      </trkpt>
      <trkpt lat="49.21991" lon="-0.34679">
        <ele>48.2</ele>
        <time>2023-05-04T08:38:27Z</time>
      </trkpt>
      <trkpt lat="49.21993" lon="-0.34671">
        <ele>48.2</ele>
        <time>2023-05-04T08:38:28Z</time>
      </trkpt>
      <trkpt lat="49.21995" lon="-0.34663">
        <ele>48.2</ele>
        <time>2023-05-04T08:38:29Z</time>
      </trkpt>
      <trkpt lat="49.21997" lon="-0.34655">
        <ele>48</ele>
        <time>2023-05-04T08:38:30Z</time>
      </trkpt>
      <trkpt lat="49.22" lon="-0.34646">
        <ele>48</ele>
        <time>2023-05-04T08:38:31Z</time>
      </trkpt>
      <trkpt lat="49.22002" lon="-0.34638">
        <ele>47.8</ele>
        <time>2023-05-04T08:38:32Z</time>
      </trkpt>
      <trkpt lat="49.22005" lon="-0.3463">
        <ele>47.8</ele>
        <time>2023-05-04T08:38:33Z</time>
      </trkpt>
      <trkpt lat="49.22008" lon="-0.34622">
        <ele>47.6</ele>
        <time>2023-05-04T08:38:34Z</time>
      </trkpt>
      <trkpt lat="49.22011" lon="-0.34614">
        <ele>47.2</ele>
        <time>2023-05-04T08:38:35Z</time>
      </trkpt>
      <trkpt lat="49.22015" lon="-0.34606">
        <ele>47</ele>
        <time>2023-05-04T08:38:36Z</time>
      </trkpt>
      <trkpt lat="49.22018" lon="-0.34598">
        <ele>47</ele>
        <time>2023-05-04T08:38:37Z</time>
      </trkpt>
      <trkpt lat="49.22021" lon="-0.3459">
        <ele>46.8</ele>
        <time>2023-05-04T08:38:38Z</time>
      </trkpt>
      <trkpt lat="49.22024" lon="-0.34582">
        <ele>46.6</ele>
        <time>2023-05-04T08:38:39Z</time>
      </trkpt>
      <trkpt lat="49.22028" lon="-0.34573">
        <ele>46.2</ele>
        <time>2023-05-04T08:38:40Z</time>
      </trkpt>
      <trkpt lat="49.22031" lon="-0.34564">
        <ele>46</ele>
        <time>2023-05-04T08:38:41Z</time>
      </trkpt>
      <trkpt lat="49.22034" lon="-0.34555">
        <ele>45.6</ele>
        <time>2023-05-04T08:38:42Z</time>
      </trkpt>
      <trkpt lat="49.22036" lon="-0.34546">
        <ele>45.2</ele>
        <time>2023-05-04T08:38:43Z</time>
      </trkpt>
      <trkpt lat="49.22038" lon="-0.34536">
        <ele>45</ele>
        <time>2023-05-04T08:38:44Z</time>
      </trkpt>
      <trkpt lat="49.22041" lon="-0.34526">
        <ele>45</ele>
        <time>2023-05-04T08:38:45Z</time>
      </trkpt>
      <trkpt lat="49.22042" lon="-0.34516">
        <ele>44.8</ele>
        <time>2023-05-04T08:38:46Z</time>
      </trkpt>
      <trkpt lat="49.22044" lon="-0.34506">
        <ele>44.6</ele>
        <time>2023-05-04T08:38:47Z</time>
      </trkpt>
      <trkpt lat="49.22045" lon="-0.34496">
        <ele>44.4</ele>
        <time>2023-05-04T08:38:48Z</time>
      </trkpt>
      <trkpt lat="49.22046" lon="-0.34486">
        <ele>44.4</ele>
        <time>2023-05-04T08:38:49Z</time>
      </trkpt>
      <trkpt lat="49.22047" lon="-0.34475">
        <ele>44.4</ele>
        <time>2023-05-04T08:38:50Z</time>
      </trkpt>
      <trkpt lat="49.22047" lon="-0.34465">
        <ele>44.6</ele>
        <time>2023-05-04T08:38:51Z</time>
      </trkpt>
      <trkpt lat="49.22047" lon="-0.34455">
        <ele>44.6</ele>
        <time>2023-05-04T08:38:52Z</time>
      </trkpt>
      <trkpt lat="49.22047" lon="-0.34445">
        <ele>44.6</ele>
        <time>2023-05-04T08:38:53Z</time>
      </trkpt>
      <trkpt lat="49.22047" lon="-0.34436">
        <ele>44.8</ele>
        <time>2023-05-04T08:38:54Z</time>
      </trkpt>
      <trkpt lat="49.22046" lon="-0.34426">
        <ele>44.8</ele>
        <time>2023-05-04T08:38:55Z</time>
      </trkpt>
      <trkpt lat="49.22045" lon="-0.34416">
        <ele>44.8</ele>
        <time>2023-05-04T08:38:56Z</time>
      </trkpt>
      <trkpt lat="49.22044" lon="-0.34407">
        <ele>44.8</ele>
        <time>2023-05-04T08:38:57Z</time>
      </trkpt>
      <trkpt lat="49.22043" lon="-0.34398">
        <ele>44.8</ele>
        <time>2023-05-04T08:38:58Z</time>
      </trkpt>
      <trkpt lat="49.22041" lon="-0.34388">
        <ele>45</ele>
        <time>2023-05-04T08:38:59Z</time>
      </trkpt>
      <trkpt lat="49.22039" lon="-0.34379">
        <ele>45</ele>
        <time>2023-05-04T08:39:00Z</time>
      </trkpt>
      <trkpt lat="49.22038" lon="-0.3437">
        <ele>45</ele>
        <time>2023-05-04T08:39:01Z</time>
      </trkpt>
      <trkpt lat="49.22036" lon="-0.34362">
        <ele>45</ele>
        <time>2023-05-04T08:39:02Z</time>
      </trkpt>
      <trkpt lat="49.22034" lon="-0.34353">
        <ele>45</ele>
        <time>2023-05-04T08:39:03Z</time>
      </trkpt>
      <trkpt lat="49.22032" lon="-0.34344">
        <ele>45</ele>
        <time>2023-05-04T08:39:04Z</time>
      </trkpt>
      <trkpt lat="49.2203" lon="-0.34336">
        <ele>45.2</ele>
        <time>2023-05-04T08:39:05Z</time>
      </trkpt>
      <trkpt lat="49.22028" lon="-0.34327">
        <ele>45.2</ele>
        <time>2023-05-04T08:39:06Z</time>
      </trkpt>
      <trkpt lat="49.22027" lon="-0.34319">
        <ele>45.4</ele>
        <time>2023-05-04T08:39:07Z</time>
      </trkpt>
      <trkpt lat="49.22025" lon="-0.3431">
        <ele>45.6</ele>
        <time>2023-05-04T08:39:08Z</time>
      </trkpt>
      <trkpt lat="49.22024" lon="-0.34302">
        <ele>45.6</ele>
        <time>2023-05-04T08:39:09Z</time>
      </trkpt>
      <trkpt lat="49.22022" lon="-0.34293">
        <ele>45.8</ele>
        <time>2023-05-04T08:39:10Z</time>
      </trkpt>
      <trkpt lat="49.22021" lon="-0.34284">
        <ele>45.8</ele>
        <time>2023-05-04T08:39:11Z</time>
      </trkpt>
      <trkpt lat="49.22021" lon="-0.34276">
        <ele>45.8</ele>
        <time>2023-05-04T08:39:12Z</time>
      </trkpt>
      <trkpt lat="49.2202" lon="-0.34267">
        <ele>45.8</ele>
        <time>2023-05-04T08:39:13Z</time>
      </trkpt>
      <trkpt lat="49.2202" lon="-0.34258">
        <ele>45.8</ele>
        <time>2023-05-04T08:39:14Z</time>
      </trkpt>
      <trkpt lat="49.2202" lon="-0.34249">
        <ele>45.8</ele>
        <time>2023-05-04T08:39:15Z</time>
      </trkpt>
      <trkpt lat="49.2202" lon="-0.3424">
        <ele>45.8</ele>
        <time>2023-05-04T08:39:16Z</time>
      </trkpt>
      <trkpt lat="49.2202" lon="-0.34231">
        <ele>45.8</ele>
        <time>2023-05-04T08:39:17Z</time>
      </trkpt>
      <trkpt lat="49.22021" lon="-0.34222">
        <ele>45.6</ele>
        <time>2023-05-04T08:39:18Z</time>
      </trkpt>
      <trkpt lat="49.22021" lon="-0.34213">
        <ele>45.6</ele>
        <time>2023-05-04T08:39:19Z</time>
      </trkpt>
      <trkpt lat="49.22022" lon="-0.34203">
        <ele>45.4</ele>
        <time>2023-05-04T08:39:20Z</time>
      </trkpt>
      <trkpt lat="49.22023" lon="-0.34194">
        <ele>45.2</ele>
        <time>2023-05-04T08:39:21Z</time>
      </trkpt>
      <trkpt lat="49.22024" lon="-0.34185">
        <ele>45.2</ele>
        <time>2023-05-04T08:39:22Z</time>
      </trkpt>
      <trkpt lat="49.22026" lon="-0.34176">
        <ele>45</ele>
        <time>2023-05-04T08:39:23Z</time>
      </trkpt>
      <trkpt lat="49.22027" lon="-0.34166">
        <ele>45</ele>
        <time>2023-05-04T08:39:24Z</time>
      </trkpt>
      <trkpt lat="49.22029" lon="-0.34157">
        <ele>45</ele>
        <time>2023-05-04T08:39:25Z</time>
      </trkpt>
      <trkpt lat="49.22031" lon="-0.34148">
        <ele>45</ele>
        <time>2023-05-04T08:39:26Z</time>
      </trkpt>
      <trkpt lat="49.22032" lon="-0.34138">
        <ele>45</ele>
        <time>2023-05-04T08:39:27Z</time>
      </trkpt>
      <trkpt lat="49.22034" lon="-0.34129">
        <ele>45</ele>
        <time>2023-05-04T08:39:28Z</time>
      </trkpt>
      <trkpt lat="49.22036" lon="-0.3412">
        <ele>44.8</ele>
        <time>2023-05-04T08:39:29Z</time>
      </trkpt>
      <trkpt lat="49.22037" lon="-0.3411">
        <ele>44.8</ele>
        <time>2023-05-04T08:39:30Z</time>
      </trkpt>
      <trkpt lat="49.22039" lon="-0.341">
        <ele>44.6</ele>
        <time>2023-05-04T08:39:31Z</time>
      </trkpt>
      <trkpt lat="49.22041" lon="-0.34091">
        <ele>44.6</ele>
        <time>2023-05-04T08:39:32Z</time>
      </trkpt>
      <trkpt lat="49.22043" lon="-0.34081">
        <ele>44.4</ele>
        <time>2023-05-04T08:39:33Z</time>
      </trkpt>
      <trkpt lat="49.22044" lon="-0.34071">
        <ele>44.2</ele>
        <time>2023-05-04T08:39:34Z</time>
      </trkpt>
      <trkpt lat="49.22045" lon="-0.34061">
        <ele>44</ele>
        <time>2023-05-04T08:39:35Z</time>
      </trkpt>
      <trkpt lat="49.22046" lon="-0.34051">
        <ele>43.8</ele>
        <time>2023-05-04T08:39:36Z</time>
      </trkpt>
      <trkpt lat="49.22047" lon="-0.34041">
        <ele>43.8</ele>
        <time>2023-05-04T08:39:37Z</time>
      </trkpt>
      <trkpt lat="49.22047" lon="-0.34032">
        <ele>43.6</ele>
        <time>2023-05-04T08:39:38Z</time>
      </trkpt>
      <trkpt lat="49.22046" lon="-0.34022">
        <ele>43.6</ele>
        <time>2023-05-04T08:39:39Z</time>
      </trkpt>
      <trkpt lat="49.22044" lon="-0.34012">
        <ele>43.6</ele>
        <time>2023-05-04T08:39:40Z</time>
      </trkpt>
      <trkpt lat="49.22042" lon="-0.34003">
        <ele>43.6</ele>
        <time>2023-05-04T08:39:41Z</time>
      </trkpt>
      <trkpt lat="49.22039" lon="-0.33994">
        <ele>43.6</ele>
        <time>2023-05-04T08:39:42Z</time>
      </trkpt>
      <trkpt lat="49.22036" lon="-0.33985">
        <ele>43.6</ele>
        <time>2023-05-04T08:39:43Z</time>
      </trkpt>
      <trkpt lat="49.22032" lon="-0.33977">
        <ele>43.8</ele>
        <time>2023-05-04T08:39:44Z</time>
      </trkpt>
      <trkpt lat="49.22027" lon="-0.3397">
        <ele>44</ele>
        <time>2023-05-04T08:39:45Z</time>
      </trkpt>
      <trkpt lat="49.22022" lon="-0.33964">
        <ele>44</ele>
        <time>2023-05-04T08:39:46Z</time>
      </trkpt>
      <trkpt lat="49.22016" lon="-0.33958">
        <ele>44.2</ele>
        <time>2023-05-04T08:39:47Z</time>
      </trkpt>
      <trkpt lat="49.2201" lon="-0.33954">
        <ele>44.4</ele>
        <time>2023-05-04T08:39:48Z</time>
      </trkpt>
      <trkpt lat="49.22004" lon="-0.3395">
        <ele>44.6</ele>
        <time>2023-05-04T08:39:49Z</time>
      </trkpt>
      <trkpt lat="49.21998" lon="-0.33948">
        <ele>44.8</ele>
        <time>2023-05-04T08:39:50Z</time>
      </trkpt>
      <trkpt lat="49.21991" lon="-0.33946">
        <ele>45</ele>
        <time>2023-05-04T08:39:51Z</time>
      </trkpt>
      <trkpt lat="49.21985" lon="-0.33946">
        <ele>45</ele>
        <time>2023-05-04T08:39:52Z</time>
      </trkpt>
      <trkpt lat="49.21979" lon="-0.33946">
        <ele>45</ele>
        <time>2023-05-04T08:39:53Z</time>
      </trkpt>
      <trkpt lat="49.21973" lon="-0.33947">
        <ele>45.2</ele>
        <time>2023-05-04T08:39:54Z</time>
      </trkpt>
      <trkpt lat="49.21967" lon="-0.33949">
        <ele>45.4</ele>
        <time>2023-05-04T08:39:55Z</time>
      </trkpt>
      <trkpt lat="49.21962" lon="-0.33951">
        <ele>45.6</ele>
        <time>2023-05-04T08:39:56Z</time>
      </trkpt>
      <trkpt lat="49.21957" lon="-0.33954">
        <ele>45.8</ele>
        <time>2023-05-04T08:39:57Z</time>
      </trkpt>
      <trkpt lat="49.21952" lon="-0.33957">
        <ele>46</ele>
        <time>2023-05-04T08:39:58Z</time>
      </trkpt>
      <trkpt lat="49.21947" lon="-0.33961">
        <ele>46</ele>
        <time>2023-05-04T08:39:59Z</time>
      </trkpt>
      <trkpt lat="49.21942" lon="-0.33964">
        <ele>46</ele>
        <time>2023-05-04T08:40:00Z</time>
      </trkpt>
      <trkpt lat="49.21937" lon="-0.33968">
        <ele>46.2</ele>
        <time>2023-05-04T08:40:01Z</time>
      </trkpt>
      <trkpt lat="49.21933" lon="-0.33971">
        <ele>46.4</ele>
        <time>2023-05-04T08:40:02Z</time>
      </trkpt>
      <trkpt lat="49.21928" lon="-0.33974">
        <ele>46.6</ele>
        <time>2023-05-04T08:40:03Z</time>
      </trkpt>
      <trkpt lat="49.21924" lon="-0.33978">
        <ele>46.6</ele>
        <time>2023-05-04T08:40:04Z</time>
      </trkpt>
      <trkpt lat="49.2192" lon="-0.33981">
        <ele>46.8</ele>
        <time>2023-05-04T08:40:05Z</time>
      </trkpt>
      <trkpt lat="49.21916" lon="-0.33984">
        <ele>47</ele>
        <time>2023-05-04T08:40:06Z</time>
      </trkpt>
      <trkpt lat="49.21911" lon="-0.33987">
        <ele>47</ele>
        <time>2023-05-04T08:40:07Z</time>
      </trkpt>
      <trkpt lat="49.21907" lon="-0.33991">
        <ele>47.4</ele>
        <time>2023-05-04T08:40:08Z</time>
      </trkpt>
      <trkpt lat="49.21903" lon="-0.33994">
        <ele>47.6</ele>
        <time>2023-05-04T08:40:09Z</time>
      </trkpt>
      <trkpt lat="49.21899" lon="-0.33997">
        <ele>48</ele>
        <time>2023-05-04T08:40:10Z</time>
      </trkpt>
      <trkpt lat="49.21894" lon="-0.34">
        <ele>48</ele>
        <time>2023-05-04T08:40:11Z</time>
      </trkpt>
      <trkpt lat="49.2189" lon="-0.34003">
        <ele>48.2</ele>
        <time>2023-05-04T08:40:12Z</time>
      </trkpt>
      <trkpt lat="49.21886" lon="-0.34006">
        <ele>48.6</ele>
        <time>2023-05-04T08:40:13Z</time>
      </trkpt>
      <trkpt lat="49.21882" lon="-0.34009">
        <ele>48.8</ele>
        <time>2023-05-04T08:40:14Z</time>
      </trkpt>
      <trkpt lat="49.21878" lon="-0.34012">
        <ele>49</ele>
        <time>2023-05-04T08:40:15Z</time>
      </trkpt>
      <trkpt lat="49.21874" lon="-0.34015">
        <ele>49.2</ele>
        <time>2023-05-04T08:40:16Z</time>
      </trkpt>
      <trkpt lat="49.2187" lon="-0.34018">
        <ele>49.6</ele>
        <time>2023-05-04T08:40:17Z</time>
      </trkpt>
      <trkpt lat="49.21867" lon="-0.34021">
        <ele>49.8</ele>
        <time>2023-05-04T08:40:18Z</time>
      </trkpt>
      <trkpt lat="49.21863" lon="-0.34024">
        <ele>50</ele>
        <time>2023-05-04T08:40:19Z</time>
      </trkpt>
      <trkpt lat="49.21859" lon="-0.34027">
        <ele>50.2</ele>
        <time>2023-05-04T08:40:20Z</time>
      </trkpt>
      <trkpt lat="49.21855" lon="-0.3403">
        <ele>50.4</ele>
        <time>2023-05-04T08:40:21Z</time>
      </trkpt>
      <trkpt lat="49.21851" lon="-0.34032">
        <ele>50.6</ele>
        <time>2023-05-04T08:40:22Z</time>
      </trkpt>
      <trkpt lat="49.21847" lon="-0.34035">
        <ele>51</ele>
        <time>2023-05-04T08:40:23Z</time>
      </trkpt>
      <trkpt lat="49.21842" lon="-0.34038">
        <ele>51</ele>
        <time>2023-05-04T08:40:24Z</time>
      </trkpt>
      <trkpt lat="49.21838" lon="-0.34041">
        <ele>51.2</ele>
        <time>2023-05-04T08:40:25Z</time>
      </trkpt>
      <trkpt lat="49.21834" lon="-0.34044">
        <ele>51.6</ele>
        <time>2023-05-04T08:40:26Z</time>
      </trkpt>
      <trkpt lat="49.21831" lon="-0.34047">
        <ele>51.6</ele>
        <time>2023-05-04T08:40:27Z</time>
      </trkpt>
      <trkpt lat="49.21827" lon="-0.3405">
        <ele>51.8</ele>
        <time>2023-05-04T08:40:28Z</time>
      </trkpt>
      <trkpt lat="49.21823" lon="-0.34053">
        <ele>52</ele>
        <time>2023-05-04T08:40:29Z</time>
      </trkpt>
      <trkpt lat="49.21819" lon="-0.34056">
        <ele>52</ele>
        <time>2023-05-04T08:40:30Z</time>
      </trkpt>
      <trkpt lat="49.21815" lon="-0.34059">
        <ele>52</ele>
        <time>2023-05-04T08:40:31Z</time>
      </trkpt>
      <trkpt lat="49.21811" lon="-0.34062">
        <ele>52.2</ele>
        <time>2023-05-04T08:40:32Z</time>
      </trkpt>
      <trkpt lat="49.21807" lon="-0.34065">
        <ele>52.2</ele>
        <time>2023-05-04T08:40:33Z</time>
      </trkpt>
      <trkpt lat="49.21803" lon="-0.34067">
        <ele>52.4</ele>
        <time>2023-05-04T08:40:34Z</time>
      </trkpt>
      <trkpt lat="49.21799" lon="-0.3407">
        <ele>52.4</ele>
        <time>2023-05-04T08:40:35Z</time>
      </trkpt>
      <trkpt lat="49.21795" lon="-0.34072">
        <ele>52.6</ele>
        <time>2023-05-04T08:40:36Z</time>
      </trkpt>
      <trkpt lat="49.21791" lon="-0.34074">
        <ele>52.6</ele>
        <time>2023-05-04T08:40:37Z</time>
      </trkpt>
      <trkpt lat="49.21787" lon="-0.34076">
        <ele>52.6</ele>
        <time>2023-05-04T08:40:38Z</time>
      </trkpt>
      <trkpt lat="49.21783" lon="-0.34078">
        <ele>52.8</ele>
        <time>2023-05-04T08:40:39Z</time>
      </trkpt>
      <trkpt lat="49.21778" lon="-0.3408">
        <ele>52.8</ele>
        <time>2023-05-04T08:40:40Z</time>
      </trkpt>
      <trkpt lat="49.21774" lon="-0.34082">
        <ele>52.8</ele>
        <time>2023-05-04T08:40:41Z</time>
      </trkpt>
      <trkpt lat="49.2177" lon="-0.34084">
        <ele>52.8</ele>
        <time>2023-05-04T08:40:42Z</time>
      </trkpt>
      <trkpt lat="49.21766" lon="-0.34085">
        <ele>52.8</ele>
        <time>2023-05-04T08:40:43Z</time>
      </trkpt>
      <trkpt lat="49.21761" lon="-0.34086">
        <ele>53</ele>
        <time>2023-05-04T08:40:44Z</time>
      </trkpt>
      <trkpt lat="49.21757" lon="-0.34087">
        <ele>53</ele>
        <time>2023-05-04T08:40:45Z</time>
      </trkpt>
      <trkpt lat="49.21753" lon="-0.34088">
        <ele>53</ele>
        <time>2023-05-04T08:40:46Z</time>
      </trkpt>
      <trkpt lat="49.21748" lon="-0.34089">
        <ele>53.2</ele>
        <time>2023-05-04T08:40:47Z</time>
      </trkpt>
      <trkpt lat="49.21744" lon="-0.34089">
        <ele>53.4</ele>
        <time>2023-05-04T08:40:48Z</time>
      </trkpt>
      <trkpt lat="49.21739" lon="-0.3409">
        <ele>53.6</ele>
        <time>2023-05-04T08:40:49Z</time>
      </trkpt>
      <trkpt lat="49.21735" lon="-0.3409">
        <ele>53.8</ele>
        <time>2023-05-04T08:40:50Z</time>
      </trkpt>
      <trkpt lat="49.2173" lon="-0.3409">
        <ele>54</ele>
        <time>2023-05-04T08:40:51Z</time>
      </trkpt>
      <trkpt lat="49.21725" lon="-0.34089">
        <ele>54.2</ele>
        <time>2023-05-04T08:40:52Z</time>
      </trkpt>
      <trkpt lat="49.21721" lon="-0.34089">
        <ele>54.6</ele>
        <time>2023-05-04T08:40:53Z</time>
      </trkpt>
      <trkpt lat="49.21716" lon="-0.34088">
        <ele>54.8</ele>
        <time>2023-05-04T08:40:54Z</time>
      </trkpt>
      <trkpt lat="49.21711" lon="-0.34087">
        <ele>55</ele>
        <time>2023-05-04T08:40:55Z</time>
      </trkpt>
      <trkpt lat="49.21707" lon="-0.34086">
        <ele>55</ele>
        <time>2023-05-04T08:40:56Z</time>
      </trkpt>
      <trkpt lat="49.21702" lon="-0.34084">
        <ele>55.2</ele>
        <time>2023-05-04T08:40:57Z</time>
      </trkpt>
      <trkpt lat="49.21698" lon="-0.34083">
        <ele>55.6</ele>
        <time>2023-05-04T08:40:58Z</time>
      </trkpt>
      <trkpt lat="49.21694" lon="-0.34081">
        <ele>55.8</ele>
        <time>2023-05-04T08:40:59Z</time>
      </trkpt>
      <trkpt lat="49.2169" lon="-0.34079">
        <ele>56</ele>
        <time>2023-05-04T08:41:00Z</time>
      </trkpt>
      <trkpt lat="49.21686" lon="-0.34077">
        <ele>56.2</ele>
        <time>2023-05-04T08:41:01Z</time>
      </trkpt>
      <trkpt lat="49.21682" lon="-0.34076">
        <ele>56.4</ele>
        <time>2023-05-04T08:41:02Z</time>
      </trkpt>
      <trkpt lat="49.21678" lon="-0.34074">
        <ele>56.6</ele>
        <time>2023-05-04T08:41:03Z</time>
      </trkpt>
      <trkpt lat="49.21674" lon="-0.34072">
        <ele>56.8</ele>
        <time>2023-05-04T08:41:04Z</time>
      </trkpt>
      <trkpt lat="49.2167" lon="-0.3407">
        <ele>57</ele>
        <time>2023-05-04T08:41:05Z</time>
      </trkpt>
      <trkpt lat="49.21666" lon="-0.34067">
        <ele>57.2</ele>
        <time>2023-05-04T08:41:06Z</time>
      </trkpt>
      <trkpt lat="49.21661" lon="-0.34065">
        <ele>57.6</ele>
        <time>2023-05-04T08:41:07Z</time>
      </trkpt>
      <trkpt lat="49.21657" lon="-0.34063">
        <ele>57.8</ele>
        <time>2023-05-04T08:41:08Z</time>
      </trkpt>
      <trkpt lat="49.21653" lon="-0.3406">
        <ele>58</ele>
        <time>2023-05-04T08:41:09Z</time>
      </trkpt>
      <trkpt lat="49.21648" lon="-0.34058">
        <ele>58.2</ele>
        <time>2023-05-04T08:41:10Z</time>
      </trkpt>
      <trkpt lat="49.21644" lon="-0.34056">
        <ele>58.6</ele>
        <time>2023-05-04T08:41:11Z</time>
      </trkpt>
      <trkpt lat="49.21639" lon="-0.34053">
        <ele>59</ele>
        <time>2023-05-04T08:41:12Z</time>
      </trkpt>
      <trkpt lat="49.21635" lon="-0.34051">
        <ele>59.2</ele>
        <time>2023-05-04T08:41:13Z</time>
      </trkpt>
      <trkpt lat="49.2163" lon="-0.34048">
        <ele>59.6</ele>
        <time>2023-05-04T08:41:14Z</time>
      </trkpt>
      <trkpt lat="49.21626" lon="-0.34046">
        <ele>59.8</ele>
        <time>2023-05-04T08:41:15Z</time>
      </trkpt>
      <trkpt lat="49.21622" lon="-0.34043">
        <ele>60.2</ele>
        <time>2023-05-04T08:41:16Z</time>
      </trkpt>
      <trkpt lat="49.21617" lon="-0.3404">
        <ele>60.6</ele>
        <time>2023-05-04T08:41:17Z</time>
      </trkpt>
      <trkpt lat="49.21613" lon="-0.34037">
        <ele>60.8</ele>
        <time>2023-05-04T08:41:18Z</time>
      </trkpt>
      <trkpt lat="49.2161" lon="-0.34033">
        <ele>61.2</ele>
        <time>2023-05-04T08:41:19Z</time>
      </trkpt>
      <trkpt lat="49.21606" lon="-0.34029">
        <ele>61.6</ele>
        <time>2023-05-04T08:41:20Z</time>
      </trkpt>
      <trkpt lat="49.21602" lon="-0.34025">
        <ele>62</ele>
        <time>2023-05-04T08:41:21Z</time>
      </trkpt>
      <trkpt lat="49.21599" lon="-0.34021">
        <ele>62.2</ele>
        <time>2023-05-04T08:41:22Z</time>
      </trkpt>
      <trkpt lat="49.21596" lon="-0.34017">
        <ele>62.6</ele>
        <time>2023-05-04T08:41:23Z</time>
      </trkpt>
      <trkpt lat="49.21593" lon="-0.34013">
        <ele>63</ele>
        <time>2023-05-04T08:41:24Z</time>
      </trkpt>
      <trkpt lat="49.2159" lon="-0.34009">
        <ele>63.2</ele>
        <time>2023-05-04T08:41:25Z</time>
      </trkpt>
      <trkpt lat="49.21588" lon="-0.34005">
        <ele>63.6</ele>
        <time>2023-05-04T08:41:26Z</time>
      </trkpt>
      <trkpt lat="49.21586" lon="-0.34002">
        <ele>63.8</ele>
        <time>2023-05-04T08:41:27Z</time>
      </trkpt>
      <trkpt lat="49.21585" lon="-0.33998">
        <ele>64</ele>
        <time>2023-05-04T08:41:28Z</time>
      </trkpt>
      <trkpt lat="49.21583" lon="-0.33995">
        <ele>64</ele>
        <time>2023-05-04T08:41:29Z</time>
      </trkpt>
      <trkpt lat="49.21582" lon="-0.33991">
        <ele>64</ele>
        <time>2023-05-04T08:41:30Z</time>
      </trkpt>
      <trkpt lat="49.21581" lon="-0.33989">
        <ele>64.2</ele>
        <time>2023-05-04T08:41:31Z</time>
      </trkpt>
      <trkpt lat="49.2158" lon="-0.33986">
        <ele>64.4</ele>
        <time>2023-05-04T08:41:32Z</time>
      </trkpt>
      <trkpt lat="49.21579" lon="-0.33983">
        <ele>64.4</ele>
        <time>2023-05-04T08:41:33Z</time>
      </trkpt>
      <trkpt lat="49.21578" lon="-0.33981">
        <ele>64.4</ele>
        <time>2023-05-04T08:41:34Z</time>
      </trkpt>
      <trkpt lat="49.21577" lon="-0.33978">
        <ele>64.6</ele>
        <time>2023-05-04T08:41:35Z</time>
      </trkpt>
      <trkpt lat="49.21576" lon="-0.33975">
        <ele>64.6</ele>
        <time>2023-05-04T08:41:36Z</time>
      </trkpt>
      <trkpt lat="49.21575" lon="-0.33971">
        <ele>64.6</ele>
        <time>2023-05-04T08:41:37Z</time>
      </trkpt>
      <trkpt lat="49.21573" lon="-0.33966">
        <ele>64.6</ele>
        <time>2023-05-04T08:41:38Z</time>
      </trkpt>
      <trkpt lat="49.21572" lon="-0.3396">
        <ele>64.8</ele>
        <time>2023-05-04T08:41:39Z</time>
      </trkpt>
      <trkpt lat="49.21571" lon="-0.33953">
        <ele>64.8</ele>
        <time>2023-05-04T08:41:40Z</time>
      </trkpt>
      <trkpt lat="49.21569" lon="-0.33946">
        <ele>65</ele>
        <time>2023-05-04T08:41:41Z</time>
      </trkpt>
      <trkpt lat="49.21568" lon="-0.33938">
        <ele>65</ele>
        <time>2023-05-04T08:41:42Z</time>
      </trkpt>
      <trkpt lat="49.21567" lon="-0.3393">
        <ele>65</ele>
        <time>2023-05-04T08:41:43Z</time>
      </trkpt>
      <trkpt lat="49.21565" lon="-0.33923">
        <ele>65</ele>
        <time>2023-05-04T08:41:44Z</time>
      </trkpt>
      <trkpt lat="49.21564" lon="-0.33916">
        <ele>65</ele>
        <time>2023-05-04T08:41:45Z</time>
      </trkpt>
      <trkpt lat="49.21563" lon="-0.33909">
        <ele>64.6</ele>
        <time>2023-05-04T08:41:46Z</time>
      </trkpt>
      <trkpt lat="49.21562" lon="-0.33902">
        <ele>64.6</ele>
        <time>2023-05-04T08:41:47Z</time>
      </trkpt>
      <trkpt lat="49.21561" lon="-0.33895">
        <ele>64.4</ele>
        <time>2023-05-04T08:41:48Z</time>
      </trkpt>
      <trkpt lat="49.2156" lon="-0.33887">
        <ele>64.2</ele>
        <time>2023-05-04T08:41:49Z</time>
      </trkpt>
      <trkpt lat="49.21559" lon="-0.3388">
        <ele>64</ele>
        <time>2023-05-04T08:41:50Z</time>
      </trkpt>
      <trkpt lat="49.21558" lon="-0.33872">
        <ele>63.8</ele>
        <time>2023-05-04T08:41:51Z</time>
      </trkpt>
      <trkpt lat="49.21557" lon="-0.33865">
        <ele>63.6</ele>
        <time>2023-05-04T08:41:52Z</time>
      </trkpt>
      <trkpt lat="49.21556" lon="-0.33857">
        <ele>63.4</ele>
        <time>2023-05-04T08:41:53Z</time>
      </trkpt>
      <trkpt lat="49.21555" lon="-0.33848">
        <ele>63.2</ele>
        <time>2023-05-04T08:41:54Z</time>
      </trkpt>
      <trkpt lat="49.21554" lon="-0.3384">
        <ele>63</ele>
        <time>2023-05-04T08:41:55Z</time>
      </trkpt>
      <trkpt lat="49.21553" lon="-0.33831">
        <ele>63</ele>
        <time>2023-05-04T08:41:56Z</time>
      </trkpt>
      <trkpt lat="49.21552" lon="-0.33822">
        <ele>63</ele>
        <time>2023-05-04T08:41:57Z</time>
      </trkpt>
      <trkpt lat="49.21551" lon="-0.33813">
        <ele>63.2</ele>
        <time>2023-05-04T08:41:58Z</time>
      </trkpt>
      <trkpt lat="49.21549" lon="-0.33803">
        <ele>63.6</ele>
        <time>2023-05-04T08:41:59Z</time>
      </trkpt>
      <trkpt lat="49.21548" lon="-0.33794">
        <ele>63.8</ele>
        <time>2023-05-04T08:42:00Z</time>
      </trkpt>
      <trkpt lat="49.21547" lon="-0.33784">
        <ele>64</ele>
        <time>2023-05-04T08:42:01Z</time>
      </trkpt>
      <trkpt lat="49.21546" lon="-0.33773">
        <ele>64.4</ele>
        <time>2023-05-04T08:42:02Z</time>
      </trkpt>
      <trkpt lat="49.21545" lon="-0.33763">
        <ele>64.6</ele>
        <time>2023-05-04T08:42:03Z</time>
      </trkpt>
      <trkpt lat="49.21543" lon="-0.33753">
        <ele>65</ele>
        <time>2023-05-04T08:42:04Z</time>
      </trkpt>
      <trkpt lat="49.21541" lon="-0.33742">
        <ele>65</ele>
        <time>2023-05-04T08:42:05Z</time>
      </trkpt>
      <trkpt lat="49.2154" lon="-0.33731">
        <ele>64.8</ele>
        <time>2023-05-04T08:42:06Z</time>
      </trkpt>
      <trkpt lat="49.21538" lon="-0.3372">
        <ele>64.6</ele>
        <time>2023-05-04T08:42:07Z</time>
      </trkpt>
      <trkpt lat="49.21536" lon="-0.33709">
        <ele>64.6</ele>
        <time>2023-05-04T08:42:08Z</time>
      </trkpt>
      <trkpt lat="49.21535" lon="-0.33698">
        <ele>64.6</ele>
        <time>2023-05-04T08:42:09Z</time>
      </trkpt>
      <trkpt lat="49.21533" lon="-0.33686">
        <ele>64.6</ele>
        <time>2023-05-04T08:42:10Z</time>
      </trkpt>
      <trkpt lat="49.21532" lon="-0.33675">
        <ele>64.6</ele>
        <time>2023-05-04T08:42:11Z</time>
      </trkpt>
      <trkpt lat="49.2153" lon="-0.33663">
        <ele>64.4</ele>
        <time>2023-05-04T08:42:12Z</time>
      </trkpt>
      <trkpt lat="49.21529" lon="-0.33652">
        <ele>64.4</ele>
        <time>2023-05-04T08:42:13Z</time>
      </trkpt>
      <trkpt lat="49.21528" lon="-0.3364">
        <ele>64.2</ele>
        <time>2023-05-04T08:42:14Z</time>
      </trkpt>
      <trkpt lat="49.21526" lon="-0.33628">
        <ele>64</ele>
        <time>2023-05-04T08:42:15Z</time>
      </trkpt>
      <trkpt lat="49.21525" lon="-0.33617">
        <ele>64</ele>
        <time>2023-05-04T08:42:16Z</time>
      </trkpt>
      <trkpt lat="49.21523" lon="-0.33605">
        <ele>63.8</ele>
        <time>2023-05-04T08:42:17Z</time>
      </trkpt>
      <trkpt lat="49.21522" lon="-0.33594">
        <ele>63.6</ele>
        <time>2023-05-04T08:42:18Z</time>
      </trkpt>
      <trkpt lat="49.2152" lon="-0.33582">
        <ele>63.6</ele>
        <time>2023-05-04T08:42:19Z</time>
      </trkpt>
      <trkpt lat="49.21519" lon="-0.3357">
        <ele>63.4</ele>
        <time>2023-05-04T08:42:20Z</time>
      </trkpt>
      <trkpt lat="49.21518" lon="-0.33559">
        <ele>63.2</ele>
        <time>2023-05-04T08:42:21Z</time>
      </trkpt>
      <trkpt lat="49.21516" lon="-0.33547">
        <ele>63</ele>
        <time>2023-05-04T08:42:22Z</time>
      </trkpt>
      <trkpt lat="49.21515" lon="-0.33536">
        <ele>63</ele>
        <time>2023-05-04T08:42:23Z</time>
      </trkpt>
      <trkpt lat="49.21513" lon="-0.33524">
        <ele>62.8</ele>
        <time>2023-05-04T08:42:24Z</time>
      </trkpt>
      <trkpt lat="49.21512" lon="-0.33513">
        <ele>62.6</ele>
        <time>2023-05-04T08:42:25Z</time>
      </trkpt>
      <trkpt lat="49.2151" lon="-0.33501">
        <ele>62.4</ele>
        <time>2023-05-04T08:42:26Z</time>
      </trkpt>
      <trkpt lat="49.21509" lon="-0.3349">
        <ele>62</ele>
        <time>2023-05-04T08:42:27Z</time>
      </trkpt>
      <trkpt lat="49.21507" lon="-0.33478">
        <ele>61.8</ele>
        <time>2023-05-04T08:42:28Z</time>
      </trkpt>
      <trkpt lat="49.21506" lon="-0.33467">
        <ele>61.6</ele>
        <time>2023-05-04T08:42:29Z</time>
      </trkpt>
      <trkpt lat="49.21504" lon="-0.33455">
        <ele>61.2</ele>
        <time>2023-05-04T08:42:30Z</time>
      </trkpt>
      <trkpt lat="49.21502" lon="-0.33444">
        <ele>60.8</ele>
        <time>2023-05-04T08:42:31Z</time>
      </trkpt>
      <trkpt lat="49.21501" lon="-0.33432">
        <ele>60.6</ele>
        <time>2023-05-04T08:42:32Z</time>
      </trkpt>
      <trkpt lat="49.21499" lon="-0.3342">
        <ele>60.2</ele>
        <time>2023-05-04T08:42:33Z</time>
      </trkpt>
      <trkpt lat="49.21498" lon="-0.33409">
        <ele>60.2</ele>
        <time>2023-05-04T08:42:34Z</time>
      </trkpt>
      <trkpt lat="49.21496" lon="-0.33398">
        <ele>60.6</ele>
        <time>2023-05-04T08:42:35Z</time>
      </trkpt>
      <trkpt lat="49.21495" lon="-0.33386">
        <ele>60.8</ele>
        <time>2023-05-04T08:42:36Z</time>
      </trkpt>
      <trkpt lat="49.21493" lon="-0.33375">
        <ele>61</ele>
        <time>2023-05-04T08:42:37Z</time>
      </trkpt>
      <trkpt lat="49.21492" lon="-0.33363">
        <ele>61.2</ele>
        <time>2023-05-04T08:42:38Z</time>
      </trkpt>
      <trkpt lat="49.21491" lon="-0.33352">
        <ele>61.6</ele>
        <time>2023-05-04T08:42:39Z</time>
      </trkpt>
      <trkpt lat="49.21489" lon="-0.33341">
        <ele>61.8</ele>
        <time>2023-05-04T08:42:40Z</time>
      </trkpt>
      <trkpt lat="49.21488" lon="-0.33329">
        <ele>61.8</ele>
        <time>2023-05-04T08:42:41Z</time>
      </trkpt>
      <trkpt lat="49.21486" lon="-0.33318">
        <ele>61.4</ele>
        <time>2023-05-04T08:42:42Z</time>
      </trkpt>
      <trkpt lat="49.21485" lon="-0.33306">
        <ele>61</ele>
        <time>2023-05-04T08:42:43Z</time>
      </trkpt>
      <trkpt lat="49.21483" lon="-0.33295">
        <ele>60.6</ele>
        <time>2023-05-04T08:42:44Z</time>
      </trkpt>
      <trkpt lat="49.21482" lon="-0.33284">
        <ele>60.2</ele>
        <time>2023-05-04T08:42:45Z</time>
      </trkpt>
      <trkpt lat="49.2148" lon="-0.33272">
        <ele>60</ele>
        <time>2023-05-04T08:42:46Z</time>
      </trkpt>
      <trkpt lat="49.21479" lon="-0.33261">
        <ele>59.6</ele>
        <time>2023-05-04T08:42:47Z</time>
      </trkpt>
      <trkpt lat="49.21477" lon="-0.33249">
        <ele>59</ele>
        <time>2023-05-04T08:42:48Z</time>
      </trkpt>
      <trkpt lat="49.21476" lon="-0.33237">
        <ele>58.8</ele>
        <time>2023-05-04T08:42:49Z</time>
      </trkpt>
      <trkpt lat="49.21475" lon="-0.33226">
        <ele>58.6</ele>
        <time>2023-05-04T08:42:50Z</time>
      </trkpt>
      <trkpt lat="49.21473" lon="-0.33214">
        <ele>58.2</ele>
        <time>2023-05-04T08:42:51Z</time>
      </trkpt>
      <trkpt lat="49.21472" lon="-0.33202">
        <ele>57.8</ele>
        <time>2023-05-04T08:42:52Z</time>
      </trkpt>
      <trkpt lat="49.2147" lon="-0.33191">
        <ele>57.6</ele>
        <time>2023-05-04T08:42:53Z</time>
      </trkpt>
      <trkpt lat="49.21468" lon="-0.33179">
        <ele>57.2</ele>
        <time>2023-05-04T08:42:54Z</time>
      </trkpt>
      <trkpt lat="49.21466" lon="-0.33167">
        <ele>56.8</ele>
        <time>2023-05-04T08:42:55Z</time>
      </trkpt>
      <trkpt lat="49.21464" lon="-0.33155">
        <ele>57</ele>
        <time>2023-05-04T08:42:56Z</time>
      </trkpt>
      <trkpt lat="49.21462" lon="-0.33144">
        <ele>57</ele>
        <time>2023-05-04T08:42:57Z</time>
      </trkpt>
      <trkpt lat="49.2146" lon="-0.33132">
        <ele>57</ele>
        <time>2023-05-04T08:42:58Z</time>
      </trkpt>
      <trkpt lat="49.21457" lon="-0.3312">
        <ele>57</ele>
        <time>2023-05-04T08:42:59Z</time>
      </trkpt>
      <trkpt lat="49.21454" lon="-0.33109">
        <ele>57</ele>
        <time>2023-05-04T08:43:00Z</time>
      </trkpt>
      <trkpt lat="49.21451" lon="-0.33097">
        <ele>57.2</ele>
        <time>2023-05-04T08:43:01Z</time>
      </trkpt>
      <trkpt lat="49.21448" lon="-0.33086">
        <ele>57.2</ele>
        <time>2023-05-04T08:43:02Z</time>
      </trkpt>
      <trkpt lat="49.21445" lon="-0.33074">
        <ele>57</ele>
        <time>2023-05-04T08:43:03Z</time>
      </trkpt>
      <trkpt lat="49.21442" lon="-0.33063">
        <ele>56.8</ele>
        <time>2023-05-04T08:43:04Z</time>
      </trkpt>
      <trkpt lat="49.21438" lon="-0.33052">
        <ele>56.6</ele>
        <time>2023-05-04T08:43:05Z</time>
      </trkpt>
      <trkpt lat="49.21434" lon="-0.3304">
        <ele>56.2</ele>
        <time>2023-05-04T08:43:06Z</time>
      </trkpt>
      <trkpt lat="49.2143" lon="-0.33029">
        <ele>56</ele>
        <time>2023-05-04T08:43:07Z</time>
      </trkpt>
      <trkpt lat="49.21426" lon="-0.33017">
        <ele>55.6</ele>
        <time>2023-05-04T08:43:08Z</time>
      </trkpt>
      <trkpt lat="49.21422" lon="-0.33006">
        <ele>55.2</ele>
        <time>2023-05-04T08:43:09Z</time>
      </trkpt>
      <trkpt lat="49.21417" lon="-0.32995">
        <ele>54.8</ele>
        <time>2023-05-04T08:43:10Z</time>
      </trkpt>
      <trkpt lat="49.21413" lon="-0.32983">
        <ele>54.4</ele>
        <time>2023-05-04T08:43:11Z</time>
      </trkpt>
      <trkpt lat="49.21408" lon="-0.32972">
        <ele>54</ele>
        <time>2023-05-04T08:43:12Z</time>
      </trkpt>
      <trkpt lat="49.21404" lon="-0.3296">
        <ele>53.4</ele>
        <time>2023-05-04T08:43:13Z</time>
      </trkpt>
      <trkpt lat="49.21399" lon="-0.32949">
        <ele>53</ele>
        <time>2023-05-04T08:43:14Z</time>
      </trkpt>
      <trkpt lat="49.21395" lon="-0.32937">
        <ele>52.6</ele>
        <time>2023-05-04T08:43:15Z</time>
      </trkpt>
      <trkpt lat="49.2139" lon="-0.32926">
        <ele>52</ele>
        <time>2023-05-04T08:43:16Z</time>
      </trkpt>
      <trkpt lat="49.21385" lon="-0.32914">
        <ele>51.6</ele>
        <time>2023-05-04T08:43:17Z</time>
      </trkpt>
      <trkpt lat="49.21379" lon="-0.32903">
        <ele>51.2</ele>
        <time>2023-05-04T08:43:18Z</time>
      </trkpt>
      <trkpt lat="49.21374" lon="-0.32891">
        <ele>51</ele>
        <time>2023-05-04T08:43:19Z</time>
      </trkpt>
      <trkpt lat="49.21368" lon="-0.3288">
        <ele>50.6</ele>
        <time>2023-05-04T08:43:20Z</time>
      </trkpt>
      <trkpt lat="49.21363" lon="-0.32869">
        <ele>50.2</ele>
        <time>2023-05-04T08:43:21Z</time>
      </trkpt>
      <trkpt lat="49.21357" lon="-0.32858">
        <ele>50</ele>
        <time>2023-05-04T08:43:22Z</time>
      </trkpt>
      <trkpt lat="49.2135" lon="-0.32847">
        <ele>49.6</ele>
        <time>2023-05-04T08:43:23Z</time>
      </trkpt>
      <trkpt lat="49.21344" lon="-0.32837">
        <ele>49.2</ele>
        <time>2023-05-04T08:43:24Z</time>
      </trkpt>
      <trkpt lat="49.21337" lon="-0.32826">
        <ele>49</ele>
        <time>2023-05-04T08:43:25Z</time>
      </trkpt>
      <trkpt lat="49.2133" lon="-0.32816">
        <ele>48.6</ele>
        <time>2023-05-04T08:43:26Z</time>
      </trkpt>
      <trkpt lat="49.21323" lon="-0.32806">
        <ele>48</ele>
        <time>2023-05-04T08:43:27Z</time>
      </trkpt>
      <trkpt lat="49.21316" lon="-0.32796">
        <ele>47.6</ele>
        <time>2023-05-04T08:43:28Z</time>
      </trkpt>
      <trkpt lat="49.21308" lon="-0.32787">
        <ele>47</ele>
        <time>2023-05-04T08:43:29Z</time>
      </trkpt>
      <trkpt lat="49.21301" lon="-0.32777">
        <ele>46.8</ele>
        <time>2023-05-04T08:43:30Z</time>
      </trkpt>
      <trkpt lat="49.21293" lon="-0.32767">
        <ele>46.2</ele>
        <time>2023-05-04T08:43:31Z</time>
      </trkpt>
      <trkpt lat="49.21285" lon="-0.32758">
        <ele>46</ele>
        <time>2023-05-04T08:43:32Z</time>
      </trkpt>
      <trkpt lat="49.21277" lon="-0.32749">
        <ele>45.6</ele>
        <time>2023-05-04T08:43:33Z</time>
      </trkpt>
      <trkpt lat="49.21268" lon="-0.3274">
        <ele>45</ele>
        <time>2023-05-04T08:43:34Z</time>
      </trkpt>
      <trkpt lat="49.21259" lon="-0.32732">
        <ele>44.4</ele>
        <time>2023-05-04T08:43:35Z</time>
      </trkpt>
      <trkpt lat="49.2125" lon="-0.32723">
        <ele>43.8</ele>
        <time>2023-05-04T08:43:36Z</time>
      </trkpt>
      <trkpt lat="49.21241" lon="-0.32715">
        <ele>43.2</ele>
        <time>2023-05-04T08:43:37Z</time>
      </trkpt>
      <trkpt lat="49.21232" lon="-0.32707">
        <ele>43</ele>
        <time>2023-05-04T08:43:38Z</time>
      </trkpt>
      <trkpt lat="49.21223" lon="-0.32698">
        <ele>42.6</ele>
        <time>2023-05-04T08:43:39Z</time>
      </trkpt>
      <trkpt lat="49.21214" lon="-0.3269">
        <ele>42.2</ele>
        <time>2023-05-04T08:43:40Z</time>
      </trkpt>
      <trkpt lat="49.21205" lon="-0.32682">
        <ele>42</ele>
        <time>2023-05-04T08:43:41Z</time>
      </trkpt>
      <trkpt lat="49.21196" lon="-0.32673">
        <ele>42</ele>
        <time>2023-05-04T08:43:42Z</time>
      </trkpt>
      <trkpt lat="49.21187" lon="-0.32665">
        <ele>41.8</ele>
        <time>2023-05-04T08:43:43Z</time>
      </trkpt>
      <trkpt lat="49.21178" lon="-0.32656">
        <ele>41.6</ele>
        <time>2023-05-04T08:43:44Z</time>
      </trkpt>
      <trkpt lat="49.21168" lon="-0.32648">
        <ele>41.2</ele>
        <time>2023-05-04T08:43:45Z</time>
      </trkpt>
      <trkpt lat="49.21159" lon="-0.32639">
        <ele>41</ele>
        <time>2023-05-04T08:43:46Z</time>
      </trkpt>
      <trkpt lat="49.2115" lon="-0.32631">
        <ele>40.6</ele>
        <time>2023-05-04T08:43:47Z</time>
      </trkpt>
      <trkpt lat="49.21141" lon="-0.32623">
        <ele>40</ele>
        <time>2023-05-04T08:43:48Z</time>
      </trkpt>
      <trkpt lat="49.21132" lon="-0.32614">
        <ele>39.8</ele>
        <time>2023-05-04T08:43:49Z</time>
      </trkpt>
      <trkpt lat="49.21123" lon="-0.32606">
        <ele>39.2</ele>
        <time>2023-05-04T08:43:50Z</time>
      </trkpt>
      <trkpt lat="49.21114" lon="-0.32597">
        <ele>39</ele>
        <time>2023-05-04T08:43:51Z</time>
      </trkpt>
      <trkpt lat="49.21105" lon="-0.32588">
        <ele>38.4</ele>
        <time>2023-05-04T08:43:52Z</time>
      </trkpt>
      <trkpt lat="49.21096" lon="-0.32579">
        <ele>38</ele>
        <time>2023-05-04T08:43:53Z</time>
      </trkpt>
      <trkpt lat="49.21088" lon="-0.32569">
        <ele>37.6</ele>
        <time>2023-05-04T08:43:54Z</time>
      </trkpt>
      <trkpt lat="49.21079" lon="-0.32559">
        <ele>37.2</ele>
        <time>2023-05-04T08:43:55Z</time>
      </trkpt>
      <trkpt lat="49.21072" lon="-0.32548">
        <ele>36.8</ele>
        <time>2023-05-04T08:43:56Z</time>
      </trkpt>
      <trkpt lat="49.21064" lon="-0.32537">
        <ele>36.4</ele>
        <time>2023-05-04T08:43:57Z</time>
      </trkpt>
      <trkpt lat="49.21056" lon="-0.32525">
        <ele>36</ele>
        <time>2023-05-04T08:43:58Z</time>
      </trkpt>
      <trkpt lat="49.21049" lon="-0.32513">
        <ele>35.6</ele>
        <time>2023-05-04T08:43:59Z</time>
      </trkpt>
      <trkpt lat="49.21042" lon="-0.325">
        <ele>35</ele>
        <time>2023-05-04T08:44:00Z</time>
      </trkpt>
      <trkpt lat="49.21036" lon="-0.32486">
        <ele>34.2</ele>
        <time>2023-05-04T08:44:01Z</time>
      </trkpt>
      <trkpt lat="49.21029" lon="-0.32472">
        <ele>33.6</ele>
        <time>2023-05-04T08:44:02Z</time>
      </trkpt>
      <trkpt lat="49.21023" lon="-0.32457">
        <ele>32.8</ele>
        <time>2023-05-04T08:44:03Z</time>
      </trkpt>
      <trkpt lat="49.21017" lon="-0.32441">
        <ele>31.8</ele>
        <time>2023-05-04T08:44:04Z</time>
      </trkpt>
      <trkpt lat="49.21011" lon="-0.32425">
        <ele>30.8</ele>
        <time>2023-05-04T08:44:05Z</time>
      </trkpt>
      <trkpt lat="49.21006" lon="-0.32409">
        <ele>29.8</ele>
        <time>2023-05-04T08:44:06Z</time>
      </trkpt>
      <trkpt lat="49.21001" lon="-0.32391">
        <ele>28.8</ele>
        <time>2023-05-04T08:44:07Z</time>
      </trkpt>
      <trkpt lat="49.20996" lon="-0.32374">
        <ele>28</ele>
        <time>2023-05-04T08:44:08Z</time>
      </trkpt>
      <trkpt lat="49.20993" lon="-0.32355">
        <ele>27.2</ele>
        <time>2023-05-04T08:44:09Z</time>
      </trkpt>
      <trkpt lat="49.20989" lon="-0.32337">
        <ele>26.2</ele>
        <time>2023-05-04T08:44:10Z</time>
      </trkpt>
      <trkpt lat="49.20987" lon="-0.32318">
        <ele>25.4</ele>
        <time>2023-05-04T08:44:11Z</time>
      </trkpt>
      <trkpt lat="49.20986" lon="-0.32298">
        <ele>24.6</ele>
        <time>2023-05-04T08:44:12Z</time>
      </trkpt>
      <trkpt lat="49.20985" lon="-0.32278">
        <ele>23.6</ele>
        <time>2023-05-04T08:44:13Z</time>
      </trkpt>
      <trkpt lat="49.20984" lon="-0.32257">
        <ele>22.8</ele>
        <time>2023-05-04T08:44:14Z</time>
      </trkpt>
      <trkpt lat="49.20984" lon="-0.32237">
        <ele>21.8</ele>
        <time>2023-05-04T08:44:15Z</time>
      </trkpt>
      <trkpt lat="49.20984" lon="-0.32217">
        <ele>20.8</ele>
        <time>2023-05-04T08:44:16Z</time>
      </trkpt>
      <trkpt lat="49.20984" lon="-0.32197">
        <ele>19.8</ele>
        <time>2023-05-04T08:44:17Z</time>
      </trkpt>
      <trkpt lat="49.20983" lon="-0.32178">
        <ele>18.8</ele>
        <time>2023-05-04T08:44:18Z</time>
      </trkpt>
      <trkpt lat="49.20982" lon="-0.3216">
        <ele>18.2</ele>
        <time>2023-05-04T08:44:19Z</time>
      </trkpt>
      <trkpt lat="49.20981" lon="-0.32144">
        <ele>18.2</ele>
        <time>2023-05-04T08:44:20Z</time>
      </trkpt>
      <trkpt lat="49.2098" lon="-0.32129">
        <ele>18</ele>
        <time>2023-05-04T08:44:21Z</time>
      </trkpt>
      <trkpt lat="49.20979" lon="-0.32115">
        <ele>17.8</ele>
        <time>2023-05-04T08:44:22Z</time>
      </trkpt>
      <trkpt lat="49.20978" lon="-0.32103">
        <ele>17.8</ele>
        <time>2023-05-04T08:44:23Z</time>
      </trkpt>
      <trkpt lat="49.20977" lon="-0.32092">
        <ele>17.8</ele>
        <time>2023-05-04T08:44:24Z</time>
      </trkpt>
      <trkpt lat="49.20975" lon="-0.32084">
        <ele>17.8</ele>
        <time>2023-05-04T08:44:25Z</time>
      </trkpt>
      <trkpt lat="49.20973" lon="-0.32077">
        <ele>17.6</ele>
        <time>2023-05-04T08:44:26Z</time>
      </trkpt>
      <trkpt lat="49.20969" lon="-0.32072">
        <ele>17.6</ele>
        <time>2023-05-04T08:44:27Z</time>
      </trkpt>
      <trkpt lat="49.20966" lon="-0.32065">
        <ele>17.4</ele>
        <time>2023-05-04T08:44:28Z</time>
      </trkpt>
      <trkpt lat="49.20964" lon="-0.32056">
        <ele>17.2</ele>
        <time>2023-05-04T08:44:29Z</time>
      </trkpt>
      <trkpt lat="49.20963" lon="-0.32045">
        <ele>17.2</ele>
        <time>2023-05-04T08:44:30Z</time>
      </trkpt>
      <trkpt lat="49.20962" lon="-0.32034">
        <ele>17</ele>
        <time>2023-05-04T08:44:31Z</time>
      </trkpt>
      <trkpt lat="49.2096" lon="-0.32023">
        <ele>16.8</ele>
        <time>2023-05-04T08:44:32Z</time>
      </trkpt>
      <trkpt lat="49.20957" lon="-0.32012">
        <ele>16.6</ele>
        <time>2023-05-04T08:44:33Z</time>
      </trkpt>
      <trkpt lat="49.20954" lon="-0.32001">
        <ele>16.6</ele>
        <time>2023-05-04T08:44:34Z</time>
      </trkpt>
      <trkpt lat="49.20951" lon="-0.3199">
        <ele>16.2</ele>
        <time>2023-05-04T08:44:35Z</time>
      </trkpt>
      <trkpt lat="49.20947" lon="-0.31979">
        <ele>16</ele>
        <time>2023-05-04T08:44:36Z</time>
      </trkpt>
      <trkpt lat="49.20943" lon="-0.31968">
        <ele>15.6</ele>
        <time>2023-05-04T08:44:37Z</time>
      </trkpt>
      <trkpt lat="49.20939" lon="-0.31957">
        <ele>15.4</ele>
        <time>2023-05-04T08:44:38Z</time>
      </trkpt>
      <trkpt lat="49.20935" lon="-0.31946">
        <ele>15.2</ele>
        <time>2023-05-04T08:44:39Z</time>
      </trkpt>
      <trkpt lat="49.20931" lon="-0.31934">
        <ele>14.6</ele>
        <time>2023-05-04T08:44:40Z</time>
      </trkpt>
      <trkpt lat="49.20926" lon="-0.31923">
        <ele>14.4</ele>
        <time>2023-05-04T08:44:41Z</time>
      </trkpt>
      <trkpt lat="49.2092" lon="-0.31912">
        <ele>14</ele>
        <time>2023-05-04T08:44:42Z</time>
      </trkpt>
      <trkpt lat="49.20914" lon="-0.31901">
        <ele>13.6</ele>
        <time>2023-05-04T08:44:43Z</time>
      </trkpt>
      <trkpt lat="49.20908" lon="-0.3189">
        <ele>13.2</ele>
        <time>2023-05-04T08:44:44Z</time>
      </trkpt>
      <trkpt lat="49.20901" lon="-0.3188">
        <ele>12.6</ele>
        <time>2023-05-04T08:44:45Z</time>
      </trkpt>
      <trkpt lat="49.20894" lon="-0.3187">
        <ele>12.2</ele>
        <time>2023-05-04T08:44:46Z</time>
      </trkpt>
      <trkpt lat="49.20887" lon="-0.3186">
        <ele>11.6</ele>
        <time>2023-05-04T08:44:47Z</time>
      </trkpt>
      <trkpt lat="49.2088" lon="-0.3185">
        <ele>11.2</ele>
        <time>2023-05-04T08:44:48Z</time>
      </trkpt>
      <trkpt lat="49.20872" lon="-0.31841">
        <ele>10.6</ele>
        <time>2023-05-04T08:44:49Z</time>
      </trkpt>
      <trkpt lat="49.20865" lon="-0.31832">
        <ele>9.8</ele>
        <time>2023-05-04T08:44:50Z</time>
      </trkpt>
      <trkpt lat="49.20857" lon="-0.31824">
        <ele>9.4</ele>
        <time>2023-05-04T08:44:51Z</time>
      </trkpt>
      <trkpt lat="49.20849" lon="-0.31815">
        <ele>8.6</ele>
        <time>2023-05-04T08:44:52Z</time>
      </trkpt>
      <trkpt lat="49.20842" lon="-0.31807">
        <ele>8.2</ele>
        <time>2023-05-04T08:44:53Z</time>
      </trkpt>
      <trkpt lat="49.20833" lon="-0.31798">
        <ele>7.6</ele>
        <time>2023-05-04T08:44:54Z</time>
      </trkpt>
      <trkpt lat="49.20826" lon="-0.31789">
        <ele>7.6</ele>
        <time>2023-05-04T08:44:55Z</time>
      </trkpt>
      <trkpt lat="49.20817" lon="-0.3178">
        <ele>7.4</ele>
        <time>2023-05-04T08:44:56Z</time>
      </trkpt>
      <trkpt lat="49.20809" lon="-0.31771">
        <ele>7.2</ele>
        <time>2023-05-04T08:44:57Z</time>
      </trkpt>
      <trkpt lat="49.20801" lon="-0.31762">
        <ele>7</ele>
        <time>2023-05-04T08:44:58Z</time>
      </trkpt>
      <trkpt lat="49.20792" lon="-0.31753">
        <ele>6.6</ele>
        <time>2023-05-04T08:44:59Z</time>
      </trkpt>
      <trkpt lat="49.20783" lon="-0.31745">
        <ele>6.2</ele>
        <time>2023-05-04T08:45:00Z</time>
      </trkpt>
      <trkpt lat="49.20775" lon="-0.31737">
        <ele>5.6</ele>
        <time>2023-05-04T08:45:01Z</time>
      </trkpt>
      <trkpt lat="49.20767" lon="-0.31728">
        <ele>5.2</ele>
        <time>2023-05-04T08:45:02Z</time>
      </trkpt>
      <trkpt lat="49.20759" lon="-0.31718">
        <ele>4.6</ele>
        <time>2023-05-04T08:45:03Z</time>
      </trkpt>
      <trkpt lat="49.20753" lon="-0.31708">
        <ele>4</ele>
        <time>2023-05-04T08:45:04Z</time>
      </trkpt>
      <trkpt lat="49.20747" lon="-0.31697">
        <ele>3.6</ele>
        <time>2023-05-04T08:45:05Z</time>
      </trkpt>
      <trkpt lat="49.20741" lon="-0.31686">
        <ele>3</ele>
        <time>2023-05-04T08:45:06Z</time>
      </trkpt>
      <trkpt lat="49.20736" lon="-0.31674">
        <ele>2.4</ele>
        <time>2023-05-04T08:45:07Z</time>
      </trkpt>
      <trkpt lat="49.20732" lon="-0.31662">
        <ele>1.8</ele>
        <time>2023-05-04T08:45:08Z</time>
      </trkpt>
      <trkpt lat="49.20727" lon="-0.31651">
        <ele>1.6</ele>
        <time>2023-05-04T08:45:09Z</time>
      </trkpt>
      <trkpt lat="49.20723" lon="-0.3164">
        <ele>1.2</ele>
        <time>2023-05-04T08:45:10Z</time>
      </trkpt>
      <trkpt lat="49.20718" lon="-0.31629">
        <ele>1.2</ele>
        <time>2023-05-04T08:45:11Z</time>
      </trkpt>
      <trkpt lat="49.20713" lon="-0.31618">
        <ele>0.80000000000001</ele>
        <time>2023-05-04T08:45:12Z</time>
      </trkpt>
      <trkpt lat="49.20709" lon="-0.31607">
        <ele>0.80000000000001</ele>
        <time>2023-05-04T08:45:13Z</time>
      </trkpt>
      <trkpt lat="49.20706" lon="-0.31596">
        <ele>0.80000000000001</ele>
        <time>2023-05-04T08:45:14Z</time>
      </trkpt>
      <trkpt lat="49.20703" lon="-0.31585">
        <ele>0.80000000000001</ele>
        <time>2023-05-04T08:45:15Z</time>
      </trkpt>
      <trkpt lat="49.207" lon="-0.31575">
        <ele>1.2</ele>
        <time>2023-05-04T08:45:16Z</time>
      </trkpt>
      <trkpt lat="49.20697" lon="-0.31565">
        <ele>1.6</ele>
        <time>2023-05-04T08:45:17Z</time>
      </trkpt>
      <trkpt lat="49.20694" lon="-0.31556">
        <ele>1.8</ele>
        <time>2023-05-04T08:45:18Z</time>
      </trkpt>
      <trkpt lat="49.2069" lon="-0.31547">
        <ele>2.2</ele>
        <time>2023-05-04T08:45:19Z</time>
      </trkpt>
      <trkpt lat="49.20687" lon="-0.31539">
        <ele>2.6</ele>
        <time>2023-05-04T08:45:20Z</time>
      </trkpt>
      <trkpt lat="49.20685" lon="-0.31531">
        <ele>2.8</ele>
        <time>2023-05-04T08:45:21Z</time>
      </trkpt>
      <trkpt lat="49.20684" lon="-0.31523">
        <ele>3</ele>
        <time>2023-05-04T08:45:22Z</time>
      </trkpt>
      <trkpt lat="49.20684" lon="-0.31515">
        <ele>3</ele>
        <time>2023-05-04T08:45:23Z</time>
      </trkpt>
      <trkpt lat="49.20687" lon="-0.31508">
        <ele>3</ele>
        <time>2023-05-04T08:45:24Z</time>
      </trkpt>
      <trkpt lat="49.20691" lon="-0.31503">
        <ele>3</ele>
        <time>2023-05-04T08:45:25Z</time>
      </trkpt>
      <trkpt lat="49.20696" lon="-0.31498">
        <ele>3</ele>
        <time>2023-05-04T08:45:26Z</time>
      </trkpt>
      <trkpt lat="49.20702" lon="-0.31495">
        <ele>2.8</ele>
        <time>2023-05-04T08:45:27Z</time>
      </trkpt>
      <trkpt lat="49.20708" lon="-0.31491">
        <ele>2.8</ele>
        <time>2023-05-04T08:45:28Z</time>
      </trkpt>
      <trkpt lat="49.20714" lon="-0.31488">
        <ele>2.6</ele>
        <time>2023-05-04T08:45:29Z</time>
      </trkpt>
      <trkpt lat="49.20719" lon="-0.31484">
        <ele>2.6</ele>
        <time>2023-05-04T08:45:30Z</time>
      </trkpt>
      <trkpt lat="49.20726" lon="-0.31481">
        <ele>2.4</ele>
        <time>2023-05-04T08:45:31Z</time>
      </trkpt>
      <trkpt lat="49.20732" lon="-0.31477">
        <ele>2.2</ele>
        <time>2023-05-04T08:45:32Z</time>
      </trkpt>
      <trkpt lat="49.20738" lon="-0.31473">
        <ele>2.2</ele>
        <time>2023-05-04T08:45:33Z</time>
      </trkpt>
      <trkpt lat="49.20745" lon="-0.31469">
        <ele>2.2</ele>
        <time>2023-05-04T08:45:34Z</time>
      </trkpt>
      <trkpt lat="49.20751" lon="-0.31465">
        <ele>2.2</ele>
        <time>2023-05-04T08:45:35Z</time>
      </trkpt>
      <trkpt lat="49.20758" lon="-0.31461">
        <ele>2.2</ele>
        <time>2023-05-04T08:45:36Z</time>
      </trkpt>
      <trkpt lat="49.20764" lon="-0.31457">
        <ele>2.2</ele>
        <time>2023-05-04T08:45:37Z</time>
      </trkpt>
      <trkpt lat="49.20771" lon="-0.31453">
        <ele>2.2</ele>
        <time>2023-05-04T08:45:38Z</time>
      </trkpt>
      <trkpt lat="49.20777" lon="-0.31449">
        <ele>2.2</ele>
        <time>2023-05-04T08:45:39Z</time>
      </trkpt>
      <trkpt lat="49.20784" lon="-0.31446">
        <ele>2.2</ele>
        <time>2023-05-04T08:45:40Z</time>
      </trkpt>
      <trkpt lat="49.2079" lon="-0.31442">
        <ele>2</ele>
        <time>2023-05-04T08:45:41Z</time>
      </trkpt>
      <trkpt lat="49.20797" lon="-0.31438">
        <ele>2</ele>
        <time>2023-05-04T08:45:42Z</time>
      </trkpt>
      <trkpt lat="49.20803" lon="-0.31434">
        <ele>1.8</ele>
        <time>2023-05-04T08:45:43Z</time>
      </trkpt>
      <trkpt lat="49.2081" lon="-0.3143">
        <ele>1.8</ele>
        <time>2023-05-04T08:45:44Z</time>
      </trkpt>
      <trkpt lat="49.20816" lon="-0.31426">
        <ele>1.6</ele>
        <time>2023-05-04T08:45:45Z</time>
      </trkpt>
      <trkpt lat="49.20823" lon="-0.31422">
        <ele>1.2</ele>
        <time>2023-05-04T08:45:46Z</time>
      </trkpt>
      <trkpt lat="49.2083" lon="-0.31418">
        <ele>1.2</ele>
        <time>2023-05-04T08:45:47Z</time>
      </trkpt>
      <trkpt lat="49.20836" lon="-0.31415">
        <ele>0.80000000000001</ele>
        <time>2023-05-04T08:45:48Z</time>
      </trkpt>
      <trkpt lat="49.20843" lon="-0.3141">
        <ele>0.60000000000002</ele>
        <time>2023-05-04T08:45:49Z</time>
      </trkpt>
      <trkpt lat="49.20849" lon="-0.31406">
        <ele>0.39999999999998</ele>
        <time>2023-05-04T08:45:50Z</time>
      </trkpt>
      <trkpt lat="49.20856" lon="-0.31402">
        <ele>0.19999999999999</ele>
        <time>2023-05-04T08:45:51Z</time>
      </trkpt>
      <trkpt lat="49.20862" lon="-0.31399">
        <ele>0.19999999999999</ele>
        <time>2023-05-04T08:45:52Z</time>
      </trkpt>
      <trkpt lat="49.20869" lon="-0.31395">
        <ele>-0.39999999999998</ele>
        <time>2023-05-04T08:45:53Z</time>
      </trkpt>
      <trkpt lat="49.20876" lon="-0.31391">
        <ele>-0.39999999999998</ele>
        <time>2023-05-04T08:45:54Z</time>
      </trkpt>
      <trkpt lat="49.20882" lon="-0.31387">
        <ele>-0.80000000000001</ele>
        <time>2023-05-04T08:45:55Z</time>
      </trkpt>
      <trkpt lat="49.20889" lon="-0.31383">
        <ele>-1</ele>
        <time>2023-05-04T08:45:56Z</time>
      </trkpt>
      <trkpt lat="49.20896" lon="-0.31379">
        <ele>-1.2</ele>
        <time>2023-05-04T08:45:57Z</time>
      </trkpt>
      <trkpt lat="49.20903" lon="-0.31374">
        <ele>-1.4</ele>
        <time>2023-05-04T08:45:58Z</time>
      </trkpt>
      <trkpt lat="49.2091" lon="-0.3137">
        <ele>-1.8</ele>
        <time>2023-05-04T08:45:59Z</time>
      </trkpt>
      <trkpt lat="49.20916" lon="-0.31366">
        <ele>-2</ele>
        <time>2023-05-04T08:46:00Z</time>
      </trkpt>
      <trkpt lat="49.20923" lon="-0.31362">
        <ele>-2</ele>
        <time>2023-05-04T08:46:01Z</time>
      </trkpt>
      <trkpt lat="49.2093" lon="-0.31357">
        <ele>-2</ele>
        <time>2023-05-04T08:46:02Z</time>
      </trkpt>
      <trkpt lat="49.20937" lon="-0.31353">
        <ele>-1.8</ele>
        <time>2023-05-04T08:46:03Z</time>
      </trkpt>
      <trkpt lat="49.20944" lon="-0.31349">
        <ele>-1.8</ele>
        <time>2023-05-04T08:46:04Z</time>
      </trkpt>
      <trkpt lat="49.20951" lon="-0.31344">
        <ele>-1.8</ele>
        <time>2023-05-04T08:46:05Z</time>
      </trkpt>
      <trkpt lat="49.20958" lon="-0.3134">
        <ele>-2</ele>
        <time>2023-05-04T08:46:06Z</time>
      </trkpt>
      <trkpt lat="49.20965" lon="-0.31336">
        <ele>-2</ele>
        <time>2023-05-04T08:46:07Z</time>
      </trkpt>
      <trkpt lat="49.20972" lon="-0.31332">
        <ele>-2</ele>
        <time>2023-05-04T08:46:08Z</time>
      </trkpt>
      <trkpt lat="49.20979" lon="-0.31328">
        <ele>-2</ele>
        <time>2023-05-04T08:46:09Z</time>
      </trkpt>
      <trkpt lat="49.20986" lon="-0.31324">
        <ele>-1.8</ele>
        <time>2023-05-04T08:46:10Z</time>
      </trkpt>
      <trkpt lat="49.20993" lon="-0.3132">
        <ele>-2</ele>
        <time>2023-05-04T08:46:11Z</time>
      </trkpt>
      <trkpt lat="49.21" lon="-0.31316">
        <ele>-2</ele>
        <time>2023-05-04T08:46:12Z</time>
      </trkpt>
      <trkpt lat="49.21007" lon="-0.31312">
        <ele>-1.8</ele>
        <time>2023-05-04T08:46:13Z</time>
      </trkpt>
      <trkpt lat="49.21013" lon="-0.31307">
        <ele>-1.8</ele>
        <time>2023-05-04T08:46:14Z</time>
      </trkpt>
      <trkpt lat="49.2102" lon="-0.31303">
        <ele>-1.4</ele>
        <time>2023-05-04T08:46:15Z</time>
      </trkpt>
      <trkpt lat="49.21027" lon="-0.31299">
        <ele>-1.4</ele>
        <time>2023-05-04T08:46:16Z</time>
      </trkpt>
      <trkpt lat="49.21034" lon="-0.31295">
        <ele>-1.2</ele>
        <time>2023-05-04T08:46:17Z</time>
      </trkpt>
      <trkpt lat="49.21041" lon="-0.31291">
        <ele>-1.2</ele>
        <time>2023-05-04T08:46:18Z</time>
      </trkpt>
      <trkpt lat="49.21048" lon="-0.31287">
        <ele>-1.2</ele>
        <time>2023-05-04T08:46:19Z</time>
      </trkpt>
      <trkpt lat="49.21055" lon="-0.31282">
        <ele>-1.2</ele>
        <time>2023-05-04T08:46:20Z</time>
      </trkpt>
      <trkpt lat="49.21061" lon="-0.31278">
        <ele>-1.2</ele>
        <time>2023-05-04T08:46:21Z</time>
      </trkpt>
      <trkpt lat="49.21068" lon="-0.31274">
        <ele>-1.2</ele>
        <time>2023-05-04T08:46:22Z</time>
      </trkpt>
      <trkpt lat="49.21075" lon="-0.3127">
        <ele>-1.4</ele>
        <time>2023-05-04T08:46:23Z</time>
      </trkpt>
      <trkpt lat="49.21082" lon="-0.31266">
        <ele>-1.4</ele>
        <time>2023-05-04T08:46:24Z</time>
      </trkpt>
      <trkpt lat="49.21088" lon="-0.31262">
        <ele>-1</ele>
        <time>2023-05-04T08:46:25Z</time>
      </trkpt>
      <trkpt lat="49.21095" lon="-0.31258">
        <ele>-0.39999999999998</ele>
        <time>2023-05-04T08:46:26Z</time>
      </trkpt>
      <trkpt lat="49.21102" lon="-0.31254">
        <ele>0.19999999999999</ele>
        <time>2023-05-04T08:46:27Z</time>
      </trkpt>
      <trkpt lat="49.21109" lon="-0.31249">
        <ele>0.60000000000002</ele>
        <time>2023-05-04T08:46:28Z</time>
      </trkpt>
      <trkpt lat="49.21116" lon="-0.31245">
        <ele>1.2</ele>
        <time>2023-05-04T08:46:29Z</time>
      </trkpt>
      <trkpt lat="49.21123" lon="-0.31241">
        <ele>1.8</ele>
        <time>2023-05-04T08:46:30Z</time>
      </trkpt>
      <trkpt lat="49.2113" lon="-0.31237">
        <ele>2</ele>
        <time>2023-05-04T08:46:31Z</time>
      </trkpt>
      <trkpt lat="49.21136" lon="-0.31233">
        <ele>2.4</ele>
        <time>2023-05-04T08:46:32Z</time>
      </trkpt>
      <trkpt lat="49.21143" lon="-0.31229">
        <ele>2.8</ele>
        <time>2023-05-04T08:46:33Z</time>
      </trkpt>
      <trkpt lat="49.2115" lon="-0.31226">
        <ele>3</ele>
        <time>2023-05-04T08:46:34Z</time>
      </trkpt>
      <trkpt lat="49.21157" lon="-0.31222">
        <ele>3.2</ele>
        <time>2023-05-04T08:46:35Z</time>
      </trkpt>
      <trkpt lat="49.21163" lon="-0.31218">
        <ele>3.2</ele>
        <time>2023-05-04T08:46:36Z</time>
      </trkpt>
      <trkpt lat="49.2117" lon="-0.31214">
        <ele>3.2</ele>
        <time>2023-05-04T08:46:37Z</time>
      </trkpt>
      <trkpt lat="49.21177" lon="-0.3121">
        <ele>3.2</ele>
        <time>2023-05-04T08:46:38Z</time>
      </trkpt>
      <trkpt lat="49.21184" lon="-0.31206">
        <ele>3.2</ele>
        <time>2023-05-04T08:46:39Z</time>
      </trkpt>
      <trkpt lat="49.21191" lon="-0.31201">
        <ele>3.2</ele>
        <time>2023-05-04T08:46:40Z</time>
      </trkpt>
      <trkpt lat="49.21198" lon="-0.31197">
        <ele>3</ele>
        <time>2023-05-04T08:46:41Z</time>
      </trkpt>
      <trkpt lat="49.21205" lon="-0.31192">
        <ele>3</ele>
        <time>2023-05-04T08:46:42Z</time>
      </trkpt>
      <trkpt lat="49.21212" lon="-0.31188">
        <ele>3</ele>
        <time>2023-05-04T08:46:43Z</time>
      </trkpt>
      <trkpt lat="49.21219" lon="-0.31184">
        <ele>3</ele>
        <time>2023-05-04T08:46:44Z</time>
      </trkpt>
      <trkpt lat="49.21226" lon="-0.3118">
        <ele>3</ele>
        <time>2023-05-04T08:46:45Z</time>
      </trkpt>
      <trkpt lat="49.21233" lon="-0.31176">
        <ele>3</ele>
        <time>2023-05-04T08:46:46Z</time>
      </trkpt>
      <trkpt lat="49.2124" lon="-0.31172">
        <ele>3</ele>
        <time>2023-05-04T08:46:47Z</time>
      </trkpt>
      <trkpt lat="49.21247" lon="-0.31168">
        <ele>3</ele>
        <time>2023-05-04T08:46:48Z</time>
      </trkpt>
      <trkpt lat="49.21254" lon="-0.31164">
        <ele>3</ele>
        <time>2023-05-04T08:46:49Z</time>
      </trkpt>
      <trkpt lat="49.21261" lon="-0.3116">
        <ele>3.2</ele>
        <time>2023-05-04T08:46:50Z</time>
      </trkpt>
      <trkpt lat="49.21269" lon="-0.31156">
        <ele>3.4</ele>
        <time>2023-05-04T08:46:51Z</time>
      </trkpt>
      <trkpt lat="49.21277" lon="-0.31154">
        <ele>3.8</ele>
        <time>2023-05-04T08:46:52Z</time>
      </trkpt>
      <trkpt lat="49.21285" lon="-0.31152">
        <ele>4.2</ele>
        <time>2023-05-04T08:46:53Z</time>
      </trkpt>
      <trkpt lat="49.21292" lon="-0.31149">
        <ele>4.6</ele>
        <time>2023-05-04T08:46:54Z</time>
      </trkpt>
      <trkpt lat="49.213" lon="-0.31146">
        <ele>4.6</ele>
        <time>2023-05-04T08:46:55Z</time>
      </trkpt>
      <trkpt lat="49.21307" lon="-0.31142">
        <ele>4.6</ele>
        <time>2023-05-04T08:46:56Z</time>
      </trkpt>
      <trkpt lat="49.21313" lon="-0.31136">
        <ele>4.4</ele>
        <time>2023-05-04T08:46:57Z</time>
      </trkpt>
      <trkpt lat="49.21319" lon="-0.31129">
        <ele>4</ele>
        <time>2023-05-04T08:46:58Z</time>
      </trkpt>
      <trkpt lat="49.21325" lon="-0.31121">
        <ele>3.4</ele>
        <time>2023-05-04T08:46:59Z</time>
      </trkpt>
      <trkpt lat="49.21331" lon="-0.31116">
        <ele>3.2</ele>
        <time>2023-05-04T08:47:00Z</time>
      </trkpt>
      <trkpt lat="49.21338" lon="-0.31111">
        <ele>3.2</ele>
        <time>2023-05-04T08:47:01Z</time>
      </trkpt>
      <trkpt lat="49.21346" lon="-0.31107">
        <ele>3.8</ele>
        <time>2023-05-04T08:47:02Z</time>
      </trkpt>
      <trkpt lat="49.21353" lon="-0.31103">
        <ele>4.2</ele>
        <time>2023-05-04T08:47:03Z</time>
      </trkpt>
      <trkpt lat="49.2136" lon="-0.31099">
        <ele>4.6</ele>
        <time>2023-05-04T08:47:04Z</time>
      </trkpt>
      <trkpt lat="49.21367" lon="-0.31095">
        <ele>5</ele>
        <time>2023-05-04T08:47:05Z</time>
      </trkpt>
      <trkpt lat="49.21374" lon="-0.3109">
        <ele>5.6</ele>
        <time>2023-05-04T08:47:06Z</time>
      </trkpt>
      <trkpt lat="49.21381" lon="-0.31086">
        <ele>6.2</ele>
        <time>2023-05-04T08:47:07Z</time>
      </trkpt>
      <trkpt lat="49.21388" lon="-0.31081">
        <ele>6.8</ele>
        <time>2023-05-04T08:47:08Z</time>
      </trkpt>
      <trkpt lat="49.21396" lon="-0.31077">
        <ele>7.4</ele>
        <time>2023-05-04T08:47:09Z</time>
      </trkpt>
      <trkpt lat="49.21403" lon="-0.31073">
        <ele>7.6</ele>
        <time>2023-05-04T08:47:10Z</time>
      </trkpt>
      <trkpt lat="49.2141" lon="-0.31068">
        <ele>8</ele>
        <time>2023-05-04T08:47:11Z</time>
      </trkpt>
      <trkpt lat="49.21417" lon="-0.31064">
        <ele>8</ele>
        <time>2023-05-04T08:47:12Z</time>
      </trkpt>
      <trkpt lat="49.21424" lon="-0.31059">
        <ele>7.8</ele>
        <time>2023-05-04T08:47:13Z</time>
      </trkpt>
      <trkpt lat="49.21432" lon="-0.31055">
        <ele>7.8</ele>
        <time>2023-05-04T08:47:14Z</time>
      </trkpt>
      <trkpt lat="49.21439" lon="-0.31051">
        <ele>7.6</ele>
        <time>2023-05-04T08:47:15Z</time>
      </trkpt>
      <trkpt lat="49.21446" lon="-0.31046">
        <ele>7.6</ele>
        <time>2023-05-04T08:47:16Z</time>
      </trkpt>
      <trkpt lat="49.21453" lon="-0.31042">
        <ele>7.8</ele>
        <time>2023-05-04T08:47:17Z</time>
      </trkpt>
      <trkpt lat="49.2146" lon="-0.31038">
        <ele>8</ele>
        <time>2023-05-04T08:47:18Z</time>
      </trkpt>
      <trkpt lat="49.21467" lon="-0.31033">
        <ele>8</ele>
        <time>2023-05-04T08:47:19Z</time>
      </trkpt>
      <trkpt lat="49.21474" lon="-0.31029">
        <ele>8.2</ele>
        <time>2023-05-04T08:47:20Z</time>
      </trkpt>
      <trkpt lat="49.21481" lon="-0.31025">
        <ele>8.6</ele>
        <time>2023-05-04T08:47:21Z</time>
      </trkpt>
      <trkpt lat="49.21488" lon="-0.31021">
        <ele>8.6</ele>
        <time>2023-05-04T08:47:22Z</time>
      </trkpt>
      <trkpt lat="49.21495" lon="-0.31017">
        <ele>9.2</ele>
        <time>2023-05-04T08:47:23Z</time>
      </trkpt>
      <trkpt lat="49.21502" lon="-0.31012">
        <ele>9.2</ele>
        <time>2023-05-04T08:47:24Z</time>
      </trkpt>
      <trkpt lat="49.21509" lon="-0.31008">
        <ele>9</ele>
        <time>2023-05-04T08:47:25Z</time>
      </trkpt>
      <trkpt lat="49.21515" lon="-0.31004">
        <ele>8.6</ele>
        <time>2023-05-04T08:47:26Z</time>
      </trkpt>
      <trkpt lat="49.21522" lon="-0.31">
        <ele>8.6</ele>
        <time>2023-05-04T08:47:27Z</time>
      </trkpt>
      <trkpt lat="49.21529" lon="-0.30996">
        <ele>8.6</ele>
        <time>2023-05-04T08:47:28Z</time>
      </trkpt>
      <trkpt lat="49.21535" lon="-0.30992">
        <ele>8.4</ele>
        <time>2023-05-04T08:47:29Z</time>
      </trkpt>
      <trkpt lat="49.21542" lon="-0.30988">
        <ele>8.4</ele>
        <time>2023-05-04T08:47:30Z</time>
      </trkpt>
      <trkpt lat="49.21548" lon="-0.30984">
        <ele>8.2</ele>
        <time>2023-05-04T08:47:31Z</time>
      </trkpt>
      <trkpt lat="49.21555" lon="-0.3098">
        <ele>8</ele>
        <time>2023-05-04T08:47:32Z</time>
      </trkpt>
      <trkpt lat="49.21561" lon="-0.30976">
        <ele>7.6</ele>
        <time>2023-05-04T08:47:33Z</time>
      </trkpt>
      <trkpt lat="49.21568" lon="-0.30972">
        <ele>7.4</ele>
        <time>2023-05-04T08:47:34Z</time>
      </trkpt>
      <trkpt lat="49.21574" lon="-0.30968">
        <ele>7</ele>
        <time>2023-05-04T08:47:35Z</time>
      </trkpt>
      <trkpt lat="49.21581" lon="-0.30964">
        <ele>6.6</ele>
        <time>2023-05-04T08:47:36Z</time>
      </trkpt>
      <trkpt lat="49.21588" lon="-0.30959">
        <ele>6.4</ele>
        <time>2023-05-04T08:47:37Z</time>
      </trkpt>
      <trkpt lat="49.21594" lon="-0.30955">
        <ele>6</ele>
        <time>2023-05-04T08:47:38Z</time>
      </trkpt>
      <trkpt lat="49.21601" lon="-0.30951">
        <ele>6</ele>
        <time>2023-05-04T08:47:39Z</time>
      </trkpt>
      <trkpt lat="49.21608" lon="-0.30947">
        <ele>6</ele>
        <time>2023-05-04T08:47:40Z</time>
      </trkpt>
      <trkpt lat="49.21615" lon="-0.30943">
        <ele>5.8</ele>
        <time>2023-05-04T08:47:41Z</time>
      </trkpt>
      <trkpt lat="49.21622" lon="-0.30938">
        <ele>5.6</ele>
        <time>2023-05-04T08:47:42Z</time>
      </trkpt>
      <trkpt lat="49.21629" lon="-0.30934">
        <ele>5.6</ele>
        <time>2023-05-04T08:47:43Z</time>
      </trkpt>
      <trkpt lat="49.21636" lon="-0.3093">
        <ele>5.6</ele>
        <time>2023-05-04T08:47:44Z</time>
      </trkpt>
      <trkpt lat="49.21643" lon="-0.30926">
        <ele>5.6</ele>
        <time>2023-05-04T08:47:45Z</time>
      </trkpt>
      <trkpt lat="49.2165" lon="-0.30922">
        <ele>5.6</ele>
        <time>2023-05-04T08:47:46Z</time>
      </trkpt>
      <trkpt lat="49.21657" lon="-0.30917">
        <ele>5.6</ele>
        <time>2023-05-04T08:47:47Z</time>
      </trkpt>
      <trkpt lat="49.21663" lon="-0.30913">
        <ele>5.8</ele>
        <time>2023-05-04T08:47:48Z</time>
      </trkpt>
      <trkpt lat="49.2167" lon="-0.30909">
        <ele>6</ele>
        <time>2023-05-04T08:47:49Z</time>
      </trkpt>
      <trkpt lat="49.21677" lon="-0.30905">
        <ele>5.8</ele>
        <time>2023-05-04T08:47:50Z</time>
      </trkpt>
      <trkpt lat="49.21684" lon="-0.30901">
        <ele>5.8</ele>
        <time>2023-05-04T08:47:51Z</time>
      </trkpt>
      <trkpt lat="49.21691" lon="-0.30897">
        <ele>5.6</ele>
        <time>2023-05-04T08:47:52Z</time>
      </trkpt>
      <trkpt lat="49.21698" lon="-0.30893">
        <ele>5.6</ele>
        <time>2023-05-04T08:47:53Z</time>
      </trkpt>
      <trkpt lat="49.21705" lon="-0.30888">
        <ele>5.6</ele>
        <time>2023-05-04T08:47:54Z</time>
      </trkpt>
      <trkpt lat="49.21711" lon="-0.30884">
        <ele>5.6</ele>
        <time>2023-05-04T08:47:55Z</time>
      </trkpt>
      <trkpt lat="49.21718" lon="-0.3088">
        <ele>5.6</ele>
        <time>2023-05-04T08:47:56Z</time>
      </trkpt>
      <trkpt lat="49.21725" lon="-0.30876">
        <ele>5.4</ele>
        <time>2023-05-04T08:47:57Z</time>
      </trkpt>
      <trkpt lat="49.21732" lon="-0.30872">
        <ele>5.4</ele>
        <time>2023-05-04T08:47:58Z</time>
      </trkpt>
      <trkpt lat="49.21739" lon="-0.30868">
        <ele>5.2</ele>
        <time>2023-05-04T08:47:59Z</time>
      </trkpt>
      <trkpt lat="49.21746" lon="-0.30864">
        <ele>5</ele>
        <time>2023-05-04T08:48:00Z</time>
      </trkpt>
      <trkpt lat="49.21753" lon="-0.30859">
        <ele>5</ele>
        <time>2023-05-04T08:48:01Z</time>
      </trkpt>
      <trkpt lat="49.2176" lon="-0.30855">
        <ele>5</ele>
        <time>2023-05-04T08:48:02Z</time>
      </trkpt>
      <trkpt lat="49.21767" lon="-0.30851">
        <ele>5</ele>
        <time>2023-05-04T08:48:03Z</time>
      </trkpt>
      <trkpt lat="49.21774" lon="-0.30847">
        <ele>5</ele>
        <time>2023-05-04T08:48:04Z</time>
      </trkpt>
      <trkpt lat="49.21781" lon="-0.30842">
        <ele>5</ele>
        <time>2023-05-04T08:48:05Z</time>
      </trkpt>
      <trkpt lat="49.21788" lon="-0.30838">
        <ele>5</ele>
        <time>2023-05-04T08:48:06Z</time>
      </trkpt>
      <trkpt lat="49.21795" lon="-0.30834">
        <ele>5</ele>
        <time>2023-05-04T08:48:07Z</time>
      </trkpt>
      <trkpt lat="49.21802" lon="-0.3083">
        <ele>5.2</ele>
        <time>2023-05-04T08:48:08Z</time>
      </trkpt>
      <trkpt lat="49.21809" lon="-0.30826">
        <ele>5.4</ele>
        <time>2023-05-04T08:48:09Z</time>
      </trkpt>
      <trkpt lat="49.21816" lon="-0.30822">
        <ele>5.4</ele>
        <time>2023-05-04T08:48:10Z</time>
      </trkpt>
      <trkpt lat="49.21822" lon="-0.30818">
        <ele>5.6</ele>
        <time>2023-05-04T08:48:11Z</time>
      </trkpt>
      <trkpt lat="49.21829" lon="-0.30813">
        <ele>5.6</ele>
        <time>2023-05-04T08:48:12Z</time>
      </trkpt>
      <trkpt lat="49.21836" lon="-0.30809">
        <ele>5.6</ele>
        <time>2023-05-04T08:48:13Z</time>
      </trkpt>
      <trkpt lat="49.21843" lon="-0.30805">
        <ele>5.4</ele>
        <time>2023-05-04T08:48:14Z</time>
      </trkpt>
      <trkpt lat="49.2185" lon="-0.30801">
        <ele>5.4</ele>
        <time>2023-05-04T08:48:15Z</time>
      </trkpt>
      <trkpt lat="49.21856" lon="-0.30797">
        <ele>5</ele>
        <time>2023-05-04T08:48:16Z</time>
      </trkpt>
      <trkpt lat="49.21863" lon="-0.30792">
        <ele>5</ele>
        <time>2023-05-04T08:48:17Z</time>
      </trkpt>
      <trkpt lat="49.2187" lon="-0.30788">
        <ele>5</ele>
        <time>2023-05-04T08:48:18Z</time>
      </trkpt>
      <trkpt lat="49.21877" lon="-0.30784">
        <ele>4.8</ele>
        <time>2023-05-04T08:48:19Z</time>
      </trkpt>
      <trkpt lat="49.21883" lon="-0.3078">
        <ele>4.6</ele>
        <time>2023-05-04T08:48:20Z</time>
      </trkpt>
      <trkpt lat="49.2189" lon="-0.30776">
        <ele>4.6</ele>
        <time>2023-05-04T08:48:21Z</time>
      </trkpt>
      <trkpt lat="49.21897" lon="-0.30772">
        <ele>4.6</ele>
        <time>2023-05-04T08:48:22Z</time>
      </trkpt>
      <trkpt lat="49.21904" lon="-0.30768">
        <ele>4.6</ele>
        <time>2023-05-04T08:48:23Z</time>
      </trkpt>
      <trkpt lat="49.2191" lon="-0.30764">
        <ele>4.6</ele>
        <time>2023-05-04T08:48:24Z</time>
      </trkpt>
      <trkpt lat="49.21917" lon="-0.3076">
        <ele>4.6</ele>
        <time>2023-05-04T08:48:25Z</time>
      </trkpt>
      <trkpt lat="49.21923" lon="-0.30756">
        <ele>4.8</ele>
        <time>2023-05-04T08:48:26Z</time>
      </trkpt>
      <trkpt lat="49.2193" lon="-0.30753">
        <ele>4.8</ele>
        <time>2023-05-04T08:48:27Z</time>
      </trkpt>
      <trkpt lat="49.21937" lon="-0.30749">
        <ele>4.6</ele>
        <time>2023-05-04T08:48:28Z</time>
      </trkpt>
      <trkpt lat="49.21943" lon="-0.30745">
        <ele>4.6</ele>
        <time>2023-05-04T08:48:29Z</time>
      </trkpt>
      <trkpt lat="49.2195" lon="-0.30741">
        <ele>4.4</ele>
        <time>2023-05-04T08:48:30Z</time>
      </trkpt>
      <trkpt lat="49.21956" lon="-0.30737">
        <ele>4.2</ele>
        <time>2023-05-04T08:48:31Z</time>
      </trkpt>
      <trkpt lat="49.21963" lon="-0.30733">
        <ele>4</ele>
        <time>2023-05-04T08:48:32Z</time>
      </trkpt>
      <trkpt lat="49.21969" lon="-0.30729">
        <ele>4</ele>
        <time>2023-05-04T08:48:33Z</time>
      </trkpt>
      <trkpt lat="49.21976" lon="-0.30725">
        <ele>4</ele>
        <time>2023-05-04T08:48:34Z</time>
      </trkpt>
      <trkpt lat="49.21983" lon="-0.30721">
        <ele>4</ele>
        <time>2023-05-04T08:48:35Z</time>
      </trkpt>
      <trkpt lat="49.21989" lon="-0.30717">
        <ele>4</ele>
        <time>2023-05-04T08:48:36Z</time>
      </trkpt>
      <trkpt lat="49.21996" lon="-0.30713">
        <ele>4</ele>
        <time>2023-05-04T08:48:37Z</time>
      </trkpt>
      <trkpt lat="49.22003" lon="-0.30709">
        <ele>4</ele>
        <time>2023-05-04T08:48:38Z</time>
      </trkpt>
      <trkpt lat="49.22009" lon="-0.30705">
        <ele>4</ele>
        <time>2023-05-04T08:48:39Z</time>
      </trkpt>
      <trkpt lat="49.22016" lon="-0.307">
        <ele>4</ele>
        <time>2023-05-04T08:48:40Z</time>
      </trkpt>
      <trkpt lat="49.22023" lon="-0.30696">
        <ele>4</ele>
        <time>2023-05-04T08:48:41Z</time>
      </trkpt>
      <trkpt lat="49.22029" lon="-0.30692">
        <ele>4</ele>
        <time>2023-05-04T08:48:42Z</time>
      </trkpt>
      <trkpt lat="49.22036" lon="-0.30687">
        <ele>4.2</ele>
        <time>2023-05-04T08:48:43Z</time>
      </trkpt>
      <trkpt lat="49.22043" lon="-0.30683">
        <ele>4.4</ele>
        <time>2023-05-04T08:48:44Z</time>
      </trkpt>
      <trkpt lat="49.22049" lon="-0.30679">
        <ele>4.4</ele>
        <time>2023-05-04T08:48:45Z</time>
      </trkpt>
      <trkpt lat="49.22056" lon="-0.30674">
        <ele>4.6</ele>
        <time>2023-05-04T08:48:46Z</time>
      </trkpt>
      <trkpt lat="49.22062" lon="-0.3067">
        <ele>4.6</ele>
        <time>2023-05-04T08:48:47Z</time>
      </trkpt>
      <trkpt lat="49.22069" lon="-0.30665">
        <ele>4.8</ele>
        <time>2023-05-04T08:48:48Z</time>
      </trkpt>
      <trkpt lat="49.22075" lon="-0.3066">
        <ele>4.8</ele>
        <time>2023-05-04T08:48:49Z</time>
      </trkpt>
      <trkpt lat="49.22081" lon="-0.30656">
        <ele>4.6</ele>
        <time>2023-05-04T08:48:50Z</time>
      </trkpt>
      <trkpt lat="49.22087" lon="-0.30651">
        <ele>4.6</ele>
        <time>2023-05-04T08:48:51Z</time>
      </trkpt>
      <trkpt lat="49.22093" lon="-0.30646">
        <ele>4</ele>
        <time>2023-05-04T08:48:52Z</time>
      </trkpt>
      <trkpt lat="49.22099" lon="-0.30641">
        <ele>3.8</ele>
        <time>2023-05-04T08:48:53Z</time>
      </trkpt>
      <trkpt lat="49.22105" lon="-0.30636">
        <ele>3.6</ele>
        <time>2023-05-04T08:48:54Z</time>
      </trkpt>
      <trkpt lat="49.22111" lon="-0.3063">
        <ele>3</ele>
        <time>2023-05-04T08:48:55Z</time>
      </trkpt>
      <trkpt lat="49.22117" lon="-0.30625">
        <ele>2.8</ele>
        <time>2023-05-04T08:48:56Z</time>
      </trkpt>
      <trkpt lat="49.22123" lon="-0.30619">
        <ele>2.4</ele>
        <time>2023-05-04T08:48:57Z</time>
      </trkpt>
      <trkpt lat="49.22129" lon="-0.30613">
        <ele>2</ele>
        <time>2023-05-04T08:48:58Z</time>
      </trkpt>
      <trkpt lat="49.22135" lon="-0.30608">
        <ele>1.8</ele>
        <time>2023-05-04T08:48:59Z</time>
      </trkpt>
      <trkpt lat="49.22141" lon="-0.30601">
        <ele>1.4</ele>
        <time>2023-05-04T08:49:00Z</time>
      </trkpt>
      <trkpt lat="49.22147" lon="-0.30595">
        <ele>1</ele>
        <time>2023-05-04T08:49:01Z</time>
      </trkpt>
      <trkpt lat="49.22153" lon="-0.30589">
        <ele>0.60000000000002</ele>
        <time>2023-05-04T08:49:02Z</time>
      </trkpt>
      <trkpt lat="49.22159" lon="-0.30583">
        <ele>0.39999999999998</ele>
        <time>2023-05-04T08:49:03Z</time>
      </trkpt>
      <trkpt lat="49.22164" lon="-0.30577">
        <ele>-0.19999999999999</ele>
        <time>2023-05-04T08:49:04Z</time>
      </trkpt>
      <trkpt lat="49.2217" lon="-0.30571">
        <ele>-0.19999999999999</ele>
        <time>2023-05-04T08:49:05Z</time>
      </trkpt>
      <trkpt lat="49.22175" lon="-0.30564">
        <ele>-0.19999999999999</ele>
        <time>2023-05-04T08:49:06Z</time>
      </trkpt>
      <trkpt lat="49.22181" lon="-0.30558">
        <ele>0.19999999999999</ele>
        <time>2023-05-04T08:49:07Z</time>
      </trkpt>
      <trkpt lat="49.22187" lon="-0.30551">
        <ele>0.39999999999998</ele>
        <time>2023-05-04T08:49:08Z</time>
      </trkpt>
      <trkpt lat="49.22192" lon="-0.30544">
        <ele>0.60000000000002</ele>
        <time>2023-05-04T08:49:09Z</time>
      </trkpt>
      <trkpt lat="49.22198" lon="-0.30538">
        <ele>0.60000000000002</ele>
        <time>2023-05-04T08:49:10Z</time>
      </trkpt>
      <trkpt lat="49.22203" lon="-0.30531">
        <ele>0.60000000000002</ele>
        <time>2023-05-04T08:49:11Z</time>
      </trkpt>
      <trkpt lat="49.22209" lon="-0.30524">
        <ele>0.80000000000001</ele>
        <time>2023-05-04T08:49:12Z</time>
      </trkpt>
      <trkpt lat="49.22214" lon="-0.30517">
        <ele>0.80000000000001</ele>
        <time>2023-05-04T08:49:13Z</time>
      </trkpt>
      <trkpt lat="49.2222" lon="-0.3051">
        <ele>0.80000000000001</ele>
        <time>2023-05-04T08:49:14Z</time>
      </trkpt>
      <trkpt lat="49.22225" lon="-0.30503">
        <ele>0.80000000000001</ele>
        <time>2023-05-04T08:49:15Z</time>
      </trkpt>
      <trkpt lat="49.2223" lon="-0.30496">
        <ele>1</ele>
        <time>2023-05-04T08:49:16Z</time>
      </trkpt>
      <trkpt lat="49.22235" lon="-0.30489">
        <ele>1.2</ele>
        <time>2023-05-04T08:49:17Z</time>
      </trkpt>
      <trkpt lat="49.22241" lon="-0.30481">
        <ele>1.2</ele>
        <time>2023-05-04T08:49:18Z</time>
      </trkpt>
      <trkpt lat="49.22245" lon="-0.30474">
        <ele>1.6</ele>
        <time>2023-05-04T08:49:19Z</time>
      </trkpt>
      <trkpt lat="49.2225" lon="-0.30467">
        <ele>1.6</ele>
        <time>2023-05-04T08:49:20Z</time>
      </trkpt>
      <trkpt lat="49.22255" lon="-0.30459">
        <ele>1.8</ele>
        <time>2023-05-04T08:49:21Z</time>
      </trkpt>
      <trkpt lat="49.2226" lon="-0.30452">
        <ele>1.8</ele>
        <time>2023-05-04T08:49:22Z</time>
      </trkpt>
      <trkpt lat="49.22265" lon="-0.30444">
        <ele>1.8</ele>
        <time>2023-05-04T08:49:23Z</time>
      </trkpt>
      <trkpt lat="49.22269" lon="-0.30437">
        <ele>1.8</ele>
        <time>2023-05-04T08:49:24Z</time>
      </trkpt>
      <trkpt lat="49.22274" lon="-0.30429">
        <ele>1.8</ele>
        <time>2023-05-04T08:49:25Z</time>
      </trkpt>
      <trkpt lat="49.22278" lon="-0.30421">
        <ele>1.8</ele>
        <time>2023-05-04T08:49:26Z</time>
      </trkpt>
      <trkpt lat="49.22283" lon="-0.30413">
        <ele>1.6</ele>
        <time>2023-05-04T08:49:27Z</time>
      </trkpt>
      <trkpt lat="49.22287" lon="-0.30405">
        <ele>1.4</ele>
        <time>2023-05-04T08:49:28Z</time>
      </trkpt>
      <trkpt lat="49.22292" lon="-0.30397">
        <ele>1.2</ele>
        <time>2023-05-04T08:49:29Z</time>
      </trkpt>
      <trkpt lat="49.22296" lon="-0.30389">
        <ele>1.2</ele>
        <time>2023-05-04T08:49:30Z</time>
      </trkpt>
      <trkpt lat="49.22301" lon="-0.3038">
        <ele>1</ele>
        <time>2023-05-04T08:49:31Z</time>
      </trkpt>
      <trkpt lat="49.22305" lon="-0.30372">
        <ele>1</ele>
        <time>2023-05-04T08:49:32Z</time>
      </trkpt>
      <trkpt lat="49.22309" lon="-0.30364">
        <ele>1.2</ele>
        <time>2023-05-04T08:49:33Z</time>
      </trkpt>
      <trkpt lat="49.22313" lon="-0.30355">
        <ele>1.2</ele>
        <time>2023-05-04T08:49:34Z</time>
      </trkpt>
      <trkpt lat="49.22318" lon="-0.30347">
        <ele>1.6</ele>
        <time>2023-05-04T08:49:35Z</time>
      </trkpt>
      <trkpt lat="49.22322" lon="-0.30338">
        <ele>1.8</ele>
        <time>2023-05-04T08:49:36Z</time>
      </trkpt>
      <trkpt lat="49.22326" lon="-0.3033">
        <ele>2.2</ele>
        <time>2023-05-04T08:49:37Z</time>
      </trkpt>
      <trkpt lat="49.2233" lon="-0.30322">
        <ele>2.6</ele>
        <time>2023-05-04T08:49:38Z</time>
      </trkpt>
      <trkpt lat="49.22335" lon="-0.30313">
        <ele>2.8</ele>
        <time>2023-05-04T08:49:39Z</time>
      </trkpt>
      <trkpt lat="49.22339" lon="-0.30305">
        <ele>3</ele>
        <time>2023-05-04T08:49:40Z</time>
      </trkpt>
      <trkpt lat="49.22343" lon="-0.30296">
        <ele>3</ele>
        <time>2023-05-04T08:49:41Z</time>
      </trkpt>
      <trkpt lat="49.22347" lon="-0.30288">
        <ele>3</ele>
        <time>2023-05-04T08:49:42Z</time>
      </trkpt>
      <trkpt lat="49.22352" lon="-0.3028">
        <ele>3</ele>
        <time>2023-05-04T08:49:43Z</time>
      </trkpt>
      <trkpt lat="49.22356" lon="-0.30271">
        <ele>3</ele>
        <time>2023-05-04T08:49:44Z</time>
      </trkpt>
      <trkpt lat="49.2236" lon="-0.30263">
        <ele>3</ele>
        <time>2023-05-04T08:49:45Z</time>
      </trkpt>
      <trkpt lat="49.22364" lon="-0.30254">
        <ele>3.2</ele>
        <time>2023-05-04T08:49:46Z</time>
      </trkpt>
      <trkpt lat="49.22369" lon="-0.30246">
        <ele>3.2</ele>
        <time>2023-05-04T08:49:47Z</time>
      </trkpt>
      <trkpt lat="49.22373" lon="-0.30238">
        <ele>3.4</ele>
        <time>2023-05-04T08:49:48Z</time>
      </trkpt>
      <trkpt lat="49.22377" lon="-0.30229">
        <ele>3.4</ele>
        <time>2023-05-04T08:49:49Z</time>
      </trkpt>
      <trkpt lat="49.22382" lon="-0.30221">
        <ele>3.6</ele>
        <time>2023-05-04T08:49:50Z</time>
      </trkpt>
      <trkpt lat="49.22386" lon="-0.30212">
        <ele>3.6</ele>
        <time>2023-05-04T08:49:51Z</time>
      </trkpt>
      <trkpt lat="49.2239" lon="-0.30204">
        <ele>3.6</ele>
        <time>2023-05-04T08:49:52Z</time>
      </trkpt>
      <trkpt lat="49.22395" lon="-0.30195">
        <ele>3.4</ele>
        <time>2023-05-04T08:49:53Z</time>
      </trkpt>
      <trkpt lat="49.22399" lon="-0.30187">
        <ele>3.2</ele>
        <time>2023-05-04T08:49:54Z</time>
      </trkpt>
      <trkpt lat="49.22403" lon="-0.30178">
        <ele>3.2</ele>
        <time>2023-05-04T08:49:55Z</time>
      </trkpt>
      <trkpt lat="49.22407" lon="-0.3017">
        <ele>3</ele>
        <time>2023-05-04T08:49:56Z</time>
      </trkpt>
      <trkpt lat="49.22412" lon="-0.30161">
        <ele>3</ele>
        <time>2023-05-04T08:49:57Z</time>
      </trkpt>
      <trkpt lat="49.22416" lon="-0.30153">
        <ele>3</ele>
        <time>2023-05-04T08:49:58Z</time>
      </trkpt>
      <trkpt lat="49.2242" lon="-0.30144">
        <ele>3.2</ele>
        <time>2023-05-04T08:49:59Z</time>
      </trkpt>
      <trkpt lat="49.22425" lon="-0.30136">
        <ele>3.2</ele>
        <time>2023-05-04T08:50:00Z</time>
      </trkpt>
      <trkpt lat="49.22429" lon="-0.30128">
        <ele>3.6</ele>
        <time>2023-05-04T08:50:01Z</time>
      </trkpt>
      <trkpt lat="49.22434" lon="-0.3012">
        <ele>3.6</ele>
        <time>2023-05-04T08:50:02Z</time>
      </trkpt>
      <trkpt lat="49.22438" lon="-0.30113">
        <ele>3.6</ele>
        <time>2023-05-04T08:50:03Z</time>
      </trkpt>
      <trkpt lat="49.22443" lon="-0.30106">
        <ele>3.8</ele>
        <time>2023-05-04T08:50:04Z</time>
      </trkpt>
      <trkpt lat="49.22448" lon="-0.30099">
        <ele>3.8</ele>
        <time>2023-05-04T08:50:05Z</time>
      </trkpt>
      <trkpt lat="49.22452" lon="-0.30092">
        <ele>3.6</ele>
        <time>2023-05-04T08:50:06Z</time>
      </trkpt>
      <trkpt lat="49.22456" lon="-0.30083">
        <ele>3.6</ele>
        <time>2023-05-04T08:50:07Z</time>
      </trkpt>
      <trkpt lat="49.22459" lon="-0.30075">
        <ele>3.4</ele>
        <time>2023-05-04T08:50:08Z</time>
      </trkpt>
      <trkpt lat="49.22462" lon="-0.30067">
        <ele>3.4</ele>
        <time>2023-05-04T08:50:09Z</time>
      </trkpt>
      <trkpt lat="49.22466" lon="-0.30058">
        <ele>3.4</ele>
        <time>2023-05-04T08:50:10Z</time>
      </trkpt>
      <trkpt lat="49.22469" lon="-0.3005">
        <ele>3.4</ele>
        <time>2023-05-04T08:50:11Z</time>
      </trkpt>
      <trkpt lat="49.22473" lon="-0.30042">
        <ele>3.6</ele>
        <time>2023-05-04T08:50:12Z</time>
      </trkpt>
      <trkpt lat="49.22476" lon="-0.30034">
        <ele>3.6</ele>
        <time>2023-05-04T08:50:13Z</time>
      </trkpt>
      <trkpt lat="49.2248" lon="-0.30026">
        <ele>3.8</ele>
        <time>2023-05-04T08:50:14Z</time>
      </trkpt>
      <trkpt lat="49.22484" lon="-0.30018">
        <ele>4</ele>
        <time>2023-05-04T08:50:15Z</time>
      </trkpt>
      <trkpt lat="49.22488" lon="-0.3001">
        <ele>4.4</ele>
        <time>2023-05-04T08:50:16Z</time>
      </trkpt>
      <trkpt lat="49.22493" lon="-0.30002">
        <ele>4.6</ele>
        <time>2023-05-04T08:50:17Z</time>
      </trkpt>
      <trkpt lat="49.22497" lon="-0.29994">
        <ele>4.6</ele>
        <time>2023-05-04T08:50:18Z</time>
      </trkpt>
      <trkpt lat="49.22501" lon="-0.29987">
        <ele>4.6</ele>
        <time>2023-05-04T08:50:19Z</time>
      </trkpt>
      <trkpt lat="49.22505" lon="-0.29978">
        <ele>4.6</ele>
        <time>2023-05-04T08:50:20Z</time>
      </trkpt>
      <trkpt lat="49.2251" lon="-0.2997">
        <ele>4.6</ele>
        <time>2023-05-04T08:50:21Z</time>
      </trkpt>
      <trkpt lat="49.22514" lon="-0.29962">
        <ele>4.6</ele>
        <time>2023-05-04T08:50:22Z</time>
      </trkpt>
      <trkpt lat="49.22519" lon="-0.29954">
        <ele>4.6</ele>
        <time>2023-05-04T08:50:23Z</time>
      </trkpt>
      <trkpt lat="49.22523" lon="-0.29945">
        <ele>4.6</ele>
        <time>2023-05-04T08:50:24Z</time>
      </trkpt>
      <trkpt lat="49.22527" lon="-0.29937">
        <ele>4.6</ele>
        <time>2023-05-04T08:50:25Z</time>
      </trkpt>
      <trkpt lat="49.22532" lon="-0.29929">
        <ele>4.8</ele>
        <time>2023-05-04T08:50:26Z</time>
      </trkpt>
      <trkpt lat="49.22536" lon="-0.2992">
        <ele>4.8</ele>
        <time>2023-05-04T08:50:27Z</time>
      </trkpt>
      <trkpt lat="49.2254" lon="-0.29912">
        <ele>4.6</ele>
        <time>2023-05-04T08:50:28Z</time>
      </trkpt>
      <trkpt lat="49.22545" lon="-0.29903">
        <ele>4.2</ele>
        <time>2023-05-04T08:50:29Z</time>
      </trkpt>
      <trkpt lat="49.22549" lon="-0.29894">
        <ele>4</ele>
        <time>2023-05-04T08:50:30Z</time>
      </trkpt>
      <trkpt lat="49.22553" lon="-0.29886">
        <ele>3.6</ele>
        <time>2023-05-04T08:50:31Z</time>
      </trkpt>
      <trkpt lat="49.22558" lon="-0.29877">
        <ele>3.2</ele>
        <time>2023-05-04T08:50:32Z</time>
      </trkpt>
      <trkpt lat="49.22562" lon="-0.29869">
        <ele>3</ele>
        <time>2023-05-04T08:50:33Z</time>
      </trkpt>
      <trkpt lat="49.22566" lon="-0.2986">
        <ele>2.6</ele>
        <time>2023-05-04T08:50:34Z</time>
      </trkpt>
      <trkpt lat="49.22571" lon="-0.29851">
        <ele>2.4</ele>
        <time>2023-05-04T08:50:35Z</time>
      </trkpt>
      <trkpt lat="49.22575" lon="-0.29843">
        <ele>2</ele>
        <time>2023-05-04T08:50:36Z</time>
      </trkpt>
      <trkpt lat="49.22579" lon="-0.29834">
        <ele>1.8</ele>
        <time>2023-05-04T08:50:37Z</time>
      </trkpt>
      <trkpt lat="49.22584" lon="-0.29826">
        <ele>1.6</ele>
        <time>2023-05-04T08:50:38Z</time>
      </trkpt>
      <trkpt lat="49.22588" lon="-0.29818">
        <ele>1.2</ele>
        <time>2023-05-04T08:50:39Z</time>
      </trkpt>
      <trkpt lat="49.22593" lon="-0.29809">
        <ele>1.2</ele>
        <time>2023-05-04T08:50:40Z</time>
      </trkpt>
      <trkpt lat="49.22597" lon="-0.29801">
        <ele>0.80000000000001</ele>
        <time>2023-05-04T08:50:41Z</time>
      </trkpt>
      <trkpt lat="49.22601" lon="-0.29792">
        <ele>0.60000000000002</ele>
        <time>2023-05-04T08:50:42Z</time>
      </trkpt>
      <trkpt lat="49.22605" lon="-0.29784">
        <ele>0.60000000000002</ele>
        <time>2023-05-04T08:50:43Z</time>
      </trkpt>
      <trkpt lat="49.22609" lon="-0.29775">
        <ele>0.39999999999998</ele>
        <time>2023-05-04T08:50:44Z</time>
      </trkpt>
      <trkpt lat="49.22614" lon="-0.29767">
        <ele>0.39999999999998</ele>
        <time>2023-05-04T08:50:45Z</time>
      </trkpt>
      <trkpt lat="49.22618" lon="-0.29758">
        <ele>0.19999999999999</ele>
        <time>2023-05-04T08:50:46Z</time>
      </trkpt>
      <trkpt lat="49.22622" lon="-0.2975">
        <ele>0.19999999999999</ele>
        <time>2023-05-04T08:50:47Z</time>
      </trkpt>
      <trkpt lat="49.22626" lon="-0.29741">
        <ele>0.39999999999998</ele>
        <time>2023-05-04T08:50:48Z</time>
      </trkpt>
      <trkpt lat="49.22631" lon="-0.29733">
        <ele>0.60000000000002</ele>
        <time>2023-05-04T08:50:49Z</time>
      </trkpt>
      <trkpt lat="49.22635" lon="-0.29724">
        <ele>0.60000000000002</ele>
        <time>2023-05-04T08:50:50Z</time>
      </trkpt>
      <trkpt lat="49.22639" lon="-0.29716">
        <ele>0.80000000000001</ele>
        <time>2023-05-04T08:50:51Z</time>
      </trkpt>
      <trkpt lat="49.22643" lon="-0.29707">
        <ele>1</ele>
        <time>2023-05-04T08:50:52Z</time>
      </trkpt>
      <trkpt lat="49.22648" lon="-0.29699">
        <ele>1.2</ele>
        <time>2023-05-04T08:50:53Z</time>
      </trkpt>
      <trkpt lat="49.22652" lon="-0.2969">
        <ele>1.2</ele>
        <time>2023-05-04T08:50:54Z</time>
      </trkpt>
      <trkpt lat="49.22656" lon="-0.29682">
        <ele>1.6</ele>
        <time>2023-05-04T08:50:55Z</time>
      </trkpt>
      <trkpt lat="49.2266" lon="-0.29673">
        <ele>1.6</ele>
        <time>2023-05-04T08:50:56Z</time>
      </trkpt>
      <trkpt lat="49.22664" lon="-0.29665">
        <ele>1.8</ele>
        <time>2023-05-04T08:50:57Z</time>
      </trkpt>
      <trkpt lat="49.22669" lon="-0.29656">
        <ele>1.8</ele>
        <time>2023-05-04T08:50:58Z</time>
      </trkpt>
      <trkpt lat="49.22673" lon="-0.29648">
        <ele>1.8</ele>
        <time>2023-05-04T08:50:59Z</time>
      </trkpt>
      <trkpt lat="49.22677" lon="-0.2964">
        <ele>1.8</ele>
        <time>2023-05-04T08:51:00Z</time>
      </trkpt>
      <trkpt lat="49.22682" lon="-0.29631">
        <ele>1.8</ele>
        <time>2023-05-04T08:51:01Z</time>
      </trkpt>
      <trkpt lat="49.22686" lon="-0.29623">
        <ele>1.8</ele>
        <time>2023-05-04T08:51:02Z</time>
      </trkpt>
      <trkpt lat="49.2269" lon="-0.29615">
        <ele>1.8</ele>
        <time>2023-05-04T08:51:03Z</time>
      </trkpt>
      <trkpt lat="49.22694" lon="-0.29606">
        <ele>1.8</ele>
        <time>2023-05-04T08:51:04Z</time>
      </trkpt>
      <trkpt lat="49.22698" lon="-0.29598">
        <ele>1.8</ele>
        <time>2023-05-04T08:51:05Z</time>
      </trkpt>
      <trkpt lat="49.22703" lon="-0.2959">
        <ele>1.8</ele>
        <time>2023-05-04T08:51:06Z</time>
      </trkpt>
      <trkpt lat="49.22707" lon="-0.29581">
        <ele>1.8</ele>
        <time>2023-05-04T08:51:07Z</time>
      </trkpt>
      <trkpt lat="49.22711" lon="-0.29573">
        <ele>1.8</ele>
        <time>2023-05-04T08:51:08Z</time>
      </trkpt>
      <trkpt lat="49.22715" lon="-0.29565">
        <ele>1.8</ele>
        <time>2023-05-04T08:51:09Z</time>
      </trkpt>
      <trkpt lat="49.22719" lon="-0.29557">
        <ele>1.6</ele>
        <time>2023-05-04T08:51:10Z</time>
      </trkpt>
      <trkpt lat="49.22723" lon="-0.29548">
        <ele>1.6</ele>
        <time>2023-05-04T08:51:11Z</time>
      </trkpt>
      <trkpt lat="49.22728" lon="-0.2954">
        <ele>1.4</ele>
        <time>2023-05-04T08:51:12Z</time>
      </trkpt>
      <trkpt lat="49.22732" lon="-0.29532">
        <ele>1.4</ele>
        <time>2023-05-04T08:51:13Z</time>
      </trkpt>
      <trkpt lat="49.22736" lon="-0.29523">
        <ele>1.2</ele>
        <time>2023-05-04T08:51:14Z</time>
      </trkpt>
      <trkpt lat="49.2274" lon="-0.29515">
        <ele>1.2</ele>
        <time>2023-05-04T08:51:15Z</time>
      </trkpt>
      <trkpt lat="49.22745" lon="-0.29507">
        <ele>1</ele>
        <time>2023-05-04T08:51:16Z</time>
      </trkpt>
      <trkpt lat="49.22749" lon="-0.29498">
        <ele>0.80000000000001</ele>
        <time>2023-05-04T08:51:17Z</time>
      </trkpt>
      <trkpt lat="49.22754" lon="-0.2949">
        <ele>1.2</ele>
        <time>2023-05-04T08:51:18Z</time>
      </trkpt>
      <trkpt lat="49.22758" lon="-0.29481">
        <ele>1.6</ele>
        <time>2023-05-04T08:51:19Z</time>
      </trkpt>
      <trkpt lat="49.22763" lon="-0.29473">
        <ele>1.8</ele>
        <time>2023-05-04T08:51:20Z</time>
      </trkpt>
      <trkpt lat="49.22767" lon="-0.29464">
        <ele>2</ele>
        <time>2023-05-04T08:51:21Z</time>
      </trkpt>
      <trkpt lat="49.22771" lon="-0.29456">
        <ele>2.2</ele>
        <time>2023-05-04T08:51:22Z</time>
      </trkpt>
      <trkpt lat="49.22776" lon="-0.29447">
        <ele>2.6</ele>
        <time>2023-05-04T08:51:23Z</time>
      </trkpt>
      <trkpt lat="49.2278" lon="-0.29439">
        <ele>2.8</ele>
        <time>2023-05-04T08:51:24Z</time>
      </trkpt>
      <trkpt lat="49.22784" lon="-0.2943">
        <ele>3</ele>
        <time>2023-05-04T08:51:25Z</time>
      </trkpt>
      <trkpt lat="49.22789" lon="-0.29422">
        <ele>3.2</ele>
        <time>2023-05-04T08:51:26Z</time>
      </trkpt>
      <trkpt lat="49.22793" lon="-0.29413">
        <ele>3.6</ele>
        <time>2023-05-04T08:51:27Z</time>
      </trkpt>
      <trkpt lat="49.22797" lon="-0.29405">
        <ele>3.8</ele>
        <time>2023-05-04T08:51:28Z</time>
      </trkpt>
      <trkpt lat="49.22801" lon="-0.29396">
        <ele>4</ele>
        <time>2023-05-04T08:51:29Z</time>
      </trkpt>
      <trkpt lat="49.22806" lon="-0.29388">
        <ele>4.2</ele>
        <time>2023-05-04T08:51:30Z</time>
      </trkpt>
      <trkpt lat="49.2281" lon="-0.2938">
        <ele>4.4</ele>
        <time>2023-05-04T08:51:31Z</time>
      </trkpt>
      <trkpt lat="49.22814" lon="-0.29371">
        <ele>4.4</ele>
        <time>2023-05-04T08:51:32Z</time>
      </trkpt>
      <trkpt lat="49.22819" lon="-0.29363">
        <ele>4.4</ele>
        <time>2023-05-04T08:51:33Z</time>
      </trkpt>
      <trkpt lat="49.22823" lon="-0.29354">
        <ele>4.4</ele>
        <time>2023-05-04T08:51:34Z</time>
      </trkpt>
      <trkpt lat="49.22827" lon="-0.29346">
        <ele>4.2</ele>
        <time>2023-05-04T08:51:35Z</time>
      </trkpt>
      <trkpt lat="49.22832" lon="-0.29337">
        <ele>4</ele>
        <time>2023-05-04T08:51:36Z</time>
      </trkpt>
      <trkpt lat="49.22836" lon="-0.29329">
        <ele>4</ele>
        <time>2023-05-04T08:51:37Z</time>
      </trkpt>
      <trkpt lat="49.2284" lon="-0.2932">
        <ele>4.4</ele>
        <time>2023-05-04T08:51:38Z</time>
      </trkpt>
      <trkpt lat="49.22845" lon="-0.29312">
        <ele>4.4</ele>
        <time>2023-05-04T08:51:39Z</time>
      </trkpt>
      <trkpt lat="49.22849" lon="-0.29303">
        <ele>4.6</ele>
        <time>2023-05-04T08:51:40Z</time>
      </trkpt>
      <trkpt lat="49.22853" lon="-0.29295">
        <ele>4.6</ele>
        <time>2023-05-04T08:51:41Z</time>
      </trkpt>
      <trkpt lat="49.22858" lon="-0.29286">
        <ele>4.6</ele>
        <time>2023-05-04T08:51:42Z</time>
      </trkpt>
      <trkpt lat="49.22862" lon="-0.29278">
        <ele>4.6</ele>
        <time>2023-05-04T08:51:43Z</time>
      </trkpt>
      <trkpt lat="49.22866" lon="-0.29269">
        <ele>4.6</ele>
        <time>2023-05-04T08:51:44Z</time>
      </trkpt>
      <trkpt lat="49.22871" lon="-0.29261">
        <ele>4.6</ele>
        <time>2023-05-04T08:51:45Z</time>
      </trkpt>
      <trkpt lat="49.22875" lon="-0.29252">
        <ele>4.6</ele>
        <time>2023-05-04T08:51:46Z</time>
      </trkpt>
      <trkpt lat="49.22879" lon="-0.29244">
        <ele>4.6</ele>
        <time>2023-05-04T08:51:47Z</time>
      </trkpt>
      <trkpt lat="49.22884" lon="-0.29235">
        <ele>4.6</ele>
        <time>2023-05-04T08:51:48Z</time>
      </trkpt>
      <trkpt lat="49.22888" lon="-0.29227">
        <ele>4.8</ele>
        <time>2023-05-04T08:51:49Z</time>
      </trkpt>
      <trkpt lat="49.22892" lon="-0.29218">
        <ele>5</ele>
        <time>2023-05-04T08:51:50Z</time>
      </trkpt>
      <trkpt lat="49.22897" lon="-0.2921">
        <ele>5</ele>
        <time>2023-05-04T08:51:51Z</time>
      </trkpt>
      <trkpt lat="49.22901" lon="-0.29201">
        <ele>5</ele>
        <time>2023-05-04T08:51:52Z</time>
      </trkpt>
      <trkpt lat="49.22905" lon="-0.29193">
        <ele>5</ele>
        <time>2023-05-04T08:51:53Z</time>
      </trkpt>
      <trkpt lat="49.2291" lon="-0.29184">
        <ele>5</ele>
        <time>2023-05-04T08:51:54Z</time>
      </trkpt>
      <trkpt lat="49.22914" lon="-0.29176">
        <ele>5</ele>
        <time>2023-05-04T08:51:55Z</time>
      </trkpt>
      <trkpt lat="49.22918" lon="-0.29167">
        <ele>5</ele>
        <time>2023-05-04T08:51:56Z</time>
      </trkpt>
      <trkpt lat="49.22923" lon="-0.29159">
        <ele>5.4</ele>
        <time>2023-05-04T08:51:57Z</time>
      </trkpt>
      <trkpt lat="49.22927" lon="-0.2915">
        <ele>5.6</ele>
        <time>2023-05-04T08:51:58Z</time>
      </trkpt>
      <trkpt lat="49.22931" lon="-0.29142">
        <ele>6</ele>
        <time>2023-05-04T08:51:59Z</time>
      </trkpt>
      <trkpt lat="49.22936" lon="-0.29134">
        <ele>6.2</ele>
        <time>2023-05-04T08:52:00Z</time>
      </trkpt>
      <trkpt lat="49.2294" lon="-0.29125">
        <ele>6.4</ele>
        <time>2023-05-04T08:52:01Z</time>
      </trkpt>
      <trkpt lat="49.22944" lon="-0.29117">
        <ele>6.6</ele>
        <time>2023-05-04T08:52:02Z</time>
      </trkpt>
      <trkpt lat="49.22949" lon="-0.29109">
        <ele>7</ele>
        <time>2023-05-04T08:52:03Z</time>
      </trkpt>
      <trkpt lat="49.22953" lon="-0.291">
        <ele>7</ele>
        <time>2023-05-04T08:52:04Z</time>
      </trkpt>
      <trkpt lat="49.22957" lon="-0.29092">
        <ele>7.2</ele>
        <time>2023-05-04T08:52:05Z</time>
      </trkpt>
      <trkpt lat="49.22961" lon="-0.29084">
        <ele>7.4</ele>
        <time>2023-05-04T08:52:06Z</time>
      </trkpt>
      <trkpt lat="49.22966" lon="-0.29076">
        <ele>7.2</ele>
        <time>2023-05-04T08:52:07Z</time>
      </trkpt>
      <trkpt lat="49.2297" lon="-0.29068">
        <ele>7</ele>
        <time>2023-05-04T08:52:08Z</time>
      </trkpt>
      <trkpt lat="49.22974" lon="-0.29059">
        <ele>7</ele>
        <time>2023-05-04T08:52:09Z</time>
      </trkpt>
      <trkpt lat="49.22978" lon="-0.29051">
        <ele>7</ele>
        <time>2023-05-04T08:52:10Z</time>
      </trkpt>
      <trkpt lat="49.22982" lon="-0.29043">
        <ele>6.8</ele>
        <time>2023-05-04T08:52:11Z</time>
      </trkpt>
      <trkpt lat="49.22986" lon="-0.29035">
        <ele>6.8</ele>
        <time>2023-05-04T08:52:12Z</time>
      </trkpt>
      <trkpt lat="49.2299" lon="-0.29027">
        <ele>6.8</ele>
        <time>2023-05-04T08:52:13Z</time>
      </trkpt>
      <trkpt lat="49.22994" lon="-0.29019">
        <ele>6.8</ele>
        <time>2023-05-04T08:52:14Z</time>
      </trkpt>
      <trkpt lat="49.22999" lon="-0.2901">
        <ele>7</ele>
        <time>2023-05-04T08:52:15Z</time>
      </trkpt>
      <trkpt lat="49.23003" lon="-0.29002">
        <ele>7</ele>
        <time>2023-05-04T08:52:16Z</time>
      </trkpt>
      <trkpt lat="49.23007" lon="-0.28994">
        <ele>6.6</ele>
        <time>2023-05-04T08:52:17Z</time>
      </trkpt>
      <trkpt lat="49.23011" lon="-0.28986">
        <ele>6.6</ele>
        <time>2023-05-04T08:52:18Z</time>
      </trkpt>
      <trkpt lat="49.23015" lon="-0.28978">
        <ele>6.4</ele>
        <time>2023-05-04T08:52:19Z</time>
      </trkpt>
      <trkpt lat="49.23019" lon="-0.2897">
        <ele>6</ele>
        <time>2023-05-04T08:52:20Z</time>
      </trkpt>
      <trkpt lat="49.23023" lon="-0.28962">
        <ele>5.8</ele>
        <time>2023-05-04T08:52:21Z</time>
      </trkpt>
      <trkpt lat="49.23027" lon="-0.28954">
        <ele>5.6</ele>
        <time>2023-05-04T08:52:22Z</time>
      </trkpt>
      <trkpt lat="49.23031" lon="-0.28946">
        <ele>5.6</ele>
        <time>2023-05-04T08:52:23Z</time>
      </trkpt>
      <trkpt lat="49.23035" lon="-0.28937">
        <ele>5.4</ele>
        <time>2023-05-04T08:52:24Z</time>
      </trkpt>
      <trkpt lat="49.23039" lon="-0.28929">
        <ele>5</ele>
        <time>2023-05-04T08:52:25Z</time>
      </trkpt>
      <trkpt lat="49.23043" lon="-0.28921">
        <ele>5</ele>
        <time>2023-05-04T08:52:26Z</time>
      </trkpt>
      <trkpt lat="49.23047" lon="-0.28913">
        <ele>5</ele>
        <time>2023-05-04T08:52:27Z</time>
      </trkpt>
      <trkpt lat="49.23051" lon="-0.28905">
        <ele>5</ele>
        <time>2023-05-04T08:52:28Z</time>
      </trkpt>
      <trkpt lat="49.23055" lon="-0.28897">
        <ele>5</ele>
        <time>2023-05-04T08:52:29Z</time>
      </trkpt>
      <trkpt lat="49.23059" lon="-0.28889">
        <ele>5</ele>
        <time>2023-05-04T08:52:30Z</time>
      </trkpt>
      <trkpt lat="49.23064" lon="-0.28881">
        <ele>4.8</ele>
        <time>2023-05-04T08:52:31Z</time>
      </trkpt>
      <trkpt lat="49.23068" lon="-0.28872">
        <ele>4.6</ele>
        <time>2023-05-04T08:52:32Z</time>
      </trkpt>
      <trkpt lat="49.23072" lon="-0.28864">
        <ele>4.6</ele>
        <time>2023-05-04T08:52:33Z</time>
      </trkpt>
      <trkpt lat="49.23076" lon="-0.28856">
        <ele>4.4</ele>
        <time>2023-05-04T08:52:34Z</time>
      </trkpt>
      <trkpt lat="49.23081" lon="-0.28848">
        <ele>4.2</ele>
        <time>2023-05-04T08:52:35Z</time>
      </trkpt>
      <trkpt lat="49.23085" lon="-0.28839">
        <ele>4</ele>
        <time>2023-05-04T08:52:36Z</time>
      </trkpt>
      <trkpt lat="49.23089" lon="-0.28831">
        <ele>4</ele>
        <time>2023-05-04T08:52:37Z</time>
      </trkpt>
      <trkpt lat="49.23093" lon="-0.28822">
        <ele>4.2</ele>
        <time>2023-05-04T08:52:38Z</time>
      </trkpt>
      <trkpt lat="49.23098" lon="-0.28814">
        <ele>4.4</ele>
        <time>2023-05-04T08:52:39Z</time>
      </trkpt>
      <trkpt lat="49.23102" lon="-0.28806">
        <ele>4.4</ele>
        <time>2023-05-04T08:52:40Z</time>
      </trkpt>
      <trkpt lat="49.23106" lon="-0.28797">
        <ele>4.6</ele>
        <time>2023-05-04T08:52:41Z</time>
      </trkpt>
      <trkpt lat="49.2311" lon="-0.28789">
        <ele>4.6</ele>
        <time>2023-05-04T08:52:42Z</time>
      </trkpt>
      <trkpt lat="49.23114" lon="-0.28781">
        <ele>4.6</ele>
        <time>2023-05-04T08:52:43Z</time>
      </trkpt>
      <trkpt lat="49.23119" lon="-0.28772">
        <ele>4.6</ele>
        <time>2023-05-04T08:52:44Z</time>
      </trkpt>
      <trkpt lat="49.23123" lon="-0.28764">
        <ele>4.6</ele>
        <time>2023-05-04T08:52:45Z</time>
      </trkpt>
      <trkpt lat="49.23127" lon="-0.28756">
        <ele>4.6</ele>
        <time>2023-05-04T08:52:46Z</time>
      </trkpt>
      <trkpt lat="49.23132" lon="-0.28748">
        <ele>4.4</ele>
        <time>2023-05-04T08:52:47Z</time>
      </trkpt>
      <trkpt lat="49.23136" lon="-0.28739">
        <ele>4.4</ele>
        <time>2023-05-04T08:52:48Z</time>
      </trkpt>
      <trkpt lat="49.2314" lon="-0.28731">
        <ele>4.4</ele>
        <time>2023-05-04T08:52:49Z</time>
      </trkpt>
      <trkpt lat="49.23144" lon="-0.28723">
        <ele>4.4</ele>
        <time>2023-05-04T08:52:50Z</time>
      </trkpt>
      <trkpt lat="49.23148" lon="-0.28715">
        <ele>4.6</ele>
        <time>2023-05-04T08:52:51Z</time>
      </trkpt>
      <trkpt lat="49.23153" lon="-0.28707">
        <ele>4.6</ele>
        <time>2023-05-04T08:52:52Z</time>
      </trkpt>
      <trkpt lat="49.23157" lon="-0.28699">
        <ele>4.6</ele>
        <time>2023-05-04T08:52:53Z</time>
      </trkpt>
      <trkpt lat="49.23161" lon="-0.28691">
        <ele>4.6</ele>
        <time>2023-05-04T08:52:54Z</time>
      </trkpt>
      <trkpt lat="49.23165" lon="-0.28683">
        <ele>4.8</ele>
        <time>2023-05-04T08:52:55Z</time>
      </trkpt>
      <trkpt lat="49.23169" lon="-0.28675">
        <ele>5</ele>
        <time>2023-05-04T08:52:56Z</time>
      </trkpt>
      <trkpt lat="49.23173" lon="-0.28667">
        <ele>5</ele>
        <time>2023-05-04T08:52:57Z</time>
      </trkpt>
      <trkpt lat="49.23177" lon="-0.28659">
        <ele>5</ele>
        <time>2023-05-04T08:52:58Z</time>
      </trkpt>
      <trkpt lat="49.23181" lon="-0.28651">
        <ele>5.4</ele>
        <time>2023-05-04T08:52:59Z</time>
      </trkpt>
      <trkpt lat="49.23185" lon="-0.28643">
        <ele>5.4</ele>
        <time>2023-05-04T08:53:00Z</time>
      </trkpt>
      <trkpt lat="49.23189" lon="-0.28635">
        <ele>5.6</ele>
        <time>2023-05-04T08:53:01Z</time>
      </trkpt>
      <trkpt lat="49.23193" lon="-0.28627">
        <ele>5.6</ele>
        <time>2023-05-04T08:53:02Z</time>
      </trkpt>
      <trkpt lat="49.23197" lon="-0.28619">
        <ele>5.6</ele>
        <time>2023-05-04T08:53:03Z</time>
      </trkpt>
      <trkpt lat="49.23201" lon="-0.28611">
        <ele>5.6</ele>
        <time>2023-05-04T08:53:04Z</time>
      </trkpt>
      <trkpt lat="49.23205" lon="-0.28603">
        <ele>5.6</ele>
        <time>2023-05-04T08:53:05Z</time>
      </trkpt>
      <trkpt lat="49.23209" lon="-0.28595">
        <ele>5.4</ele>
        <time>2023-05-04T08:53:06Z</time>
      </trkpt>
      <trkpt lat="49.23213" lon="-0.28587">
        <ele>5.4</ele>
        <time>2023-05-04T08:53:07Z</time>
      </trkpt>
      <trkpt lat="49.23217" lon="-0.28579">
        <ele>5</ele>
        <time>2023-05-04T08:53:08Z</time>
      </trkpt>
      <trkpt lat="49.23222" lon="-0.28571">
        <ele>4.8</ele>
        <time>2023-05-04T08:53:09Z</time>
      </trkpt>
      <trkpt lat="49.23226" lon="-0.28563">
        <ele>4.6</ele>
        <time>2023-05-04T08:53:10Z</time>
      </trkpt>
      <trkpt lat="49.2323" lon="-0.28555">
        <ele>4.4</ele>
        <time>2023-05-04T08:53:11Z</time>
      </trkpt>
      <trkpt lat="49.23234" lon="-0.28547">
        <ele>4</ele>
        <time>2023-05-04T08:53:12Z</time>
      </trkpt>
      <trkpt lat="49.23239" lon="-0.28539">
        <ele>3.8</ele>
        <time>2023-05-04T08:53:13Z</time>
      </trkpt>
      <trkpt lat="49.23243" lon="-0.28531">
        <ele>3.6</ele>
        <time>2023-05-04T08:53:14Z</time>
      </trkpt>
      <trkpt lat="49.23248" lon="-0.28524">
        <ele>3.4</ele>
        <time>2023-05-04T08:53:15Z</time>
      </trkpt>
      <trkpt lat="49.23252" lon="-0.28516">
        <ele>3.4</ele>
        <time>2023-05-04T08:53:16Z</time>
      </trkpt>
      <trkpt lat="49.23256" lon="-0.28508">
        <ele>3.8</ele>
        <time>2023-05-04T08:53:17Z</time>
      </trkpt>
      <trkpt lat="49.23261" lon="-0.28501">
        <ele>4</ele>
        <time>2023-05-04T08:53:18Z</time>
      </trkpt>
      <trkpt lat="49.23265" lon="-0.28493">
        <ele>4.6</ele>
        <time>2023-05-04T08:53:19Z</time>
      </trkpt>
      <trkpt lat="49.2327" lon="-0.28486">
        <ele>5</ele>
        <time>2023-05-04T08:53:20Z</time>
      </trkpt>
      <trkpt lat="49.23274" lon="-0.28478">
        <ele>5.4</ele>
        <time>2023-05-04T08:53:21Z</time>
      </trkpt>
      <trkpt lat="49.23279" lon="-0.28471">
        <ele>5.8</ele>
        <time>2023-05-04T08:53:22Z</time>
      </trkpt>
      <trkpt lat="49.23283" lon="-0.28464">
        <ele>6</ele>
        <time>2023-05-04T08:53:23Z</time>
      </trkpt>
      <trkpt lat="49.23288" lon="-0.28456">
        <ele>6.4</ele>
        <time>2023-05-04T08:53:24Z</time>
      </trkpt>
      <trkpt lat="49.23292" lon="-0.28448">
        <ele>6.6</ele>
        <time>2023-05-04T08:53:25Z</time>
      </trkpt>
      <trkpt lat="49.23296" lon="-0.28441">
        <ele>7</ele>
        <time>2023-05-04T08:53:26Z</time>
      </trkpt>
      <trkpt lat="49.23301" lon="-0.28433">
        <ele>7.2</ele>
        <time>2023-05-04T08:53:27Z</time>
      </trkpt>
      <trkpt lat="49.23305" lon="-0.28426">
        <ele>7.4</ele>
        <time>2023-05-04T08:53:28Z</time>
      </trkpt>
      <trkpt lat="49.23309" lon="-0.28418">
        <ele>7.6</ele>
        <time>2023-05-04T08:53:29Z</time>
      </trkpt>
      <trkpt lat="49.23314" lon="-0.28411">
        <ele>8</ele>
        <time>2023-05-04T08:53:30Z</time>
      </trkpt>
      <trkpt lat="49.23318" lon="-0.28403">
        <ele>8.2</ele>
        <time>2023-05-04T08:53:31Z</time>
      </trkpt>
      <trkpt lat="49.23322" lon="-0.28396">
        <ele>8.6</ele>
        <time>2023-05-04T08:53:32Z</time>
      </trkpt>
      <trkpt lat="49.23327" lon="-0.28388">
        <ele>8.6</ele>
        <time>2023-05-04T08:53:33Z</time>
      </trkpt>
      <trkpt lat="49.23331" lon="-0.28381">
        <ele>8.8</ele>
        <time>2023-05-04T08:53:34Z</time>
      </trkpt>
      <trkpt lat="49.23336" lon="-0.28373">
        <ele>9.2</ele>
        <time>2023-05-04T08:53:35Z</time>
      </trkpt>
      <trkpt lat="49.23341" lon="-0.28366">
        <ele>9.4</ele>
        <time>2023-05-04T08:53:36Z</time>
      </trkpt>
      <trkpt lat="49.23345" lon="-0.28358">
        <ele>9.4</ele>
        <time>2023-05-04T08:53:37Z</time>
      </trkpt>
      <trkpt lat="49.23349" lon="-0.28351">
        <ele>9.6</ele>
        <time>2023-05-04T08:53:38Z</time>
      </trkpt>
      <trkpt lat="49.23354" lon="-0.28343">
        <ele>9.6</ele>
        <time>2023-05-04T08:53:39Z</time>
      </trkpt>
      <trkpt lat="49.23358" lon="-0.28336">
        <ele>9.8</ele>
        <time>2023-05-04T08:53:40Z</time>
      </trkpt>
      <trkpt lat="49.23362" lon="-0.28329">
        <ele>9.8</ele>
        <time>2023-05-04T08:53:41Z</time>
      </trkpt>
      <trkpt lat="49.23367" lon="-0.28322">
        <ele>9.8</ele>
        <time>2023-05-04T08:53:42Z</time>
      </trkpt>
      <trkpt lat="49.23371" lon="-0.28314">
        <ele>10</ele>
        <time>2023-05-04T08:53:43Z</time>
      </trkpt>
      <trkpt lat="49.23376" lon="-0.28307">
        <ele>10.2</ele>
        <time>2023-05-04T08:53:44Z</time>
      </trkpt>
      <trkpt lat="49.2338" lon="-0.283">
        <ele>10.2</ele>
        <time>2023-05-04T08:53:45Z</time>
      </trkpt>
      <trkpt lat="49.23385" lon="-0.28292">
        <ele>10.4</ele>
        <time>2023-05-04T08:53:46Z</time>
      </trkpt>
      <trkpt lat="49.23389" lon="-0.28285">
        <ele>10.4</ele>
        <time>2023-05-04T08:53:47Z</time>
      </trkpt>
      <trkpt lat="49.23394" lon="-0.28278">
        <ele>10.6</ele>
        <time>2023-05-04T08:53:48Z</time>
      </trkpt>
      <trkpt lat="49.23399" lon="-0.2827">
        <ele>10.8</ele>
        <time>2023-05-04T08:53:49Z</time>
      </trkpt>
      <trkpt lat="49.23403" lon="-0.28263">
        <ele>11.2</ele>
        <time>2023-05-04T08:53:50Z</time>
      </trkpt>
      <trkpt lat="49.23408" lon="-0.28255">
        <ele>11.4</ele>
        <time>2023-05-04T08:53:51Z</time>
      </trkpt>
      <trkpt lat="49.23413" lon="-0.28248">
        <ele>11.6</ele>
        <time>2023-05-04T08:53:52Z</time>
      </trkpt>
      <trkpt lat="49.23418" lon="-0.28241">
        <ele>11.8</ele>
        <time>2023-05-04T08:53:53Z</time>
      </trkpt>
      <trkpt lat="49.23423" lon="-0.28233">
        <ele>11.8</ele>
        <time>2023-05-04T08:53:54Z</time>
      </trkpt>
      <trkpt lat="49.23427" lon="-0.28226">
        <ele>11.6</ele>
        <time>2023-05-04T08:53:55Z</time>
      </trkpt>
      <trkpt lat="49.23432" lon="-0.28219">
        <ele>11.6</ele>
        <time>2023-05-04T08:53:56Z</time>
      </trkpt>
      <trkpt lat="49.23437" lon="-0.28211">
        <ele>11.6</ele>
        <time>2023-05-04T08:53:57Z</time>
      </trkpt>
      <trkpt lat="49.23442" lon="-0.28204">
        <ele>11.4</ele>
        <time>2023-05-04T08:53:58Z</time>
      </trkpt>
      <trkpt lat="49.23448" lon="-0.28197">
        <ele>11.2</ele>
        <time>2023-05-04T08:53:59Z</time>
      </trkpt>
      <trkpt lat="49.23453" lon="-0.2819">
        <ele>10.8</ele>
        <time>2023-05-04T08:54:00Z</time>
      </trkpt>
      <trkpt lat="49.23458" lon="-0.28183">
        <ele>10.6</ele>
        <time>2023-05-04T08:54:01Z</time>
      </trkpt>
      <trkpt lat="49.23464" lon="-0.28176">
        <ele>10.4</ele>
        <time>2023-05-04T08:54:02Z</time>
      </trkpt>
      <trkpt lat="49.23469" lon="-0.28169">
        <ele>10.2</ele>
        <time>2023-05-04T08:54:03Z</time>
      </trkpt>
      <trkpt lat="49.23475" lon="-0.28162">
        <ele>9.8</ele>
        <time>2023-05-04T08:54:04Z</time>
      </trkpt>
      <trkpt lat="49.2348" lon="-0.28155">
        <ele>9.6</ele>
        <time>2023-05-04T08:54:05Z</time>
      </trkpt>
      <trkpt lat="49.23485" lon="-0.28148">
        <ele>9.2</ele>
        <time>2023-05-04T08:54:06Z</time>
      </trkpt>
      <trkpt lat="49.23491" lon="-0.28142">
        <ele>8.8</ele>
        <time>2023-05-04T08:54:07Z</time>
      </trkpt>
      <trkpt lat="49.23496" lon="-0.28135">
        <ele>8.6</ele>
        <time>2023-05-04T08:54:08Z</time>
      </trkpt>
      <trkpt lat="49.23502" lon="-0.28128">
        <ele>8.4</ele>
        <time>2023-05-04T08:54:09Z</time>
      </trkpt>
      <trkpt lat="49.23508" lon="-0.28122">
        <ele>8.4</ele>
        <time>2023-05-04T08:54:10Z</time>
      </trkpt>
      <trkpt lat="49.23514" lon="-0.28115">
        <ele>8.4</ele>
        <time>2023-05-04T08:54:11Z</time>
      </trkpt>
      <trkpt lat="49.2352" lon="-0.28109">
        <ele>8.4</ele>
        <time>2023-05-04T08:54:12Z</time>
      </trkpt>
      <trkpt lat="49.23527" lon="-0.28104">
        <ele>8.6</ele>
        <time>2023-05-04T08:54:13Z</time>
      </trkpt>
      <trkpt lat="49.23534" lon="-0.28098">
        <ele>8.6</ele>
        <time>2023-05-04T08:54:14Z</time>
      </trkpt>
      <trkpt lat="49.2354" lon="-0.28092">
        <ele>8.8</ele>
        <time>2023-05-04T08:54:15Z</time>
      </trkpt>
      <trkpt lat="49.23547" lon="-0.28086">
        <ele>8.8</ele>
        <time>2023-05-04T08:54:16Z</time>
      </trkpt>
      <trkpt lat="49.23553" lon="-0.28079">
        <ele>8.8</ele>
        <time>2023-05-04T08:54:17Z</time>
      </trkpt>
      <trkpt lat="49.23559" lon="-0.28072">
        <ele>8.8</ele>
        <time>2023-05-04T08:54:18Z</time>
      </trkpt>
      <trkpt lat="49.23566" lon="-0.28066">
        <ele>8.8</ele>
        <time>2023-05-04T08:54:19Z</time>
      </trkpt>
      <trkpt lat="49.23572" lon="-0.28059">
        <ele>8.6</ele>
        <time>2023-05-04T08:54:20Z</time>
      </trkpt>
      <trkpt lat="49.23578" lon="-0.28052">
        <ele>8.6</ele>
        <time>2023-05-04T08:54:21Z</time>
      </trkpt>
      <trkpt lat="49.23584" lon="-0.28045">
        <ele>8.2</ele>
        <time>2023-05-04T08:54:22Z</time>
      </trkpt>
      <trkpt lat="49.23591" lon="-0.28038">
        <ele>7.6</ele>
        <time>2023-05-04T08:54:23Z</time>
      </trkpt>
      <trkpt lat="49.23597" lon="-0.28032">
        <ele>7.4</ele>
        <time>2023-05-04T08:54:24Z</time>
      </trkpt>
      <trkpt lat="49.23603" lon="-0.28025">
        <ele>6.8</ele>
        <time>2023-05-04T08:54:25Z</time>
      </trkpt>
      <trkpt lat="49.23609" lon="-0.28018">
        <ele>6.4</ele>
        <time>2023-05-04T08:54:26Z</time>
      </trkpt>
      <trkpt lat="49.23616" lon="-0.28012">
        <ele>6</ele>
        <time>2023-05-04T08:54:27Z</time>
      </trkpt>
      <trkpt lat="49.23622" lon="-0.28005">
        <ele>5.6</ele>
        <time>2023-05-04T08:54:28Z</time>
      </trkpt>
      <trkpt lat="49.23628" lon="-0.27999">
        <ele>5.6</ele>
        <time>2023-05-04T08:54:29Z</time>
      </trkpt>
      <trkpt lat="49.23634" lon="-0.27992">
        <ele>5.6</ele>
        <time>2023-05-04T08:54:30Z</time>
      </trkpt>
      <trkpt lat="49.2364" lon="-0.27986">
        <ele>5.4</ele>
        <time>2023-05-04T08:54:31Z</time>
      </trkpt>
      <trkpt lat="49.23647" lon="-0.27979">
        <ele>5.4</ele>
        <time>2023-05-04T08:54:32Z</time>
      </trkpt>
      <trkpt lat="49.23653" lon="-0.27973">
        <ele>5.2</ele>
        <time>2023-05-04T08:54:33Z</time>
      </trkpt>
      <trkpt lat="49.23659" lon="-0.27967">
        <ele>5.2</ele>
        <time>2023-05-04T08:54:34Z</time>
      </trkpt>
      <trkpt lat="49.23666" lon="-0.27961">
        <ele>5</ele>
        <time>2023-05-04T08:54:35Z</time>
      </trkpt>
      <trkpt lat="49.23672" lon="-0.27955">
        <ele>5.2</ele>
        <time>2023-05-04T08:54:36Z</time>
      </trkpt>
      <trkpt lat="49.23679" lon="-0.2795">
        <ele>5.4</ele>
        <time>2023-05-04T08:54:37Z</time>
      </trkpt>
      <trkpt lat="49.23686" lon="-0.27944">
        <ele>5.6</ele>
        <time>2023-05-04T08:54:38Z</time>
      </trkpt>
      <trkpt lat="49.23692" lon="-0.27938">
        <ele>5.6</ele>
        <time>2023-05-04T08:54:39Z</time>
      </trkpt>
      <trkpt lat="49.23699" lon="-0.27933">
        <ele>5.8</ele>
        <time>2023-05-04T08:54:40Z</time>
      </trkpt>
      <trkpt lat="49.23705" lon="-0.27927">
        <ele>6</ele>
        <time>2023-05-04T08:54:41Z</time>
      </trkpt>
      <trkpt lat="49.23712" lon="-0.27922">
        <ele>6.2</ele>
        <time>2023-05-04T08:54:42Z</time>
      </trkpt>
      <trkpt lat="49.23718" lon="-0.27916">
        <ele>6.6</ele>
        <time>2023-05-04T08:54:43Z</time>
      </trkpt>
      <trkpt lat="49.23725" lon="-0.27911">
        <ele>7</ele>
        <time>2023-05-04T08:54:44Z</time>
      </trkpt>
      <trkpt lat="49.23731" lon="-0.27905">
        <ele>7.4</ele>
        <time>2023-05-04T08:54:45Z</time>
      </trkpt>
      <trkpt lat="49.23737" lon="-0.279">
        <ele>7.6</ele>
        <time>2023-05-04T08:54:46Z</time>
      </trkpt>
      <trkpt lat="49.23744" lon="-0.27895">
        <ele>8.2</ele>
        <time>2023-05-04T08:54:47Z</time>
      </trkpt>
      <trkpt lat="49.2375" lon="-0.2789">
        <ele>8.6</ele>
        <time>2023-05-04T08:54:48Z</time>
      </trkpt>
      <trkpt lat="49.23757" lon="-0.27884">
        <ele>8.6</ele>
        <time>2023-05-04T08:54:49Z</time>
      </trkpt>
      <trkpt lat="49.23763" lon="-0.27879">
        <ele>8.6</ele>
        <time>2023-05-04T08:54:50Z</time>
      </trkpt>
      <trkpt lat="49.2377" lon="-0.27874">
        <ele>8.6</ele>
        <time>2023-05-04T08:54:51Z</time>
      </trkpt>
      <trkpt lat="49.23776" lon="-0.27869">
        <ele>8.6</ele>
        <time>2023-05-04T08:54:52Z</time>
      </trkpt>
      <trkpt lat="49.23783" lon="-0.27864">
        <ele>8.4</ele>
        <time>2023-05-04T08:54:53Z</time>
      </trkpt>
      <trkpt lat="49.23789" lon="-0.27859">
        <ele>8.4</ele>
        <time>2023-05-04T08:54:54Z</time>
      </trkpt>
      <trkpt lat="49.23796" lon="-0.27854">
        <ele>8.2</ele>
        <time>2023-05-04T08:54:55Z</time>
      </trkpt>
      <trkpt lat="49.23802" lon="-0.27849">
        <ele>8</ele>
        <time>2023-05-04T08:54:56Z</time>
      </trkpt>
      <trkpt lat="49.23809" lon="-0.27844">
        <ele>7.8</ele>
        <time>2023-05-04T08:54:57Z</time>
      </trkpt>
      <trkpt lat="49.23815" lon="-0.27839">
        <ele>7.6</ele>
        <time>2023-05-04T08:54:58Z</time>
      </trkpt>
      <trkpt lat="49.23822" lon="-0.27834">
        <ele>7.4</ele>
        <time>2023-05-04T08:54:59Z</time>
      </trkpt>
      <trkpt lat="49.23828" lon="-0.27829">
        <ele>7.4</ele>
        <time>2023-05-04T08:55:00Z</time>
      </trkpt>
      <trkpt lat="49.23835" lon="-0.27824">
        <ele>7.2</ele>
        <time>2023-05-04T08:55:01Z</time>
      </trkpt>
      <trkpt lat="49.23841" lon="-0.2782">
        <ele>7</ele>
        <time>2023-05-04T08:55:02Z</time>
      </trkpt>
      <trkpt lat="49.23848" lon="-0.27815">
        <ele>7</ele>
        <time>2023-05-04T08:55:03Z</time>
      </trkpt>
      <trkpt lat="49.23854" lon="-0.2781">
        <ele>6.8</ele>
        <time>2023-05-04T08:55:04Z</time>
      </trkpt>
      <trkpt lat="49.23861" lon="-0.27805">
        <ele>6.6</ele>
        <time>2023-05-04T08:55:05Z</time>
      </trkpt>
      <trkpt lat="49.23867" lon="-0.278">
        <ele>6.6</ele>
        <time>2023-05-04T08:55:06Z</time>
      </trkpt>
      <trkpt lat="49.23873" lon="-0.27795">
        <ele>6.4</ele>
        <time>2023-05-04T08:55:07Z</time>
      </trkpt>
      <trkpt lat="49.2388" lon="-0.27791">
        <ele>6</ele>
        <time>2023-05-04T08:55:08Z</time>
      </trkpt>
      <trkpt lat="49.23886" lon="-0.27786">
        <ele>5.8</ele>
        <time>2023-05-04T08:55:09Z</time>
      </trkpt>
      <trkpt lat="49.23893" lon="-0.27782">
        <ele>5.6</ele>
        <time>2023-05-04T08:55:10Z</time>
      </trkpt>
      <trkpt lat="49.23899" lon="-0.27777">
        <ele>5.2</ele>
        <time>2023-05-04T08:55:11Z</time>
      </trkpt>
      <trkpt lat="49.23906" lon="-0.27772">
        <ele>4.8</ele>
        <time>2023-05-04T08:55:12Z</time>
      </trkpt>
      <trkpt lat="49.23913" lon="-0.27767">
        <ele>4.4</ele>
        <time>2023-05-04T08:55:13Z</time>
      </trkpt>
      <trkpt lat="49.23919" lon="-0.27762">
        <ele>4.2</ele>
        <time>2023-05-04T08:55:14Z</time>
      </trkpt>
      <trkpt lat="49.23925" lon="-0.27757">
        <ele>4.4</ele>
        <time>2023-05-04T08:55:15Z</time>
      </trkpt>
      <trkpt lat="49.23932" lon="-0.27752">
        <ele>4.6</ele>
        <time>2023-05-04T08:55:16Z</time>
      </trkpt>
      <trkpt lat="49.23938" lon="-0.27746">
        <ele>4.8</ele>
        <time>2023-05-04T08:55:17Z</time>
      </trkpt>
      <trkpt lat="49.23945" lon="-0.27741">
        <ele>5</ele>
        <time>2023-05-04T08:55:18Z</time>
      </trkpt>
      <trkpt lat="49.23951" lon="-0.27736">
        <ele>5.4</ele>
        <time>2023-05-04T08:55:19Z</time>
      </trkpt>
      <trkpt lat="49.23958" lon="-0.27731">
        <ele>5.6</ele>
        <time>2023-05-04T08:55:20Z</time>
      </trkpt>
      <trkpt lat="49.23965" lon="-0.27726">
        <ele>5.8</ele>
        <time>2023-05-04T08:55:21Z</time>
      </trkpt>
      <trkpt lat="49.23971" lon="-0.27721">
        <ele>6</ele>
        <time>2023-05-04T08:55:22Z</time>
      </trkpt>
      <trkpt lat="49.23978" lon="-0.27716">
        <ele>6</ele>
        <time>2023-05-04T08:55:23Z</time>
      </trkpt>
      <trkpt lat="49.23984" lon="-0.27712">
        <ele>6.2</ele>
        <time>2023-05-04T08:55:24Z</time>
      </trkpt>
      <trkpt lat="49.23991" lon="-0.27707">
        <ele>6.4</ele>
        <time>2023-05-04T08:55:25Z</time>
      </trkpt>
      <trkpt lat="49.23997" lon="-0.27702">
        <ele>6.4</ele>
        <time>2023-05-04T08:55:26Z</time>
      </trkpt>
      <trkpt lat="49.24004" lon="-0.27698">
        <ele>6.6</ele>
        <time>2023-05-04T08:55:27Z</time>
      </trkpt>
      <trkpt lat="49.2401" lon="-0.27693">
        <ele>6.6</ele>
        <time>2023-05-04T08:55:28Z</time>
      </trkpt>
      <trkpt lat="49.24017" lon="-0.27688">
        <ele>6.6</ele>
        <time>2023-05-04T08:55:29Z</time>
      </trkpt>
      <trkpt lat="49.24023" lon="-0.27683">
        <ele>6.6</ele>
        <time>2023-05-04T08:55:30Z</time>
      </trkpt>
      <trkpt lat="49.2403" lon="-0.27678">
        <ele>6.6</ele>
        <time>2023-05-04T08:55:31Z</time>
      </trkpt>
      <trkpt lat="49.24037" lon="-0.27673">
        <ele>6.6</ele>
        <time>2023-05-04T08:55:32Z</time>
      </trkpt>
      <trkpt lat="49.24043" lon="-0.27668">
        <ele>6.6</ele>
        <time>2023-05-04T08:55:33Z</time>
      </trkpt>
      <trkpt lat="49.2405" lon="-0.27663">
        <ele>6.6</ele>
        <time>2023-05-04T08:55:34Z</time>
      </trkpt>
      <trkpt lat="49.24057" lon="-0.27658">
        <ele>6.6</ele>
        <time>2023-05-04T08:55:35Z</time>
      </trkpt>
      <trkpt lat="49.24063" lon="-0.27653">
        <ele>6.8</ele>
        <time>2023-05-04T08:55:36Z</time>
      </trkpt>
      <trkpt lat="49.2407" lon="-0.27648">
        <ele>7</ele>
        <time>2023-05-04T08:55:37Z</time>
      </trkpt>
      <trkpt lat="49.24077" lon="-0.27643">
        <ele>7</ele>
        <time>2023-05-04T08:55:38Z</time>
      </trkpt>
      <trkpt lat="49.24084" lon="-0.27638">
        <ele>7</ele>
        <time>2023-05-04T08:55:39Z</time>
      </trkpt>
      <trkpt lat="49.2409" lon="-0.27633">
        <ele>7</ele>
        <time>2023-05-04T08:55:40Z</time>
      </trkpt>
      <trkpt lat="49.24097" lon="-0.27628">
        <ele>7</ele>
        <time>2023-05-04T08:55:41Z</time>
      </trkpt>
      <trkpt lat="49.24104" lon="-0.27623">
        <ele>7</ele>
        <time>2023-05-04T08:55:42Z</time>
      </trkpt>
      <trkpt lat="49.2411" lon="-0.27617">
        <ele>7</ele>
        <time>2023-05-04T08:55:43Z</time>
      </trkpt>
      <trkpt lat="49.24117" lon="-0.27613">
        <ele>7</ele>
        <time>2023-05-04T08:55:44Z</time>
      </trkpt>
      <trkpt lat="49.24123" lon="-0.27607">
        <ele>7</ele>
        <time>2023-05-04T08:55:45Z</time>
      </trkpt>
      <trkpt lat="49.24129" lon="-0.27602">
        <ele>6.8</ele>
        <time>2023-05-04T08:55:46Z</time>
      </trkpt>
      <trkpt lat="49.24136" lon="-0.27598">
        <ele>6.6</ele>
        <time>2023-05-04T08:55:47Z</time>
      </trkpt>
      <trkpt lat="49.24142" lon="-0.27593">
        <ele>6.6</ele>
        <time>2023-05-04T08:55:48Z</time>
      </trkpt>
      <trkpt lat="49.24148" lon="-0.27588">
        <ele>6.4</ele>
        <time>2023-05-04T08:55:49Z</time>
      </trkpt>
      <trkpt lat="49.24154" lon="-0.27582">
        <ele>6</ele>
        <time>2023-05-04T08:55:50Z</time>
      </trkpt>
      <trkpt lat="49.2416" lon="-0.27577">
        <ele>6</ele>
        <time>2023-05-04T08:55:51Z</time>
      </trkpt>
      <trkpt lat="49.24166" lon="-0.2757">
        <ele>5.6</ele>
        <time>2023-05-04T08:55:52Z</time>
      </trkpt>
      <trkpt lat="49.24171" lon="-0.27564">
        <ele>5.6</ele>
        <time>2023-05-04T08:55:53Z</time>
      </trkpt>
      <trkpt lat="49.24177" lon="-0.27557">
        <ele>5.6</ele>
        <time>2023-05-04T08:55:54Z</time>
      </trkpt>
      <trkpt lat="49.24181" lon="-0.2755">
        <ele>5.6</ele>
        <time>2023-05-04T08:55:55Z</time>
      </trkpt>
      <trkpt lat="49.24186" lon="-0.27542">
        <ele>5.4</ele>
        <time>2023-05-04T08:55:56Z</time>
      </trkpt>
      <trkpt lat="49.24191" lon="-0.27536">
        <ele>5.4</ele>
        <time>2023-05-04T08:55:57Z</time>
      </trkpt>
      <trkpt lat="49.24195" lon="-0.27529">
        <ele>5.2</ele>
        <time>2023-05-04T08:55:58Z</time>
      </trkpt>
      <trkpt lat="49.242" lon="-0.27523">
        <ele>5</ele>
        <time>2023-05-04T08:55:59Z</time>
      </trkpt>
      <trkpt lat="49.24204" lon="-0.27517">
        <ele>5</ele>
        <time>2023-05-04T08:56:00Z</time>
      </trkpt>
      <trkpt lat="49.24209" lon="-0.27513">
        <ele>5</ele>
        <time>2023-05-04T08:56:01Z</time>
      </trkpt>
      <trkpt lat="49.24214" lon="-0.27508">
        <ele>4.8</ele>
        <time>2023-05-04T08:56:02Z</time>
      </trkpt>
      <trkpt lat="49.24219" lon="-0.27505">
        <ele>4.8</ele>
        <time>2023-05-04T08:56:03Z</time>
      </trkpt>
      <trkpt lat="49.24224" lon="-0.27501">
        <ele>4.6</ele>
        <time>2023-05-04T08:56:04Z</time>
      </trkpt>
      <trkpt lat="49.24228" lon="-0.27498">
        <ele>4.6</ele>
        <time>2023-05-04T08:56:05Z</time>
      </trkpt>
      <trkpt lat="49.24233" lon="-0.27494">
        <ele>4.8</ele>
        <time>2023-05-04T08:56:06Z</time>
      </trkpt>
      <trkpt lat="49.24237" lon="-0.27491">
        <ele>5</ele>
        <time>2023-05-04T08:56:07Z</time>
      </trkpt>
      <trkpt lat="49.24241" lon="-0.27488">
        <ele>5</ele>
        <time>2023-05-04T08:56:08Z</time>
      </trkpt>
      <trkpt lat="49.24244" lon="-0.27485">
        <ele>5</ele>
        <time>2023-05-04T08:56:09Z</time>
      </trkpt>
      <trkpt lat="49.24247" lon="-0.27483">
        <ele>5</ele>
        <time>2023-05-04T08:56:10Z</time>
      </trkpt>
      <trkpt lat="49.2425" lon="-0.27482">
        <ele>5</ele>
        <time>2023-05-04T08:56:11Z</time>
      </trkpt>
      <trkpt lat="49.24253" lon="-0.2748">
        <ele>5</ele>
        <time>2023-05-04T08:56:12Z</time>
      </trkpt>
      <trkpt lat="49.24256" lon="-0.27479">
        <ele>4.8</ele>
        <time>2023-05-04T08:56:13Z</time>
      </trkpt>
      <trkpt lat="49.24258" lon="-0.27477">
        <ele>4.6</ele>
        <time>2023-05-04T08:56:14Z</time>
      </trkpt>
      <trkpt lat="49.24262" lon="-0.27475">
        <ele>4.6</ele>
        <time>2023-05-04T08:56:15Z</time>
      </trkpt>
      <trkpt lat="49.24265" lon="-0.27472">
        <ele>4.6</ele>
        <time>2023-05-04T08:56:16Z</time>
      </trkpt>
      <trkpt lat="49.24268" lon="-0.27469">
        <ele>4.4</ele>
        <time>2023-05-04T08:56:17Z</time>
      </trkpt>
      <trkpt lat="49.24272" lon="-0.27467">
        <ele>4.4</ele>
        <time>2023-05-04T08:56:18Z</time>
      </trkpt>
      <trkpt lat="49.24275" lon="-0.27464">
        <ele>4.2</ele>
        <time>2023-05-04T08:56:19Z</time>
      </trkpt>
      <trkpt lat="49.24278" lon="-0.27462">
        <ele>4</ele>
        <time>2023-05-04T08:56:20Z</time>
      </trkpt>
      <trkpt lat="49.24281" lon="-0.2746">
        <ele>4</ele>
        <time>2023-05-04T08:56:21Z</time>
      </trkpt>
      <trkpt lat="49.24284" lon="-0.27458">
        <ele>4</ele>
        <time>2023-05-04T08:56:22Z</time>
      </trkpt>
      <trkpt lat="49.24287" lon="-0.27456">
        <ele>4</ele>
        <time>2023-05-04T08:56:23Z</time>
      </trkpt>
      <trkpt lat="49.24291" lon="-0.27454">
        <ele>3.8</ele>
        <time>2023-05-04T08:56:24Z</time>
      </trkpt>
      <trkpt lat="49.24295" lon="-0.27452">
        <ele>3.8</ele>
        <time>2023-05-04T08:56:25Z</time>
      </trkpt>
      <trkpt lat="49.243" lon="-0.2745">
        <ele>3.6</ele>
        <time>2023-05-04T08:56:26Z</time>
      </trkpt>
      <trkpt lat="49.24305" lon="-0.27449">
        <ele>3.4</ele>
        <time>2023-05-04T08:56:27Z</time>
      </trkpt>
      <trkpt lat="49.2431" lon="-0.27447">
        <ele>3.2</ele>
        <time>2023-05-04T08:56:28Z</time>
      </trkpt>
      <trkpt lat="49.24315" lon="-0.27446">
        <ele>3.2</ele>
        <time>2023-05-04T08:56:29Z</time>
      </trkpt>
      <trkpt lat="49.2432" lon="-0.27445">
        <ele>3</ele>
        <time>2023-05-04T08:56:30Z</time>
      </trkpt>
      <trkpt lat="49.24326" lon="-0.27443">
        <ele>3</ele>
        <time>2023-05-04T08:56:31Z</time>
      </trkpt>
      <trkpt lat="49.24332" lon="-0.27442">
        <ele>2.8</ele>
        <time>2023-05-04T08:56:32Z</time>
      </trkpt>
      <trkpt lat="49.24337" lon="-0.2744">
        <ele>2.8</ele>
        <time>2023-05-04T08:56:33Z</time>
      </trkpt>
      <trkpt lat="49.24343" lon="-0.27438">
        <ele>2.8</ele>
        <time>2023-05-04T08:56:34Z</time>
      </trkpt>
      <trkpt lat="49.24348" lon="-0.27436">
        <ele>2.6</ele>
        <time>2023-05-04T08:56:35Z</time>
      </trkpt>
      <trkpt lat="49.24354" lon="-0.27433">
        <ele>2.6</ele>
        <time>2023-05-04T08:56:36Z</time>
      </trkpt>
      <trkpt lat="49.24359" lon="-0.2743">
        <ele>2.6</ele>
        <time>2023-05-04T08:56:37Z</time>
      </trkpt>
      <trkpt lat="49.24365" lon="-0.27427">
        <ele>2.6</ele>
        <time>2023-05-04T08:56:38Z</time>
      </trkpt>
      <trkpt lat="49.2437" lon="-0.27423">
        <ele>2.6</ele>
        <time>2023-05-04T08:56:39Z</time>
      </trkpt>
      <trkpt lat="49.24376" lon="-0.2742">
        <ele>2.6</ele>
        <time>2023-05-04T08:56:40Z</time>
      </trkpt>
      <trkpt lat="49.24381" lon="-0.27416">
        <ele>2.4</ele>
        <time>2023-05-04T08:56:41Z</time>
      </trkpt>
      <trkpt lat="49.24387" lon="-0.27412">
        <ele>2.2</ele>
        <time>2023-05-04T08:56:42Z</time>
      </trkpt>
      <trkpt lat="49.24392" lon="-0.27408">
        <ele>2.2</ele>
        <time>2023-05-04T08:56:43Z</time>
      </trkpt>
      <trkpt lat="49.24398" lon="-0.27404">
        <ele>2.2</ele>
        <time>2023-05-04T08:56:44Z</time>
      </trkpt>
      <trkpt lat="49.24404" lon="-0.274">
        <ele>2</ele>
        <time>2023-05-04T08:56:45Z</time>
      </trkpt>
      <trkpt lat="49.2441" lon="-0.27396">
        <ele>2</ele>
        <time>2023-05-04T08:56:46Z</time>
      </trkpt>
      <trkpt lat="49.24416" lon="-0.27392">
        <ele>2</ele>
        <time>2023-05-04T08:56:47Z</time>
      </trkpt>
      <trkpt lat="49.24423" lon="-0.27388">
        <ele>2</ele>
        <time>2023-05-04T08:56:48Z</time>
      </trkpt>
      <trkpt lat="49.24429" lon="-0.27383">
        <ele>2</ele>
        <time>2023-05-04T08:56:49Z</time>
      </trkpt>
      <trkpt lat="49.24436" lon="-0.27379">
        <ele>2</ele>
        <time>2023-05-04T08:56:50Z</time>
      </trkpt>
      <trkpt lat="49.24442" lon="-0.27374">
        <ele>2.2</ele>
        <time>2023-05-04T08:56:51Z</time>
      </trkpt>
      <trkpt lat="49.24448" lon="-0.27369">
        <ele>2.2</ele>
        <time>2023-05-04T08:56:52Z</time>
      </trkpt>
      <trkpt lat="49.24455" lon="-0.27365">
        <ele>2.2</ele>
        <time>2023-05-04T08:56:53Z</time>
      </trkpt>
      <trkpt lat="49.24461" lon="-0.2736">
        <ele>2.4</ele>
        <time>2023-05-04T08:56:54Z</time>
      </trkpt>
      <trkpt lat="49.24468" lon="-0.27355">
        <ele>2.6</ele>
        <time>2023-05-04T08:56:55Z</time>
      </trkpt>
      <trkpt lat="49.24474" lon="-0.2735">
        <ele>2.6</ele>
        <time>2023-05-04T08:56:56Z</time>
      </trkpt>
      <trkpt lat="49.24481" lon="-0.27345">
        <ele>2.8</ele>
        <time>2023-05-04T08:56:57Z</time>
      </trkpt>
      <trkpt lat="49.24488" lon="-0.2734">
        <ele>2.8</ele>
        <time>2023-05-04T08:56:58Z</time>
      </trkpt>
      <trkpt lat="49.24494" lon="-0.27335">
        <ele>3</ele>
        <time>2023-05-04T08:56:59Z</time>
      </trkpt>
      <trkpt lat="49.24501" lon="-0.2733">
        <ele>3</ele>
        <time>2023-05-04T08:57:00Z</time>
      </trkpt>
      <trkpt lat="49.24508" lon="-0.27325">
        <ele>3</ele>
        <time>2023-05-04T08:57:01Z</time>
      </trkpt>
      <trkpt lat="49.24515" lon="-0.2732">
        <ele>3</ele>
        <time>2023-05-04T08:57:02Z</time>
      </trkpt>
      <trkpt lat="49.24522" lon="-0.27315">
        <ele>3</ele>
        <time>2023-05-04T08:57:03Z</time>
      </trkpt>
      <trkpt lat="49.24529" lon="-0.2731">
        <ele>3</ele>
        <time>2023-05-04T08:57:04Z</time>
      </trkpt>
      <trkpt lat="49.24536" lon="-0.27305">
        <ele>3</ele>
        <time>2023-05-04T08:57:05Z</time>
      </trkpt>
      <trkpt lat="49.24543" lon="-0.27299">
        <ele>3</ele>
        <time>2023-05-04T08:57:06Z</time>
      </trkpt>
      <trkpt lat="49.2455" lon="-0.27294">
        <ele>3</ele>
        <time>2023-05-04T08:57:07Z</time>
      </trkpt>
      <trkpt lat="49.24557" lon="-0.27289">
        <ele>3</ele>
        <time>2023-05-04T08:57:08Z</time>
      </trkpt>
      <trkpt lat="49.24564" lon="-0.27284">
        <ele>3</ele>
        <time>2023-05-04T08:57:09Z</time>
      </trkpt>
      <trkpt lat="49.24571" lon="-0.27279">
        <ele>3</ele>
        <time>2023-05-04T08:57:10Z</time>
      </trkpt>
      <trkpt lat="49.24578" lon="-0.27274">
        <ele>3</ele>
        <time>2023-05-04T08:57:11Z</time>
      </trkpt>
      <trkpt lat="49.24585" lon="-0.27268">
        <ele>3</ele>
        <time>2023-05-04T08:57:12Z</time>
      </trkpt>
      <trkpt lat="49.24592" lon="-0.27262">
        <ele>3</ele>
        <time>2023-05-04T08:57:13Z</time>
      </trkpt>
      <trkpt lat="49.24599" lon="-0.27256">
        <ele>3</ele>
        <time>2023-05-04T08:57:14Z</time>
      </trkpt>
      <trkpt lat="49.24606" lon="-0.2725">
        <ele>3</ele>
        <time>2023-05-04T08:57:15Z</time>
      </trkpt>
      <trkpt lat="49.24613" lon="-0.27244">
        <ele>3</ele>
        <time>2023-05-04T08:57:16Z</time>
      </trkpt>
      <trkpt lat="49.24621" lon="-0.27238">
        <ele>2.8</ele>
        <time>2023-05-04T08:57:17Z</time>
      </trkpt>
      <trkpt lat="49.24628" lon="-0.27232">
        <ele>2.8</ele>
        <time>2023-05-04T08:57:18Z</time>
      </trkpt>
      <trkpt lat="49.24635" lon="-0.27227">
        <ele>2.6</ele>
        <time>2023-05-04T08:57:19Z</time>
      </trkpt>
      <trkpt lat="49.24642" lon="-0.27222">
        <ele>2.4</ele>
        <time>2023-05-04T08:57:20Z</time>
      </trkpt>
      <trkpt lat="49.2465" lon="-0.27218">
        <ele>2.2</ele>
        <time>2023-05-04T08:57:21Z</time>
      </trkpt>
      <trkpt lat="49.24657" lon="-0.27214">
        <ele>2.2</ele>
        <time>2023-05-04T08:57:22Z</time>
      </trkpt>
      <trkpt lat="49.24664" lon="-0.27209">
        <ele>2</ele>
        <time>2023-05-04T08:57:23Z</time>
      </trkpt>
      <trkpt lat="49.24672" lon="-0.27205">
        <ele>1.8</ele>
        <time>2023-05-04T08:57:24Z</time>
      </trkpt>
      <trkpt lat="49.24679" lon="-0.27201">
        <ele>1.8</ele>
        <time>2023-05-04T08:57:25Z</time>
      </trkpt>
      <trkpt lat="49.24686" lon="-0.27197">
        <ele>1.6</ele>
        <time>2023-05-04T08:57:26Z</time>
      </trkpt>
      <trkpt lat="49.24694" lon="-0.27193">
        <ele>1.4</ele>
        <time>2023-05-04T08:57:27Z</time>
      </trkpt>
      <trkpt lat="49.24701" lon="-0.27188">
        <ele>1.2</ele>
        <time>2023-05-04T08:57:28Z</time>
      </trkpt>
      <trkpt lat="49.24708" lon="-0.27184">
        <ele>1</ele>
        <time>2023-05-04T08:57:29Z</time>
      </trkpt>
      <trkpt lat="49.24716" lon="-0.27179">
        <ele>0.80000000000001</ele>
        <time>2023-05-04T08:57:30Z</time>
      </trkpt>
      <trkpt lat="49.24723" lon="-0.27174">
        <ele>0.60000000000002</ele>
        <time>2023-05-04T08:57:31Z</time>
      </trkpt>
      <trkpt lat="49.2473" lon="-0.2717">
        <ele>0.39999999999998</ele>
        <time>2023-05-04T08:57:32Z</time>
      </trkpt>
      <trkpt lat="49.24737" lon="-0.27165">
        <ele>0.19999999999999</ele>
        <time>2023-05-04T08:57:33Z</time>
      </trkpt>
      <trkpt lat="49.24744" lon="-0.2716">
        <ele>0.19999999999999</ele>
        <time>2023-05-04T08:57:34Z</time>
      </trkpt>
      <trkpt lat="49.24751" lon="-0.27154">
        <ele>0.19999999999999</ele>
        <time>2023-05-04T08:57:35Z</time>
      </trkpt>
      <trkpt lat="49.24758" lon="-0.27149">
        <ele>0.60000000000002</ele>
        <time>2023-05-04T08:57:36Z</time>
      </trkpt>
      <trkpt lat="49.24765" lon="-0.27144">
        <ele>1</ele>
        <time>2023-05-04T08:57:37Z</time>
      </trkpt>
      <trkpt lat="49.24772" lon="-0.27138">
        <ele>1.4</ele>
        <time>2023-05-04T08:57:38Z</time>
      </trkpt>
      <trkpt lat="49.24779" lon="-0.27133">
        <ele>1.8</ele>
        <time>2023-05-04T08:57:39Z</time>
      </trkpt>
      <trkpt lat="49.24786" lon="-0.27128">
        <ele>2</ele>
        <time>2023-05-04T08:57:40Z</time>
      </trkpt>
      <trkpt lat="49.24793" lon="-0.27123">
        <ele>2.2</ele>
        <time>2023-05-04T08:57:41Z</time>
      </trkpt>
      <trkpt lat="49.248" lon="-0.27119">
        <ele>2.6</ele>
        <time>2023-05-04T08:57:42Z</time>
      </trkpt>
      <trkpt lat="49.24806" lon="-0.27115">
        <ele>2.8</ele>
        <time>2023-05-04T08:57:43Z</time>
      </trkpt>
      <trkpt lat="49.24813" lon="-0.2711">
        <ele>3</ele>
        <time>2023-05-04T08:57:44Z</time>
      </trkpt>
      <trkpt lat="49.24819" lon="-0.27105">
        <ele>3</ele>
        <time>2023-05-04T08:57:45Z</time>
      </trkpt>
      <trkpt lat="49.24825" lon="-0.27099">
        <ele>3</ele>
        <time>2023-05-04T08:57:46Z</time>
      </trkpt>
      <trkpt lat="49.24832" lon="-0.27093">
        <ele>3.2</ele>
        <time>2023-05-04T08:57:47Z</time>
      </trkpt>
      <trkpt lat="49.24839" lon="-0.27088">
        <ele>3</ele>
        <time>2023-05-04T08:57:48Z</time>
      </trkpt>
      <trkpt lat="49.24845" lon="-0.27082">
        <ele>3</ele>
        <time>2023-05-04T08:57:49Z</time>
      </trkpt>
      <trkpt lat="49.24852" lon="-0.27077">
        <ele>2.8</ele>
        <time>2023-05-04T08:57:50Z</time>
      </trkpt>
      <trkpt lat="49.24859" lon="-0.27072">
        <ele>2.8</ele>
        <time>2023-05-04T08:57:51Z</time>
      </trkpt>
      <trkpt lat="49.24866" lon="-0.27066">
        <ele>2.6</ele>
        <time>2023-05-04T08:57:52Z</time>
      </trkpt>
      <trkpt lat="49.24873" lon="-0.27061">
        <ele>2.6</ele>
        <time>2023-05-04T08:57:53Z</time>
      </trkpt>
      <trkpt lat="49.2488" lon="-0.27056">
        <ele>2.2</ele>
        <time>2023-05-04T08:57:54Z</time>
      </trkpt>
      <trkpt lat="49.24887" lon="-0.2705">
        <ele>2.2</ele>
        <time>2023-05-04T08:57:55Z</time>
      </trkpt>
      <trkpt lat="49.24895" lon="-0.27045">
        <ele>2</ele>
        <time>2023-05-04T08:57:56Z</time>
      </trkpt>
      <trkpt lat="49.24902" lon="-0.27039">
        <ele>1.8</ele>
        <time>2023-05-04T08:57:57Z</time>
      </trkpt>
      <trkpt lat="49.24909" lon="-0.27034">
        <ele>1.8</ele>
        <time>2023-05-04T08:57:58Z</time>
      </trkpt>
      <trkpt lat="49.24916" lon="-0.27028">
        <ele>1.8</ele>
        <time>2023-05-04T08:57:59Z</time>
      </trkpt>
      <trkpt lat="49.24923" lon="-0.27023">
        <ele>1.8</ele>
        <time>2023-05-04T08:58:00Z</time>
      </trkpt>
      <trkpt lat="49.2493" lon="-0.27017">
        <ele>1.8</ele>
        <time>2023-05-04T08:58:01Z</time>
      </trkpt>
      <trkpt lat="49.24937" lon="-0.27012">
        <ele>2</ele>
        <time>2023-05-04T08:58:02Z</time>
      </trkpt>
      <trkpt lat="49.24945" lon="-0.27006">
        <ele>2.2</ele>
        <time>2023-05-04T08:58:03Z</time>
      </trkpt>
      <trkpt lat="49.24952" lon="-0.27001">
        <ele>2.2</ele>
        <time>2023-05-04T08:58:04Z</time>
      </trkpt>
      <trkpt lat="49.24959" lon="-0.26995">
        <ele>2.4</ele>
        <time>2023-05-04T08:58:05Z</time>
      </trkpt>
      <trkpt lat="49.24966" lon="-0.2699">
        <ele>2.6</ele>
        <time>2023-05-04T08:58:06Z</time>
      </trkpt>
      <trkpt lat="49.24974" lon="-0.26984">
        <ele>2.8</ele>
        <time>2023-05-04T08:58:07Z</time>
      </trkpt>
      <trkpt lat="49.24981" lon="-0.26979">
        <ele>2.8</ele>
        <time>2023-05-04T08:58:08Z</time>
      </trkpt>
      <trkpt lat="49.24988" lon="-0.26973">
        <ele>2.8</ele>
        <time>2023-05-04T08:58:09Z</time>
      </trkpt>
      <trkpt lat="49.24995" lon="-0.26967">
        <ele>2.8</ele>
        <time>2023-05-04T08:58:10Z</time>
      </trkpt>
      <trkpt lat="49.25003" lon="-0.26962">
        <ele>2.8</ele>
        <time>2023-05-04T08:58:11Z</time>
      </trkpt>
      <trkpt lat="49.2501" lon="-0.26956">
        <ele>2.8</ele>
        <time>2023-05-04T08:58:12Z</time>
      </trkpt>
      <trkpt lat="49.25017" lon="-0.26951">
        <ele>2.8</ele>
        <time>2023-05-04T08:58:13Z</time>
      </trkpt>
      <trkpt lat="49.25024" lon="-0.26945">
        <ele>3</ele>
        <time>2023-05-04T08:58:14Z</time>
      </trkpt>
      <trkpt lat="49.25031" lon="-0.2694">
        <ele>3</ele>
        <time>2023-05-04T08:58:15Z</time>
      </trkpt>
      <trkpt lat="49.25039" lon="-0.26934">
        <ele>3</ele>
        <time>2023-05-04T08:58:16Z</time>
      </trkpt>
      <trkpt lat="49.25046" lon="-0.26929">
        <ele>3</ele>
        <time>2023-05-04T08:58:17Z</time>
      </trkpt>
      <trkpt lat="49.25053" lon="-0.26923">
        <ele>3</ele>
        <time>2023-05-04T08:58:18Z</time>
      </trkpt>
      <trkpt lat="49.2506" lon="-0.26918">
        <ele>3.2</ele>
        <time>2023-05-04T08:58:19Z</time>
      </trkpt>
      <trkpt lat="49.25067" lon="-0.26912">
        <ele>3.2</ele>
        <time>2023-05-04T08:58:20Z</time>
      </trkpt>
      <trkpt lat="49.25075" lon="-0.26907">
        <ele>3.4</ele>
        <time>2023-05-04T08:58:21Z</time>
      </trkpt>
      <trkpt lat="49.25082" lon="-0.26901">
        <ele>3.4</ele>
        <time>2023-05-04T08:58:22Z</time>
      </trkpt>
      <trkpt lat="49.25089" lon="-0.26895">
        <ele>3.6</ele>
        <time>2023-05-04T08:58:23Z</time>
      </trkpt>
      <trkpt lat="49.25097" lon="-0.2689">
        <ele>3.8</ele>
        <time>2023-05-04T08:58:24Z</time>
      </trkpt>
      <trkpt lat="49.25104" lon="-0.26884">
        <ele>3.8</ele>
        <time>2023-05-04T08:58:25Z</time>
      </trkpt>
      <trkpt lat="49.25111" lon="-0.26879">
        <ele>4</ele>
        <time>2023-05-04T08:58:26Z</time>
      </trkpt>
      <trkpt lat="49.25118" lon="-0.26873">
        <ele>4</ele>
        <time>2023-05-04T08:58:27Z</time>
      </trkpt>
      <trkpt lat="49.25126" lon="-0.26868">
        <ele>4.4</ele>
        <time>2023-05-04T08:58:28Z</time>
      </trkpt>
      <trkpt lat="49.25133" lon="-0.26862">
        <ele>4.4</ele>
        <time>2023-05-04T08:58:29Z</time>
      </trkpt>
      <trkpt lat="49.2514" lon="-0.26856">
        <ele>4.6</ele>
        <time>2023-05-04T08:58:30Z</time>
      </trkpt>
      <trkpt lat="49.25147" lon="-0.26851">
        <ele>4.6</ele>
        <time>2023-05-04T08:58:31Z</time>
      </trkpt>
      <trkpt lat="49.25155" lon="-0.26845">
        <ele>4.8</ele>
        <time>2023-05-04T08:58:32Z</time>
      </trkpt>
      <trkpt lat="49.25162" lon="-0.2684">
        <ele>5</ele>
        <time>2023-05-04T08:58:33Z</time>
      </trkpt>
      <trkpt lat="49.25169" lon="-0.26835">
        <ele>5</ele>
        <time>2023-05-04T08:58:34Z</time>
      </trkpt>
      <trkpt lat="49.25176" lon="-0.26829">
        <ele>5.4</ele>
        <time>2023-05-04T08:58:35Z</time>
      </trkpt>
      <trkpt lat="49.25183" lon="-0.26824">
        <ele>5.6</ele>
        <time>2023-05-04T08:58:36Z</time>
      </trkpt>
      <trkpt lat="49.2519" lon="-0.26819">
        <ele>5.8</ele>
        <time>2023-05-04T08:58:37Z</time>
      </trkpt>
      <trkpt lat="49.25197" lon="-0.26814">
        <ele>6</ele>
        <time>2023-05-04T08:58:38Z</time>
      </trkpt>
      <trkpt lat="49.25204" lon="-0.26809">
        <ele>6.2</ele>
        <time>2023-05-04T08:58:39Z</time>
      </trkpt>
      <trkpt lat="49.2521" lon="-0.26804">
        <ele>6.4</ele>
        <time>2023-05-04T08:58:40Z</time>
      </trkpt>
      <trkpt lat="49.25217" lon="-0.26799">
        <ele>6.6</ele>
        <time>2023-05-04T08:58:41Z</time>
      </trkpt>
      <trkpt lat="49.25224" lon="-0.26794">
        <ele>6.6</ele>
        <time>2023-05-04T08:58:42Z</time>
      </trkpt>
      <trkpt lat="49.25231" lon="-0.26789">
        <ele>6.6</ele>
        <time>2023-05-04T08:58:43Z</time>
      </trkpt>
      <trkpt lat="49.25237" lon="-0.26783">
        <ele>6.8</ele>
        <time>2023-05-04T08:58:44Z</time>
      </trkpt>
      <trkpt lat="49.25244" lon="-0.26778">
        <ele>6.8</ele>
        <time>2023-05-04T08:58:45Z</time>
      </trkpt>
      <trkpt lat="49.2525" lon="-0.26773">
        <ele>6.8</ele>
        <time>2023-05-04T08:58:46Z</time>
      </trkpt>
      <trkpt lat="49.25257" lon="-0.26768">
        <ele>6.6</ele>
        <time>2023-05-04T08:58:47Z</time>
      </trkpt>
      <trkpt lat="49.25264" lon="-0.26763">
        <ele>6</ele>
        <time>2023-05-04T08:58:48Z</time>
      </trkpt>
      <trkpt lat="49.2527" lon="-0.26758">
        <ele>5.6</ele>
        <time>2023-05-04T08:58:49Z</time>
      </trkpt>
      <trkpt lat="49.25277" lon="-0.26753">
        <ele>5.2</ele>
        <time>2023-05-04T08:58:50Z</time>
      </trkpt>
      <trkpt lat="49.25284" lon="-0.26748">
        <ele>4.8</ele>
        <time>2023-05-04T08:58:51Z</time>
      </trkpt>
      <trkpt lat="49.2529" lon="-0.26743">
        <ele>4.6</ele>
        <time>2023-05-04T08:58:52Z</time>
      </trkpt>
      <trkpt lat="49.25297" lon="-0.26738">
        <ele>4</ele>
        <time>2023-05-04T08:58:53Z</time>
      </trkpt>
      <trkpt lat="49.25304" lon="-0.26733">
        <ele>3.8</ele>
        <time>2023-05-04T08:58:54Z</time>
      </trkpt>
      <trkpt lat="49.25311" lon="-0.26728">
        <ele>3.2</ele>
        <time>2023-05-04T08:58:55Z</time>
      </trkpt>
      <trkpt lat="49.25317" lon="-0.26724">
        <ele>3</ele>
        <time>2023-05-04T08:58:56Z</time>
      </trkpt>
      <trkpt lat="49.25324" lon="-0.26718">
        <ele>2.2</ele>
        <time>2023-05-04T08:58:57Z</time>
      </trkpt>
      <trkpt lat="49.25331" lon="-0.26713">
        <ele>1.8</ele>
        <time>2023-05-04T08:58:58Z</time>
      </trkpt>
      <trkpt lat="49.25338" lon="-0.26707">
        <ele>1.8</ele>
        <time>2023-05-04T08:58:59Z</time>
      </trkpt>
      <trkpt lat="49.25345" lon="-0.26701">
        <ele>1.8</ele>
        <time>2023-05-04T08:59:00Z</time>
      </trkpt>
      <trkpt lat="49.25352" lon="-0.26696">
        <ele>2</ele>
        <time>2023-05-04T08:59:01Z</time>
      </trkpt>
      <trkpt lat="49.25359" lon="-0.2669">
        <ele>2.2</ele>
        <time>2023-05-04T08:59:02Z</time>
      </trkpt>
      <trkpt lat="49.25366" lon="-0.26685">
        <ele>2.6</ele>
        <time>2023-05-04T08:59:03Z</time>
      </trkpt>
      <trkpt lat="49.25373" lon="-0.26679">
        <ele>2.8</ele>
        <time>2023-05-04T08:59:04Z</time>
      </trkpt>
      <trkpt lat="49.2538" lon="-0.26674">
        <ele>3</ele>
        <time>2023-05-04T08:59:05Z</time>
      </trkpt>
      <trkpt lat="49.25387" lon="-0.26668">
        <ele>3.2</ele>
        <time>2023-05-04T08:59:06Z</time>
      </trkpt>
      <trkpt lat="49.25394" lon="-0.26663">
        <ele>3.8</ele>
        <time>2023-05-04T08:59:07Z</time>
      </trkpt>
      <trkpt lat="49.25401" lon="-0.26657">
        <ele>4.2</ele>
        <time>2023-05-04T08:59:08Z</time>
      </trkpt>
      <trkpt lat="49.25408" lon="-0.26651">
        <ele>4.6</ele>
        <time>2023-05-04T08:59:09Z</time>
      </trkpt>
      <trkpt lat="49.25415" lon="-0.26644">
        <ele>5.2</ele>
        <time>2023-05-04T08:59:10Z</time>
      </trkpt>
      <trkpt lat="49.25422" lon="-0.26638">
        <ele>5.6</ele>
        <time>2023-05-04T08:59:11Z</time>
      </trkpt>
      <trkpt lat="49.25428" lon="-0.26632">
        <ele>6</ele>
        <time>2023-05-04T08:59:12Z</time>
      </trkpt>
      <trkpt lat="49.25435" lon="-0.26625">
        <ele>6.4</ele>
        <time>2023-05-04T08:59:13Z</time>
      </trkpt>
      <trkpt lat="49.25442" lon="-0.26619">
        <ele>6.6</ele>
        <time>2023-05-04T08:59:14Z</time>
      </trkpt>
      <trkpt lat="49.25448" lon="-0.26612">
        <ele>7</ele>
        <time>2023-05-04T08:59:15Z</time>
      </trkpt>
      <trkpt lat="49.25455" lon="-0.26605">
        <ele>7.2</ele>
        <time>2023-05-04T08:59:16Z</time>
      </trkpt>
      <trkpt lat="49.25461" lon="-0.26598">
        <ele>7.6</ele>
        <time>2023-05-04T08:59:17Z</time>
      </trkpt>
      <trkpt lat="49.25467" lon="-0.26591">
        <ele>7.8</ele>
        <time>2023-05-04T08:59:18Z</time>
      </trkpt>
      <trkpt lat="49.25474" lon="-0.26584">
        <ele>8</ele>
        <time>2023-05-04T08:59:19Z</time>
      </trkpt>
      <trkpt lat="49.2548" lon="-0.26577">
        <ele>8.2</ele>
        <time>2023-05-04T08:59:20Z</time>
      </trkpt>
      <trkpt lat="49.25486" lon="-0.2657">
        <ele>8.4</ele>
        <time>2023-05-04T08:59:21Z</time>
      </trkpt>
      <trkpt lat="49.25493" lon="-0.26563">
        <ele>8.4</ele>
        <time>2023-05-04T08:59:22Z</time>
      </trkpt>
      <trkpt lat="49.25499" lon="-0.26556">
        <ele>8.4</ele>
        <time>2023-05-04T08:59:23Z</time>
      </trkpt>
      <trkpt lat="49.25505" lon="-0.26548">
        <ele>8.4</ele>
        <time>2023-05-04T08:59:24Z</time>
      </trkpt>
      <trkpt lat="49.25511" lon="-0.26541">
        <ele>8.6</ele>
        <time>2023-05-04T08:59:25Z</time>
      </trkpt>
      <trkpt lat="49.25518" lon="-0.26533">
        <ele>8.6</ele>
        <time>2023-05-04T08:59:26Z</time>
      </trkpt>
      <trkpt lat="49.25524" lon="-0.26525">
        <ele>8.8</ele>
        <time>2023-05-04T08:59:27Z</time>
      </trkpt>
      <trkpt lat="49.2553" lon="-0.26517">
        <ele>8.8</ele>
        <time>2023-05-04T08:59:28Z</time>
      </trkpt>
      <trkpt lat="49.25536" lon="-0.26509">
        <ele>9</ele>
        <time>2023-05-04T08:59:29Z</time>
      </trkpt>
      <trkpt lat="49.25542" lon="-0.26501">
        <ele>9</ele>
        <time>2023-05-04T08:59:30Z</time>
      </trkpt>
      <trkpt lat="49.25548" lon="-0.26492">
        <ele>8.8</ele>
        <time>2023-05-04T08:59:31Z</time>
      </trkpt>
      <trkpt lat="49.25554" lon="-0.26484">
        <ele>8.8</ele>
        <time>2023-05-04T08:59:32Z</time>
      </trkpt>
      <trkpt lat="49.25559" lon="-0.26475">
        <ele>8.8</ele>
        <time>2023-05-04T08:59:33Z</time>
      </trkpt>
      <trkpt lat="49.25565" lon="-0.26467">
        <ele>9</ele>
        <time>2023-05-04T08:59:34Z</time>
      </trkpt>
      <trkpt lat="49.25571" lon="-0.26458">
        <ele>9.4</ele>
        <time>2023-05-04T08:59:35Z</time>
      </trkpt>
      <trkpt lat="49.25577" lon="-0.26449">
        <ele>9.6</ele>
        <time>2023-05-04T08:59:36Z</time>
      </trkpt>
      <trkpt lat="49.25582" lon="-0.2644">
        <ele>10.2</ele>
        <time>2023-05-04T08:59:37Z</time>
      </trkpt>
      <trkpt lat="49.25588" lon="-0.26431">
        <ele>10.4</ele>
        <time>2023-05-04T08:59:38Z</time>
      </trkpt>
      <trkpt lat="49.25593" lon="-0.26422">
        <ele>10.4</ele>
        <time>2023-05-04T08:59:39Z</time>
      </trkpt>
      <trkpt lat="49.25599" lon="-0.26413">
        <ele>10.4</ele>
        <time>2023-05-04T08:59:40Z</time>
      </trkpt>
      <trkpt lat="49.25604" lon="-0.26404">
        <ele>10</ele>
        <time>2023-05-04T08:59:41Z</time>
      </trkpt>
      <trkpt lat="49.25609" lon="-0.26394">
        <ele>9.6</ele>
        <time>2023-05-04T08:59:42Z</time>
      </trkpt>
      <trkpt lat="49.25614" lon="-0.26385">
        <ele>9.6</ele>
        <time>2023-05-04T08:59:43Z</time>
      </trkpt>
      <trkpt lat="49.25619" lon="-0.26375">
        <ele>9.4</ele>
        <time>2023-05-04T08:59:44Z</time>
      </trkpt>
      <trkpt lat="49.25624" lon="-0.26365">
        <ele>9.4</ele>
        <time>2023-05-04T08:59:45Z</time>
      </trkpt>
      <trkpt lat="49.25629" lon="-0.26356">
        <ele>9.2</ele>
        <time>2023-05-04T08:59:46Z</time>
      </trkpt>
      <trkpt lat="49.25634" lon="-0.26346">
        <ele>9.4</ele>
        <time>2023-05-04T08:59:47Z</time>
      </trkpt>
      <trkpt lat="49.25638" lon="-0.26336">
        <ele>9.4</ele>
        <time>2023-05-04T08:59:48Z</time>
      </trkpt>
      <trkpt lat="49.25643" lon="-0.26327">
        <ele>9.6</ele>
        <time>2023-05-04T08:59:49Z</time>
      </trkpt>
      <trkpt lat="49.25648" lon="-0.26317">
        <ele>10</ele>
        <time>2023-05-04T08:59:50Z</time>
      </trkpt>
      <trkpt lat="49.25652" lon="-0.26307">
        <ele>10.4</ele>
        <time>2023-05-04T08:59:51Z</time>
      </trkpt>
      <trkpt lat="49.25656" lon="-0.26297">
        <ele>10.6</ele>
        <time>2023-05-04T08:59:52Z</time>
      </trkpt>
      <trkpt lat="49.2566" lon="-0.26287">
        <ele>10.8</ele>
        <time>2023-05-04T08:59:53Z</time>
      </trkpt>
      <trkpt lat="49.25664" lon="-0.26277">
        <ele>11.2</ele>
        <time>2023-05-04T08:59:54Z</time>
      </trkpt>
      <trkpt lat="49.25668" lon="-0.26267">
        <ele>11.2</ele>
        <time>2023-05-04T08:59:55Z</time>
      </trkpt>
      <trkpt lat="49.25672" lon="-0.26256">
        <ele>11.2</ele>
        <time>2023-05-04T08:59:56Z</time>
      </trkpt>
      <trkpt lat="49.25676" lon="-0.26246">
        <ele>11.2</ele>
        <time>2023-05-04T08:59:57Z</time>
      </trkpt>
      <trkpt lat="49.2568" lon="-0.26235">
        <ele>10.8</ele>
        <time>2023-05-04T08:59:58Z</time>
      </trkpt>
      <trkpt lat="49.25683" lon="-0.26225">
        <ele>10.6</ele>
        <time>2023-05-04T08:59:59Z</time>
      </trkpt>
      <trkpt lat="49.25687" lon="-0.26215">
        <ele>10.6</ele>
        <time>2023-05-04T09:00:00Z</time>
      </trkpt>
      <trkpt lat="49.25691" lon="-0.26204">
        <ele>10.4</ele>
        <time>2023-05-04T09:00:01Z</time>
      </trkpt>
      <trkpt lat="49.25694" lon="-0.26193">
        <ele>10.4</ele>
        <time>2023-05-04T09:00:02Z</time>
      </trkpt>
      <trkpt lat="49.25698" lon="-0.26183">
        <ele>10.4</ele>
        <time>2023-05-04T09:00:03Z</time>
      </trkpt>
      <trkpt lat="49.25702" lon="-0.26172">
        <ele>10.2</ele>
        <time>2023-05-04T09:00:04Z</time>
      </trkpt>
      <trkpt lat="49.25706" lon="-0.26162">
        <ele>10.4</ele>
        <time>2023-05-04T09:00:05Z</time>
      </trkpt>
      <trkpt lat="49.2571" lon="-0.26151">
        <ele>10.4</ele>
        <time>2023-05-04T09:00:06Z</time>
      </trkpt>
      <trkpt lat="49.25713" lon="-0.26141">
        <ele>10.4</ele>
        <time>2023-05-04T09:00:07Z</time>
      </trkpt>
      <trkpt lat="49.25717" lon="-0.2613">
        <ele>10.4</ele>
        <time>2023-05-04T09:00:08Z</time>
      </trkpt>
      <trkpt lat="49.25721" lon="-0.2612">
        <ele>10.4</ele>
        <time>2023-05-04T09:00:09Z</time>
      </trkpt>
      <trkpt lat="49.25724" lon="-0.26109">
        <ele>10.4</ele>
        <time>2023-05-04T09:00:10Z</time>
      </trkpt>
      <trkpt lat="49.25728" lon="-0.26099">
        <ele>10.4</ele>
        <time>2023-05-04T09:00:11Z</time>
      </trkpt>
      <trkpt lat="49.25732" lon="-0.26088">
        <ele>10.2</ele>
        <time>2023-05-04T09:00:12Z</time>
      </trkpt>
      <trkpt lat="49.25735" lon="-0.26078">
        <ele>10</ele>
        <time>2023-05-04T09:00:13Z</time>
      </trkpt>
      <trkpt lat="49.25739" lon="-0.26068">
        <ele>9.6</ele>
        <time>2023-05-04T09:00:14Z</time>
      </trkpt>
      <trkpt lat="49.25742" lon="-0.26058">
        <ele>9.2</ele>
        <time>2023-05-04T09:00:15Z</time>
      </trkpt>
      <trkpt lat="49.25746" lon="-0.26047">
        <ele>8.6</ele>
        <time>2023-05-04T09:00:16Z</time>
      </trkpt>
      <trkpt lat="49.2575" lon="-0.26037">
        <ele>8.2</ele>
        <time>2023-05-04T09:00:17Z</time>
      </trkpt>
      <trkpt lat="49.25753" lon="-0.26027">
        <ele>8</ele>
        <time>2023-05-04T09:00:18Z</time>
      </trkpt>
      <trkpt lat="49.25757" lon="-0.26017">
        <ele>7.6</ele>
        <time>2023-05-04T09:00:19Z</time>
      </trkpt>
      <trkpt lat="49.25761" lon="-0.26007">
        <ele>7.4</ele>
        <time>2023-05-04T09:00:20Z</time>
      </trkpt>
      <trkpt lat="49.25765" lon="-0.25997">
        <ele>7</ele>
        <time>2023-05-04T09:00:21Z</time>
      </trkpt>
      <trkpt lat="49.2577" lon="-0.25987">
        <ele>7</ele>
        <time>2023-05-04T09:00:22Z</time>
      </trkpt>
      <trkpt lat="49.25774" lon="-0.25977">
        <ele>6.8</ele>
        <time>2023-05-04T09:00:23Z</time>
      </trkpt>
      <trkpt lat="49.25779" lon="-0.25967">
        <ele>6.6</ele>
        <time>2023-05-04T09:00:24Z</time>
      </trkpt>
      <trkpt lat="49.25783" lon="-0.25957">
        <ele>6.6</ele>
        <time>2023-05-04T09:00:25Z</time>
      </trkpt>
      <trkpt lat="49.25788" lon="-0.25947">
        <ele>6.4</ele>
        <time>2023-05-04T09:00:26Z</time>
      </trkpt>
      <trkpt lat="49.25792" lon="-0.25937">
        <ele>6.2</ele>
        <time>2023-05-04T09:00:27Z</time>
      </trkpt>
      <trkpt lat="49.25797" lon="-0.25927">
        <ele>6</ele>
        <time>2023-05-04T09:00:28Z</time>
      </trkpt>
      <trkpt lat="49.25801" lon="-0.25917">
        <ele>5.6</ele>
        <time>2023-05-04T09:00:29Z</time>
      </trkpt>
      <trkpt lat="49.25806" lon="-0.25907">
        <ele>5.8</ele>
        <time>2023-05-04T09:00:30Z</time>
      </trkpt>
      <trkpt lat="49.2581" lon="-0.25897">
        <ele>6</ele>
        <time>2023-05-04T09:00:31Z</time>
      </trkpt>
      <trkpt lat="49.25815" lon="-0.25888">
        <ele>6</ele>
        <time>2023-05-04T09:00:32Z</time>
      </trkpt>
      <trkpt lat="49.2582" lon="-0.25878">
        <ele>6</ele>
        <time>2023-05-04T09:00:33Z</time>
      </trkpt>
      <trkpt lat="49.25825" lon="-0.25869">
        <ele>6.2</ele>
        <time>2023-05-04T09:00:34Z</time>
      </trkpt>
      <trkpt lat="49.2583" lon="-0.2586">
        <ele>6.4</ele>
        <time>2023-05-04T09:00:35Z</time>
      </trkpt>
      <trkpt lat="49.25835" lon="-0.25851">
        <ele>6.4</ele>
        <time>2023-05-04T09:00:36Z</time>
      </trkpt>
      <trkpt lat="49.25841" lon="-0.25844">
        <ele>6.2</ele>
        <time>2023-05-04T09:00:37Z</time>
      </trkpt>
      <trkpt lat="49.25848" lon="-0.25836">
        <ele>6</ele>
        <time>2023-05-04T09:00:38Z</time>
      </trkpt>
      <trkpt lat="49.25854" lon="-0.25828">
        <ele>5.6</ele>
        <time>2023-05-04T09:00:39Z</time>
      </trkpt>
      <trkpt lat="49.2586" lon="-0.2582">
        <ele>5.4</ele>
        <time>2023-05-04T09:00:40Z</time>
      </trkpt>
      <trkpt lat="49.25866" lon="-0.25813">
        <ele>4.8</ele>
        <time>2023-05-04T09:00:41Z</time>
      </trkpt>
      <trkpt lat="49.25873" lon="-0.25805">
        <ele>4.4</ele>
        <time>2023-05-04T09:00:42Z</time>
      </trkpt>
      <trkpt lat="49.25879" lon="-0.25798">
        <ele>3.8</ele>
        <time>2023-05-04T09:00:43Z</time>
      </trkpt>
      <trkpt lat="49.25886" lon="-0.25791">
        <ele>3.2</ele>
        <time>2023-05-04T09:00:44Z</time>
      </trkpt>
      <trkpt lat="49.25892" lon="-0.25783">
        <ele>2.8</ele>
        <time>2023-05-04T09:00:45Z</time>
      </trkpt>
      <trkpt lat="49.25899" lon="-0.25776">
        <ele>2.2</ele>
        <time>2023-05-04T09:00:46Z</time>
      </trkpt>
      <trkpt lat="49.25905" lon="-0.25769">
        <ele>1.6</ele>
        <time>2023-05-04T09:00:47Z</time>
      </trkpt>
      <trkpt lat="49.25912" lon="-0.25762">
        <ele>1</ele>
        <time>2023-05-04T09:00:48Z</time>
      </trkpt>
      <trkpt lat="49.25919" lon="-0.25755">
        <ele>0.60000000000002</ele>
        <time>2023-05-04T09:00:49Z</time>
      </trkpt>
      <trkpt lat="49.25925" lon="-0.25748">
        <ele>0.39999999999998</ele>
        <time>2023-05-04T09:00:50Z</time>
      </trkpt>
      <trkpt lat="49.25932" lon="-0.25742">
        <ele>0.39999999999998</ele>
        <time>2023-05-04T09:00:51Z</time>
      </trkpt>
      <trkpt lat="49.25939" lon="-0.25735">
        <ele>0.39999999999998</ele>
        <time>2023-05-04T09:00:52Z</time>
      </trkpt>
      <trkpt lat="49.25945" lon="-0.25728">
        <ele>0.60000000000002</ele>
        <time>2023-05-04T09:00:53Z</time>
      </trkpt>
      <trkpt lat="49.25952" lon="-0.25722">
        <ele>0.60000000000002</ele>
        <time>2023-05-04T09:00:54Z</time>
      </trkpt>
      <trkpt lat="49.25959" lon="-0.25715">
        <ele>0.80000000000001</ele>
        <time>2023-05-04T09:00:55Z</time>
      </trkpt>
      <trkpt lat="49.25965" lon="-0.25709">
        <ele>1.2</ele>
        <time>2023-05-04T09:00:56Z</time>
      </trkpt>
      <trkpt lat="49.25972" lon="-0.25702">
        <ele>1.4</ele>
        <time>2023-05-04T09:00:57Z</time>
      </trkpt>
      <trkpt lat="49.25979" lon="-0.25696">
        <ele>1.8</ele>
        <time>2023-05-04T09:00:58Z</time>
      </trkpt>
      <trkpt lat="49.25986" lon="-0.25689">
        <ele>2.2</ele>
        <time>2023-05-04T09:00:59Z</time>
      </trkpt>
      <trkpt lat="49.25992" lon="-0.25683">
        <ele>2.6</ele>
        <time>2023-05-04T09:01:00Z</time>
      </trkpt>
      <trkpt lat="49.25999" lon="-0.25677">
        <ele>3</ele>
        <time>2023-05-04T09:01:01Z</time>
      </trkpt>
      <trkpt lat="49.26006" lon="-0.25671">
        <ele>3.4</ele>
        <time>2023-05-04T09:01:02Z</time>
      </trkpt>
      <trkpt lat="49.26013" lon="-0.25664">
        <ele>3.6</ele>
        <time>2023-05-04T09:01:03Z</time>
      </trkpt>
      <trkpt lat="49.26019" lon="-0.25658">
        <ele>3.8</ele>
        <time>2023-05-04T09:01:04Z</time>
      </trkpt>
      <trkpt lat="49.26026" lon="-0.25653">
        <ele>4</ele>
        <time>2023-05-04T09:01:05Z</time>
      </trkpt>
      <trkpt lat="49.26033" lon="-0.25647">
        <ele>4.4</ele>
        <time>2023-05-04T09:01:06Z</time>
      </trkpt>
      <trkpt lat="49.26039" lon="-0.25641">
        <ele>4.6</ele>
        <time>2023-05-04T09:01:07Z</time>
      </trkpt>
      <trkpt lat="49.26046" lon="-0.25635">
        <ele>4.8</ele>
        <time>2023-05-04T09:01:08Z</time>
      </trkpt>
      <trkpt lat="49.26053" lon="-0.25629">
        <ele>5</ele>
        <time>2023-05-04T09:01:09Z</time>
      </trkpt>
      <trkpt lat="49.26059" lon="-0.25624">
        <ele>5.4</ele>
        <time>2023-05-04T09:01:10Z</time>
      </trkpt>
      <trkpt lat="49.26066" lon="-0.25618">
        <ele>5.6</ele>
        <time>2023-05-04T09:01:11Z</time>
      </trkpt>
      <trkpt lat="49.26073" lon="-0.25613">
        <ele>5.8</ele>
        <time>2023-05-04T09:01:12Z</time>
      </trkpt>
      <trkpt lat="49.26079" lon="-0.25607">
        <ele>6</ele>
        <time>2023-05-04T09:01:13Z</time>
      </trkpt>
      <trkpt lat="49.26086" lon="-0.25602">
        <ele>6.2</ele>
        <time>2023-05-04T09:01:14Z</time>
      </trkpt>
      <trkpt lat="49.26093" lon="-0.25596">
        <ele>6</ele>
        <time>2023-05-04T09:01:15Z</time>
      </trkpt>
      <trkpt lat="49.26099" lon="-0.25591">
        <ele>6</ele>
        <time>2023-05-04T09:01:16Z</time>
      </trkpt>
      <trkpt lat="49.26106" lon="-0.25586">
        <ele>5.8</ele>
        <time>2023-05-04T09:01:17Z</time>
      </trkpt>
      <trkpt lat="49.26113" lon="-0.25581">
        <ele>5.6</ele>
        <time>2023-05-04T09:01:18Z</time>
      </trkpt>
      <trkpt lat="49.2612" lon="-0.25575">
        <ele>5.4</ele>
        <time>2023-05-04T09:01:19Z</time>
      </trkpt>
      <trkpt lat="49.26127" lon="-0.2557">
        <ele>5.2</ele>
        <time>2023-05-04T09:01:20Z</time>
      </trkpt>
      <trkpt lat="49.26134" lon="-0.25565">
        <ele>5</ele>
        <time>2023-05-04T09:01:21Z</time>
      </trkpt>
      <trkpt lat="49.2614" lon="-0.2556">
        <ele>5</ele>
        <time>2023-05-04T09:01:22Z</time>
      </trkpt>
      <trkpt lat="49.26147" lon="-0.25555">
        <ele>4.8</ele>
        <time>2023-05-04T09:01:23Z</time>
      </trkpt>
      <trkpt lat="49.26154" lon="-0.2555">
        <ele>4.6</ele>
        <time>2023-05-04T09:01:24Z</time>
      </trkpt>
      <trkpt lat="49.26161" lon="-0.25545">
        <ele>4.6</ele>
        <time>2023-05-04T09:01:25Z</time>
      </trkpt>
      <trkpt lat="49.26168" lon="-0.2554">
        <ele>4.6</ele>
        <time>2023-05-04T09:01:26Z</time>
      </trkpt>
      <trkpt lat="49.26175" lon="-0.25535">
        <ele>4.4</ele>
        <time>2023-05-04T09:01:27Z</time>
      </trkpt>
      <trkpt lat="49.26181" lon="-0.2553">
        <ele>4.2</ele>
        <time>2023-05-04T09:01:28Z</time>
      </trkpt>
      <trkpt lat="49.26188" lon="-0.25525">
        <ele>4</ele>
        <time>2023-05-04T09:01:29Z</time>
      </trkpt>
      <trkpt lat="49.26195" lon="-0.2552">
        <ele>4</ele>
        <time>2023-05-04T09:01:30Z</time>
      </trkpt>
      <trkpt lat="49.26202" lon="-0.25516">
        <ele>3.8</ele>
        <time>2023-05-04T09:01:31Z</time>
      </trkpt>
      <trkpt lat="49.26208" lon="-0.25511">
        <ele>3.6</ele>
        <time>2023-05-04T09:01:32Z</time>
      </trkpt>
      <trkpt lat="49.26215" lon="-0.25507">
        <ele>3.6</ele>
        <time>2023-05-04T09:01:33Z</time>
      </trkpt>
      <trkpt lat="49.26222" lon="-0.25502">
        <ele>3.4</ele>
        <time>2023-05-04T09:01:34Z</time>
      </trkpt>
      <trkpt lat="49.26229" lon="-0.25498">
        <ele>3.2</ele>
        <time>2023-05-04T09:01:35Z</time>
      </trkpt>
      <trkpt lat="49.26236" lon="-0.25494">
        <ele>3</ele>
        <time>2023-05-04T09:01:36Z</time>
      </trkpt>
      <trkpt lat="49.26243" lon="-0.25489">
        <ele>2.8</ele>
        <time>2023-05-04T09:01:37Z</time>
      </trkpt>
      <trkpt lat="49.2625" lon="-0.25485">
        <ele>2.6</ele>
        <time>2023-05-04T09:01:38Z</time>
      </trkpt>
      <trkpt lat="49.26258" lon="-0.2548">
        <ele>2.4</ele>
        <time>2023-05-04T09:01:39Z</time>
      </trkpt>
      <trkpt lat="49.26265" lon="-0.25476">
        <ele>2.4</ele>
        <time>2023-05-04T09:01:40Z</time>
      </trkpt>
      <trkpt lat="49.26272" lon="-0.25472">
        <ele>2.4</ele>
        <time>2023-05-04T09:01:41Z</time>
      </trkpt>
      <trkpt lat="49.26279" lon="-0.25467">
        <ele>2.4</ele>
        <time>2023-05-04T09:01:42Z</time>
      </trkpt>
      <trkpt lat="49.26286" lon="-0.25463">
        <ele>2.6</ele>
        <time>2023-05-04T09:01:43Z</time>
      </trkpt>
      <trkpt lat="49.26293" lon="-0.25459">
        <ele>2.6</ele>
        <time>2023-05-04T09:01:44Z</time>
      </trkpt>
      <trkpt lat="49.263" lon="-0.25455">
        <ele>2.6</ele>
        <time>2023-05-04T09:01:45Z</time>
      </trkpt>
      <trkpt lat="49.26307" lon="-0.25451">
        <ele>2.8</ele>
        <time>2023-05-04T09:01:46Z</time>
      </trkpt>
      <trkpt lat="49.26314" lon="-0.25448">
        <ele>3</ele>
        <time>2023-05-04T09:01:47Z</time>
      </trkpt>
      <trkpt lat="49.26322" lon="-0.25444">
        <ele>3</ele>
        <time>2023-05-04T09:01:48Z</time>
      </trkpt>
      <trkpt lat="49.26329" lon="-0.2544">
        <ele>3</ele>
        <time>2023-05-04T09:01:49Z</time>
      </trkpt>
      <trkpt lat="49.26336" lon="-0.25436">
        <ele>3.2</ele>
        <time>2023-05-04T09:01:50Z</time>
      </trkpt>
      <trkpt lat="49.26344" lon="-0.25432">
        <ele>3.2</ele>
        <time>2023-05-04T09:01:51Z</time>
      </trkpt>
      <trkpt lat="49.26351" lon="-0.25429">
        <ele>3.4</ele>
        <time>2023-05-04T09:01:52Z</time>
      </trkpt>
      <trkpt lat="49.26358" lon="-0.25425">
        <ele>3.4</ele>
        <time>2023-05-04T09:01:53Z</time>
      </trkpt>
      <trkpt lat="49.26365" lon="-0.25421">
        <ele>3.4</ele>
        <time>2023-05-04T09:01:54Z</time>
      </trkpt>
      <trkpt lat="49.26373" lon="-0.25418">
        <ele>3.6</ele>
        <time>2023-05-04T09:01:55Z</time>
      </trkpt>
      <trkpt lat="49.2638" lon="-0.25414">
        <ele>3.6</ele>
        <time>2023-05-04T09:01:56Z</time>
      </trkpt>
      <trkpt lat="49.26387" lon="-0.2541">
        <ele>3.6</ele>
        <time>2023-05-04T09:01:57Z</time>
      </trkpt>
      <trkpt lat="49.26394" lon="-0.25407">
        <ele>3.6</ele>
        <time>2023-05-04T09:01:58Z</time>
      </trkpt>
      <trkpt lat="49.26401" lon="-0.25403">
        <ele>3.8</ele>
        <time>2023-05-04T09:01:59Z</time>
      </trkpt>
      <trkpt lat="49.26409" lon="-0.254">
        <ele>3.8</ele>
        <time>2023-05-04T09:02:00Z</time>
      </trkpt>
      <trkpt lat="49.26416" lon="-0.25397">
        <ele>3.8</ele>
        <time>2023-05-04T09:02:01Z</time>
      </trkpt>
      <trkpt lat="49.26424" lon="-0.25394">
        <ele>4</ele>
        <time>2023-05-04T09:02:02Z</time>
      </trkpt>
      <trkpt lat="49.26431" lon="-0.2539">
        <ele>4</ele>
        <time>2023-05-04T09:02:03Z</time>
      </trkpt>
      <trkpt lat="49.26439" lon="-0.25388">
        <ele>4.4</ele>
        <time>2023-05-04T09:02:04Z</time>
      </trkpt>
      <trkpt lat="49.26446" lon="-0.25385">
        <ele>4.6</ele>
        <time>2023-05-04T09:02:05Z</time>
      </trkpt>
      <trkpt lat="49.26454" lon="-0.25382">
        <ele>5</ele>
        <time>2023-05-04T09:02:06Z</time>
      </trkpt>
      <trkpt lat="49.26462" lon="-0.2538">
        <ele>5</ele>
        <time>2023-05-04T09:02:07Z</time>
      </trkpt>
      <trkpt lat="49.26469" lon="-0.25377">
        <ele>5.4</ele>
        <time>2023-05-04T09:02:08Z</time>
      </trkpt>
      <trkpt lat="49.26477" lon="-0.25375">
        <ele>5.6</ele>
        <time>2023-05-04T09:02:09Z</time>
      </trkpt>
      <trkpt lat="49.26485" lon="-0.25373">
        <ele>6</ele>
        <time>2023-05-04T09:02:10Z</time>
      </trkpt>
      <trkpt lat="49.26492" lon="-0.2537">
        <ele>6.4</ele>
        <time>2023-05-04T09:02:11Z</time>
      </trkpt>
      <trkpt lat="49.265" lon="-0.25368">
        <ele>6.6</ele>
        <time>2023-05-04T09:02:12Z</time>
      </trkpt>
      <trkpt lat="49.26508" lon="-0.25366">
        <ele>6.6</ele>
        <time>2023-05-04T09:02:13Z</time>
      </trkpt>
      <trkpt lat="49.26516" lon="-0.25364">
        <ele>6.4</ele>
        <time>2023-05-04T09:02:14Z</time>
      </trkpt>
      <trkpt lat="49.26524" lon="-0.25362">
        <ele>6.4</ele>
        <time>2023-05-04T09:02:15Z</time>
      </trkpt>
      <trkpt lat="49.26531" lon="-0.25359">
        <ele>6.2</ele>
        <time>2023-05-04T09:02:16Z</time>
      </trkpt>
      <trkpt lat="49.26539" lon="-0.25357">
        <ele>6</ele>
        <time>2023-05-04T09:02:17Z</time>
      </trkpt>
      <trkpt lat="49.26547" lon="-0.25355">
        <ele>6</ele>
        <time>2023-05-04T09:02:18Z</time>
      </trkpt>
      <trkpt lat="49.26555" lon="-0.25353">
        <ele>5.6</ele>
        <time>2023-05-04T09:02:19Z</time>
      </trkpt>
      <trkpt lat="49.26563" lon="-0.2535">
        <ele>5.6</ele>
        <time>2023-05-04T09:02:20Z</time>
      </trkpt>
      <trkpt lat="49.26571" lon="-0.25348">
        <ele>5.4</ele>
        <time>2023-05-04T09:02:21Z</time>
      </trkpt>
      <trkpt lat="49.2658" lon="-0.25346">
        <ele>5.2</ele>
        <time>2023-05-04T09:02:22Z</time>
      </trkpt>
      <trkpt lat="49.26588" lon="-0.25343">
        <ele>5.2</ele>
        <time>2023-05-04T09:02:23Z</time>
      </trkpt>
      <trkpt lat="49.26596" lon="-0.25341">
        <ele>5.2</ele>
        <time>2023-05-04T09:02:24Z</time>
      </trkpt>
      <trkpt lat="49.26604" lon="-0.25339">
        <ele>5.4</ele>
        <time>2023-05-04T09:02:25Z</time>
      </trkpt>
      <trkpt lat="49.26612" lon="-0.25337">
        <ele>5.4</ele>
        <time>2023-05-04T09:02:26Z</time>
      </trkpt>
      <trkpt lat="49.2662" lon="-0.25334">
        <ele>5.4</ele>
        <time>2023-05-04T09:02:27Z</time>
      </trkpt>
      <trkpt lat="49.26628" lon="-0.25332">
        <ele>5.6</ele>
        <time>2023-05-04T09:02:28Z</time>
      </trkpt>
      <trkpt lat="49.26636" lon="-0.2533">
        <ele>5.6</ele>
        <time>2023-05-04T09:02:29Z</time>
      </trkpt>
      <trkpt lat="49.26644" lon="-0.25328">
        <ele>6</ele>
        <time>2023-05-04T09:02:30Z</time>
      </trkpt>
      <trkpt lat="49.26652" lon="-0.25325">
        <ele>6</ele>
        <time>2023-05-04T09:02:31Z</time>
      </trkpt>
      <trkpt lat="49.2666" lon="-0.25323">
        <ele>6.4</ele>
        <time>2023-05-04T09:02:32Z</time>
      </trkpt>
      <trkpt lat="49.26668" lon="-0.25321">
        <ele>6.4</ele>
        <time>2023-05-04T09:02:33Z</time>
      </trkpt>
      <trkpt lat="49.26676" lon="-0.25319">
        <ele>6.4</ele>
        <time>2023-05-04T09:02:34Z</time>
      </trkpt>
      <trkpt lat="49.26683" lon="-0.25316">
        <ele>6.2</ele>
        <time>2023-05-04T09:02:35Z</time>
      </trkpt>
      <trkpt lat="49.26691" lon="-0.25314">
        <ele>6.2</ele>
        <time>2023-05-04T09:02:36Z</time>
      </trkpt>
      <trkpt lat="49.26699" lon="-0.25312">
        <ele>6</ele>
        <time>2023-05-04T09:02:37Z</time>
      </trkpt>
      <trkpt lat="49.26707" lon="-0.2531">
        <ele>6</ele>
        <time>2023-05-04T09:02:38Z</time>
      </trkpt>
      <trkpt lat="49.26715" lon="-0.25308">
        <ele>6</ele>
        <time>2023-05-04T09:02:39Z</time>
      </trkpt>
      <trkpt lat="49.26723" lon="-0.25305">
        <ele>6</ele>
        <time>2023-05-04T09:02:40Z</time>
      </trkpt>
      <trkpt lat="49.26731" lon="-0.25303">
        <ele>5.8</ele>
        <time>2023-05-04T09:02:41Z</time>
      </trkpt>
      <trkpt lat="49.26738" lon="-0.25301">
        <ele>5.8</ele>
        <time>2023-05-04T09:02:42Z</time>
      </trkpt>
      <trkpt lat="49.26746" lon="-0.25299">
        <ele>5.6</ele>
        <time>2023-05-04T09:02:43Z</time>
      </trkpt>
      <trkpt lat="49.26754" lon="-0.25297">
        <ele>5.6</ele>
        <time>2023-05-04T09:02:44Z</time>
      </trkpt>
      <trkpt lat="49.26762" lon="-0.25295">
        <ele>5.6</ele>
        <time>2023-05-04T09:02:45Z</time>
      </trkpt>
      <trkpt lat="49.2677" lon="-0.25293">
        <ele>5.4</ele>
        <time>2023-05-04T09:02:46Z</time>
      </trkpt>
      <trkpt lat="49.26778" lon="-0.25291">
        <ele>5.2</ele>
        <time>2023-05-04T09:02:47Z</time>
      </trkpt>
      <trkpt lat="49.26786" lon="-0.25289">
        <ele>5</ele>
        <time>2023-05-04T09:02:48Z</time>
      </trkpt>
      <trkpt lat="49.26794" lon="-0.25287">
        <ele>4.8</ele>
        <time>2023-05-04T09:02:49Z</time>
      </trkpt>
      <trkpt lat="49.26801" lon="-0.25284">
        <ele>4.6</ele>
        <time>2023-05-04T09:02:50Z</time>
      </trkpt>
      <trkpt lat="49.26809" lon="-0.25282">
        <ele>4.4</ele>
        <time>2023-05-04T09:02:51Z</time>
      </trkpt>
      <trkpt lat="49.26817" lon="-0.2528">
        <ele>4.2</ele>
        <time>2023-05-04T09:02:52Z</time>
      </trkpt>
      <trkpt lat="49.26825" lon="-0.25278">
        <ele>4</ele>
        <time>2023-05-04T09:02:53Z</time>
      </trkpt>
      <trkpt lat="49.26833" lon="-0.25276">
        <ele>3.8</ele>
        <time>2023-05-04T09:02:54Z</time>
      </trkpt>
      <trkpt lat="49.26841" lon="-0.25274">
        <ele>3.6</ele>
        <time>2023-05-04T09:02:55Z</time>
      </trkpt>
      <trkpt lat="49.26848" lon="-0.25272">
        <ele>3.4</ele>
        <time>2023-05-04T09:02:56Z</time>
      </trkpt>
      <trkpt lat="49.26856" lon="-0.2527">
        <ele>3.2</ele>
        <time>2023-05-04T09:02:57Z</time>
      </trkpt>
      <trkpt lat="49.26864" lon="-0.25267">
        <ele>3</ele>
        <time>2023-05-04T09:02:58Z</time>
      </trkpt>
      <trkpt lat="49.26872" lon="-0.25265">
        <ele>3</ele>
        <time>2023-05-04T09:02:59Z</time>
      </trkpt>
      <trkpt lat="49.2688" lon="-0.25263">
        <ele>2.8</ele>
        <time>2023-05-04T09:03:00Z</time>
      </trkpt>
      <trkpt lat="49.26887" lon="-0.25261">
        <ele>2.8</ele>
        <time>2023-05-04T09:03:01Z</time>
      </trkpt>
      <trkpt lat="49.26895" lon="-0.25258">
        <ele>2.6</ele>
        <time>2023-05-04T09:03:02Z</time>
      </trkpt>
      <trkpt lat="49.26903" lon="-0.25256">
        <ele>2.2</ele>
        <time>2023-05-04T09:03:03Z</time>
      </trkpt>
      <trkpt lat="49.26911" lon="-0.25254">
        <ele>2</ele>
        <time>2023-05-04T09:03:04Z</time>
      </trkpt>
      <trkpt lat="49.26918" lon="-0.25251">
        <ele>2</ele>
        <time>2023-05-04T09:03:05Z</time>
      </trkpt>
      <trkpt lat="49.26926" lon="-0.25249">
        <ele>2.2</ele>
        <time>2023-05-04T09:03:06Z</time>
      </trkpt>
      <trkpt lat="49.26934" lon="-0.25247">
        <ele>2.6</ele>
        <time>2023-05-04T09:03:07Z</time>
      </trkpt>
      <trkpt lat="49.26941" lon="-0.25245">
        <ele>2.8</ele>
        <time>2023-05-04T09:03:08Z</time>
      </trkpt>
      <trkpt lat="49.26949" lon="-0.25243">
        <ele>3</ele>
        <time>2023-05-04T09:03:09Z</time>
      </trkpt>
      <trkpt lat="49.26957" lon="-0.25241">
        <ele>3</ele>
        <time>2023-05-04T09:03:10Z</time>
      </trkpt>
      <trkpt lat="49.26964" lon="-0.25239">
        <ele>3.2</ele>
        <time>2023-05-04T09:03:11Z</time>
      </trkpt>
      <trkpt lat="49.26972" lon="-0.25237">
        <ele>3.4</ele>
        <time>2023-05-04T09:03:12Z</time>
      </trkpt>
      <trkpt lat="49.2698" lon="-0.25235">
        <ele>3.6</ele>
        <time>2023-05-04T09:03:13Z</time>
      </trkpt>
      <trkpt lat="49.26987" lon="-0.25233">
        <ele>3.8</ele>
        <time>2023-05-04T09:03:14Z</time>
      </trkpt>
      <trkpt lat="49.26995" lon="-0.25231">
        <ele>4</ele>
        <time>2023-05-04T09:03:15Z</time>
      </trkpt>
      <trkpt lat="49.27003" lon="-0.25229">
        <ele>4</ele>
        <time>2023-05-04T09:03:16Z</time>
      </trkpt>
      <trkpt lat="49.2701" lon="-0.25226">
        <ele>3.8</ele>
        <time>2023-05-04T09:03:17Z</time>
      </trkpt>
      <trkpt lat="49.27017" lon="-0.25224">
        <ele>3.6</ele>
        <time>2023-05-04T09:03:18Z</time>
      </trkpt>
      <trkpt lat="49.27024" lon="-0.25222">
        <ele>3.4</ele>
        <time>2023-05-04T09:03:19Z</time>
      </trkpt>
      <trkpt lat="49.27031" lon="-0.2522">
        <ele>3.2</ele>
        <time>2023-05-04T09:03:20Z</time>
      </trkpt>
      <trkpt lat="49.27038" lon="-0.25218">
        <ele>3</ele>
        <time>2023-05-04T09:03:21Z</time>
      </trkpt>
      <trkpt lat="49.27044" lon="-0.25216">
        <ele>2.8</ele>
        <time>2023-05-04T09:03:22Z</time>
      </trkpt>
      <trkpt lat="49.2705" lon="-0.25215">
        <ele>2.8</ele>
        <time>2023-05-04T09:03:23Z</time>
      </trkpt>
      <trkpt lat="49.27054" lon="-0.25214">
        <ele>2.6</ele>
        <time>2023-05-04T09:03:24Z</time>
      </trkpt>
      <trkpt lat="49.27058" lon="-0.25215">
        <ele>2.4</ele>
        <time>2023-05-04T09:03:25Z</time>
      </trkpt>
      <trkpt lat="49.27061" lon="-0.25215">
        <ele>2.2</ele>
        <time>2023-05-04T09:03:26Z</time>
      </trkpt>
      <trkpt lat="49.27064" lon="-0.25215">
        <ele>2.2</ele>
        <time>2023-05-04T09:03:27Z</time>
      </trkpt>
      <trkpt lat="49.27068" lon="-0.25216">
        <ele>2.2</ele>
        <time>2023-05-04T09:03:28Z</time>
      </trkpt>
      <trkpt lat="49.27072" lon="-0.25218">
        <ele>2.2</ele>
        <time>2023-05-04T09:03:29Z</time>
      </trkpt>
      <trkpt lat="49.27076" lon="-0.25221">
        <ele>2</ele>
        <time>2023-05-04T09:03:30Z</time>
      </trkpt>
      <trkpt lat="49.2708" lon="-0.25223">
        <ele>2</ele>
        <time>2023-05-04T09:03:31Z</time>
      </trkpt>
      <trkpt lat="49.27086" lon="-0.25225">
        <ele>2</ele>
        <time>2023-05-04T09:03:32Z</time>
      </trkpt>
      <trkpt lat="49.27091" lon="-0.25227">
        <ele>2.2</ele>
        <time>2023-05-04T09:03:33Z</time>
      </trkpt>
      <trkpt lat="49.27097" lon="-0.25228">
        <ele>2.2</ele>
        <time>2023-05-04T09:03:34Z</time>
      </trkpt>
      <trkpt lat="49.27103" lon="-0.25228">
        <ele>2.2</ele>
        <time>2023-05-04T09:03:35Z</time>
      </trkpt>
      <trkpt lat="49.27109" lon="-0.25227">
        <ele>2.2</ele>
        <time>2023-05-04T09:03:36Z</time>
      </trkpt>
      <trkpt lat="49.27115" lon="-0.25225">
        <ele>2.2</ele>
        <time>2023-05-04T09:03:37Z</time>
      </trkpt>
      <trkpt lat="49.27121" lon="-0.25223">
        <ele>2.2</ele>
        <time>2023-05-04T09:03:38Z</time>
      </trkpt>
      <trkpt lat="49.27127" lon="-0.25221">
        <ele>2.2</ele>
        <time>2023-05-04T09:03:39Z</time>
      </trkpt>
      <trkpt lat="49.27134" lon="-0.25219">
        <ele>2.2</ele>
        <time>2023-05-04T09:03:40Z</time>
      </trkpt>
      <trkpt lat="49.2714" lon="-0.25218">
        <ele>2.2</ele>
        <time>2023-05-04T09:03:41Z</time>
      </trkpt>
      <trkpt lat="49.27147" lon="-0.25217">
        <ele>2.2</ele>
        <time>2023-05-04T09:03:42Z</time>
      </trkpt>
      <trkpt lat="49.27154" lon="-0.25215">
        <ele>2.2</ele>
        <time>2023-05-04T09:03:43Z</time>
      </trkpt>
      <trkpt lat="49.2716" lon="-0.25214">
        <ele>2.4</ele>
        <time>2023-05-04T09:03:44Z</time>
      </trkpt>
      <trkpt lat="49.27167" lon="-0.25214">
        <ele>2.4</ele>
        <time>2023-05-04T09:03:45Z</time>
      </trkpt>
      <trkpt lat="49.27174" lon="-0.25215">
        <ele>2.6</ele>
        <time>2023-05-04T09:03:46Z</time>
      </trkpt>
      <trkpt lat="49.2718" lon="-0.25215">
        <ele>2.6</ele>
        <time>2023-05-04T09:03:47Z</time>
      </trkpt>
      <trkpt lat="49.27187" lon="-0.25214">
        <ele>2.8</ele>
        <time>2023-05-04T09:03:48Z</time>
      </trkpt>
      <trkpt lat="49.27194" lon="-0.25212">
        <ele>3</ele>
        <time>2023-05-04T09:03:49Z</time>
      </trkpt>
      <trkpt lat="49.27201" lon="-0.25211">
        <ele>3</ele>
        <time>2023-05-04T09:03:50Z</time>
      </trkpt>
      <trkpt lat="49.27207" lon="-0.25209">
        <ele>3.2</ele>
        <time>2023-05-04T09:03:51Z</time>
      </trkpt>
      <trkpt lat="49.27214" lon="-0.25208">
        <ele>3.4</ele>
        <time>2023-05-04T09:03:52Z</time>
      </trkpt>
      <trkpt lat="49.27221" lon="-0.25206">
        <ele>3.6</ele>
        <time>2023-05-04T09:03:53Z</time>
      </trkpt>
      <trkpt lat="49.27227" lon="-0.25205">
        <ele>3.8</ele>
        <time>2023-05-04T09:03:54Z</time>
      </trkpt>
      <trkpt lat="49.27234" lon="-0.25203">
        <ele>3.8</ele>
        <time>2023-05-04T09:03:55Z</time>
      </trkpt>
      <trkpt lat="49.27241" lon="-0.252">
        <ele>4</ele>
        <time>2023-05-04T09:03:56Z</time>
      </trkpt>
      <trkpt lat="49.27247" lon="-0.25197">
        <ele>4.2</ele>
        <time>2023-05-04T09:03:57Z</time>
      </trkpt>
      <trkpt lat="49.27252" lon="-0.25192">
        <ele>4.4</ele>
        <time>2023-05-04T09:03:58Z</time>
      </trkpt>
      <trkpt lat="49.27258" lon="-0.25187">
        <ele>4.6</ele>
        <time>2023-05-04T09:03:59Z</time>
      </trkpt>
      <trkpt lat="49.27264" lon="-0.25182">
        <ele>4.6</ele>
        <time>2023-05-04T09:04:00Z</time>
      </trkpt>
      <trkpt lat="49.2727" lon="-0.25178">
        <ele>4.8</ele>
        <time>2023-05-04T09:04:01Z</time>
      </trkpt>
      <trkpt lat="49.27276" lon="-0.25176">
        <ele>4.8</ele>
        <time>2023-05-04T09:04:02Z</time>
      </trkpt>
      <trkpt lat="49.27282" lon="-0.25174">
        <ele>5</ele>
        <time>2023-05-04T09:04:03Z</time>
      </trkpt>
      <trkpt lat="49.27289" lon="-0.25172">
        <ele>5</ele>
        <time>2023-05-04T09:04:04Z</time>
      </trkpt>
      <trkpt lat="49.27295" lon="-0.2517">
        <ele>5</ele>
        <time>2023-05-04T09:04:05Z</time>
      </trkpt>
      <trkpt lat="49.27301" lon="-0.25168">
        <ele>5</ele>
        <time>2023-05-04T09:04:06Z</time>
      </trkpt>
      <trkpt lat="49.27308" lon="-0.25167">
        <ele>5</ele>
        <time>2023-05-04T09:04:07Z</time>
      </trkpt>
      <trkpt lat="49.27314" lon="-0.25165">
        <ele>5</ele>
        <time>2023-05-04T09:04:08Z</time>
      </trkpt>
      <trkpt lat="49.2732" lon="-0.25163">
        <ele>5</ele>
        <time>2023-05-04T09:04:09Z</time>
      </trkpt>
      <trkpt lat="49.27326" lon="-0.25161">
        <ele>5.2</ele>
        <time>2023-05-04T09:04:10Z</time>
      </trkpt>
      <trkpt lat="49.27332" lon="-0.2516">
        <ele>5.4</ele>
        <time>2023-05-04T09:04:11Z</time>
      </trkpt>
      <trkpt lat="49.27337" lon="-0.25158">
        <ele>5.4</ele>
        <time>2023-05-04T09:04:12Z</time>
      </trkpt>
      <trkpt lat="49.27342" lon="-0.25157">
        <ele>5.4</ele>
        <time>2023-05-04T09:04:13Z</time>
      </trkpt>
      <trkpt lat="49.27346" lon="-0.25157">
        <ele>5.4</ele>
        <time>2023-05-04T09:04:14Z</time>
      </trkpt>
      <trkpt lat="49.2735" lon="-0.25157">
        <ele>5.4</ele>
        <time>2023-05-04T09:04:15Z</time>
      </trkpt>
      <trkpt lat="49.27353" lon="-0.25157">
        <ele>5.4</ele>
        <time>2023-05-04T09:04:16Z</time>
      </trkpt>
      <trkpt lat="49.27356" lon="-0.25156">
        <ele>5.4</ele>
        <time>2023-05-04T09:04:17Z</time>
      </trkpt>
      <trkpt lat="49.2736" lon="-0.25156">
        <ele>5.4</ele>
        <time>2023-05-04T09:04:18Z</time>
      </trkpt>
      <trkpt lat="49.27364" lon="-0.25155">
        <ele>5.4</ele>
        <time>2023-05-04T09:04:19Z</time>
      </trkpt>
      <trkpt lat="49.27369" lon="-0.25154">
        <ele>5.4</ele>
        <time>2023-05-04T09:04:20Z</time>
      </trkpt>
      <trkpt lat="49.27373" lon="-0.25153">
        <ele>5.4</ele>
        <time>2023-05-04T09:04:21Z</time>
      </trkpt>
      <trkpt lat="49.27378" lon="-0.25152">
        <ele>5.4</ele>
        <time>2023-05-04T09:04:22Z</time>
      </trkpt>
      <trkpt lat="49.27383" lon="-0.25151">
        <ele>5.4</ele>
        <time>2023-05-04T09:04:23Z</time>
      </trkpt>
      <trkpt lat="49.27388" lon="-0.25151">
        <ele>5.4</ele>
        <time>2023-05-04T09:04:24Z</time>
      </trkpt>
      <trkpt lat="49.27393" lon="-0.2515">
        <ele>5.6</ele>
        <time>2023-05-04T09:04:25Z</time>
      </trkpt>
      <trkpt lat="49.27398" lon="-0.25149">
        <ele>5.6</ele>
        <time>2023-05-04T09:04:26Z</time>
      </trkpt>
      <trkpt lat="49.27404" lon="-0.25148">
        <ele>5.6</ele>
        <time>2023-05-04T09:04:27Z</time>
      </trkpt>
      <trkpt lat="49.27409" lon="-0.25146">
        <ele>5.6</ele>
        <time>2023-05-04T09:04:28Z</time>
      </trkpt>
      <trkpt lat="49.27415" lon="-0.25144">
        <ele>5.6</ele>
        <time>2023-05-04T09:04:29Z</time>
      </trkpt>
      <trkpt lat="49.2742" lon="-0.25142">
        <ele>5.6</ele>
        <time>2023-05-04T09:04:30Z</time>
      </trkpt>
      <trkpt lat="49.27426" lon="-0.25139">
        <ele>5.6</ele>
        <time>2023-05-04T09:04:31Z</time>
      </trkpt>
      <trkpt lat="49.27432" lon="-0.25137">
        <ele>5.6</ele>
        <time>2023-05-04T09:04:32Z</time>
      </trkpt>
      <trkpt lat="49.27437" lon="-0.25135">
        <ele>5.6</ele>
        <time>2023-05-04T09:04:33Z</time>
      </trkpt>
      <trkpt lat="49.27443" lon="-0.25133">
        <ele>5.4</ele>
        <time>2023-05-04T09:04:34Z</time>
      </trkpt>
      <trkpt lat="49.27449" lon="-0.25131">
        <ele>5.4</ele>
        <time>2023-05-04T09:04:35Z</time>
      </trkpt>
      <trkpt lat="49.27455" lon="-0.25129">
        <ele>5.4</ele>
        <time>2023-05-04T09:04:36Z</time>
      </trkpt>
      <trkpt lat="49.2746" lon="-0.25126">
        <ele>5.2</ele>
        <time>2023-05-04T09:04:37Z</time>
      </trkpt>
      <trkpt lat="49.27466" lon="-0.25124">
        <ele>5</ele>
        <time>2023-05-04T09:04:38Z</time>
      </trkpt>
      <trkpt lat="49.27471" lon="-0.25122">
        <ele>5</ele>
        <time>2023-05-04T09:04:39Z</time>
      </trkpt>
      <trkpt lat="49.27477" lon="-0.2512">
        <ele>5</ele>
        <time>2023-05-04T09:04:40Z</time>
      </trkpt>
      <trkpt lat="49.27483" lon="-0.25118">
        <ele>4.8</ele>
        <time>2023-05-04T09:04:41Z</time>
      </trkpt>
      <trkpt lat="49.2749" lon="-0.25116">
        <ele>4.6</ele>
        <time>2023-05-04T09:04:42Z</time>
      </trkpt>
      <trkpt lat="49.27496" lon="-0.25114">
        <ele>4.6</ele>
        <time>2023-05-04T09:04:43Z</time>
      </trkpt>
      <trkpt lat="49.27502" lon="-0.25112">
        <ele>4.4</ele>
        <time>2023-05-04T09:04:44Z</time>
      </trkpt>
      <trkpt lat="49.27509" lon="-0.2511">
        <ele>4.4</ele>
        <time>2023-05-04T09:04:45Z</time>
      </trkpt>
      <trkpt lat="49.27515" lon="-0.25109">
        <ele>4.6</ele>
        <time>2023-05-04T09:04:46Z</time>
      </trkpt>
      <trkpt lat="49.27521" lon="-0.25107">
        <ele>4.6</ele>
        <time>2023-05-04T09:04:47Z</time>
      </trkpt>
      <trkpt lat="49.27528" lon="-0.25105">
        <ele>4.6</ele>
        <time>2023-05-04T09:04:48Z</time>
      </trkpt>
      <trkpt lat="49.27535" lon="-0.25103">
        <ele>4.8</ele>
        <time>2023-05-04T09:04:49Z</time>
      </trkpt>
      <trkpt lat="49.27541" lon="-0.25101">
        <ele>5</ele>
        <time>2023-05-04T09:04:50Z</time>
      </trkpt>
      <trkpt lat="49.27548" lon="-0.25099">
        <ele>5</ele>
        <time>2023-05-04T09:04:51Z</time>
      </trkpt>
      <trkpt lat="49.27555" lon="-0.25097">
        <ele>5</ele>
        <time>2023-05-04T09:04:52Z</time>
      </trkpt>
      <trkpt lat="49.27561" lon="-0.25095">
        <ele>5.4</ele>
        <time>2023-05-04T09:04:53Z</time>
      </trkpt>
      <trkpt lat="49.27568" lon="-0.25093">
        <ele>5.6</ele>
        <time>2023-05-04T09:04:54Z</time>
      </trkpt>
      <trkpt lat="49.27575" lon="-0.25091">
        <ele>5.6</ele>
        <time>2023-05-04T09:04:55Z</time>
      </trkpt>
      <trkpt lat="49.27581" lon="-0.2509">
        <ele>5.8</ele>
        <time>2023-05-04T09:04:56Z</time>
      </trkpt>
      <trkpt lat="49.27588" lon="-0.25088">
        <ele>5.8</ele>
        <time>2023-05-04T09:04:57Z</time>
      </trkpt>
      <trkpt lat="49.27595" lon="-0.25086">
        <ele>5.8</ele>
        <time>2023-05-04T09:04:58Z</time>
      </trkpt>
      <trkpt lat="49.27602" lon="-0.25084">
        <ele>5.8</ele>
        <time>2023-05-04T09:04:59Z</time>
      </trkpt>
      <trkpt lat="49.27608" lon="-0.25082">
        <ele>5.6</ele>
        <time>2023-05-04T09:05:00Z</time>
      </trkpt>
      <trkpt lat="49.27615" lon="-0.2508">
        <ele>5.6</ele>
        <time>2023-05-04T09:05:01Z</time>
      </trkpt>
      <trkpt lat="49.27622" lon="-0.25078">
        <ele>5.6</ele>
        <time>2023-05-04T09:05:02Z</time>
      </trkpt>
      <trkpt lat="49.27629" lon="-0.25076">
        <ele>5.6</ele>
        <time>2023-05-04T09:05:03Z</time>
      </trkpt>
      <trkpt lat="49.27635" lon="-0.25073">
        <ele>5.6</ele>
        <time>2023-05-04T09:05:04Z</time>
      </trkpt>
      <trkpt lat="49.27642" lon="-0.25071">
        <ele>5.4</ele>
        <time>2023-05-04T09:05:05Z</time>
      </trkpt>
      <trkpt lat="49.27649" lon="-0.25069">
        <ele>5.4</ele>
        <time>2023-05-04T09:05:06Z</time>
      </trkpt>
      <trkpt lat="49.27656" lon="-0.25067">
        <ele>5.4</ele>
        <time>2023-05-04T09:05:07Z</time>
      </trkpt>
      <trkpt lat="49.27663" lon="-0.25065">
        <ele>5.4</ele>
        <time>2023-05-04T09:05:08Z</time>
      </trkpt>
      <trkpt lat="49.2767" lon="-0.25063">
        <ele>5.4</ele>
        <time>2023-05-04T09:05:09Z</time>
      </trkpt>
      <trkpt lat="49.27677" lon="-0.25061">
        <ele>5.4</ele>
        <time>2023-05-04T09:05:10Z</time>
      </trkpt>
      <trkpt lat="49.27684" lon="-0.2506">
        <ele>5.4</ele>
        <time>2023-05-04T09:05:11Z</time>
      </trkpt>
      <trkpt lat="49.27691" lon="-0.25058">
        <ele>5.6</ele>
        <time>2023-05-04T09:05:12Z</time>
      </trkpt>
      <trkpt lat="49.27699" lon="-0.25056">
        <ele>5.6</ele>
        <time>2023-05-04T09:05:13Z</time>
      </trkpt>
      <trkpt lat="49.27706" lon="-0.25054">
        <ele>5.6</ele>
        <time>2023-05-04T09:05:14Z</time>
      </trkpt>
      <trkpt lat="49.27713" lon="-0.25052">
        <ele>5.6</ele>
        <time>2023-05-04T09:05:15Z</time>
      </trkpt>
      <trkpt lat="49.2772" lon="-0.25051">
        <ele>5.8</ele>
        <time>2023-05-04T09:05:16Z</time>
      </trkpt>
      <trkpt lat="49.27727" lon="-0.25049">
        <ele>5.8</ele>
        <time>2023-05-04T09:05:17Z</time>
      </trkpt>
      <trkpt lat="49.27734" lon="-0.25047">
        <ele>6</ele>
        <time>2023-05-04T09:05:18Z</time>
      </trkpt>
      <trkpt lat="49.27741" lon="-0.25045">
        <ele>6</ele>
        <time>2023-05-04T09:05:19Z</time>
      </trkpt>
      <trkpt lat="49.27748" lon="-0.25044">
        <ele>6</ele>
        <time>2023-05-04T09:05:20Z</time>
      </trkpt>
      <trkpt lat="49.27755" lon="-0.25042">
        <ele>6</ele>
        <time>2023-05-04T09:05:21Z</time>
      </trkpt>
      <trkpt lat="49.27762" lon="-0.2504">
        <ele>5.6</ele>
        <time>2023-05-04T09:05:22Z</time>
      </trkpt>
      <trkpt lat="49.27768" lon="-0.25038">
        <ele>5.4</ele>
        <time>2023-05-04T09:05:23Z</time>
      </trkpt>
      <trkpt lat="49.27775" lon="-0.25037">
        <ele>5.2</ele>
        <time>2023-05-04T09:05:24Z</time>
      </trkpt>
      <trkpt lat="49.27782" lon="-0.25035">
        <ele>5</ele>
        <time>2023-05-04T09:05:25Z</time>
      </trkpt>
      <trkpt lat="49.27788" lon="-0.25033">
        <ele>4.8</ele>
        <time>2023-05-04T09:05:26Z</time>
      </trkpt>
      <trkpt lat="49.27795" lon="-0.25032">
        <ele>4.6</ele>
        <time>2023-05-04T09:05:27Z</time>
      </trkpt>
      <trkpt lat="49.27801" lon="-0.2503">
        <ele>4.4</ele>
        <time>2023-05-04T09:05:28Z</time>
      </trkpt>
      <trkpt lat="49.27806" lon="-0.25029">
        <ele>4.2</ele>
        <time>2023-05-04T09:05:29Z</time>
      </trkpt>
      <trkpt lat="49.27811" lon="-0.25028">
        <ele>4</ele>
        <time>2023-05-04T09:05:30Z</time>
      </trkpt>
      <trkpt lat="49.27815" lon="-0.25026">
        <ele>4</ele>
        <time>2023-05-04T09:05:31Z</time>
      </trkpt>
      <trkpt lat="49.27817" lon="-0.25025">
        <ele>3.8</ele>
        <time>2023-05-04T09:05:32Z</time>
      </trkpt>
      <trkpt lat="49.27819" lon="-0.25025">
        <ele>3.8</ele>
        <time>2023-05-04T09:05:33Z</time>
      </trkpt>
      <trkpt lat="49.27819" lon="-0.25025">
        <ele>3.8</ele>
        <time>2023-05-04T09:05:34Z</time>
      </trkpt>
      <trkpt lat="49.27819" lon="-0.25025">
        <ele>3.8</ele>
        <time>2023-05-04T09:05:35Z</time>
      </trkpt>
      <trkpt lat="49.2782" lon="-0.25024">
        <ele>3.8</ele>
        <time>2023-05-04T09:05:36Z</time>
      </trkpt>
      <trkpt lat="49.27822" lon="-0.25024">
        <ele>3.6</ele>
        <time>2023-05-04T09:05:37Z</time>
      </trkpt>
      <trkpt lat="49.27825" lon="-0.25023">
        <ele>3.6</ele>
        <time>2023-05-04T09:05:38Z</time>
      </trkpt>
      <trkpt lat="49.27827" lon="-0.25021">
        <ele>3.6</ele>
        <time>2023-05-04T09:05:39Z</time>
      </trkpt>
      <trkpt lat="49.27829" lon="-0.25018">
        <ele>3.4</ele>
        <time>2023-05-04T09:05:40Z</time>
      </trkpt>
      <trkpt lat="49.2783" lon="-0.25013">
        <ele>3.2</ele>
        <time>2023-05-04T09:05:41Z</time>
      </trkpt>
      <trkpt lat="49.2783" lon="-0.25007">
        <ele>3.2</ele>
        <time>2023-05-04T09:05:42Z</time>
      </trkpt>
      <trkpt lat="49.27829" lon="-0.25001">
        <ele>3.2</ele>
        <time>2023-05-04T09:05:43Z</time>
      </trkpt>
      <trkpt lat="49.27828" lon="-0.24994">
        <ele>3</ele>
        <time>2023-05-04T09:05:44Z</time>
      </trkpt>
      <trkpt lat="49.27826" lon="-0.24988">
        <ele>3</ele>
        <time>2023-05-04T09:05:45Z</time>
      </trkpt>
      <trkpt lat="49.27824" lon="-0.24983">
        <ele>3</ele>
        <time>2023-05-04T09:05:46Z</time>
      </trkpt>
      <trkpt lat="49.27822" lon="-0.24977">
        <ele>3</ele>
        <time>2023-05-04T09:05:47Z</time>
      </trkpt>
      <trkpt lat="49.2782" lon="-0.24972">
        <ele>3</ele>
        <time>2023-05-04T09:05:48Z</time>
      </trkpt>
      <trkpt lat="49.27818" lon="-0.24968">
        <ele>3</ele>
        <time>2023-05-04T09:05:49Z</time>
      </trkpt>
      <trkpt lat="49.27817" lon="-0.24963">
        <ele>3</ele>
        <time>2023-05-04T09:05:50Z</time>
      </trkpt>
      <trkpt lat="49.27818" lon="-0.24959">
        <ele>3</ele>
        <time>2023-05-04T09:05:51Z</time>
      </trkpt>
      <trkpt lat="49.27819" lon="-0.24954">
        <ele>2.8</ele>
        <time>2023-05-04T09:05:52Z</time>
      </trkpt>
      <trkpt lat="49.27819" lon="-0.24948">
        <ele>2.8</ele>
        <time>2023-05-04T09:05:53Z</time>
      </trkpt>
      <trkpt lat="49.27819" lon="-0.24942">
        <ele>2.6</ele>
        <time>2023-05-04T09:05:54Z</time>
      </trkpt>
      <trkpt lat="49.2782" lon="-0.24936">
        <ele>2.6</ele>
        <time>2023-05-04T09:05:55Z</time>
      </trkpt>
      <trkpt lat="49.27822" lon="-0.24932">
        <ele>2.4</ele>
        <time>2023-05-04T09:05:56Z</time>
      </trkpt>
      <trkpt lat="49.27825" lon="-0.24928">
        <ele>2.2</ele>
        <time>2023-05-04T09:05:57Z</time>
      </trkpt>
      <trkpt lat="49.27829" lon="-0.24925">
        <ele>2.2</ele>
        <time>2023-05-04T09:05:58Z</time>
      </trkpt>
      <trkpt lat="49.27834" lon="-0.24923">
        <ele>2</ele>
        <time>2023-05-04T09:05:59Z</time>
      </trkpt>
      <trkpt lat="49.27838" lon="-0.24921">
        <ele>2.2</ele>
        <time>2023-05-04T09:06:00Z</time>
      </trkpt>
      <trkpt lat="49.27844" lon="-0.24919">
        <ele>2.2</ele>
        <time>2023-05-04T09:06:01Z</time>
      </trkpt>
      <trkpt lat="49.27849" lon="-0.24918">
        <ele>2.4</ele>
        <time>2023-05-04T09:06:02Z</time>
      </trkpt>
      <trkpt lat="49.27854" lon="-0.24916">
        <ele>2.6</ele>
        <time>2023-05-04T09:06:03Z</time>
      </trkpt>
      <trkpt lat="49.27859" lon="-0.24915">
        <ele>2.8</ele>
        <time>2023-05-04T09:06:04Z</time>
      </trkpt>
      <trkpt lat="49.27865" lon="-0.24913">
        <ele>2.8</ele>
        <time>2023-05-04T09:06:05Z</time>
      </trkpt>
      <trkpt lat="49.2787" lon="-0.24911">
        <ele>3</ele>
        <time>2023-05-04T09:06:06Z</time>
      </trkpt>
      <trkpt lat="49.27876" lon="-0.24909">
        <ele>3</ele>
        <time>2023-05-04T09:06:07Z</time>
      </trkpt>
      <trkpt lat="49.27882" lon="-0.24907">
        <ele>3.2</ele>
        <time>2023-05-04T09:06:08Z</time>
      </trkpt>
      <trkpt lat="49.27888" lon="-0.24906">
        <ele>3.4</ele>
        <time>2023-05-04T09:06:09Z</time>
      </trkpt>
      <trkpt lat="49.27894" lon="-0.24904">
        <ele>3.6</ele>
        <time>2023-05-04T09:06:10Z</time>
      </trkpt>
      <trkpt lat="49.27899" lon="-0.24903">
        <ele>3.8</ele>
        <time>2023-05-04T09:06:11Z</time>
      </trkpt>
      <trkpt lat="49.27905" lon="-0.249">
        <ele>3.8</ele>
        <time>2023-05-04T09:06:12Z</time>
      </trkpt>
      <trkpt lat="49.2791" lon="-0.24896">
        <ele>4</ele>
        <time>2023-05-04T09:06:13Z</time>
      </trkpt>
      <trkpt lat="49.27912" lon="-0.24891">
        <ele>4</ele>
        <time>2023-05-04T09:06:14Z</time>
      </trkpt>
      <trkpt lat="49.27913" lon="-0.24884">
        <ele>4</ele>
        <time>2023-05-04T09:06:15Z</time>
      </trkpt>
      <trkpt lat="49.27912" lon="-0.24879">
        <ele>4</ele>
        <time>2023-05-04T09:06:16Z</time>
      </trkpt>
      <trkpt lat="49.27912" lon="-0.24873">
        <ele>4</ele>
        <time>2023-05-04T09:06:17Z</time>
      </trkpt>
      <trkpt lat="49.27911" lon="-0.24866">
        <ele>4</ele>
        <time>2023-05-04T09:06:18Z</time>
      </trkpt>
      <trkpt lat="49.2791" lon="-0.2486">
        <ele>4</ele>
        <time>2023-05-04T09:06:19Z</time>
      </trkpt>
      <trkpt lat="49.27909" lon="-0.24853">
        <ele>4</ele>
        <time>2023-05-04T09:06:20Z</time>
      </trkpt>
      <trkpt lat="49.27908" lon="-0.24846">
        <ele>4</ele>
        <time>2023-05-04T09:06:21Z</time>
      </trkpt>
      <trkpt lat="49.27907" lon="-0.24838">
        <ele>4</ele>
        <time>2023-05-04T09:06:22Z</time>
      </trkpt>
      <trkpt lat="49.27906" lon="-0.24831">
        <ele>4</ele>
        <time>2023-05-04T09:06:23Z</time>
      </trkpt>
      <trkpt lat="49.27904" lon="-0.24824">
        <ele>4.2</ele>
        <time>2023-05-04T09:06:24Z</time>
      </trkpt>
      <trkpt lat="49.27902" lon="-0.24816">
        <ele>4.4</ele>
        <time>2023-05-04T09:06:25Z</time>
      </trkpt>
      <trkpt lat="49.27899" lon="-0.24809">
        <ele>4.6</ele>
        <time>2023-05-04T09:06:26Z</time>
      </trkpt>
      <trkpt lat="49.27897" lon="-0.24802">
        <ele>4.6</ele>
        <time>2023-05-04T09:06:27Z</time>
      </trkpt>
      <trkpt lat="49.27893" lon="-0.24795">
        <ele>5</ele>
        <time>2023-05-04T09:06:28Z</time>
      </trkpt>
      <trkpt lat="49.2789" lon="-0.2479">
        <ele>5</ele>
        <time>2023-05-04T09:06:29Z</time>
      </trkpt>
      <trkpt lat="49.27885" lon="-0.24787">
        <ele>5</ele>
        <time>2023-05-04T09:06:30Z</time>
      </trkpt>
      <trkpt lat="49.2788" lon="-0.24786">
        <ele>5</ele>
        <time>2023-05-04T09:06:31Z</time>
      </trkpt>
      <trkpt lat="49.27874" lon="-0.24787">
        <ele>5</ele>
        <time>2023-05-04T09:06:32Z</time>
      </trkpt>
      <trkpt lat="49.27869" lon="-0.24788">
        <ele>5</ele>
        <time>2023-05-04T09:06:33Z</time>
      </trkpt>
      <trkpt lat="49.27864" lon="-0.24789">
        <ele>5</ele>
        <time>2023-05-04T09:06:34Z</time>
      </trkpt>
      <trkpt lat="49.27859" lon="-0.2479">
        <ele>5</ele>
        <time>2023-05-04T09:06:35Z</time>
      </trkpt>
      <trkpt lat="49.27854" lon="-0.24792">
        <ele>5</ele>
        <time>2023-05-04T09:06:36Z</time>
      </trkpt>
      <trkpt lat="49.27848" lon="-0.24794">
        <ele>5</ele>
        <time>2023-05-04T09:06:37Z</time>
      </trkpt>
      <trkpt lat="49.27843" lon="-0.24795">
        <ele>5</ele>
        <time>2023-05-04T09:06:38Z</time>
      </trkpt>
      <trkpt lat="49.27838" lon="-0.24797">
        <ele>5</ele>
        <time>2023-05-04T09:06:39Z</time>
      </trkpt>
      <trkpt lat="49.27833" lon="-0.24798">
        <ele>4.8</ele>
        <time>2023-05-04T09:06:40Z</time>
      </trkpt>
      <trkpt lat="49.27827" lon="-0.248">
        <ele>4.6</ele>
        <time>2023-05-04T09:06:41Z</time>
      </trkpt>
      <trkpt lat="49.27822" lon="-0.24802">
        <ele>4.6</ele>
        <time>2023-05-04T09:06:42Z</time>
      </trkpt>
      <trkpt lat="49.27816" lon="-0.24804">
        <ele>4.4</ele>
        <time>2023-05-04T09:06:43Z</time>
      </trkpt>
      <trkpt lat="49.27811" lon="-0.24806">
        <ele>4.4</ele>
        <time>2023-05-04T09:06:44Z</time>
      </trkpt>
      <trkpt lat="49.27805" lon="-0.24808">
        <ele>4.2</ele>
        <time>2023-05-04T09:06:45Z</time>
      </trkpt>
      <trkpt lat="49.27799" lon="-0.2481">
        <ele>4</ele>
        <time>2023-05-04T09:06:46Z</time>
      </trkpt>
      <trkpt lat="49.27793" lon="-0.24812">
        <ele>4</ele>
        <time>2023-05-04T09:06:47Z</time>
      </trkpt>
      <trkpt lat="49.27788" lon="-0.24813">
        <ele>3.8</ele>
        <time>2023-05-04T09:06:48Z</time>
      </trkpt>
      <trkpt lat="49.27782" lon="-0.24813">
        <ele>3.8</ele>
        <time>2023-05-04T09:06:49Z</time>
      </trkpt>
      <trkpt lat="49.27776" lon="-0.24811">
        <ele>3.8</ele>
        <time>2023-05-04T09:06:50Z</time>
      </trkpt>
      <trkpt lat="49.27771" lon="-0.24809">
        <ele>3.6</ele>
        <time>2023-05-04T09:06:51Z</time>
      </trkpt>
      <trkpt lat="49.27765" lon="-0.24804">
        <ele>3.6</ele>
        <time>2023-05-04T09:06:52Z</time>
      </trkpt>
      <trkpt lat="49.27761" lon="-0.24799">
        <ele>3.6</ele>
        <time>2023-05-04T09:06:53Z</time>
      </trkpt>
      <trkpt lat="49.27757" lon="-0.24792">
        <ele>3.6</ele>
        <time>2023-05-04T09:06:54Z</time>
      </trkpt>
      <trkpt lat="49.27754" lon="-0.24785">
        <ele>3.8</ele>
        <time>2023-05-04T09:06:55Z</time>
      </trkpt>
      <trkpt lat="49.27751" lon="-0.24777">
        <ele>3.8</ele>
        <time>2023-05-04T09:06:56Z</time>
      </trkpt>
      <trkpt lat="49.27748" lon="-0.24769">
        <ele>3.8</ele>
        <time>2023-05-04T09:06:57Z</time>
      </trkpt>
      <trkpt lat="49.27744" lon="-0.24761">
        <ele>3.8</ele>
        <time>2023-05-04T09:06:58Z</time>
      </trkpt>
      <trkpt lat="49.27741" lon="-0.24754">
        <ele>3.8</ele>
        <time>2023-05-04T09:06:59Z</time>
      </trkpt>
      <trkpt lat="49.27737" lon="-0.24747">
        <ele>4</ele>
        <time>2023-05-04T09:07:00Z</time>
      </trkpt>
      <trkpt lat="49.27733" lon="-0.2474">
        <ele>4</ele>
        <time>2023-05-04T09:07:01Z</time>
      </trkpt>
      <trkpt lat="49.27729" lon="-0.24733">
        <ele>4.2</ele>
        <time>2023-05-04T09:07:02Z</time>
      </trkpt>
      <trkpt lat="49.27726" lon="-0.24727">
        <ele>4.4</ele>
        <time>2023-05-04T09:07:03Z</time>
      </trkpt>
      <trkpt lat="49.27723" lon="-0.2472">
        <ele>4.4</ele>
        <time>2023-05-04T09:07:04Z</time>
      </trkpt>
      <trkpt lat="49.27719" lon="-0.24714">
        <ele>4.6</ele>
        <time>2023-05-04T09:07:05Z</time>
      </trkpt>
      <trkpt lat="49.27715" lon="-0.24707">
        <ele>4.6</ele>
        <time>2023-05-04T09:07:06Z</time>
      </trkpt>
      <trkpt lat="49.27711" lon="-0.247">
        <ele>4.6</ele>
        <time>2023-05-04T09:07:07Z</time>
      </trkpt>
      <trkpt lat="49.27706" lon="-0.24693">
        <ele>4.8</ele>
        <time>2023-05-04T09:07:08Z</time>
      </trkpt>
      <trkpt lat="49.27701" lon="-0.24686">
        <ele>5</ele>
        <time>2023-05-04T09:07:09Z</time>
      </trkpt>
      <trkpt lat="49.27696" lon="-0.2468">
        <ele>5</ele>
        <time>2023-05-04T09:07:10Z</time>
      </trkpt>
      <trkpt lat="49.2769" lon="-0.24674">
        <ele>5</ele>
        <time>2023-05-04T09:07:11Z</time>
      </trkpt>
      <trkpt lat="49.27684" lon="-0.24669">
        <ele>5.2</ele>
        <time>2023-05-04T09:07:12Z</time>
      </trkpt>
      <trkpt lat="49.27679" lon="-0.24665">
        <ele>5</ele>
        <time>2023-05-04T09:07:13Z</time>
      </trkpt>
      <trkpt lat="49.27672" lon="-0.24661">
        <ele>5</ele>
        <time>2023-05-04T09:07:14Z</time>
      </trkpt>
      <trkpt lat="49.27666" lon="-0.24658">
        <ele>5</ele>
        <time>2023-05-04T09:07:15Z</time>
      </trkpt>
      <trkpt lat="49.2766" lon="-0.24655">
        <ele>5</ele>
        <time>2023-05-04T09:07:16Z</time>
      </trkpt>
      <trkpt lat="49.27654" lon="-0.24653">
        <ele>5</ele>
        <time>2023-05-04T09:07:17Z</time>
      </trkpt>
      <trkpt lat="49.27647" lon="-0.24652">
        <ele>5</ele>
        <time>2023-05-04T09:07:18Z</time>
      </trkpt>
      <trkpt lat="49.27641" lon="-0.24651">
        <ele>5</ele>
        <time>2023-05-04T09:07:19Z</time>
      </trkpt>
      <trkpt lat="49.27634" lon="-0.2465">
        <ele>5</ele>
        <time>2023-05-04T09:07:20Z</time>
      </trkpt>
      <trkpt lat="49.27628" lon="-0.2465">
        <ele>5</ele>
        <time>2023-05-04T09:07:21Z</time>
      </trkpt>
      <trkpt lat="49.27621" lon="-0.24651">
        <ele>5</ele>
        <time>2023-05-04T09:07:22Z</time>
      </trkpt>
      <trkpt lat="49.27614" lon="-0.24652">
        <ele>5</ele>
        <time>2023-05-04T09:07:23Z</time>
      </trkpt>
      <trkpt lat="49.27608" lon="-0.24653">
        <ele>5</ele>
        <time>2023-05-04T09:07:24Z</time>
      </trkpt>
      <trkpt lat="49.27601" lon="-0.24654">
        <ele>5</ele>
        <time>2023-05-04T09:07:25Z</time>
      </trkpt>
      <trkpt lat="49.27595" lon="-0.24656">
        <ele>5</ele>
        <time>2023-05-04T09:07:26Z</time>
      </trkpt>
      <trkpt lat="49.27589" lon="-0.24657">
        <ele>5</ele>
        <time>2023-05-04T09:07:27Z</time>
      </trkpt>
      <trkpt lat="49.27582" lon="-0.24659">
        <ele>5</ele>
        <time>2023-05-04T09:07:28Z</time>
      </trkpt>
      <trkpt lat="49.27576" lon="-0.24661">
        <ele>4.8</ele>
        <time>2023-05-04T09:07:29Z</time>
      </trkpt>
      <trkpt lat="49.2757" lon="-0.24663">
        <ele>4.8</ele>
        <time>2023-05-04T09:07:30Z</time>
      </trkpt>
      <trkpt lat="49.27563" lon="-0.24665">
        <ele>4.6</ele>
        <time>2023-05-04T09:07:31Z</time>
      </trkpt>
      <trkpt lat="49.27557" lon="-0.24667">
        <ele>4.6</ele>
        <time>2023-05-04T09:07:32Z</time>
      </trkpt>
      <trkpt lat="49.27551" lon="-0.24669">
        <ele>4.6</ele>
        <time>2023-05-04T09:07:33Z</time>
      </trkpt>
      <trkpt lat="49.27545" lon="-0.2467">
        <ele>4.6</ele>
        <time>2023-05-04T09:07:34Z</time>
      </trkpt>
      <trkpt lat="49.27539" lon="-0.24672">
        <ele>4.4</ele>
        <time>2023-05-04T09:07:35Z</time>
      </trkpt>
      <trkpt lat="49.27533" lon="-0.24674">
        <ele>4.4</ele>
        <time>2023-05-04T09:07:36Z</time>
      </trkpt>
      <trkpt lat="49.27527" lon="-0.24675">
        <ele>4.4</ele>
        <time>2023-05-04T09:07:37Z</time>
      </trkpt>
      <trkpt lat="49.27521" lon="-0.24677">
        <ele>4.2</ele>
        <time>2023-05-04T09:07:38Z</time>
      </trkpt>
      <trkpt lat="49.27515" lon="-0.24679">
        <ele>4</ele>
        <time>2023-05-04T09:07:39Z</time>
      </trkpt>
      <trkpt lat="49.2751" lon="-0.2468">
        <ele>4</ele>
        <time>2023-05-04T09:07:40Z</time>
      </trkpt>
      <trkpt lat="49.27504" lon="-0.24682">
        <ele>4</ele>
        <time>2023-05-04T09:07:41Z</time>
      </trkpt>
      <trkpt lat="49.27498" lon="-0.24683">
        <ele>4</ele>
        <time>2023-05-04T09:07:42Z</time>
      </trkpt>
      <trkpt lat="49.27492" lon="-0.24685">
        <ele>4</ele>
        <time>2023-05-04T09:07:43Z</time>
      </trkpt>
      <trkpt lat="49.27486" lon="-0.24686">
        <ele>4</ele>
        <time>2023-05-04T09:07:44Z</time>
      </trkpt>
      <trkpt lat="49.2748" lon="-0.24688">
        <ele>4.2</ele>
        <time>2023-05-04T09:07:45Z</time>
      </trkpt>
      <trkpt lat="49.27474" lon="-0.2469">
        <ele>4.2</ele>
        <time>2023-05-04T09:07:46Z</time>
      </trkpt>
      <trkpt lat="49.27469" lon="-0.24691">
        <ele>4.4</ele>
        <time>2023-05-04T09:07:47Z</time>
      </trkpt>
      <trkpt lat="49.27463" lon="-0.24693">
        <ele>4.4</ele>
        <time>2023-05-04T09:07:48Z</time>
      </trkpt>
      <trkpt lat="49.27457" lon="-0.24695">
        <ele>4.4</ele>
        <time>2023-05-04T09:07:49Z</time>
      </trkpt>
      <trkpt lat="49.27451" lon="-0.24696">
        <ele>4.4</ele>
        <time>2023-05-04T09:07:50Z</time>
      </trkpt>
      <trkpt lat="49.27445" lon="-0.24698">
        <ele>4.4</ele>
        <time>2023-05-04T09:07:51Z</time>
      </trkpt>
      <trkpt lat="49.27439" lon="-0.247">
        <ele>4.4</ele>
        <time>2023-05-04T09:07:52Z</time>
      </trkpt>
      <trkpt lat="49.27434" lon="-0.24701">
        <ele>4.6</ele>
        <time>2023-05-04T09:07:53Z</time>
      </trkpt>
      <trkpt lat="49.27428" lon="-0.24703">
        <ele>4.6</ele>
        <time>2023-05-04T09:07:54Z</time>
      </trkpt>
      <trkpt lat="49.27422" lon="-0.24705">
        <ele>4.6</ele>
        <time>2023-05-04T09:07:55Z</time>
      </trkpt>
      <trkpt lat="49.27416" lon="-0.24706">
        <ele>4.6</ele>
        <time>2023-05-04T09:07:56Z</time>
      </trkpt>
      <trkpt lat="49.2741" lon="-0.24708">
        <ele>4.6</ele>
        <time>2023-05-04T09:07:57Z</time>
      </trkpt>
      <trkpt lat="49.27404" lon="-0.2471">
        <ele>4.6</ele>
        <time>2023-05-04T09:07:58Z</time>
      </trkpt>
      <trkpt lat="49.27399" lon="-0.24711">
        <ele>4.6</ele>
        <time>2023-05-04T09:07:59Z</time>
      </trkpt>
      <trkpt lat="49.27393" lon="-0.24713">
        <ele>4.4</ele>
        <time>2023-05-04T09:08:00Z</time>
      </trkpt>
      <trkpt lat="49.27387" lon="-0.24715">
        <ele>4.4</ele>
        <time>2023-05-04T09:08:01Z</time>
      </trkpt>
      <trkpt lat="49.27381" lon="-0.24716">
        <ele>4.4</ele>
        <time>2023-05-04T09:08:02Z</time>
      </trkpt>
      <trkpt lat="49.27375" lon="-0.24718">
        <ele>4.4</ele>
        <time>2023-05-04T09:08:03Z</time>
      </trkpt>
      <trkpt lat="49.2737" lon="-0.24719">
        <ele>4.4</ele>
        <time>2023-05-04T09:08:04Z</time>
      </trkpt>
      <trkpt lat="49.27364" lon="-0.24721">
        <ele>4.4</ele>
        <time>2023-05-04T09:08:05Z</time>
      </trkpt>
      <trkpt lat="49.27358" lon="-0.24723">
        <ele>4.4</ele>
        <time>2023-05-04T09:08:06Z</time>
      </trkpt>
      <trkpt lat="49.27352" lon="-0.24724">
        <ele>4.4</ele>
        <time>2023-05-04T09:08:07Z</time>
      </trkpt>
      <trkpt lat="49.27347" lon="-0.24726">
        <ele>4.4</ele>
        <time>2023-05-04T09:08:08Z</time>
      </trkpt>
      <trkpt lat="49.27341" lon="-0.24727">
        <ele>4.4</ele>
        <time>2023-05-04T09:08:09Z</time>
      </trkpt>
      <trkpt lat="49.27335" lon="-0.24729">
        <ele>4.4</ele>
        <time>2023-05-04T09:08:10Z</time>
      </trkpt>
      <trkpt lat="49.2733" lon="-0.2473">
        <ele>4.4</ele>
        <time>2023-05-04T09:08:11Z</time>
      </trkpt>
      <trkpt lat="49.27324" lon="-0.24732">
        <ele>4.4</ele>
        <time>2023-05-04T09:08:12Z</time>
      </trkpt>
      <trkpt lat="49.27319" lon="-0.24733">
        <ele>4.4</ele>
        <time>2023-05-04T09:08:13Z</time>
      </trkpt>
      <trkpt lat="49.27313" lon="-0.24735">
        <ele>4.4</ele>
        <time>2023-05-04T09:08:14Z</time>
      </trkpt>
      <trkpt lat="49.27307" lon="-0.24736">
        <ele>4.4</ele>
        <time>2023-05-04T09:08:15Z</time>
      </trkpt>
      <trkpt lat="49.27302" lon="-0.24738">
        <ele>4.4</ele>
        <time>2023-05-04T09:08:16Z</time>
      </trkpt>
      <trkpt lat="49.27296" lon="-0.2474">
        <ele>4.6</ele>
        <time>2023-05-04T09:08:17Z</time>
      </trkpt>
      <trkpt lat="49.2729" lon="-0.24741">
        <ele>4.6</ele>
        <time>2023-05-04T09:08:18Z</time>
      </trkpt>
      <trkpt lat="49.27284" lon="-0.24743">
        <ele>4.6</ele>
        <time>2023-05-04T09:08:19Z</time>
      </trkpt>
      <trkpt lat="49.27279" lon="-0.24744">
        <ele>4.6</ele>
        <time>2023-05-04T09:08:20Z</time>
      </trkpt>
      <trkpt lat="49.27273" lon="-0.24746">
        <ele>4.6</ele>
        <time>2023-05-04T09:08:21Z</time>
      </trkpt>
      <trkpt lat="49.27267" lon="-0.24748">
        <ele>4.8</ele>
        <time>2023-05-04T09:08:22Z</time>
      </trkpt>
      <trkpt lat="49.27261" lon="-0.24749">
        <ele>5</ele>
        <time>2023-05-04T09:08:23Z</time>
      </trkpt>
      <trkpt lat="49.27256" lon="-0.24751">
        <ele>5</ele>
        <time>2023-05-04T09:08:24Z</time>
      </trkpt>
      <trkpt lat="49.2725" lon="-0.24753">
        <ele>5</ele>
        <time>2023-05-04T09:08:25Z</time>
      </trkpt>
      <trkpt lat="49.27244" lon="-0.24755">
        <ele>5</ele>
        <time>2023-05-04T09:08:26Z</time>
      </trkpt>
      <trkpt lat="49.27238" lon="-0.24758">
        <ele>4.8</ele>
        <time>2023-05-04T09:08:27Z</time>
      </trkpt>
      <trkpt lat="49.27233" lon="-0.24761">
        <ele>4.8</ele>
        <time>2023-05-04T09:08:28Z</time>
      </trkpt>
      <trkpt lat="49.27227" lon="-0.24764">
        <ele>4.6</ele>
        <time>2023-05-04T09:08:29Z</time>
      </trkpt>
      <trkpt lat="49.27222" lon="-0.24768">
        <ele>4.6</ele>
        <time>2023-05-04T09:08:30Z</time>
      </trkpt>
      <trkpt lat="49.27216" lon="-0.24772">
        <ele>4.6</ele>
        <time>2023-05-04T09:08:31Z</time>
      </trkpt>
      <trkpt lat="49.27211" lon="-0.24777">
        <ele>4.6</ele>
        <time>2023-05-04T09:08:32Z</time>
      </trkpt>
      <trkpt lat="49.27206" lon="-0.24781">
        <ele>4.6</ele>
        <time>2023-05-04T09:08:33Z</time>
      </trkpt>
      <trkpt lat="49.272" lon="-0.24786">
        <ele>4.4</ele>
        <time>2023-05-04T09:08:34Z</time>
      </trkpt>
      <trkpt lat="49.27195" lon="-0.24791">
        <ele>4.4</ele>
        <time>2023-05-04T09:08:35Z</time>
      </trkpt>
      <trkpt lat="49.2719" lon="-0.24796">
        <ele>4.4</ele>
        <time>2023-05-04T09:08:36Z</time>
      </trkpt>
      <trkpt lat="49.27185" lon="-0.24801">
        <ele>4.2</ele>
        <time>2023-05-04T09:08:37Z</time>
      </trkpt>
      <trkpt lat="49.27181" lon="-0.24807">
        <ele>4.2</ele>
        <time>2023-05-04T09:08:38Z</time>
      </trkpt>
      <trkpt lat="49.27176" lon="-0.24814">
        <ele>4</ele>
        <time>2023-05-04T09:08:39Z</time>
      </trkpt>
      <trkpt lat="49.27172" lon="-0.24821">
        <ele>4</ele>
        <time>2023-05-04T09:08:40Z</time>
      </trkpt>
      <trkpt lat="49.27168" lon="-0.24828">
        <ele>4</ele>
        <time>2023-05-04T09:08:41Z</time>
      </trkpt>
      <trkpt lat="49.27165" lon="-0.24835">
        <ele>4</ele>
        <time>2023-05-04T09:08:42Z</time>
      </trkpt>
      <trkpt lat="49.27161" lon="-0.24843">
        <ele>4</ele>
        <time>2023-05-04T09:08:43Z</time>
      </trkpt>
      <trkpt lat="49.27158" lon="-0.24851">
        <ele>3.8</ele>
        <time>2023-05-04T09:08:44Z</time>
      </trkpt>
      <trkpt lat="49.27155" lon="-0.24858">
        <ele>3.8</ele>
        <time>2023-05-04T09:08:45Z</time>
      </trkpt>
      <trkpt lat="49.27152" lon="-0.24866">
        <ele>3.8</ele>
        <time>2023-05-04T09:08:46Z</time>
      </trkpt>
      <trkpt lat="49.27149" lon="-0.24874">
        <ele>3.8</ele>
        <time>2023-05-04T09:08:47Z</time>
      </trkpt>
      <trkpt lat="49.27146" lon="-0.24882">
        <ele>3.8</ele>
        <time>2023-05-04T09:08:48Z</time>
      </trkpt>
      <trkpt lat="49.27143" lon="-0.2489">
        <ele>3.8</ele>
        <time>2023-05-04T09:08:49Z</time>
      </trkpt>
      <trkpt lat="49.2714" lon="-0.24898">
        <ele>3.8</ele>
        <time>2023-05-04T09:08:50Z</time>
      </trkpt>
      <trkpt lat="49.27137" lon="-0.24907">
        <ele>3.8</ele>
        <time>2023-05-04T09:08:51Z</time>
      </trkpt>
      <trkpt lat="49.27134" lon="-0.24915">
        <ele>3.8</ele>
        <time>2023-05-04T09:08:52Z</time>
      </trkpt>
      <trkpt lat="49.27131" lon="-0.24923">
        <ele>4</ele>
        <time>2023-05-04T09:08:53Z</time>
      </trkpt>
      <trkpt lat="49.27128" lon="-0.24931">
        <ele>4</ele>
        <time>2023-05-04T09:08:54Z</time>
      </trkpt>
      <trkpt lat="49.27125" lon="-0.24939">
        <ele>4</ele>
        <time>2023-05-04T09:08:55Z</time>
      </trkpt>
      <trkpt lat="49.27121" lon="-0.24947">
        <ele>4.4</ele>
        <time>2023-05-04T09:08:56Z</time>
      </trkpt>
      <trkpt lat="49.27118" lon="-0.24955">
        <ele>4.4</ele>
        <time>2023-05-04T09:08:57Z</time>
      </trkpt>
      <trkpt lat="49.27115" lon="-0.24963">
        <ele>4.6</ele>
        <time>2023-05-04T09:08:58Z</time>
      </trkpt>
      <trkpt lat="49.27111" lon="-0.24971">
        <ele>4.6</ele>
        <time>2023-05-04T09:08:59Z</time>
      </trkpt>
      <trkpt lat="49.27108" lon="-0.24978">
        <ele>4.6</ele>
        <time>2023-05-04T09:09:00Z</time>
      </trkpt>
      <trkpt lat="49.27104" lon="-0.24986">
        <ele>4.6</ele>
        <time>2023-05-04T09:09:01Z</time>
      </trkpt>
      <trkpt lat="49.271" lon="-0.24993">
        <ele>4.8</ele>
        <time>2023-05-04T09:09:02Z</time>
      </trkpt>
      <trkpt lat="49.27096" lon="-0.25">
        <ele>4.8</ele>
        <time>2023-05-04T09:09:03Z</time>
      </trkpt>
      <trkpt lat="49.27092" lon="-0.25007">
        <ele>4.8</ele>
        <time>2023-05-04T09:09:04Z</time>
      </trkpt>
      <trkpt lat="49.27087" lon="-0.25013">
        <ele>4.8</ele>
        <time>2023-05-04T09:09:05Z</time>
      </trkpt>
      <trkpt lat="49.27083" lon="-0.25019">
        <ele>4.8</ele>
        <time>2023-05-04T09:09:06Z</time>
      </trkpt>
      <trkpt lat="49.27078" lon="-0.25025">
        <ele>4.6</ele>
        <time>2023-05-04T09:09:07Z</time>
      </trkpt>
      <trkpt lat="49.27073" lon="-0.2503">
        <ele>4.6</ele>
        <time>2023-05-04T09:09:08Z</time>
      </trkpt>
      <trkpt lat="49.27068" lon="-0.25035">
        <ele>4.6</ele>
        <time>2023-05-04T09:09:09Z</time>
      </trkpt>
      <trkpt lat="49.27063" lon="-0.2504">
        <ele>4.4</ele>
        <time>2023-05-04T09:09:10Z</time>
      </trkpt>
      <trkpt lat="49.27057" lon="-0.25044">
        <ele>4.4</ele>
        <time>2023-05-04T09:09:11Z</time>
      </trkpt>
      <trkpt lat="49.27052" lon="-0.25048">
        <ele>4.4</ele>
        <time>2023-05-04T09:09:12Z</time>
      </trkpt>
      <trkpt lat="49.27046" lon="-0.25052">
        <ele>4.2</ele>
        <time>2023-05-04T09:09:13Z</time>
      </trkpt>
      <trkpt lat="49.27041" lon="-0.25055">
        <ele>4.2</ele>
        <time>2023-05-04T09:09:14Z</time>
      </trkpt>
      <trkpt lat="49.27035" lon="-0.25058">
        <ele>4</ele>
        <time>2023-05-04T09:09:15Z</time>
      </trkpt>
      <trkpt lat="49.2703" lon="-0.2506">
        <ele>4</ele>
        <time>2023-05-04T09:09:16Z</time>
      </trkpt>
      <trkpt lat="49.27024" lon="-0.25062">
        <ele>4</ele>
        <time>2023-05-04T09:09:17Z</time>
      </trkpt>
      <trkpt lat="49.27018" lon="-0.25064">
        <ele>4</ele>
        <time>2023-05-04T09:09:18Z</time>
      </trkpt>
      <trkpt lat="49.27013" lon="-0.25066">
        <ele>4</ele>
        <time>2023-05-04T09:09:19Z</time>
      </trkpt>
      <trkpt lat="49.27007" lon="-0.25068">
        <ele>4</ele>
        <time>2023-05-04T09:09:20Z</time>
      </trkpt>
      <trkpt lat="49.27001" lon="-0.2507">
        <ele>4</ele>
        <time>2023-05-04T09:09:21Z</time>
      </trkpt>
      <trkpt lat="49.26996" lon="-0.25071">
        <ele>4</ele>
        <time>2023-05-04T09:09:22Z</time>
      </trkpt>
      <trkpt lat="49.2699" lon="-0.25073">
        <ele>4</ele>
        <time>2023-05-04T09:09:23Z</time>
      </trkpt>
      <trkpt lat="49.26985" lon="-0.25074">
        <ele>4</ele>
        <time>2023-05-04T09:09:24Z</time>
      </trkpt>
      <trkpt lat="49.26979" lon="-0.25076">
        <ele>4</ele>
        <time>2023-05-04T09:09:25Z</time>
      </trkpt>
      <trkpt lat="49.26973" lon="-0.25077">
        <ele>4</ele>
        <time>2023-05-04T09:09:26Z</time>
      </trkpt>
      <trkpt lat="49.26968" lon="-0.25078">
        <ele>4</ele>
        <time>2023-05-04T09:09:27Z</time>
      </trkpt>
      <trkpt lat="49.26962" lon="-0.2508">
        <ele>4</ele>
        <time>2023-05-04T09:09:28Z</time>
      </trkpt>
      <trkpt lat="49.26956" lon="-0.25082">
        <ele>4</ele>
        <time>2023-05-04T09:09:29Z</time>
      </trkpt>
      <trkpt lat="49.26951" lon="-0.25083">
        <ele>4</ele>
        <time>2023-05-04T09:09:30Z</time>
      </trkpt>
      <trkpt lat="49.26945" lon="-0.25084">
        <ele>4</ele>
        <time>2023-05-04T09:09:31Z</time>
      </trkpt>
      <trkpt lat="49.26939" lon="-0.25086">
        <ele>4</ele>
        <time>2023-05-04T09:09:32Z</time>
      </trkpt>
      <trkpt lat="49.26934" lon="-0.25087">
        <ele>4</ele>
        <time>2023-05-04T09:09:33Z</time>
      </trkpt>
      <trkpt lat="49.26928" lon="-0.25089">
        <ele>4</ele>
        <time>2023-05-04T09:09:34Z</time>
      </trkpt>
      <trkpt lat="49.26923" lon="-0.2509">
        <ele>4</ele>
        <time>2023-05-04T09:09:35Z</time>
      </trkpt>
      <trkpt lat="49.26917" lon="-0.25092">
        <ele>4</ele>
        <time>2023-05-04T09:09:36Z</time>
      </trkpt>
      <trkpt lat="49.26912" lon="-0.25093">
        <ele>4</ele>
        <time>2023-05-04T09:09:37Z</time>
      </trkpt>
      <trkpt lat="49.26906" lon="-0.25094">
        <ele>3.8</ele>
        <time>2023-05-04T09:09:38Z</time>
      </trkpt>
      <trkpt lat="49.26901" lon="-0.25095">
        <ele>3.6</ele>
        <time>2023-05-04T09:09:39Z</time>
      </trkpt>
      <trkpt lat="49.26895" lon="-0.25097">
        <ele>3.6</ele>
        <time>2023-05-04T09:09:40Z</time>
      </trkpt>
      <trkpt lat="49.2689" lon="-0.25099">
        <ele>3.4</ele>
        <time>2023-05-04T09:09:41Z</time>
      </trkpt>
      <trkpt lat="49.26885" lon="-0.25101">
        <ele>3.2</ele>
        <time>2023-05-04T09:09:42Z</time>
      </trkpt>
      <trkpt lat="49.2688" lon="-0.25103">
        <ele>3.2</ele>
        <time>2023-05-04T09:09:43Z</time>
      </trkpt>
      <trkpt lat="49.26875" lon="-0.25104">
        <ele>3</ele>
        <time>2023-05-04T09:09:44Z</time>
      </trkpt>
      <trkpt lat="49.26869" lon="-0.25106">
        <ele>3</ele>
        <time>2023-05-04T09:09:45Z</time>
      </trkpt>
      <trkpt lat="49.26864" lon="-0.25108">
        <ele>3</ele>
        <time>2023-05-04T09:09:46Z</time>
      </trkpt>
      <trkpt lat="49.26858" lon="-0.2511">
        <ele>2.8</ele>
        <time>2023-05-04T09:09:47Z</time>
      </trkpt>
      <trkpt lat="49.26853" lon="-0.25112">
        <ele>2.8</ele>
        <time>2023-05-04T09:09:48Z</time>
      </trkpt>
      <trkpt lat="49.26847" lon="-0.25114">
        <ele>2.6</ele>
        <time>2023-05-04T09:09:49Z</time>
      </trkpt>
      <trkpt lat="49.26842" lon="-0.25116">
        <ele>2.6</ele>
        <time>2023-05-04T09:09:50Z</time>
      </trkpt>
      <trkpt lat="49.26836" lon="-0.25118">
        <ele>2.6</ele>
        <time>2023-05-04T09:09:51Z</time>
      </trkpt>
      <trkpt lat="49.26831" lon="-0.2512">
        <ele>2.6</ele>
        <time>2023-05-04T09:09:52Z</time>
      </trkpt>
      <trkpt lat="49.26825" lon="-0.25123">
        <ele>2.8</ele>
        <time>2023-05-04T09:09:53Z</time>
      </trkpt>
      <trkpt lat="49.2682" lon="-0.25125">
        <ele>2.8</ele>
        <time>2023-05-04T09:09:54Z</time>
      </trkpt>
      <trkpt lat="49.26814" lon="-0.25128">
        <ele>3</ele>
        <time>2023-05-04T09:09:55Z</time>
      </trkpt>
      <trkpt lat="49.26808" lon="-0.2513">
        <ele>3.2</ele>
        <time>2023-05-04T09:09:56Z</time>
      </trkpt>
      <trkpt lat="49.26803" lon="-0.25132">
        <ele>3.4</ele>
        <time>2023-05-04T09:09:57Z</time>
      </trkpt>
      <trkpt lat="49.26797" lon="-0.25135">
        <ele>3.6</ele>
        <time>2023-05-04T09:09:58Z</time>
      </trkpt>
      <trkpt lat="49.26791" lon="-0.25137">
        <ele>3.8</ele>
        <time>2023-05-04T09:09:59Z</time>
      </trkpt>
      <trkpt lat="49.26785" lon="-0.25139">
        <ele>4</ele>
        <time>2023-05-04T09:10:00Z</time>
      </trkpt>
      <trkpt lat="49.2678" lon="-0.25141">
        <ele>4.2</ele>
        <time>2023-05-04T09:10:01Z</time>
      </trkpt>
      <trkpt lat="49.26774" lon="-0.25143">
        <ele>4.6</ele>
        <time>2023-05-04T09:10:02Z</time>
      </trkpt>
      <trkpt lat="49.26768" lon="-0.25145">
        <ele>4.6</ele>
        <time>2023-05-04T09:10:03Z</time>
      </trkpt>
      <trkpt lat="49.26762" lon="-0.25147">
        <ele>5</ele>
        <time>2023-05-04T09:10:04Z</time>
      </trkpt>
      <trkpt lat="49.26757" lon="-0.25149">
        <ele>5.2</ele>
        <time>2023-05-04T09:10:05Z</time>
      </trkpt>
      <trkpt lat="49.26751" lon="-0.2515">
        <ele>5.4</ele>
        <time>2023-05-04T09:10:06Z</time>
      </trkpt>
      <trkpt lat="49.26745" lon="-0.25152">
        <ele>5.4</ele>
        <time>2023-05-04T09:10:07Z</time>
      </trkpt>
      <trkpt lat="49.26739" lon="-0.25154">
        <ele>5.4</ele>
        <time>2023-05-04T09:10:08Z</time>
      </trkpt>
      <trkpt lat="49.26734" lon="-0.25155">
        <ele>5.4</ele>
        <time>2023-05-04T09:10:09Z</time>
      </trkpt>
      <trkpt lat="49.26728" lon="-0.25157">
        <ele>5.4</ele>
        <time>2023-05-04T09:10:10Z</time>
      </trkpt>
      <trkpt lat="49.26722" lon="-0.25158">
        <ele>5.4</ele>
        <time>2023-05-04T09:10:11Z</time>
      </trkpt>
      <trkpt lat="49.26717" lon="-0.2516">
        <ele>5.4</ele>
        <time>2023-05-04T09:10:12Z</time>
      </trkpt>
      <trkpt lat="49.26711" lon="-0.25162">
        <ele>5.4</ele>
        <time>2023-05-04T09:10:13Z</time>
      </trkpt>
      <trkpt lat="49.26705" lon="-0.25163">
        <ele>5.4</ele>
        <time>2023-05-04T09:10:14Z</time>
      </trkpt>
      <trkpt lat="49.267" lon="-0.25165">
        <ele>5.4</ele>
        <time>2023-05-04T09:10:15Z</time>
      </trkpt>
      <trkpt lat="49.26694" lon="-0.25166">
        <ele>5.4</ele>
        <time>2023-05-04T09:10:16Z</time>
      </trkpt>
      <trkpt lat="49.26688" lon="-0.25168">
        <ele>5.4</ele>
        <time>2023-05-04T09:10:17Z</time>
      </trkpt>
      <trkpt lat="49.26683" lon="-0.25169">
        <ele>5.4</ele>
        <time>2023-05-04T09:10:18Z</time>
      </trkpt>
      <trkpt lat="49.26677" lon="-0.25171">
        <ele>5.4</ele>
        <time>2023-05-04T09:10:19Z</time>
      </trkpt>
      <trkpt lat="49.26671" lon="-0.25173">
        <ele>5.4</ele>
        <time>2023-05-04T09:10:20Z</time>
      </trkpt>
      <trkpt lat="49.26666" lon="-0.25174">
        <ele>5.4</ele>
        <time>2023-05-04T09:10:21Z</time>
      </trkpt>
      <trkpt lat="49.2666" lon="-0.25176">
        <ele>5.4</ele>
        <time>2023-05-04T09:10:22Z</time>
      </trkpt>
      <trkpt lat="49.26654" lon="-0.25177">
        <ele>5.2</ele>
        <time>2023-05-04T09:10:23Z</time>
      </trkpt>
      <trkpt lat="49.26649" lon="-0.25179">
        <ele>5</ele>
        <time>2023-05-04T09:10:24Z</time>
      </trkpt>
      <trkpt lat="49.26643" lon="-0.2518">
        <ele>5</ele>
        <time>2023-05-04T09:10:25Z</time>
      </trkpt>
      <trkpt lat="49.26637" lon="-0.25182">
        <ele>5</ele>
        <time>2023-05-04T09:10:26Z</time>
      </trkpt>
      <trkpt lat="49.26631" lon="-0.25183">
        <ele>4.8</ele>
        <time>2023-05-04T09:10:27Z</time>
      </trkpt>
      <trkpt lat="49.26625" lon="-0.25185">
        <ele>4.6</ele>
        <time>2023-05-04T09:10:28Z</time>
      </trkpt>
      <trkpt lat="49.26619" lon="-0.25187">
        <ele>4.6</ele>
        <time>2023-05-04T09:10:29Z</time>
      </trkpt>
      <trkpt lat="49.26613" lon="-0.25188">
        <ele>4.4</ele>
        <time>2023-05-04T09:10:30Z</time>
      </trkpt>
      <trkpt lat="49.26607" lon="-0.2519">
        <ele>4.4</ele>
        <time>2023-05-04T09:10:31Z</time>
      </trkpt>
      <trkpt lat="49.26602" lon="-0.25192">
        <ele>4.2</ele>
        <time>2023-05-04T09:10:32Z</time>
      </trkpt>
      <trkpt lat="49.26596" lon="-0.25193">
        <ele>4</ele>
        <time>2023-05-04T09:10:33Z</time>
      </trkpt>
      <trkpt lat="49.2659" lon="-0.25195">
        <ele>4</ele>
        <time>2023-05-04T09:10:34Z</time>
      </trkpt>
      <trkpt lat="49.26584" lon="-0.25196">
        <ele>3.8</ele>
        <time>2023-05-04T09:10:35Z</time>
      </trkpt>
      <trkpt lat="49.26578" lon="-0.25198">
        <ele>3.8</ele>
        <time>2023-05-04T09:10:36Z</time>
      </trkpt>
      <trkpt lat="49.26573" lon="-0.252">
        <ele>3.8</ele>
        <time>2023-05-04T09:10:37Z</time>
      </trkpt>
      <trkpt lat="49.26567" lon="-0.25201">
        <ele>3.8</ele>
        <time>2023-05-04T09:10:38Z</time>
      </trkpt>
      <trkpt lat="49.26561" lon="-0.25203">
        <ele>3.8</ele>
        <time>2023-05-04T09:10:39Z</time>
      </trkpt>
      <trkpt lat="49.26555" lon="-0.25204">
        <ele>4</ele>
        <time>2023-05-04T09:10:40Z</time>
      </trkpt>
      <trkpt lat="49.26549" lon="-0.25206">
        <ele>4</ele>
        <time>2023-05-04T09:10:41Z</time>
      </trkpt>
      <trkpt lat="49.26544" lon="-0.25208">
        <ele>4</ele>
        <time>2023-05-04T09:10:42Z</time>
      </trkpt>
      <trkpt lat="49.26538" lon="-0.25209">
        <ele>4</ele>
        <time>2023-05-04T09:10:43Z</time>
      </trkpt>
      <trkpt lat="49.26532" lon="-0.25211">
        <ele>4</ele>
        <time>2023-05-04T09:10:44Z</time>
      </trkpt>
      <trkpt lat="49.26526" lon="-0.25212">
        <ele>4.2</ele>
        <time>2023-05-04T09:10:45Z</time>
      </trkpt>
      <trkpt lat="49.26521" lon="-0.25214">
        <ele>4.2</ele>
        <time>2023-05-04T09:10:46Z</time>
      </trkpt>
      <trkpt lat="49.26515" lon="-0.25215">
        <ele>4.4</ele>
        <time>2023-05-04T09:10:47Z</time>
      </trkpt>
      <trkpt lat="49.26509" lon="-0.25217">
        <ele>4.4</ele>
        <time>2023-05-04T09:10:48Z</time>
      </trkpt>
      <trkpt lat="49.26504" lon="-0.25218">
        <ele>4.6</ele>
        <time>2023-05-04T09:10:49Z</time>
      </trkpt>
      <trkpt lat="49.26498" lon="-0.2522">
        <ele>4.6</ele>
        <time>2023-05-04T09:10:50Z</time>
      </trkpt>
      <trkpt lat="49.26493" lon="-0.25221">
        <ele>4.6</ele>
        <time>2023-05-04T09:10:51Z</time>
      </trkpt>
      <trkpt lat="49.26487" lon="-0.25223">
        <ele>4.6</ele>
        <time>2023-05-04T09:10:52Z</time>
      </trkpt>
      <trkpt lat="49.26482" lon="-0.25224">
        <ele>4.6</ele>
        <time>2023-05-04T09:10:53Z</time>
      </trkpt>
      <trkpt lat="49.26476" lon="-0.25226">
        <ele>4.4</ele>
        <time>2023-05-04T09:10:54Z</time>
      </trkpt>
      <trkpt lat="49.26471" lon="-0.25228">
        <ele>4.4</ele>
        <time>2023-05-04T09:10:55Z</time>
      </trkpt>
      <trkpt lat="49.26465" lon="-0.25229">
        <ele>4.4</ele>
        <time>2023-05-04T09:10:56Z</time>
      </trkpt>
      <trkpt lat="49.2646" lon="-0.25231">
        <ele>4.4</ele>
        <time>2023-05-04T09:10:57Z</time>
      </trkpt>
      <trkpt lat="49.26454" lon="-0.25232">
        <ele>4.4</ele>
        <time>2023-05-04T09:10:58Z</time>
      </trkpt>
      <trkpt lat="49.26449" lon="-0.25234">
        <ele>4.2</ele>
        <time>2023-05-04T09:10:59Z</time>
      </trkpt>
      <trkpt lat="49.26443" lon="-0.25235">
        <ele>4.2</ele>
        <time>2023-05-04T09:11:00Z</time>
      </trkpt>
      <trkpt lat="49.26438" lon="-0.25237">
        <ele>4</ele>
        <time>2023-05-04T09:11:01Z</time>
      </trkpt>
      <trkpt lat="49.26432" lon="-0.25238">
        <ele>4</ele>
        <time>2023-05-04T09:11:02Z</time>
      </trkpt>
      <trkpt lat="49.26426" lon="-0.2524">
        <ele>4</ele>
        <time>2023-05-04T09:11:03Z</time>
      </trkpt>
      <trkpt lat="49.26421" lon="-0.25241">
        <ele>4</ele>
        <time>2023-05-04T09:11:04Z</time>
      </trkpt>
      <trkpt lat="49.26415" lon="-0.25243">
        <ele>3.8</ele>
        <time>2023-05-04T09:11:05Z</time>
      </trkpt>
      <trkpt lat="49.26409" lon="-0.25244">
        <ele>3.8</ele>
        <time>2023-05-04T09:11:06Z</time>
      </trkpt>
      <trkpt lat="49.26404" lon="-0.25246">
        <ele>3.6</ele>
        <time>2023-05-04T09:11:07Z</time>
      </trkpt>
      <trkpt lat="49.26398" lon="-0.25248">
        <ele>3.6</ele>
        <time>2023-05-04T09:11:08Z</time>
      </trkpt>
      <trkpt lat="49.26392" lon="-0.25249">
        <ele>3.4</ele>
        <time>2023-05-04T09:11:09Z</time>
      </trkpt>
      <trkpt lat="49.26387" lon="-0.25251">
        <ele>3.2</ele>
        <time>2023-05-04T09:11:10Z</time>
      </trkpt>
      <trkpt lat="49.26381" lon="-0.25252">
        <ele>3</ele>
        <time>2023-05-04T09:11:11Z</time>
      </trkpt>
      <trkpt lat="49.26375" lon="-0.25254">
        <ele>3</ele>
        <time>2023-05-04T09:11:12Z</time>
      </trkpt>
      <trkpt lat="49.26369" lon="-0.25256">
        <ele>2.8</ele>
        <time>2023-05-04T09:11:13Z</time>
      </trkpt>
      <trkpt lat="49.26364" lon="-0.25257">
        <ele>2.8</ele>
        <time>2023-05-04T09:11:14Z</time>
      </trkpt>
      <trkpt lat="49.26358" lon="-0.25259">
        <ele>2.6</ele>
        <time>2023-05-04T09:11:15Z</time>
      </trkpt>
      <trkpt lat="49.26352" lon="-0.2526">
        <ele>2.4</ele>
        <time>2023-05-04T09:11:16Z</time>
      </trkpt>
      <trkpt lat="49.26346" lon="-0.25262">
        <ele>2.2</ele>
        <time>2023-05-04T09:11:17Z</time>
      </trkpt>
      <trkpt lat="49.26341" lon="-0.25264">
        <ele>2.2</ele>
        <time>2023-05-04T09:11:18Z</time>
      </trkpt>
      <trkpt lat="49.26335" lon="-0.25265">
        <ele>2</ele>
        <time>2023-05-04T09:11:19Z</time>
      </trkpt>
      <trkpt lat="49.26329" lon="-0.25267">
        <ele>2</ele>
        <time>2023-05-04T09:11:20Z</time>
      </trkpt>
      <trkpt lat="49.26323" lon="-0.25268">
        <ele>2</ele>
        <time>2023-05-04T09:11:21Z</time>
      </trkpt>
      <trkpt lat="49.26318" lon="-0.2527">
        <ele>2</ele>
        <time>2023-05-04T09:11:22Z</time>
      </trkpt>
      <trkpt lat="49.26312" lon="-0.25272">
        <ele>2</ele>
        <time>2023-05-04T09:11:23Z</time>
      </trkpt>
      <trkpt lat="49.26306" lon="-0.25273">
        <ele>2</ele>
        <time>2023-05-04T09:11:24Z</time>
      </trkpt>
      <trkpt lat="49.263" lon="-0.25275">
        <ele>2</ele>
        <time>2023-05-04T09:11:25Z</time>
      </trkpt>
      <trkpt lat="49.26295" lon="-0.25277">
        <ele>2</ele>
        <time>2023-05-04T09:11:26Z</time>
      </trkpt>
      <trkpt lat="49.26289" lon="-0.25278">
        <ele>2</ele>
        <time>2023-05-04T09:11:27Z</time>
      </trkpt>
      <trkpt lat="49.26283" lon="-0.2528">
        <ele>2</ele>
        <time>2023-05-04T09:11:28Z</time>
      </trkpt>
      <trkpt lat="49.26277" lon="-0.25281">
        <ele>2</ele>
        <time>2023-05-04T09:11:29Z</time>
      </trkpt>
      <trkpt lat="49.26271" lon="-0.25283">
        <ele>2</ele>
        <time>2023-05-04T09:11:30Z</time>
      </trkpt>
      <trkpt lat="49.26265" lon="-0.25285">
        <ele>2</ele>
        <time>2023-05-04T09:11:31Z</time>
      </trkpt>
      <trkpt lat="49.26259" lon="-0.25286">
        <ele>2</ele>
        <time>2023-05-04T09:11:32Z</time>
      </trkpt>
      <trkpt lat="49.26253" lon="-0.25288">
        <ele>2</ele>
        <time>2023-05-04T09:11:33Z</time>
      </trkpt>
      <trkpt lat="49.26247" lon="-0.2529">
        <ele>2</ele>
        <time>2023-05-04T09:11:34Z</time>
      </trkpt>
      <trkpt lat="49.26241" lon="-0.25291">
        <ele>2</ele>
        <time>2023-05-04T09:11:35Z</time>
      </trkpt>
      <trkpt lat="49.26235" lon="-0.25293">
        <ele>2.2</ele>
        <time>2023-05-04T09:11:36Z</time>
      </trkpt>
      <trkpt lat="49.26229" lon="-0.25295">
        <ele>2.2</ele>
        <time>2023-05-04T09:11:37Z</time>
      </trkpt>
      <trkpt lat="49.26223" lon="-0.25296">
        <ele>2.4</ele>
        <time>2023-05-04T09:11:38Z</time>
      </trkpt>
      <trkpt lat="49.26217" lon="-0.25298">
        <ele>2.6</ele>
        <time>2023-05-04T09:11:39Z</time>
      </trkpt>
      <trkpt lat="49.26212" lon="-0.253">
        <ele>2.6</ele>
        <time>2023-05-04T09:11:40Z</time>
      </trkpt>
      <trkpt lat="49.26206" lon="-0.25301">
        <ele>2.8</ele>
        <time>2023-05-04T09:11:41Z</time>
      </trkpt>
      <trkpt lat="49.262" lon="-0.25303">
        <ele>2.8</ele>
        <time>2023-05-04T09:11:42Z</time>
      </trkpt>
      <trkpt lat="49.26194" lon="-0.25305">
        <ele>3</ele>
        <time>2023-05-04T09:11:43Z</time>
      </trkpt>
      <trkpt lat="49.26188" lon="-0.25306">
        <ele>3</ele>
        <time>2023-05-04T09:11:44Z</time>
      </trkpt>
      <trkpt lat="49.26182" lon="-0.25308">
        <ele>3</ele>
        <time>2023-05-04T09:11:45Z</time>
      </trkpt>
      <trkpt lat="49.26177" lon="-0.2531">
        <ele>3.2</ele>
        <time>2023-05-04T09:11:46Z</time>
      </trkpt>
      <trkpt lat="49.26171" lon="-0.25311">
        <ele>3.4</ele>
        <time>2023-05-04T09:11:47Z</time>
      </trkpt>
      <trkpt lat="49.26165" lon="-0.25313">
        <ele>3.6</ele>
        <time>2023-05-04T09:11:48Z</time>
      </trkpt>
      <trkpt lat="49.2616" lon="-0.25314">
        <ele>3.6</ele>
        <time>2023-05-04T09:11:49Z</time>
      </trkpt>
      <trkpt lat="49.26155" lon="-0.25316">
        <ele>3.6</ele>
        <time>2023-05-04T09:11:50Z</time>
      </trkpt>
      <trkpt lat="49.2615" lon="-0.25317">
        <ele>3.4</ele>
        <time>2023-05-04T09:11:51Z</time>
      </trkpt>
      <trkpt lat="49.26145" lon="-0.25319">
        <ele>3.4</ele>
        <time>2023-05-04T09:11:52Z</time>
      </trkpt>
      <trkpt lat="49.2614" lon="-0.2532">
        <ele>3.4</ele>
        <time>2023-05-04T09:11:53Z</time>
      </trkpt>
      <trkpt lat="49.26135" lon="-0.25321">
        <ele>3.4</ele>
        <time>2023-05-04T09:11:54Z</time>
      </trkpt>
      <trkpt lat="49.2613" lon="-0.25323">
        <ele>3.4</ele>
        <time>2023-05-04T09:11:55Z</time>
      </trkpt>
      <trkpt lat="49.26126" lon="-0.25324">
        <ele>3.2</ele>
        <time>2023-05-04T09:11:56Z</time>
      </trkpt>
      <trkpt lat="49.26121" lon="-0.25325">
        <ele>3.2</ele>
        <time>2023-05-04T09:11:57Z</time>
      </trkpt>
      <trkpt lat="49.26118" lon="-0.25326">
        <ele>3.2</ele>
        <time>2023-05-04T09:11:58Z</time>
      </trkpt>
      <trkpt lat="49.26115" lon="-0.25327">
        <ele>3.2</ele>
        <time>2023-05-04T09:11:59Z</time>
      </trkpt>
      <trkpt lat="49.26112" lon="-0.25327">
        <ele>3.2</ele>
        <time>2023-05-04T09:12:00Z</time>
      </trkpt>
      <trkpt lat="49.2611" lon="-0.25328">
        <ele>3.2</ele>
        <time>2023-05-04T09:12:01Z</time>
      </trkpt>
      <trkpt lat="49.26108" lon="-0.25328">
        <ele>3.2</ele>
        <time>2023-05-04T09:12:02Z</time>
      </trkpt>
      <trkpt lat="49.26106" lon="-0.25328">
        <ele>3.2</ele>
        <time>2023-05-04T09:12:03Z</time>
      </trkpt>
      <trkpt lat="49.26104" lon="-0.25328">
        <ele>3.2</ele>
        <time>2023-05-04T09:12:04Z</time>
      </trkpt>
      <trkpt lat="49.26103" lon="-0.25329">
        <ele>3.2</ele>
        <time>2023-05-04T09:12:05Z</time>
      </trkpt>
      <trkpt lat="49.26102" lon="-0.25329">
        <ele>3.2</ele>
        <time>2023-05-04T09:12:06Z</time>
      </trkpt>
      <trkpt lat="49.26101" lon="-0.25328">
        <ele>3</ele>
        <time>2023-05-04T09:12:07Z</time>
      </trkpt>
      <trkpt lat="49.26101" lon="-0.25326">
        <ele>3</ele>
        <time>2023-05-04T09:12:08Z</time>
      </trkpt>
      <trkpt lat="49.26103" lon="-0.25325">
        <ele>3</ele>
        <time>2023-05-04T09:12:09Z</time>
      </trkpt>
      <trkpt lat="49.26104" lon="-0.25326">
        <ele>3</ele>
        <time>2023-05-04T09:12:10Z</time>
      </trkpt>
      <trkpt lat="49.26104" lon="-0.25328">
        <ele>3.2</ele>
        <time>2023-05-04T09:12:11Z</time>
      </trkpt>
      <trkpt lat="49.26103" lon="-0.25329">
        <ele>3.2</ele>
        <time>2023-05-04T09:12:12Z</time>
      </trkpt>
      <trkpt lat="49.26102" lon="-0.25329">
        <ele>3.2</ele>
        <time>2023-05-04T09:12:13Z</time>
      </trkpt>
      <trkpt lat="49.26101" lon="-0.25329">
        <ele>3</ele>
        <time>2023-05-04T09:12:14Z</time>
      </trkpt>
      <trkpt lat="49.26101" lon="-0.25326">
        <ele>3</ele>
        <time>2023-05-04T09:12:15Z</time>
      </trkpt>
      <trkpt lat="49.26102" lon="-0.25325">
        <ele>3</ele>
        <time>2023-05-04T09:12:16Z</time>
      </trkpt>
      <trkpt lat="49.26102" lon="-0.25326">
        <ele>3</ele>
        <time>2023-05-04T09:12:17Z</time>
      </trkpt>
      <trkpt lat="49.26103" lon="-0.25327">
        <ele>3.2</ele>
        <time>2023-05-04T09:12:18Z</time>
      </trkpt>
      <trkpt lat="49.26103" lon="-0.25328">
        <ele>3.2</ele>
        <time>2023-05-04T09:12:19Z</time>
      </trkpt>
      <trkpt lat="49.26102" lon="-0.25329">
        <ele>3.2</ele>
        <time>2023-05-04T09:12:20Z</time>
      </trkpt>
      <trkpt lat="49.26101" lon="-0.25329">
        <ele>3</ele>
        <time>2023-05-04T09:12:21Z</time>
      </trkpt>
      <trkpt lat="49.26101" lon="-0.25329">
        <ele>3</ele>
        <time>2023-05-04T09:12:22Z</time>
      </trkpt>
      <trkpt lat="49.26101" lon="-0.25329">
        <ele>3</ele>
        <time>2023-05-04T09:12:23Z</time>
      </trkpt>
      <trkpt lat="49.26101" lon="-0.25328">
        <ele>3</ele>
        <time>2023-05-04T09:12:24Z</time>
      </trkpt>
      <trkpt lat="49.261" lon="-0.25328">
        <ele>3</ele>
        <time>2023-05-04T09:12:25Z</time>
      </trkpt>
      <trkpt lat="49.26099" lon="-0.25327">
        <ele>3</ele>
        <time>2023-05-04T09:12:26Z</time>
      </trkpt>
      <trkpt lat="49.26098" lon="-0.25326">
        <ele>3</ele>
        <time>2023-05-04T09:12:27Z</time>
      </trkpt>
      <trkpt lat="49.26096" lon="-0.25325">
        <ele>3</ele>
        <time>2023-05-04T09:12:28Z</time>
      </trkpt>
      <trkpt lat="49.26093" lon="-0.25324">
        <ele>3</ele>
        <time>2023-05-04T09:12:29Z</time>
      </trkpt>
      <trkpt lat="49.26089" lon="-0.25323">
        <ele>3</ele>
        <time>2023-05-04T09:12:30Z</time>
      </trkpt>
      <trkpt lat="49.26085" lon="-0.25322">
        <ele>3</ele>
        <time>2023-05-04T09:12:31Z</time>
      </trkpt>
      <trkpt lat="49.2608" lon="-0.25321">
        <ele>2.8</ele>
        <time>2023-05-04T09:12:32Z</time>
      </trkpt>
      <trkpt lat="49.26075" lon="-0.25319">
        <ele>2.8</ele>
        <time>2023-05-04T09:12:33Z</time>
      </trkpt>
      <trkpt lat="49.2607" lon="-0.25319">
        <ele>2.8</ele>
        <time>2023-05-04T09:12:34Z</time>
      </trkpt>
      <trkpt lat="49.26065" lon="-0.25317">
        <ele>2.6</ele>
        <time>2023-05-04T09:12:35Z</time>
      </trkpt>
      <trkpt lat="49.2606" lon="-0.25316">
        <ele>2.6</ele>
        <time>2023-05-04T09:12:36Z</time>
      </trkpt>
      <trkpt lat="49.26055" lon="-0.25316">
        <ele>2.6</ele>
        <time>2023-05-04T09:12:37Z</time>
      </trkpt>
      <trkpt lat="49.2605" lon="-0.25314">
        <ele>2.6</ele>
        <time>2023-05-04T09:12:38Z</time>
      </trkpt>
      <trkpt lat="49.26045" lon="-0.25314">
        <ele>2.4</ele>
        <time>2023-05-04T09:12:39Z</time>
      </trkpt>
      <trkpt lat="49.26039" lon="-0.25313">
        <ele>2.4</ele>
        <time>2023-05-04T09:12:40Z</time>
      </trkpt>
      <trkpt lat="49.26034" lon="-0.25312">
        <ele>2.2</ele>
        <time>2023-05-04T09:12:41Z</time>
      </trkpt>
      <trkpt lat="49.26029" lon="-0.25311">
        <ele>2.2</ele>
        <time>2023-05-04T09:12:42Z</time>
      </trkpt>
      <trkpt lat="49.26023" lon="-0.2531">
        <ele>2.2</ele>
        <time>2023-05-04T09:12:43Z</time>
      </trkpt>
      <trkpt lat="49.26018" lon="-0.2531">
        <ele>2.2</ele>
        <time>2023-05-04T09:12:44Z</time>
      </trkpt>
      <trkpt lat="49.26012" lon="-0.25309">
        <ele>2</ele>
        <time>2023-05-04T09:12:45Z</time>
      </trkpt>
      <trkpt lat="49.26007" lon="-0.25308">
        <ele>2</ele>
        <time>2023-05-04T09:12:46Z</time>
      </trkpt>
      <trkpt lat="49.26001" lon="-0.25307">
        <ele>2</ele>
        <time>2023-05-04T09:12:47Z</time>
      </trkpt>
      <trkpt lat="49.25995" lon="-0.25306">
        <ele>2</ele>
        <time>2023-05-04T09:12:48Z</time>
      </trkpt>
      <trkpt lat="49.2599" lon="-0.25306">
        <ele>1.8</ele>
        <time>2023-05-04T09:12:49Z</time>
      </trkpt>
      <trkpt lat="49.25984" lon="-0.25305">
        <ele>1.8</ele>
        <time>2023-05-04T09:12:50Z</time>
      </trkpt>
      <trkpt lat="49.25978" lon="-0.25306">
        <ele>1.8</ele>
        <time>2023-05-04T09:12:51Z</time>
      </trkpt>
      <trkpt lat="49.25972" lon="-0.25307">
        <ele>1.8</ele>
        <time>2023-05-04T09:12:52Z</time>
      </trkpt>
      <trkpt lat="49.25966" lon="-0.25308">
        <ele>1.8</ele>
        <time>2023-05-04T09:12:53Z</time>
      </trkpt>
      <trkpt lat="49.2596" lon="-0.25311">
        <ele>1.8</ele>
        <time>2023-05-04T09:12:54Z</time>
      </trkpt>
      <trkpt lat="49.25954" lon="-0.25315">
        <ele>1.8</ele>
        <time>2023-05-04T09:12:55Z</time>
      </trkpt>
      <trkpt lat="49.25948" lon="-0.25319">
        <ele>1.8</ele>
        <time>2023-05-04T09:12:56Z</time>
      </trkpt>
      <trkpt lat="49.25943" lon="-0.25325">
        <ele>1.8</ele>
        <time>2023-05-04T09:12:57Z</time>
      </trkpt>
      <trkpt lat="49.25938" lon="-0.25332">
        <ele>2</ele>
        <time>2023-05-04T09:12:58Z</time>
      </trkpt>
      <trkpt lat="49.25933" lon="-0.25339">
        <ele>2</ele>
        <time>2023-05-04T09:12:59Z</time>
      </trkpt>
      <trkpt lat="49.25928" lon="-0.25346">
        <ele>2.2</ele>
        <time>2023-05-04T09:13:00Z</time>
      </trkpt>
      <trkpt lat="49.25923" lon="-0.25354">
        <ele>2.6</ele>
        <time>2023-05-04T09:13:01Z</time>
      </trkpt>
      <trkpt lat="49.25918" lon="-0.25362">
        <ele>2.8</ele>
        <time>2023-05-04T09:13:02Z</time>
      </trkpt>
      <trkpt lat="49.25913" lon="-0.2537">
        <ele>3</ele>
        <time>2023-05-04T09:13:03Z</time>
      </trkpt>
      <trkpt lat="49.25908" lon="-0.25377">
        <ele>3</ele>
        <time>2023-05-04T09:13:04Z</time>
      </trkpt>
      <trkpt lat="49.25903" lon="-0.25385">
        <ele>3.2</ele>
        <time>2023-05-04T09:13:05Z</time>
      </trkpt>
      <trkpt lat="49.25898" lon="-0.25391">
        <ele>3.6</ele>
        <time>2023-05-04T09:13:06Z</time>
      </trkpt>
      <trkpt lat="49.25892" lon="-0.25397">
        <ele>3.6</ele>
        <time>2023-05-04T09:13:07Z</time>
      </trkpt>
      <trkpt lat="49.25886" lon="-0.25402">
        <ele>3.8</ele>
        <time>2023-05-04T09:13:08Z</time>
      </trkpt>
      <trkpt lat="49.25881" lon="-0.25406">
        <ele>3.8</ele>
        <time>2023-05-04T09:13:09Z</time>
      </trkpt>
      <trkpt lat="49.25875" lon="-0.2541">
        <ele>4</ele>
        <time>2023-05-04T09:13:10Z</time>
      </trkpt>
      <trkpt lat="49.25868" lon="-0.25413">
        <ele>4</ele>
        <time>2023-05-04T09:13:11Z</time>
      </trkpt>
      <trkpt lat="49.25862" lon="-0.25416">
        <ele>4</ele>
        <time>2023-05-04T09:13:12Z</time>
      </trkpt>
      <trkpt lat="49.25856" lon="-0.25418">
        <ele>4</ele>
        <time>2023-05-04T09:13:13Z</time>
      </trkpt>
      <trkpt lat="49.25849" lon="-0.2542">
        <ele>4</ele>
        <time>2023-05-04T09:13:14Z</time>
      </trkpt>
      <trkpt lat="49.25843" lon="-0.25421">
        <ele>4</ele>
        <time>2023-05-04T09:13:15Z</time>
      </trkpt>
      <trkpt lat="49.25837" lon="-0.25423">
        <ele>4</ele>
        <time>2023-05-04T09:13:16Z</time>
      </trkpt>
      <trkpt lat="49.2583" lon="-0.25425">
        <ele>4</ele>
        <time>2023-05-04T09:13:17Z</time>
      </trkpt>
      <trkpt lat="49.25824" lon="-0.25427">
        <ele>4</ele>
        <time>2023-05-04T09:13:18Z</time>
      </trkpt>
      <trkpt lat="49.25818" lon="-0.25429">
        <ele>4</ele>
        <time>2023-05-04T09:13:19Z</time>
      </trkpt>
      <trkpt lat="49.25812" lon="-0.25431">
        <ele>4</ele>
        <time>2023-05-04T09:13:20Z</time>
      </trkpt>
      <trkpt lat="49.25806" lon="-0.25432">
        <ele>4</ele>
        <time>2023-05-04T09:13:21Z</time>
      </trkpt>
      <trkpt lat="49.258" lon="-0.25434">
        <ele>4</ele>
        <time>2023-05-04T09:13:22Z</time>
      </trkpt>
      <trkpt lat="49.25794" lon="-0.25436">
        <ele>4</ele>
        <time>2023-05-04T09:13:23Z</time>
      </trkpt>
      <trkpt lat="49.25788" lon="-0.25438">
        <ele>4</ele>
        <time>2023-05-04T09:13:24Z</time>
      </trkpt>
      <trkpt lat="49.25782" lon="-0.2544">
        <ele>4.2</ele>
        <time>2023-05-04T09:13:25Z</time>
      </trkpt>
      <trkpt lat="49.25776" lon="-0.25441">
        <ele>4.2</ele>
        <time>2023-05-04T09:13:26Z</time>
      </trkpt>
      <trkpt lat="49.2577" lon="-0.25443">
        <ele>4.2</ele>
        <time>2023-05-04T09:13:27Z</time>
      </trkpt>
      <trkpt lat="49.25764" lon="-0.25445">
        <ele>4.4</ele>
        <time>2023-05-04T09:13:28Z</time>
      </trkpt>
      <trkpt lat="49.25759" lon="-0.25446">
        <ele>4.4</ele>
        <time>2023-05-04T09:13:29Z</time>
      </trkpt>
      <trkpt lat="49.25753" lon="-0.25448">
        <ele>4.4</ele>
        <time>2023-05-04T09:13:30Z</time>
      </trkpt>
      <trkpt lat="49.25747" lon="-0.2545">
        <ele>4.4</ele>
        <time>2023-05-04T09:13:31Z</time>
      </trkpt>
      <trkpt lat="49.25741" lon="-0.25451">
        <ele>4.4</ele>
        <time>2023-05-04T09:13:32Z</time>
      </trkpt>
      <trkpt lat="49.25735" lon="-0.25453">
        <ele>4.4</ele>
        <time>2023-05-04T09:13:33Z</time>
      </trkpt>
      <trkpt lat="49.25729" lon="-0.25455">
        <ele>4.6</ele>
        <time>2023-05-04T09:13:34Z</time>
      </trkpt>
      <trkpt lat="49.25723" lon="-0.25456">
        <ele>4.6</ele>
        <time>2023-05-04T09:13:35Z</time>
      </trkpt>
      <trkpt lat="49.25718" lon="-0.25458">
        <ele>4.6</ele>
        <time>2023-05-04T09:13:36Z</time>
      </trkpt>
      <trkpt lat="49.25712" lon="-0.2546">
        <ele>4.6</ele>
        <time>2023-05-04T09:13:37Z</time>
      </trkpt>
      <trkpt lat="49.25706" lon="-0.25461">
        <ele>4.6</ele>
        <time>2023-05-04T09:13:38Z</time>
      </trkpt>
      <trkpt lat="49.257" lon="-0.25463">
        <ele>4.6</ele>
        <time>2023-05-04T09:13:39Z</time>
      </trkpt>
      <trkpt lat="49.25694" lon="-0.25465">
        <ele>4.6</ele>
        <time>2023-05-04T09:13:40Z</time>
      </trkpt>
      <trkpt lat="49.25688" lon="-0.25467">
        <ele>4.6</ele>
        <time>2023-05-04T09:13:41Z</time>
      </trkpt>
      <trkpt lat="49.25682" lon="-0.25468">
        <ele>4.6</ele>
        <time>2023-05-04T09:13:42Z</time>
      </trkpt>
      <trkpt lat="49.25677" lon="-0.2547">
        <ele>4.6</ele>
        <time>2023-05-04T09:13:43Z</time>
      </trkpt>
      <trkpt lat="49.25671" lon="-0.25471">
        <ele>4.6</ele>
        <time>2023-05-04T09:13:44Z</time>
      </trkpt>
      <trkpt lat="49.25665" lon="-0.25473">
        <ele>4.6</ele>
        <time>2023-05-04T09:13:45Z</time>
      </trkpt>
      <trkpt lat="49.25659" lon="-0.25475">
        <ele>4.6</ele>
        <time>2023-05-04T09:13:46Z</time>
      </trkpt>
      <trkpt lat="49.25653" lon="-0.25476">
        <ele>4.6</ele>
        <time>2023-05-04T09:13:47Z</time>
      </trkpt>
      <trkpt lat="49.25647" lon="-0.25478">
        <ele>4.6</ele>
        <time>2023-05-04T09:13:48Z</time>
      </trkpt>
      <trkpt lat="49.25642" lon="-0.25479">
        <ele>4.6</ele>
        <time>2023-05-04T09:13:49Z</time>
      </trkpt>
      <trkpt lat="49.25636" lon="-0.25481">
        <ele>4.6</ele>
        <time>2023-05-04T09:13:50Z</time>
      </trkpt>
      <trkpt lat="49.2563" lon="-0.25482">
        <ele>4.6</ele>
        <time>2023-05-04T09:13:51Z</time>
      </trkpt>
      <trkpt lat="49.25624" lon="-0.25484">
        <ele>4.6</ele>
        <time>2023-05-04T09:13:52Z</time>
      </trkpt>
      <trkpt lat="49.25618" lon="-0.25485">
        <ele>4.6</ele>
        <time>2023-05-04T09:13:53Z</time>
      </trkpt>
      <trkpt lat="49.25612" lon="-0.25486">
        <ele>4.6</ele>
        <time>2023-05-04T09:13:54Z</time>
      </trkpt>
      <trkpt lat="49.25606" lon="-0.25488">
        <ele>4.6</ele>
        <time>2023-05-04T09:13:55Z</time>
      </trkpt>
      <trkpt lat="49.256" lon="-0.25489">
        <ele>4.6</ele>
        <time>2023-05-04T09:13:56Z</time>
      </trkpt>
      <trkpt lat="49.25595" lon="-0.2549">
        <ele>4.6</ele>
        <time>2023-05-04T09:13:57Z</time>
      </trkpt>
      <trkpt lat="49.25589" lon="-0.25491">
        <ele>4.6</ele>
        <time>2023-05-04T09:13:58Z</time>
      </trkpt>
      <trkpt lat="49.25583" lon="-0.25493">
        <ele>4.6</ele>
        <time>2023-05-04T09:13:59Z</time>
      </trkpt>
      <trkpt lat="49.25577" lon="-0.25494">
        <ele>4.6</ele>
        <time>2023-05-04T09:14:00Z</time>
      </trkpt>
      <trkpt lat="49.25571" lon="-0.25495">
        <ele>4.4</ele>
        <time>2023-05-04T09:14:01Z</time>
      </trkpt>
      <trkpt lat="49.25564" lon="-0.25496">
        <ele>4.2</ele>
        <time>2023-05-04T09:14:02Z</time>
      </trkpt>
      <trkpt lat="49.25558" lon="-0.25497">
        <ele>4</ele>
        <time>2023-05-04T09:14:03Z</time>
      </trkpt>
      <trkpt lat="49.25552" lon="-0.25498">
        <ele>3.8</ele>
        <time>2023-05-04T09:14:04Z</time>
      </trkpt>
      <trkpt lat="49.25546" lon="-0.25499">
        <ele>3.6</ele>
        <time>2023-05-04T09:14:05Z</time>
      </trkpt>
      <trkpt lat="49.2554" lon="-0.25501">
        <ele>3.4</ele>
        <time>2023-05-04T09:14:06Z</time>
      </trkpt>
      <trkpt lat="49.25534" lon="-0.25503">
        <ele>3.2</ele>
        <time>2023-05-04T09:14:07Z</time>
      </trkpt>
      <trkpt lat="49.25528" lon="-0.25506">
        <ele>3</ele>
        <time>2023-05-04T09:14:08Z</time>
      </trkpt>
      <trkpt lat="49.25522" lon="-0.25509">
        <ele>2.8</ele>
        <time>2023-05-04T09:14:09Z</time>
      </trkpt>
      <trkpt lat="49.25516" lon="-0.25512">
        <ele>2.8</ele>
        <time>2023-05-04T09:14:10Z</time>
      </trkpt>
      <trkpt lat="49.25511" lon="-0.25516">
        <ele>2.6</ele>
        <time>2023-05-04T09:14:11Z</time>
      </trkpt>
      <trkpt lat="49.25505" lon="-0.25519">
        <ele>2.4</ele>
        <time>2023-05-04T09:14:12Z</time>
      </trkpt>
      <trkpt lat="49.255" lon="-0.25523">
        <ele>2.2</ele>
        <time>2023-05-04T09:14:13Z</time>
      </trkpt>
      <trkpt lat="49.25494" lon="-0.25527">
        <ele>2.6</ele>
        <time>2023-05-04T09:14:14Z</time>
      </trkpt>
      <trkpt lat="49.25489" lon="-0.25532">
        <ele>2.6</ele>
        <time>2023-05-04T09:14:15Z</time>
      </trkpt>
      <trkpt lat="49.25484" lon="-0.25536">
        <ele>2.8</ele>
        <time>2023-05-04T09:14:16Z</time>
      </trkpt>
      <trkpt lat="49.25479" lon="-0.2554">
        <ele>3</ele>
        <time>2023-05-04T09:14:17Z</time>
      </trkpt>
      <trkpt lat="49.25474" lon="-0.25544">
        <ele>3</ele>
        <time>2023-05-04T09:14:18Z</time>
      </trkpt>
      <trkpt lat="49.25469" lon="-0.25549">
        <ele>3</ele>
        <time>2023-05-04T09:14:19Z</time>
      </trkpt>
      <trkpt lat="49.25464" lon="-0.25553">
        <ele>3</ele>
        <time>2023-05-04T09:14:20Z</time>
      </trkpt>
      <trkpt lat="49.25459" lon="-0.25557">
        <ele>3</ele>
        <time>2023-05-04T09:14:21Z</time>
      </trkpt>
      <trkpt lat="49.25454" lon="-0.25562">
        <ele>3.2</ele>
        <time>2023-05-04T09:14:22Z</time>
      </trkpt>
      <trkpt lat="49.25449" lon="-0.25566">
        <ele>3.2</ele>
        <time>2023-05-04T09:14:23Z</time>
      </trkpt>
      <trkpt lat="49.25444" lon="-0.2557">
        <ele>3.2</ele>
        <time>2023-05-04T09:14:24Z</time>
      </trkpt>
      <trkpt lat="49.25439" lon="-0.25575">
        <ele>3</ele>
        <time>2023-05-04T09:14:25Z</time>
      </trkpt>
      <trkpt lat="49.25434" lon="-0.25579">
        <ele>3</ele>
        <time>2023-05-04T09:14:26Z</time>
      </trkpt>
      <trkpt lat="49.25429" lon="-0.25583">
        <ele>3</ele>
        <time>2023-05-04T09:14:27Z</time>
      </trkpt>
      <trkpt lat="49.25424" lon="-0.25588">
        <ele>3</ele>
        <time>2023-05-04T09:14:28Z</time>
      </trkpt>
      <trkpt lat="49.25418" lon="-0.25592">
        <ele>2.8</ele>
        <time>2023-05-04T09:14:29Z</time>
      </trkpt>
      <trkpt lat="49.25413" lon="-0.25597">
        <ele>2.6</ele>
        <time>2023-05-04T09:14:30Z</time>
      </trkpt>
      <trkpt lat="49.25408" lon="-0.25601">
        <ele>2.4</ele>
        <time>2023-05-04T09:14:31Z</time>
      </trkpt>
      <trkpt lat="49.25403" lon="-0.25606">
        <ele>2.2</ele>
        <time>2023-05-04T09:14:32Z</time>
      </trkpt>
      <trkpt lat="49.25397" lon="-0.2561">
        <ele>2</ele>
        <time>2023-05-04T09:14:33Z</time>
      </trkpt>
      <trkpt lat="49.25392" lon="-0.25615">
        <ele>1.8</ele>
        <time>2023-05-04T09:14:34Z</time>
      </trkpt>
      <trkpt lat="49.25387" lon="-0.25619">
        <ele>1.8</ele>
        <time>2023-05-04T09:14:35Z</time>
      </trkpt>
      <trkpt lat="49.25381" lon="-0.25624">
        <ele>1.6</ele>
        <time>2023-05-04T09:14:36Z</time>
      </trkpt>
      <trkpt lat="49.25376" lon="-0.25628">
        <ele>1.6</ele>
        <time>2023-05-04T09:14:37Z</time>
      </trkpt>
      <trkpt lat="49.2537" lon="-0.25633">
        <ele>1.4</ele>
        <time>2023-05-04T09:14:38Z</time>
      </trkpt>
      <trkpt lat="49.25365" lon="-0.25638">
        <ele>1.2</ele>
        <time>2023-05-04T09:14:39Z</time>
      </trkpt>
      <trkpt lat="49.2536" lon="-0.25642">
        <ele>1.2</ele>
        <time>2023-05-04T09:14:40Z</time>
      </trkpt>
      <trkpt lat="49.25354" lon="-0.25647">
        <ele>1.2</ele>
        <time>2023-05-04T09:14:41Z</time>
      </trkpt>
      <trkpt lat="49.25349" lon="-0.25651">
        <ele>1.2</ele>
        <time>2023-05-04T09:14:42Z</time>
      </trkpt>
      <trkpt lat="49.25343" lon="-0.25656">
        <ele>1</ele>
        <time>2023-05-04T09:14:43Z</time>
      </trkpt>
      <trkpt lat="49.25338" lon="-0.2566">
        <ele>1</ele>
        <time>2023-05-04T09:14:44Z</time>
      </trkpt>
      <trkpt lat="49.25333" lon="-0.25665">
        <ele>1</ele>
        <time>2023-05-04T09:14:45Z</time>
      </trkpt>
      <trkpt lat="49.25327" lon="-0.25669">
        <ele>1</ele>
        <time>2023-05-04T09:14:46Z</time>
      </trkpt>
      <trkpt lat="49.25322" lon="-0.25674">
        <ele>1</ele>
        <time>2023-05-04T09:14:47Z</time>
      </trkpt>
      <trkpt lat="49.25317" lon="-0.25678">
        <ele>1</ele>
        <time>2023-05-04T09:14:48Z</time>
      </trkpt>
      <trkpt lat="49.25311" lon="-0.25683">
        <ele>1</ele>
        <time>2023-05-04T09:14:49Z</time>
      </trkpt>
      <trkpt lat="49.25306" lon="-0.25687">
        <ele>1</ele>
        <time>2023-05-04T09:14:50Z</time>
      </trkpt>
      <trkpt lat="49.25301" lon="-0.25692">
        <ele>1</ele>
        <time>2023-05-04T09:14:51Z</time>
      </trkpt>
      <trkpt lat="49.25295" lon="-0.25696">
        <ele>1.2</ele>
        <time>2023-05-04T09:14:52Z</time>
      </trkpt>
      <trkpt lat="49.2529" lon="-0.25701">
        <ele>1.2</ele>
        <time>2023-05-04T09:14:53Z</time>
      </trkpt>
      <trkpt lat="49.25284" lon="-0.25705">
        <ele>1.2</ele>
        <time>2023-05-04T09:14:54Z</time>
      </trkpt>
      <trkpt lat="49.25279" lon="-0.2571">
        <ele>1.2</ele>
        <time>2023-05-04T09:14:55Z</time>
      </trkpt>
      <trkpt lat="49.25274" lon="-0.25714">
        <ele>1.2</ele>
        <time>2023-05-04T09:14:56Z</time>
      </trkpt>
      <trkpt lat="49.25268" lon="-0.25719">
        <ele>1.2</ele>
        <time>2023-05-04T09:14:57Z</time>
      </trkpt>
      <trkpt lat="49.25263" lon="-0.25723">
        <ele>1.4</ele>
        <time>2023-05-04T09:14:58Z</time>
      </trkpt>
      <trkpt lat="49.25257" lon="-0.25728">
        <ele>1.6</ele>
        <time>2023-05-04T09:14:59Z</time>
      </trkpt>
      <trkpt lat="49.25252" lon="-0.25733">
        <ele>1.6</ele>
        <time>2023-05-04T09:15:00Z</time>
      </trkpt>
      <trkpt lat="49.25246" lon="-0.25738">
        <ele>1.8</ele>
        <time>2023-05-04T09:15:01Z</time>
      </trkpt>
      <trkpt lat="49.25241" lon="-0.25742">
        <ele>1.8</ele>
        <time>2023-05-04T09:15:02Z</time>
      </trkpt>
      <trkpt lat="49.25235" lon="-0.25747">
        <ele>1.8</ele>
        <time>2023-05-04T09:15:03Z</time>
      </trkpt>
      <trkpt lat="49.25229" lon="-0.25752">
        <ele>2</ele>
        <time>2023-05-04T09:15:04Z</time>
      </trkpt>
      <trkpt lat="49.25224" lon="-0.25756">
        <ele>2</ele>
        <time>2023-05-04T09:15:05Z</time>
      </trkpt>
      <trkpt lat="49.25218" lon="-0.25761">
        <ele>2</ele>
        <time>2023-05-04T09:15:06Z</time>
      </trkpt>
      <trkpt lat="49.25212" lon="-0.25766">
        <ele>2</ele>
        <time>2023-05-04T09:15:07Z</time>
      </trkpt>
      <trkpt lat="49.25207" lon="-0.25771">
        <ele>2</ele>
        <time>2023-05-04T09:15:08Z</time>
      </trkpt>
      <trkpt lat="49.25201" lon="-0.25775">
        <ele>2</ele>
        <time>2023-05-04T09:15:09Z</time>
      </trkpt>
      <trkpt lat="49.25196" lon="-0.2578">
        <ele>2</ele>
        <time>2023-05-04T09:15:10Z</time>
      </trkpt>
      <trkpt lat="49.2519" lon="-0.25785">
        <ele>2</ele>
        <time>2023-05-04T09:15:11Z</time>
      </trkpt>
      <trkpt lat="49.25185" lon="-0.25789">
        <ele>2</ele>
        <time>2023-05-04T09:15:12Z</time>
      </trkpt>
      <trkpt lat="49.25179" lon="-0.25794">
        <ele>2</ele>
        <time>2023-05-04T09:15:13Z</time>
      </trkpt>
      <trkpt lat="49.25173" lon="-0.25799">
        <ele>2</ele>
        <time>2023-05-04T09:15:14Z</time>
      </trkpt>
      <trkpt lat="49.25168" lon="-0.25803">
        <ele>2</ele>
        <time>2023-05-04T09:15:15Z</time>
      </trkpt>
      <trkpt lat="49.25162" lon="-0.25808">
        <ele>1.8</ele>
        <time>2023-05-04T09:15:16Z</time>
      </trkpt>
      <trkpt lat="49.25157" lon="-0.25813">
        <ele>1.8</ele>
        <time>2023-05-04T09:15:17Z</time>
      </trkpt>
      <trkpt lat="49.25151" lon="-0.25817">
        <ele>1.8</ele>
        <time>2023-05-04T09:15:18Z</time>
      </trkpt>
      <trkpt lat="49.25146" lon="-0.25822">
        <ele>1.8</ele>
        <time>2023-05-04T09:15:19Z</time>
      </trkpt>
      <trkpt lat="49.2514" lon="-0.25827">
        <ele>1.8</ele>
        <time>2023-05-04T09:15:20Z</time>
      </trkpt>
      <trkpt lat="49.25135" lon="-0.25831">
        <ele>1.6</ele>
        <time>2023-05-04T09:15:21Z</time>
      </trkpt>
      <trkpt lat="49.25129" lon="-0.25836">
        <ele>1.6</ele>
        <time>2023-05-04T09:15:22Z</time>
      </trkpt>
      <trkpt lat="49.25124" lon="-0.25841">
        <ele>1.6</ele>
        <time>2023-05-04T09:15:23Z</time>
      </trkpt>
      <trkpt lat="49.25118" lon="-0.25845">
        <ele>1.6</ele>
        <time>2023-05-04T09:15:24Z</time>
      </trkpt>
      <trkpt lat="49.25113" lon="-0.2585">
        <ele>1.6</ele>
        <time>2023-05-04T09:15:25Z</time>
      </trkpt>
      <trkpt lat="49.25107" lon="-0.25855">
        <ele>1.6</ele>
        <time>2023-05-04T09:15:26Z</time>
      </trkpt>
      <trkpt lat="49.25101" lon="-0.2586">
        <ele>1.6</ele>
        <time>2023-05-04T09:15:27Z</time>
      </trkpt>
      <trkpt lat="49.25096" lon="-0.25864">
        <ele>1.6</ele>
        <time>2023-05-04T09:15:28Z</time>
      </trkpt>
      <trkpt lat="49.2509" lon="-0.25869">
        <ele>1.6</ele>
        <time>2023-05-04T09:15:29Z</time>
      </trkpt>
      <trkpt lat="49.25085" lon="-0.25874">
        <ele>1.6</ele>
        <time>2023-05-04T09:15:30Z</time>
      </trkpt>
      <trkpt lat="49.25079" lon="-0.25879">
        <ele>1.6</ele>
        <time>2023-05-04T09:15:31Z</time>
      </trkpt>
      <trkpt lat="49.25073" lon="-0.25883">
        <ele>1.8</ele>
        <time>2023-05-04T09:15:32Z</time>
      </trkpt>
      <trkpt lat="49.25068" lon="-0.25888">
        <ele>1.8</ele>
        <time>2023-05-04T09:15:33Z</time>
      </trkpt>
      <trkpt lat="49.25062" lon="-0.25893">
        <ele>2</ele>
        <time>2023-05-04T09:15:34Z</time>
      </trkpt>
      <trkpt lat="49.25057" lon="-0.25898">
        <ele>2</ele>
        <time>2023-05-04T09:15:35Z</time>
      </trkpt>
      <trkpt lat="49.25051" lon="-0.25902">
        <ele>2.2</ele>
        <time>2023-05-04T09:15:36Z</time>
      </trkpt>
      <trkpt lat="49.25046" lon="-0.25907">
        <ele>2.2</ele>
        <time>2023-05-04T09:15:37Z</time>
      </trkpt>
      <trkpt lat="49.2504" lon="-0.25912">
        <ele>2.6</ele>
        <time>2023-05-04T09:15:38Z</time>
      </trkpt>
      <trkpt lat="49.25035" lon="-0.25916">
        <ele>2.6</ele>
        <time>2023-05-04T09:15:39Z</time>
      </trkpt>
      <trkpt lat="49.25029" lon="-0.25921">
        <ele>2.8</ele>
        <time>2023-05-04T09:15:40Z</time>
      </trkpt>
      <trkpt lat="49.25024" lon="-0.25926">
        <ele>2.8</ele>
        <time>2023-05-04T09:15:41Z</time>
      </trkpt>
      <trkpt lat="49.25018" lon="-0.2593">
        <ele>3</ele>
        <time>2023-05-04T09:15:42Z</time>
      </trkpt>
      <trkpt lat="49.25013" lon="-0.25935">
        <ele>3</ele>
        <time>2023-05-04T09:15:43Z</time>
      </trkpt>
      <trkpt lat="49.25008" lon="-0.25939">
        <ele>3.2</ele>
        <time>2023-05-04T09:15:44Z</time>
      </trkpt>
      <trkpt lat="49.25002" lon="-0.25944">
        <ele>3.2</ele>
        <time>2023-05-04T09:15:45Z</time>
      </trkpt>
      <trkpt lat="49.24997" lon="-0.25948">
        <ele>3.2</ele>
        <time>2023-05-04T09:15:46Z</time>
      </trkpt>
      <trkpt lat="49.24992" lon="-0.25953">
        <ele>3</ele>
        <time>2023-05-04T09:15:47Z</time>
      </trkpt>
      <trkpt lat="49.24986" lon="-0.25957">
        <ele>3</ele>
        <time>2023-05-04T09:15:48Z</time>
      </trkpt>
      <trkpt lat="49.24981" lon="-0.25962">
        <ele>3</ele>
        <time>2023-05-04T09:15:49Z</time>
      </trkpt>
      <trkpt lat="49.24976" lon="-0.25966">
        <ele>2.8</ele>
        <time>2023-05-04T09:15:50Z</time>
      </trkpt>
      <trkpt lat="49.2497" lon="-0.25971">
        <ele>2.6</ele>
        <time>2023-05-04T09:15:51Z</time>
      </trkpt>
      <trkpt lat="49.24965" lon="-0.25975">
        <ele>2.4</ele>
        <time>2023-05-04T09:15:52Z</time>
      </trkpt>
      <trkpt lat="49.2496" lon="-0.2598">
        <ele>2.2</ele>
        <time>2023-05-04T09:15:53Z</time>
      </trkpt>
      <trkpt lat="49.24954" lon="-0.25984">
        <ele>2.2</ele>
        <time>2023-05-04T09:15:54Z</time>
      </trkpt>
      <trkpt lat="49.24949" lon="-0.25989">
        <ele>2</ele>
        <time>2023-05-04T09:15:55Z</time>
      </trkpt>
      <trkpt lat="49.24943" lon="-0.25993">
        <ele>1.8</ele>
        <time>2023-05-04T09:15:56Z</time>
      </trkpt>
      <trkpt lat="49.24938" lon="-0.25998">
        <ele>1.8</ele>
        <time>2023-05-04T09:15:57Z</time>
      </trkpt>
      <trkpt lat="49.24933" lon="-0.26002">
        <ele>1.6</ele>
        <time>2023-05-04T09:15:58Z</time>
      </trkpt>
      <trkpt lat="49.24927" lon="-0.26007">
        <ele>1.4</ele>
        <time>2023-05-04T09:15:59Z</time>
      </trkpt>
      <trkpt lat="49.24922" lon="-0.26012">
        <ele>1.2</ele>
        <time>2023-05-04T09:16:00Z</time>
      </trkpt>
      <trkpt lat="49.24916" lon="-0.26016">
        <ele>1.2</ele>
        <time>2023-05-04T09:16:01Z</time>
      </trkpt>
      <trkpt lat="49.2491" lon="-0.26021">
        <ele>1.2</ele>
        <time>2023-05-04T09:16:02Z</time>
      </trkpt>
      <trkpt lat="49.24905" lon="-0.26026">
        <ele>1.2</ele>
        <time>2023-05-04T09:16:03Z</time>
      </trkpt>
      <trkpt lat="49.24899" lon="-0.2603">
        <ele>1.2</ele>
        <time>2023-05-04T09:16:04Z</time>
      </trkpt>
      <trkpt lat="49.24894" lon="-0.26035">
        <ele>1.2</ele>
        <time>2023-05-04T09:16:05Z</time>
      </trkpt>
      <trkpt lat="49.24889" lon="-0.2604">
        <ele>1.2</ele>
        <time>2023-05-04T09:16:06Z</time>
      </trkpt>
      <trkpt lat="49.24883" lon="-0.26044">
        <ele>1.2</ele>
        <time>2023-05-04T09:16:07Z</time>
      </trkpt>
      <trkpt lat="49.24878" lon="-0.26049">
        <ele>1.2</ele>
        <time>2023-05-04T09:16:08Z</time>
      </trkpt>
      <trkpt lat="49.24872" lon="-0.26053">
        <ele>1.2</ele>
        <time>2023-05-04T09:16:09Z</time>
      </trkpt>
      <trkpt lat="49.24867" lon="-0.26058">
        <ele>1.2</ele>
        <time>2023-05-04T09:16:10Z</time>
      </trkpt>
      <trkpt lat="49.24862" lon="-0.26062">
        <ele>1.2</ele>
        <time>2023-05-04T09:16:11Z</time>
      </trkpt>
      <trkpt lat="49.24857" lon="-0.26067">
        <ele>1.2</ele>
        <time>2023-05-04T09:16:12Z</time>
      </trkpt>
      <trkpt lat="49.24851" lon="-0.26071">
        <ele>1.2</ele>
        <time>2023-05-04T09:16:13Z</time>
      </trkpt>
      <trkpt lat="49.24846" lon="-0.26076">
        <ele>1.2</ele>
        <time>2023-05-04T09:16:14Z</time>
      </trkpt>
      <trkpt lat="49.24841" lon="-0.26081">
        <ele>1.2</ele>
        <time>2023-05-04T09:16:15Z</time>
      </trkpt>
      <trkpt lat="49.24835" lon="-0.26085">
        <ele>1</ele>
        <time>2023-05-04T09:16:16Z</time>
      </trkpt>
      <trkpt lat="49.2483" lon="-0.2609">
        <ele>1</ele>
        <time>2023-05-04T09:16:17Z</time>
      </trkpt>
      <trkpt lat="49.24824" lon="-0.26094">
        <ele>1</ele>
        <time>2023-05-04T09:16:18Z</time>
      </trkpt>
      <trkpt lat="49.24819" lon="-0.26099">
        <ele>1</ele>
        <time>2023-05-04T09:16:19Z</time>
      </trkpt>
      <trkpt lat="49.24814" lon="-0.26103">
        <ele>1</ele>
        <time>2023-05-04T09:16:20Z</time>
      </trkpt>
      <trkpt lat="49.24808" lon="-0.26108">
        <ele>1</ele>
        <time>2023-05-04T09:16:21Z</time>
      </trkpt>
      <trkpt lat="49.24803" lon="-0.26113">
        <ele>1</ele>
        <time>2023-05-04T09:16:22Z</time>
      </trkpt>
      <trkpt lat="49.24797" lon="-0.26117">
        <ele>1</ele>
        <time>2023-05-04T09:16:23Z</time>
      </trkpt>
      <trkpt lat="49.24792" lon="-0.26122">
        <ele>1</ele>
        <time>2023-05-04T09:16:24Z</time>
      </trkpt>
      <trkpt lat="49.24786" lon="-0.26126">
        <ele>1</ele>
        <time>2023-05-04T09:16:25Z</time>
      </trkpt>
      <trkpt lat="49.24781" lon="-0.26131">
        <ele>0.80000000000001</ele>
        <time>2023-05-04T09:16:26Z</time>
      </trkpt>
      <trkpt lat="49.24776" lon="-0.26135">
        <ele>0.80000000000001</ele>
        <time>2023-05-04T09:16:27Z</time>
      </trkpt>
      <trkpt lat="49.2477" lon="-0.2614">
        <ele>0.80000000000001</ele>
        <time>2023-05-04T09:16:28Z</time>
      </trkpt>
      <trkpt lat="49.24765" lon="-0.26145">
        <ele>0.80000000000001</ele>
        <time>2023-05-04T09:16:29Z</time>
      </trkpt>
      <trkpt lat="49.24759" lon="-0.26149">
        <ele>0.80000000000001</ele>
        <time>2023-05-04T09:16:30Z</time>
      </trkpt>
      <trkpt lat="49.24754" lon="-0.26154">
        <ele>0.80000000000001</ele>
        <time>2023-05-04T09:16:31Z</time>
      </trkpt>
      <trkpt lat="49.24749" lon="-0.26159">
        <ele>0.80000000000001</ele>
        <time>2023-05-04T09:16:32Z</time>
      </trkpt>
      <trkpt lat="49.24743" lon="-0.26163">
        <ele>0.60000000000002</ele>
        <time>2023-05-04T09:16:33Z</time>
      </trkpt>
      <trkpt lat="49.24738" lon="-0.26168">
        <ele>0.60000000000002</ele>
        <time>2023-05-04T09:16:34Z</time>
      </trkpt>
      <trkpt lat="49.24732" lon="-0.26173">
        <ele>0.60000000000002</ele>
        <time>2023-05-04T09:16:35Z</time>
      </trkpt>
      <trkpt lat="49.24726" lon="-0.26177">
        <ele>0.39999999999998</ele>
        <time>2023-05-04T09:16:36Z</time>
      </trkpt>
      <trkpt lat="49.24721" lon="-0.26182">
        <ele>0.39999999999998</ele>
        <time>2023-05-04T09:16:37Z</time>
      </trkpt>
      <trkpt lat="49.24715" lon="-0.26187">
        <ele>0.19999999999999</ele>
        <time>2023-05-04T09:16:38Z</time>
      </trkpt>
      <trkpt lat="49.24709" lon="-0.26192">
        <ele>0.19999999999999</ele>
        <time>2023-05-04T09:16:39Z</time>
      </trkpt>
      <trkpt lat="49.24704" lon="-0.26197">
        <ele>0.19999999999999</ele>
        <time>2023-05-04T09:16:40Z</time>
      </trkpt>
      <trkpt lat="49.24698" lon="-0.26201">
        <ele>0.19999999999999</ele>
        <time>2023-05-04T09:16:41Z</time>
      </trkpt>
      <trkpt lat="49.24692" lon="-0.26206">
        <ele>0.19999999999999</ele>
        <time>2023-05-04T09:16:42Z</time>
      </trkpt>
      <trkpt lat="49.24686" lon="-0.26211">
        <ele>0.19999999999999</ele>
        <time>2023-05-04T09:16:43Z</time>
      </trkpt>
      <trkpt lat="49.24681" lon="-0.26216">
        <ele>0.19999999999999</ele>
        <time>2023-05-04T09:16:44Z</time>
      </trkpt>
      <trkpt lat="49.24675" lon="-0.2622">
        <ele>0.19999999999999</ele>
        <time>2023-05-04T09:16:45Z</time>
      </trkpt>
      <trkpt lat="49.2467" lon="-0.26225">
        <ele>0.19999999999999</ele>
        <time>2023-05-04T09:16:46Z</time>
      </trkpt>
      <trkpt lat="49.24664" lon="-0.2623">
        <ele>0.39999999999998</ele>
        <time>2023-05-04T09:16:47Z</time>
      </trkpt>
      <trkpt lat="49.24658" lon="-0.26235">
        <ele>0.60000000000002</ele>
        <time>2023-05-04T09:16:48Z</time>
      </trkpt>
      <trkpt lat="49.24653" lon="-0.26239">
        <ele>0.80000000000001</ele>
        <time>2023-05-04T09:16:49Z</time>
      </trkpt>
      <trkpt lat="49.24647" lon="-0.26244">
        <ele>1</ele>
        <time>2023-05-04T09:16:50Z</time>
      </trkpt>
      <trkpt lat="49.24641" lon="-0.26249">
        <ele>1.2</ele>
        <time>2023-05-04T09:16:51Z</time>
      </trkpt>
      <trkpt lat="49.24636" lon="-0.26254">
        <ele>1.4</ele>
        <time>2023-05-04T09:16:52Z</time>
      </trkpt>
      <trkpt lat="49.2463" lon="-0.26258">
        <ele>1.6</ele>
        <time>2023-05-04T09:16:53Z</time>
      </trkpt>
      <trkpt lat="49.24624" lon="-0.26263">
        <ele>1.6</ele>
        <time>2023-05-04T09:16:54Z</time>
      </trkpt>
      <trkpt lat="49.24619" lon="-0.26268">
        <ele>1.8</ele>
        <time>2023-05-04T09:16:55Z</time>
      </trkpt>
      <trkpt lat="49.24613" lon="-0.26273">
        <ele>1.8</ele>
        <time>2023-05-04T09:16:56Z</time>
      </trkpt>
      <trkpt lat="49.24608" lon="-0.26277">
        <ele>1.8</ele>
        <time>2023-05-04T09:16:57Z</time>
      </trkpt>
      <trkpt lat="49.24602" lon="-0.26282">
        <ele>2</ele>
        <time>2023-05-04T09:16:58Z</time>
      </trkpt>
      <trkpt lat="49.24596" lon="-0.26287">
        <ele>2.2</ele>
        <time>2023-05-04T09:16:59Z</time>
      </trkpt>
      <trkpt lat="49.24591" lon="-0.26291">
        <ele>2.4</ele>
        <time>2023-05-04T09:17:00Z</time>
      </trkpt>
      <trkpt lat="49.24585" lon="-0.26296">
        <ele>2.6</ele>
        <time>2023-05-04T09:17:01Z</time>
      </trkpt>
      <trkpt lat="49.2458" lon="-0.26301">
        <ele>2.8</ele>
        <time>2023-05-04T09:17:02Z</time>
      </trkpt>
      <trkpt lat="49.24574" lon="-0.26305">
        <ele>2.8</ele>
        <time>2023-05-04T09:17:03Z</time>
      </trkpt>
      <trkpt lat="49.24568" lon="-0.2631">
        <ele>3</ele>
        <time>2023-05-04T09:17:04Z</time>
      </trkpt>
      <trkpt lat="49.24563" lon="-0.26315">
        <ele>3</ele>
        <time>2023-05-04T09:17:05Z</time>
      </trkpt>
      <trkpt lat="49.24558" lon="-0.2632">
        <ele>3</ele>
        <time>2023-05-04T09:17:06Z</time>
      </trkpt>
      <trkpt lat="49.24552" lon="-0.26324">
        <ele>3.2</ele>
        <time>2023-05-04T09:17:07Z</time>
      </trkpt>
      <trkpt lat="49.24546" lon="-0.26329">
        <ele>3.4</ele>
        <time>2023-05-04T09:17:08Z</time>
      </trkpt>
      <trkpt lat="49.24541" lon="-0.26334">
        <ele>3.6</ele>
        <time>2023-05-04T09:17:09Z</time>
      </trkpt>
      <trkpt lat="49.24535" lon="-0.26338">
        <ele>3.6</ele>
        <time>2023-05-04T09:17:10Z</time>
      </trkpt>
      <trkpt lat="49.2453" lon="-0.26343">
        <ele>3.6</ele>
        <time>2023-05-04T09:17:11Z</time>
      </trkpt>
      <trkpt lat="49.24525" lon="-0.26348">
        <ele>3.6</ele>
        <time>2023-05-04T09:17:12Z</time>
      </trkpt>
      <trkpt lat="49.24519" lon="-0.26352">
        <ele>3.6</ele>
        <time>2023-05-04T09:17:13Z</time>
      </trkpt>
      <trkpt lat="49.24513" lon="-0.26357">
        <ele>3.6</ele>
        <time>2023-05-04T09:17:14Z</time>
      </trkpt>
      <trkpt lat="49.24508" lon="-0.26362">
        <ele>3.6</ele>
        <time>2023-05-04T09:17:15Z</time>
      </trkpt>
      <trkpt lat="49.24503" lon="-0.26367">
        <ele>3.6</ele>
        <time>2023-05-04T09:17:16Z</time>
      </trkpt>
      <trkpt lat="49.24497" lon="-0.26371">
        <ele>3.4</ele>
        <time>2023-05-04T09:17:17Z</time>
      </trkpt>
      <trkpt lat="49.24491" lon="-0.26376">
        <ele>3.2</ele>
        <time>2023-05-04T09:17:18Z</time>
      </trkpt>
      <trkpt lat="49.24486" lon="-0.26381">
        <ele>3</ele>
        <time>2023-05-04T09:17:19Z</time>
      </trkpt>
      <trkpt lat="49.2448" lon="-0.26385">
        <ele>2.8</ele>
        <time>2023-05-04T09:17:20Z</time>
      </trkpt>
      <trkpt lat="49.24475" lon="-0.2639">
        <ele>2.4</ele>
        <time>2023-05-04T09:17:21Z</time>
      </trkpt>
      <trkpt lat="49.24469" lon="-0.26395">
        <ele>2</ele>
        <time>2023-05-04T09:17:22Z</time>
      </trkpt>
      <trkpt lat="49.24463" lon="-0.264">
        <ele>1.8</ele>
        <time>2023-05-04T09:17:23Z</time>
      </trkpt>
      <trkpt lat="49.24458" lon="-0.26405">
        <ele>1.6</ele>
        <time>2023-05-04T09:17:24Z</time>
      </trkpt>
      <trkpt lat="49.24452" lon="-0.26409">
        <ele>1.4</ele>
        <time>2023-05-04T09:17:25Z</time>
      </trkpt>
      <trkpt lat="49.24447" lon="-0.26414">
        <ele>1.2</ele>
        <time>2023-05-04T09:17:26Z</time>
      </trkpt>
      <trkpt lat="49.24441" lon="-0.26419">
        <ele>0.80000000000001</ele>
        <time>2023-05-04T09:17:27Z</time>
      </trkpt>
      <trkpt lat="49.24435" lon="-0.26424">
        <ele>0.80000000000001</ele>
        <time>2023-05-04T09:17:28Z</time>
      </trkpt>
      <trkpt lat="49.2443" lon="-0.26428">
        <ele>0.80000000000001</ele>
        <time>2023-05-04T09:17:29Z</time>
      </trkpt>
      <trkpt lat="49.24424" lon="-0.26433">
        <ele>0.80000000000001</ele>
        <time>2023-05-04T09:17:30Z</time>
      </trkpt>
      <trkpt lat="49.24418" lon="-0.26438">
        <ele>0.80000000000001</ele>
        <time>2023-05-04T09:17:31Z</time>
      </trkpt>
      <trkpt lat="49.24413" lon="-0.26442">
        <ele>0.80000000000001</ele>
        <time>2023-05-04T09:17:32Z</time>
      </trkpt>
      <trkpt lat="49.24407" lon="-0.26446">
        <ele>0.80000000000001</ele>
        <time>2023-05-04T09:17:33Z</time>
      </trkpt>
      <trkpt lat="49.24402" lon="-0.26451">
        <ele>0.80000000000001</ele>
        <time>2023-05-04T09:17:34Z</time>
      </trkpt>
      <trkpt lat="49.24397" lon="-0.26455">
        <ele>0.80000000000001</ele>
        <time>2023-05-04T09:17:35Z</time>
      </trkpt>
      <trkpt lat="49.24392" lon="-0.2646">
        <ele>0.80000000000001</ele>
        <time>2023-05-04T09:17:36Z</time>
      </trkpt>
      <trkpt lat="49.24387" lon="-0.26464">
        <ele>0.80000000000001</ele>
        <time>2023-05-04T09:17:37Z</time>
      </trkpt>
      <trkpt lat="49.24382" lon="-0.26469">
        <ele>0.80000000000001</ele>
        <time>2023-05-04T09:17:38Z</time>
      </trkpt>
      <trkpt lat="49.24376" lon="-0.26474">
        <ele>0.80000000000001</ele>
        <time>2023-05-04T09:17:39Z</time>
      </trkpt>
      <trkpt lat="49.24371" lon="-0.26478">
        <ele>0.80000000000001</ele>
        <time>2023-05-04T09:17:40Z</time>
      </trkpt>
      <trkpt lat="49.24366" lon="-0.26482">
        <ele>0.80000000000001</ele>
        <time>2023-05-04T09:17:41Z</time>
      </trkpt>
      <trkpt lat="49.24361" lon="-0.26487">
        <ele>0.60000000000002</ele>
        <time>2023-05-04T09:17:42Z</time>
      </trkpt>
      <trkpt lat="49.24355" lon="-0.26491">
        <ele>0.60000000000002</ele>
        <time>2023-05-04T09:17:43Z</time>
      </trkpt>
      <trkpt lat="49.2435" lon="-0.26496">
        <ele>0.60000000000002</ele>
        <time>2023-05-04T09:17:44Z</time>
      </trkpt>
      <trkpt lat="49.24345" lon="-0.26501">
        <ele>0.39999999999998</ele>
        <time>2023-05-04T09:17:45Z</time>
      </trkpt>
      <trkpt lat="49.24339" lon="-0.26505">
        <ele>0.39999999999998</ele>
        <time>2023-05-04T09:17:46Z</time>
      </trkpt>
      <trkpt lat="49.24334" lon="-0.2651">
        <ele>0.39999999999998</ele>
        <time>2023-05-04T09:17:47Z</time>
      </trkpt>
      <trkpt lat="49.24329" lon="-0.26514">
        <ele>0.39999999999998</ele>
        <time>2023-05-04T09:17:48Z</time>
      </trkpt>
      <trkpt lat="49.24324" lon="-0.26518">
        <ele>0.39999999999998</ele>
        <time>2023-05-04T09:17:49Z</time>
      </trkpt>
      <trkpt lat="49.24318" lon="-0.26523">
        <ele>0.60000000000002</ele>
        <time>2023-05-04T09:17:50Z</time>
      </trkpt>
      <trkpt lat="49.24313" lon="-0.26527">
        <ele>0.60000000000002</ele>
        <time>2023-05-04T09:17:51Z</time>
      </trkpt>
      <trkpt lat="49.24308" lon="-0.26532">
        <ele>0.60000000000002</ele>
        <time>2023-05-04T09:17:52Z</time>
      </trkpt>
      <trkpt lat="49.24303" lon="-0.26537">
        <ele>0.60000000000002</ele>
        <time>2023-05-04T09:17:53Z</time>
      </trkpt>
      <trkpt lat="49.24297" lon="-0.26541">
        <ele>0.80000000000001</ele>
        <time>2023-05-04T09:17:54Z</time>
      </trkpt>
      <trkpt lat="49.24292" lon="-0.26545">
        <ele>0.80000000000001</ele>
        <time>2023-05-04T09:17:55Z</time>
      </trkpt>
      <trkpt lat="49.24287" lon="-0.2655">
        <ele>0.80000000000001</ele>
        <time>2023-05-04T09:17:56Z</time>
      </trkpt>
      <trkpt lat="49.24281" lon="-0.26554">
        <ele>0.80000000000001</ele>
        <time>2023-05-04T09:17:57Z</time>
      </trkpt>
      <trkpt lat="49.24276" lon="-0.26559">
        <ele>0.80000000000001</ele>
        <time>2023-05-04T09:17:58Z</time>
      </trkpt>
      <trkpt lat="49.24271" lon="-0.26563">
        <ele>0.80000000000001</ele>
        <time>2023-05-04T09:17:59Z</time>
      </trkpt>
      <trkpt lat="49.24265" lon="-0.26568">
        <ele>1</ele>
        <time>2023-05-04T09:18:00Z</time>
      </trkpt>
      <trkpt lat="49.2426" lon="-0.26572">
        <ele>1</ele>
        <time>2023-05-04T09:18:01Z</time>
      </trkpt>
      <trkpt lat="49.24255" lon="-0.26577">
        <ele>1</ele>
        <time>2023-05-04T09:18:02Z</time>
      </trkpt>
      <trkpt lat="49.24249" lon="-0.26581">
        <ele>1</ele>
        <time>2023-05-04T09:18:03Z</time>
      </trkpt>
      <trkpt lat="49.24244" lon="-0.26586">
        <ele>0.80000000000001</ele>
        <time>2023-05-04T09:18:04Z</time>
      </trkpt>
      <trkpt lat="49.24239" lon="-0.26591">
        <ele>0.80000000000001</ele>
        <time>2023-05-04T09:18:05Z</time>
      </trkpt>
      <trkpt lat="49.24233" lon="-0.26595">
        <ele>0.80000000000001</ele>
        <time>2023-05-04T09:18:06Z</time>
      </trkpt>
      <trkpt lat="49.24228" lon="-0.266">
        <ele>0.60000000000002</ele>
        <time>2023-05-04T09:18:07Z</time>
      </trkpt>
      <trkpt lat="49.24222" lon="-0.26604">
        <ele>0.60000000000002</ele>
        <time>2023-05-04T09:18:08Z</time>
      </trkpt>
      <trkpt lat="49.24217" lon="-0.26609">
        <ele>0.60000000000002</ele>
        <time>2023-05-04T09:18:09Z</time>
      </trkpt>
      <trkpt lat="49.24212" lon="-0.26613">
        <ele>0.60000000000002</ele>
        <time>2023-05-04T09:18:10Z</time>
      </trkpt>
      <trkpt lat="49.24206" lon="-0.26618">
        <ele>0.60000000000002</ele>
        <time>2023-05-04T09:18:11Z</time>
      </trkpt>
      <trkpt lat="49.24201" lon="-0.26622">
        <ele>0.39999999999998</ele>
        <time>2023-05-04T09:18:12Z</time>
      </trkpt>
      <trkpt lat="49.24196" lon="-0.26627">
        <ele>0.39999999999998</ele>
        <time>2023-05-04T09:18:13Z</time>
      </trkpt>
      <trkpt lat="49.24191" lon="-0.26631">
        <ele>0.39999999999998</ele>
        <time>2023-05-04T09:18:14Z</time>
      </trkpt>
      <trkpt lat="49.24185" lon="-0.26636">
        <ele>0.19999999999999</ele>
        <time>2023-05-04T09:18:15Z</time>
      </trkpt>
      <trkpt lat="49.2418" lon="-0.2664">
        <ele>0.19999999999999</ele>
        <time>2023-05-04T09:18:16Z</time>
      </trkpt>
      <trkpt lat="49.24175" lon="-0.26645">
        <ele>0.19999999999999</ele>
        <time>2023-05-04T09:18:17Z</time>
      </trkpt>
      <trkpt lat="49.24171" lon="-0.2665">
        <ele>0.19999999999999</ele>
        <time>2023-05-04T09:18:18Z</time>
      </trkpt>
      <trkpt lat="49.24166" lon="-0.26655">
        <ele>0.19999999999999</ele>
        <time>2023-05-04T09:18:19Z</time>
      </trkpt>
      <trkpt lat="49.24161" lon="-0.26661">
        <ele>-0.19999999999999</ele>
        <time>2023-05-04T09:18:20Z</time>
      </trkpt>
      <trkpt lat="49.24157" lon="-0.26667">
        <ele>-0.19999999999999</ele>
        <time>2023-05-04T09:18:21Z</time>
      </trkpt>
      <trkpt lat="49.24153" lon="-0.26674">
        <ele>-0.19999999999999</ele>
        <time>2023-05-04T09:18:22Z</time>
      </trkpt>
      <trkpt lat="49.24149" lon="-0.26681">
        <ele>0.19999999999999</ele>
        <time>2023-05-04T09:18:23Z</time>
      </trkpt>
      <trkpt lat="49.24146" lon="-0.26688">
        <ele>0.39999999999998</ele>
        <time>2023-05-04T09:18:24Z</time>
      </trkpt>
      <trkpt lat="49.24143" lon="-0.26696">
        <ele>0.39999999999998</ele>
        <time>2023-05-04T09:18:25Z</time>
      </trkpt>
      <trkpt lat="49.2414" lon="-0.26704">
        <ele>0.60000000000002</ele>
        <time>2023-05-04T09:18:26Z</time>
      </trkpt>
      <trkpt lat="49.24138" lon="-0.26711">
        <ele>0.60000000000002</ele>
        <time>2023-05-04T09:18:27Z</time>
      </trkpt>
      <trkpt lat="49.24136" lon="-0.2672">
        <ele>0.80000000000001</ele>
        <time>2023-05-04T09:18:28Z</time>
      </trkpt>
      <trkpt lat="49.24134" lon="-0.26728">
        <ele>1.2</ele>
        <time>2023-05-04T09:18:29Z</time>
      </trkpt>
      <trkpt lat="49.24133" lon="-0.26737">
        <ele>1.2</ele>
        <time>2023-05-04T09:18:30Z</time>
      </trkpt>
      <trkpt lat="49.24132" lon="-0.26746">
        <ele>1.6</ele>
        <time>2023-05-04T09:18:31Z</time>
      </trkpt>
      <trkpt lat="49.24131" lon="-0.26754">
        <ele>1.6</ele>
        <time>2023-05-04T09:18:32Z</time>
      </trkpt>
      <trkpt lat="49.24131" lon="-0.26763">
        <ele>1.8</ele>
        <time>2023-05-04T09:18:33Z</time>
      </trkpt>
      <trkpt lat="49.24132" lon="-0.26772">
        <ele>1.8</ele>
        <time>2023-05-04T09:18:34Z</time>
      </trkpt>
      <trkpt lat="49.24132" lon="-0.26781">
        <ele>1.8</ele>
        <time>2023-05-04T09:18:35Z</time>
      </trkpt>
      <trkpt lat="49.24134" lon="-0.26791">
        <ele>2</ele>
        <time>2023-05-04T09:18:36Z</time>
      </trkpt>
      <trkpt lat="49.24135" lon="-0.268">
        <ele>2</ele>
        <time>2023-05-04T09:18:37Z</time>
      </trkpt>
      <trkpt lat="49.24137" lon="-0.2681">
        <ele>2.2</ele>
        <time>2023-05-04T09:18:38Z</time>
      </trkpt>
      <trkpt lat="49.24138" lon="-0.26819">
        <ele>2.2</ele>
        <time>2023-05-04T09:18:39Z</time>
      </trkpt>
      <trkpt lat="49.24139" lon="-0.26829">
        <ele>2.2</ele>
        <time>2023-05-04T09:18:40Z</time>
      </trkpt>
      <trkpt lat="49.24139" lon="-0.26838">
        <ele>2.2</ele>
        <time>2023-05-04T09:18:41Z</time>
      </trkpt>
      <trkpt lat="49.24139" lon="-0.26848">
        <ele>2.2</ele>
        <time>2023-05-04T09:18:42Z</time>
      </trkpt>
      <trkpt lat="49.24138" lon="-0.26857">
        <ele>2.2</ele>
        <time>2023-05-04T09:18:43Z</time>
      </trkpt>
      <trkpt lat="49.24136" lon="-0.26865">
        <ele>2</ele>
        <time>2023-05-04T09:18:44Z</time>
      </trkpt>
      <trkpt lat="49.24134" lon="-0.26873">
        <ele>2</ele>
        <time>2023-05-04T09:18:45Z</time>
      </trkpt>
      <trkpt lat="49.24131" lon="-0.26881">
        <ele>2</ele>
        <time>2023-05-04T09:18:46Z</time>
      </trkpt>
      <trkpt lat="49.24128" lon="-0.26887">
        <ele>2</ele>
        <time>2023-05-04T09:18:47Z</time>
      </trkpt>
      <trkpt lat="49.24124" lon="-0.26892">
        <ele>2.2</ele>
        <time>2023-05-04T09:18:48Z</time>
      </trkpt>
      <trkpt lat="49.2412" lon="-0.26898">
        <ele>2.2</ele>
        <time>2023-05-04T09:18:49Z</time>
      </trkpt>
      <trkpt lat="49.24117" lon="-0.26902">
        <ele>2.2</ele>
        <time>2023-05-04T09:18:50Z</time>
      </trkpt>
      <trkpt lat="49.24113" lon="-0.26906">
        <ele>2.2</ele>
        <time>2023-05-04T09:18:51Z</time>
      </trkpt>
      <trkpt lat="49.2411" lon="-0.26909">
        <ele>2.4</ele>
        <time>2023-05-04T09:18:52Z</time>
      </trkpt>
      <trkpt lat="49.24108" lon="-0.26912">
        <ele>2.4</ele>
        <time>2023-05-04T09:18:53Z</time>
      </trkpt>
      <trkpt lat="49.24106" lon="-0.26915">
        <ele>2.6</ele>
        <time>2023-05-04T09:18:54Z</time>
      </trkpt>
      <trkpt lat="49.24104" lon="-0.26917">
        <ele>2.6</ele>
        <time>2023-05-04T09:18:55Z</time>
      </trkpt>
      <trkpt lat="49.24102" lon="-0.26919">
        <ele>2.6</ele>
        <time>2023-05-04T09:18:56Z</time>
      </trkpt>
      <trkpt lat="49.24101" lon="-0.2692">
        <ele>2.6</ele>
        <time>2023-05-04T09:18:57Z</time>
      </trkpt>
      <trkpt lat="49.24099" lon="-0.26923">
        <ele>2.6</ele>
        <time>2023-05-04T09:18:58Z</time>
      </trkpt>
      <trkpt lat="49.24096" lon="-0.26925">
        <ele>2.6</ele>
        <time>2023-05-04T09:18:59Z</time>
      </trkpt>
      <trkpt lat="49.24093" lon="-0.26928">
        <ele>2.6</ele>
        <time>2023-05-04T09:19:00Z</time>
      </trkpt>
      <trkpt lat="49.24088" lon="-0.2693">
        <ele>2.6</ele>
        <time>2023-05-04T09:19:01Z</time>
      </trkpt>
      <trkpt lat="49.24084" lon="-0.26932">
        <ele>2.6</ele>
        <time>2023-05-04T09:19:02Z</time>
      </trkpt>
      <trkpt lat="49.24079" lon="-0.26933">
        <ele>2.6</ele>
        <time>2023-05-04T09:19:03Z</time>
      </trkpt>
      <trkpt lat="49.24074" lon="-0.26934">
        <ele>2.6</ele>
        <time>2023-05-04T09:19:04Z</time>
      </trkpt>
      <trkpt lat="49.24068" lon="-0.26936">
        <ele>2.6</ele>
        <time>2023-05-04T09:19:05Z</time>
      </trkpt>
      <trkpt lat="49.24063" lon="-0.26938">
        <ele>2.4</ele>
        <time>2023-05-04T09:19:06Z</time>
      </trkpt>
      <trkpt lat="49.24058" lon="-0.26941">
        <ele>2.4</ele>
        <time>2023-05-04T09:19:07Z</time>
      </trkpt>
      <trkpt lat="49.24052" lon="-0.26944">
        <ele>2.2</ele>
        <time>2023-05-04T09:19:08Z</time>
      </trkpt>
      <trkpt lat="49.24046" lon="-0.26947">
        <ele>2.2</ele>
        <time>2023-05-04T09:19:09Z</time>
      </trkpt>
      <trkpt lat="49.24041" lon="-0.26949">
        <ele>2.2</ele>
        <time>2023-05-04T09:19:10Z</time>
      </trkpt>
      <trkpt lat="49.24035" lon="-0.26953">
        <ele>2.2</ele>
        <time>2023-05-04T09:19:11Z</time>
      </trkpt>
      <trkpt lat="49.24029" lon="-0.26956">
        <ele>2.2</ele>
        <time>2023-05-04T09:19:12Z</time>
      </trkpt>
      <trkpt lat="49.24024" lon="-0.2696">
        <ele>2.4</ele>
        <time>2023-05-04T09:19:13Z</time>
      </trkpt>
      <trkpt lat="49.24018" lon="-0.26964">
        <ele>2.4</ele>
        <time>2023-05-04T09:19:14Z</time>
      </trkpt>
      <trkpt lat="49.24013" lon="-0.26969">
        <ele>2.6</ele>
        <time>2023-05-04T09:19:15Z</time>
      </trkpt>
      <trkpt lat="49.24007" lon="-0.26974">
        <ele>2.6</ele>
        <time>2023-05-04T09:19:16Z</time>
      </trkpt>
      <trkpt lat="49.24001" lon="-0.26979">
        <ele>2.8</ele>
        <time>2023-05-04T09:19:17Z</time>
      </trkpt>
      <trkpt lat="49.23996" lon="-0.26984">
        <ele>2.8</ele>
        <time>2023-05-04T09:19:18Z</time>
      </trkpt>
      <trkpt lat="49.2399" lon="-0.26989">
        <ele>3</ele>
        <time>2023-05-04T09:19:19Z</time>
      </trkpt>
      <trkpt lat="49.23985" lon="-0.26994">
        <ele>3</ele>
        <time>2023-05-04T09:19:20Z</time>
      </trkpt>
      <trkpt lat="49.23979" lon="-0.26999">
        <ele>3</ele>
        <time>2023-05-04T09:19:21Z</time>
      </trkpt>
      <trkpt lat="49.23973" lon="-0.27003">
        <ele>3</ele>
        <time>2023-05-04T09:19:22Z</time>
      </trkpt>
      <trkpt lat="49.23968" lon="-0.27009">
        <ele>2.8</ele>
        <time>2023-05-04T09:19:23Z</time>
      </trkpt>
      <trkpt lat="49.23962" lon="-0.27013">
        <ele>2.8</ele>
        <time>2023-05-04T09:19:24Z</time>
      </trkpt>
      <trkpt lat="49.23956" lon="-0.27019">
        <ele>2.8</ele>
        <time>2023-05-04T09:19:25Z</time>
      </trkpt>
      <trkpt lat="49.23951" lon="-0.27023">
        <ele>2.6</ele>
        <time>2023-05-04T09:19:26Z</time>
      </trkpt>
      <trkpt lat="49.23945" lon="-0.27029">
        <ele>2.6</ele>
        <time>2023-05-04T09:19:27Z</time>
      </trkpt>
      <trkpt lat="49.23939" lon="-0.27033">
        <ele>2.6</ele>
        <time>2023-05-04T09:19:28Z</time>
      </trkpt>
      <trkpt lat="49.23934" lon="-0.27039">
        <ele>2.4</ele>
        <time>2023-05-04T09:19:29Z</time>
      </trkpt>
      <trkpt lat="49.23928" lon="-0.27043">
        <ele>2.4</ele>
        <time>2023-05-04T09:19:30Z</time>
      </trkpt>
      <trkpt lat="49.23922" lon="-0.27048">
        <ele>2.4</ele>
        <time>2023-05-04T09:19:31Z</time>
      </trkpt>
      <trkpt lat="49.23916" lon="-0.27053">
        <ele>2.4</ele>
        <time>2023-05-04T09:19:32Z</time>
      </trkpt>
      <trkpt lat="49.2391" lon="-0.27058">
        <ele>2.4</ele>
        <time>2023-05-04T09:19:33Z</time>
      </trkpt>
      <trkpt lat="49.23904" lon="-0.27063">
        <ele>2.4</ele>
        <time>2023-05-04T09:19:34Z</time>
      </trkpt>
      <trkpt lat="49.23898" lon="-0.27069">
        <ele>2.4</ele>
        <time>2023-05-04T09:19:35Z</time>
      </trkpt>
      <trkpt lat="49.23892" lon="-0.27074">
        <ele>2.4</ele>
        <time>2023-05-04T09:19:36Z</time>
      </trkpt>
      <trkpt lat="49.23886" lon="-0.27079">
        <ele>2.4</ele>
        <time>2023-05-04T09:19:37Z</time>
      </trkpt>
      <trkpt lat="49.2388" lon="-0.27084">
        <ele>2.6</ele>
        <time>2023-05-04T09:19:38Z</time>
      </trkpt>
      <trkpt lat="49.23873" lon="-0.2709">
        <ele>2.6</ele>
        <time>2023-05-04T09:19:39Z</time>
      </trkpt>
      <trkpt lat="49.23867" lon="-0.27095">
        <ele>2.8</ele>
        <time>2023-05-04T09:19:40Z</time>
      </trkpt>
      <trkpt lat="49.2386" lon="-0.271">
        <ele>3</ele>
        <time>2023-05-04T09:19:41Z</time>
      </trkpt>
      <trkpt lat="49.23854" lon="-0.27106">
        <ele>3</ele>
        <time>2023-05-04T09:19:42Z</time>
      </trkpt>
      <trkpt lat="49.23847" lon="-0.27111">
        <ele>3.2</ele>
        <time>2023-05-04T09:19:43Z</time>
      </trkpt>
      <trkpt lat="49.23841" lon="-0.27117">
        <ele>3.2</ele>
        <time>2023-05-04T09:19:44Z</time>
      </trkpt>
      <trkpt lat="49.23834" lon="-0.27122">
        <ele>3.6</ele>
        <time>2023-05-04T09:19:45Z</time>
      </trkpt>
      <trkpt lat="49.23828" lon="-0.27128">
        <ele>3.6</ele>
        <time>2023-05-04T09:19:46Z</time>
      </trkpt>
      <trkpt lat="49.23822" lon="-0.27133">
        <ele>3.6</ele>
        <time>2023-05-04T09:19:47Z</time>
      </trkpt>
      <trkpt lat="49.23816" lon="-0.27139">
        <ele>3.8</ele>
        <time>2023-05-04T09:19:48Z</time>
      </trkpt>
      <trkpt lat="49.23809" lon="-0.27145">
        <ele>3.8</ele>
        <time>2023-05-04T09:19:49Z</time>
      </trkpt>
      <trkpt lat="49.23803" lon="-0.2715">
        <ele>3.8</ele>
        <time>2023-05-04T09:19:50Z</time>
      </trkpt>
      <trkpt lat="49.23796" lon="-0.27156">
        <ele>4</ele>
        <time>2023-05-04T09:19:51Z</time>
      </trkpt>
      <trkpt lat="49.2379" lon="-0.27161">
        <ele>4</ele>
        <time>2023-05-04T09:19:52Z</time>
      </trkpt>
      <trkpt lat="49.23783" lon="-0.27167">
        <ele>4</ele>
        <time>2023-05-04T09:19:53Z</time>
      </trkpt>
      <trkpt lat="49.23776" lon="-0.27172">
        <ele>4</ele>
        <time>2023-05-04T09:19:54Z</time>
      </trkpt>
      <trkpt lat="49.2377" lon="-0.27177">
        <ele>3.8</ele>
        <time>2023-05-04T09:19:55Z</time>
      </trkpt>
      <trkpt lat="49.23763" lon="-0.27183">
        <ele>3.8</ele>
        <time>2023-05-04T09:19:56Z</time>
      </trkpt>
      <trkpt lat="49.23757" lon="-0.27188">
        <ele>3.6</ele>
        <time>2023-05-04T09:19:57Z</time>
      </trkpt>
      <trkpt lat="49.2375" lon="-0.27193">
        <ele>3.4</ele>
        <time>2023-05-04T09:19:58Z</time>
      </trkpt>
      <trkpt lat="49.23744" lon="-0.27199">
        <ele>3.2</ele>
        <time>2023-05-04T09:19:59Z</time>
      </trkpt>
      <trkpt lat="49.23738" lon="-0.27204">
        <ele>3</ele>
        <time>2023-05-04T09:20:00Z</time>
      </trkpt>
      <trkpt lat="49.23731" lon="-0.27209">
        <ele>3</ele>
        <time>2023-05-04T09:20:01Z</time>
      </trkpt>
      <trkpt lat="49.23725" lon="-0.27215">
        <ele>3</ele>
        <time>2023-05-04T09:20:02Z</time>
      </trkpt>
      <trkpt lat="49.23719" lon="-0.2722">
        <ele>2.8</ele>
        <time>2023-05-04T09:20:03Z</time>
      </trkpt>
      <trkpt lat="49.23713" lon="-0.27226">
        <ele>2.8</ele>
        <time>2023-05-04T09:20:04Z</time>
      </trkpt>
      <trkpt lat="49.23707" lon="-0.27231">
        <ele>2.8</ele>
        <time>2023-05-04T09:20:05Z</time>
      </trkpt>
      <trkpt lat="49.237" lon="-0.27236">
        <ele>2.8</ele>
        <time>2023-05-04T09:20:06Z</time>
      </trkpt>
      <trkpt lat="49.23694" lon="-0.27242">
        <ele>2.8</ele>
        <time>2023-05-04T09:20:07Z</time>
      </trkpt>
      <trkpt lat="49.23688" lon="-0.27247">
        <ele>2.8</ele>
        <time>2023-05-04T09:20:08Z</time>
      </trkpt>
      <trkpt lat="49.23681" lon="-0.27253">
        <ele>2.8</ele>
        <time>2023-05-04T09:20:09Z</time>
      </trkpt>
      <trkpt lat="49.23675" lon="-0.27258">
        <ele>2.8</ele>
        <time>2023-05-04T09:20:10Z</time>
      </trkpt>
      <trkpt lat="49.23669" lon="-0.27263">
        <ele>2.8</ele>
        <time>2023-05-04T09:20:11Z</time>
      </trkpt>
      <trkpt lat="49.23662" lon="-0.27269">
        <ele>2.8</ele>
        <time>2023-05-04T09:20:12Z</time>
      </trkpt>
      <trkpt lat="49.23656" lon="-0.27274">
        <ele>2.6</ele>
        <time>2023-05-04T09:20:13Z</time>
      </trkpt>
      <trkpt lat="49.2365" lon="-0.27279">
        <ele>2.2</ele>
        <time>2023-05-04T09:20:14Z</time>
      </trkpt>
      <trkpt lat="49.23644" lon="-0.27284">
        <ele>2</ele>
        <time>2023-05-04T09:20:15Z</time>
      </trkpt>
      <trkpt lat="49.23637" lon="-0.27289">
        <ele>1.8</ele>
        <time>2023-05-04T09:20:16Z</time>
      </trkpt>
      <trkpt lat="49.23632" lon="-0.27294">
        <ele>1.6</ele>
        <time>2023-05-04T09:20:17Z</time>
      </trkpt>
      <trkpt lat="49.23626" lon="-0.27299">
        <ele>1.4</ele>
        <time>2023-05-04T09:20:18Z</time>
      </trkpt>
      <trkpt lat="49.2362" lon="-0.27304">
        <ele>1.2</ele>
        <time>2023-05-04T09:20:19Z</time>
      </trkpt>
      <trkpt lat="49.23613" lon="-0.27309">
        <ele>1</ele>
        <time>2023-05-04T09:20:20Z</time>
      </trkpt>
      <trkpt lat="49.23607" lon="-0.27315">
        <ele>0.80000000000001</ele>
        <time>2023-05-04T09:20:21Z</time>
      </trkpt>
      <trkpt lat="49.23601" lon="-0.2732">
        <ele>0.60000000000002</ele>
        <time>2023-05-04T09:20:22Z</time>
      </trkpt>
      <trkpt lat="49.23596" lon="-0.27325">
        <ele>0.39999999999998</ele>
        <time>2023-05-04T09:20:23Z</time>
      </trkpt>
      <trkpt lat="49.2359" lon="-0.2733">
        <ele>0.19999999999999</ele>
        <time>2023-05-04T09:20:24Z</time>
      </trkpt>
      <trkpt lat="49.23584" lon="-0.27335">
        <ele>0.19999999999999</ele>
        <time>2023-05-04T09:20:25Z</time>
      </trkpt>
      <trkpt lat="49.23577" lon="-0.2734">
        <ele>0.19999999999999</ele>
        <time>2023-05-04T09:20:26Z</time>
      </trkpt>
      <trkpt lat="49.23571" lon="-0.27345">
        <ele>0.19999999999999</ele>
        <time>2023-05-04T09:20:27Z</time>
      </trkpt>
      <trkpt lat="49.23566" lon="-0.27351">
        <ele>0.19999999999999</ele>
        <time>2023-05-04T09:20:28Z</time>
      </trkpt>
      <trkpt lat="49.2356" lon="-0.27356">
        <ele>0.19999999999999</ele>
        <time>2023-05-04T09:20:29Z</time>
      </trkpt>
      <trkpt lat="49.23554" lon="-0.27361">
        <ele>0.19999999999999</ele>
        <time>2023-05-04T09:20:30Z</time>
      </trkpt>
      <trkpt lat="49.23548" lon="-0.27366">
        <ele>0.19999999999999</ele>
        <time>2023-05-04T09:20:31Z</time>
      </trkpt>
      <trkpt lat="49.23542" lon="-0.27371">
        <ele>0.19999999999999</ele>
        <time>2023-05-04T09:20:32Z</time>
      </trkpt>
      <trkpt lat="49.23536" lon="-0.27377">
        <ele>0.19999999999999</ele>
        <time>2023-05-04T09:20:33Z</time>
      </trkpt>
      <trkpt lat="49.2353" lon="-0.27382">
        <ele>0.19999999999999</ele>
        <time>2023-05-04T09:20:34Z</time>
      </trkpt>
      <trkpt lat="49.23524" lon="-0.27387">
        <ele>0.19999999999999</ele>
        <time>2023-05-04T09:20:35Z</time>
      </trkpt>
      <trkpt lat="49.23518" lon="-0.27393">
        <ele>0.19999999999999</ele>
        <time>2023-05-04T09:20:36Z</time>
      </trkpt>
      <trkpt lat="49.23512" lon="-0.27398">
        <ele>0.19999999999999</ele>
        <time>2023-05-04T09:20:37Z</time>
      </trkpt>
      <trkpt lat="49.23507" lon="-0.27404">
        <ele>0.19999999999999</ele>
        <time>2023-05-04T09:20:38Z</time>
      </trkpt>
      <trkpt lat="49.23501" lon="-0.27409">
        <ele>0.19999999999999</ele>
        <time>2023-05-04T09:20:39Z</time>
      </trkpt>
      <trkpt lat="49.23495" lon="-0.27415">
        <ele>0.19999999999999</ele>
        <time>2023-05-04T09:20:40Z</time>
      </trkpt>
      <trkpt lat="49.2349" lon="-0.2742">
        <ele>0.39999999999998</ele>
        <time>2023-05-04T09:20:41Z</time>
      </trkpt>
      <trkpt lat="49.23484" lon="-0.27426">
        <ele>0.60000000000002</ele>
        <time>2023-05-04T09:20:42Z</time>
      </trkpt>
      <trkpt lat="49.23478" lon="-0.27431">
        <ele>0.80000000000001</ele>
        <time>2023-05-04T09:20:43Z</time>
      </trkpt>
      <trkpt lat="49.23473" lon="-0.27436">
        <ele>1.2</ele>
        <time>2023-05-04T09:20:44Z</time>
      </trkpt>
      <trkpt lat="49.23467" lon="-0.27442">
        <ele>1.4</ele>
        <time>2023-05-04T09:20:45Z</time>
      </trkpt>
      <trkpt lat="49.23462" lon="-0.27447">
        <ele>1.6</ele>
        <time>2023-05-04T09:20:46Z</time>
      </trkpt>
      <trkpt lat="49.23457" lon="-0.27453">
        <ele>1.8</ele>
        <time>2023-05-04T09:20:47Z</time>
      </trkpt>
      <trkpt lat="49.23451" lon="-0.27458">
        <ele>2.2</ele>
        <time>2023-05-04T09:20:48Z</time>
      </trkpt>
      <trkpt lat="49.23446" lon="-0.27464">
        <ele>2.4</ele>
        <time>2023-05-04T09:20:49Z</time>
      </trkpt>
      <trkpt lat="49.2344" lon="-0.27469">
        <ele>2.8</ele>
        <time>2023-05-04T09:20:50Z</time>
      </trkpt>
      <trkpt lat="49.23435" lon="-0.27475">
        <ele>3</ele>
        <time>2023-05-04T09:20:51Z</time>
      </trkpt>
      <trkpt lat="49.23429" lon="-0.2748">
        <ele>3.2</ele>
        <time>2023-05-04T09:20:52Z</time>
      </trkpt>
      <trkpt lat="49.23424" lon="-0.27486">
        <ele>3.6</ele>
        <time>2023-05-04T09:20:53Z</time>
      </trkpt>
      <trkpt lat="49.23419" lon="-0.27492">
        <ele>3.8</ele>
        <time>2023-05-04T09:20:54Z</time>
      </trkpt>
      <trkpt lat="49.23413" lon="-0.27497">
        <ele>4</ele>
        <time>2023-05-04T09:20:55Z</time>
      </trkpt>
      <trkpt lat="49.23408" lon="-0.27503">
        <ele>3.8</ele>
        <time>2023-05-04T09:20:56Z</time>
      </trkpt>
      <trkpt lat="49.23402" lon="-0.27509">
        <ele>3.6</ele>
        <time>2023-05-04T09:20:57Z</time>
      </trkpt>
      <trkpt lat="49.23397" lon="-0.27514">
        <ele>3.4</ele>
        <time>2023-05-04T09:20:58Z</time>
      </trkpt>
      <trkpt lat="49.23391" lon="-0.2752">
        <ele>3.2</ele>
        <time>2023-05-04T09:20:59Z</time>
      </trkpt>
      <trkpt lat="49.23386" lon="-0.27526">
        <ele>3</ele>
        <time>2023-05-04T09:21:00Z</time>
      </trkpt>
      <trkpt lat="49.2338" lon="-0.27532">
        <ele>2.8</ele>
        <time>2023-05-04T09:21:01Z</time>
      </trkpt>
      <trkpt lat="49.23375" lon="-0.27538">
        <ele>2.6</ele>
        <time>2023-05-04T09:21:02Z</time>
      </trkpt>
      <trkpt lat="49.23369" lon="-0.27543">
        <ele>2.2</ele>
        <time>2023-05-04T09:21:03Z</time>
      </trkpt>
      <trkpt lat="49.23364" lon="-0.27549">
        <ele>2</ele>
        <time>2023-05-04T09:21:04Z</time>
      </trkpt>
      <trkpt lat="49.23358" lon="-0.27555">
        <ele>1.8</ele>
        <time>2023-05-04T09:21:05Z</time>
      </trkpt>
      <trkpt lat="49.23352" lon="-0.27561">
        <ele>1.8</ele>
        <time>2023-05-04T09:21:06Z</time>
      </trkpt>
      <trkpt lat="49.23347" lon="-0.27566">
        <ele>1.6</ele>
        <time>2023-05-04T09:21:07Z</time>
      </trkpt>
      <trkpt lat="49.23341" lon="-0.27572">
        <ele>1.2</ele>
        <time>2023-05-04T09:21:08Z</time>
      </trkpt>
      <trkpt lat="49.23336" lon="-0.27577">
        <ele>1.2</ele>
        <time>2023-05-04T09:21:09Z</time>
      </trkpt>
      <trkpt lat="49.23331" lon="-0.27583">
        <ele>1</ele>
        <time>2023-05-04T09:21:10Z</time>
      </trkpt>
      <trkpt lat="49.23325" lon="-0.27588">
        <ele>1.2</ele>
        <time>2023-05-04T09:21:11Z</time>
      </trkpt>
      <trkpt lat="49.2332" lon="-0.27594">
        <ele>1.2</ele>
        <time>2023-05-04T09:21:12Z</time>
      </trkpt>
      <trkpt lat="49.23314" lon="-0.276">
        <ele>1.2</ele>
        <time>2023-05-04T09:21:13Z</time>
      </trkpt>
      <trkpt lat="49.23309" lon="-0.27606">
        <ele>1.2</ele>
        <time>2023-05-04T09:21:14Z</time>
      </trkpt>
      <trkpt lat="49.23303" lon="-0.27611">
        <ele>1.4</ele>
        <time>2023-05-04T09:21:15Z</time>
      </trkpt>
      <trkpt lat="49.23297" lon="-0.27617">
        <ele>1.4</ele>
        <time>2023-05-04T09:21:16Z</time>
      </trkpt>
      <trkpt lat="49.23292" lon="-0.27623">
        <ele>1.6</ele>
        <time>2023-05-04T09:21:17Z</time>
      </trkpt>
      <trkpt lat="49.23286" lon="-0.27629">
        <ele>1.6</ele>
        <time>2023-05-04T09:21:18Z</time>
      </trkpt>
      <trkpt lat="49.23281" lon="-0.27635">
        <ele>1.6</ele>
        <time>2023-05-04T09:21:19Z</time>
      </trkpt>
      <trkpt lat="49.23275" lon="-0.2764">
        <ele>1.8</ele>
        <time>2023-05-04T09:21:20Z</time>
      </trkpt>
      <trkpt lat="49.2327" lon="-0.27646">
        <ele>1.8</ele>
        <time>2023-05-04T09:21:21Z</time>
      </trkpt>
      <trkpt lat="49.23264" lon="-0.27651">
        <ele>1.8</ele>
        <time>2023-05-04T09:21:22Z</time>
      </trkpt>
      <trkpt lat="49.23259" lon="-0.27657">
        <ele>1.8</ele>
        <time>2023-05-04T09:21:23Z</time>
      </trkpt>
      <trkpt lat="49.23254" lon="-0.27662">
        <ele>2</ele>
        <time>2023-05-04T09:21:24Z</time>
      </trkpt>
      <trkpt lat="49.23249" lon="-0.27668">
        <ele>2</ele>
        <time>2023-05-04T09:21:25Z</time>
      </trkpt>
      <trkpt lat="49.23243" lon="-0.27673">
        <ele>2</ele>
        <time>2023-05-04T09:21:26Z</time>
      </trkpt>
      <trkpt lat="49.23238" lon="-0.27679">
        <ele>2</ele>
        <time>2023-05-04T09:21:27Z</time>
      </trkpt>
      <trkpt lat="49.23233" lon="-0.27684">
        <ele>2</ele>
        <time>2023-05-04T09:21:28Z</time>
      </trkpt>
      <trkpt lat="49.23228" lon="-0.27689">
        <ele>2</ele>
        <time>2023-05-04T09:21:29Z</time>
      </trkpt>
      <trkpt lat="49.23222" lon="-0.27695">
        <ele>2</ele>
        <time>2023-05-04T09:21:30Z</time>
      </trkpt>
      <trkpt lat="49.23217" lon="-0.277">
        <ele>2.2</ele>
        <time>2023-05-04T09:21:31Z</time>
      </trkpt>
      <trkpt lat="49.23212" lon="-0.27705">
        <ele>2.2</ele>
        <time>2023-05-04T09:21:32Z</time>
      </trkpt>
      <trkpt lat="49.23207" lon="-0.27711">
        <ele>2.2</ele>
        <time>2023-05-04T09:21:33Z</time>
      </trkpt>
      <trkpt lat="49.23201" lon="-0.27716">
        <ele>2.2</ele>
        <time>2023-05-04T09:21:34Z</time>
      </trkpt>
      <trkpt lat="49.23196" lon="-0.27722">
        <ele>2.4</ele>
        <time>2023-05-04T09:21:35Z</time>
      </trkpt>
      <trkpt lat="49.23191" lon="-0.27727">
        <ele>2.6</ele>
        <time>2023-05-04T09:21:36Z</time>
      </trkpt>
      <trkpt lat="49.23186" lon="-0.27733">
        <ele>2.6</ele>
        <time>2023-05-04T09:21:37Z</time>
      </trkpt>
      <trkpt lat="49.2318" lon="-0.27738">
        <ele>2.8</ele>
        <time>2023-05-04T09:21:38Z</time>
      </trkpt>
      <trkpt lat="49.23175" lon="-0.27744">
        <ele>2.8</ele>
        <time>2023-05-04T09:21:39Z</time>
      </trkpt>
      <trkpt lat="49.2317" lon="-0.27749">
        <ele>3</ele>
        <time>2023-05-04T09:21:40Z</time>
      </trkpt>
      <trkpt lat="49.23164" lon="-0.27755">
        <ele>3</ele>
        <time>2023-05-04T09:21:41Z</time>
      </trkpt>
      <trkpt lat="49.23159" lon="-0.2776">
        <ele>3</ele>
        <time>2023-05-04T09:21:42Z</time>
      </trkpt>
      <trkpt lat="49.23154" lon="-0.27765">
        <ele>2.8</ele>
        <time>2023-05-04T09:21:43Z</time>
      </trkpt>
      <trkpt lat="49.23148" lon="-0.27771">
        <ele>2.8</ele>
        <time>2023-05-04T09:21:44Z</time>
      </trkpt>
      <trkpt lat="49.23143" lon="-0.27777">
        <ele>2.6</ele>
        <time>2023-05-04T09:21:45Z</time>
      </trkpt>
      <trkpt lat="49.23138" lon="-0.27782">
        <ele>2.6</ele>
        <time>2023-05-04T09:21:46Z</time>
      </trkpt>
      <trkpt lat="49.23132" lon="-0.27787">
        <ele>2.4</ele>
        <time>2023-05-04T09:21:47Z</time>
      </trkpt>
      <trkpt lat="49.23127" lon="-0.27793">
        <ele>2.2</ele>
        <time>2023-05-04T09:21:48Z</time>
      </trkpt>
      <trkpt lat="49.23122" lon="-0.27798">
        <ele>2</ele>
        <time>2023-05-04T09:21:49Z</time>
      </trkpt>
      <trkpt lat="49.23117" lon="-0.27804">
        <ele>2</ele>
        <time>2023-05-04T09:21:50Z</time>
      </trkpt>
      <trkpt lat="49.23111" lon="-0.27809">
        <ele>1.8</ele>
        <time>2023-05-04T09:21:51Z</time>
      </trkpt>
      <trkpt lat="49.23106" lon="-0.27815">
        <ele>1.8</ele>
        <time>2023-05-04T09:21:52Z</time>
      </trkpt>
      <trkpt lat="49.23101" lon="-0.2782">
        <ele>1.6</ele>
        <time>2023-05-04T09:21:53Z</time>
      </trkpt>
      <trkpt lat="49.23095" lon="-0.27826">
        <ele>1.2</ele>
        <time>2023-05-04T09:21:54Z</time>
      </trkpt>
      <trkpt lat="49.2309" lon="-0.27831">
        <ele>1.2</ele>
        <time>2023-05-04T09:21:55Z</time>
      </trkpt>
      <trkpt lat="49.23084" lon="-0.27837">
        <ele>1.2</ele>
        <time>2023-05-04T09:21:56Z</time>
      </trkpt>
      <trkpt lat="49.23079" lon="-0.27842">
        <ele>1.2</ele>
        <time>2023-05-04T09:21:57Z</time>
      </trkpt>
      <trkpt lat="49.23074" lon="-0.27848">
        <ele>1.2</ele>
        <time>2023-05-04T09:21:58Z</time>
      </trkpt>
      <trkpt lat="49.23068" lon="-0.27854">
        <ele>1.4</ele>
        <time>2023-05-04T09:21:59Z</time>
      </trkpt>
      <trkpt lat="49.23063" lon="-0.27859">
        <ele>1.6</ele>
        <time>2023-05-04T09:22:00Z</time>
      </trkpt>
      <trkpt lat="49.23057" lon="-0.27865">
        <ele>1.6</ele>
        <time>2023-05-04T09:22:01Z</time>
      </trkpt>
      <trkpt lat="49.23052" lon="-0.27871">
        <ele>1.8</ele>
        <time>2023-05-04T09:22:02Z</time>
      </trkpt>
      <trkpt lat="49.23046" lon="-0.27876">
        <ele>1.8</ele>
        <time>2023-05-04T09:22:03Z</time>
      </trkpt>
      <trkpt lat="49.23041" lon="-0.27882">
        <ele>1.8</ele>
        <time>2023-05-04T09:22:04Z</time>
      </trkpt>
      <trkpt lat="49.23035" lon="-0.27888">
        <ele>1.8</ele>
        <time>2023-05-04T09:22:05Z</time>
      </trkpt>
      <trkpt lat="49.2303" lon="-0.27893">
        <ele>2</ele>
        <time>2023-05-04T09:22:06Z</time>
      </trkpt>
      <trkpt lat="49.23024" lon="-0.27899">
        <ele>2</ele>
        <time>2023-05-04T09:22:07Z</time>
      </trkpt>
      <trkpt lat="49.23019" lon="-0.27905">
        <ele>2</ele>
        <time>2023-05-04T09:22:08Z</time>
      </trkpt>
      <trkpt lat="49.23013" lon="-0.2791">
        <ele>2</ele>
        <time>2023-05-04T09:22:09Z</time>
      </trkpt>
      <trkpt lat="49.23008" lon="-0.27916">
        <ele>2</ele>
        <time>2023-05-04T09:22:10Z</time>
      </trkpt>
      <trkpt lat="49.23003" lon="-0.27922">
        <ele>2.2</ele>
        <time>2023-05-04T09:22:11Z</time>
      </trkpt>
      <trkpt lat="49.22997" lon="-0.27927">
        <ele>2.4</ele>
        <time>2023-05-04T09:22:12Z</time>
      </trkpt>
      <trkpt lat="49.22992" lon="-0.27933">
        <ele>2.6</ele>
        <time>2023-05-04T09:22:13Z</time>
      </trkpt>
      <trkpt lat="49.22986" lon="-0.27939">
        <ele>2.8</ele>
        <time>2023-05-04T09:22:14Z</time>
      </trkpt>
      <trkpt lat="49.22981" lon="-0.27944">
        <ele>2.8</ele>
        <time>2023-05-04T09:22:15Z</time>
      </trkpt>
      <trkpt lat="49.22976" lon="-0.2795">
        <ele>2.8</ele>
        <time>2023-05-04T09:22:16Z</time>
      </trkpt>
      <trkpt lat="49.2297" lon="-0.27955">
        <ele>3</ele>
        <time>2023-05-04T09:22:17Z</time>
      </trkpt>
      <trkpt lat="49.22965" lon="-0.27961">
        <ele>3</ele>
        <time>2023-05-04T09:22:18Z</time>
      </trkpt>
      <trkpt lat="49.22959" lon="-0.27967">
        <ele>3</ele>
        <time>2023-05-04T09:22:19Z</time>
      </trkpt>
      <trkpt lat="49.22954" lon="-0.27972">
        <ele>3</ele>
        <time>2023-05-04T09:22:20Z</time>
      </trkpt>
      <trkpt lat="49.22948" lon="-0.27978">
        <ele>2.8</ele>
        <time>2023-05-04T09:22:21Z</time>
      </trkpt>
      <trkpt lat="49.22943" lon="-0.27984">
        <ele>2.8</ele>
        <time>2023-05-04T09:22:22Z</time>
      </trkpt>
      <trkpt lat="49.22937" lon="-0.27989">
        <ele>2.6</ele>
        <time>2023-05-04T09:22:23Z</time>
      </trkpt>
      <trkpt lat="49.22931" lon="-0.27995">
        <ele>2.6</ele>
        <time>2023-05-04T09:22:24Z</time>
      </trkpt>
      <trkpt lat="49.22926" lon="-0.28001">
        <ele>2.2</ele>
        <time>2023-05-04T09:22:25Z</time>
      </trkpt>
      <trkpt lat="49.2292" lon="-0.28007">
        <ele>2.2</ele>
        <time>2023-05-04T09:22:26Z</time>
      </trkpt>
      <trkpt lat="49.22915" lon="-0.28012">
        <ele>2.2</ele>
        <time>2023-05-04T09:22:27Z</time>
      </trkpt>
      <trkpt lat="49.22909" lon="-0.28018">
        <ele>2.2</ele>
        <time>2023-05-04T09:22:28Z</time>
      </trkpt>
      <trkpt lat="49.22904" lon="-0.28024">
        <ele>2.6</ele>
        <time>2023-05-04T09:22:29Z</time>
      </trkpt>
      <trkpt lat="49.22898" lon="-0.2803">
        <ele>2.8</ele>
        <time>2023-05-04T09:22:30Z</time>
      </trkpt>
      <trkpt lat="49.22892" lon="-0.28035">
        <ele>2.8</ele>
        <time>2023-05-04T09:22:31Z</time>
      </trkpt>
      <trkpt lat="49.22887" lon="-0.28041">
        <ele>3</ele>
        <time>2023-05-04T09:22:32Z</time>
      </trkpt>
      <trkpt lat="49.22881" lon="-0.28047">
        <ele>3.2</ele>
        <time>2023-05-04T09:22:33Z</time>
      </trkpt>
      <trkpt lat="49.22875" lon="-0.28053">
        <ele>3.6</ele>
        <time>2023-05-04T09:22:34Z</time>
      </trkpt>
      <trkpt lat="49.22869" lon="-0.28059">
        <ele>3.8</ele>
        <time>2023-05-04T09:22:35Z</time>
      </trkpt>
      <trkpt lat="49.22863" lon="-0.28065">
        <ele>4</ele>
        <time>2023-05-04T09:22:36Z</time>
      </trkpt>
      <trkpt lat="49.22858" lon="-0.28071">
        <ele>4.2</ele>
        <time>2023-05-04T09:22:37Z</time>
      </trkpt>
      <trkpt lat="49.22852" lon="-0.28077">
        <ele>4.4</ele>
        <time>2023-05-04T09:22:38Z</time>
      </trkpt>
      <trkpt lat="49.22846" lon="-0.28083">
        <ele>4.6</ele>
        <time>2023-05-04T09:22:39Z</time>
      </trkpt>
      <trkpt lat="49.2284" lon="-0.28089">
        <ele>4.8</ele>
        <time>2023-05-04T09:22:40Z</time>
      </trkpt>
      <trkpt lat="49.22834" lon="-0.28095">
        <ele>5</ele>
        <time>2023-05-04T09:22:41Z</time>
      </trkpt>
      <trkpt lat="49.22829" lon="-0.281">
        <ele>5</ele>
        <time>2023-05-04T09:22:42Z</time>
      </trkpt>
      <trkpt lat="49.22823" lon="-0.28106">
        <ele>5</ele>
        <time>2023-05-04T09:22:43Z</time>
      </trkpt>
      <trkpt lat="49.22817" lon="-0.28112">
        <ele>5</ele>
        <time>2023-05-04T09:22:44Z</time>
      </trkpt>
      <trkpt lat="49.22811" lon="-0.28118">
        <ele>5</ele>
        <time>2023-05-04T09:22:45Z</time>
      </trkpt>
      <trkpt lat="49.22806" lon="-0.28124">
        <ele>4.8</ele>
        <time>2023-05-04T09:22:46Z</time>
      </trkpt>
      <trkpt lat="49.228" lon="-0.2813">
        <ele>4.8</ele>
        <time>2023-05-04T09:22:47Z</time>
      </trkpt>
      <trkpt lat="49.22794" lon="-0.28136">
        <ele>4.6</ele>
        <time>2023-05-04T09:22:48Z</time>
      </trkpt>
      <trkpt lat="49.22789" lon="-0.28142">
        <ele>4.6</ele>
        <time>2023-05-04T09:22:49Z</time>
      </trkpt>
      <trkpt lat="49.22783" lon="-0.28147">
        <ele>4.6</ele>
        <time>2023-05-04T09:22:50Z</time>
      </trkpt>
      <trkpt lat="49.22777" lon="-0.28153">
        <ele>4.4</ele>
        <time>2023-05-04T09:22:51Z</time>
      </trkpt>
      <trkpt lat="49.22772" lon="-0.28159">
        <ele>4.4</ele>
        <time>2023-05-04T09:22:52Z</time>
      </trkpt>
      <trkpt lat="49.22766" lon="-0.28165">
        <ele>4.2</ele>
        <time>2023-05-04T09:22:53Z</time>
      </trkpt>
      <trkpt lat="49.2276" lon="-0.28171">
        <ele>4</ele>
        <time>2023-05-04T09:22:54Z</time>
      </trkpt>
      <trkpt lat="49.22754" lon="-0.28177">
        <ele>3.8</ele>
        <time>2023-05-04T09:22:55Z</time>
      </trkpt>
      <trkpt lat="49.22749" lon="-0.28183">
        <ele>3.8</ele>
        <time>2023-05-04T09:22:56Z</time>
      </trkpt>
      <trkpt lat="49.22743" lon="-0.28189">
        <ele>3.8</ele>
        <time>2023-05-04T09:22:57Z</time>
      </trkpt>
      <trkpt lat="49.22737" lon="-0.28195">
        <ele>3.8</ele>
        <time>2023-05-04T09:22:58Z</time>
      </trkpt>
      <trkpt lat="49.22732" lon="-0.28201">
        <ele>3.8</ele>
        <time>2023-05-04T09:22:59Z</time>
      </trkpt>
      <trkpt lat="49.22726" lon="-0.28207">
        <ele>4</ele>
        <time>2023-05-04T09:23:00Z</time>
      </trkpt>
      <trkpt lat="49.2272" lon="-0.28213">
        <ele>4</ele>
        <time>2023-05-04T09:23:01Z</time>
      </trkpt>
      <trkpt lat="49.22715" lon="-0.28219">
        <ele>4</ele>
        <time>2023-05-04T09:23:02Z</time>
      </trkpt>
      <trkpt lat="49.22709" lon="-0.28225">
        <ele>4</ele>
        <time>2023-05-04T09:23:03Z</time>
      </trkpt>
      <trkpt lat="49.22703" lon="-0.28231">
        <ele>4</ele>
        <time>2023-05-04T09:23:04Z</time>
      </trkpt>
      <trkpt lat="49.22698" lon="-0.28237">
        <ele>4.2</ele>
        <time>2023-05-04T09:23:05Z</time>
      </trkpt>
      <trkpt lat="49.22692" lon="-0.28243">
        <ele>4.2</ele>
        <time>2023-05-04T09:23:06Z</time>
      </trkpt>
      <trkpt lat="49.22687" lon="-0.28249">
        <ele>4.4</ele>
        <time>2023-05-04T09:23:07Z</time>
      </trkpt>
      <trkpt lat="49.22681" lon="-0.28255">
        <ele>4.6</ele>
        <time>2023-05-04T09:23:08Z</time>
      </trkpt>
      <trkpt lat="49.22676" lon="-0.28261">
        <ele>4.6</ele>
        <time>2023-05-04T09:23:09Z</time>
      </trkpt>
      <trkpt lat="49.22671" lon="-0.28267">
        <ele>5</ele>
        <time>2023-05-04T09:23:10Z</time>
      </trkpt>
      <trkpt lat="49.22666" lon="-0.28273">
        <ele>5</ele>
        <time>2023-05-04T09:23:11Z</time>
      </trkpt>
      <trkpt lat="49.22661" lon="-0.28278">
        <ele>5</ele>
        <time>2023-05-04T09:23:12Z</time>
      </trkpt>
      <trkpt lat="49.22656" lon="-0.28284">
        <ele>5</ele>
        <time>2023-05-04T09:23:13Z</time>
      </trkpt>
      <trkpt lat="49.22651" lon="-0.28289">
        <ele>5</ele>
        <time>2023-05-04T09:23:14Z</time>
      </trkpt>
      <trkpt lat="49.22646" lon="-0.28295">
        <ele>5</ele>
        <time>2023-05-04T09:23:15Z</time>
      </trkpt>
      <trkpt lat="49.22641" lon="-0.283">
        <ele>5.2</ele>
        <time>2023-05-04T09:23:16Z</time>
      </trkpt>
      <trkpt lat="49.22636" lon="-0.28306">
        <ele>5.2</ele>
        <time>2023-05-04T09:23:17Z</time>
      </trkpt>
      <trkpt lat="49.22631" lon="-0.28312">
        <ele>5.4</ele>
        <time>2023-05-04T09:23:18Z</time>
      </trkpt>
      <trkpt lat="49.22625" lon="-0.28317">
        <ele>5.4</ele>
        <time>2023-05-04T09:23:19Z</time>
      </trkpt>
      <trkpt lat="49.2262" lon="-0.28323">
        <ele>5.6</ele>
        <time>2023-05-04T09:23:20Z</time>
      </trkpt>
      <trkpt lat="49.22615" lon="-0.28328">
        <ele>5.6</ele>
        <time>2023-05-04T09:23:21Z</time>
      </trkpt>
      <trkpt lat="49.2261" lon="-0.28334">
        <ele>5.6</ele>
        <time>2023-05-04T09:23:22Z</time>
      </trkpt>
      <trkpt lat="49.22604" lon="-0.28339">
        <ele>5.8</ele>
        <time>2023-05-04T09:23:23Z</time>
      </trkpt>
      <trkpt lat="49.22599" lon="-0.28345">
        <ele>6</ele>
        <time>2023-05-04T09:23:24Z</time>
      </trkpt>
      <trkpt lat="49.22594" lon="-0.2835">
        <ele>6</ele>
        <time>2023-05-04T09:23:25Z</time>
      </trkpt>
      <trkpt lat="49.22588" lon="-0.28356">
        <ele>6.2</ele>
        <time>2023-05-04T09:23:26Z</time>
      </trkpt>
      <trkpt lat="49.22583" lon="-0.28361">
        <ele>6.4</ele>
        <time>2023-05-04T09:23:27Z</time>
      </trkpt>
      <trkpt lat="49.22578" lon="-0.28367">
        <ele>6.4</ele>
        <time>2023-05-04T09:23:28Z</time>
      </trkpt>
      <trkpt lat="49.22572" lon="-0.28372">
        <ele>6.4</ele>
        <time>2023-05-04T09:23:29Z</time>
      </trkpt>
      <trkpt lat="49.22567" lon="-0.28378">
        <ele>6.4</ele>
        <time>2023-05-04T09:23:30Z</time>
      </trkpt>
      <trkpt lat="49.22562" lon="-0.28383">
        <ele>6.6</ele>
        <time>2023-05-04T09:23:31Z</time>
      </trkpt>
      <trkpt lat="49.22556" lon="-0.28389">
        <ele>6.6</ele>
        <time>2023-05-04T09:23:32Z</time>
      </trkpt>
      <trkpt lat="49.22551" lon="-0.28394">
        <ele>6.6</ele>
        <time>2023-05-04T09:23:33Z</time>
      </trkpt>
      <trkpt lat="49.22545" lon="-0.284">
        <ele>6.6</ele>
        <time>2023-05-04T09:23:34Z</time>
      </trkpt>
      <trkpt lat="49.2254" lon="-0.28405">
        <ele>6.8</ele>
        <time>2023-05-04T09:23:35Z</time>
      </trkpt>
      <trkpt lat="49.22535" lon="-0.28411">
        <ele>7</ele>
        <time>2023-05-04T09:23:36Z</time>
      </trkpt>
      <trkpt lat="49.22529" lon="-0.28417">
        <ele>7</ele>
        <time>2023-05-04T09:23:37Z</time>
      </trkpt>
      <trkpt lat="49.22524" lon="-0.28422">
        <ele>7</ele>
        <time>2023-05-04T09:23:38Z</time>
      </trkpt>
      <trkpt lat="49.22518" lon="-0.28428">
        <ele>7</ele>
        <time>2023-05-04T09:23:39Z</time>
      </trkpt>
      <trkpt lat="49.22513" lon="-0.28434">
        <ele>7</ele>
        <time>2023-05-04T09:23:40Z</time>
      </trkpt>
      <trkpt lat="49.22508" lon="-0.2844">
        <ele>7</ele>
        <time>2023-05-04T09:23:41Z</time>
      </trkpt>
      <trkpt lat="49.22502" lon="-0.28446">
        <ele>7</ele>
        <time>2023-05-04T09:23:42Z</time>
      </trkpt>
      <trkpt lat="49.22497" lon="-0.28452">
        <ele>7</ele>
        <time>2023-05-04T09:23:43Z</time>
      </trkpt>
      <trkpt lat="49.22491" lon="-0.28458">
        <ele>7</ele>
        <time>2023-05-04T09:23:44Z</time>
      </trkpt>
      <trkpt lat="49.22486" lon="-0.28464">
        <ele>7</ele>
        <time>2023-05-04T09:23:45Z</time>
      </trkpt>
      <trkpt lat="49.22481" lon="-0.28471">
        <ele>6.8</ele>
        <time>2023-05-04T09:23:46Z</time>
      </trkpt>
      <trkpt lat="49.22475" lon="-0.28477">
        <ele>6.8</ele>
        <time>2023-05-04T09:23:47Z</time>
      </trkpt>
      <trkpt lat="49.2247" lon="-0.28483">
        <ele>6.6</ele>
        <time>2023-05-04T09:23:48Z</time>
      </trkpt>
      <trkpt lat="49.22465" lon="-0.28489">
        <ele>6.6</ele>
        <time>2023-05-04T09:23:49Z</time>
      </trkpt>
      <trkpt lat="49.22459" lon="-0.28496">
        <ele>6.6</ele>
        <time>2023-05-04T09:23:50Z</time>
      </trkpt>
      <trkpt lat="49.22454" lon="-0.28502">
        <ele>6.4</ele>
        <time>2023-05-04T09:23:51Z</time>
      </trkpt>
      <trkpt lat="49.22449" lon="-0.28509">
        <ele>6</ele>
        <time>2023-05-04T09:23:52Z</time>
      </trkpt>
      <trkpt lat="49.22444" lon="-0.28515">
        <ele>6</ele>
        <time>2023-05-04T09:23:53Z</time>
      </trkpt>
      <trkpt lat="49.22438" lon="-0.28521">
        <ele>5.6</ele>
        <time>2023-05-04T09:23:54Z</time>
      </trkpt>
      <trkpt lat="49.22433" lon="-0.28528">
        <ele>5.6</ele>
        <time>2023-05-04T09:23:55Z</time>
      </trkpt>
      <trkpt lat="49.22428" lon="-0.28534">
        <ele>5.4</ele>
        <time>2023-05-04T09:23:56Z</time>
      </trkpt>
      <trkpt lat="49.22424" lon="-0.28541">
        <ele>5</ele>
        <time>2023-05-04T09:23:57Z</time>
      </trkpt>
      <trkpt lat="49.22419" lon="-0.28548">
        <ele>5</ele>
        <time>2023-05-04T09:23:58Z</time>
      </trkpt>
      <trkpt lat="49.22414" lon="-0.28554">
        <ele>4.6</ele>
        <time>2023-05-04T09:23:59Z</time>
      </trkpt>
      <trkpt lat="49.22409" lon="-0.28561">
        <ele>4.6</ele>
        <time>2023-05-04T09:24:00Z</time>
      </trkpt>
      <trkpt lat="49.22405" lon="-0.28568">
        <ele>4.4</ele>
        <time>2023-05-04T09:24:01Z</time>
      </trkpt>
      <trkpt lat="49.224" lon="-0.28575">
        <ele>4.2</ele>
        <time>2023-05-04T09:24:02Z</time>
      </trkpt>
      <trkpt lat="49.22396" lon="-0.28582">
        <ele>4</ele>
        <time>2023-05-04T09:24:03Z</time>
      </trkpt>
      <trkpt lat="49.22392" lon="-0.28589">
        <ele>4</ele>
        <time>2023-05-04T09:24:04Z</time>
      </trkpt>
      <trkpt lat="49.22387" lon="-0.28596">
        <ele>4</ele>
        <time>2023-05-04T09:24:05Z</time>
      </trkpt>
      <trkpt lat="49.22383" lon="-0.28603">
        <ele>4.2</ele>
        <time>2023-05-04T09:24:06Z</time>
      </trkpt>
      <trkpt lat="49.22378" lon="-0.2861">
        <ele>4.4</ele>
        <time>2023-05-04T09:24:07Z</time>
      </trkpt>
      <trkpt lat="49.22374" lon="-0.28618">
        <ele>4.4</ele>
        <time>2023-05-04T09:24:08Z</time>
      </trkpt>
      <trkpt lat="49.22369" lon="-0.28625">
        <ele>4.6</ele>
        <time>2023-05-04T09:24:09Z</time>
      </trkpt>
      <trkpt lat="49.22365" lon="-0.28633">
        <ele>4.6</ele>
        <time>2023-05-04T09:24:10Z</time>
      </trkpt>
      <trkpt lat="49.2236" lon="-0.28641">
        <ele>5</ele>
        <time>2023-05-04T09:24:11Z</time>
      </trkpt>
      <trkpt lat="49.22356" lon="-0.28648">
        <ele>5</ele>
        <time>2023-05-04T09:24:12Z</time>
      </trkpt>
      <trkpt lat="49.22351" lon="-0.28656">
        <ele>5.4</ele>
        <time>2023-05-04T09:24:13Z</time>
      </trkpt>
      <trkpt lat="49.22347" lon="-0.28664">
        <ele>5.6</ele>
        <time>2023-05-04T09:24:14Z</time>
      </trkpt>
      <trkpt lat="49.22342" lon="-0.28671">
        <ele>5.6</ele>
        <time>2023-05-04T09:24:15Z</time>
      </trkpt>
      <trkpt lat="49.22338" lon="-0.28679">
        <ele>5.8</ele>
        <time>2023-05-04T09:24:16Z</time>
      </trkpt>
      <trkpt lat="49.22333" lon="-0.28687">
        <ele>5.8</ele>
        <time>2023-05-04T09:24:17Z</time>
      </trkpt>
      <trkpt lat="49.22329" lon="-0.28694">
        <ele>5.6</ele>
        <time>2023-05-04T09:24:18Z</time>
      </trkpt>
      <trkpt lat="49.22324" lon="-0.28702">
        <ele>5.6</ele>
        <time>2023-05-04T09:24:19Z</time>
      </trkpt>
      <trkpt lat="49.22319" lon="-0.2871">
        <ele>5.4</ele>
        <time>2023-05-04T09:24:20Z</time>
      </trkpt>
      <trkpt lat="49.22315" lon="-0.28718">
        <ele>5.4</ele>
        <time>2023-05-04T09:24:21Z</time>
      </trkpt>
      <trkpt lat="49.2231" lon="-0.28726">
        <ele>5.2</ele>
        <time>2023-05-04T09:24:22Z</time>
      </trkpt>
      <trkpt lat="49.22305" lon="-0.28734">
        <ele>5</ele>
        <time>2023-05-04T09:24:23Z</time>
      </trkpt>
      <trkpt lat="49.22301" lon="-0.28742">
        <ele>5</ele>
        <time>2023-05-04T09:24:24Z</time>
      </trkpt>
      <trkpt lat="49.22296" lon="-0.28749">
        <ele>5</ele>
        <time>2023-05-04T09:24:25Z</time>
      </trkpt>
      <trkpt lat="49.22291" lon="-0.28757">
        <ele>5</ele>
        <time>2023-05-04T09:24:26Z</time>
      </trkpt>
      <trkpt lat="49.22286" lon="-0.28766">
        <ele>4.8</ele>
        <time>2023-05-04T09:24:27Z</time>
      </trkpt>
      <trkpt lat="49.22281" lon="-0.28773">
        <ele>4.6</ele>
        <time>2023-05-04T09:24:28Z</time>
      </trkpt>
      <trkpt lat="49.22276" lon="-0.28782">
        <ele>4.6</ele>
        <time>2023-05-04T09:24:29Z</time>
      </trkpt>
      <trkpt lat="49.22272" lon="-0.28789">
        <ele>4.6</ele>
        <time>2023-05-04T09:24:30Z</time>
      </trkpt>
      <trkpt lat="49.22267" lon="-0.28797">
        <ele>4.4</ele>
        <time>2023-05-04T09:24:31Z</time>
      </trkpt>
      <trkpt lat="49.22262" lon="-0.28805">
        <ele>4.4</ele>
        <time>2023-05-04T09:24:32Z</time>
      </trkpt>
      <trkpt lat="49.22257" lon="-0.28813">
        <ele>4.2</ele>
        <time>2023-05-04T09:24:33Z</time>
      </trkpt>
      <trkpt lat="49.22253" lon="-0.28821">
        <ele>4</ele>
        <time>2023-05-04T09:24:34Z</time>
      </trkpt>
      <trkpt lat="49.22248" lon="-0.28829">
        <ele>4</ele>
        <time>2023-05-04T09:24:35Z</time>
      </trkpt>
      <trkpt lat="49.22244" lon="-0.28837">
        <ele>4</ele>
        <time>2023-05-04T09:24:36Z</time>
      </trkpt>
      <trkpt lat="49.22239" lon="-0.28845">
        <ele>4</ele>
        <time>2023-05-04T09:24:37Z</time>
      </trkpt>
      <trkpt lat="49.22234" lon="-0.28852">
        <ele>4</ele>
        <time>2023-05-04T09:24:38Z</time>
      </trkpt>
      <trkpt lat="49.2223" lon="-0.2886">
        <ele>3.8</ele>
        <time>2023-05-04T09:24:39Z</time>
      </trkpt>
      <trkpt lat="49.22225" lon="-0.28868">
        <ele>3.8</ele>
        <time>2023-05-04T09:24:40Z</time>
      </trkpt>
      <trkpt lat="49.22221" lon="-0.28875">
        <ele>3.8</ele>
        <time>2023-05-04T09:24:41Z</time>
      </trkpt>
      <trkpt lat="49.22216" lon="-0.28883">
        <ele>3.8</ele>
        <time>2023-05-04T09:24:42Z</time>
      </trkpt>
      <trkpt lat="49.22212" lon="-0.2889">
        <ele>4</ele>
        <time>2023-05-04T09:24:43Z</time>
      </trkpt>
      <trkpt lat="49.22207" lon="-0.28897">
        <ele>4</ele>
        <time>2023-05-04T09:24:44Z</time>
      </trkpt>
      <trkpt lat="49.22203" lon="-0.28905">
        <ele>4</ele>
        <time>2023-05-04T09:24:45Z</time>
      </trkpt>
      <trkpt lat="49.22198" lon="-0.28913">
        <ele>4</ele>
        <time>2023-05-04T09:24:46Z</time>
      </trkpt>
      <trkpt lat="49.22194" lon="-0.2892">
        <ele>4</ele>
        <time>2023-05-04T09:24:47Z</time>
      </trkpt>
      <trkpt lat="49.2219" lon="-0.28928">
        <ele>4</ele>
        <time>2023-05-04T09:24:48Z</time>
      </trkpt>
      <trkpt lat="49.22185" lon="-0.28936">
        <ele>4</ele>
        <time>2023-05-04T09:24:49Z</time>
      </trkpt>
      <trkpt lat="49.22181" lon="-0.28944">
        <ele>4</ele>
        <time>2023-05-04T09:24:50Z</time>
      </trkpt>
      <trkpt lat="49.22176" lon="-0.28951">
        <ele>4</ele>
        <time>2023-05-04T09:24:51Z</time>
      </trkpt>
      <trkpt lat="49.22172" lon="-0.28959">
        <ele>4</ele>
        <time>2023-05-04T09:24:52Z</time>
      </trkpt>
      <trkpt lat="49.22168" lon="-0.28966">
        <ele>4</ele>
        <time>2023-05-04T09:24:53Z</time>
      </trkpt>
      <trkpt lat="49.22163" lon="-0.28974">
        <ele>4</ele>
        <time>2023-05-04T09:24:54Z</time>
      </trkpt>
      <trkpt lat="49.22158" lon="-0.28981">
        <ele>4</ele>
        <time>2023-05-04T09:24:55Z</time>
      </trkpt>
      <trkpt lat="49.22154" lon="-0.28989">
        <ele>4</ele>
        <time>2023-05-04T09:24:56Z</time>
      </trkpt>
      <trkpt lat="49.22149" lon="-0.28996">
        <ele>3.8</ele>
        <time>2023-05-04T09:24:57Z</time>
      </trkpt>
      <trkpt lat="49.22145" lon="-0.29003">
        <ele>3.8</ele>
        <time>2023-05-04T09:24:58Z</time>
      </trkpt>
      <trkpt lat="49.22141" lon="-0.29011">
        <ele>3.6</ele>
        <time>2023-05-04T09:24:59Z</time>
      </trkpt>
      <trkpt lat="49.22136" lon="-0.29018">
        <ele>3.4</ele>
        <time>2023-05-04T09:25:00Z</time>
      </trkpt>
      <trkpt lat="49.22132" lon="-0.29026">
        <ele>3.2</ele>
        <time>2023-05-04T09:25:01Z</time>
      </trkpt>
      <trkpt lat="49.22128" lon="-0.29033">
        <ele>3</ele>
        <time>2023-05-04T09:25:02Z</time>
      </trkpt>
      <trkpt lat="49.22123" lon="-0.29041">
        <ele>3</ele>
        <time>2023-05-04T09:25:03Z</time>
      </trkpt>
      <trkpt lat="49.22119" lon="-0.29048">
        <ele>3</ele>
        <time>2023-05-04T09:25:04Z</time>
      </trkpt>
      <trkpt lat="49.22114" lon="-0.29055">
        <ele>2.8</ele>
        <time>2023-05-04T09:25:05Z</time>
      </trkpt>
      <trkpt lat="49.2211" lon="-0.29063">
        <ele>2.6</ele>
        <time>2023-05-04T09:25:06Z</time>
      </trkpt>
      <trkpt lat="49.22106" lon="-0.2907">
        <ele>2.4</ele>
        <time>2023-05-04T09:25:07Z</time>
      </trkpt>
      <trkpt lat="49.22101" lon="-0.29078">
        <ele>2.2</ele>
        <time>2023-05-04T09:25:08Z</time>
      </trkpt>
      <trkpt lat="49.22097" lon="-0.29085">
        <ele>2.2</ele>
        <time>2023-05-04T09:25:09Z</time>
      </trkpt>
      <trkpt lat="49.22092" lon="-0.29092">
        <ele>2.2</ele>
        <time>2023-05-04T09:25:10Z</time>
      </trkpt>
      <trkpt lat="49.22088" lon="-0.291">
        <ele>2.2</ele>
        <time>2023-05-04T09:25:11Z</time>
      </trkpt>
      <trkpt lat="49.22083" lon="-0.29107">
        <ele>2.2</ele>
        <time>2023-05-04T09:25:12Z</time>
      </trkpt>
      <trkpt lat="49.22079" lon="-0.29115">
        <ele>2.6</ele>
        <time>2023-05-04T09:25:13Z</time>
      </trkpt>
      <trkpt lat="49.22074" lon="-0.29122">
        <ele>2.8</ele>
        <time>2023-05-04T09:25:14Z</time>
      </trkpt>
      <trkpt lat="49.2207" lon="-0.29129">
        <ele>3</ele>
        <time>2023-05-04T09:25:15Z</time>
      </trkpt>
      <trkpt lat="49.22066" lon="-0.29137">
        <ele>3</ele>
        <time>2023-05-04T09:25:16Z</time>
      </trkpt>
      <trkpt lat="49.22061" lon="-0.29144">
        <ele>3</ele>
        <time>2023-05-04T09:25:17Z</time>
      </trkpt>
      <trkpt lat="49.22057" lon="-0.29151">
        <ele>3.2</ele>
        <time>2023-05-04T09:25:18Z</time>
      </trkpt>
      <trkpt lat="49.22053" lon="-0.29158">
        <ele>3.2</ele>
        <time>2023-05-04T09:25:19Z</time>
      </trkpt>
      <trkpt lat="49.22048" lon="-0.29165">
        <ele>3.4</ele>
        <time>2023-05-04T09:25:20Z</time>
      </trkpt>
      <trkpt lat="49.22044" lon="-0.29173">
        <ele>3.6</ele>
        <time>2023-05-04T09:25:21Z</time>
      </trkpt>
      <trkpt lat="49.2204" lon="-0.2918">
        <ele>3.6</ele>
        <time>2023-05-04T09:25:22Z</time>
      </trkpt>
      <trkpt lat="49.22036" lon="-0.29187">
        <ele>3.8</ele>
        <time>2023-05-04T09:25:23Z</time>
      </trkpt>
      <trkpt lat="49.22031" lon="-0.29194">
        <ele>3.8</ele>
        <time>2023-05-04T09:25:24Z</time>
      </trkpt>
      <trkpt lat="49.22027" lon="-0.29201">
        <ele>4</ele>
        <time>2023-05-04T09:25:25Z</time>
      </trkpt>
      <trkpt lat="49.22023" lon="-0.29209">
        <ele>4</ele>
        <time>2023-05-04T09:25:26Z</time>
      </trkpt>
      <trkpt lat="49.22019" lon="-0.29216">
        <ele>4.2</ele>
        <time>2023-05-04T09:25:27Z</time>
      </trkpt>
      <trkpt lat="49.22015" lon="-0.29223">
        <ele>4.4</ele>
        <time>2023-05-04T09:25:28Z</time>
      </trkpt>
      <trkpt lat="49.2201" lon="-0.2923">
        <ele>4.6</ele>
        <time>2023-05-04T09:25:29Z</time>
      </trkpt>
      <trkpt lat="49.22006" lon="-0.29237">
        <ele>4.6</ele>
        <time>2023-05-04T09:25:30Z</time>
      </trkpt>
      <trkpt lat="49.22002" lon="-0.29245">
        <ele>5</ele>
        <time>2023-05-04T09:25:31Z</time>
      </trkpt>
      <trkpt lat="49.21998" lon="-0.29252">
        <ele>5</ele>
        <time>2023-05-04T09:25:32Z</time>
      </trkpt>
      <trkpt lat="49.21993" lon="-0.29259">
        <ele>5</ele>
        <time>2023-05-04T09:25:33Z</time>
      </trkpt>
      <trkpt lat="49.21989" lon="-0.29266">
        <ele>5.2</ele>
        <time>2023-05-04T09:25:34Z</time>
      </trkpt>
      <trkpt lat="49.21985" lon="-0.29273">
        <ele>5.2</ele>
        <time>2023-05-04T09:25:35Z</time>
      </trkpt>
      <trkpt lat="49.21981" lon="-0.2928">
        <ele>5.4</ele>
        <time>2023-05-04T09:25:36Z</time>
      </trkpt>
      <trkpt lat="49.21976" lon="-0.29287">
        <ele>5.4</ele>
        <time>2023-05-04T09:25:37Z</time>
      </trkpt>
      <trkpt lat="49.21972" lon="-0.29294">
        <ele>5.4</ele>
        <time>2023-05-04T09:25:38Z</time>
      </trkpt>
      <trkpt lat="49.21968" lon="-0.29301">
        <ele>5.4</ele>
        <time>2023-05-04T09:25:39Z</time>
      </trkpt>
      <trkpt lat="49.21964" lon="-0.29308">
        <ele>5.4</ele>
        <time>2023-05-04T09:25:40Z</time>
      </trkpt>
      <trkpt lat="49.2196" lon="-0.29314">
        <ele>5.4</ele>
        <time>2023-05-04T09:25:41Z</time>
      </trkpt>
      <trkpt lat="49.21956" lon="-0.29321">
        <ele>5.4</ele>
        <time>2023-05-04T09:25:42Z</time>
      </trkpt>
      <trkpt lat="49.21952" lon="-0.29328">
        <ele>5.4</ele>
        <time>2023-05-04T09:25:43Z</time>
      </trkpt>
      <trkpt lat="49.21948" lon="-0.29335">
        <ele>5.4</ele>
        <time>2023-05-04T09:25:44Z</time>
      </trkpt>
      <trkpt lat="49.21944" lon="-0.29342">
        <ele>5.2</ele>
        <time>2023-05-04T09:25:45Z</time>
      </trkpt>
      <trkpt lat="49.2194" lon="-0.29349">
        <ele>5</ele>
        <time>2023-05-04T09:25:46Z</time>
      </trkpt>
      <trkpt lat="49.21936" lon="-0.29356">
        <ele>5</ele>
        <time>2023-05-04T09:25:47Z</time>
      </trkpt>
      <trkpt lat="49.21933" lon="-0.29362">
        <ele>4.8</ele>
        <time>2023-05-04T09:25:48Z</time>
      </trkpt>
      <trkpt lat="49.2193" lon="-0.29369">
        <ele>4.6</ele>
        <time>2023-05-04T09:25:49Z</time>
      </trkpt>
      <trkpt lat="49.21928" lon="-0.29376">
        <ele>4.6</ele>
        <time>2023-05-04T09:25:50Z</time>
      </trkpt>
      <trkpt lat="49.21925" lon="-0.29383">
        <ele>4.4</ele>
        <time>2023-05-04T09:25:51Z</time>
      </trkpt>
      <trkpt lat="49.21922" lon="-0.2939">
        <ele>4.4</ele>
        <time>2023-05-04T09:25:52Z</time>
      </trkpt>
      <trkpt lat="49.21918" lon="-0.29394">
        <ele>4.4</ele>
        <time>2023-05-04T09:25:53Z</time>
      </trkpt>
      <trkpt lat="49.21913" lon="-0.29395">
        <ele>4.2</ele>
        <time>2023-05-04T09:25:54Z</time>
      </trkpt>
      <trkpt lat="49.21908" lon="-0.29394">
        <ele>4.2</ele>
        <time>2023-05-04T09:25:55Z</time>
      </trkpt>
      <trkpt lat="49.21903" lon="-0.2939">
        <ele>4.2</ele>
        <time>2023-05-04T09:25:56Z</time>
      </trkpt>
      <trkpt lat="49.21899" lon="-0.29385">
        <ele>4.2</ele>
        <time>2023-05-04T09:25:57Z</time>
      </trkpt>
      <trkpt lat="49.21894" lon="-0.29381">
        <ele>4.2</ele>
        <time>2023-05-04T09:25:58Z</time>
      </trkpt>
      <trkpt lat="49.21889" lon="-0.29376">
        <ele>4.2</ele>
        <time>2023-05-04T09:25:59Z</time>
      </trkpt>
      <trkpt lat="49.21884" lon="-0.29371">
        <ele>4</ele>
        <time>2023-05-04T09:26:00Z</time>
      </trkpt>
      <trkpt lat="49.21879" lon="-0.29367">
        <ele>4</ele>
        <time>2023-05-04T09:26:01Z</time>
      </trkpt>
      <trkpt lat="49.21874" lon="-0.29361">
        <ele>4</ele>
        <time>2023-05-04T09:26:02Z</time>
      </trkpt>
      <trkpt lat="49.2187" lon="-0.29356">
        <ele>4</ele>
        <time>2023-05-04T09:26:03Z</time>
      </trkpt>
      <trkpt lat="49.21865" lon="-0.2935">
        <ele>3.8</ele>
        <time>2023-05-04T09:26:04Z</time>
      </trkpt>
      <trkpt lat="49.21861" lon="-0.29344">
        <ele>3.8</ele>
        <time>2023-05-04T09:26:05Z</time>
      </trkpt>
      <trkpt lat="49.21856" lon="-0.29337">
        <ele>3.6</ele>
        <time>2023-05-04T09:26:06Z</time>
      </trkpt>
      <trkpt lat="49.21852" lon="-0.29331">
        <ele>3.6</ele>
        <time>2023-05-04T09:26:07Z</time>
      </trkpt>
      <trkpt lat="49.21847" lon="-0.29326">
        <ele>3.4</ele>
        <time>2023-05-04T09:26:08Z</time>
      </trkpt>
      <trkpt lat="49.21842" lon="-0.2932">
        <ele>3.2</ele>
        <time>2023-05-04T09:26:09Z</time>
      </trkpt>
      <trkpt lat="49.21837" lon="-0.29315">
        <ele>3.2</ele>
        <time>2023-05-04T09:26:10Z</time>
      </trkpt>
      <trkpt lat="49.21831" lon="-0.2931">
        <ele>3.2</ele>
        <time>2023-05-04T09:26:11Z</time>
      </trkpt>
      <trkpt lat="49.21825" lon="-0.29307">
        <ele>3.2</ele>
        <time>2023-05-04T09:26:12Z</time>
      </trkpt>
      <trkpt lat="49.2182" lon="-0.29304">
        <ele>3.2</ele>
        <time>2023-05-04T09:26:13Z</time>
      </trkpt>
      <trkpt lat="49.21814" lon="-0.29303">
        <ele>3.4</ele>
        <time>2023-05-04T09:26:14Z</time>
      </trkpt>
      <trkpt lat="49.21808" lon="-0.29303">
        <ele>3.4</ele>
        <time>2023-05-04T09:26:15Z</time>
      </trkpt>
      <trkpt lat="49.21802" lon="-0.29305">
        <ele>3.2</ele>
        <time>2023-05-04T09:26:16Z</time>
      </trkpt>
      <trkpt lat="49.21796" lon="-0.29307">
        <ele>3.2</ele>
        <time>2023-05-04T09:26:17Z</time>
      </trkpt>
      <trkpt lat="49.21791" lon="-0.2931">
        <ele>3.2</ele>
        <time>2023-05-04T09:26:18Z</time>
      </trkpt>
      <trkpt lat="49.21785" lon="-0.29314">
        <ele>3.2</ele>
        <time>2023-05-04T09:26:19Z</time>
      </trkpt>
      <trkpt lat="49.2178" lon="-0.29317">
        <ele>3.2</ele>
        <time>2023-05-04T09:26:20Z</time>
      </trkpt>
      <trkpt lat="49.21775" lon="-0.29321">
        <ele>3</ele>
        <time>2023-05-04T09:26:21Z</time>
      </trkpt>
      <trkpt lat="49.21769" lon="-0.29325">
        <ele>3</ele>
        <time>2023-05-04T09:26:22Z</time>
      </trkpt>
      <trkpt lat="49.21764" lon="-0.29328">
        <ele>3</ele>
        <time>2023-05-04T09:26:23Z</time>
      </trkpt>
      <trkpt lat="49.21759" lon="-0.29332">
        <ele>3</ele>
        <time>2023-05-04T09:26:24Z</time>
      </trkpt>
      <trkpt lat="49.21754" lon="-0.29336">
        <ele>3</ele>
        <time>2023-05-04T09:26:25Z</time>
      </trkpt>
      <trkpt lat="49.21748" lon="-0.29339">
        <ele>3.2</ele>
        <time>2023-05-04T09:26:26Z</time>
      </trkpt>
      <trkpt lat="49.21743" lon="-0.29343">
        <ele>3.6</ele>
        <time>2023-05-04T09:26:27Z</time>
      </trkpt>
      <trkpt lat="49.21738" lon="-0.29347">
        <ele>3.8</ele>
        <time>2023-05-04T09:26:28Z</time>
      </trkpt>
      <trkpt lat="49.21732" lon="-0.2935">
        <ele>4</ele>
        <time>2023-05-04T09:26:29Z</time>
      </trkpt>
      <trkpt lat="49.21727" lon="-0.29353">
        <ele>4</ele>
        <time>2023-05-04T09:26:30Z</time>
      </trkpt>
      <trkpt lat="49.21722" lon="-0.29357">
        <ele>4.4</ele>
        <time>2023-05-04T09:26:31Z</time>
      </trkpt>
      <trkpt lat="49.21716" lon="-0.2936">
        <ele>4.6</ele>
        <time>2023-05-04T09:26:32Z</time>
      </trkpt>
      <trkpt lat="49.21711" lon="-0.29363">
        <ele>4.6</ele>
        <time>2023-05-04T09:26:33Z</time>
      </trkpt>
      <trkpt lat="49.21706" lon="-0.29366">
        <ele>4.8</ele>
        <time>2023-05-04T09:26:34Z</time>
      </trkpt>
      <trkpt lat="49.217" lon="-0.2937">
        <ele>5</ele>
        <time>2023-05-04T09:26:35Z</time>
      </trkpt>
      <trkpt lat="49.21695" lon="-0.29373">
        <ele>5</ele>
        <time>2023-05-04T09:26:36Z</time>
      </trkpt>
      <trkpt lat="49.21689" lon="-0.29376">
        <ele>5</ele>
        <time>2023-05-04T09:26:37Z</time>
      </trkpt>
      <trkpt lat="49.21684" lon="-0.29379">
        <ele>5.2</ele>
        <time>2023-05-04T09:26:38Z</time>
      </trkpt>
      <trkpt lat="49.21679" lon="-0.29382">
        <ele>5.2</ele>
        <time>2023-05-04T09:26:39Z</time>
      </trkpt>
      <trkpt lat="49.21673" lon="-0.29386">
        <ele>5.4</ele>
        <time>2023-05-04T09:26:40Z</time>
      </trkpt>
      <trkpt lat="49.21668" lon="-0.29389">
        <ele>5.4</ele>
        <time>2023-05-04T09:26:41Z</time>
      </trkpt>
      <trkpt lat="49.21663" lon="-0.29392">
        <ele>5.2</ele>
        <time>2023-05-04T09:26:42Z</time>
      </trkpt>
      <trkpt lat="49.21657" lon="-0.29396">
        <ele>5</ele>
        <time>2023-05-04T09:26:43Z</time>
      </trkpt>
      <trkpt lat="49.21652" lon="-0.29399">
        <ele>5</ele>
        <time>2023-05-04T09:26:44Z</time>
      </trkpt>
      <trkpt lat="49.21647" lon="-0.29402">
        <ele>4.8</ele>
        <time>2023-05-04T09:26:45Z</time>
      </trkpt>
      <trkpt lat="49.21641" lon="-0.29406">
        <ele>4.6</ele>
        <time>2023-05-04T09:26:46Z</time>
      </trkpt>
      <trkpt lat="49.21636" lon="-0.29409">
        <ele>4.4</ele>
        <time>2023-05-04T09:26:47Z</time>
      </trkpt>
      <trkpt lat="49.21631" lon="-0.29412">
        <ele>4.2</ele>
        <time>2023-05-04T09:26:48Z</time>
      </trkpt>
      <trkpt lat="49.21625" lon="-0.29415">
        <ele>4</ele>
        <time>2023-05-04T09:26:49Z</time>
      </trkpt>
      <trkpt lat="49.2162" lon="-0.29419">
        <ele>4</ele>
        <time>2023-05-04T09:26:50Z</time>
      </trkpt>
      <trkpt lat="49.21614" lon="-0.29422">
        <ele>4</ele>
        <time>2023-05-04T09:26:51Z</time>
      </trkpt>
      <trkpt lat="49.21609" lon="-0.29425">
        <ele>3.8</ele>
        <time>2023-05-04T09:26:52Z</time>
      </trkpt>
      <trkpt lat="49.21604" lon="-0.29428">
        <ele>3.8</ele>
        <time>2023-05-04T09:26:53Z</time>
      </trkpt>
      <trkpt lat="49.21598" lon="-0.29432">
        <ele>3.8</ele>
        <time>2023-05-04T09:26:54Z</time>
      </trkpt>
      <trkpt lat="49.21593" lon="-0.29435">
        <ele>3.8</ele>
        <time>2023-05-04T09:26:55Z</time>
      </trkpt>
      <trkpt lat="49.21587" lon="-0.29439">
        <ele>3.6</ele>
        <time>2023-05-04T09:26:56Z</time>
      </trkpt>
      <trkpt lat="49.21582" lon="-0.29442">
        <ele>3.6</ele>
        <time>2023-05-04T09:26:57Z</time>
      </trkpt>
      <trkpt lat="49.21576" lon="-0.29446">
        <ele>3.8</ele>
        <time>2023-05-04T09:26:58Z</time>
      </trkpt>
      <trkpt lat="49.21571" lon="-0.29449">
        <ele>4</ele>
        <time>2023-05-04T09:26:59Z</time>
      </trkpt>
      <trkpt lat="49.21565" lon="-0.29452">
        <ele>4.2</ele>
        <time>2023-05-04T09:27:00Z</time>
      </trkpt>
      <trkpt lat="49.2156" lon="-0.29456">
        <ele>4.4</ele>
        <time>2023-05-04T09:27:01Z</time>
      </trkpt>
      <trkpt lat="49.21554" lon="-0.29459">
        <ele>4.6</ele>
        <time>2023-05-04T09:27:02Z</time>
      </trkpt>
      <trkpt lat="49.21549" lon="-0.29463">
        <ele>4.6</ele>
        <time>2023-05-04T09:27:03Z</time>
      </trkpt>
      <trkpt lat="49.21543" lon="-0.29466">
        <ele>5</ele>
        <time>2023-05-04T09:27:04Z</time>
      </trkpt>
      <trkpt lat="49.21538" lon="-0.29469">
        <ele>5</ele>
        <time>2023-05-04T09:27:05Z</time>
      </trkpt>
      <trkpt lat="49.21532" lon="-0.29473">
        <ele>5.2</ele>
        <time>2023-05-04T09:27:06Z</time>
      </trkpt>
      <trkpt lat="49.21527" lon="-0.29476">
        <ele>5.4</ele>
        <time>2023-05-04T09:27:07Z</time>
      </trkpt>
      <trkpt lat="49.21521" lon="-0.29479">
        <ele>5.4</ele>
        <time>2023-05-04T09:27:08Z</time>
      </trkpt>
      <trkpt lat="49.21516" lon="-0.29483">
        <ele>5.6</ele>
        <time>2023-05-04T09:27:09Z</time>
      </trkpt>
      <trkpt lat="49.2151" lon="-0.29486">
        <ele>5.6</ele>
        <time>2023-05-04T09:27:10Z</time>
      </trkpt>
      <trkpt lat="49.21505" lon="-0.29489">
        <ele>5.8</ele>
        <time>2023-05-04T09:27:11Z</time>
      </trkpt>
      <trkpt lat="49.21499" lon="-0.29493">
        <ele>6</ele>
        <time>2023-05-04T09:27:12Z</time>
      </trkpt>
      <trkpt lat="49.21494" lon="-0.29496">
        <ele>5.8</ele>
        <time>2023-05-04T09:27:13Z</time>
      </trkpt>
      <trkpt lat="49.21488" lon="-0.29499">
        <ele>5.6</ele>
        <time>2023-05-04T09:27:14Z</time>
      </trkpt>
      <trkpt lat="49.21483" lon="-0.29503">
        <ele>5.6</ele>
        <time>2023-05-04T09:27:15Z</time>
      </trkpt>
      <trkpt lat="49.21477" lon="-0.29506">
        <ele>5.6</ele>
        <time>2023-05-04T09:27:16Z</time>
      </trkpt>
      <trkpt lat="49.21472" lon="-0.29509">
        <ele>5.4</ele>
        <time>2023-05-04T09:27:17Z</time>
      </trkpt>
      <trkpt lat="49.21466" lon="-0.29513">
        <ele>5.2</ele>
        <time>2023-05-04T09:27:18Z</time>
      </trkpt>
      <trkpt lat="49.2146" lon="-0.29516">
        <ele>5</ele>
        <time>2023-05-04T09:27:19Z</time>
      </trkpt>
      <trkpt lat="49.21455" lon="-0.29519">
        <ele>5</ele>
        <time>2023-05-04T09:27:20Z</time>
      </trkpt>
      <trkpt lat="49.21449" lon="-0.29523">
        <ele>5</ele>
        <time>2023-05-04T09:27:21Z</time>
      </trkpt>
      <trkpt lat="49.21443" lon="-0.29526">
        <ele>5</ele>
        <time>2023-05-04T09:27:22Z</time>
      </trkpt>
      <trkpt lat="49.21438" lon="-0.2953">
        <ele>4.8</ele>
        <time>2023-05-04T09:27:23Z</time>
      </trkpt>
      <trkpt lat="49.21432" lon="-0.29533">
        <ele>4.6</ele>
        <time>2023-05-04T09:27:24Z</time>
      </trkpt>
      <trkpt lat="49.21427" lon="-0.29536">
        <ele>4.6</ele>
        <time>2023-05-04T09:27:25Z</time>
      </trkpt>
      <trkpt lat="49.21421" lon="-0.2954">
        <ele>4.6</ele>
        <time>2023-05-04T09:27:26Z</time>
      </trkpt>
      <trkpt lat="49.21416" lon="-0.29543">
        <ele>4.6</ele>
        <time>2023-05-04T09:27:27Z</time>
      </trkpt>
      <trkpt lat="49.2141" lon="-0.29546">
        <ele>4.6</ele>
        <time>2023-05-04T09:27:28Z</time>
      </trkpt>
      <trkpt lat="49.21405" lon="-0.2955">
        <ele>4.8</ele>
        <time>2023-05-04T09:27:29Z</time>
      </trkpt>
      <trkpt lat="49.21399" lon="-0.29553">
        <ele>5</ele>
        <time>2023-05-04T09:27:30Z</time>
      </trkpt>
      <trkpt lat="49.21394" lon="-0.29557">
        <ele>5</ele>
        <time>2023-05-04T09:27:31Z</time>
      </trkpt>
      <trkpt lat="49.21388" lon="-0.2956">
        <ele>5</ele>
        <time>2023-05-04T09:27:32Z</time>
      </trkpt>
      <trkpt lat="49.21382" lon="-0.29564">
        <ele>5</ele>
        <time>2023-05-04T09:27:33Z</time>
      </trkpt>
      <trkpt lat="49.21377" lon="-0.29567">
        <ele>5</ele>
        <time>2023-05-04T09:27:34Z</time>
      </trkpt>
      <trkpt lat="49.21371" lon="-0.2957">
        <ele>4.8</ele>
        <time>2023-05-04T09:27:35Z</time>
      </trkpt>
      <trkpt lat="49.21366" lon="-0.29574">
        <ele>4.6</ele>
        <time>2023-05-04T09:27:36Z</time>
      </trkpt>
      <trkpt lat="49.2136" lon="-0.29577">
        <ele>4.6</ele>
        <time>2023-05-04T09:27:37Z</time>
      </trkpt>
      <trkpt lat="49.21355" lon="-0.29581">
        <ele>4.4</ele>
        <time>2023-05-04T09:27:38Z</time>
      </trkpt>
      <trkpt lat="49.21349" lon="-0.29584">
        <ele>4.2</ele>
        <time>2023-05-04T09:27:39Z</time>
      </trkpt>
      <trkpt lat="49.21344" lon="-0.29587">
        <ele>4.4</ele>
        <time>2023-05-04T09:27:40Z</time>
      </trkpt>
      <trkpt lat="49.21338" lon="-0.29591">
        <ele>4.4</ele>
        <time>2023-05-04T09:27:41Z</time>
      </trkpt>
      <trkpt lat="49.21333" lon="-0.29594">
        <ele>4.4</ele>
        <time>2023-05-04T09:27:42Z</time>
      </trkpt>
      <trkpt lat="49.21327" lon="-0.29597">
        <ele>4.6</ele>
        <time>2023-05-04T09:27:43Z</time>
      </trkpt>
      <trkpt lat="49.21322" lon="-0.29601">
        <ele>4.6</ele>
        <time>2023-05-04T09:27:44Z</time>
      </trkpt>
      <trkpt lat="49.21316" lon="-0.29604">
        <ele>4.8</ele>
        <time>2023-05-04T09:27:45Z</time>
      </trkpt>
      <trkpt lat="49.21311" lon="-0.29607">
        <ele>5</ele>
        <time>2023-05-04T09:27:46Z</time>
      </trkpt>
      <trkpt lat="49.21305" lon="-0.29611">
        <ele>5</ele>
        <time>2023-05-04T09:27:47Z</time>
      </trkpt>
      <trkpt lat="49.213" lon="-0.29614">
        <ele>5</ele>
        <time>2023-05-04T09:27:48Z</time>
      </trkpt>
      <trkpt lat="49.21294" lon="-0.29617">
        <ele>5</ele>
        <time>2023-05-04T09:27:49Z</time>
      </trkpt>
      <trkpt lat="49.21289" lon="-0.29621">
        <ele>5.2</ele>
        <time>2023-05-04T09:27:50Z</time>
      </trkpt>
      <trkpt lat="49.21283" lon="-0.29624">
        <ele>5.2</ele>
        <time>2023-05-04T09:27:51Z</time>
      </trkpt>
      <trkpt lat="49.21278" lon="-0.29627">
        <ele>5.2</ele>
        <time>2023-05-04T09:27:52Z</time>
      </trkpt>
      <trkpt lat="49.21273" lon="-0.29631">
        <ele>5.2</ele>
        <time>2023-05-04T09:27:53Z</time>
      </trkpt>
      <trkpt lat="49.21267" lon="-0.29634">
        <ele>5.2</ele>
        <time>2023-05-04T09:27:54Z</time>
      </trkpt>
      <trkpt lat="49.21262" lon="-0.29637">
        <ele>5</ele>
        <time>2023-05-04T09:27:55Z</time>
      </trkpt>
      <trkpt lat="49.21256" lon="-0.29641">
        <ele>5</ele>
        <time>2023-05-04T09:27:56Z</time>
      </trkpt>
      <trkpt lat="49.21251" lon="-0.29644">
        <ele>5</ele>
        <time>2023-05-04T09:27:57Z</time>
      </trkpt>
      <trkpt lat="49.21246" lon="-0.29647">
        <ele>5</ele>
        <time>2023-05-04T09:27:58Z</time>
      </trkpt>
      <trkpt lat="49.2124" lon="-0.29651">
        <ele>5</ele>
        <time>2023-05-04T09:27:59Z</time>
      </trkpt>
      <trkpt lat="49.21235" lon="-0.29654">
        <ele>5</ele>
        <time>2023-05-04T09:28:00Z</time>
      </trkpt>
      <trkpt lat="49.21229" lon="-0.29658">
        <ele>5</ele>
        <time>2023-05-04T09:28:01Z</time>
      </trkpt>
      <trkpt lat="49.21224" lon="-0.29661">
        <ele>5</ele>
        <time>2023-05-04T09:28:02Z</time>
      </trkpt>
      <trkpt lat="49.21219" lon="-0.29665">
        <ele>5</ele>
        <time>2023-05-04T09:28:03Z</time>
      </trkpt>
      <trkpt lat="49.21213" lon="-0.29668">
        <ele>5</ele>
        <time>2023-05-04T09:28:04Z</time>
      </trkpt>
      <trkpt lat="49.21208" lon="-0.29672">
        <ele>5</ele>
        <time>2023-05-04T09:28:05Z</time>
      </trkpt>
      <trkpt lat="49.21203" lon="-0.29676">
        <ele>5</ele>
        <time>2023-05-04T09:28:06Z</time>
      </trkpt>
      <trkpt lat="49.21198" lon="-0.2968">
        <ele>5</ele>
        <time>2023-05-04T09:28:07Z</time>
      </trkpt>
      <trkpt lat="49.21193" lon="-0.29684">
        <ele>5</ele>
        <time>2023-05-04T09:28:08Z</time>
      </trkpt>
      <trkpt lat="49.21188" lon="-0.29688">
        <ele>5</ele>
        <time>2023-05-04T09:28:09Z</time>
      </trkpt>
      <trkpt lat="49.21183" lon="-0.29692">
        <ele>5</ele>
        <time>2023-05-04T09:28:10Z</time>
      </trkpt>
      <trkpt lat="49.21179" lon="-0.29697">
        <ele>5</ele>
        <time>2023-05-04T09:28:11Z</time>
      </trkpt>
      <trkpt lat="49.21174" lon="-0.29702">
        <ele>5</ele>
        <time>2023-05-04T09:28:12Z</time>
      </trkpt>
      <trkpt lat="49.21169" lon="-0.29707">
        <ele>5</ele>
        <time>2023-05-04T09:28:13Z</time>
      </trkpt>
      <trkpt lat="49.21165" lon="-0.29713">
        <ele>5</ele>
        <time>2023-05-04T09:28:14Z</time>
      </trkpt>
      <trkpt lat="49.21161" lon="-0.29719">
        <ele>5.2</ele>
        <time>2023-05-04T09:28:15Z</time>
      </trkpt>
      <trkpt lat="49.21158" lon="-0.29726">
        <ele>5.4</ele>
        <time>2023-05-04T09:28:16Z</time>
      </trkpt>
      <trkpt lat="49.21155" lon="-0.29733">
        <ele>5.4</ele>
        <time>2023-05-04T09:28:17Z</time>
      </trkpt>
      <trkpt lat="49.21153" lon="-0.29742">
        <ele>5.4</ele>
        <time>2023-05-04T09:28:18Z</time>
      </trkpt>
      <trkpt lat="49.21153" lon="-0.2975">
        <ele>5.4</ele>
        <time>2023-05-04T09:28:19Z</time>
      </trkpt>
      <trkpt lat="49.21151" lon="-0.29758">
        <ele>5.4</ele>
        <time>2023-05-04T09:28:20Z</time>
      </trkpt>
      <trkpt lat="49.21148" lon="-0.29764">
        <ele>5.4</ele>
        <time>2023-05-04T09:28:21Z</time>
      </trkpt>
      <trkpt lat="49.21144" lon="-0.2977">
        <ele>5.6</ele>
        <time>2023-05-04T09:28:22Z</time>
      </trkpt>
      <trkpt lat="49.2114" lon="-0.29774">
        <ele>5.6</ele>
        <time>2023-05-04T09:28:23Z</time>
      </trkpt>
      <trkpt lat="49.21134" lon="-0.29776">
        <ele>5.6</ele>
        <time>2023-05-04T09:28:24Z</time>
      </trkpt>
      <trkpt lat="49.21129" lon="-0.29778">
        <ele>5.8</ele>
        <time>2023-05-04T09:28:25Z</time>
      </trkpt>
      <trkpt lat="49.21123" lon="-0.29779">
        <ele>6</ele>
        <time>2023-05-04T09:28:26Z</time>
      </trkpt>
      <trkpt lat="49.21118" lon="-0.29781">
        <ele>6</ele>
        <time>2023-05-04T09:28:27Z</time>
      </trkpt>
      <trkpt lat="49.21112" lon="-0.29783">
        <ele>6</ele>
        <time>2023-05-04T09:28:28Z</time>
      </trkpt>
      <trkpt lat="49.21107" lon="-0.29786">
        <ele>6</ele>
        <time>2023-05-04T09:28:29Z</time>
      </trkpt>
      <trkpt lat="49.21102" lon="-0.2979">
        <ele>6.2</ele>
        <time>2023-05-04T09:28:30Z</time>
      </trkpt>
      <trkpt lat="49.21098" lon="-0.29794">
        <ele>6.2</ele>
        <time>2023-05-04T09:28:31Z</time>
      </trkpt>
      <trkpt lat="49.21093" lon="-0.29799">
        <ele>6.4</ele>
        <time>2023-05-04T09:28:32Z</time>
      </trkpt>
      <trkpt lat="49.21088" lon="-0.29805">
        <ele>6.4</ele>
        <time>2023-05-04T09:28:33Z</time>
      </trkpt>
      <trkpt lat="49.21084" lon="-0.2981">
        <ele>6.4</ele>
        <time>2023-05-04T09:28:34Z</time>
      </trkpt>
      <trkpt lat="49.2108" lon="-0.29817">
        <ele>6.4</ele>
        <time>2023-05-04T09:28:35Z</time>
      </trkpt>
      <trkpt lat="49.21076" lon="-0.29823">
        <ele>6.4</ele>
        <time>2023-05-04T09:28:36Z</time>
      </trkpt>
      <trkpt lat="49.21072" lon="-0.2983">
        <ele>6.2</ele>
        <time>2023-05-04T09:28:37Z</time>
      </trkpt>
      <trkpt lat="49.21068" lon="-0.29837">
        <ele>6</ele>
        <time>2023-05-04T09:28:38Z</time>
      </trkpt>
      <trkpt lat="49.21064" lon="-0.29844">
        <ele>6</ele>
        <time>2023-05-04T09:28:39Z</time>
      </trkpt>
      <trkpt lat="49.21061" lon="-0.29851">
        <ele>6</ele>
        <time>2023-05-04T09:28:40Z</time>
      </trkpt>
      <trkpt lat="49.21057" lon="-0.29858">
        <ele>5.8</ele>
        <time>2023-05-04T09:28:41Z</time>
      </trkpt>
      <trkpt lat="49.21053" lon="-0.29865">
        <ele>5.6</ele>
        <time>2023-05-04T09:28:42Z</time>
      </trkpt>
      <trkpt lat="49.2105" lon="-0.29872">
        <ele>5.6</ele>
        <time>2023-05-04T09:28:43Z</time>
      </trkpt>
      <trkpt lat="49.21046" lon="-0.29879">
        <ele>5.4</ele>
        <time>2023-05-04T09:28:44Z</time>
      </trkpt>
      <trkpt lat="49.21043" lon="-0.29887">
        <ele>5.2</ele>
        <time>2023-05-04T09:28:45Z</time>
      </trkpt>
      <trkpt lat="49.21039" lon="-0.29894">
        <ele>5</ele>
        <time>2023-05-04T09:28:46Z</time>
      </trkpt>
      <trkpt lat="49.21036" lon="-0.29901">
        <ele>4.8</ele>
        <time>2023-05-04T09:28:47Z</time>
      </trkpt>
      <trkpt lat="49.21033" lon="-0.29908">
        <ele>4.6</ele>
        <time>2023-05-04T09:28:48Z</time>
      </trkpt>
      <trkpt lat="49.2103" lon="-0.29916">
        <ele>4.4</ele>
        <time>2023-05-04T09:28:49Z</time>
      </trkpt>
      <trkpt lat="49.21027" lon="-0.29923">
        <ele>4.4</ele>
        <time>2023-05-04T09:28:50Z</time>
      </trkpt>
      <trkpt lat="49.21023" lon="-0.29931">
        <ele>4.2</ele>
        <time>2023-05-04T09:28:51Z</time>
      </trkpt>
      <trkpt lat="49.2102" lon="-0.29938">
        <ele>4</ele>
        <time>2023-05-04T09:28:52Z</time>
      </trkpt>
      <trkpt lat="49.21017" lon="-0.29945">
        <ele>4</ele>
        <time>2023-05-04T09:28:53Z</time>
      </trkpt>
      <trkpt lat="49.21014" lon="-0.29953">
        <ele>3.8</ele>
        <time>2023-05-04T09:28:54Z</time>
      </trkpt>
      <trkpt lat="49.21011" lon="-0.29961">
        <ele>3.8</ele>
        <time>2023-05-04T09:28:55Z</time>
      </trkpt>
      <trkpt lat="49.21008" lon="-0.29968">
        <ele>3.6</ele>
        <time>2023-05-04T09:28:56Z</time>
      </trkpt>
      <trkpt lat="49.21005" lon="-0.29976">
        <ele>3.4</ele>
        <time>2023-05-04T09:28:57Z</time>
      </trkpt>
      <trkpt lat="49.21002" lon="-0.29984">
        <ele>3.2</ele>
        <time>2023-05-04T09:28:58Z</time>
      </trkpt>
      <trkpt lat="49.20999" lon="-0.29992">
        <ele>3.2</ele>
        <time>2023-05-04T09:28:59Z</time>
      </trkpt>
      <trkpt lat="49.20996" lon="-0.3">
        <ele>3.4</ele>
        <time>2023-05-04T09:29:00Z</time>
      </trkpt>
      <trkpt lat="49.20993" lon="-0.30007">
        <ele>3.8</ele>
        <time>2023-05-04T09:29:01Z</time>
      </trkpt>
      <trkpt lat="49.2099" lon="-0.30015">
        <ele>4.2</ele>
        <time>2023-05-04T09:29:02Z</time>
      </trkpt>
      <trkpt lat="49.20987" lon="-0.30023">
        <ele>4.6</ele>
        <time>2023-05-04T09:29:03Z</time>
      </trkpt>
      <trkpt lat="49.20984" lon="-0.3003">
        <ele>4.8</ele>
        <time>2023-05-04T09:29:04Z</time>
      </trkpt>
      <trkpt lat="49.20981" lon="-0.30038">
        <ele>5</ele>
        <time>2023-05-04T09:29:05Z</time>
      </trkpt>
      <trkpt lat="49.20978" lon="-0.30045">
        <ele>5.4</ele>
        <time>2023-05-04T09:29:06Z</time>
      </trkpt>
      <trkpt lat="49.20975" lon="-0.30053">
        <ele>5.6</ele>
        <time>2023-05-04T09:29:07Z</time>
      </trkpt>
      <trkpt lat="49.20972" lon="-0.3006">
        <ele>5.6</ele>
        <time>2023-05-04T09:29:08Z</time>
      </trkpt>
      <trkpt lat="49.20969" lon="-0.30067">
        <ele>5.8</ele>
        <time>2023-05-04T09:29:09Z</time>
      </trkpt>
      <trkpt lat="49.20966" lon="-0.30074">
        <ele>6</ele>
        <time>2023-05-04T09:29:10Z</time>
      </trkpt>
      <trkpt lat="49.20963" lon="-0.30082">
        <ele>6</ele>
        <time>2023-05-04T09:29:11Z</time>
      </trkpt>
      <trkpt lat="49.20961" lon="-0.30089">
        <ele>6</ele>
        <time>2023-05-04T09:29:12Z</time>
      </trkpt>
      <trkpt lat="49.20958" lon="-0.30096">
        <ele>6</ele>
        <time>2023-05-04T09:29:13Z</time>
      </trkpt>
      <trkpt lat="49.20956" lon="-0.30104">
        <ele>6</ele>
        <time>2023-05-04T09:29:14Z</time>
      </trkpt>
      <trkpt lat="49.20955" lon="-0.30112">
        <ele>6</ele>
        <time>2023-05-04T09:29:15Z</time>
      </trkpt>
      <trkpt lat="49.20953" lon="-0.30119">
        <ele>6</ele>
        <time>2023-05-04T09:29:16Z</time>
      </trkpt>
      <trkpt lat="49.2095" lon="-0.30127">
        <ele>6</ele>
        <time>2023-05-04T09:29:17Z</time>
      </trkpt>
      <trkpt lat="49.20947" lon="-0.30134">
        <ele>6</ele>
        <time>2023-05-04T09:29:18Z</time>
      </trkpt>
      <trkpt lat="49.20944" lon="-0.30142">
        <ele>6</ele>
        <time>2023-05-04T09:29:19Z</time>
      </trkpt>
      <trkpt lat="49.20941" lon="-0.30149">
        <ele>6</ele>
        <time>2023-05-04T09:29:20Z</time>
      </trkpt>
      <trkpt lat="49.20938" lon="-0.30157">
        <ele>5.8</ele>
        <time>2023-05-04T09:29:21Z</time>
      </trkpt>
      <trkpt lat="49.20935" lon="-0.30164">
        <ele>5.8</ele>
        <time>2023-05-04T09:29:22Z</time>
      </trkpt>
      <trkpt lat="49.20932" lon="-0.30172">
        <ele>5.8</ele>
        <time>2023-05-04T09:29:23Z</time>
      </trkpt>
      <trkpt lat="49.20929" lon="-0.30179">
        <ele>5.8</ele>
        <time>2023-05-04T09:29:24Z</time>
      </trkpt>
      <trkpt lat="49.20926" lon="-0.30186">
        <ele>6</ele>
        <time>2023-05-04T09:29:25Z</time>
      </trkpt>
      <trkpt lat="49.20922" lon="-0.30194">
        <ele>6</ele>
        <time>2023-05-04T09:29:26Z</time>
      </trkpt>
      <trkpt lat="49.20919" lon="-0.30202">
        <ele>6</ele>
        <time>2023-05-04T09:29:27Z</time>
      </trkpt>
      <trkpt lat="49.20917" lon="-0.3021">
        <ele>6</ele>
        <time>2023-05-04T09:29:28Z</time>
      </trkpt>
      <trkpt lat="49.20914" lon="-0.30218">
        <ele>6.4</ele>
        <time>2023-05-04T09:29:29Z</time>
      </trkpt>
      <trkpt lat="49.20911" lon="-0.30226">
        <ele>6.6</ele>
        <time>2023-05-04T09:29:30Z</time>
      </trkpt>
      <trkpt lat="49.20908" lon="-0.30233">
        <ele>6.6</ele>
        <time>2023-05-04T09:29:31Z</time>
      </trkpt>
      <trkpt lat="49.20905" lon="-0.30241">
        <ele>6.8</ele>
        <time>2023-05-04T09:29:32Z</time>
      </trkpt>
      <trkpt lat="49.20902" lon="-0.30249">
        <ele>7</ele>
        <time>2023-05-04T09:29:33Z</time>
      </trkpt>
      <trkpt lat="49.20899" lon="-0.30257">
        <ele>7</ele>
        <time>2023-05-04T09:29:34Z</time>
      </trkpt>
      <trkpt lat="49.20896" lon="-0.30265">
        <ele>6.8</ele>
        <time>2023-05-04T09:29:35Z</time>
      </trkpt>
      <trkpt lat="49.20893" lon="-0.30272">
        <ele>6.6</ele>
        <time>2023-05-04T09:29:36Z</time>
      </trkpt>
      <trkpt lat="49.2089" lon="-0.3028">
        <ele>6.6</ele>
        <time>2023-05-04T09:29:37Z</time>
      </trkpt>
      <trkpt lat="49.20887" lon="-0.30288">
        <ele>6.4</ele>
        <time>2023-05-04T09:29:38Z</time>
      </trkpt>
      <trkpt lat="49.20884" lon="-0.30296">
        <ele>6.2</ele>
        <time>2023-05-04T09:29:39Z</time>
      </trkpt>
      <trkpt lat="49.20881" lon="-0.30303">
        <ele>6</ele>
        <time>2023-05-04T09:29:40Z</time>
      </trkpt>
      <trkpt lat="49.20878" lon="-0.30311">
        <ele>5.8</ele>
        <time>2023-05-04T09:29:41Z</time>
      </trkpt>
      <trkpt lat="49.20875" lon="-0.30319">
        <ele>5.6</ele>
        <time>2023-05-04T09:29:42Z</time>
      </trkpt>
      <trkpt lat="49.20872" lon="-0.30326">
        <ele>5.4</ele>
        <time>2023-05-04T09:29:43Z</time>
      </trkpt>
      <trkpt lat="49.2087" lon="-0.30334">
        <ele>5</ele>
        <time>2023-05-04T09:29:44Z</time>
      </trkpt>
      <trkpt lat="49.20867" lon="-0.30342">
        <ele>5</ele>
        <time>2023-05-04T09:29:45Z</time>
      </trkpt>
      <trkpt lat="49.20864" lon="-0.30349">
        <ele>5</ele>
        <time>2023-05-04T09:29:46Z</time>
      </trkpt>
      <trkpt lat="49.20861" lon="-0.30357">
        <ele>4.8</ele>
        <time>2023-05-04T09:29:47Z</time>
      </trkpt>
      <trkpt lat="49.20858" lon="-0.30364">
        <ele>4.6</ele>
        <time>2023-05-04T09:29:48Z</time>
      </trkpt>
      <trkpt lat="49.20855" lon="-0.30372">
        <ele>4.4</ele>
        <time>2023-05-04T09:29:49Z</time>
      </trkpt>
      <trkpt lat="49.20852" lon="-0.3038">
        <ele>4.4</ele>
        <time>2023-05-04T09:29:50Z</time>
      </trkpt>
      <trkpt lat="49.20849" lon="-0.30387">
        <ele>4</ele>
        <time>2023-05-04T09:29:51Z</time>
      </trkpt>
      <trkpt lat="49.20846" lon="-0.30395">
        <ele>3.8</ele>
        <time>2023-05-04T09:29:52Z</time>
      </trkpt>
      <trkpt lat="49.20843" lon="-0.30402">
        <ele>3.6</ele>
        <time>2023-05-04T09:29:53Z</time>
      </trkpt>
      <trkpt lat="49.2084" lon="-0.3041">
        <ele>3.2</ele>
        <time>2023-05-04T09:29:54Z</time>
      </trkpt>
      <trkpt lat="49.20837" lon="-0.30417">
        <ele>3</ele>
        <time>2023-05-04T09:29:55Z</time>
      </trkpt>
      <trkpt lat="49.20835" lon="-0.30424">
        <ele>3</ele>
        <time>2023-05-04T09:29:56Z</time>
      </trkpt>
      <trkpt lat="49.20832" lon="-0.30431">
        <ele>3</ele>
        <time>2023-05-04T09:29:57Z</time>
      </trkpt>
      <trkpt lat="49.2083" lon="-0.30439">
        <ele>3</ele>
        <time>2023-05-04T09:29:58Z</time>
      </trkpt>
      <trkpt lat="49.20827" lon="-0.30446">
        <ele>3</ele>
        <time>2023-05-04T09:29:59Z</time>
      </trkpt>
      <trkpt lat="49.20824" lon="-0.30453">
        <ele>3</ele>
        <time>2023-05-04T09:30:00Z</time>
      </trkpt>
      <trkpt lat="49.20821" lon="-0.30461">
        <ele>3</ele>
        <time>2023-05-04T09:30:01Z</time>
      </trkpt>
      <trkpt lat="49.20819" lon="-0.30468">
        <ele>3</ele>
        <time>2023-05-04T09:30:02Z</time>
      </trkpt>
      <trkpt lat="49.20816" lon="-0.30475">
        <ele>3</ele>
        <time>2023-05-04T09:30:03Z</time>
      </trkpt>
      <trkpt lat="49.20813" lon="-0.30483">
        <ele>3</ele>
        <time>2023-05-04T09:30:04Z</time>
      </trkpt>
      <trkpt lat="49.2081" lon="-0.3049">
        <ele>2.8</ele>
        <time>2023-05-04T09:30:05Z</time>
      </trkpt>
      <trkpt lat="49.20807" lon="-0.30497">
        <ele>2.8</ele>
        <time>2023-05-04T09:30:06Z</time>
      </trkpt>
      <trkpt lat="49.20805" lon="-0.30504">
        <ele>2.8</ele>
        <time>2023-05-04T09:30:07Z</time>
      </trkpt>
      <trkpt lat="49.20802" lon="-0.30511">
        <ele>3</ele>
        <time>2023-05-04T09:30:08Z</time>
      </trkpt>
      <trkpt lat="49.20799" lon="-0.30518">
        <ele>3</ele>
        <time>2023-05-04T09:30:09Z</time>
      </trkpt>
      <trkpt lat="49.20797" lon="-0.30525">
        <ele>3.2</ele>
        <time>2023-05-04T09:30:10Z</time>
      </trkpt>
      <trkpt lat="49.20794" lon="-0.30532">
        <ele>3.4</ele>
        <time>2023-05-04T09:30:11Z</time>
      </trkpt>
      <trkpt lat="49.20791" lon="-0.30539">
        <ele>3.6</ele>
        <time>2023-05-04T09:30:12Z</time>
      </trkpt>
      <trkpt lat="49.20789" lon="-0.30545">
        <ele>3.6</ele>
        <time>2023-05-04T09:30:13Z</time>
      </trkpt>
      <trkpt lat="49.20787" lon="-0.30551">
        <ele>3.8</ele>
        <time>2023-05-04T09:30:14Z</time>
      </trkpt>
      <trkpt lat="49.20784" lon="-0.30556">
        <ele>3.8</ele>
        <time>2023-05-04T09:30:15Z</time>
      </trkpt>
      <trkpt lat="49.20783" lon="-0.30559">
        <ele>3.8</ele>
        <time>2023-05-04T09:30:16Z</time>
      </trkpt>
      <trkpt lat="49.20781" lon="-0.3056">
        <ele>3.8</ele>
        <time>2023-05-04T09:30:17Z</time>
      </trkpt>
      <trkpt lat="49.2078" lon="-0.30559">
        <ele>3.8</ele>
        <time>2023-05-04T09:30:18Z</time>
      </trkpt>
      <trkpt lat="49.20778" lon="-0.3056">
        <ele>3.8</ele>
        <time>2023-05-04T09:30:19Z</time>
      </trkpt>
      <trkpt lat="49.20776" lon="-0.30562">
        <ele>3.8</ele>
        <time>2023-05-04T09:30:20Z</time>
      </trkpt>
      <trkpt lat="49.20774" lon="-0.30565">
        <ele>4</ele>
        <time>2023-05-04T09:30:21Z</time>
      </trkpt>
      <trkpt lat="49.20773" lon="-0.3057">
        <ele>4</ele>
        <time>2023-05-04T09:30:22Z</time>
      </trkpt>
      <trkpt lat="49.20771" lon="-0.30576">
        <ele>4</ele>
        <time>2023-05-04T09:30:23Z</time>
      </trkpt>
      <trkpt lat="49.20768" lon="-0.30582">
        <ele>4</ele>
        <time>2023-05-04T09:30:24Z</time>
      </trkpt>
      <trkpt lat="49.20765" lon="-0.30589">
        <ele>4</ele>
        <time>2023-05-04T09:30:25Z</time>
      </trkpt>
      <trkpt lat="49.20763" lon="-0.30595">
        <ele>4</ele>
        <time>2023-05-04T09:30:26Z</time>
      </trkpt>
      <trkpt lat="49.2076" lon="-0.30602">
        <ele>4</ele>
        <time>2023-05-04T09:30:27Z</time>
      </trkpt>
      <trkpt lat="49.20757" lon="-0.30609">
        <ele>4</ele>
        <time>2023-05-04T09:30:28Z</time>
      </trkpt>
      <trkpt lat="49.20754" lon="-0.30615">
        <ele>4</ele>
        <time>2023-05-04T09:30:29Z</time>
      </trkpt>
      <trkpt lat="49.20751" lon="-0.30622">
        <ele>4</ele>
        <time>2023-05-04T09:30:30Z</time>
      </trkpt>
      <trkpt lat="49.20747" lon="-0.30629">
        <ele>4</ele>
        <time>2023-05-04T09:30:31Z</time>
      </trkpt>
      <trkpt lat="49.20744" lon="-0.30635">
        <ele>4</ele>
        <time>2023-05-04T09:30:32Z</time>
      </trkpt>
      <trkpt lat="49.20741" lon="-0.30641">
        <ele>4</ele>
        <time>2023-05-04T09:30:33Z</time>
      </trkpt>
      <trkpt lat="49.20737" lon="-0.30648">
        <ele>4</ele>
        <time>2023-05-04T09:30:34Z</time>
      </trkpt>
      <trkpt lat="49.20734" lon="-0.30654">
        <ele>4</ele>
        <time>2023-05-04T09:30:35Z</time>
      </trkpt>
      <trkpt lat="49.2073" lon="-0.3066">
        <ele>3.8</ele>
        <time>2023-05-04T09:30:36Z</time>
      </trkpt>
      <trkpt lat="49.20727" lon="-0.30666">
        <ele>3.8</ele>
        <time>2023-05-04T09:30:37Z</time>
      </trkpt>
      <trkpt lat="49.20723" lon="-0.30672">
        <ele>3.8</ele>
        <time>2023-05-04T09:30:38Z</time>
      </trkpt>
      <trkpt lat="49.2072" lon="-0.30677">
        <ele>3.6</ele>
        <time>2023-05-04T09:30:39Z</time>
      </trkpt>
      <trkpt lat="49.20717" lon="-0.30683">
        <ele>3.6</ele>
        <time>2023-05-04T09:30:40Z</time>
      </trkpt>
      <trkpt lat="49.20713" lon="-0.30688">
        <ele>3.6</ele>
        <time>2023-05-04T09:30:41Z</time>
      </trkpt>
      <trkpt lat="49.2071" lon="-0.30694">
        <ele>3.6</ele>
        <time>2023-05-04T09:30:42Z</time>
      </trkpt>
      <trkpt lat="49.20707" lon="-0.30699">
        <ele>3.6</ele>
        <time>2023-05-04T09:30:43Z</time>
      </trkpt>
      <trkpt lat="49.20704" lon="-0.30703">
        <ele>3.4</ele>
        <time>2023-05-04T09:30:44Z</time>
      </trkpt>
      <trkpt lat="49.20701" lon="-0.30708">
        <ele>3.4</ele>
        <time>2023-05-04T09:30:45Z</time>
      </trkpt>
      <trkpt lat="49.20698" lon="-0.30713">
        <ele>3.4</ele>
        <time>2023-05-04T09:30:46Z</time>
      </trkpt>
      <trkpt lat="49.20695" lon="-0.30719">
        <ele>3.2</ele>
        <time>2023-05-04T09:30:47Z</time>
      </trkpt>
      <trkpt lat="49.20691" lon="-0.30725">
        <ele>3.2</ele>
        <time>2023-05-04T09:30:48Z</time>
      </trkpt>
      <trkpt lat="49.20688" lon="-0.3073">
        <ele>3.2</ele>
        <time>2023-05-04T09:30:49Z</time>
      </trkpt>
      <trkpt lat="49.20684" lon="-0.30736">
        <ele>3.2</ele>
        <time>2023-05-04T09:30:50Z</time>
      </trkpt>
      <trkpt lat="49.2068" lon="-0.30742">
        <ele>3.2</ele>
        <time>2023-05-04T09:30:51Z</time>
      </trkpt>
      <trkpt lat="49.20676" lon="-0.30747">
        <ele>3</ele>
        <time>2023-05-04T09:30:52Z</time>
      </trkpt>
      <trkpt lat="49.20671" lon="-0.30752">
        <ele>3</ele>
        <time>2023-05-04T09:30:53Z</time>
      </trkpt>
      <trkpt lat="49.20667" lon="-0.30757">
        <ele>3.2</ele>
        <time>2023-05-04T09:30:54Z</time>
      </trkpt>
      <trkpt lat="49.20662" lon="-0.30762">
        <ele>3.2</ele>
        <time>2023-05-04T09:30:55Z</time>
      </trkpt>
      <trkpt lat="49.20658" lon="-0.30767">
        <ele>3.4</ele>
        <time>2023-05-04T09:30:56Z</time>
      </trkpt>
      <trkpt lat="49.20654" lon="-0.30772">
        <ele>3.6</ele>
        <time>2023-05-04T09:30:57Z</time>
      </trkpt>
      <trkpt lat="49.20649" lon="-0.30776">
        <ele>3.6</ele>
        <time>2023-05-04T09:30:58Z</time>
      </trkpt>
      <trkpt lat="49.20645" lon="-0.30781">
        <ele>3.6</ele>
        <time>2023-05-04T09:30:59Z</time>
      </trkpt>
      <trkpt lat="49.20641" lon="-0.30786">
        <ele>3.8</ele>
        <time>2023-05-04T09:31:00Z</time>
      </trkpt>
      <trkpt lat="49.20636" lon="-0.3079">
        <ele>3.8</ele>
        <time>2023-05-04T09:31:01Z</time>
      </trkpt>
      <trkpt lat="49.20632" lon="-0.30795">
        <ele>4</ele>
        <time>2023-05-04T09:31:02Z</time>
      </trkpt>
      <trkpt lat="49.20628" lon="-0.30799">
        <ele>4</ele>
        <time>2023-05-04T09:31:03Z</time>
      </trkpt>
      <trkpt lat="49.20624" lon="-0.30804">
        <ele>4</ele>
        <time>2023-05-04T09:31:04Z</time>
      </trkpt>
      <trkpt lat="49.20619" lon="-0.30808">
        <ele>4</ele>
        <time>2023-05-04T09:31:05Z</time>
      </trkpt>
      <trkpt lat="49.20615" lon="-0.30813">
        <ele>4</ele>
        <time>2023-05-04T09:31:06Z</time>
      </trkpt>
      <trkpt lat="49.20611" lon="-0.30818">
        <ele>4</ele>
        <time>2023-05-04T09:31:07Z</time>
      </trkpt>
      <trkpt lat="49.20607" lon="-0.30823">
        <ele>4</ele>
        <time>2023-05-04T09:31:08Z</time>
      </trkpt>
      <trkpt lat="49.20603" lon="-0.30828">
        <ele>4.2</ele>
        <time>2023-05-04T09:31:09Z</time>
      </trkpt>
      <trkpt lat="49.20599" lon="-0.30833">
        <ele>4.2</ele>
        <time>2023-05-04T09:31:10Z</time>
      </trkpt>
      <trkpt lat="49.20595" lon="-0.30838">
        <ele>4</ele>
        <time>2023-05-04T09:31:11Z</time>
      </trkpt>
      <trkpt lat="49.20591" lon="-0.30844">
        <ele>4</ele>
        <time>2023-05-04T09:31:12Z</time>
      </trkpt>
      <trkpt lat="49.20587" lon="-0.3085">
        <ele>3.8</ele>
        <time>2023-05-04T09:31:13Z</time>
      </trkpt>
      <trkpt lat="49.20583" lon="-0.30856">
        <ele>3.6</ele>
        <time>2023-05-04T09:31:14Z</time>
      </trkpt>
      <trkpt lat="49.2058" lon="-0.30862">
        <ele>3.2</ele>
        <time>2023-05-04T09:31:15Z</time>
      </trkpt>
      <trkpt lat="49.20576" lon="-0.30868">
        <ele>3.2</ele>
        <time>2023-05-04T09:31:16Z</time>
      </trkpt>
      <trkpt lat="49.20572" lon="-0.30875">
        <ele>3</ele>
        <time>2023-05-04T09:31:17Z</time>
      </trkpt>
      <trkpt lat="49.20569" lon="-0.30881">
        <ele>3</ele>
        <time>2023-05-04T09:31:18Z</time>
      </trkpt>
      <trkpt lat="49.20565" lon="-0.30888">
        <ele>3</ele>
        <time>2023-05-04T09:31:19Z</time>
      </trkpt>
      <trkpt lat="49.20562" lon="-0.30894">
        <ele>3</ele>
        <time>2023-05-04T09:31:20Z</time>
      </trkpt>
      <trkpt lat="49.20558" lon="-0.309">
        <ele>3</ele>
        <time>2023-05-04T09:31:21Z</time>
      </trkpt>
      <trkpt lat="49.20554" lon="-0.30906">
        <ele>3</ele>
        <time>2023-05-04T09:31:22Z</time>
      </trkpt>
      <trkpt lat="49.20551" lon="-0.30912">
        <ele>3.2</ele>
        <time>2023-05-04T09:31:23Z</time>
      </trkpt>
      <trkpt lat="49.20547" lon="-0.30917">
        <ele>3.2</ele>
        <time>2023-05-04T09:31:24Z</time>
      </trkpt>
      <trkpt lat="49.20543" lon="-0.30922">
        <ele>3.6</ele>
        <time>2023-05-04T09:31:25Z</time>
      </trkpt>
      <trkpt lat="49.20539" lon="-0.30927">
        <ele>3.8</ele>
        <time>2023-05-04T09:31:26Z</time>
      </trkpt>
      <trkpt lat="49.20535" lon="-0.30932">
        <ele>4</ele>
        <time>2023-05-04T09:31:27Z</time>
      </trkpt>
      <trkpt lat="49.20531" lon="-0.30936">
        <ele>4.4</ele>
        <time>2023-05-04T09:31:28Z</time>
      </trkpt>
      <trkpt lat="49.20528" lon="-0.3094">
        <ele>4.6</ele>
        <time>2023-05-04T09:31:29Z</time>
      </trkpt>
      <trkpt lat="49.20524" lon="-0.30944">
        <ele>4.8</ele>
        <time>2023-05-04T09:31:30Z</time>
      </trkpt>
      <trkpt lat="49.20521" lon="-0.30947">
        <ele>5</ele>
        <time>2023-05-04T09:31:31Z</time>
      </trkpt>
      <trkpt lat="49.20517" lon="-0.30951">
        <ele>5.2</ele>
        <time>2023-05-04T09:31:32Z</time>
      </trkpt>
      <trkpt lat="49.20513" lon="-0.30954">
        <ele>5.4</ele>
        <time>2023-05-04T09:31:33Z</time>
      </trkpt>
      <trkpt lat="49.20508" lon="-0.30956">
        <ele>5.6</ele>
        <time>2023-05-04T09:31:34Z</time>
      </trkpt>
      <trkpt lat="49.20505" lon="-0.30958">
        <ele>5.8</ele>
        <time>2023-05-04T09:31:35Z</time>
      </trkpt>
      <trkpt lat="49.20501" lon="-0.3096">
        <ele>6</ele>
        <time>2023-05-04T09:31:36Z</time>
      </trkpt>
      <trkpt lat="49.20499" lon="-0.30961">
        <ele>6</ele>
        <time>2023-05-04T09:31:37Z</time>
      </trkpt>
      <trkpt lat="49.20498" lon="-0.30961">
        <ele>6</ele>
        <time>2023-05-04T09:31:38Z</time>
      </trkpt>
      <trkpt lat="49.20498" lon="-0.30961">
        <ele>6</ele>
        <time>2023-05-04T09:31:39Z</time>
      </trkpt>
      <trkpt lat="49.20498" lon="-0.30961">
        <ele>6</ele>
        <time>2023-05-04T09:31:40Z</time>
      </trkpt>
      <trkpt lat="49.20498" lon="-0.30961">
        <ele>6</ele>
        <time>2023-05-04T09:31:41Z</time>
      </trkpt>
      <trkpt lat="49.20498" lon="-0.30961">
        <ele>6</ele>
        <time>2023-05-04T09:31:42Z</time>
      </trkpt>
      <trkpt lat="49.20498" lon="-0.30961">
        <ele>6</ele>
        <time>2023-05-04T09:31:43Z</time>
      </trkpt>
      <trkpt lat="49.20498" lon="-0.30961">
        <ele>6</ele>
        <time>2023-05-04T09:31:44Z</time>
      </trkpt>
      <trkpt lat="49.20498" lon="-0.30961">
        <ele>6</ele>
        <time>2023-05-04T09:31:45Z</time>
      </trkpt>
      <trkpt lat="49.20498" lon="-0.30961">
        <ele>6</ele>
        <time>2023-05-04T09:31:46Z</time>
      </trkpt>
      <trkpt lat="49.20498" lon="-0.30961">
        <ele>6</ele>
        <time>2023-05-04T09:31:47Z</time>
      </trkpt>
      <trkpt lat="49.20498" lon="-0.30961">
        <ele>6</ele>
        <time>2023-05-04T09:31:48Z</time>
      </trkpt>
      <trkpt lat="49.20498" lon="-0.30961">
        <ele>6</ele>
        <time>2023-05-04T09:31:49Z</time>
      </trkpt>
      <trkpt lat="49.20498" lon="-0.30961">
        <ele>6</ele>
        <time>2023-05-04T09:31:50Z</time>
      </trkpt>
      <trkpt lat="49.20498" lon="-0.30961">
        <ele>6</ele>
        <time>2023-05-04T09:31:51Z</time>
      </trkpt>
      <trkpt lat="49.20498" lon="-0.30961">
        <ele>6</ele>
        <time>2023-05-04T09:31:52Z</time>
      </trkpt>
      <trkpt lat="49.20498" lon="-0.30961">
        <ele>6</ele>
        <time>2023-05-04T09:31:53Z</time>
      </trkpt>
      <trkpt lat="49.20498" lon="-0.30961">
        <ele>6</ele>
        <time>2023-05-04T09:31:54Z</time>
      </trkpt>
      <trkpt lat="49.20498" lon="-0.30961">
        <ele>6</ele>
        <time>2023-05-04T09:31:55Z</time>
      </trkpt>
      <trkpt lat="49.20498" lon="-0.30961">
        <ele>6</ele>
        <time>2023-05-04T09:31:56Z</time>
      </trkpt>
      <trkpt lat="49.20498" lon="-0.30961">
        <ele>6</ele>
        <time>2023-05-04T09:31:57Z</time>
      </trkpt>
      <trkpt lat="49.20498" lon="-0.30961">
        <ele>6</ele>
        <time>2023-05-04T09:31:58Z</time>
      </trkpt>
      <trkpt lat="49.20498" lon="-0.30961">
        <ele>6</ele>
        <time>2023-05-04T09:31:59Z</time>
      </trkpt>
      <trkpt lat="49.20498" lon="-0.30961">
        <ele>6</ele>
        <time>2023-05-04T09:32:00Z</time>
      </trkpt>
      <trkpt lat="49.20498" lon="-0.30961">
        <ele>6</ele>
        <time>2023-05-04T09:32:01Z</time>
      </trkpt>
      <trkpt lat="49.20498" lon="-0.30961">
        <ele>6</ele>
        <time>2023-05-04T09:32:02Z</time>
      </trkpt>
      <trkpt lat="49.20498" lon="-0.30961">
        <ele>6</ele>
        <time>2023-05-04T09:32:03Z</time>
      </trkpt>
      <trkpt lat="49.20498" lon="-0.30961">
        <ele>6</ele>
        <time>2023-05-04T09:32:04Z</time>
      </trkpt>
      <trkpt lat="49.20498" lon="-0.30961">
        <ele>6</ele>
        <time>2023-05-04T09:32:05Z</time>
      </trkpt>
      <trkpt lat="49.20498" lon="-0.30961">
        <ele>6</ele>
        <time>2023-05-04T09:32:06Z</time>
      </trkpt>
      <trkpt lat="49.20498" lon="-0.30961">
        <ele>6</ele>
        <time>2023-05-04T09:32:07Z</time>
      </trkpt>
      <trkpt lat="49.20498" lon="-0.30961">
        <ele>6</ele>
        <time>2023-05-04T09:32:08Z</time>
      </trkpt>
      <trkpt lat="49.20498" lon="-0.30961">
        <ele>6</ele>
        <time>2023-05-04T09:32:09Z</time>
      </trkpt>
      <trkpt lat="49.20498" lon="-0.30961">
        <ele>6</ele>
        <time>2023-05-04T09:32:10Z</time>
      </trkpt>
      <trkpt lat="49.20498" lon="-0.30961">
        <ele>6</ele>
        <time>2023-05-04T09:32:11Z</time>
      </trkpt>
      <trkpt lat="49.20498" lon="-0.30961">
        <ele>6</ele>
        <time>2023-05-04T09:32:12Z</time>
      </trkpt>
      <trkpt lat="49.20498" lon="-0.30961">
        <ele>6</ele>
        <time>2023-05-04T09:32:13Z</time>
      </trkpt>
      <trkpt lat="49.20498" lon="-0.30961">
        <ele>6</ele>
        <time>2023-05-04T09:32:14Z</time>
      </trkpt>
      <trkpt lat="49.20498" lon="-0.30961">
        <ele>6</ele>
        <time>2023-05-04T09:32:15Z</time>
      </trkpt>
      <trkpt lat="49.20498" lon="-0.30961">
        <ele>6</ele>
        <time>2023-05-04T09:32:16Z</time>
      </trkpt>
      <trkpt lat="49.20498" lon="-0.30961">
        <ele>6</ele>
        <time>2023-05-04T09:32:17Z</time>
      </trkpt>
      <trkpt lat="49.20498" lon="-0.30961">
        <ele>6</ele>
        <time>2023-05-04T09:32:18Z</time>
      </trkpt>
      <trkpt lat="49.20498" lon="-0.30961">
        <ele>6</ele>
        <time>2023-05-04T09:32:19Z</time>
      </trkpt>
      <trkpt lat="49.20498" lon="-0.30961">
        <ele>6</ele>
        <time>2023-05-04T09:32:20Z</time>
      </trkpt>
      <trkpt lat="49.20498" lon="-0.30961">
        <ele>6</ele>
        <time>2023-05-04T09:32:21Z</time>
      </trkpt>
      <trkpt lat="49.20498" lon="-0.30961">
        <ele>6</ele>
        <time>2023-05-04T09:32:22Z</time>
      </trkpt>
      <trkpt lat="49.20498" lon="-0.30961">
        <ele>6</ele>
        <time>2023-05-04T09:32:23Z</time>
      </trkpt>
      <trkpt lat="49.20498" lon="-0.30961">
        <ele>6</ele>
        <time>2023-05-04T09:32:24Z</time>
      </trkpt>
      <trkpt lat="49.20498" lon="-0.30961">
        <ele>6</ele>
        <time>2023-05-04T09:32:25Z</time>
      </trkpt>
      <trkpt lat="49.20498" lon="-0.30961">
        <ele>6</ele>
        <time>2023-05-04T09:32:26Z</time>
      </trkpt>
      <trkpt lat="49.20498" lon="-0.30961">
        <ele>6</ele>
        <time>2023-05-04T09:32:27Z</time>
      </trkpt>
      <trkpt lat="49.20498" lon="-0.30961">
        <ele>6</ele>
        <time>2023-05-04T09:32:28Z</time>
      </trkpt>
      <trkpt lat="49.20498" lon="-0.30961">
        <ele>6</ele>
        <time>2023-05-04T09:32:29Z</time>
      </trkpt>
      <trkpt lat="49.20498" lon="-0.30961">
        <ele>6</ele>
        <time>2023-05-04T09:32:30Z</time>
      </trkpt>
      <trkpt lat="49.20498" lon="-0.30961">
        <ele>6</ele>
        <time>2023-05-04T09:32:31Z</time>
      </trkpt>
      <trkpt lat="49.20498" lon="-0.30961">
        <ele>6</ele>
        <time>2023-05-04T09:32:32Z</time>
      </trkpt>
      <trkpt lat="49.20498" lon="-0.30961">
        <ele>6</ele>
        <time>2023-05-04T09:32:33Z</time>
      </trkpt>
      <trkpt lat="49.20498" lon="-0.30961">
        <ele>6</ele>
        <time>2023-05-04T09:32:34Z</time>
      </trkpt>
      <trkpt lat="49.20498" lon="-0.30961">
        <ele>6</ele>
        <time>2023-05-04T09:32:35Z</time>
      </trkpt>
      <trkpt lat="49.20498" lon="-0.30961">
        <ele>6</ele>
        <time>2023-05-04T09:32:36Z</time>
      </trkpt>
      <trkpt lat="49.20498" lon="-0.30961">
        <ele>6</ele>
        <time>2023-05-04T09:32:37Z</time>
      </trkpt>
      <trkpt lat="49.20498" lon="-0.30961">
        <ele>6</ele>
        <time>2023-05-04T09:32:38Z</time>
      </trkpt>
      <trkpt lat="49.20498" lon="-0.30961">
        <ele>6</ele>
        <time>2023-05-04T09:32:39Z</time>
      </trkpt>
      <trkpt lat="49.20498" lon="-0.30961">
        <ele>6</ele>
        <time>2023-05-04T09:32:40Z</time>
      </trkpt>
      <trkpt lat="49.20498" lon="-0.30961">
        <ele>6</ele>
        <time>2023-05-04T09:32:41Z</time>
      </trkpt>
      <trkpt lat="49.20498" lon="-0.30961">
        <ele>6</ele>
        <time>2023-05-04T09:32:42Z</time>
      </trkpt>
      <trkpt lat="49.20498" lon="-0.30961">
        <ele>6</ele>
        <time>2023-05-04T09:32:43Z</time>
      </trkpt>
      <trkpt lat="49.20498" lon="-0.30961">
        <ele>6</ele>
        <time>2023-05-04T09:32:44Z</time>
      </trkpt>
      <trkpt lat="49.20498" lon="-0.30961">
        <ele>6</ele>
        <time>2023-05-04T09:32:45Z</time>
      </trkpt>
      <trkpt lat="49.20498" lon="-0.30961">
        <ele>6</ele>
        <time>2023-05-04T09:32:46Z</time>
      </trkpt>
      <trkpt lat="49.20498" lon="-0.30961">
        <ele>6</ele>
        <time>2023-05-04T09:32:47Z</time>
      </trkpt>
      <trkpt lat="49.20498" lon="-0.30961">
        <ele>6</ele>
        <time>2023-05-04T09:32:48Z</time>
      </trkpt>
      <trkpt lat="49.20498" lon="-0.30961">
        <ele>6</ele>
        <time>2023-05-04T09:32:49Z</time>
      </trkpt>
      <trkpt lat="49.20498" lon="-0.30961">
        <ele>6</ele>
        <time>2023-05-04T09:32:50Z</time>
      </trkpt>
      <trkpt lat="49.20498" lon="-0.30961">
        <ele>6</ele>
        <time>2023-05-04T09:32:51Z</time>
      </trkpt>
      <trkpt lat="49.20498" lon="-0.30961">
        <ele>6</ele>
        <time>2023-05-04T09:32:52Z</time>
      </trkpt>
      <trkpt lat="49.20498" lon="-0.30961">
        <ele>6</ele>
        <time>2023-05-04T09:32:53Z</time>
      </trkpt>
      <trkpt lat="49.20498" lon="-0.30961">
        <ele>6</ele>
        <time>2023-05-04T09:32:54Z</time>
      </trkpt>
      <trkpt lat="49.20498" lon="-0.30961">
        <ele>6</ele>
        <time>2023-05-04T09:32:55Z</time>
      </trkpt>
      <trkpt lat="49.20498" lon="-0.30961">
        <ele>6</ele>
        <time>2023-05-04T09:32:56Z</time>
      </trkpt>
      <trkpt lat="49.20498" lon="-0.30961">
        <ele>6</ele>
        <time>2023-05-04T09:32:57Z</time>
      </trkpt>
      <trkpt lat="49.20498" lon="-0.30961">
        <ele>6</ele>
        <time>2023-05-04T09:32:58Z</time>
      </trkpt>
      <trkpt lat="49.20498" lon="-0.30961">
        <ele>6</ele>
        <time>2023-05-04T09:32:59Z</time>
      </trkpt>
      <trkpt lat="49.20498" lon="-0.30961">
        <ele>6</ele>
        <time>2023-05-04T09:33:00Z</time>
      </trkpt>
      <trkpt lat="49.20498" lon="-0.30961">
        <ele>6</ele>
        <time>2023-05-04T09:33:01Z</time>
      </trkpt>
      <trkpt lat="49.20498" lon="-0.30961">
        <ele>6</ele>
        <time>2023-05-04T09:33:02Z</time>
      </trkpt>
      <trkpt lat="49.20498" lon="-0.30961">
        <ele>6</ele>
        <time>2023-05-04T09:33:03Z</time>
      </trkpt>
      <trkpt lat="49.20498" lon="-0.30961">
        <ele>6</ele>
        <time>2023-05-04T09:33:04Z</time>
      </trkpt>
      <trkpt lat="49.20498" lon="-0.30961">
        <ele>6</ele>
        <time>2023-05-04T09:33:05Z</time>
      </trkpt>
      <trkpt lat="49.20498" lon="-0.30961">
        <ele>6</ele>
        <time>2023-05-04T09:33:06Z</time>
      </trkpt>
      <trkpt lat="49.20498" lon="-0.30961">
        <ele>6</ele>
        <time>2023-05-04T09:33:07Z</time>
      </trkpt>
      <trkpt lat="49.20498" lon="-0.30961">
        <ele>6</ele>
        <time>2023-05-04T09:33:08Z</time>
      </trkpt>
      <trkpt lat="49.20498" lon="-0.30961">
        <ele>6</ele>
        <time>2023-05-04T09:33:09Z</time>
      </trkpt>
      <trkpt lat="49.20498" lon="-0.30961">
        <ele>6</ele>
        <time>2023-05-04T09:33:10Z</time>
      </trkpt>
      <trkpt lat="49.20498" lon="-0.30961">
        <ele>6</ele>
        <time>2023-05-04T09:33:11Z</time>
      </trkpt>
      <trkpt lat="49.20498" lon="-0.30961">
        <ele>6</ele>
        <time>2023-05-04T09:33:12Z</time>
      </trkpt>
      <trkpt lat="49.20498" lon="-0.30961">
        <ele>6</ele>
        <time>2023-05-04T09:33:13Z</time>
      </trkpt>
      <trkpt lat="49.20498" lon="-0.30961">
        <ele>6</ele>
        <time>2023-05-04T09:33:14Z</time>
      </trkpt>
      <trkpt lat="49.20498" lon="-0.30961">
        <ele>6</ele>
        <time>2023-05-04T09:33:15Z</time>
      </trkpt>
      <trkpt lat="49.20498" lon="-0.30961">
        <ele>6</ele>
        <time>2023-05-04T09:33:16Z</time>
      </trkpt>
      <trkpt lat="49.20498" lon="-0.30961">
        <ele>6</ele>
        <time>2023-05-04T09:33:17Z</time>
      </trkpt>
      <trkpt lat="49.20498" lon="-0.30961">
        <ele>6</ele>
        <time>2023-05-04T09:33:18Z</time>
      </trkpt>
      <trkpt lat="49.20498" lon="-0.30961">
        <ele>6</ele>
        <time>2023-05-04T09:33:19Z</time>
      </trkpt>
      <trkpt lat="49.20498" lon="-0.30961">
        <ele>6</ele>
        <time>2023-05-04T09:33:20Z</time>
      </trkpt>
      <trkpt lat="49.20498" lon="-0.30961">
        <ele>6</ele>
        <time>2023-05-04T09:33:21Z</time>
      </trkpt>
      <trkpt lat="49.20498" lon="-0.30961">
        <ele>6</ele>
        <time>2023-05-04T09:33:22Z</time>
      </trkpt>
      <trkpt lat="49.20498" lon="-0.30961">
        <ele>6</ele>
        <time>2023-05-04T09:33:23Z</time>
      </trkpt>
      <trkpt lat="49.20498" lon="-0.30961">
        <ele>6</ele>
        <time>2023-05-04T09:33:24Z</time>
      </trkpt>
      <trkpt lat="49.20498" lon="-0.30961">
        <ele>6</ele>
        <time>2023-05-04T09:33:25Z</time>
      </trkpt>
      <trkpt lat="49.20498" lon="-0.30961">
        <ele>6</ele>
        <time>2023-05-04T09:33:26Z</time>
      </trkpt>
      <trkpt lat="49.20498" lon="-0.30961">
        <ele>6</ele>
        <time>2023-05-04T09:33:27Z</time>
      </trkpt>
      <trkpt lat="49.20498" lon="-0.30961">
        <ele>6</ele>
        <time>2023-05-04T09:33:28Z</time>
      </trkpt>
      <trkpt lat="49.20498" lon="-0.30961">
        <ele>6</ele>
        <time>2023-05-04T09:33:29Z</time>
      </trkpt>
      <trkpt lat="49.20498" lon="-0.30961">
        <ele>6</ele>
        <time>2023-05-04T09:33:30Z</time>
      </trkpt>
      <trkpt lat="49.20498" lon="-0.30961">
        <ele>6</ele>
        <time>2023-05-04T09:33:31Z</time>
      </trkpt>
      <trkpt lat="49.20498" lon="-0.30961">
        <ele>6</ele>
        <time>2023-05-04T09:33:32Z</time>
      </trkpt>
      <trkpt lat="49.20498" lon="-0.30961">
        <ele>6</ele>
        <time>2023-05-04T09:33:33Z</time>
      </trkpt>
      <trkpt lat="49.20498" lon="-0.30961">
        <ele>6</ele>
        <time>2023-05-04T09:33:34Z</time>
      </trkpt>
      <trkpt lat="49.20498" lon="-0.30961">
        <ele>6</ele>
        <time>2023-05-04T09:33:35Z</time>
      </trkpt>
      <trkpt lat="49.20498" lon="-0.30961">
        <ele>6</ele>
        <time>2023-05-04T09:33:36Z</time>
      </trkpt>
      <trkpt lat="49.20498" lon="-0.30961">
        <ele>6</ele>
        <time>2023-05-04T09:33:37Z</time>
      </trkpt>
      <trkpt lat="49.20498" lon="-0.30961">
        <ele>6</ele>
        <time>2023-05-04T09:33:38Z</time>
      </trkpt>
      <trkpt lat="49.20498" lon="-0.30961">
        <ele>6</ele>
        <time>2023-05-04T09:33:39Z</time>
      </trkpt>
      <trkpt lat="49.20498" lon="-0.30961">
        <ele>6</ele>
        <time>2023-05-04T09:33:40Z</time>
      </trkpt>
      <trkpt lat="49.20498" lon="-0.30961">
        <ele>6</ele>
        <time>2023-05-04T09:33:41Z</time>
      </trkpt>
      <trkpt lat="49.20498" lon="-0.30961">
        <ele>6</ele>
        <time>2023-05-04T09:33:42Z</time>
      </trkpt>
      <trkpt lat="49.20498" lon="-0.30961">
        <ele>6</ele>
        <time>2023-05-04T09:33:43Z</time>
      </trkpt>
      <trkpt lat="49.20498" lon="-0.30961">
        <ele>6</ele>
        <time>2023-05-04T09:33:44Z</time>
      </trkpt>
      <trkpt lat="49.20498" lon="-0.30961">
        <ele>6</ele>
        <time>2023-05-04T09:33:45Z</time>
      </trkpt>
      <trkpt lat="49.20498" lon="-0.30961">
        <ele>6</ele>
        <time>2023-05-04T09:33:46Z</time>
      </trkpt>
      <trkpt lat="49.20498" lon="-0.30961">
        <ele>6</ele>
        <time>2023-05-04T09:33:47Z</time>
      </trkpt>
      <trkpt lat="49.20498" lon="-0.30961">
        <ele>6</ele>
        <time>2023-05-04T09:33:48Z</time>
      </trkpt>
      <trkpt lat="49.20498" lon="-0.30961">
        <ele>6</ele>
        <time>2023-05-04T09:33:49Z</time>
      </trkpt>
      <trkpt lat="49.20498" lon="-0.30961">
        <ele>6</ele>
        <time>2023-05-04T09:33:50Z</time>
      </trkpt>
      <trkpt lat="49.20498" lon="-0.30961">
        <ele>6</ele>
        <time>2023-05-04T09:33:51Z</time>
      </trkpt>
      <trkpt lat="49.20498" lon="-0.30961">
        <ele>6</ele>
        <time>2023-05-04T09:33:52Z</time>
      </trkpt>
      <trkpt lat="49.20498" lon="-0.30961">
        <ele>6</ele>
        <time>2023-05-04T09:33:53Z</time>
      </trkpt>
      <trkpt lat="49.20498" lon="-0.30961">
        <ele>6</ele>
        <time>2023-05-04T09:33:54Z</time>
      </trkpt>
      <trkpt lat="49.20498" lon="-0.30961">
        <ele>6</ele>
        <time>2023-05-04T09:33:55Z</time>
      </trkpt>
      <trkpt lat="49.20498" lon="-0.30961">
        <ele>6</ele>
        <time>2023-05-04T09:33:56Z</time>
      </trkpt>
      <trkpt lat="49.20498" lon="-0.30961">
        <ele>6</ele>
        <time>2023-05-04T09:33:57Z</time>
      </trkpt>
      <trkpt lat="49.20498" lon="-0.30961">
        <ele>6</ele>
        <time>2023-05-04T09:33:58Z</time>
      </trkpt>
      <trkpt lat="49.20498" lon="-0.30961">
        <ele>6</ele>
        <time>2023-05-04T09:33:59Z</time>
      </trkpt>
      <trkpt lat="49.20498" lon="-0.30961">
        <ele>6</ele>
        <time>2023-05-04T09:34:00Z</time>
      </trkpt>
      <trkpt lat="49.20498" lon="-0.30961">
        <ele>6</ele>
        <time>2023-05-04T09:34:01Z</time>
      </trkpt>
      <trkpt lat="49.20498" lon="-0.30961">
        <ele>6</ele>
        <time>2023-05-04T09:34:02Z</time>
      </trkpt>
      <trkpt lat="49.20498" lon="-0.30961">
        <ele>6</ele>
        <time>2023-05-04T09:34:03Z</time>
      </trkpt>
      <trkpt lat="49.20498" lon="-0.30961">
        <ele>6</ele>
        <time>2023-05-04T09:34:04Z</time>
      </trkpt>
      <trkpt lat="49.20498" lon="-0.30961">
        <ele>6</ele>
        <time>2023-05-04T09:34:05Z</time>
      </trkpt>
      <trkpt lat="49.20498" lon="-0.30961">
        <ele>6</ele>
        <time>2023-05-04T09:34:06Z</time>
      </trkpt>
      <trkpt lat="49.20498" lon="-0.30961">
        <ele>6</ele>
        <time>2023-05-04T09:34:07Z</time>
      </trkpt>
      <trkpt lat="49.20498" lon="-0.30961">
        <ele>6</ele>
        <time>2023-05-04T09:34:08Z</time>
      </trkpt>
      <trkpt lat="49.20498" lon="-0.30961">
        <ele>6</ele>
        <time>2023-05-04T09:34:09Z</time>
      </trkpt>
      <trkpt lat="49.20498" lon="-0.30961">
        <ele>6</ele>
        <time>2023-05-04T09:34:10Z</time>
      </trkpt>
      <trkpt lat="49.20498" lon="-0.30961">
        <ele>6</ele>
        <time>2023-05-04T09:34:11Z</time>
      </trkpt>
      <trkpt lat="49.20498" lon="-0.30961">
        <ele>6</ele>
        <time>2023-05-04T09:34:12Z</time>
      </trkpt>
      <trkpt lat="49.20498" lon="-0.30961">
        <ele>6</ele>
        <time>2023-05-04T09:34:13Z</time>
      </trkpt>
      <trkpt lat="49.20498" lon="-0.30961">
        <ele>6</ele>
        <time>2023-05-04T09:34:14Z</time>
      </trkpt>
      <trkpt lat="49.20498" lon="-0.30961">
        <ele>6</ele>
        <time>2023-05-04T09:34:15Z</time>
      </trkpt>
      <trkpt lat="49.20498" lon="-0.30961">
        <ele>6</ele>
        <time>2023-05-04T09:34:16Z</time>
      </trkpt>
      <trkpt lat="49.20498" lon="-0.30961">
        <ele>6</ele>
        <time>2023-05-04T09:34:17Z</time>
      </trkpt>
      <trkpt lat="49.20498" lon="-0.30961">
        <ele>6</ele>
        <time>2023-05-04T09:34:18Z</time>
      </trkpt>
      <trkpt lat="49.20498" lon="-0.30961">
        <ele>6</ele>
        <time>2023-05-04T09:34:19Z</time>
      </trkpt>
      <trkpt lat="49.20498" lon="-0.30961">
        <ele>6</ele>
        <time>2023-05-04T09:34:20Z</time>
      </trkpt>
      <trkpt lat="49.20498" lon="-0.30961">
        <ele>6</ele>
        <time>2023-05-04T09:34:21Z</time>
      </trkpt>
      <trkpt lat="49.20498" lon="-0.30961">
        <ele>6</ele>
        <time>2023-05-04T09:34:22Z</time>
      </trkpt>
      <trkpt lat="49.20498" lon="-0.30961">
        <ele>6</ele>
        <time>2023-05-04T09:34:23Z</time>
      </trkpt>
      <trkpt lat="49.20498" lon="-0.30961">
        <ele>6</ele>
        <time>2023-05-04T09:34:24Z</time>
      </trkpt>
      <trkpt lat="49.20498" lon="-0.30961">
        <ele>6</ele>
        <time>2023-05-04T09:34:25Z</time>
      </trkpt>
      <trkpt lat="49.20498" lon="-0.30961">
        <ele>6</ele>
        <time>2023-05-04T09:34:26Z</time>
      </trkpt>
      <trkpt lat="49.20498" lon="-0.30961">
        <ele>6</ele>
        <time>2023-05-04T09:34:27Z</time>
      </trkpt>
      <trkpt lat="49.20498" lon="-0.30961">
        <ele>6</ele>
        <time>2023-05-04T09:34:28Z</time>
      </trkpt>
      <trkpt lat="49.20498" lon="-0.30961">
        <ele>6</ele>
        <time>2023-05-04T09:34:29Z</time>
      </trkpt>
      <trkpt lat="49.20498" lon="-0.30961">
        <ele>6</ele>
        <time>2023-05-04T09:34:30Z</time>
      </trkpt>
      <trkpt lat="49.20498" lon="-0.30961">
        <ele>6</ele>
        <time>2023-05-04T09:34:31Z</time>
      </trkpt>
      <trkpt lat="49.20498" lon="-0.30961">
        <ele>6</ele>
        <time>2023-05-04T09:34:32Z</time>
      </trkpt>
      <trkpt lat="49.20498" lon="-0.30961">
        <ele>6</ele>
        <time>2023-05-04T09:34:33Z</time>
      </trkpt>
      <trkpt lat="49.20498" lon="-0.30961">
        <ele>6</ele>
        <time>2023-05-04T09:34:34Z</time>
      </trkpt>
      <trkpt lat="49.20498" lon="-0.30961">
        <ele>6</ele>
        <time>2023-05-04T09:34:35Z</time>
      </trkpt>
      <trkpt lat="49.20498" lon="-0.30961">
        <ele>6</ele>
        <time>2023-05-04T09:34:36Z</time>
      </trkpt>
      <trkpt lat="49.20498" lon="-0.30961">
        <ele>6</ele>
        <time>2023-05-04T09:34:37Z</time>
      </trkpt>
      <trkpt lat="49.20498" lon="-0.30961">
        <ele>6</ele>
        <time>2023-05-04T09:34:38Z</time>
      </trkpt>
      <trkpt lat="49.20498" lon="-0.30961">
        <ele>6</ele>
        <time>2023-05-04T09:34:39Z</time>
      </trkpt>
      <trkpt lat="49.20498" lon="-0.30961">
        <ele>6</ele>
        <time>2023-05-04T09:34:40Z</time>
      </trkpt>
      <trkpt lat="49.20498" lon="-0.30961">
        <ele>6</ele>
        <time>2023-05-04T09:34:41Z</time>
      </trkpt>
      <trkpt lat="49.20498" lon="-0.30961">
        <ele>6</ele>
        <time>2023-05-04T09:34:42Z</time>
      </trkpt>
      <trkpt lat="49.20498" lon="-0.30961">
        <ele>6</ele>
        <time>2023-05-04T09:34:43Z</time>
      </trkpt>
      <trkpt lat="49.20497" lon="-0.3096">
        <ele>6</ele>
        <time>2023-05-04T09:34:44Z</time>
      </trkpt>
      <trkpt lat="49.20495" lon="-0.3096">
        <ele>6</ele>
        <time>2023-05-04T09:34:45Z</time>
      </trkpt>
      <trkpt lat="49.20494" lon="-0.3096">
        <ele>6</ele>
        <time>2023-05-04T09:34:46Z</time>
      </trkpt>
      <trkpt lat="49.20492" lon="-0.30961">
        <ele>6</ele>
        <time>2023-05-04T09:34:47Z</time>
      </trkpt>
      <trkpt lat="49.20489" lon="-0.30961">
        <ele>6</ele>
        <time>2023-05-04T09:34:48Z</time>
      </trkpt>
      <trkpt lat="49.20486" lon="-0.30962">
        <ele>5.8</ele>
        <time>2023-05-04T09:34:49Z</time>
      </trkpt>
      <trkpt lat="49.20482" lon="-0.30963">
        <ele>5.8</ele>
        <time>2023-05-04T09:34:50Z</time>
      </trkpt>
      <trkpt lat="49.20478" lon="-0.30963">
        <ele>5.6</ele>
        <time>2023-05-04T09:34:51Z</time>
      </trkpt>
      <trkpt lat="49.20474" lon="-0.30964">
        <ele>5.6</ele>
        <time>2023-05-04T09:34:52Z</time>
      </trkpt>
      <trkpt lat="49.2047" lon="-0.30965">
        <ele>5.6</ele>
        <time>2023-05-04T09:34:53Z</time>
      </trkpt>
      <trkpt lat="49.20465" lon="-0.30966">
        <ele>5.4</ele>
        <time>2023-05-04T09:34:54Z</time>
      </trkpt>
      <trkpt lat="49.20461" lon="-0.30967">
        <ele>5.4</ele>
        <time>2023-05-04T09:34:55Z</time>
      </trkpt>
      <trkpt lat="49.20456" lon="-0.30968">
        <ele>5.2</ele>
        <time>2023-05-04T09:34:56Z</time>
      </trkpt>
      <trkpt lat="49.20451" lon="-0.30969">
        <ele>5</ele>
        <time>2023-05-04T09:34:57Z</time>
      </trkpt>
      <trkpt lat="49.20446" lon="-0.30969">
        <ele>5</ele>
        <time>2023-05-04T09:34:58Z</time>
      </trkpt>
      <trkpt lat="49.20441" lon="-0.3097">
        <ele>5</ele>
        <time>2023-05-04T09:34:59Z</time>
      </trkpt>
      <trkpt lat="49.20436" lon="-0.30969">
        <ele>4.8</ele>
        <time>2023-05-04T09:35:00Z</time>
      </trkpt>
      <trkpt lat="49.2043" lon="-0.30968">
        <ele>4.6</ele>
        <time>2023-05-04T09:35:01Z</time>
      </trkpt>
      <trkpt lat="49.20425" lon="-0.30966">
        <ele>4.6</ele>
        <time>2023-05-04T09:35:02Z</time>
      </trkpt>
      <trkpt lat="49.2042" lon="-0.30964">
        <ele>4.6</ele>
        <time>2023-05-04T09:35:03Z</time>
      </trkpt>
      <trkpt lat="49.20416" lon="-0.3096">
        <ele>4.6</ele>
        <time>2023-05-04T09:35:04Z</time>
      </trkpt>
      <trkpt lat="49.20412" lon="-0.30957">
        <ele>4.6</ele>
        <time>2023-05-04T09:35:05Z</time>
      </trkpt>
      <trkpt lat="49.20408" lon="-0.30952">
        <ele>4.6</ele>
        <time>2023-05-04T09:35:06Z</time>
      </trkpt>
      <trkpt lat="49.20404" lon="-0.30948">
        <ele>4.6</ele>
        <time>2023-05-04T09:35:07Z</time>
      </trkpt>
      <trkpt lat="49.20401" lon="-0.30943">
        <ele>4.6</ele>
        <time>2023-05-04T09:35:08Z</time>
      </trkpt>
      <trkpt lat="49.20398" lon="-0.30938">
        <ele>4.8</ele>
        <time>2023-05-04T09:35:09Z</time>
      </trkpt>
      <trkpt lat="49.20394" lon="-0.30933">
        <ele>5</ele>
        <time>2023-05-04T09:35:10Z</time>
      </trkpt>
      <trkpt lat="49.20391" lon="-0.30929">
        <ele>5</ele>
        <time>2023-05-04T09:35:11Z</time>
      </trkpt>
      <trkpt lat="49.20388" lon="-0.30924">
        <ele>5</ele>
        <time>2023-05-04T09:35:12Z</time>
      </trkpt>
      <trkpt lat="49.20384" lon="-0.30919">
        <ele>5</ele>
        <time>2023-05-04T09:35:13Z</time>
      </trkpt>
      <trkpt lat="49.20381" lon="-0.30915">
        <ele>5</ele>
        <time>2023-05-04T09:35:14Z</time>
      </trkpt>
      <trkpt lat="49.20377" lon="-0.3091">
        <ele>5</ele>
        <time>2023-05-04T09:35:15Z</time>
      </trkpt>
      <trkpt lat="49.20374" lon="-0.30907">
        <ele>5.2</ele>
        <time>2023-05-04T09:35:16Z</time>
      </trkpt>
      <trkpt lat="49.20372" lon="-0.30905">
        <ele>5.4</ele>
        <time>2023-05-04T09:35:17Z</time>
      </trkpt>
      <trkpt lat="49.2037" lon="-0.30903">
        <ele>5.4</ele>
        <time>2023-05-04T09:35:18Z</time>
      </trkpt>
      <trkpt lat="49.20367" lon="-0.30902">
        <ele>5.4</ele>
        <time>2023-05-04T09:35:19Z</time>
      </trkpt>
      <trkpt lat="49.20365" lon="-0.30902">
        <ele>5.4</ele>
        <time>2023-05-04T09:35:20Z</time>
      </trkpt>
      <trkpt lat="49.20362" lon="-0.30903">
        <ele>5.4</ele>
        <time>2023-05-04T09:35:21Z</time>
      </trkpt>
      <trkpt lat="49.20359" lon="-0.30906">
        <ele>5.4</ele>
        <time>2023-05-04T09:35:22Z</time>
      </trkpt>
      <trkpt lat="49.20356" lon="-0.3091">
        <ele>5.2</ele>
        <time>2023-05-04T09:35:23Z</time>
      </trkpt>
      <trkpt lat="49.20353" lon="-0.30916">
        <ele>5</ele>
        <time>2023-05-04T09:35:24Z</time>
      </trkpt>
      <trkpt lat="49.20349" lon="-0.30921">
        <ele>5</ele>
        <time>2023-05-04T09:35:25Z</time>
      </trkpt>
      <trkpt lat="49.20345" lon="-0.30926">
        <ele>5</ele>
        <time>2023-05-04T09:35:26Z</time>
      </trkpt>
      <trkpt lat="49.20341" lon="-0.30931">
        <ele>5</ele>
        <time>2023-05-04T09:35:27Z</time>
      </trkpt>
      <trkpt lat="49.20336" lon="-0.30937">
        <ele>5</ele>
        <time>2023-05-04T09:35:28Z</time>
      </trkpt>
      <trkpt lat="49.20332" lon="-0.30943">
        <ele>5</ele>
        <time>2023-05-04T09:35:29Z</time>
      </trkpt>
      <trkpt lat="49.20327" lon="-0.30949">
        <ele>5</ele>
        <time>2023-05-04T09:35:30Z</time>
      </trkpt>
      <trkpt lat="49.20323" lon="-0.30955">
        <ele>5</ele>
        <time>2023-05-04T09:35:31Z</time>
      </trkpt>
      <trkpt lat="49.20318" lon="-0.30961">
        <ele>5</ele>
        <time>2023-05-04T09:35:32Z</time>
      </trkpt>
      <trkpt lat="49.20313" lon="-0.30967">
        <ele>5</ele>
        <time>2023-05-04T09:35:33Z</time>
      </trkpt>
      <trkpt lat="49.20309" lon="-0.30973">
        <ele>5</ele>
        <time>2023-05-04T09:35:34Z</time>
      </trkpt>
      <trkpt lat="49.20304" lon="-0.3098">
        <ele>5</ele>
        <time>2023-05-04T09:35:35Z</time>
      </trkpt>
      <trkpt lat="49.20299" lon="-0.30986">
        <ele>5</ele>
        <time>2023-05-04T09:35:36Z</time>
      </trkpt>
      <trkpt lat="49.20294" lon="-0.30993">
        <ele>5</ele>
        <time>2023-05-04T09:35:37Z</time>
      </trkpt>
      <trkpt lat="49.2029" lon="-0.30999">
        <ele>5</ele>
        <time>2023-05-04T09:35:38Z</time>
      </trkpt>
      <trkpt lat="49.20285" lon="-0.31005">
        <ele>5</ele>
        <time>2023-05-04T09:35:39Z</time>
      </trkpt>
      <trkpt lat="49.2028" lon="-0.31012">
        <ele>5</ele>
        <time>2023-05-04T09:35:40Z</time>
      </trkpt>
      <trkpt lat="49.20275" lon="-0.31018">
        <ele>5</ele>
        <time>2023-05-04T09:35:41Z</time>
      </trkpt>
      <trkpt lat="49.20269" lon="-0.31023">
        <ele>4.8</ele>
        <time>2023-05-04T09:35:42Z</time>
      </trkpt>
      <trkpt lat="49.20264" lon="-0.31029">
        <ele>4.6</ele>
        <time>2023-05-04T09:35:43Z</time>
      </trkpt>
      <trkpt lat="49.20258" lon="-0.31034">
        <ele>4.6</ele>
        <time>2023-05-04T09:35:44Z</time>
      </trkpt>
      <trkpt lat="49.20253" lon="-0.31039">
        <ele>4.6</ele>
        <time>2023-05-04T09:35:45Z</time>
      </trkpt>
      <trkpt lat="49.20247" lon="-0.31044">
        <ele>4.6</ele>
        <time>2023-05-04T09:35:46Z</time>
      </trkpt>
      <trkpt lat="49.20241" lon="-0.31048">
        <ele>4.6</ele>
        <time>2023-05-04T09:35:47Z</time>
      </trkpt>
      <trkpt lat="49.20235" lon="-0.31052">
        <ele>4.6</ele>
        <time>2023-05-04T09:35:48Z</time>
      </trkpt>
      <trkpt lat="49.20229" lon="-0.31056">
        <ele>4.8</ele>
        <time>2023-05-04T09:35:49Z</time>
      </trkpt>
      <trkpt lat="49.20222" lon="-0.31059">
        <ele>5</ele>
        <time>2023-05-04T09:35:50Z</time>
      </trkpt>
      <trkpt lat="49.20216" lon="-0.31062">
        <ele>5</ele>
        <time>2023-05-04T09:35:51Z</time>
      </trkpt>
      <trkpt lat="49.20209" lon="-0.31065">
        <ele>5.2</ele>
        <time>2023-05-04T09:35:52Z</time>
      </trkpt>
      <trkpt lat="49.20203" lon="-0.31067">
        <ele>5.4</ele>
        <time>2023-05-04T09:35:53Z</time>
      </trkpt>
      <trkpt lat="49.20196" lon="-0.31069">
        <ele>5.6</ele>
        <time>2023-05-04T09:35:54Z</time>
      </trkpt>
      <trkpt lat="49.20189" lon="-0.31071">
        <ele>5.6</ele>
        <time>2023-05-04T09:35:55Z</time>
      </trkpt>
      <trkpt lat="49.20182" lon="-0.31073">
        <ele>5.6</ele>
        <time>2023-05-04T09:35:56Z</time>
      </trkpt>
      <trkpt lat="49.20175" lon="-0.31075">
        <ele>6</ele>
        <time>2023-05-04T09:35:57Z</time>
      </trkpt>
      <trkpt lat="49.20168" lon="-0.31077">
        <ele>6</ele>
        <time>2023-05-04T09:35:58Z</time>
      </trkpt>
      <trkpt lat="49.20161" lon="-0.31078">
        <ele>6</ele>
        <time>2023-05-04T09:35:59Z</time>
      </trkpt>
      <trkpt lat="49.20154" lon="-0.3108">
        <ele>6</ele>
        <time>2023-05-04T09:36:00Z</time>
      </trkpt>
      <trkpt lat="49.20147" lon="-0.31082">
        <ele>6</ele>
        <time>2023-05-04T09:36:01Z</time>
      </trkpt>
      <trkpt lat="49.2014" lon="-0.31084">
        <ele>6</ele>
        <time>2023-05-04T09:36:02Z</time>
      </trkpt>
      <trkpt lat="49.20133" lon="-0.31085">
        <ele>6</ele>
        <time>2023-05-04T09:36:03Z</time>
      </trkpt>
      <trkpt lat="49.20126" lon="-0.31087">
        <ele>5.8</ele>
        <time>2023-05-04T09:36:04Z</time>
      </trkpt>
      <trkpt lat="49.20119" lon="-0.31089">
        <ele>5.8</ele>
        <time>2023-05-04T09:36:05Z</time>
      </trkpt>
      <trkpt lat="49.20112" lon="-0.3109">
        <ele>5.6</ele>
        <time>2023-05-04T09:36:06Z</time>
      </trkpt>
      <trkpt lat="49.20106" lon="-0.31092">
        <ele>5.6</ele>
        <time>2023-05-04T09:36:07Z</time>
      </trkpt>
      <trkpt lat="49.201" lon="-0.31093">
        <ele>5.6</ele>
        <time>2023-05-04T09:36:08Z</time>
      </trkpt>
      <trkpt lat="49.20094" lon="-0.31095">
        <ele>5.6</ele>
        <time>2023-05-04T09:36:09Z</time>
      </trkpt>
      <trkpt lat="49.20088" lon="-0.31096">
        <ele>5.4</ele>
        <time>2023-05-04T09:36:10Z</time>
      </trkpt>
      <trkpt lat="49.20081" lon="-0.31097">
        <ele>5.4</ele>
        <time>2023-05-04T09:36:11Z</time>
      </trkpt>
      <trkpt lat="49.20075" lon="-0.31099">
        <ele>5.4</ele>
        <time>2023-05-04T09:36:12Z</time>
      </trkpt>
      <trkpt lat="49.20069" lon="-0.311">
        <ele>5.2</ele>
        <time>2023-05-04T09:36:13Z</time>
      </trkpt>
      <trkpt lat="49.20062" lon="-0.31102">
        <ele>5.2</ele>
        <time>2023-05-04T09:36:14Z</time>
      </trkpt>
      <trkpt lat="49.20056" lon="-0.31104">
        <ele>5</ele>
        <time>2023-05-04T09:36:15Z</time>
      </trkpt>
      <trkpt lat="49.20049" lon="-0.31106">
        <ele>5</ele>
        <time>2023-05-04T09:36:16Z</time>
      </trkpt>
      <trkpt lat="49.20042" lon="-0.31108">
        <ele>5</ele>
        <time>2023-05-04T09:36:17Z</time>
      </trkpt>
      <trkpt lat="49.20036" lon="-0.3111">
        <ele>5</ele>
        <time>2023-05-04T09:36:18Z</time>
      </trkpt>
      <trkpt lat="49.20029" lon="-0.31112">
        <ele>5</ele>
        <time>2023-05-04T09:36:19Z</time>
      </trkpt>
      <trkpt lat="49.20022" lon="-0.31114">
        <ele>4.8</ele>
        <time>2023-05-04T09:36:20Z</time>
      </trkpt>
      <trkpt lat="49.20015" lon="-0.31116">
        <ele>4.8</ele>
        <time>2023-05-04T09:36:21Z</time>
      </trkpt>
      <trkpt lat="49.20009" lon="-0.31117">
        <ele>4.6</ele>
        <time>2023-05-04T09:36:22Z</time>
      </trkpt>
      <trkpt lat="49.20002" lon="-0.31119">
        <ele>4.6</ele>
        <time>2023-05-04T09:36:23Z</time>
      </trkpt>
      <trkpt lat="49.19994" lon="-0.3112">
        <ele>4.8</ele>
        <time>2023-05-04T09:36:24Z</time>
      </trkpt>
      <trkpt lat="49.19987" lon="-0.31122">
        <ele>5</ele>
        <time>2023-05-04T09:36:25Z</time>
      </trkpt>
      <trkpt lat="49.1998" lon="-0.31124">
        <ele>5</ele>
        <time>2023-05-04T09:36:26Z</time>
      </trkpt>
      <trkpt lat="49.19973" lon="-0.31125">
        <ele>5</ele>
        <time>2023-05-04T09:36:27Z</time>
      </trkpt>
      <trkpt lat="49.19967" lon="-0.31126">
        <ele>5.4</ele>
        <time>2023-05-04T09:36:28Z</time>
      </trkpt>
      <trkpt lat="49.19961" lon="-0.31127">
        <ele>5.4</ele>
        <time>2023-05-04T09:36:29Z</time>
      </trkpt>
      <trkpt lat="49.19955" lon="-0.31127">
        <ele>5.6</ele>
        <time>2023-05-04T09:36:30Z</time>
      </trkpt>
      <trkpt lat="49.19951" lon="-0.31128">
        <ele>5.6</ele>
        <time>2023-05-04T09:36:31Z</time>
      </trkpt>
      <trkpt lat="49.19947" lon="-0.31129">
        <ele>5.6</ele>
        <time>2023-05-04T09:36:32Z</time>
      </trkpt>
      <trkpt lat="49.19945" lon="-0.31129">
        <ele>5.6</ele>
        <time>2023-05-04T09:36:33Z</time>
      </trkpt>
      <trkpt lat="49.19942" lon="-0.3113">
        <ele>5.6</ele>
        <time>2023-05-04T09:36:34Z</time>
      </trkpt>
      <trkpt lat="49.1994" lon="-0.3113">
        <ele>5.8</ele>
        <time>2023-05-04T09:36:35Z</time>
      </trkpt>
      <trkpt lat="49.19937" lon="-0.3113">
        <ele>5.8</ele>
        <time>2023-05-04T09:36:36Z</time>
      </trkpt>
      <trkpt lat="49.19933" lon="-0.31129">
        <ele>6</ele>
        <time>2023-05-04T09:36:37Z</time>
      </trkpt>
      <trkpt lat="49.19929" lon="-0.31128">
        <ele>6</ele>
        <time>2023-05-04T09:36:38Z</time>
      </trkpt>
      <trkpt lat="49.19925" lon="-0.31126">
        <ele>6.2</ele>
        <time>2023-05-04T09:36:39Z</time>
      </trkpt>
      <trkpt lat="49.19921" lon="-0.31125">
        <ele>6.4</ele>
        <time>2023-05-04T09:36:40Z</time>
      </trkpt>
      <trkpt lat="49.19916" lon="-0.31125">
        <ele>6.6</ele>
        <time>2023-05-04T09:36:41Z</time>
      </trkpt>
      <trkpt lat="49.19911" lon="-0.31125">
        <ele>6.6</ele>
        <time>2023-05-04T09:36:42Z</time>
      </trkpt>
      <trkpt lat="49.19906" lon="-0.31126">
        <ele>6.6</ele>
        <time>2023-05-04T09:36:43Z</time>
      </trkpt>
      <trkpt lat="49.199" lon="-0.31126">
        <ele>6.8</ele>
        <time>2023-05-04T09:36:44Z</time>
      </trkpt>
      <trkpt lat="49.19894" lon="-0.31127">
        <ele>7</ele>
        <time>2023-05-04T09:36:45Z</time>
      </trkpt>
      <trkpt lat="49.19888" lon="-0.31127">
        <ele>7</ele>
        <time>2023-05-04T09:36:46Z</time>
      </trkpt>
      <trkpt lat="49.19882" lon="-0.31128">
        <ele>7.2</ele>
        <time>2023-05-04T09:36:47Z</time>
      </trkpt>
      <trkpt lat="49.19876" lon="-0.31128">
        <ele>7.4</ele>
        <time>2023-05-04T09:36:48Z</time>
      </trkpt>
      <trkpt lat="49.1987" lon="-0.31129">
        <ele>7.4</ele>
        <time>2023-05-04T09:36:49Z</time>
      </trkpt>
      <trkpt lat="49.19864" lon="-0.31129">
        <ele>7.6</ele>
        <time>2023-05-04T09:36:50Z</time>
      </trkpt>
      <trkpt lat="49.19858" lon="-0.31129">
        <ele>7.6</ele>
        <time>2023-05-04T09:36:51Z</time>
      </trkpt>
      <trkpt lat="49.19852" lon="-0.31129">
        <ele>7.8</ele>
        <time>2023-05-04T09:36:52Z</time>
      </trkpt>
      <trkpt lat="49.19846" lon="-0.31129">
        <ele>8</ele>
        <time>2023-05-04T09:36:53Z</time>
      </trkpt>
      <trkpt lat="49.1984" lon="-0.31129">
        <ele>8.2</ele>
        <time>2023-05-04T09:36:54Z</time>
      </trkpt>
      <trkpt lat="49.19834" lon="-0.31128">
        <ele>8.2</ele>
        <time>2023-05-04T09:36:55Z</time>
      </trkpt>
      <trkpt lat="49.19828" lon="-0.31128">
        <ele>8.4</ele>
        <time>2023-05-04T09:36:56Z</time>
      </trkpt>
      <trkpt lat="49.19821" lon="-0.31128">
        <ele>8.6</ele>
        <time>2023-05-04T09:36:57Z</time>
      </trkpt>
      <trkpt lat="49.19815" lon="-0.31127">
        <ele>8.8</ele>
        <time>2023-05-04T09:36:58Z</time>
      </trkpt>
      <trkpt lat="49.19809" lon="-0.31127">
        <ele>9</ele>
        <time>2023-05-04T09:36:59Z</time>
      </trkpt>
      <trkpt lat="49.19803" lon="-0.31127">
        <ele>9.2</ele>
        <time>2023-05-04T09:37:00Z</time>
      </trkpt>
      <trkpt lat="49.19797" lon="-0.31128">
        <ele>9.4</ele>
        <time>2023-05-04T09:37:01Z</time>
      </trkpt>
      <trkpt lat="49.19791" lon="-0.31128">
        <ele>9.6</ele>
        <time>2023-05-04T09:37:02Z</time>
      </trkpt>
      <trkpt lat="49.19785" lon="-0.31128">
        <ele>9.6</ele>
        <time>2023-05-04T09:37:03Z</time>
      </trkpt>
      <trkpt lat="49.19778" lon="-0.31129">
        <ele>9.8</ele>
        <time>2023-05-04T09:37:04Z</time>
      </trkpt>
      <trkpt lat="49.19772" lon="-0.31129">
        <ele>9.8</ele>
        <time>2023-05-04T09:37:05Z</time>
      </trkpt>
      <trkpt lat="49.19766" lon="-0.31129">
        <ele>10.2</ele>
        <time>2023-05-04T09:37:06Z</time>
      </trkpt>
      <trkpt lat="49.1976" lon="-0.31129">
        <ele>10.4</ele>
        <time>2023-05-04T09:37:07Z</time>
      </trkpt>
      <trkpt lat="49.19754" lon="-0.31129">
        <ele>10.6</ele>
        <time>2023-05-04T09:37:08Z</time>
      </trkpt>
      <trkpt lat="49.19747" lon="-0.31129">
        <ele>10.6</ele>
        <time>2023-05-04T09:37:09Z</time>
      </trkpt>
      <trkpt lat="49.19741" lon="-0.31128">
        <ele>10.4</ele>
        <time>2023-05-04T09:37:10Z</time>
      </trkpt>
      <trkpt lat="49.19735" lon="-0.31129">
        <ele>10.2</ele>
        <time>2023-05-04T09:37:11Z</time>
      </trkpt>
      <trkpt lat="49.19729" lon="-0.31129">
        <ele>10</ele>
        <time>2023-05-04T09:37:12Z</time>
      </trkpt>
      <trkpt lat="49.19723" lon="-0.31129">
        <ele>9.8</ele>
        <time>2023-05-04T09:37:13Z</time>
      </trkpt>
      <trkpt lat="49.19716" lon="-0.3113">
        <ele>9.6</ele>
        <time>2023-05-04T09:37:14Z</time>
      </trkpt>
      <trkpt lat="49.1971" lon="-0.3113">
        <ele>9.4</ele>
        <time>2023-05-04T09:37:15Z</time>
      </trkpt>
      <trkpt lat="49.19704" lon="-0.31131">
        <ele>9.2</ele>
        <time>2023-05-04T09:37:16Z</time>
      </trkpt>
      <trkpt lat="49.19697" lon="-0.31131">
        <ele>9</ele>
        <time>2023-05-04T09:37:17Z</time>
      </trkpt>
      <trkpt lat="49.19691" lon="-0.31132">
        <ele>8.8</ele>
        <time>2023-05-04T09:37:18Z</time>
      </trkpt>
      <trkpt lat="49.19685" lon="-0.31133">
        <ele>8.6</ele>
        <time>2023-05-04T09:37:19Z</time>
      </trkpt>
      <trkpt lat="49.19678" lon="-0.31133">
        <ele>8.4</ele>
        <time>2023-05-04T09:37:20Z</time>
      </trkpt>
      <trkpt lat="49.19672" lon="-0.31134">
        <ele>8</ele>
        <time>2023-05-04T09:37:21Z</time>
      </trkpt>
      <trkpt lat="49.19666" lon="-0.31135">
        <ele>7.8</ele>
        <time>2023-05-04T09:37:22Z</time>
      </trkpt>
      <trkpt lat="49.1966" lon="-0.31136">
        <ele>8</ele>
        <time>2023-05-04T09:37:23Z</time>
      </trkpt>
      <trkpt lat="49.19653" lon="-0.31137">
        <ele>8</ele>
        <time>2023-05-04T09:37:24Z</time>
      </trkpt>
      <trkpt lat="49.19647" lon="-0.31138">
        <ele>8</ele>
        <time>2023-05-04T09:37:25Z</time>
      </trkpt>
      <trkpt lat="49.19641" lon="-0.31139">
        <ele>8.2</ele>
        <time>2023-05-04T09:37:26Z</time>
      </trkpt>
      <trkpt lat="49.19635" lon="-0.3114">
        <ele>8.2</ele>
        <time>2023-05-04T09:37:27Z</time>
      </trkpt>
      <trkpt lat="49.19629" lon="-0.31141">
        <ele>8.2</ele>
        <time>2023-05-04T09:37:28Z</time>
      </trkpt>
      <trkpt lat="49.19622" lon="-0.31142">
        <ele>8.2</ele>
        <time>2023-05-04T09:37:29Z</time>
      </trkpt>
      <trkpt lat="49.19616" lon="-0.31143">
        <ele>8.2</ele>
        <time>2023-05-04T09:37:30Z</time>
      </trkpt>
      <trkpt lat="49.1961" lon="-0.31144">
        <ele>8.2</ele>
        <time>2023-05-04T09:37:31Z</time>
      </trkpt>
      <trkpt lat="49.19604" lon="-0.31146">
        <ele>8.2</ele>
        <time>2023-05-04T09:37:32Z</time>
      </trkpt>
      <trkpt lat="49.19598" lon="-0.31147">
        <ele>8.2</ele>
        <time>2023-05-04T09:37:33Z</time>
      </trkpt>
      <trkpt lat="49.19592" lon="-0.31148">
        <ele>8.2</ele>
        <time>2023-05-04T09:37:34Z</time>
      </trkpt>
      <trkpt lat="49.19585" lon="-0.3115">
        <ele>8.2</ele>
        <time>2023-05-04T09:37:35Z</time>
      </trkpt>
      <trkpt lat="49.19579" lon="-0.31152">
        <ele>8.2</ele>
        <time>2023-05-04T09:37:36Z</time>
      </trkpt>
      <trkpt lat="49.19573" lon="-0.31153">
        <ele>8.2</ele>
        <time>2023-05-04T09:37:37Z</time>
      </trkpt>
      <trkpt lat="49.19567" lon="-0.31155">
        <ele>8.2</ele>
        <time>2023-05-04T09:37:38Z</time>
      </trkpt>
      <trkpt lat="49.1956" lon="-0.31158">
        <ele>8</ele>
        <time>2023-05-04T09:37:39Z</time>
      </trkpt>
      <trkpt lat="49.19554" lon="-0.3116">
        <ele>8</ele>
        <time>2023-05-04T09:37:40Z</time>
      </trkpt>
      <trkpt lat="49.19548" lon="-0.31164">
        <ele>7.6</ele>
        <time>2023-05-04T09:37:41Z</time>
      </trkpt>
      <trkpt lat="49.19543" lon="-0.31167">
        <ele>7.6</ele>
        <time>2023-05-04T09:37:42Z</time>
      </trkpt>
      <trkpt lat="49.19537" lon="-0.31171">
        <ele>7.6</ele>
        <time>2023-05-04T09:37:43Z</time>
      </trkpt>
      <trkpt lat="49.19531" lon="-0.31175">
        <ele>7.6</ele>
        <time>2023-05-04T09:37:44Z</time>
      </trkpt>
      <trkpt lat="49.19525" lon="-0.31179">
        <ele>7.6</ele>
        <time>2023-05-04T09:37:45Z</time>
      </trkpt>
      <trkpt lat="49.1952" lon="-0.31183">
        <ele>7.4</ele>
        <time>2023-05-04T09:37:46Z</time>
      </trkpt>
      <trkpt lat="49.19514" lon="-0.31188">
        <ele>7.4</ele>
        <time>2023-05-04T09:37:47Z</time>
      </trkpt>
      <trkpt lat="49.19509" lon="-0.31193">
        <ele>7</ele>
        <time>2023-05-04T09:37:48Z</time>
      </trkpt>
      <trkpt lat="49.19503" lon="-0.31198">
        <ele>6.8</ele>
        <time>2023-05-04T09:37:49Z</time>
      </trkpt>
      <trkpt lat="49.19498" lon="-0.31203">
        <ele>6.6</ele>
        <time>2023-05-04T09:37:50Z</time>
      </trkpt>
      <trkpt lat="49.19492" lon="-0.31208">
        <ele>6.2</ele>
        <time>2023-05-04T09:37:51Z</time>
      </trkpt>
      <trkpt lat="49.19487" lon="-0.31213">
        <ele>6</ele>
        <time>2023-05-04T09:37:52Z</time>
      </trkpt>
      <trkpt lat="49.19481" lon="-0.31219">
        <ele>5.6</ele>
        <time>2023-05-04T09:37:53Z</time>
      </trkpt>
      <trkpt lat="49.19476" lon="-0.31224">
        <ele>5.4</ele>
        <time>2023-05-04T09:37:54Z</time>
      </trkpt>
      <trkpt lat="49.1947" lon="-0.3123">
        <ele>5.2</ele>
        <time>2023-05-04T09:37:55Z</time>
      </trkpt>
      <trkpt lat="49.19465" lon="-0.31236">
        <ele>5</ele>
        <time>2023-05-04T09:37:56Z</time>
      </trkpt>
      <trkpt lat="49.19459" lon="-0.31241">
        <ele>4.6</ele>
        <time>2023-05-04T09:37:57Z</time>
      </trkpt>
      <trkpt lat="49.19453" lon="-0.31247">
        <ele>4.4</ele>
        <time>2023-05-04T09:37:58Z</time>
      </trkpt>
      <trkpt lat="49.19448" lon="-0.31252">
        <ele>4.4</ele>
        <time>2023-05-04T09:37:59Z</time>
      </trkpt>
      <trkpt lat="49.19442" lon="-0.31257">
        <ele>4.6</ele>
        <time>2023-05-04T09:38:00Z</time>
      </trkpt>
      <trkpt lat="49.19436" lon="-0.31262">
        <ele>4.6</ele>
        <time>2023-05-04T09:38:01Z</time>
      </trkpt>
      <trkpt lat="49.19429" lon="-0.31267">
        <ele>4.8</ele>
        <time>2023-05-04T09:38:02Z</time>
      </trkpt>
      <trkpt lat="49.19423" lon="-0.31271">
        <ele>5</ele>
        <time>2023-05-04T09:38:03Z</time>
      </trkpt>
      <trkpt lat="49.19417" lon="-0.31274">
        <ele>5</ele>
        <time>2023-05-04T09:38:04Z</time>
      </trkpt>
      <trkpt lat="49.1941" lon="-0.31277">
        <ele>5</ele>
        <time>2023-05-04T09:38:05Z</time>
      </trkpt>
      <trkpt lat="49.19404" lon="-0.3128">
        <ele>5</ele>
        <time>2023-05-04T09:38:06Z</time>
      </trkpt>
      <trkpt lat="49.19397" lon="-0.31282">
        <ele>5.2</ele>
        <time>2023-05-04T09:38:07Z</time>
      </trkpt>
      <trkpt lat="49.1939" lon="-0.31284">
        <ele>5.2</ele>
        <time>2023-05-04T09:38:08Z</time>
      </trkpt>
      <trkpt lat="49.19384" lon="-0.31285">
        <ele>5.4</ele>
        <time>2023-05-04T09:38:09Z</time>
      </trkpt>
      <trkpt lat="49.19377" lon="-0.31286">
        <ele>5.4</ele>
        <time>2023-05-04T09:38:10Z</time>
      </trkpt>
      <trkpt lat="49.1937" lon="-0.31286">
        <ele>5.4</ele>
        <time>2023-05-04T09:38:11Z</time>
      </trkpt>
      <trkpt lat="49.19364" lon="-0.31286">
        <ele>5.6</ele>
        <time>2023-05-04T09:38:12Z</time>
      </trkpt>
      <trkpt lat="49.19357" lon="-0.31285">
        <ele>5.6</ele>
        <time>2023-05-04T09:38:13Z</time>
      </trkpt>
      <trkpt lat="49.1935" lon="-0.31284">
        <ele>5.6</ele>
        <time>2023-05-04T09:38:14Z</time>
      </trkpt>
      <trkpt lat="49.19344" lon="-0.31282">
        <ele>5.6</ele>
        <time>2023-05-04T09:38:15Z</time>
      </trkpt>
      <trkpt lat="49.19338" lon="-0.3128">
        <ele>6</ele>
        <time>2023-05-04T09:38:16Z</time>
      </trkpt>
      <trkpt lat="49.19331" lon="-0.31278">
        <ele>6</ele>
        <time>2023-05-04T09:38:17Z</time>
      </trkpt>
      <trkpt lat="49.19325" lon="-0.31275">
        <ele>6.4</ele>
        <time>2023-05-04T09:38:18Z</time>
      </trkpt>
      <trkpt lat="49.19319" lon="-0.31272">
        <ele>6.6</ele>
        <time>2023-05-04T09:38:19Z</time>
      </trkpt>
      <trkpt lat="49.19313" lon="-0.31268">
        <ele>7</ele>
        <time>2023-05-04T09:38:20Z</time>
      </trkpt>
      <trkpt lat="49.19307" lon="-0.31265">
        <ele>7.2</ele>
        <time>2023-05-04T09:38:21Z</time>
      </trkpt>
      <trkpt lat="49.19301" lon="-0.31262">
        <ele>7.4</ele>
        <time>2023-05-04T09:38:22Z</time>
      </trkpt>
      <trkpt lat="49.19295" lon="-0.31258">
        <ele>7.6</ele>
        <time>2023-05-04T09:38:23Z</time>
      </trkpt>
      <trkpt lat="49.19289" lon="-0.31255">
        <ele>8</ele>
        <time>2023-05-04T09:38:24Z</time>
      </trkpt>
      <trkpt lat="49.19283" lon="-0.31252">
        <ele>8.2</ele>
        <time>2023-05-04T09:38:25Z</time>
      </trkpt>
      <trkpt lat="49.19277" lon="-0.31249">
        <ele>8.6</ele>
        <time>2023-05-04T09:38:26Z</time>
      </trkpt>
      <trkpt lat="49.19271" lon="-0.31246">
        <ele>9</ele>
        <time>2023-05-04T09:38:27Z</time>
      </trkpt>
      <trkpt lat="49.19264" lon="-0.31243">
        <ele>9.6</ele>
        <time>2023-05-04T09:38:28Z</time>
      </trkpt>
      <trkpt lat="49.19258" lon="-0.3124">
        <ele>10</ele>
        <time>2023-05-04T09:38:29Z</time>
      </trkpt>
      <trkpt lat="49.19252" lon="-0.31238">
        <ele>10.6</ele>
        <time>2023-05-04T09:38:30Z</time>
      </trkpt>
      <trkpt lat="49.19245" lon="-0.31235">
        <ele>11.2</ele>
        <time>2023-05-04T09:38:31Z</time>
      </trkpt>
      <trkpt lat="49.19239" lon="-0.31233">
        <ele>11.8</ele>
        <time>2023-05-04T09:38:32Z</time>
      </trkpt>
      <trkpt lat="49.19233" lon="-0.3123">
        <ele>12.4</ele>
        <time>2023-05-04T09:38:33Z</time>
      </trkpt>
      <trkpt lat="49.19227" lon="-0.31228">
        <ele>12.8</ele>
        <time>2023-05-04T09:38:34Z</time>
      </trkpt>
      <trkpt lat="49.1922" lon="-0.31227">
        <ele>13.4</ele>
        <time>2023-05-04T09:38:35Z</time>
      </trkpt>
      <trkpt lat="49.19214" lon="-0.31225">
        <ele>13.8</ele>
        <time>2023-05-04T09:38:36Z</time>
      </trkpt>
      <trkpt lat="49.19208" lon="-0.31225">
        <ele>14.2</ele>
        <time>2023-05-04T09:38:37Z</time>
      </trkpt>
      <trkpt lat="49.19201" lon="-0.31224">
        <ele>14.6</ele>
        <time>2023-05-04T09:38:38Z</time>
      </trkpt>
      <trkpt lat="49.19195" lon="-0.31224">
        <ele>14.8</ele>
        <time>2023-05-04T09:38:39Z</time>
      </trkpt>
      <trkpt lat="49.19189" lon="-0.31224">
        <ele>15.2</ele>
        <time>2023-05-04T09:38:40Z</time>
      </trkpt>
      <trkpt lat="49.19182" lon="-0.31224">
        <ele>15.6</ele>
        <time>2023-05-04T09:38:41Z</time>
      </trkpt>
      <trkpt lat="49.19176" lon="-0.31224">
        <ele>15.6</ele>
        <time>2023-05-04T09:38:42Z</time>
      </trkpt>
      <trkpt lat="49.19169" lon="-0.31225">
        <ele>15.8</ele>
        <time>2023-05-04T09:38:43Z</time>
      </trkpt>
      <trkpt lat="49.19163" lon="-0.31225">
        <ele>16.2</ele>
        <time>2023-05-04T09:38:44Z</time>
      </trkpt>
      <trkpt lat="49.19157" lon="-0.31226">
        <ele>16.2</ele>
        <time>2023-05-04T09:38:45Z</time>
      </trkpt>
      <trkpt lat="49.1915" lon="-0.31226">
        <ele>16.2</ele>
        <time>2023-05-04T09:38:46Z</time>
      </trkpt>
      <trkpt lat="49.19144" lon="-0.31227">
        <ele>16.6</ele>
        <time>2023-05-04T09:38:47Z</time>
      </trkpt>
      <trkpt lat="49.19137" lon="-0.31227">
        <ele>16.6</ele>
        <time>2023-05-04T09:38:48Z</time>
      </trkpt>
      <trkpt lat="49.19131" lon="-0.31228">
        <ele>16.8</ele>
        <time>2023-05-04T09:38:49Z</time>
      </trkpt>
      <trkpt lat="49.19125" lon="-0.31228">
        <ele>16.8</ele>
        <time>2023-05-04T09:38:50Z</time>
      </trkpt>
      <trkpt lat="49.19118" lon="-0.31229">
        <ele>17</ele>
        <time>2023-05-04T09:38:51Z</time>
      </trkpt>
      <trkpt lat="49.19112" lon="-0.3123">
        <ele>17.2</ele>
        <time>2023-05-04T09:38:52Z</time>
      </trkpt>
      <trkpt lat="49.19105" lon="-0.3123">
        <ele>17.2</ele>
        <time>2023-05-04T09:38:53Z</time>
      </trkpt>
      <trkpt lat="49.19099" lon="-0.31231">
        <ele>17.2</ele>
        <time>2023-05-04T09:38:54Z</time>
      </trkpt>
      <trkpt lat="49.19093" lon="-0.31232">
        <ele>17.6</ele>
        <time>2023-05-04T09:38:55Z</time>
      </trkpt>
      <trkpt lat="49.19086" lon="-0.31233">
        <ele>17.6</ele>
        <time>2023-05-04T09:38:56Z</time>
      </trkpt>
      <trkpt lat="49.1908" lon="-0.31234">
        <ele>17.6</ele>
        <time>2023-05-04T09:38:57Z</time>
      </trkpt>
      <trkpt lat="49.19074" lon="-0.31235">
        <ele>17.2</ele>
        <time>2023-05-04T09:38:58Z</time>
      </trkpt>
      <trkpt lat="49.19067" lon="-0.31236">
        <ele>17.2</ele>
        <time>2023-05-04T09:38:59Z</time>
      </trkpt>
      <trkpt lat="49.19061" lon="-0.31237">
        <ele>16.8</ele>
        <time>2023-05-04T09:39:00Z</time>
      </trkpt>
      <trkpt lat="49.19054" lon="-0.31238">
        <ele>16.6</ele>
        <time>2023-05-04T09:39:01Z</time>
      </trkpt>
      <trkpt lat="49.19048" lon="-0.3124">
        <ele>16.2</ele>
        <time>2023-05-04T09:39:02Z</time>
      </trkpt>
      <trkpt lat="49.19041" lon="-0.31241">
        <ele>16.2</ele>
        <time>2023-05-04T09:39:03Z</time>
      </trkpt>
      <trkpt lat="49.19035" lon="-0.31242">
        <ele>15.8</ele>
        <time>2023-05-04T09:39:04Z</time>
      </trkpt>
      <trkpt lat="49.19029" lon="-0.31244">
        <ele>15.6</ele>
        <time>2023-05-04T09:39:05Z</time>
      </trkpt>
      <trkpt lat="49.19022" lon="-0.31245">
        <ele>15.2</ele>
        <time>2023-05-04T09:39:06Z</time>
      </trkpt>
      <trkpt lat="49.19016" lon="-0.31247">
        <ele>14.8</ele>
        <time>2023-05-04T09:39:07Z</time>
      </trkpt>
      <trkpt lat="49.19009" lon="-0.31248">
        <ele>14.6</ele>
        <time>2023-05-04T09:39:08Z</time>
      </trkpt>
      <trkpt lat="49.19003" lon="-0.3125">
        <ele>14.2</ele>
        <time>2023-05-04T09:39:09Z</time>
      </trkpt>
      <trkpt lat="49.18997" lon="-0.31251">
        <ele>14.2</ele>
        <time>2023-05-04T09:39:10Z</time>
      </trkpt>
      <trkpt lat="49.18991" lon="-0.31253">
        <ele>14.2</ele>
        <time>2023-05-04T09:39:11Z</time>
      </trkpt>
      <trkpt lat="49.18985" lon="-0.31255">
        <ele>14.4</ele>
        <time>2023-05-04T09:39:12Z</time>
      </trkpt>
      <trkpt lat="49.18979" lon="-0.31257">
        <ele>14.4</ele>
        <time>2023-05-04T09:39:13Z</time>
      </trkpt>
      <trkpt lat="49.18974" lon="-0.31259">
        <ele>14.4</ele>
        <time>2023-05-04T09:39:14Z</time>
      </trkpt>
      <trkpt lat="49.18968" lon="-0.31261">
        <ele>14.6</ele>
        <time>2023-05-04T09:39:15Z</time>
      </trkpt>
      <trkpt lat="49.18962" lon="-0.31263">
        <ele>14.6</ele>
        <time>2023-05-04T09:39:16Z</time>
      </trkpt>
      <trkpt lat="49.18955" lon="-0.31265">
        <ele>14.6</ele>
        <time>2023-05-04T09:39:17Z</time>
      </trkpt>
      <trkpt lat="49.18949" lon="-0.31267">
        <ele>14.6</ele>
        <time>2023-05-04T09:39:18Z</time>
      </trkpt>
      <trkpt lat="49.18942" lon="-0.31269">
        <ele>14.6</ele>
        <time>2023-05-04T09:39:19Z</time>
      </trkpt>
      <trkpt lat="49.18935" lon="-0.31271">
        <ele>14.6</ele>
        <time>2023-05-04T09:39:20Z</time>
      </trkpt>
      <trkpt lat="49.18929" lon="-0.31273">
        <ele>14.6</ele>
        <time>2023-05-04T09:39:21Z</time>
      </trkpt>
      <trkpt lat="49.18922" lon="-0.31275">
        <ele>14.6</ele>
        <time>2023-05-04T09:39:22Z</time>
      </trkpt>
      <trkpt lat="49.18916" lon="-0.31277">
        <ele>14.6</ele>
        <time>2023-05-04T09:39:23Z</time>
      </trkpt>
      <trkpt lat="49.18909" lon="-0.31279">
        <ele>14.6</ele>
        <time>2023-05-04T09:39:24Z</time>
      </trkpt>
      <trkpt lat="49.18903" lon="-0.31281">
        <ele>14.8</ele>
        <time>2023-05-04T09:39:25Z</time>
      </trkpt>
      <trkpt lat="49.18896" lon="-0.31283">
        <ele>14.8</ele>
        <time>2023-05-04T09:39:26Z</time>
      </trkpt>
      <trkpt lat="49.1889" lon="-0.31285">
        <ele>14.8</ele>
        <time>2023-05-04T09:39:27Z</time>
      </trkpt>
      <trkpt lat="49.18884" lon="-0.31287">
        <ele>14.8</ele>
        <time>2023-05-04T09:39:28Z</time>
      </trkpt>
      <trkpt lat="49.18877" lon="-0.31289">
        <ele>14.8</ele>
        <time>2023-05-04T09:39:29Z</time>
      </trkpt>
      <trkpt lat="49.18871" lon="-0.31291">
        <ele>14.8</ele>
        <time>2023-05-04T09:39:30Z</time>
      </trkpt>
      <trkpt lat="49.18865" lon="-0.31293">
        <ele>14.8</ele>
        <time>2023-05-04T09:39:31Z</time>
      </trkpt>
      <trkpt lat="49.18858" lon="-0.31295">
        <ele>14.8</ele>
        <time>2023-05-04T09:39:32Z</time>
      </trkpt>
      <trkpt lat="49.18852" lon="-0.31297">
        <ele>14.8</ele>
        <time>2023-05-04T09:39:33Z</time>
      </trkpt>
      <trkpt lat="49.18846" lon="-0.31299">
        <ele>14.6</ele>
        <time>2023-05-04T09:39:34Z</time>
      </trkpt>
      <trkpt lat="49.18839" lon="-0.31302">
        <ele>14.6</ele>
        <time>2023-05-04T09:39:35Z</time>
      </trkpt>
      <trkpt lat="49.18833" lon="-0.31304">
        <ele>14.4</ele>
        <time>2023-05-04T09:39:36Z</time>
      </trkpt>
      <trkpt lat="49.18827" lon="-0.31307">
        <ele>14.6</ele>
        <time>2023-05-04T09:39:37Z</time>
      </trkpt>
      <trkpt lat="49.1882" lon="-0.31309">
        <ele>14.8</ele>
        <time>2023-05-04T09:39:38Z</time>
      </trkpt>
      <trkpt lat="49.18814" lon="-0.31312">
        <ele>15</ele>
        <time>2023-05-04T09:39:39Z</time>
      </trkpt>
      <trkpt lat="49.18808" lon="-0.31315">
        <ele>15.2</ele>
        <time>2023-05-04T09:39:40Z</time>
      </trkpt>
      <trkpt lat="49.18802" lon="-0.31319">
        <ele>15.4</ele>
        <time>2023-05-04T09:39:41Z</time>
      </trkpt>
      <trkpt lat="49.18796" lon="-0.31322">
        <ele>15.6</ele>
        <time>2023-05-04T09:39:42Z</time>
      </trkpt>
      <trkpt lat="49.18791" lon="-0.31326">
        <ele>15.6</ele>
        <time>2023-05-04T09:39:43Z</time>
      </trkpt>
      <trkpt lat="49.18785" lon="-0.31329">
        <ele>15.6</ele>
        <time>2023-05-04T09:39:44Z</time>
      </trkpt>
      <trkpt lat="49.1878" lon="-0.31333">
        <ele>15.6</ele>
        <time>2023-05-04T09:39:45Z</time>
      </trkpt>
      <trkpt lat="49.18775" lon="-0.31337">
        <ele>16</ele>
        <time>2023-05-04T09:39:46Z</time>
      </trkpt>
      <trkpt lat="49.1877" lon="-0.31341">
        <ele>16.2</ele>
        <time>2023-05-04T09:39:47Z</time>
      </trkpt>
      <trkpt lat="49.18765" lon="-0.31346">
        <ele>16.2</ele>
        <time>2023-05-04T09:39:48Z</time>
      </trkpt>
      <trkpt lat="49.18759" lon="-0.31351">
        <ele>16.4</ele>
        <time>2023-05-04T09:39:49Z</time>
      </trkpt>
      <trkpt lat="49.18753" lon="-0.31356">
        <ele>16.4</ele>
        <time>2023-05-04T09:39:50Z</time>
      </trkpt>
      <trkpt lat="49.18748" lon="-0.31361">
        <ele>16.2</ele>
        <time>2023-05-04T09:39:51Z</time>
      </trkpt>
      <trkpt lat="49.18742" lon="-0.31366">
        <ele>15.8</ele>
        <time>2023-05-04T09:39:52Z</time>
      </trkpt>
      <trkpt lat="49.18735" lon="-0.31372">
        <ele>15.4</ele>
        <time>2023-05-04T09:39:53Z</time>
      </trkpt>
      <trkpt lat="49.18729" lon="-0.31377">
        <ele>15</ele>
        <time>2023-05-04T09:39:54Z</time>
      </trkpt>
      <trkpt lat="49.18723" lon="-0.31382">
        <ele>14.6</ele>
        <time>2023-05-04T09:39:55Z</time>
      </trkpt>
      <trkpt lat="49.18717" lon="-0.31388">
        <ele>14</ele>
        <time>2023-05-04T09:39:56Z</time>
      </trkpt>
      <trkpt lat="49.18711" lon="-0.31393">
        <ele>13.6</ele>
        <time>2023-05-04T09:39:57Z</time>
      </trkpt>
      <trkpt lat="49.18705" lon="-0.31398">
        <ele>13</ele>
        <time>2023-05-04T09:39:58Z</time>
      </trkpt>
      <trkpt lat="49.187" lon="-0.31404">
        <ele>12.6</ele>
        <time>2023-05-04T09:39:59Z</time>
      </trkpt>
      <trkpt lat="49.18694" lon="-0.31409">
        <ele>11.8</ele>
        <time>2023-05-04T09:40:00Z</time>
      </trkpt>
      <trkpt lat="49.18688" lon="-0.31414">
        <ele>11.4</ele>
        <time>2023-05-04T09:40:01Z</time>
      </trkpt>
      <trkpt lat="49.18682" lon="-0.31419">
        <ele>11.2</ele>
        <time>2023-05-04T09:40:02Z</time>
      </trkpt>
      <trkpt lat="49.18677" lon="-0.31425">
        <ele>11</ele>
        <time>2023-05-04T09:40:03Z</time>
      </trkpt>
      <trkpt lat="49.18671" lon="-0.3143">
        <ele>10.8</ele>
        <time>2023-05-04T09:40:04Z</time>
      </trkpt>
      <trkpt lat="49.18665" lon="-0.31436">
        <ele>10.8</ele>
        <time>2023-05-04T09:40:05Z</time>
      </trkpt>
      <trkpt lat="49.1866" lon="-0.31441">
        <ele>10.8</ele>
        <time>2023-05-04T09:40:06Z</time>
      </trkpt>
      <trkpt lat="49.18654" lon="-0.31446">
        <ele>10.8</ele>
        <time>2023-05-04T09:40:07Z</time>
      </trkpt>
      <trkpt lat="49.18649" lon="-0.31451">
        <ele>10.8</ele>
        <time>2023-05-04T09:40:08Z</time>
      </trkpt>
      <trkpt lat="49.18643" lon="-0.31457">
        <ele>10.8</ele>
        <time>2023-05-04T09:40:09Z</time>
      </trkpt>
      <trkpt lat="49.18637" lon="-0.31462">
        <ele>10.8</ele>
        <time>2023-05-04T09:40:10Z</time>
      </trkpt>
      <trkpt lat="49.18632" lon="-0.31467">
        <ele>10.6</ele>
        <time>2023-05-04T09:40:11Z</time>
      </trkpt>
      <trkpt lat="49.18626" lon="-0.31471">
        <ele>10.6</ele>
        <time>2023-05-04T09:40:12Z</time>
      </trkpt>
      <trkpt lat="49.1862" lon="-0.31476">
        <ele>10.4</ele>
        <time>2023-05-04T09:40:13Z</time>
      </trkpt>
      <trkpt lat="49.18615" lon="-0.31481">
        <ele>10</ele>
        <time>2023-05-04T09:40:14Z</time>
      </trkpt>
      <trkpt lat="49.18609" lon="-0.31487">
        <ele>9.6</ele>
        <time>2023-05-04T09:40:15Z</time>
      </trkpt>
      <trkpt lat="49.18604" lon="-0.31492">
        <ele>9.2</ele>
        <time>2023-05-04T09:40:16Z</time>
      </trkpt>
      <trkpt lat="49.18599" lon="-0.31498">
        <ele>8.6</ele>
        <time>2023-05-04T09:40:17Z</time>
      </trkpt>
      <trkpt lat="49.18594" lon="-0.31504">
        <ele>8.4</ele>
        <time>2023-05-04T09:40:18Z</time>
      </trkpt>
      <trkpt lat="49.18589" lon="-0.3151">
        <ele>8.2</ele>
        <time>2023-05-04T09:40:19Z</time>
      </trkpt>
      <trkpt lat="49.18584" lon="-0.31517">
        <ele>8</ele>
        <time>2023-05-04T09:40:20Z</time>
      </trkpt>
      <trkpt lat="49.18579" lon="-0.31523">
        <ele>7.8</ele>
        <time>2023-05-04T09:40:21Z</time>
      </trkpt>
      <trkpt lat="49.18574" lon="-0.31529">
        <ele>7.6</ele>
        <time>2023-05-04T09:40:22Z</time>
      </trkpt>
      <trkpt lat="49.18569" lon="-0.31535">
        <ele>7.6</ele>
        <time>2023-05-04T09:40:23Z</time>
      </trkpt>
      <trkpt lat="49.18563" lon="-0.31541">
        <ele>7.4</ele>
        <time>2023-05-04T09:40:24Z</time>
      </trkpt>
      <trkpt lat="49.18558" lon="-0.31547">
        <ele>7</ele>
        <time>2023-05-04T09:40:25Z</time>
      </trkpt>
      <trkpt lat="49.18553" lon="-0.31553">
        <ele>6.6</ele>
        <time>2023-05-04T09:40:26Z</time>
      </trkpt>
      <trkpt lat="49.18548" lon="-0.31559">
        <ele>6.4</ele>
        <time>2023-05-04T09:40:27Z</time>
      </trkpt>
      <trkpt lat="49.18543" lon="-0.31566">
        <ele>6</ele>
        <time>2023-05-04T09:40:28Z</time>
      </trkpt>
      <trkpt lat="49.18538" lon="-0.31572">
        <ele>5.6</ele>
        <time>2023-05-04T09:40:29Z</time>
      </trkpt>
      <trkpt lat="49.18534" lon="-0.31579">
        <ele>5</ele>
        <time>2023-05-04T09:40:30Z</time>
      </trkpt>
      <trkpt lat="49.18529" lon="-0.31585">
        <ele>4.6</ele>
        <time>2023-05-04T09:40:31Z</time>
      </trkpt>
      <trkpt lat="49.18524" lon="-0.31591">
        <ele>4.6</ele>
        <time>2023-05-04T09:40:32Z</time>
      </trkpt>
      <trkpt lat="49.18519" lon="-0.31598">
        <ele>4.6</ele>
        <time>2023-05-04T09:40:33Z</time>
      </trkpt>
      <trkpt lat="49.18514" lon="-0.31604">
        <ele>4.6</ele>
        <time>2023-05-04T09:40:34Z</time>
      </trkpt>
      <trkpt lat="49.1851" lon="-0.3161">
        <ele>4.6</ele>
        <time>2023-05-04T09:40:35Z</time>
      </trkpt>
      <trkpt lat="49.18505" lon="-0.31617">
        <ele>4.6</ele>
        <time>2023-05-04T09:40:36Z</time>
      </trkpt>
      <trkpt lat="49.18501" lon="-0.31623">
        <ele>4.6</ele>
        <time>2023-05-04T09:40:37Z</time>
      </trkpt>
      <trkpt lat="49.18496" lon="-0.31629">
        <ele>4.6</ele>
        <time>2023-05-04T09:40:38Z</time>
      </trkpt>
      <trkpt lat="49.18492" lon="-0.31636">
        <ele>4.6</ele>
        <time>2023-05-04T09:40:39Z</time>
      </trkpt>
      <trkpt lat="49.18488" lon="-0.31643">
        <ele>4.6</ele>
        <time>2023-05-04T09:40:40Z</time>
      </trkpt>
      <trkpt lat="49.18483" lon="-0.31649">
        <ele>4.6</ele>
        <time>2023-05-04T09:40:41Z</time>
      </trkpt>
      <trkpt lat="49.18479" lon="-0.31656">
        <ele>4.6</ele>
        <time>2023-05-04T09:40:42Z</time>
      </trkpt>
      <trkpt lat="49.18475" lon="-0.31663">
        <ele>4.4</ele>
        <time>2023-05-04T09:40:43Z</time>
      </trkpt>
      <trkpt lat="49.18471" lon="-0.3167">
        <ele>4.4</ele>
        <time>2023-05-04T09:40:44Z</time>
      </trkpt>
      <trkpt lat="49.18467" lon="-0.31677">
        <ele>4.2</ele>
        <time>2023-05-04T09:40:45Z</time>
      </trkpt>
      <trkpt lat="49.18462" lon="-0.31684">
        <ele>4</ele>
        <time>2023-05-04T09:40:46Z</time>
      </trkpt>
      <trkpt lat="49.18458" lon="-0.31692">
        <ele>4</ele>
        <time>2023-05-04T09:40:47Z</time>
      </trkpt>
      <trkpt lat="49.18454" lon="-0.31699">
        <ele>4</ele>
        <time>2023-05-04T09:40:48Z</time>
      </trkpt>
      <trkpt lat="49.1845" lon="-0.31707">
        <ele>3.8</ele>
        <time>2023-05-04T09:40:49Z</time>
      </trkpt>
      <trkpt lat="49.18445" lon="-0.31714">
        <ele>3.8</ele>
        <time>2023-05-04T09:40:50Z</time>
      </trkpt>
      <trkpt lat="49.18441" lon="-0.31721">
        <ele>3.6</ele>
        <time>2023-05-04T09:40:51Z</time>
      </trkpt>
      <trkpt lat="49.18437" lon="-0.31729">
        <ele>3.4</ele>
        <time>2023-05-04T09:40:52Z</time>
      </trkpt>
      <trkpt lat="49.18433" lon="-0.31736">
        <ele>3.2</ele>
        <time>2023-05-04T09:40:53Z</time>
      </trkpt>
      <trkpt lat="49.18429" lon="-0.31744">
        <ele>3</ele>
        <time>2023-05-04T09:40:54Z</time>
      </trkpt>
      <trkpt lat="49.18425" lon="-0.31751">
        <ele>3</ele>
        <time>2023-05-04T09:40:55Z</time>
      </trkpt>
      <trkpt lat="49.18421" lon="-0.31758">
        <ele>3</ele>
        <time>2023-05-04T09:40:56Z</time>
      </trkpt>
      <trkpt lat="49.18417" lon="-0.31766">
        <ele>3</ele>
        <time>2023-05-04T09:40:57Z</time>
      </trkpt>
      <trkpt lat="49.18414" lon="-0.31773">
        <ele>3</ele>
        <time>2023-05-04T09:40:58Z</time>
      </trkpt>
      <trkpt lat="49.1841" lon="-0.31781">
        <ele>3.2</ele>
        <time>2023-05-04T09:40:59Z</time>
      </trkpt>
      <trkpt lat="49.18406" lon="-0.31789">
        <ele>3.2</ele>
        <time>2023-05-04T09:41:00Z</time>
      </trkpt>
      <trkpt lat="49.18402" lon="-0.31796">
        <ele>3.2</ele>
        <time>2023-05-04T09:41:01Z</time>
      </trkpt>
      <trkpt lat="49.18398" lon="-0.31804">
        <ele>3.2</ele>
        <time>2023-05-04T09:41:02Z</time>
      </trkpt>
      <trkpt lat="49.18394" lon="-0.31812">
        <ele>3.2</ele>
        <time>2023-05-04T09:41:03Z</time>
      </trkpt>
      <trkpt lat="49.1839" lon="-0.3182">
        <ele>3.2</ele>
        <time>2023-05-04T09:41:04Z</time>
      </trkpt>
      <trkpt lat="49.18386" lon="-0.31827">
        <ele>3</ele>
        <time>2023-05-04T09:41:05Z</time>
      </trkpt>
      <trkpt lat="49.18382" lon="-0.31835">
        <ele>3</ele>
        <time>2023-05-04T09:41:06Z</time>
      </trkpt>
      <trkpt lat="49.18379" lon="-0.31843">
        <ele>3.2</ele>
        <time>2023-05-04T09:41:07Z</time>
      </trkpt>
      <trkpt lat="49.18375" lon="-0.31851">
        <ele>3.2</ele>
        <time>2023-05-04T09:41:08Z</time>
      </trkpt>
      <trkpt lat="49.18371" lon="-0.31858">
        <ele>3.4</ele>
        <time>2023-05-04T09:41:09Z</time>
      </trkpt>
      <trkpt lat="49.18368" lon="-0.31866">
        <ele>3.6</ele>
        <time>2023-05-04T09:41:10Z</time>
      </trkpt>
      <trkpt lat="49.18364" lon="-0.31874">
        <ele>3.8</ele>
        <time>2023-05-04T09:41:11Z</time>
      </trkpt>
      <trkpt lat="49.1836" lon="-0.31881">
        <ele>3.8</ele>
        <time>2023-05-04T09:41:12Z</time>
      </trkpt>
      <trkpt lat="49.18356" lon="-0.31888">
        <ele>3.8</ele>
        <time>2023-05-04T09:41:13Z</time>
      </trkpt>
      <trkpt lat="49.18352" lon="-0.31895">
        <ele>4</ele>
        <time>2023-05-04T09:41:14Z</time>
      </trkpt>
      <trkpt lat="49.18347" lon="-0.31901">
        <ele>4</ele>
        <time>2023-05-04T09:41:15Z</time>
      </trkpt>
      <trkpt lat="49.18343" lon="-0.31907">
        <ele>4</ele>
        <time>2023-05-04T09:41:16Z</time>
      </trkpt>
      <trkpt lat="49.18338" lon="-0.31912">
        <ele>4</ele>
        <time>2023-05-04T09:41:17Z</time>
      </trkpt>
      <trkpt lat="49.18333" lon="-0.31916">
        <ele>4</ele>
        <time>2023-05-04T09:41:18Z</time>
      </trkpt>
      <trkpt lat="49.18328" lon="-0.3192">
        <ele>4</ele>
        <time>2023-05-04T09:41:19Z</time>
      </trkpt>
      <trkpt lat="49.18323" lon="-0.31922">
        <ele>4.2</ele>
        <time>2023-05-04T09:41:20Z</time>
      </trkpt>
      <trkpt lat="49.18318" lon="-0.31924">
        <ele>4.4</ele>
        <time>2023-05-04T09:41:21Z</time>
      </trkpt>
      <trkpt lat="49.18313" lon="-0.31926">
        <ele>4.4</ele>
        <time>2023-05-04T09:41:22Z</time>
      </trkpt>
      <trkpt lat="49.18309" lon="-0.31927">
        <ele>4.6</ele>
        <time>2023-05-04T09:41:23Z</time>
      </trkpt>
      <trkpt lat="49.18304" lon="-0.31929">
        <ele>4.6</ele>
        <time>2023-05-04T09:41:24Z</time>
      </trkpt>
      <trkpt lat="49.18301" lon="-0.31932">
        <ele>4.6</ele>
        <time>2023-05-04T09:41:25Z</time>
      </trkpt>
      <trkpt lat="49.18299" lon="-0.31937">
        <ele>4.6</ele>
        <time>2023-05-04T09:41:26Z</time>
      </trkpt>
      <trkpt lat="49.18299" lon="-0.31943">
        <ele>4.8</ele>
        <time>2023-05-04T09:41:27Z</time>
      </trkpt>
      <trkpt lat="49.18299" lon="-0.31949">
        <ele>5</ele>
        <time>2023-05-04T09:41:28Z</time>
      </trkpt>
      <trkpt lat="49.18298" lon="-0.31956">
        <ele>5</ele>
        <time>2023-05-04T09:41:29Z</time>
      </trkpt>
      <trkpt lat="49.18298" lon="-0.31963">
        <ele>5</ele>
        <time>2023-05-04T09:41:30Z</time>
      </trkpt>
      <trkpt lat="49.18297" lon="-0.3197">
        <ele>5.2</ele>
        <time>2023-05-04T09:41:31Z</time>
      </trkpt>
      <trkpt lat="49.18296" lon="-0.31978">
        <ele>5.4</ele>
        <time>2023-05-04T09:41:32Z</time>
      </trkpt>
      <trkpt lat="49.18295" lon="-0.31985">
        <ele>5.4</ele>
        <time>2023-05-04T09:41:33Z</time>
      </trkpt>
      <trkpt lat="49.18293" lon="-0.31993">
        <ele>5.4</ele>
        <time>2023-05-04T09:41:34Z</time>
      </trkpt>
      <trkpt lat="49.18291" lon="-0.32001">
        <ele>5.6</ele>
        <time>2023-05-04T09:41:35Z</time>
      </trkpt>
      <trkpt lat="49.18289" lon="-0.32009">
        <ele>5.4</ele>
        <time>2023-05-04T09:41:36Z</time>
      </trkpt>
      <trkpt lat="49.18286" lon="-0.32017">
        <ele>5.4</ele>
        <time>2023-05-04T09:41:37Z</time>
      </trkpt>
      <trkpt lat="49.18284" lon="-0.32026">
        <ele>5.4</ele>
        <time>2023-05-04T09:41:38Z</time>
      </trkpt>
      <trkpt lat="49.18281" lon="-0.32034">
        <ele>5.4</ele>
        <time>2023-05-04T09:41:39Z</time>
      </trkpt>
      <trkpt lat="49.18278" lon="-0.32042">
        <ele>5.4</ele>
        <time>2023-05-04T09:41:40Z</time>
      </trkpt>
      <trkpt lat="49.18275" lon="-0.32051">
        <ele>5.4</ele>
        <time>2023-05-04T09:41:41Z</time>
      </trkpt>
      <trkpt lat="49.18272" lon="-0.32059">
        <ele>5.4</ele>
        <time>2023-05-04T09:41:42Z</time>
      </trkpt>
      <trkpt lat="49.18269" lon="-0.32068">
        <ele>5.6</ele>
        <time>2023-05-04T09:41:43Z</time>
      </trkpt>
      <trkpt lat="49.18266" lon="-0.32077">
        <ele>5.6</ele>
        <time>2023-05-04T09:41:44Z</time>
      </trkpt>
      <trkpt lat="49.18263" lon="-0.32086">
        <ele>5.6</ele>
        <time>2023-05-04T09:41:45Z</time>
      </trkpt>
      <trkpt lat="49.1826" lon="-0.32095">
        <ele>6</ele>
        <time>2023-05-04T09:41:46Z</time>
      </trkpt>
      <trkpt lat="49.18257" lon="-0.32104">
        <ele>6.4</ele>
        <time>2023-05-04T09:41:47Z</time>
      </trkpt>
      <trkpt lat="49.18254" lon="-0.32113">
        <ele>6.6</ele>
        <time>2023-05-04T09:41:48Z</time>
      </trkpt>
      <trkpt lat="49.18251" lon="-0.32122">
        <ele>7</ele>
        <time>2023-05-04T09:41:49Z</time>
      </trkpt>
      <trkpt lat="49.18248" lon="-0.32131">
        <ele>7.2</ele>
        <time>2023-05-04T09:41:50Z</time>
      </trkpt>
      <trkpt lat="49.18245" lon="-0.32141">
        <ele>7.4</ele>
        <time>2023-05-04T09:41:51Z</time>
      </trkpt>
      <trkpt lat="49.18242" lon="-0.3215">
        <ele>7.6</ele>
        <time>2023-05-04T09:41:52Z</time>
      </trkpt>
      <trkpt lat="49.18238" lon="-0.32159">
        <ele>8</ele>
        <time>2023-05-04T09:41:53Z</time>
      </trkpt>
      <trkpt lat="49.18235" lon="-0.32169">
        <ele>8.2</ele>
        <time>2023-05-04T09:41:54Z</time>
      </trkpt>
      <trkpt lat="49.18232" lon="-0.32178">
        <ele>8</ele>
        <time>2023-05-04T09:41:55Z</time>
      </trkpt>
      <trkpt lat="49.18228" lon="-0.32187">
        <ele>7.6</ele>
        <time>2023-05-04T09:41:56Z</time>
      </trkpt>
      <trkpt lat="49.18225" lon="-0.32197">
        <ele>7.4</ele>
        <time>2023-05-04T09:41:57Z</time>
      </trkpt>
      <trkpt lat="49.18221" lon="-0.32206">
        <ele>7.2</ele>
        <time>2023-05-04T09:41:58Z</time>
      </trkpt>
      <trkpt lat="49.18218" lon="-0.32215">
        <ele>7</ele>
        <time>2023-05-04T09:41:59Z</time>
      </trkpt>
      <trkpt lat="49.18215" lon="-0.32225">
        <ele>7</ele>
        <time>2023-05-04T09:42:00Z</time>
      </trkpt>
      <trkpt lat="49.18211" lon="-0.32234">
        <ele>6.8</ele>
        <time>2023-05-04T09:42:01Z</time>
      </trkpt>
      <trkpt lat="49.18208" lon="-0.32244">
        <ele>6.6</ele>
        <time>2023-05-04T09:42:02Z</time>
      </trkpt>
      <trkpt lat="49.18204" lon="-0.32253">
        <ele>6.6</ele>
        <time>2023-05-04T09:42:03Z</time>
      </trkpt>
      <trkpt lat="49.18201" lon="-0.32263">
        <ele>6.6</ele>
        <time>2023-05-04T09:42:04Z</time>
      </trkpt>
      <trkpt lat="49.18198" lon="-0.32272">
        <ele>6.6</ele>
        <time>2023-05-04T09:42:05Z</time>
      </trkpt>
      <trkpt lat="49.18194" lon="-0.32282">
        <ele>6.8</ele>
        <time>2023-05-04T09:42:06Z</time>
      </trkpt>
      <trkpt lat="49.18191" lon="-0.32291">
        <ele>6.8</ele>
        <time>2023-05-04T09:42:07Z</time>
      </trkpt>
      <trkpt lat="49.18187" lon="-0.32301">
        <ele>6.8</ele>
        <time>2023-05-04T09:42:08Z</time>
      </trkpt>
      <trkpt lat="49.18184" lon="-0.32311">
        <ele>6.8</ele>
        <time>2023-05-04T09:42:09Z</time>
      </trkpt>
      <trkpt lat="49.18181" lon="-0.32321">
        <ele>6.8</ele>
        <time>2023-05-04T09:42:10Z</time>
      </trkpt>
      <trkpt lat="49.18178" lon="-0.3233">
        <ele>6.8</ele>
        <time>2023-05-04T09:42:11Z</time>
      </trkpt>
      <trkpt lat="49.18174" lon="-0.3234">
        <ele>6.8</ele>
        <time>2023-05-04T09:42:12Z</time>
      </trkpt>
      <trkpt lat="49.18171" lon="-0.32349">
        <ele>6.6</ele>
        <time>2023-05-04T09:42:13Z</time>
      </trkpt>
      <trkpt lat="49.18168" lon="-0.32358">
        <ele>6.6</ele>
        <time>2023-05-04T09:42:14Z</time>
      </trkpt>
      <trkpt lat="49.18165" lon="-0.32368">
        <ele>6.6</ele>
        <time>2023-05-04T09:42:15Z</time>
      </trkpt>
      <trkpt lat="49.18162" lon="-0.32377">
        <ele>6.6</ele>
        <time>2023-05-04T09:42:16Z</time>
      </trkpt>
      <trkpt lat="49.18159" lon="-0.32387">
        <ele>6.6</ele>
        <time>2023-05-04T09:42:17Z</time>
      </trkpt>
      <trkpt lat="49.18156" lon="-0.32396">
        <ele>6.8</ele>
        <time>2023-05-04T09:42:18Z</time>
      </trkpt>
      <trkpt lat="49.18153" lon="-0.32405">
        <ele>7</ele>
        <time>2023-05-04T09:42:19Z</time>
      </trkpt>
      <trkpt lat="49.18149" lon="-0.32415">
        <ele>7</ele>
        <time>2023-05-04T09:42:20Z</time>
      </trkpt>
      <trkpt lat="49.18146" lon="-0.32424">
        <ele>7.2</ele>
        <time>2023-05-04T09:42:21Z</time>
      </trkpt>
      <trkpt lat="49.18143" lon="-0.32434">
        <ele>7.4</ele>
        <time>2023-05-04T09:42:22Z</time>
      </trkpt>
      <trkpt lat="49.1814" lon="-0.32443">
        <ele>7.6</ele>
        <time>2023-05-04T09:42:23Z</time>
      </trkpt>
      <trkpt lat="49.18137" lon="-0.32453">
        <ele>7.6</ele>
        <time>2023-05-04T09:42:24Z</time>
      </trkpt>
      <trkpt lat="49.18134" lon="-0.32462">
        <ele>7.6</ele>
        <time>2023-05-04T09:42:25Z</time>
      </trkpt>
      <trkpt lat="49.18131" lon="-0.32472">
        <ele>7.6</ele>
        <time>2023-05-04T09:42:26Z</time>
      </trkpt>
      <trkpt lat="49.18128" lon="-0.32482">
        <ele>7.6</ele>
        <time>2023-05-04T09:42:27Z</time>
      </trkpt>
      <trkpt lat="49.18126" lon="-0.32492">
        <ele>7.6</ele>
        <time>2023-05-04T09:42:28Z</time>
      </trkpt>
      <trkpt lat="49.18123" lon="-0.32502">
        <ele>7.6</ele>
        <time>2023-05-04T09:42:29Z</time>
      </trkpt>
      <trkpt lat="49.1812" lon="-0.32512">
        <ele>7.4</ele>
        <time>2023-05-04T09:42:30Z</time>
      </trkpt>
      <trkpt lat="49.18117" lon="-0.32522">
        <ele>7</ele>
        <time>2023-05-04T09:42:31Z</time>
      </trkpt>
      <trkpt lat="49.18114" lon="-0.32532">
        <ele>6.8</ele>
        <time>2023-05-04T09:42:32Z</time>
      </trkpt>
      <trkpt lat="49.18111" lon="-0.32542">
        <ele>6.6</ele>
        <time>2023-05-04T09:42:33Z</time>
      </trkpt>
      <trkpt lat="49.18108" lon="-0.32553">
        <ele>6.2</ele>
        <time>2023-05-04T09:42:34Z</time>
      </trkpt>
      <trkpt lat="49.18105" lon="-0.32563">
        <ele>6</ele>
        <time>2023-05-04T09:42:35Z</time>
      </trkpt>
      <trkpt lat="49.18102" lon="-0.32574">
        <ele>5.6</ele>
        <time>2023-05-04T09:42:36Z</time>
      </trkpt>
      <trkpt lat="49.181" lon="-0.32584">
        <ele>5.2</ele>
        <time>2023-05-04T09:42:37Z</time>
      </trkpt>
      <trkpt lat="49.18097" lon="-0.32595">
        <ele>5</ele>
        <time>2023-05-04T09:42:38Z</time>
      </trkpt>
      <trkpt lat="49.18094" lon="-0.32605">
        <ele>4.6</ele>
        <time>2023-05-04T09:42:39Z</time>
      </trkpt>
      <trkpt lat="49.18091" lon="-0.32616">
        <ele>4.4</ele>
        <time>2023-05-04T09:42:40Z</time>
      </trkpt>
      <trkpt lat="49.18089" lon="-0.32626">
        <ele>4</ele>
        <time>2023-05-04T09:42:41Z</time>
      </trkpt>
      <trkpt lat="49.18086" lon="-0.32637">
        <ele>3.8</ele>
        <time>2023-05-04T09:42:42Z</time>
      </trkpt>
      <trkpt lat="49.18083" lon="-0.32648">
        <ele>3.6</ele>
        <time>2023-05-04T09:42:43Z</time>
      </trkpt>
      <trkpt lat="49.18081" lon="-0.32658">
        <ele>3.2</ele>
        <time>2023-05-04T09:42:44Z</time>
      </trkpt>
      <trkpt lat="49.18078" lon="-0.32669">
        <ele>3.2</ele>
        <time>2023-05-04T09:42:45Z</time>
      </trkpt>
      <trkpt lat="49.18076" lon="-0.3268">
        <ele>2.8</ele>
        <time>2023-05-04T09:42:46Z</time>
      </trkpt>
      <trkpt lat="49.18073" lon="-0.32691">
        <ele>2.2</ele>
        <time>2023-05-04T09:42:47Z</time>
      </trkpt>
      <trkpt lat="49.18071" lon="-0.32701">
        <ele>1.8</ele>
        <time>2023-05-04T09:42:48Z</time>
      </trkpt>
      <trkpt lat="49.18069" lon="-0.32712">
        <ele>1.2</ele>
        <time>2023-05-04T09:42:49Z</time>
      </trkpt>
      <trkpt lat="49.18066" lon="-0.32723">
        <ele>0.80000000000001</ele>
        <time>2023-05-04T09:42:50Z</time>
      </trkpt>
      <trkpt lat="49.18063" lon="-0.32734">
        <ele>0.39999999999998</ele>
        <time>2023-05-04T09:42:51Z</time>
      </trkpt>
      <trkpt lat="49.18061" lon="-0.32744">
        <ele>-0.19999999999999</ele>
        <time>2023-05-04T09:42:52Z</time>
      </trkpt>
      <trkpt lat="49.18058" lon="-0.32755">
        <ele>-0.19999999999999</ele>
        <time>2023-05-04T09:42:53Z</time>
      </trkpt>
      <trkpt lat="49.18056" lon="-0.32766">
        <ele>0.19999999999999</ele>
        <time>2023-05-04T09:42:54Z</time>
      </trkpt>
      <trkpt lat="49.18053" lon="-0.32777">
        <ele>0.60000000000002</ele>
        <time>2023-05-04T09:42:55Z</time>
      </trkpt>
      <trkpt lat="49.18051" lon="-0.32788">
        <ele>0.80000000000001</ele>
        <time>2023-05-04T09:42:56Z</time>
      </trkpt>
      <trkpt lat="49.18048" lon="-0.32799">
        <ele>1.2</ele>
        <time>2023-05-04T09:42:57Z</time>
      </trkpt>
      <trkpt lat="49.18046" lon="-0.3281">
        <ele>1.6</ele>
        <time>2023-05-04T09:42:58Z</time>
      </trkpt>
      <trkpt lat="49.18044" lon="-0.32821">
        <ele>1.8</ele>
        <time>2023-05-04T09:42:59Z</time>
      </trkpt>
      <trkpt lat="49.18041" lon="-0.32832">
        <ele>2</ele>
        <time>2023-05-04T09:43:00Z</time>
      </trkpt>
      <trkpt lat="49.18039" lon="-0.32844">
        <ele>2.4</ele>
        <time>2023-05-04T09:43:01Z</time>
      </trkpt>
      <trkpt lat="49.18037" lon="-0.32855">
        <ele>2.8</ele>
        <time>2023-05-04T09:43:02Z</time>
      </trkpt>
      <trkpt lat="49.18034" lon="-0.32866">
        <ele>3.2</ele>
        <time>2023-05-04T09:43:03Z</time>
      </trkpt>
      <trkpt lat="49.18032" lon="-0.32876">
        <ele>3.6</ele>
        <time>2023-05-04T09:43:04Z</time>
      </trkpt>
      <trkpt lat="49.1803" lon="-0.32887">
        <ele>4</ele>
        <time>2023-05-04T09:43:05Z</time>
      </trkpt>
      <trkpt lat="49.18027" lon="-0.32898">
        <ele>4.2</ele>
        <time>2023-05-04T09:43:06Z</time>
      </trkpt>
      <trkpt lat="49.18025" lon="-0.32908">
        <ele>4.6</ele>
        <time>2023-05-04T09:43:07Z</time>
      </trkpt>
      <trkpt lat="49.18023" lon="-0.32919">
        <ele>4.6</ele>
        <time>2023-05-04T09:43:08Z</time>
      </trkpt>
      <trkpt lat="49.1802" lon="-0.3293">
        <ele>4.6</ele>
        <time>2023-05-04T09:43:09Z</time>
      </trkpt>
      <trkpt lat="49.18018" lon="-0.32941">
        <ele>4.6</ele>
        <time>2023-05-04T09:43:10Z</time>
      </trkpt>
      <trkpt lat="49.18016" lon="-0.32951">
        <ele>4.6</ele>
        <time>2023-05-04T09:43:11Z</time>
      </trkpt>
      <trkpt lat="49.18014" lon="-0.32962">
        <ele>4.4</ele>
        <time>2023-05-04T09:43:12Z</time>
      </trkpt>
      <trkpt lat="49.18012" lon="-0.32973">
        <ele>4.4</ele>
        <time>2023-05-04T09:43:13Z</time>
      </trkpt>
      <trkpt lat="49.1801" lon="-0.32984">
        <ele>4.2</ele>
        <time>2023-05-04T09:43:14Z</time>
      </trkpt>
      <trkpt lat="49.18008" lon="-0.32995">
        <ele>4</ele>
        <time>2023-05-04T09:43:15Z</time>
      </trkpt>
      <trkpt lat="49.18006" lon="-0.33006">
        <ele>4</ele>
        <time>2023-05-04T09:43:16Z</time>
      </trkpt>
      <trkpt lat="49.18004" lon="-0.33017">
        <ele>4.4</ele>
        <time>2023-05-04T09:43:17Z</time>
      </trkpt>
      <trkpt lat="49.18002" lon="-0.33028">
        <ele>4.6</ele>
        <time>2023-05-04T09:43:18Z</time>
      </trkpt>
      <trkpt lat="49.18" lon="-0.33038">
        <ele>5</ele>
        <time>2023-05-04T09:43:19Z</time>
      </trkpt>
      <trkpt lat="49.17999" lon="-0.33049">
        <ele>5.2</ele>
        <time>2023-05-04T09:43:20Z</time>
      </trkpt>
      <trkpt lat="49.17997" lon="-0.3306">
        <ele>5.6</ele>
        <time>2023-05-04T09:43:21Z</time>
      </trkpt>
      <trkpt lat="49.17995" lon="-0.33071">
        <ele>5.6</ele>
        <time>2023-05-04T09:43:22Z</time>
      </trkpt>
      <trkpt lat="49.17993" lon="-0.33081">
        <ele>6</ele>
        <time>2023-05-04T09:43:23Z</time>
      </trkpt>
      <trkpt lat="49.17992" lon="-0.33092">
        <ele>6</ele>
        <time>2023-05-04T09:43:24Z</time>
      </trkpt>
      <trkpt lat="49.1799" lon="-0.33103">
        <ele>6</ele>
        <time>2023-05-04T09:43:25Z</time>
      </trkpt>
      <trkpt lat="49.17988" lon="-0.33113">
        <ele>6</ele>
        <time>2023-05-04T09:43:26Z</time>
      </trkpt>
      <trkpt lat="49.17987" lon="-0.33124">
        <ele>6</ele>
        <time>2023-05-04T09:43:27Z</time>
      </trkpt>
      <trkpt lat="49.17985" lon="-0.33135">
        <ele>6</ele>
        <time>2023-05-04T09:43:28Z</time>
      </trkpt>
      <trkpt lat="49.17983" lon="-0.33145">
        <ele>6</ele>
        <time>2023-05-04T09:43:29Z</time>
      </trkpt>
      <trkpt lat="49.17982" lon="-0.33156">
        <ele>6.2</ele>
        <time>2023-05-04T09:43:30Z</time>
      </trkpt>
      <trkpt lat="49.1798" lon="-0.33167">
        <ele>6.2</ele>
        <time>2023-05-04T09:43:31Z</time>
      </trkpt>
      <trkpt lat="49.17979" lon="-0.33177">
        <ele>6.4</ele>
        <time>2023-05-04T09:43:32Z</time>
      </trkpt>
      <trkpt lat="49.17977" lon="-0.33188">
        <ele>6.4</ele>
        <time>2023-05-04T09:43:33Z</time>
      </trkpt>
      <trkpt lat="49.17975" lon="-0.33199">
        <ele>6.4</ele>
        <time>2023-05-04T09:43:34Z</time>
      </trkpt>
      <trkpt lat="49.17974" lon="-0.3321">
        <ele>6.4</ele>
        <time>2023-05-04T09:43:35Z</time>
      </trkpt>
      <trkpt lat="49.17972" lon="-0.3322">
        <ele>6.4</ele>
        <time>2023-05-04T09:43:36Z</time>
      </trkpt>
      <trkpt lat="49.17971" lon="-0.33231">
        <ele>6.4</ele>
        <time>2023-05-04T09:43:37Z</time>
      </trkpt>
      <trkpt lat="49.1797" lon="-0.33241">
        <ele>6.4</ele>
        <time>2023-05-04T09:43:38Z</time>
      </trkpt>
      <trkpt lat="49.17968" lon="-0.33251">
        <ele>6.4</ele>
        <time>2023-05-04T09:43:39Z</time>
      </trkpt>
      <trkpt lat="49.17967" lon="-0.33262">
        <ele>6.4</ele>
        <time>2023-05-04T09:43:40Z</time>
      </trkpt>
      <trkpt lat="49.17966" lon="-0.33272">
        <ele>6.4</ele>
        <time>2023-05-04T09:43:41Z</time>
      </trkpt>
      <trkpt lat="49.17965" lon="-0.33282">
        <ele>6.4</ele>
        <time>2023-05-04T09:43:42Z</time>
      </trkpt>
      <trkpt lat="49.17963" lon="-0.33293">
        <ele>6.4</ele>
        <time>2023-05-04T09:43:43Z</time>
      </trkpt>
      <trkpt lat="49.17962" lon="-0.33303">
        <ele>6.4</ele>
        <time>2023-05-04T09:43:44Z</time>
      </trkpt>
      <trkpt lat="49.17961" lon="-0.33313">
        <ele>6.2</ele>
        <time>2023-05-04T09:43:45Z</time>
      </trkpt>
      <trkpt lat="49.1796" lon="-0.33324">
        <ele>6</ele>
        <time>2023-05-04T09:43:46Z</time>
      </trkpt>
      <trkpt lat="49.17959" lon="-0.33334">
        <ele>6</ele>
        <time>2023-05-04T09:43:47Z</time>
      </trkpt>
      <trkpt lat="49.17958" lon="-0.33345">
        <ele>6</ele>
        <time>2023-05-04T09:43:48Z</time>
      </trkpt>
      <trkpt lat="49.17957" lon="-0.33355">
        <ele>5.8</ele>
        <time>2023-05-04T09:43:49Z</time>
      </trkpt>
      <trkpt lat="49.17956" lon="-0.33366">
        <ele>5.6</ele>
        <time>2023-05-04T09:43:50Z</time>
      </trkpt>
      <trkpt lat="49.17955" lon="-0.33377">
        <ele>5.6</ele>
        <time>2023-05-04T09:43:51Z</time>
      </trkpt>
      <trkpt lat="49.17955" lon="-0.33388">
        <ele>5.6</ele>
        <time>2023-05-04T09:43:52Z</time>
      </trkpt>
      <trkpt lat="49.17954" lon="-0.33399">
        <ele>5.4</ele>
        <time>2023-05-04T09:43:53Z</time>
      </trkpt>
      <trkpt lat="49.17953" lon="-0.33409">
        <ele>5.4</ele>
        <time>2023-05-04T09:43:54Z</time>
      </trkpt>
      <trkpt lat="49.17952" lon="-0.3342">
        <ele>5.4</ele>
        <time>2023-05-04T09:43:55Z</time>
      </trkpt>
      <trkpt lat="49.17951" lon="-0.33431">
        <ele>5.4</ele>
        <time>2023-05-04T09:43:56Z</time>
      </trkpt>
      <trkpt lat="49.17951" lon="-0.33442">
        <ele>5.4</ele>
        <time>2023-05-04T09:43:57Z</time>
      </trkpt>
      <trkpt lat="49.1795" lon="-0.33452">
        <ele>5.4</ele>
        <time>2023-05-04T09:43:58Z</time>
      </trkpt>
      <trkpt lat="49.1795" lon="-0.33463">
        <ele>5.4</ele>
        <time>2023-05-04T09:43:59Z</time>
      </trkpt>
      <trkpt lat="49.17949" lon="-0.33473">
        <ele>5.6</ele>
        <time>2023-05-04T09:44:00Z</time>
      </trkpt>
      <trkpt lat="49.17949" lon="-0.33483">
        <ele>5.6</ele>
        <time>2023-05-04T09:44:01Z</time>
      </trkpt>
      <trkpt lat="49.17949" lon="-0.33494">
        <ele>5.6</ele>
        <time>2023-05-04T09:44:02Z</time>
      </trkpt>
      <trkpt lat="49.17948" lon="-0.33504">
        <ele>5.6</ele>
        <time>2023-05-04T09:44:03Z</time>
      </trkpt>
      <trkpt lat="49.17948" lon="-0.33514">
        <ele>5.6</ele>
        <time>2023-05-04T09:44:04Z</time>
      </trkpt>
      <trkpt lat="49.17948" lon="-0.33524">
        <ele>5.6</ele>
        <time>2023-05-04T09:44:05Z</time>
      </trkpt>
      <trkpt lat="49.17948" lon="-0.33535">
        <ele>5.6</ele>
        <time>2023-05-04T09:44:06Z</time>
      </trkpt>
      <trkpt lat="49.17947" lon="-0.33545">
        <ele>5.4</ele>
        <time>2023-05-04T09:44:07Z</time>
      </trkpt>
      <trkpt lat="49.17947" lon="-0.33556">
        <ele>5.4</ele>
        <time>2023-05-04T09:44:08Z</time>
      </trkpt>
      <trkpt lat="49.17947" lon="-0.33566">
        <ele>5.4</ele>
        <time>2023-05-04T09:44:09Z</time>
      </trkpt>
      <trkpt lat="49.17946" lon="-0.33577">
        <ele>5.4</ele>
        <time>2023-05-04T09:44:10Z</time>
      </trkpt>
      <trkpt lat="49.17945" lon="-0.33587">
        <ele>5.4</ele>
        <time>2023-05-04T09:44:11Z</time>
      </trkpt>
      <trkpt lat="49.17944" lon="-0.33597">
        <ele>5.4</ele>
        <time>2023-05-04T09:44:12Z</time>
      </trkpt>
      <trkpt lat="49.17943" lon="-0.33606">
        <ele>5.4</ele>
        <time>2023-05-04T09:44:13Z</time>
      </trkpt>
      <trkpt lat="49.17942" lon="-0.33615">
        <ele>5.4</ele>
        <time>2023-05-04T09:44:14Z</time>
      </trkpt>
      <trkpt lat="49.17941" lon="-0.33625">
        <ele>5.4</ele>
        <time>2023-05-04T09:44:15Z</time>
      </trkpt>
      <trkpt lat="49.17941" lon="-0.33635">
        <ele>5.4</ele>
        <time>2023-05-04T09:44:16Z</time>
      </trkpt>
      <trkpt lat="49.17942" lon="-0.33646">
        <ele>5.4</ele>
        <time>2023-05-04T09:44:17Z</time>
      </trkpt>
      <trkpt lat="49.17942" lon="-0.33657">
        <ele>5.4</ele>
        <time>2023-05-04T09:44:18Z</time>
      </trkpt>
      <trkpt lat="49.17943" lon="-0.33668">
        <ele>5.4</ele>
        <time>2023-05-04T09:44:19Z</time>
      </trkpt>
      <trkpt lat="49.17944" lon="-0.33679">
        <ele>5.4</ele>
        <time>2023-05-04T09:44:20Z</time>
      </trkpt>
      <trkpt lat="49.17944" lon="-0.33689">
        <ele>5.2</ele>
        <time>2023-05-04T09:44:21Z</time>
      </trkpt>
      <trkpt lat="49.17944" lon="-0.337">
        <ele>5</ele>
        <time>2023-05-04T09:44:22Z</time>
      </trkpt>
      <trkpt lat="49.17945" lon="-0.3371">
        <ele>5</ele>
        <time>2023-05-04T09:44:23Z</time>
      </trkpt>
      <trkpt lat="49.17946" lon="-0.33721">
        <ele>5</ele>
        <time>2023-05-04T09:44:24Z</time>
      </trkpt>
      <trkpt lat="49.17946" lon="-0.33731">
        <ele>4.8</ele>
        <time>2023-05-04T09:44:25Z</time>
      </trkpt>
      <trkpt lat="49.17947" lon="-0.33742">
        <ele>4.6</ele>
        <time>2023-05-04T09:44:26Z</time>
      </trkpt>
      <trkpt lat="49.17948" lon="-0.33752">
        <ele>4.6</ele>
        <time>2023-05-04T09:44:27Z</time>
      </trkpt>
      <trkpt lat="49.17948" lon="-0.33763">
        <ele>4.6</ele>
        <time>2023-05-04T09:44:28Z</time>
      </trkpt>
      <trkpt lat="49.17949" lon="-0.33774">
        <ele>4.4</ele>
        <time>2023-05-04T09:44:29Z</time>
      </trkpt>
      <trkpt lat="49.17949" lon="-0.33785">
        <ele>4.4</ele>
        <time>2023-05-04T09:44:30Z</time>
      </trkpt>
      <trkpt lat="49.17949" lon="-0.33796">
        <ele>4.4</ele>
        <time>2023-05-04T09:44:31Z</time>
      </trkpt>
      <trkpt lat="49.17949" lon="-0.33808">
        <ele>4.2</ele>
        <time>2023-05-04T09:44:32Z</time>
      </trkpt>
      <trkpt lat="49.17949" lon="-0.33819">
        <ele>4</ele>
        <time>2023-05-04T09:44:33Z</time>
      </trkpt>
      <trkpt lat="49.17949" lon="-0.3383">
        <ele>4</ele>
        <time>2023-05-04T09:44:34Z</time>
      </trkpt>
      <trkpt lat="49.17949" lon="-0.33841">
        <ele>4.2</ele>
        <time>2023-05-04T09:44:35Z</time>
      </trkpt>
      <trkpt lat="49.17949" lon="-0.33852">
        <ele>4.6</ele>
        <time>2023-05-04T09:44:36Z</time>
      </trkpt>
      <trkpt lat="49.17949" lon="-0.33863">
        <ele>4.6</ele>
        <time>2023-05-04T09:44:37Z</time>
      </trkpt>
      <trkpt lat="49.17949" lon="-0.33874">
        <ele>5</ele>
        <time>2023-05-04T09:44:38Z</time>
      </trkpt>
      <trkpt lat="49.17949" lon="-0.33885">
        <ele>5.2</ele>
        <time>2023-05-04T09:44:39Z</time>
      </trkpt>
      <trkpt lat="49.17949" lon="-0.33896">
        <ele>5.6</ele>
        <time>2023-05-04T09:44:40Z</time>
      </trkpt>
      <trkpt lat="49.17949" lon="-0.33907">
        <ele>5.8</ele>
        <time>2023-05-04T09:44:41Z</time>
      </trkpt>
      <trkpt lat="49.17949" lon="-0.33918">
        <ele>6</ele>
        <time>2023-05-04T09:44:42Z</time>
      </trkpt>
      <trkpt lat="49.17949" lon="-0.33928">
        <ele>6.2</ele>
        <time>2023-05-04T09:44:43Z</time>
      </trkpt>
      <trkpt lat="49.17949" lon="-0.33939">
        <ele>6.4</ele>
        <time>2023-05-04T09:44:44Z</time>
      </trkpt>
      <trkpt lat="49.17948" lon="-0.3395">
        <ele>6.6</ele>
        <time>2023-05-04T09:44:45Z</time>
      </trkpt>
      <trkpt lat="49.17948" lon="-0.3396">
        <ele>6.6</ele>
        <time>2023-05-04T09:44:46Z</time>
      </trkpt>
      <trkpt lat="49.17948" lon="-0.3397">
        <ele>6.8</ele>
        <time>2023-05-04T09:44:47Z</time>
      </trkpt>
      <trkpt lat="49.17947" lon="-0.3398">
        <ele>7</ele>
        <time>2023-05-04T09:44:48Z</time>
      </trkpt>
      <trkpt lat="49.17947" lon="-0.3399">
        <ele>7</ele>
        <time>2023-05-04T09:44:49Z</time>
      </trkpt>
      <trkpt lat="49.17947" lon="-0.33999">
        <ele>7.4</ele>
        <time>2023-05-04T09:44:50Z</time>
      </trkpt>
      <trkpt lat="49.17947" lon="-0.34007">
        <ele>7.4</ele>
        <time>2023-05-04T09:44:51Z</time>
      </trkpt>
      <trkpt lat="49.17947" lon="-0.34016">
        <ele>7.4</ele>
        <time>2023-05-04T09:44:52Z</time>
      </trkpt>
      <trkpt lat="49.17948" lon="-0.34024">
        <ele>7.4</ele>
        <time>2023-05-04T09:44:53Z</time>
      </trkpt>
      <trkpt lat="49.17948" lon="-0.34033">
        <ele>7.6</ele>
        <time>2023-05-04T09:44:54Z</time>
      </trkpt>
      <trkpt lat="49.17948" lon="-0.34042">
        <ele>7.6</ele>
        <time>2023-05-04T09:44:55Z</time>
      </trkpt>
      <trkpt lat="49.17948" lon="-0.34052">
        <ele>7.6</ele>
        <time>2023-05-04T09:44:56Z</time>
      </trkpt>
      <trkpt lat="49.17948" lon="-0.34062">
        <ele>7.6</ele>
        <time>2023-05-04T09:44:57Z</time>
      </trkpt>
      <trkpt lat="49.17949" lon="-0.34073">
        <ele>7.8</ele>
        <time>2023-05-04T09:44:58Z</time>
      </trkpt>
      <trkpt lat="49.1795" lon="-0.34084">
        <ele>7.8</ele>
        <time>2023-05-04T09:44:59Z</time>
      </trkpt>
      <trkpt lat="49.1795" lon="-0.34095">
        <ele>7.6</ele>
        <time>2023-05-04T09:45:00Z</time>
      </trkpt>
      <trkpt lat="49.17951" lon="-0.34107">
        <ele>7.6</ele>
        <time>2023-05-04T09:45:01Z</time>
      </trkpt>
      <trkpt lat="49.17951" lon="-0.34119">
        <ele>7.4</ele>
        <time>2023-05-04T09:45:02Z</time>
      </trkpt>
      <trkpt lat="49.17952" lon="-0.34131">
        <ele>7.2</ele>
        <time>2023-05-04T09:45:03Z</time>
      </trkpt>
      <trkpt lat="49.17952" lon="-0.34143">
        <ele>7</ele>
        <time>2023-05-04T09:45:04Z</time>
      </trkpt>
      <trkpt lat="49.17952" lon="-0.34155">
        <ele>7</ele>
        <time>2023-05-04T09:45:05Z</time>
      </trkpt>
      <trkpt lat="49.17953" lon="-0.34167">
        <ele>6.6</ele>
        <time>2023-05-04T09:45:06Z</time>
      </trkpt>
      <trkpt lat="49.17953" lon="-0.34178">
        <ele>6.6</ele>
        <time>2023-05-04T09:45:07Z</time>
      </trkpt>
      <trkpt lat="49.17954" lon="-0.3419">
        <ele>6.8</ele>
        <time>2023-05-04T09:45:08Z</time>
      </trkpt>
      <trkpt lat="49.17954" lon="-0.34201">
        <ele>6.8</ele>
        <time>2023-05-04T09:45:09Z</time>
      </trkpt>
      <trkpt lat="49.17955" lon="-0.34211">
        <ele>7</ele>
        <time>2023-05-04T09:45:10Z</time>
      </trkpt>
      <trkpt lat="49.17955" lon="-0.34221">
        <ele>7</ele>
        <time>2023-05-04T09:45:11Z</time>
      </trkpt>
      <trkpt lat="49.17955" lon="-0.34231">
        <ele>7</ele>
        <time>2023-05-04T09:45:12Z</time>
      </trkpt>
      <trkpt lat="49.17956" lon="-0.34241">
        <ele>7</ele>
        <time>2023-05-04T09:45:13Z</time>
      </trkpt>
      <trkpt lat="49.17956" lon="-0.3425">
        <ele>7</ele>
        <time>2023-05-04T09:45:14Z</time>
      </trkpt>
      <trkpt lat="49.17957" lon="-0.3426">
        <ele>7</ele>
        <time>2023-05-04T09:45:15Z</time>
      </trkpt>
      <trkpt lat="49.17958" lon="-0.3427">
        <ele>7</ele>
        <time>2023-05-04T09:45:16Z</time>
      </trkpt>
      <trkpt lat="49.17958" lon="-0.3428">
        <ele>7.2</ele>
        <time>2023-05-04T09:45:17Z</time>
      </trkpt>
      <trkpt lat="49.17959" lon="-0.34289">
        <ele>7.2</ele>
        <time>2023-05-04T09:45:18Z</time>
      </trkpt>
      <trkpt lat="49.17958" lon="-0.34298">
        <ele>7.4</ele>
        <time>2023-05-04T09:45:19Z</time>
      </trkpt>
      <trkpt lat="49.17957" lon="-0.34306">
        <ele>7.4</ele>
        <time>2023-05-04T09:45:20Z</time>
      </trkpt>
      <trkpt lat="49.17956" lon="-0.34314">
        <ele>7.4</ele>
        <time>2023-05-04T09:45:21Z</time>
      </trkpt>
      <trkpt lat="49.17956" lon="-0.34323">
        <ele>7.6</ele>
        <time>2023-05-04T09:45:22Z</time>
      </trkpt>
      <trkpt lat="49.17956" lon="-0.34332">
        <ele>7.6</ele>
        <time>2023-05-04T09:45:23Z</time>
      </trkpt>
      <trkpt lat="49.17957" lon="-0.34341">
        <ele>7.4</ele>
        <time>2023-05-04T09:45:24Z</time>
      </trkpt>
      <trkpt lat="49.17959" lon="-0.34351">
        <ele>7.4</ele>
        <time>2023-05-04T09:45:25Z</time>
      </trkpt>
      <trkpt lat="49.1796" lon="-0.34362">
        <ele>7</ele>
        <time>2023-05-04T09:45:26Z</time>
      </trkpt>
      <trkpt lat="49.1796" lon="-0.34372">
        <ele>7</ele>
        <time>2023-05-04T09:45:27Z</time>
      </trkpt>
      <trkpt lat="49.1796" lon="-0.34382">
        <ele>7</ele>
        <time>2023-05-04T09:45:28Z</time>
      </trkpt>
      <trkpt lat="49.1796" lon="-0.34392">
        <ele>6.8</ele>
        <time>2023-05-04T09:45:29Z</time>
      </trkpt>
      <trkpt lat="49.1796" lon="-0.34405">
        <ele>6.6</ele>
        <time>2023-05-04T09:45:30Z</time>
      </trkpt>
      <trkpt lat="49.1796" lon="-0.34419">
        <ele>6.4</ele>
        <time>2023-05-04T09:45:31Z</time>
      </trkpt>
      <trkpt lat="49.17961" lon="-0.34433">
        <ele>6</ele>
        <time>2023-05-04T09:45:32Z</time>
      </trkpt>
      <trkpt lat="49.17961" lon="-0.34447">
        <ele>6</ele>
        <time>2023-05-04T09:45:33Z</time>
      </trkpt>
      <trkpt lat="49.17961" lon="-0.3446">
        <ele>5.6</ele>
        <time>2023-05-04T09:45:34Z</time>
      </trkpt>
      <trkpt lat="49.17961" lon="-0.34472">
        <ele>5.4</ele>
        <time>2023-05-04T09:45:35Z</time>
      </trkpt>
      <trkpt lat="49.1796" lon="-0.34484">
        <ele>5.2</ele>
        <time>2023-05-04T09:45:36Z</time>
      </trkpt>
      <trkpt lat="49.1796" lon="-0.34496">
        <ele>5</ele>
        <time>2023-05-04T09:45:37Z</time>
      </trkpt>
      <trkpt lat="49.1796" lon="-0.34507">
        <ele>5</ele>
        <time>2023-05-04T09:45:38Z</time>
      </trkpt>
      <trkpt lat="49.1796" lon="-0.34519">
        <ele>5.4</ele>
        <time>2023-05-04T09:45:39Z</time>
      </trkpt>
      <trkpt lat="49.1796" lon="-0.3453">
        <ele>5.6</ele>
        <time>2023-05-04T09:45:40Z</time>
      </trkpt>
      <trkpt lat="49.17961" lon="-0.34541">
        <ele>5.6</ele>
        <time>2023-05-04T09:45:41Z</time>
      </trkpt>
      <trkpt lat="49.17962" lon="-0.34552">
        <ele>5.8</ele>
        <time>2023-05-04T09:45:42Z</time>
      </trkpt>
      <trkpt lat="49.17963" lon="-0.34563">
        <ele>6</ele>
        <time>2023-05-04T09:45:43Z</time>
      </trkpt>
      <trkpt lat="49.17963" lon="-0.34573">
        <ele>6.2</ele>
        <time>2023-05-04T09:45:44Z</time>
      </trkpt>
      <trkpt lat="49.17963" lon="-0.34583">
        <ele>6.4</ele>
        <time>2023-05-04T09:45:45Z</time>
      </trkpt>
      <trkpt lat="49.17964" lon="-0.34594">
        <ele>6.6</ele>
        <time>2023-05-04T09:45:46Z</time>
      </trkpt>
      <trkpt lat="49.17964" lon="-0.34604">
        <ele>6.8</ele>
        <time>2023-05-04T09:45:47Z</time>
      </trkpt>
      <trkpt lat="49.17964" lon="-0.34615">
        <ele>7</ele>
        <time>2023-05-04T09:45:48Z</time>
      </trkpt>
      <trkpt lat="49.17964" lon="-0.34625">
        <ele>7.2</ele>
        <time>2023-05-04T09:45:49Z</time>
      </trkpt>
      <trkpt lat="49.17964" lon="-0.34636">
        <ele>7.4</ele>
        <time>2023-05-04T09:45:50Z</time>
      </trkpt>
      <trkpt lat="49.17964" lon="-0.34646">
        <ele>7.6</ele>
        <time>2023-05-04T09:45:51Z</time>
      </trkpt>
      <trkpt lat="49.17964" lon="-0.34657">
        <ele>7.8</ele>
        <time>2023-05-04T09:45:52Z</time>
      </trkpt>
      <trkpt lat="49.17965" lon="-0.34667">
        <ele>8</ele>
        <time>2023-05-04T09:45:53Z</time>
      </trkpt>
      <trkpt lat="49.17965" lon="-0.34677">
        <ele>8.2</ele>
        <time>2023-05-04T09:45:54Z</time>
      </trkpt>
      <trkpt lat="49.17966" lon="-0.34687">
        <ele>8.4</ele>
        <time>2023-05-04T09:45:55Z</time>
      </trkpt>
      <trkpt lat="49.17966" lon="-0.34697">
        <ele>8.6</ele>
        <time>2023-05-04T09:45:56Z</time>
      </trkpt>
      <trkpt lat="49.17967" lon="-0.34707">
        <ele>8.6</ele>
        <time>2023-05-04T09:45:57Z</time>
      </trkpt>
      <trkpt lat="49.17967" lon="-0.34716">
        <ele>8.8</ele>
        <time>2023-05-04T09:45:58Z</time>
      </trkpt>
      <trkpt lat="49.17968" lon="-0.34726">
        <ele>9</ele>
        <time>2023-05-04T09:45:59Z</time>
      </trkpt>
      <trkpt lat="49.17968" lon="-0.34736">
        <ele>9.2</ele>
        <time>2023-05-04T09:46:00Z</time>
      </trkpt>
      <trkpt lat="49.17968" lon="-0.34745">
        <ele>9.4</ele>
        <time>2023-05-04T09:46:01Z</time>
      </trkpt>
      <trkpt lat="49.17968" lon="-0.34755">
        <ele>9.4</ele>
        <time>2023-05-04T09:46:02Z</time>
      </trkpt>
      <trkpt lat="49.17968" lon="-0.34765">
        <ele>9.4</ele>
        <time>2023-05-04T09:46:03Z</time>
      </trkpt>
      <trkpt lat="49.17967" lon="-0.34774">
        <ele>9.2</ele>
        <time>2023-05-04T09:46:04Z</time>
      </trkpt>
      <trkpt lat="49.17967" lon="-0.34784">
        <ele>9.2</ele>
        <time>2023-05-04T09:46:05Z</time>
      </trkpt>
      <trkpt lat="49.17966" lon="-0.34793">
        <ele>9</ele>
        <time>2023-05-04T09:46:06Z</time>
      </trkpt>
      <trkpt lat="49.17965" lon="-0.34802">
        <ele>8.8</ele>
        <time>2023-05-04T09:46:07Z</time>
      </trkpt>
      <trkpt lat="49.17964" lon="-0.34811">
        <ele>8.8</ele>
        <time>2023-05-04T09:46:08Z</time>
      </trkpt>
      <trkpt lat="49.17963" lon="-0.3482">
        <ele>8.6</ele>
        <time>2023-05-04T09:46:09Z</time>
      </trkpt>
      <trkpt lat="49.17962" lon="-0.34828">
        <ele>8.6</ele>
        <time>2023-05-04T09:46:10Z</time>
      </trkpt>
      <trkpt lat="49.1796" lon="-0.34836">
        <ele>8.6</ele>
        <time>2023-05-04T09:46:11Z</time>
      </trkpt>
      <trkpt lat="49.17958" lon="-0.34843">
        <ele>8.4</ele>
        <time>2023-05-04T09:46:12Z</time>
      </trkpt>
      <trkpt lat="49.17956" lon="-0.34849">
        <ele>8.2</ele>
        <time>2023-05-04T09:46:13Z</time>
      </trkpt>
      <trkpt lat="49.17954" lon="-0.34855">
        <ele>8.2</ele>
        <time>2023-05-04T09:46:14Z</time>
      </trkpt>
      <trkpt lat="49.17952" lon="-0.34861">
        <ele>8.2</ele>
        <time>2023-05-04T09:46:15Z</time>
      </trkpt>
      <trkpt lat="49.17951" lon="-0.34865">
        <ele>8</ele>
        <time>2023-05-04T09:46:16Z</time>
      </trkpt>
      <trkpt lat="49.1795" lon="-0.3487">
        <ele>8</ele>
        <time>2023-05-04T09:46:17Z</time>
      </trkpt>
      <trkpt lat="49.17949" lon="-0.34874">
        <ele>8</ele>
        <time>2023-05-04T09:46:18Z</time>
      </trkpt>
      <trkpt lat="49.17947" lon="-0.34878">
        <ele>8</ele>
        <time>2023-05-04T09:46:19Z</time>
      </trkpt>
      <trkpt lat="49.17946" lon="-0.34881">
        <ele>8</ele>
        <time>2023-05-04T09:46:20Z</time>
      </trkpt>
      <trkpt lat="49.17945" lon="-0.34885">
        <ele>8</ele>
        <time>2023-05-04T09:46:21Z</time>
      </trkpt>
      <trkpt lat="49.17945" lon="-0.34888">
        <ele>8</ele>
        <time>2023-05-04T09:46:22Z</time>
      </trkpt>
      <trkpt lat="49.17945" lon="-0.34892">
        <ele>8</ele>
        <time>2023-05-04T09:46:23Z</time>
      </trkpt>
      <trkpt lat="49.17946" lon="-0.34895">
        <ele>7.8</ele>
        <time>2023-05-04T09:46:24Z</time>
      </trkpt>
      <trkpt lat="49.17948" lon="-0.34898">
        <ele>7.6</ele>
        <time>2023-05-04T09:46:25Z</time>
      </trkpt>
      <trkpt lat="49.1795" lon="-0.34901">
        <ele>7.6</ele>
        <time>2023-05-04T09:46:26Z</time>
      </trkpt>
      <trkpt lat="49.17953" lon="-0.34904">
        <ele>7.6</ele>
        <time>2023-05-04T09:46:27Z</time>
      </trkpt>
      <trkpt lat="49.17956" lon="-0.34907">
        <ele>7.4</ele>
        <time>2023-05-04T09:46:28Z</time>
      </trkpt>
      <trkpt lat="49.17959" lon="-0.3491">
        <ele>7</ele>
        <time>2023-05-04T09:46:29Z</time>
      </trkpt>
      <trkpt lat="49.17962" lon="-0.34913">
        <ele>7</ele>
        <time>2023-05-04T09:46:30Z</time>
      </trkpt>
      <trkpt lat="49.17965" lon="-0.34916">
        <ele>6.6</ele>
        <time>2023-05-04T09:46:31Z</time>
      </trkpt>
      <trkpt lat="49.17969" lon="-0.3492">
        <ele>6.6</ele>
        <time>2023-05-04T09:46:32Z</time>
      </trkpt>
      <trkpt lat="49.17972" lon="-0.34924">
        <ele>6.4</ele>
        <time>2023-05-04T09:46:33Z</time>
      </trkpt>
      <trkpt lat="49.17976" lon="-0.34927">
        <ele>6.2</ele>
        <time>2023-05-04T09:46:34Z</time>
      </trkpt>
      <trkpt lat="49.17979" lon="-0.34931">
        <ele>6</ele>
        <time>2023-05-04T09:46:35Z</time>
      </trkpt>
      <trkpt lat="49.17983" lon="-0.34935">
        <ele>6</ele>
        <time>2023-05-04T09:46:36Z</time>
      </trkpt>
      <trkpt lat="49.17987" lon="-0.34939">
        <ele>5.8</ele>
        <time>2023-05-04T09:46:37Z</time>
      </trkpt>
      <trkpt lat="49.1799" lon="-0.34943">
        <ele>5.6</ele>
        <time>2023-05-04T09:46:38Z</time>
      </trkpt>
      <trkpt lat="49.17993" lon="-0.34947">
        <ele>5.6</ele>
        <time>2023-05-04T09:46:39Z</time>
      </trkpt>
      <trkpt lat="49.17996" lon="-0.34951">
        <ele>5.6</ele>
        <time>2023-05-04T09:46:40Z</time>
      </trkpt>
      <trkpt lat="49.17999" lon="-0.34955">
        <ele>5.6</ele>
        <time>2023-05-04T09:46:41Z</time>
      </trkpt>
      <trkpt lat="49.18002" lon="-0.34958">
        <ele>5.6</ele>
        <time>2023-05-04T09:46:42Z</time>
      </trkpt>
      <trkpt lat="49.18004" lon="-0.3496">
        <ele>5.6</ele>
        <time>2023-05-04T09:46:43Z</time>
      </trkpt>
      <trkpt lat="49.18007" lon="-0.34962">
        <ele>5.6</ele>
        <time>2023-05-04T09:46:44Z</time>
      </trkpt>
      <trkpt lat="49.1801" lon="-0.34963">
        <ele>5.4</ele>
        <time>2023-05-04T09:46:45Z</time>
      </trkpt>
      <trkpt lat="49.18012" lon="-0.34964">
        <ele>5.4</ele>
        <time>2023-05-04T09:46:46Z</time>
      </trkpt>
      <trkpt lat="49.18013" lon="-0.34967">
        <ele>5.4</ele>
        <time>2023-05-04T09:46:47Z</time>
      </trkpt>
      <trkpt lat="49.18013" lon="-0.34969">
        <ele>5.6</ele>
        <time>2023-05-04T09:46:48Z</time>
      </trkpt>
      <trkpt lat="49.18012" lon="-0.3497">
        <ele>5.6</ele>
        <time>2023-05-04T09:46:49Z</time>
      </trkpt>
      <trkpt lat="49.18012" lon="-0.3497">
        <ele>5.6</ele>
        <time>2023-05-04T09:46:50Z</time>
      </trkpt>
      <trkpt lat="49.18012" lon="-0.3497">
        <ele>5.6</ele>
        <time>2023-05-04T09:46:51Z</time>
      </trkpt>
      <trkpt lat="49.18012" lon="-0.3497">
        <ele>5.6</ele>
        <time>2023-05-04T09:46:52Z</time>
      </trkpt>
      <trkpt lat="49.18012" lon="-0.3497">
        <ele>5.6</ele>
        <time>2023-05-04T09:46:53Z</time>
      </trkpt>
      <trkpt lat="49.18012" lon="-0.3497">
        <ele>5.6</ele>
        <time>2023-05-04T09:46:54Z</time>
      </trkpt>
      <trkpt lat="49.18012" lon="-0.3497">
        <ele>5.6</ele>
        <time>2023-05-04T09:46:55Z</time>
      </trkpt>
      <trkpt lat="49.18012" lon="-0.3497">
        <ele>5.6</ele>
        <time>2023-05-04T09:46:56Z</time>
      </trkpt>
      <trkpt lat="49.18012" lon="-0.3497">
        <ele>5.6</ele>
        <time>2023-05-04T09:46:57Z</time>
      </trkpt>
      <trkpt lat="49.18012" lon="-0.3497">
        <ele>5.6</ele>
        <time>2023-05-04T09:46:58Z</time>
      </trkpt>
      <trkpt lat="49.18012" lon="-0.3497">
        <ele>5.6</ele>
        <time>2023-05-04T09:46:59Z</time>
      </trkpt>
      <trkpt lat="49.18012" lon="-0.3497">
        <ele>5.6</ele>
        <time>2023-05-04T09:47:00Z</time>
      </trkpt>
      <trkpt lat="49.18012" lon="-0.3497">
        <ele>5.6</ele>
        <time>2023-05-04T09:47:01Z</time>
      </trkpt>
      <trkpt lat="49.18012" lon="-0.3497">
        <ele>5.6</ele>
        <time>2023-05-04T09:47:02Z</time>
      </trkpt>
      <trkpt lat="49.18012" lon="-0.3497">
        <ele>5.6</ele>
        <time>2023-05-04T09:47:03Z</time>
      </trkpt>
      <trkpt lat="49.18012" lon="-0.34971">
        <ele>5.6</ele>
        <time>2023-05-04T09:47:04Z</time>
      </trkpt>
      <trkpt lat="49.18011" lon="-0.34972">
        <ele>5.6</ele>
        <time>2023-05-04T09:47:05Z</time>
      </trkpt>
      <trkpt lat="49.1801" lon="-0.34973">
        <ele>5.6</ele>
        <time>2023-05-04T09:47:06Z</time>
      </trkpt>
      <trkpt lat="49.18008" lon="-0.34976">
        <ele>5.6</ele>
        <time>2023-05-04T09:47:07Z</time>
      </trkpt>
      <trkpt lat="49.18006" lon="-0.34978">
        <ele>5.6</ele>
        <time>2023-05-04T09:47:08Z</time>
      </trkpt>
      <trkpt lat="49.18003" lon="-0.34981">
        <ele>5.6</ele>
        <time>2023-05-04T09:47:09Z</time>
      </trkpt>
      <trkpt lat="49.18001" lon="-0.34984">
        <ele>5.8</ele>
        <time>2023-05-04T09:47:10Z</time>
      </trkpt>
      <trkpt lat="49.17997" lon="-0.34985">
        <ele>6</ele>
        <time>2023-05-04T09:47:11Z</time>
      </trkpt>
      <trkpt lat="49.17994" lon="-0.34986">
        <ele>6</ele>
        <time>2023-05-04T09:47:12Z</time>
      </trkpt>
      <trkpt lat="49.1799" lon="-0.34983">
        <ele>6</ele>
        <time>2023-05-04T09:47:13Z</time>
      </trkpt>
      <trkpt lat="49.17988" lon="-0.34979">
        <ele>6</ele>
        <time>2023-05-04T09:47:14Z</time>
      </trkpt>
      <trkpt lat="49.17985" lon="-0.34975">
        <ele>6.2</ele>
        <time>2023-05-04T09:47:15Z</time>
      </trkpt>
      <trkpt lat="49.17982" lon="-0.34975">
        <ele>6.4</ele>
        <time>2023-05-04T09:47:16Z</time>
      </trkpt>
      <trkpt lat="49.17979" lon="-0.34979">
        <ele>6.4</ele>
        <time>2023-05-04T09:47:17Z</time>
      </trkpt>
      <trkpt lat="49.17976" lon="-0.34985">
        <ele>6.6</ele>
        <time>2023-05-04T09:47:18Z</time>
      </trkpt>
      <trkpt lat="49.17973" lon="-0.34991">
        <ele>6.6</ele>
        <time>2023-05-04T09:47:19Z</time>
      </trkpt>
      <trkpt lat="49.1797" lon="-0.34997">
        <ele>6.6</ele>
        <time>2023-05-04T09:47:20Z</time>
      </trkpt>
      <trkpt lat="49.17967" lon="-0.35004">
        <ele>7</ele>
        <time>2023-05-04T09:47:21Z</time>
      </trkpt>
      <trkpt lat="49.17964" lon="-0.35011">
        <ele>7</ele>
        <time>2023-05-04T09:47:22Z</time>
      </trkpt>
      <trkpt lat="49.17961" lon="-0.35018">
        <ele>7.4</ele>
        <time>2023-05-04T09:47:23Z</time>
      </trkpt>
      <trkpt lat="49.17957" lon="-0.35025">
        <ele>7.6</ele>
        <time>2023-05-04T09:47:24Z</time>
      </trkpt>
      <trkpt lat="49.17954" lon="-0.35033">
        <ele>7.6</ele>
        <time>2023-05-04T09:47:25Z</time>
      </trkpt>
      <trkpt lat="49.17951" lon="-0.3504">
        <ele>7.8</ele>
        <time>2023-05-04T09:47:26Z</time>
      </trkpt>
      <trkpt lat="49.17947" lon="-0.35048">
        <ele>8</ele>
        <time>2023-05-04T09:47:27Z</time>
      </trkpt>
      <trkpt lat="49.17944" lon="-0.35055">
        <ele>8</ele>
        <time>2023-05-04T09:47:28Z</time>
      </trkpt>
      <trkpt lat="49.1794" lon="-0.35062">
        <ele>8.2</ele>
        <time>2023-05-04T09:47:29Z</time>
      </trkpt>
      <trkpt lat="49.17937" lon="-0.3507">
        <ele>8.2</ele>
        <time>2023-05-04T09:47:30Z</time>
      </trkpt>
      <trkpt lat="49.17933" lon="-0.35078">
        <ele>8.2</ele>
        <time>2023-05-04T09:47:31Z</time>
      </trkpt>
      <trkpt lat="49.1793" lon="-0.35085">
        <ele>8.2</ele>
        <time>2023-05-04T09:47:32Z</time>
      </trkpt>
      <trkpt lat="49.17927" lon="-0.35093">
        <ele>8.2</ele>
        <time>2023-05-04T09:47:33Z</time>
      </trkpt>
      <trkpt lat="49.17923" lon="-0.351">
        <ele>8.2</ele>
        <time>2023-05-04T09:47:34Z</time>
      </trkpt>
      <trkpt lat="49.1792" lon="-0.35108">
        <ele>8.2</ele>
        <time>2023-05-04T09:47:35Z</time>
      </trkpt>
      <trkpt lat="49.17917" lon="-0.35115">
        <ele>8</ele>
        <time>2023-05-04T09:47:36Z</time>
      </trkpt>
      <trkpt lat="49.17913" lon="-0.35123">
        <ele>8</ele>
        <time>2023-05-04T09:47:37Z</time>
      </trkpt>
      <trkpt lat="49.1791" lon="-0.3513">
        <ele>8</ele>
        <time>2023-05-04T09:47:38Z</time>
      </trkpt>
      <trkpt lat="49.17907" lon="-0.35138">
        <ele>7.8</ele>
        <time>2023-05-04T09:47:39Z</time>
      </trkpt>
      <trkpt lat="49.17903" lon="-0.35145">
        <ele>7.8</ele>
        <time>2023-05-04T09:47:40Z</time>
      </trkpt>
      <trkpt lat="49.179" lon="-0.35153">
        <ele>7.8</ele>
        <time>2023-05-04T09:47:41Z</time>
      </trkpt>
      <trkpt lat="49.17896" lon="-0.35161">
        <ele>7.6</ele>
        <time>2023-05-04T09:47:42Z</time>
      </trkpt>
      <trkpt lat="49.17893" lon="-0.35168">
        <ele>7.6</ele>
        <time>2023-05-04T09:47:43Z</time>
      </trkpt>
      <trkpt lat="49.1789" lon="-0.35176">
        <ele>7.6</ele>
        <time>2023-05-04T09:47:44Z</time>
      </trkpt>
      <trkpt lat="49.17886" lon="-0.35183">
        <ele>7.6</ele>
        <time>2023-05-04T09:47:45Z</time>
      </trkpt>
      <trkpt lat="49.17883" lon="-0.35191">
        <ele>7.6</ele>
        <time>2023-05-04T09:47:46Z</time>
      </trkpt>
      <trkpt lat="49.1788" lon="-0.35198">
        <ele>7.6</ele>
        <time>2023-05-04T09:47:47Z</time>
      </trkpt>
      <trkpt lat="49.17876" lon="-0.35206">
        <ele>7.6</ele>
        <time>2023-05-04T09:47:48Z</time>
      </trkpt>
      <trkpt lat="49.17873" lon="-0.35213">
        <ele>7.8</ele>
        <time>2023-05-04T09:47:49Z</time>
      </trkpt>
      <trkpt lat="49.17869" lon="-0.3522">
        <ele>7.8</ele>
        <time>2023-05-04T09:47:50Z</time>
      </trkpt>
      <trkpt lat="49.17866" lon="-0.35228">
        <ele>7.8</ele>
        <time>2023-05-04T09:47:51Z</time>
      </trkpt>
      <trkpt lat="49.17863" lon="-0.35235">
        <ele>8</ele>
        <time>2023-05-04T09:47:52Z</time>
      </trkpt>
      <trkpt lat="49.17859" lon="-0.35243">
        <ele>8</ele>
        <time>2023-05-04T09:47:53Z</time>
      </trkpt>
      <trkpt lat="49.17856" lon="-0.35251">
        <ele>8</ele>
        <time>2023-05-04T09:47:54Z</time>
      </trkpt>
      <trkpt lat="49.17852" lon="-0.35259">
        <ele>8.2</ele>
        <time>2023-05-04T09:47:55Z</time>
      </trkpt>
      <trkpt lat="49.17849" lon="-0.35266">
        <ele>8.2</ele>
        <time>2023-05-04T09:47:56Z</time>
      </trkpt>
      <trkpt lat="49.17845" lon="-0.35274">
        <ele>8.4</ele>
        <time>2023-05-04T09:47:57Z</time>
      </trkpt>
      <trkpt lat="49.17842" lon="-0.35282">
        <ele>8.4</ele>
        <time>2023-05-04T09:47:58Z</time>
      </trkpt>
      <trkpt lat="49.17838" lon="-0.35289">
        <ele>8.6</ele>
        <time>2023-05-04T09:47:59Z</time>
      </trkpt>
      <trkpt lat="49.17835" lon="-0.35296">
        <ele>8.6</ele>
        <time>2023-05-04T09:48:00Z</time>
      </trkpt>
      <trkpt lat="49.17832" lon="-0.35302">
        <ele>8.6</ele>
        <time>2023-05-04T09:48:01Z</time>
      </trkpt>
      <trkpt lat="49.1783" lon="-0.35308">
        <ele>8.6</ele>
        <time>2023-05-04T09:48:02Z</time>
      </trkpt>
      <trkpt lat="49.17827" lon="-0.35314">
        <ele>8.8</ele>
        <time>2023-05-04T09:48:03Z</time>
      </trkpt>
      <trkpt lat="49.17825" lon="-0.35318">
        <ele>8.8</ele>
        <time>2023-05-04T09:48:04Z</time>
      </trkpt>
      <trkpt lat="49.17824" lon="-0.35321">
        <ele>8.8</ele>
        <time>2023-05-04T09:48:05Z</time>
      </trkpt>
      <trkpt lat="49.17823" lon="-0.35324">
        <ele>8.8</ele>
        <time>2023-05-04T09:48:06Z</time>
      </trkpt>
      <trkpt lat="49.17821" lon="-0.35328">
        <ele>8.8</ele>
        <time>2023-05-04T09:48:07Z</time>
      </trkpt>
      <trkpt lat="49.17819" lon="-0.35332">
        <ele>9</ele>
        <time>2023-05-04T09:48:08Z</time>
      </trkpt>
      <trkpt lat="49.17817" lon="-0.35338">
        <ele>9.2</ele>
        <time>2023-05-04T09:48:09Z</time>
      </trkpt>
      <trkpt lat="49.17814" lon="-0.35343">
        <ele>9.2</ele>
        <time>2023-05-04T09:48:10Z</time>
      </trkpt>
      <trkpt lat="49.17811" lon="-0.3535">
        <ele>9.4</ele>
        <time>2023-05-04T09:48:11Z</time>
      </trkpt>
      <trkpt lat="49.17808" lon="-0.35357">
        <ele>9.6</ele>
        <time>2023-05-04T09:48:12Z</time>
      </trkpt>
      <trkpt lat="49.17804" lon="-0.35365">
        <ele>9.6</ele>
        <time>2023-05-04T09:48:13Z</time>
      </trkpt>
      <trkpt lat="49.17801" lon="-0.35372">
        <ele>9.8</ele>
        <time>2023-05-04T09:48:14Z</time>
      </trkpt>
      <trkpt lat="49.17797" lon="-0.3538">
        <ele>9.8</ele>
        <time>2023-05-04T09:48:15Z</time>
      </trkpt>
      <trkpt lat="49.17793" lon="-0.35388">
        <ele>10</ele>
        <time>2023-05-04T09:48:16Z</time>
      </trkpt>
      <trkpt lat="49.17789" lon="-0.35396">
        <ele>10.2</ele>
        <time>2023-05-04T09:48:17Z</time>
      </trkpt>
      <trkpt lat="49.17786" lon="-0.35404">
        <ele>10.2</ele>
        <time>2023-05-04T09:48:18Z</time>
      </trkpt>
      <trkpt lat="49.17782" lon="-0.35412">
        <ele>10.4</ele>
        <time>2023-05-04T09:48:19Z</time>
      </trkpt>
      <trkpt lat="49.17778" lon="-0.3542">
        <ele>10.4</ele>
        <time>2023-05-04T09:48:20Z</time>
      </trkpt>
      <trkpt lat="49.17774" lon="-0.35427">
        <ele>10.4</ele>
        <time>2023-05-04T09:48:21Z</time>
      </trkpt>
      <trkpt lat="49.17771" lon="-0.35435">
        <ele>10.2</ele>
        <time>2023-05-04T09:48:22Z</time>
      </trkpt>
      <trkpt lat="49.17767" lon="-0.35443">
        <ele>10.2</ele>
        <time>2023-05-04T09:48:23Z</time>
      </trkpt>
      <trkpt lat="49.17764" lon="-0.3545">
        <ele>10</ele>
        <time>2023-05-04T09:48:24Z</time>
      </trkpt>
      <trkpt lat="49.1776" lon="-0.35458">
        <ele>9.8</ele>
        <time>2023-05-04T09:48:25Z</time>
      </trkpt>
      <trkpt lat="49.17757" lon="-0.35465">
        <ele>9.6</ele>
        <time>2023-05-04T09:48:26Z</time>
      </trkpt>
      <trkpt lat="49.17754" lon="-0.35472">
        <ele>9.6</ele>
        <time>2023-05-04T09:48:27Z</time>
      </trkpt>
      <trkpt lat="49.17751" lon="-0.35479">
        <ele>9.4</ele>
        <time>2023-05-04T09:48:28Z</time>
      </trkpt>
      <trkpt lat="49.17748" lon="-0.35486">
        <ele>9.2</ele>
        <time>2023-05-04T09:48:29Z</time>
      </trkpt>
      <trkpt lat="49.17745" lon="-0.35493">
        <ele>9.2</ele>
        <time>2023-05-04T09:48:30Z</time>
      </trkpt>
      <trkpt lat="49.17742" lon="-0.35499">
        <ele>9</ele>
        <time>2023-05-04T09:48:31Z</time>
      </trkpt>
      <trkpt lat="49.17739" lon="-0.35504">
        <ele>9</ele>
        <time>2023-05-04T09:48:32Z</time>
      </trkpt>
      <trkpt lat="49.17736" lon="-0.35507">
        <ele>9.2</ele>
        <time>2023-05-04T09:48:33Z</time>
      </trkpt>
      <trkpt lat="49.17733" lon="-0.3551">
        <ele>9.2</ele>
        <time>2023-05-04T09:48:34Z</time>
      </trkpt>
      <trkpt lat="49.17731" lon="-0.35513">
        <ele>9.2</ele>
        <time>2023-05-04T09:48:35Z</time>
      </trkpt>
      <trkpt lat="49.17729" lon="-0.35516">
        <ele>9.2</ele>
        <time>2023-05-04T09:48:36Z</time>
      </trkpt>
      <trkpt lat="49.17729" lon="-0.35518">
        <ele>9.2</ele>
        <time>2023-05-04T09:48:37Z</time>
      </trkpt>
      <trkpt lat="49.17728" lon="-0.35519">
        <ele>9.2</ele>
        <time>2023-05-04T09:48:38Z</time>
      </trkpt>
      <trkpt lat="49.17728" lon="-0.3552">
        <ele>9.2</ele>
        <time>2023-05-04T09:48:39Z</time>
      </trkpt>
      <trkpt lat="49.17728" lon="-0.3552">
        <ele>9.2</ele>
        <time>2023-05-04T09:48:40Z</time>
      </trkpt>
      <trkpt lat="49.17728" lon="-0.3552">
        <ele>9.2</ele>
        <time>2023-05-04T09:48:41Z</time>
      </trkpt>
      <trkpt lat="49.17727" lon="-0.35521">
        <ele>9.2</ele>
        <time>2023-05-04T09:48:42Z</time>
      </trkpt>
      <trkpt lat="49.17725" lon="-0.35524">
        <ele>9.2</ele>
        <time>2023-05-04T09:48:43Z</time>
      </trkpt>
      <trkpt lat="49.17724" lon="-0.35528">
        <ele>9.2</ele>
        <time>2023-05-04T09:48:44Z</time>
      </trkpt>
      <trkpt lat="49.17724" lon="-0.35532">
        <ele>9.4</ele>
        <time>2023-05-04T09:48:45Z</time>
      </trkpt>
      <trkpt lat="49.17724" lon="-0.35538">
        <ele>9.4</ele>
        <time>2023-05-04T09:48:46Z</time>
      </trkpt>
      <trkpt lat="49.17722" lon="-0.35544">
        <ele>9.4</ele>
        <time>2023-05-04T09:48:47Z</time>
      </trkpt>
      <trkpt lat="49.1772" lon="-0.3555">
        <ele>9.4</ele>
        <time>2023-05-04T09:48:48Z</time>
      </trkpt>
      <trkpt lat="49.17717" lon="-0.35556">
        <ele>9.4</ele>
        <time>2023-05-04T09:48:49Z</time>
      </trkpt>
      <trkpt lat="49.17714" lon="-0.35562">
        <ele>9.4</ele>
        <time>2023-05-04T09:48:50Z</time>
      </trkpt>
      <trkpt lat="49.1771" lon="-0.35569">
        <ele>9.4</ele>
        <time>2023-05-04T09:48:51Z</time>
      </trkpt>
      <trkpt lat="49.17707" lon="-0.35577">
        <ele>9.4</ele>
        <time>2023-05-04T09:48:52Z</time>
      </trkpt>
      <trkpt lat="49.17704" lon="-0.35584">
        <ele>9.6</ele>
        <time>2023-05-04T09:48:53Z</time>
      </trkpt>
      <trkpt lat="49.17701" lon="-0.35592">
        <ele>9.6</ele>
        <time>2023-05-04T09:48:54Z</time>
      </trkpt>
      <trkpt lat="49.17697" lon="-0.35599">
        <ele>9.6</ele>
        <time>2023-05-04T09:48:55Z</time>
      </trkpt>
      <trkpt lat="49.17694" lon="-0.35607">
        <ele>9.6</ele>
        <time>2023-05-04T09:48:56Z</time>
      </trkpt>
      <trkpt lat="49.1769" lon="-0.35615">
        <ele>9.6</ele>
        <time>2023-05-04T09:48:57Z</time>
      </trkpt>
      <trkpt lat="49.17687" lon="-0.35623">
        <ele>9.6</ele>
        <time>2023-05-04T09:48:58Z</time>
      </trkpt>
      <trkpt lat="49.17684" lon="-0.35631">
        <ele>9.8</ele>
        <time>2023-05-04T09:48:59Z</time>
      </trkpt>
      <trkpt lat="49.1768" lon="-0.35639">
        <ele>9.8</ele>
        <time>2023-05-04T09:49:00Z</time>
      </trkpt>
      <trkpt lat="49.17676" lon="-0.35646">
        <ele>9.8</ele>
        <time>2023-05-04T09:49:01Z</time>
      </trkpt>
      <trkpt lat="49.17673" lon="-0.35654">
        <ele>9.8</ele>
        <time>2023-05-04T09:49:02Z</time>
      </trkpt>
      <trkpt lat="49.17669" lon="-0.35662">
        <ele>10</ele>
        <time>2023-05-04T09:49:03Z</time>
      </trkpt>
      <trkpt lat="49.17666" lon="-0.35669">
        <ele>10</ele>
        <time>2023-05-04T09:49:04Z</time>
      </trkpt>
      <trkpt lat="49.17663" lon="-0.35677">
        <ele>10</ele>
        <time>2023-05-04T09:49:05Z</time>
      </trkpt>
      <trkpt lat="49.17659" lon="-0.35685">
        <ele>10.2</ele>
        <time>2023-05-04T09:49:06Z</time>
      </trkpt>
      <trkpt lat="49.17656" lon="-0.35693">
        <ele>10.2</ele>
        <time>2023-05-04T09:49:07Z</time>
      </trkpt>
      <trkpt lat="49.17652" lon="-0.357">
        <ele>10.2</ele>
        <time>2023-05-04T09:49:08Z</time>
      </trkpt>
      <trkpt lat="49.17649" lon="-0.35708">
        <ele>10.2</ele>
        <time>2023-05-04T09:49:09Z</time>
      </trkpt>
      <trkpt lat="49.17646" lon="-0.35715">
        <ele>10.2</ele>
        <time>2023-05-04T09:49:10Z</time>
      </trkpt>
      <trkpt lat="49.17642" lon="-0.35723">
        <ele>10.4</ele>
        <time>2023-05-04T09:49:11Z</time>
      </trkpt>
      <trkpt lat="49.17639" lon="-0.3573">
        <ele>10.4</ele>
        <time>2023-05-04T09:49:12Z</time>
      </trkpt>
      <trkpt lat="49.17636" lon="-0.35737">
        <ele>10.4</ele>
        <time>2023-05-04T09:49:13Z</time>
      </trkpt>
      <trkpt lat="49.17632" lon="-0.35744">
        <ele>10.6</ele>
        <time>2023-05-04T09:49:14Z</time>
      </trkpt>
      <trkpt lat="49.17629" lon="-0.35751">
        <ele>10.6</ele>
        <time>2023-05-04T09:49:15Z</time>
      </trkpt>
      <trkpt lat="49.17625" lon="-0.35757">
        <ele>10.6</ele>
        <time>2023-05-04T09:49:16Z</time>
      </trkpt>
      <trkpt lat="49.17622" lon="-0.35763">
        <ele>10.4</ele>
        <time>2023-05-04T09:49:17Z</time>
      </trkpt>
      <trkpt lat="49.17618" lon="-0.3577">
        <ele>10.4</ele>
        <time>2023-05-04T09:49:18Z</time>
      </trkpt>
      <trkpt lat="49.17616" lon="-0.35777">
        <ele>10.2</ele>
        <time>2023-05-04T09:49:19Z</time>
      </trkpt>
      <trkpt lat="49.17613" lon="-0.35784">
        <ele>10.2</ele>
        <time>2023-05-04T09:49:20Z</time>
      </trkpt>
      <trkpt lat="49.1761" lon="-0.35792">
        <ele>10</ele>
        <time>2023-05-04T09:49:21Z</time>
      </trkpt>
      <trkpt lat="49.17606" lon="-0.358">
        <ele>9.8</ele>
        <time>2023-05-04T09:49:22Z</time>
      </trkpt>
      <trkpt lat="49.17603" lon="-0.35808">
        <ele>9.6</ele>
        <time>2023-05-04T09:49:23Z</time>
      </trkpt>
      <trkpt lat="49.176" lon="-0.35817">
        <ele>9.6</ele>
        <time>2023-05-04T09:49:24Z</time>
      </trkpt>
      <trkpt lat="49.17596" lon="-0.35827">
        <ele>9.4</ele>
        <time>2023-05-04T09:49:25Z</time>
      </trkpt>
      <trkpt lat="49.17592" lon="-0.35835">
        <ele>9.2</ele>
        <time>2023-05-04T09:49:26Z</time>
      </trkpt>
      <trkpt lat="49.17588" lon="-0.35844">
        <ele>8.6</ele>
        <time>2023-05-04T09:49:27Z</time>
      </trkpt>
      <trkpt lat="49.17583" lon="-0.35852">
        <ele>8.4</ele>
        <time>2023-05-04T09:49:28Z</time>
      </trkpt>
      <trkpt lat="49.17578" lon="-0.3586">
        <ele>8</ele>
        <time>2023-05-04T09:49:29Z</time>
      </trkpt>
      <trkpt lat="49.17573" lon="-0.35868">
        <ele>7.8</ele>
        <time>2023-05-04T09:49:30Z</time>
      </trkpt>
      <trkpt lat="49.17569" lon="-0.35876">
        <ele>7.6</ele>
        <time>2023-05-04T09:49:31Z</time>
      </trkpt>
      <trkpt lat="49.17564" lon="-0.35883">
        <ele>7.4</ele>
        <time>2023-05-04T09:49:32Z</time>
      </trkpt>
      <trkpt lat="49.17559" lon="-0.35891">
        <ele>7.2</ele>
        <time>2023-05-04T09:49:33Z</time>
      </trkpt>
      <trkpt lat="49.17555" lon="-0.35898">
        <ele>7</ele>
        <time>2023-05-04T09:49:34Z</time>
      </trkpt>
      <trkpt lat="49.1755" lon="-0.35906">
        <ele>7</ele>
        <time>2023-05-04T09:49:35Z</time>
      </trkpt>
      <trkpt lat="49.17546" lon="-0.35913">
        <ele>7</ele>
        <time>2023-05-04T09:49:36Z</time>
      </trkpt>
      <trkpt lat="49.17541" lon="-0.35921">
        <ele>7</ele>
        <time>2023-05-04T09:49:37Z</time>
      </trkpt>
      <trkpt lat="49.17536" lon="-0.35928">
        <ele>6.6</ele>
        <time>2023-05-04T09:49:38Z</time>
      </trkpt>
      <trkpt lat="49.17532" lon="-0.35936">
        <ele>6.6</ele>
        <time>2023-05-04T09:49:39Z</time>
      </trkpt>
      <trkpt lat="49.17527" lon="-0.35944">
        <ele>6.6</ele>
        <time>2023-05-04T09:49:40Z</time>
      </trkpt>
      <trkpt lat="49.17522" lon="-0.35951">
        <ele>6.6</ele>
        <time>2023-05-04T09:49:41Z</time>
      </trkpt>
      <trkpt lat="49.17517" lon="-0.35959">
        <ele>6.6</ele>
        <time>2023-05-04T09:49:42Z</time>
      </trkpt>
      <trkpt lat="49.17512" lon="-0.35968">
        <ele>6.6</ele>
        <time>2023-05-04T09:49:43Z</time>
      </trkpt>
      <trkpt lat="49.17507" lon="-0.35976">
        <ele>7</ele>
        <time>2023-05-04T09:49:44Z</time>
      </trkpt>
      <trkpt lat="49.17502" lon="-0.35984">
        <ele>7</ele>
        <time>2023-05-04T09:49:45Z</time>
      </trkpt>
      <trkpt lat="49.17497" lon="-0.35992">
        <ele>7.2</ele>
        <time>2023-05-04T09:49:46Z</time>
      </trkpt>
      <trkpt lat="49.17492" lon="-0.36001">
        <ele>7.4</ele>
        <time>2023-05-04T09:49:47Z</time>
      </trkpt>
      <trkpt lat="49.17487" lon="-0.36009">
        <ele>7.4</ele>
        <time>2023-05-04T09:49:48Z</time>
      </trkpt>
      <trkpt lat="49.17482" lon="-0.36017">
        <ele>7.2</ele>
        <time>2023-05-04T09:49:49Z</time>
      </trkpt>
      <trkpt lat="49.17477" lon="-0.36025">
        <ele>7.2</ele>
        <time>2023-05-04T09:49:50Z</time>
      </trkpt>
      <trkpt lat="49.17472" lon="-0.36033">
        <ele>7.2</ele>
        <time>2023-05-04T09:49:51Z</time>
      </trkpt>
      <trkpt lat="49.17467" lon="-0.36041">
        <ele>7.2</ele>
        <time>2023-05-04T09:49:52Z</time>
      </trkpt>
      <trkpt lat="49.17462" lon="-0.36048">
        <ele>7.2</ele>
        <time>2023-05-04T09:49:53Z</time>
      </trkpt>
      <trkpt lat="49.17457" lon="-0.36056">
        <ele>7.2</ele>
        <time>2023-05-04T09:49:54Z</time>
      </trkpt>
      <trkpt lat="49.17451" lon="-0.36064">
        <ele>7.2</ele>
        <time>2023-05-04T09:49:55Z</time>
      </trkpt>
      <trkpt lat="49.17446" lon="-0.36072">
        <ele>7.2</ele>
        <time>2023-05-04T09:49:56Z</time>
      </trkpt>
      <trkpt lat="49.17441" lon="-0.3608">
        <ele>7.2</ele>
        <time>2023-05-04T09:49:57Z</time>
      </trkpt>
      <trkpt lat="49.17435" lon="-0.36088">
        <ele>7.2</ele>
        <time>2023-05-04T09:49:58Z</time>
      </trkpt>
      <trkpt lat="49.1743" lon="-0.36096">
        <ele>7.2</ele>
        <time>2023-05-04T09:49:59Z</time>
      </trkpt>
      <trkpt lat="49.17425" lon="-0.36104">
        <ele>7.2</ele>
        <time>2023-05-04T09:50:00Z</time>
      </trkpt>
      <trkpt lat="49.1742" lon="-0.36112">
        <ele>7.2</ele>
        <time>2023-05-04T09:50:01Z</time>
      </trkpt>
      <trkpt lat="49.17415" lon="-0.3612">
        <ele>7.2</ele>
        <time>2023-05-04T09:50:02Z</time>
      </trkpt>
      <trkpt lat="49.1741" lon="-0.36128">
        <ele>7</ele>
        <time>2023-05-04T09:50:03Z</time>
      </trkpt>
      <trkpt lat="49.17405" lon="-0.36135">
        <ele>7</ele>
        <time>2023-05-04T09:50:04Z</time>
      </trkpt>
      <trkpt lat="49.174" lon="-0.36143">
        <ele>7</ele>
        <time>2023-05-04T09:50:05Z</time>
      </trkpt>
      <trkpt lat="49.17396" lon="-0.36151">
        <ele>7</ele>
        <time>2023-05-04T09:50:06Z</time>
      </trkpt>
      <trkpt lat="49.17391" lon="-0.36159">
        <ele>6.8</ele>
        <time>2023-05-04T09:50:07Z</time>
      </trkpt>
      <trkpt lat="49.17386" lon="-0.36166">
        <ele>6.8</ele>
        <time>2023-05-04T09:50:08Z</time>
      </trkpt>
      <trkpt lat="49.17381" lon="-0.36174">
        <ele>6.6</ele>
        <time>2023-05-04T09:50:09Z</time>
      </trkpt>
      <trkpt lat="49.17376" lon="-0.36182">
        <ele>6.6</ele>
        <time>2023-05-04T09:50:10Z</time>
      </trkpt>
      <trkpt lat="49.17371" lon="-0.3619">
        <ele>6.6</ele>
        <time>2023-05-04T09:50:11Z</time>
      </trkpt>
      <trkpt lat="49.17366" lon="-0.36198">
        <ele>6.6</ele>
        <time>2023-05-04T09:50:12Z</time>
      </trkpt>
      <trkpt lat="49.1736" lon="-0.36206">
        <ele>6.6</ele>
        <time>2023-05-04T09:50:13Z</time>
      </trkpt>
      <trkpt lat="49.17355" lon="-0.36214">
        <ele>6.6</ele>
        <time>2023-05-04T09:50:14Z</time>
      </trkpt>
      <trkpt lat="49.1735" lon="-0.36223">
        <ele>6.8</ele>
        <time>2023-05-04T09:50:15Z</time>
      </trkpt>
      <trkpt lat="49.17345" lon="-0.36231">
        <ele>6.8</ele>
        <time>2023-05-04T09:50:16Z</time>
      </trkpt>
      <trkpt lat="49.1734" lon="-0.36239">
        <ele>7</ele>
        <time>2023-05-04T09:50:17Z</time>
      </trkpt>
      <trkpt lat="49.17335" lon="-0.36247">
        <ele>7</ele>
        <time>2023-05-04T09:50:18Z</time>
      </trkpt>
      <trkpt lat="49.1733" lon="-0.36255">
        <ele>7</ele>
        <time>2023-05-04T09:50:19Z</time>
      </trkpt>
      <trkpt lat="49.17324" lon="-0.36263">
        <ele>6.8</ele>
        <time>2023-05-04T09:50:20Z</time>
      </trkpt>
      <trkpt lat="49.17319" lon="-0.36271">
        <ele>6.6</ele>
        <time>2023-05-04T09:50:21Z</time>
      </trkpt>
      <trkpt lat="49.17314" lon="-0.36279">
        <ele>6.6</ele>
        <time>2023-05-04T09:50:22Z</time>
      </trkpt>
      <trkpt lat="49.17309" lon="-0.36287">
        <ele>6.6</ele>
        <time>2023-05-04T09:50:23Z</time>
      </trkpt>
      <trkpt lat="49.17304" lon="-0.36295">
        <ele>6.6</ele>
        <time>2023-05-04T09:50:24Z</time>
      </trkpt>
      <trkpt lat="49.17299" lon="-0.36303">
        <ele>6.4</ele>
        <time>2023-05-04T09:50:25Z</time>
      </trkpt>
      <trkpt lat="49.17294" lon="-0.36311">
        <ele>6.4</ele>
        <time>2023-05-04T09:50:26Z</time>
      </trkpt>
      <trkpt lat="49.17289" lon="-0.36319">
        <ele>6.4</ele>
        <time>2023-05-04T09:50:27Z</time>
      </trkpt>
      <trkpt lat="49.17284" lon="-0.36326">
        <ele>6.4</ele>
        <time>2023-05-04T09:50:28Z</time>
      </trkpt>
      <trkpt lat="49.17279" lon="-0.36333">
        <ele>6.4</ele>
        <time>2023-05-04T09:50:29Z</time>
      </trkpt>
      <trkpt lat="49.17275" lon="-0.36341">
        <ele>6.4</ele>
        <time>2023-05-04T09:50:30Z</time>
      </trkpt>
      <trkpt lat="49.17269" lon="-0.36349">
        <ele>6.4</ele>
        <time>2023-05-04T09:50:31Z</time>
      </trkpt>
      <trkpt lat="49.17264" lon="-0.36357">
        <ele>6.4</ele>
        <time>2023-05-04T09:50:32Z</time>
      </trkpt>
      <trkpt lat="49.17259" lon="-0.36365">
        <ele>6.4</ele>
        <time>2023-05-04T09:50:33Z</time>
      </trkpt>
      <trkpt lat="49.17254" lon="-0.36373">
        <ele>6.4</ele>
        <time>2023-05-04T09:50:34Z</time>
      </trkpt>
      <trkpt lat="49.17249" lon="-0.36381">
        <ele>6.4</ele>
        <time>2023-05-04T09:50:35Z</time>
      </trkpt>
      <trkpt lat="49.17244" lon="-0.36389">
        <ele>6.4</ele>
        <time>2023-05-04T09:50:36Z</time>
      </trkpt>
      <trkpt lat="49.17239" lon="-0.36397">
        <ele>6</ele>
        <time>2023-05-04T09:50:37Z</time>
      </trkpt>
      <trkpt lat="49.17234" lon="-0.36405">
        <ele>5.8</ele>
        <time>2023-05-04T09:50:38Z</time>
      </trkpt>
      <trkpt lat="49.17229" lon="-0.36412">
        <ele>5.6</ele>
        <time>2023-05-04T09:50:39Z</time>
      </trkpt>
      <trkpt lat="49.17224" lon="-0.3642">
        <ele>5.4</ele>
        <time>2023-05-04T09:50:40Z</time>
      </trkpt>
      <trkpt lat="49.17219" lon="-0.36428">
        <ele>5.2</ele>
        <time>2023-05-04T09:50:41Z</time>
      </trkpt>
      <trkpt lat="49.17215" lon="-0.36436">
        <ele>5</ele>
        <time>2023-05-04T09:50:42Z</time>
      </trkpt>
      <trkpt lat="49.1721" lon="-0.36444">
        <ele>5</ele>
        <time>2023-05-04T09:50:43Z</time>
      </trkpt>
      <trkpt lat="49.17206" lon="-0.36452">
        <ele>5</ele>
        <time>2023-05-04T09:50:44Z</time>
      </trkpt>
      <trkpt lat="49.17202" lon="-0.36461">
        <ele>5</ele>
        <time>2023-05-04T09:50:45Z</time>
      </trkpt>
      <trkpt lat="49.17197" lon="-0.3647">
        <ele>5</ele>
        <time>2023-05-04T09:50:46Z</time>
      </trkpt>
      <trkpt lat="49.17194" lon="-0.36479">
        <ele>5</ele>
        <time>2023-05-04T09:50:47Z</time>
      </trkpt>
      <trkpt lat="49.1719" lon="-0.36488">
        <ele>5</ele>
        <time>2023-05-04T09:50:48Z</time>
      </trkpt>
      <trkpt lat="49.17187" lon="-0.36497">
        <ele>5</ele>
        <time>2023-05-04T09:50:49Z</time>
      </trkpt>
      <trkpt lat="49.17185" lon="-0.36507">
        <ele>5</ele>
        <time>2023-05-04T09:50:50Z</time>
      </trkpt>
      <trkpt lat="49.17183" lon="-0.36517">
        <ele>5.2</ele>
        <time>2023-05-04T09:50:51Z</time>
      </trkpt>
      <trkpt lat="49.17181" lon="-0.36527">
        <ele>5.4</ele>
        <time>2023-05-04T09:50:52Z</time>
      </trkpt>
      <trkpt lat="49.1718" lon="-0.36538">
        <ele>5.4</ele>
        <time>2023-05-04T09:50:53Z</time>
      </trkpt>
      <trkpt lat="49.17179" lon="-0.36548">
        <ele>5.6</ele>
        <time>2023-05-04T09:50:54Z</time>
      </trkpt>
      <trkpt lat="49.17178" lon="-0.36558">
        <ele>5.6</ele>
        <time>2023-05-04T09:50:55Z</time>
      </trkpt>
      <trkpt lat="49.17176" lon="-0.36568">
        <ele>5.6</ele>
        <time>2023-05-04T09:50:56Z</time>
      </trkpt>
      <trkpt lat="49.17175" lon="-0.36577">
        <ele>5.8</ele>
        <time>2023-05-04T09:50:57Z</time>
      </trkpt>
      <trkpt lat="49.17173" lon="-0.36586">
        <ele>6</ele>
        <time>2023-05-04T09:50:58Z</time>
      </trkpt>
      <trkpt lat="49.17172" lon="-0.36595">
        <ele>5.6</ele>
        <time>2023-05-04T09:50:59Z</time>
      </trkpt>
      <trkpt lat="49.1717" lon="-0.36603">
        <ele>5.6</ele>
        <time>2023-05-04T09:51:00Z</time>
      </trkpt>
      <trkpt lat="49.17169" lon="-0.3661">
        <ele>5.4</ele>
        <time>2023-05-04T09:51:01Z</time>
      </trkpt>
      <trkpt lat="49.17166" lon="-0.36616">
        <ele>5.2</ele>
        <time>2023-05-04T09:51:02Z</time>
      </trkpt>
      <trkpt lat="49.17163" lon="-0.36618">
        <ele>5.2</ele>
        <time>2023-05-04T09:51:03Z</time>
      </trkpt>
      <trkpt lat="49.17159" lon="-0.36618">
        <ele>5.2</ele>
        <time>2023-05-04T09:51:04Z</time>
      </trkpt>
      <trkpt lat="49.17155" lon="-0.36618">
        <ele>5.4</ele>
        <time>2023-05-04T09:51:05Z</time>
      </trkpt>
      <trkpt lat="49.17152" lon="-0.36617">
        <ele>5.4</ele>
        <time>2023-05-04T09:51:06Z</time>
      </trkpt>
      <trkpt lat="49.17148" lon="-0.36616">
        <ele>5.4</ele>
        <time>2023-05-04T09:51:07Z</time>
      </trkpt>
      <trkpt lat="49.17145" lon="-0.36614">
        <ele>5.6</ele>
        <time>2023-05-04T09:51:08Z</time>
      </trkpt>
      <trkpt lat="49.1714" lon="-0.36613">
        <ele>5.6</ele>
        <time>2023-05-04T09:51:09Z</time>
      </trkpt>
      <trkpt lat="49.17136" lon="-0.36614">
        <ele>5.6</ele>
        <time>2023-05-04T09:51:10Z</time>
      </trkpt>
      <trkpt lat="49.17131" lon="-0.36614">
        <ele>5.6</ele>
        <time>2023-05-04T09:51:11Z</time>
      </trkpt>
      <trkpt lat="49.17126" lon="-0.36617">
        <ele>5.6</ele>
        <time>2023-05-04T09:51:12Z</time>
      </trkpt>
      <trkpt lat="49.17122" lon="-0.36621">
        <ele>5.6</ele>
        <time>2023-05-04T09:51:13Z</time>
      </trkpt>
      <trkpt lat="49.17119" lon="-0.36628">
        <ele>5.6</ele>
        <time>2023-05-04T09:51:14Z</time>
      </trkpt>
      <trkpt lat="49.17116" lon="-0.36635">
        <ele>5.6</ele>
        <time>2023-05-04T09:51:15Z</time>
      </trkpt>
      <trkpt lat="49.17113" lon="-0.36643">
        <ele>5.6</ele>
        <time>2023-05-04T09:51:16Z</time>
      </trkpt>
      <trkpt lat="49.1711" lon="-0.36651">
        <ele>5.6</ele>
        <time>2023-05-04T09:51:17Z</time>
      </trkpt>
      <trkpt lat="49.17107" lon="-0.3666">
        <ele>5.6</ele>
        <time>2023-05-04T09:51:18Z</time>
      </trkpt>
      <trkpt lat="49.17104" lon="-0.36667">
        <ele>5.6</ele>
        <time>2023-05-04T09:51:19Z</time>
      </trkpt>
      <trkpt lat="49.171" lon="-0.36674">
        <ele>5.6</ele>
        <time>2023-05-04T09:51:20Z</time>
      </trkpt>
      <trkpt lat="49.17095" lon="-0.3668">
        <ele>5.6</ele>
        <time>2023-05-04T09:51:21Z</time>
      </trkpt>
      <trkpt lat="49.1709" lon="-0.36686">
        <ele>5.8</ele>
        <time>2023-05-04T09:51:22Z</time>
      </trkpt>
      <trkpt lat="49.17085" lon="-0.3669">
        <ele>6</ele>
        <time>2023-05-04T09:51:23Z</time>
      </trkpt>
      <trkpt lat="49.17079" lon="-0.36695">
        <ele>6</ele>
        <time>2023-05-04T09:51:24Z</time>
      </trkpt>
      <trkpt lat="49.17073" lon="-0.36699">
        <ele>6</ele>
        <time>2023-05-04T09:51:25Z</time>
      </trkpt>
      <trkpt lat="49.17067" lon="-0.36702">
        <ele>6</ele>
        <time>2023-05-04T09:51:26Z</time>
      </trkpt>
      <trkpt lat="49.17061" lon="-0.36705">
        <ele>6</ele>
        <time>2023-05-04T09:51:27Z</time>
      </trkpt>
      <trkpt lat="49.17055" lon="-0.36706">
        <ele>6.2</ele>
        <time>2023-05-04T09:51:28Z</time>
      </trkpt>
      <trkpt lat="49.17048" lon="-0.36707">
        <ele>6.2</ele>
        <time>2023-05-04T09:51:29Z</time>
      </trkpt>
      <trkpt lat="49.17042" lon="-0.36707">
        <ele>6.2</ele>
        <time>2023-05-04T09:51:30Z</time>
      </trkpt>
      <trkpt lat="49.17036" lon="-0.36707">
        <ele>6.4</ele>
        <time>2023-05-04T09:51:31Z</time>
      </trkpt>
      <trkpt lat="49.1703" lon="-0.36706">
        <ele>6.4</ele>
        <time>2023-05-04T09:51:32Z</time>
      </trkpt>
      <trkpt lat="49.17024" lon="-0.36705">
        <ele>6.4</ele>
        <time>2023-05-04T09:51:33Z</time>
      </trkpt>
      <trkpt lat="49.17019" lon="-0.36703">
        <ele>6.4</ele>
        <time>2023-05-04T09:51:34Z</time>
      </trkpt>
      <trkpt lat="49.17015" lon="-0.36702">
        <ele>6.4</ele>
        <time>2023-05-04T09:51:35Z</time>
      </trkpt>
      <trkpt lat="49.1701" lon="-0.367">
        <ele>6.4</ele>
        <time>2023-05-04T09:51:36Z</time>
      </trkpt>
      <trkpt lat="49.17006" lon="-0.36698">
        <ele>6.4</ele>
        <time>2023-05-04T09:51:37Z</time>
      </trkpt>
      <trkpt lat="49.17002" lon="-0.36696">
        <ele>6.4</ele>
        <time>2023-05-04T09:51:38Z</time>
      </trkpt>
      <trkpt lat="49.16997" lon="-0.36694">
        <ele>6.4</ele>
        <time>2023-05-04T09:51:39Z</time>
      </trkpt>
      <trkpt lat="49.16993" lon="-0.36691">
        <ele>6.4</ele>
        <time>2023-05-04T09:51:40Z</time>
      </trkpt>
      <trkpt lat="49.16989" lon="-0.36687">
        <ele>6.4</ele>
        <time>2023-05-04T09:51:41Z</time>
      </trkpt>
      <trkpt lat="49.16984" lon="-0.36684">
        <ele>6.4</ele>
        <time>2023-05-04T09:51:42Z</time>
      </trkpt>
      <trkpt lat="49.1698" lon="-0.36682">
        <ele>6.6</ele>
        <time>2023-05-04T09:51:43Z</time>
      </trkpt>
      <trkpt lat="49.16975" lon="-0.36681">
        <ele>6.6</ele>
        <time>2023-05-04T09:51:44Z</time>
      </trkpt>
      <trkpt lat="49.16972" lon="-0.36681">
        <ele>6.6</ele>
        <time>2023-05-04T09:51:45Z</time>
      </trkpt>
      <trkpt lat="49.16968" lon="-0.36682">
        <ele>6.6</ele>
        <time>2023-05-04T09:51:46Z</time>
      </trkpt>
      <trkpt lat="49.16966" lon="-0.36683">
        <ele>6.6</ele>
        <time>2023-05-04T09:51:47Z</time>
      </trkpt>
      <trkpt lat="49.16963" lon="-0.36684">
        <ele>6.6</ele>
        <time>2023-05-04T09:51:48Z</time>
      </trkpt>
      <trkpt lat="49.16962" lon="-0.36686">
        <ele>6.6</ele>
        <time>2023-05-04T09:51:49Z</time>
      </trkpt>
      <trkpt lat="49.1696" lon="-0.36687">
        <ele>6.6</ele>
        <time>2023-05-04T09:51:50Z</time>
      </trkpt>
      <trkpt lat="49.16958" lon="-0.36689">
        <ele>6.6</ele>
        <time>2023-05-04T09:51:51Z</time>
      </trkpt>
      <trkpt lat="49.16956" lon="-0.36691">
        <ele>6.6</ele>
        <time>2023-05-04T09:51:52Z</time>
      </trkpt>
      <trkpt lat="49.16955" lon="-0.36694">
        <ele>6.6</ele>
        <time>2023-05-04T09:51:53Z</time>
      </trkpt>
      <trkpt lat="49.16955" lon="-0.36698">
        <ele>6.6</ele>
        <time>2023-05-04T09:51:54Z</time>
      </trkpt>
      <trkpt lat="49.16954" lon="-0.36702">
        <ele>6.6</ele>
        <time>2023-05-04T09:51:55Z</time>
      </trkpt>
      <trkpt lat="49.16952" lon="-0.36707">
        <ele>6.6</ele>
        <time>2023-05-04T09:51:56Z</time>
      </trkpt>
      <trkpt lat="49.16949" lon="-0.36713">
        <ele>6.4</ele>
        <time>2023-05-04T09:51:57Z</time>
      </trkpt>
      <trkpt lat="49.16944" lon="-0.3672">
        <ele>6.4</ele>
        <time>2023-05-04T09:51:58Z</time>
      </trkpt>
      <trkpt lat="49.1694" lon="-0.36726">
        <ele>6</ele>
        <time>2023-05-04T09:51:59Z</time>
      </trkpt>
      <trkpt lat="49.16935" lon="-0.36732">
        <ele>6</ele>
        <time>2023-05-04T09:52:00Z</time>
      </trkpt>
      <trkpt lat="49.1693" lon="-0.36739">
        <ele>5.6</ele>
        <time>2023-05-04T09:52:01Z</time>
      </trkpt>
      <trkpt lat="49.16926" lon="-0.36745">
        <ele>5.4</ele>
        <time>2023-05-04T09:52:02Z</time>
      </trkpt>
      <trkpt lat="49.16921" lon="-0.36752">
        <ele>5</ele>
        <time>2023-05-04T09:52:03Z</time>
      </trkpt>
      <trkpt lat="49.16916" lon="-0.36759">
        <ele>5</ele>
        <time>2023-05-04T09:52:04Z</time>
      </trkpt>
      <trkpt lat="49.16911" lon="-0.36765">
        <ele>5</ele>
        <time>2023-05-04T09:52:05Z</time>
      </trkpt>
      <trkpt lat="49.16906" lon="-0.36772">
        <ele>5</ele>
        <time>2023-05-04T09:52:06Z</time>
      </trkpt>
      <trkpt lat="49.16901" lon="-0.36779">
        <ele>5</ele>
        <time>2023-05-04T09:52:07Z</time>
      </trkpt>
      <trkpt lat="49.16896" lon="-0.36786">
        <ele>5</ele>
        <time>2023-05-04T09:52:08Z</time>
      </trkpt>
      <trkpt lat="49.16891" lon="-0.36793">
        <ele>4.6</ele>
        <time>2023-05-04T09:52:09Z</time>
      </trkpt>
      <trkpt lat="49.16887" lon="-0.36799">
        <ele>4.6</ele>
        <time>2023-05-04T09:52:10Z</time>
      </trkpt>
      <trkpt lat="49.16882" lon="-0.36806">
        <ele>4.4</ele>
        <time>2023-05-04T09:52:11Z</time>
      </trkpt>
      <trkpt lat="49.16877" lon="-0.36813">
        <ele>4.2</ele>
        <time>2023-05-04T09:52:12Z</time>
      </trkpt>
      <trkpt lat="49.16872" lon="-0.3682">
        <ele>4</ele>
        <time>2023-05-04T09:52:13Z</time>
      </trkpt>
      <trkpt lat="49.16867" lon="-0.36827">
        <ele>3.8</ele>
        <time>2023-05-04T09:52:14Z</time>
      </trkpt>
      <trkpt lat="49.16862" lon="-0.36834">
        <ele>3.4</ele>
        <time>2023-05-04T09:52:15Z</time>
      </trkpt>
      <trkpt lat="49.16857" lon="-0.36841">
        <ele>3.2</ele>
        <time>2023-05-04T09:52:16Z</time>
      </trkpt>
      <trkpt lat="49.16852" lon="-0.36847">
        <ele>3</ele>
        <time>2023-05-04T09:52:17Z</time>
      </trkpt>
      <trkpt lat="49.16847" lon="-0.36854">
        <ele>3</ele>
        <time>2023-05-04T09:52:18Z</time>
      </trkpt>
      <trkpt lat="49.16842" lon="-0.36861">
        <ele>2.8</ele>
        <time>2023-05-04T09:52:19Z</time>
      </trkpt>
      <trkpt lat="49.16837" lon="-0.36868">
        <ele>2.6</ele>
        <time>2023-05-04T09:52:20Z</time>
      </trkpt>
      <trkpt lat="49.16832" lon="-0.36874">
        <ele>2.6</ele>
        <time>2023-05-04T09:52:21Z</time>
      </trkpt>
      <trkpt lat="49.16827" lon="-0.36881">
        <ele>3</ele>
        <time>2023-05-04T09:52:22Z</time>
      </trkpt>
      <trkpt lat="49.16822" lon="-0.36888">
        <ele>3.2</ele>
        <time>2023-05-04T09:52:23Z</time>
      </trkpt>
      <trkpt lat="49.16818" lon="-0.36894">
        <ele>3.6</ele>
        <time>2023-05-04T09:52:24Z</time>
      </trkpt>
      <trkpt lat="49.16813" lon="-0.36901">
        <ele>3.8</ele>
        <time>2023-05-04T09:52:25Z</time>
      </trkpt>
      <trkpt lat="49.16808" lon="-0.36908">
        <ele>4</ele>
        <time>2023-05-04T09:52:26Z</time>
      </trkpt>
      <trkpt lat="49.16803" lon="-0.36914">
        <ele>4</ele>
        <time>2023-05-04T09:52:27Z</time>
      </trkpt>
      <trkpt lat="49.16798" lon="-0.36921">
        <ele>4.4</ele>
        <time>2023-05-04T09:52:28Z</time>
      </trkpt>
      <trkpt lat="49.16793" lon="-0.36928">
        <ele>4.4</ele>
        <time>2023-05-04T09:52:29Z</time>
      </trkpt>
      <trkpt lat="49.16788" lon="-0.36934">
        <ele>4.6</ele>
        <time>2023-05-04T09:52:30Z</time>
      </trkpt>
      <trkpt lat="49.16783" lon="-0.36941">
        <ele>4.6</ele>
        <time>2023-05-04T09:52:31Z</time>
      </trkpt>
      <trkpt lat="49.16779" lon="-0.36948">
        <ele>4.6</ele>
        <time>2023-05-04T09:52:32Z</time>
      </trkpt>
      <trkpt lat="49.16774" lon="-0.36955">
        <ele>4.6</ele>
        <time>2023-05-04T09:52:33Z</time>
      </trkpt>
      <trkpt lat="49.16769" lon="-0.36961">
        <ele>4.6</ele>
        <time>2023-05-04T09:52:34Z</time>
      </trkpt>
      <trkpt lat="49.16764" lon="-0.36968">
        <ele>4.6</ele>
        <time>2023-05-04T09:52:35Z</time>
      </trkpt>
      <trkpt lat="49.16759" lon="-0.36975">
        <ele>4.6</ele>
        <time>2023-05-04T09:52:36Z</time>
      </trkpt>
      <trkpt lat="49.16754" lon="-0.36981">
        <ele>4.4</ele>
        <time>2023-05-04T09:52:37Z</time>
      </trkpt>
      <trkpt lat="49.16749" lon="-0.36988">
        <ele>4.4</ele>
        <time>2023-05-04T09:52:38Z</time>
      </trkpt>
      <trkpt lat="49.16745" lon="-0.36995">
        <ele>4</ele>
        <time>2023-05-04T09:52:39Z</time>
      </trkpt>
      <trkpt lat="49.1674" lon="-0.37001">
        <ele>4</ele>
        <time>2023-05-04T09:52:40Z</time>
      </trkpt>
      <trkpt lat="49.16735" lon="-0.37008">
        <ele>3.8</ele>
        <time>2023-05-04T09:52:41Z</time>
      </trkpt>
      <trkpt lat="49.1673" lon="-0.37015">
        <ele>3.8</ele>
        <time>2023-05-04T09:52:42Z</time>
      </trkpt>
      <trkpt lat="49.16725" lon="-0.37021">
        <ele>3.6</ele>
        <time>2023-05-04T09:52:43Z</time>
      </trkpt>
      <trkpt lat="49.1672" lon="-0.37028">
        <ele>3.6</ele>
        <time>2023-05-04T09:52:44Z</time>
      </trkpt>
      <trkpt lat="49.16715" lon="-0.37035">
        <ele>3.6</ele>
        <time>2023-05-04T09:52:45Z</time>
      </trkpt>
      <trkpt lat="49.1671" lon="-0.37042">
        <ele>3.6</ele>
        <time>2023-05-04T09:52:46Z</time>
      </trkpt>
      <trkpt lat="49.16705" lon="-0.37048">
        <ele>3.6</ele>
        <time>2023-05-04T09:52:47Z</time>
      </trkpt>
      <trkpt lat="49.167" lon="-0.37055">
        <ele>3.6</ele>
        <time>2023-05-04T09:52:48Z</time>
      </trkpt>
      <trkpt lat="49.16695" lon="-0.37062">
        <ele>3.6</ele>
        <time>2023-05-04T09:52:49Z</time>
      </trkpt>
      <trkpt lat="49.1669" lon="-0.37069">
        <ele>3.6</ele>
        <time>2023-05-04T09:52:50Z</time>
      </trkpt>
      <trkpt lat="49.16685" lon="-0.37075">
        <ele>3.6</ele>
        <time>2023-05-04T09:52:51Z</time>
      </trkpt>
      <trkpt lat="49.1668" lon="-0.37082">
        <ele>3.8</ele>
        <time>2023-05-04T09:52:52Z</time>
      </trkpt>
      <trkpt lat="49.16676" lon="-0.37089">
        <ele>4</ele>
        <time>2023-05-04T09:52:53Z</time>
      </trkpt>
      <trkpt lat="49.16671" lon="-0.37096">
        <ele>4.4</ele>
        <time>2023-05-04T09:52:54Z</time>
      </trkpt>
      <trkpt lat="49.16666" lon="-0.37103">
        <ele>4.6</ele>
        <time>2023-05-04T09:52:55Z</time>
      </trkpt>
      <trkpt lat="49.16661" lon="-0.37109">
        <ele>4.8</ele>
        <time>2023-05-04T09:52:56Z</time>
      </trkpt>
      <trkpt lat="49.16656" lon="-0.37116">
        <ele>5</ele>
        <time>2023-05-04T09:52:57Z</time>
      </trkpt>
      <trkpt lat="49.16651" lon="-0.37123">
        <ele>5</ele>
        <time>2023-05-04T09:52:58Z</time>
      </trkpt>
      <trkpt lat="49.16646" lon="-0.3713">
        <ele>5</ele>
        <time>2023-05-04T09:52:59Z</time>
      </trkpt>
      <trkpt lat="49.16641" lon="-0.37136">
        <ele>5</ele>
        <time>2023-05-04T09:53:00Z</time>
      </trkpt>
      <trkpt lat="49.16636" lon="-0.37143">
        <ele>5</ele>
        <time>2023-05-04T09:53:01Z</time>
      </trkpt>
      <trkpt lat="49.16631" lon="-0.3715">
        <ele>5</ele>
        <time>2023-05-04T09:53:02Z</time>
      </trkpt>
      <trkpt lat="49.16626" lon="-0.37156">
        <ele>5</ele>
        <time>2023-05-04T09:53:03Z</time>
      </trkpt>
      <trkpt lat="49.16622" lon="-0.37163">
        <ele>4.8</ele>
        <time>2023-05-04T09:53:04Z</time>
      </trkpt>
      <trkpt lat="49.16617" lon="-0.3717">
        <ele>4.6</ele>
        <time>2023-05-04T09:53:05Z</time>
      </trkpt>
      <trkpt lat="49.16612" lon="-0.37176">
        <ele>4.4</ele>
        <time>2023-05-04T09:53:06Z</time>
      </trkpt>
      <trkpt lat="49.16607" lon="-0.37183">
        <ele>4.2</ele>
        <time>2023-05-04T09:53:07Z</time>
      </trkpt>
      <trkpt lat="49.16602" lon="-0.3719">
        <ele>4</ele>
        <time>2023-05-04T09:53:08Z</time>
      </trkpt>
      <trkpt lat="49.16598" lon="-0.37196">
        <ele>4</ele>
        <time>2023-05-04T09:53:09Z</time>
      </trkpt>
      <trkpt lat="49.16593" lon="-0.37203">
        <ele>3.8</ele>
        <time>2023-05-04T09:53:10Z</time>
      </trkpt>
      <trkpt lat="49.16588" lon="-0.37209">
        <ele>3.6</ele>
        <time>2023-05-04T09:53:11Z</time>
      </trkpt>
      <trkpt lat="49.16583" lon="-0.37216">
        <ele>3.6</ele>
        <time>2023-05-04T09:53:12Z</time>
      </trkpt>
      <trkpt lat="49.16578" lon="-0.37222">
        <ele>4</ele>
        <time>2023-05-04T09:53:13Z</time>
      </trkpt>
      <trkpt lat="49.16574" lon="-0.37229">
        <ele>4.4</ele>
        <time>2023-05-04T09:53:14Z</time>
      </trkpt>
      <trkpt lat="49.16569" lon="-0.37236">
        <ele>4.8</ele>
        <time>2023-05-04T09:53:15Z</time>
      </trkpt>
      <trkpt lat="49.16564" lon="-0.37242">
        <ele>5.2</ele>
        <time>2023-05-04T09:53:16Z</time>
      </trkpt>
      <trkpt lat="49.16559" lon="-0.37249">
        <ele>5.6</ele>
        <time>2023-05-04T09:53:17Z</time>
      </trkpt>
      <trkpt lat="49.16554" lon="-0.37256">
        <ele>6</ele>
        <time>2023-05-04T09:53:18Z</time>
      </trkpt>
      <trkpt lat="49.16549" lon="-0.37263">
        <ele>6.4</ele>
        <time>2023-05-04T09:53:19Z</time>
      </trkpt>
      <trkpt lat="49.16545" lon="-0.3727">
        <ele>6.6</ele>
        <time>2023-05-04T09:53:20Z</time>
      </trkpt>
      <trkpt lat="49.1654" lon="-0.37276">
        <ele>6.8</ele>
        <time>2023-05-04T09:53:21Z</time>
      </trkpt>
      <trkpt lat="49.16535" lon="-0.37283">
        <ele>7</ele>
        <time>2023-05-04T09:53:22Z</time>
      </trkpt>
      <trkpt lat="49.1653" lon="-0.3729">
        <ele>7</ele>
        <time>2023-05-04T09:53:23Z</time>
      </trkpt>
      <trkpt lat="49.16525" lon="-0.37297">
        <ele>7.2</ele>
        <time>2023-05-04T09:53:24Z</time>
      </trkpt>
      <trkpt lat="49.1652" lon="-0.37303">
        <ele>7.2</ele>
        <time>2023-05-04T09:53:25Z</time>
      </trkpt>
      <trkpt lat="49.16515" lon="-0.3731">
        <ele>7.4</ele>
        <time>2023-05-04T09:53:26Z</time>
      </trkpt>
      <trkpt lat="49.1651" lon="-0.37317">
        <ele>7.4</ele>
        <time>2023-05-04T09:53:27Z</time>
      </trkpt>
      <trkpt lat="49.16505" lon="-0.37323">
        <ele>7.2</ele>
        <time>2023-05-04T09:53:28Z</time>
      </trkpt>
      <trkpt lat="49.165" lon="-0.3733">
        <ele>7</ele>
        <time>2023-05-04T09:53:29Z</time>
      </trkpt>
      <trkpt lat="49.16496" lon="-0.37336">
        <ele>6.8</ele>
        <time>2023-05-04T09:53:30Z</time>
      </trkpt>
      <trkpt lat="49.16491" lon="-0.37343">
        <ele>6.6</ele>
        <time>2023-05-04T09:53:31Z</time>
      </trkpt>
      <trkpt lat="49.16486" lon="-0.3735">
        <ele>6.6</ele>
        <time>2023-05-04T09:53:32Z</time>
      </trkpt>
      <trkpt lat="49.16481" lon="-0.37356">
        <ele>6.4</ele>
        <time>2023-05-04T09:53:33Z</time>
      </trkpt>
      <trkpt lat="49.16476" lon="-0.37363">
        <ele>6.2</ele>
        <time>2023-05-04T09:53:34Z</time>
      </trkpt>
      <trkpt lat="49.16471" lon="-0.3737">
        <ele>6</ele>
        <time>2023-05-04T09:53:35Z</time>
      </trkpt>
      <trkpt lat="49.16466" lon="-0.37377">
        <ele>6</ele>
        <time>2023-05-04T09:53:36Z</time>
      </trkpt>
      <trkpt lat="49.16461" lon="-0.37384">
        <ele>6</ele>
        <time>2023-05-04T09:53:37Z</time>
      </trkpt>
      <trkpt lat="49.16456" lon="-0.37391">
        <ele>5.8</ele>
        <time>2023-05-04T09:53:38Z</time>
      </trkpt>
      <trkpt lat="49.16451" lon="-0.37398">
        <ele>5.6</ele>
        <time>2023-05-04T09:53:39Z</time>
      </trkpt>
      <trkpt lat="49.16446" lon="-0.37404">
        <ele>5.6</ele>
        <time>2023-05-04T09:53:40Z</time>
      </trkpt>
      <trkpt lat="49.16441" lon="-0.37411">
        <ele>5.6</ele>
        <time>2023-05-04T09:53:41Z</time>
      </trkpt>
      <trkpt lat="49.16436" lon="-0.37418">
        <ele>5.6</ele>
        <time>2023-05-04T09:53:42Z</time>
      </trkpt>
      <trkpt lat="49.16431" lon="-0.37425">
        <ele>5.6</ele>
        <time>2023-05-04T09:53:43Z</time>
      </trkpt>
      <trkpt lat="49.16426" lon="-0.37432">
        <ele>5.6</ele>
        <time>2023-05-04T09:53:44Z</time>
      </trkpt>
      <trkpt lat="49.16421" lon="-0.37438">
        <ele>5.6</ele>
        <time>2023-05-04T09:53:45Z</time>
      </trkpt>
      <trkpt lat="49.16416" lon="-0.37445">
        <ele>5.6</ele>
        <time>2023-05-04T09:53:46Z</time>
      </trkpt>
      <trkpt lat="49.16411" lon="-0.37452">
        <ele>6</ele>
        <time>2023-05-04T09:53:47Z</time>
      </trkpt>
      <trkpt lat="49.16406" lon="-0.37459">
        <ele>6.2</ele>
        <time>2023-05-04T09:53:48Z</time>
      </trkpt>
      <trkpt lat="49.16401" lon="-0.37466">
        <ele>6.6</ele>
        <time>2023-05-04T09:53:49Z</time>
      </trkpt>
      <trkpt lat="49.16396" lon="-0.37473">
        <ele>6.6</ele>
        <time>2023-05-04T09:53:50Z</time>
      </trkpt>
      <trkpt lat="49.16391" lon="-0.3748">
        <ele>7</ele>
        <time>2023-05-04T09:53:51Z</time>
      </trkpt>
      <trkpt lat="49.16386" lon="-0.37487">
        <ele>7</ele>
        <time>2023-05-04T09:53:52Z</time>
      </trkpt>
      <trkpt lat="49.16381" lon="-0.37494">
        <ele>7.4</ele>
        <time>2023-05-04T09:53:53Z</time>
      </trkpt>
      <trkpt lat="49.16377" lon="-0.37501">
        <ele>7.6</ele>
        <time>2023-05-04T09:53:54Z</time>
      </trkpt>
      <trkpt lat="49.16373" lon="-0.37507">
        <ele>7.4</ele>
        <time>2023-05-04T09:53:55Z</time>
      </trkpt>
      <trkpt lat="49.16369" lon="-0.37514">
        <ele>7.4</ele>
        <time>2023-05-04T09:53:56Z</time>
      </trkpt>
      <trkpt lat="49.16365" lon="-0.37521">
        <ele>7.2</ele>
        <time>2023-05-04T09:53:57Z</time>
      </trkpt>
      <trkpt lat="49.16361" lon="-0.37529">
        <ele>7.2</ele>
        <time>2023-05-04T09:53:58Z</time>
      </trkpt>
      <trkpt lat="49.16358" lon="-0.37536">
        <ele>7.2</ele>
        <time>2023-05-04T09:53:59Z</time>
      </trkpt>
      <trkpt lat="49.16355" lon="-0.37544">
        <ele>7.2</ele>
        <time>2023-05-04T09:54:00Z</time>
      </trkpt>
      <trkpt lat="49.16353" lon="-0.37552">
        <ele>7.2</ele>
        <time>2023-05-04T09:54:01Z</time>
      </trkpt>
      <trkpt lat="49.16351" lon="-0.3756">
        <ele>7.2</ele>
        <time>2023-05-04T09:54:02Z</time>
      </trkpt>
      <trkpt lat="49.16349" lon="-0.37568">
        <ele>7.2</ele>
        <time>2023-05-04T09:54:03Z</time>
      </trkpt>
      <trkpt lat="49.16348" lon="-0.37576">
        <ele>7.2</ele>
        <time>2023-05-04T09:54:04Z</time>
      </trkpt>
      <trkpt lat="49.16347" lon="-0.37584">
        <ele>7.2</ele>
        <time>2023-05-04T09:54:05Z</time>
      </trkpt>
      <trkpt lat="49.16346" lon="-0.37593">
        <ele>7.6</ele>
        <time>2023-05-04T09:54:06Z</time>
      </trkpt>
      <trkpt lat="49.16345" lon="-0.37601">
        <ele>7.6</ele>
        <time>2023-05-04T09:54:07Z</time>
      </trkpt>
      <trkpt lat="49.16344" lon="-0.3761">
        <ele>8</ele>
        <time>2023-05-04T09:54:08Z</time>
      </trkpt>
      <trkpt lat="49.16343" lon="-0.37619">
        <ele>8.2</ele>
        <time>2023-05-04T09:54:09Z</time>
      </trkpt>
      <trkpt lat="49.16342" lon="-0.37627">
        <ele>8.6</ele>
        <time>2023-05-04T09:54:10Z</time>
      </trkpt>
      <trkpt lat="49.16341" lon="-0.37636">
        <ele>8.8</ele>
        <time>2023-05-04T09:54:11Z</time>
      </trkpt>
      <trkpt lat="49.16339" lon="-0.37646">
        <ele>9.2</ele>
        <time>2023-05-04T09:54:12Z</time>
      </trkpt>
      <trkpt lat="49.16337" lon="-0.37655">
        <ele>9.6</ele>
        <time>2023-05-04T09:54:13Z</time>
      </trkpt>
      <trkpt lat="49.16335" lon="-0.37664">
        <ele>9.8</ele>
        <time>2023-05-04T09:54:14Z</time>
      </trkpt>
      <trkpt lat="49.16332" lon="-0.37674">
        <ele>10.2</ele>
        <time>2023-05-04T09:54:15Z</time>
      </trkpt>
      <trkpt lat="49.16329" lon="-0.37682">
        <ele>10.6</ele>
        <time>2023-05-04T09:54:16Z</time>
      </trkpt>
      <trkpt lat="49.16326" lon="-0.37691">
        <ele>10.6</ele>
        <time>2023-05-04T09:54:17Z</time>
      </trkpt>
      <trkpt lat="49.16322" lon="-0.377">
        <ele>10.8</ele>
        <time>2023-05-04T09:54:18Z</time>
      </trkpt>
      <trkpt lat="49.16317" lon="-0.37708">
        <ele>11.2</ele>
        <time>2023-05-04T09:54:19Z</time>
      </trkpt>
      <trkpt lat="49.16313" lon="-0.37717">
        <ele>11.4</ele>
        <time>2023-05-04T09:54:20Z</time>
      </trkpt>
      <trkpt lat="49.16308" lon="-0.37724">
        <ele>11.4</ele>
        <time>2023-05-04T09:54:21Z</time>
      </trkpt>
      <trkpt lat="49.16303" lon="-0.37732">
        <ele>11.4</ele>
        <time>2023-05-04T09:54:22Z</time>
      </trkpt>
      <trkpt lat="49.16298" lon="-0.37739">
        <ele>11.4</ele>
        <time>2023-05-04T09:54:23Z</time>
      </trkpt>
      <trkpt lat="49.16293" lon="-0.37745">
        <ele>11.4</ele>
        <time>2023-05-04T09:54:24Z</time>
      </trkpt>
      <trkpt lat="49.16287" lon="-0.37751">
        <ele>11.4</ele>
        <time>2023-05-04T09:54:25Z</time>
      </trkpt>
      <trkpt lat="49.16281" lon="-0.37757">
        <ele>11.2</ele>
        <time>2023-05-04T09:54:26Z</time>
      </trkpt>
      <trkpt lat="49.16275" lon="-0.37761">
        <ele>10.8</ele>
        <time>2023-05-04T09:54:27Z</time>
      </trkpt>
      <trkpt lat="49.16269" lon="-0.37766">
        <ele>10.6</ele>
        <time>2023-05-04T09:54:28Z</time>
      </trkpt>
      <trkpt lat="49.16263" lon="-0.37769">
        <ele>10.4</ele>
        <time>2023-05-04T09:54:29Z</time>
      </trkpt>
      <trkpt lat="49.16257" lon="-0.37772">
        <ele>10</ele>
        <time>2023-05-04T09:54:30Z</time>
      </trkpt>
      <trkpt lat="49.1625" lon="-0.37774">
        <ele>9.6</ele>
        <time>2023-05-04T09:54:31Z</time>
      </trkpt>
      <trkpt lat="49.16243" lon="-0.37776">
        <ele>9.6</ele>
        <time>2023-05-04T09:54:32Z</time>
      </trkpt>
      <trkpt lat="49.16236" lon="-0.37779">
        <ele>9.4</ele>
        <time>2023-05-04T09:54:33Z</time>
      </trkpt>
      <trkpt lat="49.16228" lon="-0.37782">
        <ele>9.4</ele>
        <time>2023-05-04T09:54:34Z</time>
      </trkpt>
      <trkpt lat="49.16221" lon="-0.37786">
        <ele>9.4</ele>
        <time>2023-05-04T09:54:35Z</time>
      </trkpt>
      <trkpt lat="49.16214" lon="-0.37789">
        <ele>9.2</ele>
        <time>2023-05-04T09:54:36Z</time>
      </trkpt>
      <trkpt lat="49.16206" lon="-0.37792">
        <ele>9.2</ele>
        <time>2023-05-04T09:54:37Z</time>
      </trkpt>
      <trkpt lat="49.16199" lon="-0.37796">
        <ele>9.4</ele>
        <time>2023-05-04T09:54:38Z</time>
      </trkpt>
      <trkpt lat="49.16191" lon="-0.37799">
        <ele>9.4</ele>
        <time>2023-05-04T09:54:39Z</time>
      </trkpt>
      <trkpt lat="49.16184" lon="-0.37802">
        <ele>9.6</ele>
        <time>2023-05-04T09:54:40Z</time>
      </trkpt>
      <trkpt lat="49.16177" lon="-0.37805">
        <ele>9.6</ele>
        <time>2023-05-04T09:54:41Z</time>
      </trkpt>
      <trkpt lat="49.1617" lon="-0.37809">
        <ele>9.8</ele>
        <time>2023-05-04T09:54:42Z</time>
      </trkpt>
      <trkpt lat="49.16163" lon="-0.37812">
        <ele>9.8</ele>
        <time>2023-05-04T09:54:43Z</time>
      </trkpt>
      <trkpt lat="49.16156" lon="-0.37815">
        <ele>10</ele>
        <time>2023-05-04T09:54:44Z</time>
      </trkpt>
      <trkpt lat="49.16149" lon="-0.37818">
        <ele>10.2</ele>
        <time>2023-05-04T09:54:45Z</time>
      </trkpt>
      <trkpt lat="49.16142" lon="-0.37821">
        <ele>10.2</ele>
        <time>2023-05-04T09:54:46Z</time>
      </trkpt>
      <trkpt lat="49.16135" lon="-0.37824">
        <ele>10.2</ele>
        <time>2023-05-04T09:54:47Z</time>
      </trkpt>
      <trkpt lat="49.16128" lon="-0.37828">
        <ele>10.4</ele>
        <time>2023-05-04T09:54:48Z</time>
      </trkpt>
      <trkpt lat="49.16122" lon="-0.37831">
        <ele>10.4</ele>
        <time>2023-05-04T09:54:49Z</time>
      </trkpt>
      <trkpt lat="49.16115" lon="-0.37834">
        <ele>10.4</ele>
        <time>2023-05-04T09:54:50Z</time>
      </trkpt>
      <trkpt lat="49.16108" lon="-0.37837">
        <ele>10.2</ele>
        <time>2023-05-04T09:54:51Z</time>
      </trkpt>
      <trkpt lat="49.16101" lon="-0.3784">
        <ele>10</ele>
        <time>2023-05-04T09:54:52Z</time>
      </trkpt>
      <trkpt lat="49.16094" lon="-0.37843">
        <ele>9.8</ele>
        <time>2023-05-04T09:54:53Z</time>
      </trkpt>
      <trkpt lat="49.16088" lon="-0.37846">
        <ele>9.6</ele>
        <time>2023-05-04T09:54:54Z</time>
      </trkpt>
      <trkpt lat="49.16081" lon="-0.37849">
        <ele>9.4</ele>
        <time>2023-05-04T09:54:55Z</time>
      </trkpt>
      <trkpt lat="49.16074" lon="-0.37852">
        <ele>9.4</ele>
        <time>2023-05-04T09:54:56Z</time>
      </trkpt>
      <trkpt lat="49.16067" lon="-0.37855">
        <ele>9.4</ele>
        <time>2023-05-04T09:54:57Z</time>
      </trkpt>
      <trkpt lat="49.1606" lon="-0.37859">
        <ele>9.2</ele>
        <time>2023-05-04T09:54:58Z</time>
      </trkpt>
      <trkpt lat="49.16054" lon="-0.37862">
        <ele>9.2</ele>
        <time>2023-05-04T09:54:59Z</time>
      </trkpt>
      <trkpt lat="49.16047" lon="-0.37865">
        <ele>9.4</ele>
        <time>2023-05-04T09:55:00Z</time>
      </trkpt>
      <trkpt lat="49.1604" lon="-0.37868">
        <ele>9.4</ele>
        <time>2023-05-04T09:55:01Z</time>
      </trkpt>
      <trkpt lat="49.16033" lon="-0.37871">
        <ele>9.4</ele>
        <time>2023-05-04T09:55:02Z</time>
      </trkpt>
      <trkpt lat="49.16027" lon="-0.37874">
        <ele>9.6</ele>
        <time>2023-05-04T09:55:03Z</time>
      </trkpt>
      <trkpt lat="49.1602" lon="-0.37878">
        <ele>9.6</ele>
        <time>2023-05-04T09:55:04Z</time>
      </trkpt>
      <trkpt lat="49.16013" lon="-0.37881">
        <ele>9.8</ele>
        <time>2023-05-04T09:55:05Z</time>
      </trkpt>
      <trkpt lat="49.16006" lon="-0.37884">
        <ele>10.2</ele>
        <time>2023-05-04T09:55:06Z</time>
      </trkpt>
      <trkpt lat="49.16" lon="-0.37887">
        <ele>10.4</ele>
        <time>2023-05-04T09:55:07Z</time>
      </trkpt>
      <trkpt lat="49.15993" lon="-0.3789">
        <ele>10.2</ele>
        <time>2023-05-04T09:55:08Z</time>
      </trkpt>
      <trkpt lat="49.15987" lon="-0.37893">
        <ele>10.2</ele>
        <time>2023-05-04T09:55:09Z</time>
      </trkpt>
      <trkpt lat="49.15981" lon="-0.37896">
        <ele>10</ele>
        <time>2023-05-04T09:55:10Z</time>
      </trkpt>
      <trkpt lat="49.15975" lon="-0.37898">
        <ele>10</ele>
        <time>2023-05-04T09:55:11Z</time>
      </trkpt>
      <trkpt lat="49.15968" lon="-0.37901">
        <ele>9.8</ele>
        <time>2023-05-04T09:55:12Z</time>
      </trkpt>
      <trkpt lat="49.15962" lon="-0.37904">
        <ele>9.8</ele>
        <time>2023-05-04T09:55:13Z</time>
      </trkpt>
      <trkpt lat="49.15955" lon="-0.37907">
        <ele>9.6</ele>
        <time>2023-05-04T09:55:14Z</time>
      </trkpt>
      <trkpt lat="49.15948" lon="-0.3791">
        <ele>9.6</ele>
        <time>2023-05-04T09:55:15Z</time>
      </trkpt>
      <trkpt lat="49.15942" lon="-0.37913">
        <ele>9.6</ele>
        <time>2023-05-04T09:55:16Z</time>
      </trkpt>
      <trkpt lat="49.15935" lon="-0.37916">
        <ele>9.4</ele>
        <time>2023-05-04T09:55:17Z</time>
      </trkpt>
      <trkpt lat="49.15929" lon="-0.37919">
        <ele>9.2</ele>
        <time>2023-05-04T09:55:18Z</time>
      </trkpt>
      <trkpt lat="49.15922" lon="-0.37922">
        <ele>9</ele>
        <time>2023-05-04T09:55:19Z</time>
      </trkpt>
      <trkpt lat="49.15916" lon="-0.37925">
        <ele>8.8</ele>
        <time>2023-05-04T09:55:20Z</time>
      </trkpt>
      <trkpt lat="49.15909" lon="-0.37928">
        <ele>8.6</ele>
        <time>2023-05-04T09:55:21Z</time>
      </trkpt>
      <trkpt lat="49.15903" lon="-0.37931">
        <ele>8.6</ele>
        <time>2023-05-04T09:55:22Z</time>
      </trkpt>
      <trkpt lat="49.15896" lon="-0.37934">
        <ele>8.6</ele>
        <time>2023-05-04T09:55:23Z</time>
      </trkpt>
      <trkpt lat="49.15889" lon="-0.37937">
        <ele>8.4</ele>
        <time>2023-05-04T09:55:24Z</time>
      </trkpt>
      <trkpt lat="49.15883" lon="-0.3794">
        <ele>8.4</ele>
        <time>2023-05-04T09:55:25Z</time>
      </trkpt>
      <trkpt lat="49.15876" lon="-0.37943">
        <ele>8.4</ele>
        <time>2023-05-04T09:55:26Z</time>
      </trkpt>
      <trkpt lat="49.15869" lon="-0.37946">
        <ele>8.4</ele>
        <time>2023-05-04T09:55:27Z</time>
      </trkpt>
      <trkpt lat="49.15863" lon="-0.37949">
        <ele>8.4</ele>
        <time>2023-05-04T09:55:28Z</time>
      </trkpt>
      <trkpt lat="49.15856" lon="-0.37953">
        <ele>8.4</ele>
        <time>2023-05-04T09:55:29Z</time>
      </trkpt>
      <trkpt lat="49.15849" lon="-0.37956">
        <ele>8.4</ele>
        <time>2023-05-04T09:55:30Z</time>
      </trkpt>
      <trkpt lat="49.15842" lon="-0.3796">
        <ele>8.6</ele>
        <time>2023-05-04T09:55:31Z</time>
      </trkpt>
      <trkpt lat="49.15836" lon="-0.37964">
        <ele>8.6</ele>
        <time>2023-05-04T09:55:32Z</time>
      </trkpt>
      <trkpt lat="49.15829" lon="-0.37968">
        <ele>8.6</ele>
        <time>2023-05-04T09:55:33Z</time>
      </trkpt>
      <trkpt lat="49.15823" lon="-0.37973">
        <ele>8.6</ele>
        <time>2023-05-04T09:55:34Z</time>
      </trkpt>
      <trkpt lat="49.15817" lon="-0.37979">
        <ele>8.6</ele>
        <time>2023-05-04T09:55:35Z</time>
      </trkpt>
      <trkpt lat="49.15811" lon="-0.37985">
        <ele>8.6</ele>
        <time>2023-05-04T09:55:36Z</time>
      </trkpt>
      <trkpt lat="49.15806" lon="-0.37993">
        <ele>8.6</ele>
        <time>2023-05-04T09:55:37Z</time>
      </trkpt>
      <trkpt lat="49.15801" lon="-0.38001">
        <ele>8.6</ele>
        <time>2023-05-04T09:55:38Z</time>
      </trkpt>
      <trkpt lat="49.15796" lon="-0.3801">
        <ele>8.6</ele>
        <time>2023-05-04T09:55:39Z</time>
      </trkpt>
      <trkpt lat="49.15792" lon="-0.38019">
        <ele>8.4</ele>
        <time>2023-05-04T09:55:40Z</time>
      </trkpt>
      <trkpt lat="49.15789" lon="-0.3803">
        <ele>8.4</ele>
        <time>2023-05-04T09:55:41Z</time>
      </trkpt>
      <trkpt lat="49.15787" lon="-0.3804">
        <ele>8.2</ele>
        <time>2023-05-04T09:55:42Z</time>
      </trkpt>
      <trkpt lat="49.15786" lon="-0.38051">
        <ele>8.2</ele>
        <time>2023-05-04T09:55:43Z</time>
      </trkpt>
      <trkpt lat="49.15786" lon="-0.38063">
        <ele>8</ele>
        <time>2023-05-04T09:55:44Z</time>
      </trkpt>
      <trkpt lat="49.15787" lon="-0.38074">
        <ele>8</ele>
        <time>2023-05-04T09:55:45Z</time>
      </trkpt>
      <trkpt lat="49.15788" lon="-0.38085">
        <ele>8</ele>
        <time>2023-05-04T09:55:46Z</time>
      </trkpt>
      <trkpt lat="49.15789" lon="-0.38096">
        <ele>7.8</ele>
        <time>2023-05-04T09:55:47Z</time>
      </trkpt>
      <trkpt lat="49.15791" lon="-0.38107">
        <ele>7.6</ele>
        <time>2023-05-04T09:55:48Z</time>
      </trkpt>
      <trkpt lat="49.15793" lon="-0.38118">
        <ele>7.6</ele>
        <time>2023-05-04T09:55:49Z</time>
      </trkpt>
      <trkpt lat="49.15795" lon="-0.38128">
        <ele>7.6</ele>
        <time>2023-05-04T09:55:50Z</time>
      </trkpt>
      <trkpt lat="49.15797" lon="-0.38139">
        <ele>7.6</ele>
        <time>2023-05-04T09:55:51Z</time>
      </trkpt>
      <trkpt lat="49.15799" lon="-0.38149">
        <ele>7.4</ele>
        <time>2023-05-04T09:55:52Z</time>
      </trkpt>
      <trkpt lat="49.15801" lon="-0.3816">
        <ele>7.4</ele>
        <time>2023-05-04T09:55:53Z</time>
      </trkpt>
      <trkpt lat="49.15803" lon="-0.3817">
        <ele>7.2</ele>
        <time>2023-05-04T09:55:54Z</time>
      </trkpt>
      <trkpt lat="49.15805" lon="-0.38181">
        <ele>7.2</ele>
        <time>2023-05-04T09:55:55Z</time>
      </trkpt>
      <trkpt lat="49.15807" lon="-0.38191">
        <ele>7</ele>
        <time>2023-05-04T09:55:56Z</time>
      </trkpt>
      <trkpt lat="49.1581" lon="-0.38202">
        <ele>7</ele>
        <time>2023-05-04T09:55:57Z</time>
      </trkpt>
      <trkpt lat="49.15812" lon="-0.38212">
        <ele>7</ele>
        <time>2023-05-04T09:55:58Z</time>
      </trkpt>
      <trkpt lat="49.15814" lon="-0.38223">
        <ele>7</ele>
        <time>2023-05-04T09:55:59Z</time>
      </trkpt>
      <trkpt lat="49.15816" lon="-0.38233">
        <ele>6.8</ele>
        <time>2023-05-04T09:56:00Z</time>
      </trkpt>
      <trkpt lat="49.15818" lon="-0.38243">
        <ele>6.6</ele>
        <time>2023-05-04T09:56:01Z</time>
      </trkpt>
      <trkpt lat="49.1582" lon="-0.38254">
        <ele>6.6</ele>
        <time>2023-05-04T09:56:02Z</time>
      </trkpt>
      <trkpt lat="49.15822" lon="-0.38264">
        <ele>6.8</ele>
        <time>2023-05-04T09:56:03Z</time>
      </trkpt>
      <trkpt lat="49.15824" lon="-0.38273">
        <ele>7</ele>
        <time>2023-05-04T09:56:04Z</time>
      </trkpt>
      <trkpt lat="49.15826" lon="-0.38283">
        <ele>7</ele>
        <time>2023-05-04T09:56:05Z</time>
      </trkpt>
      <trkpt lat="49.15828" lon="-0.38293">
        <ele>7.4</ele>
        <time>2023-05-04T09:56:06Z</time>
      </trkpt>
      <trkpt lat="49.1583" lon="-0.38303">
        <ele>7.6</ele>
        <time>2023-05-04T09:56:07Z</time>
      </trkpt>
      <trkpt lat="49.15831" lon="-0.38312">
        <ele>7.6</ele>
        <time>2023-05-04T09:56:08Z</time>
      </trkpt>
      <trkpt lat="49.15834" lon="-0.38323">
        <ele>8</ele>
        <time>2023-05-04T09:56:09Z</time>
      </trkpt>
      <trkpt lat="49.15836" lon="-0.38333">
        <ele>8.2</ele>
        <time>2023-05-04T09:56:10Z</time>
      </trkpt>
      <trkpt lat="49.15838" lon="-0.38343">
        <ele>8.6</ele>
        <time>2023-05-04T09:56:11Z</time>
      </trkpt>
      <trkpt lat="49.1584" lon="-0.38353">
        <ele>8.8</ele>
        <time>2023-05-04T09:56:12Z</time>
      </trkpt>
      <trkpt lat="49.15842" lon="-0.38363">
        <ele>9.2</ele>
        <time>2023-05-04T09:56:13Z</time>
      </trkpt>
      <trkpt lat="49.15843" lon="-0.38372">
        <ele>9.4</ele>
        <time>2023-05-04T09:56:14Z</time>
      </trkpt>
      <trkpt lat="49.15845" lon="-0.38382">
        <ele>9.6</ele>
        <time>2023-05-04T09:56:15Z</time>
      </trkpt>
      <trkpt lat="49.15847" lon="-0.38391">
        <ele>10</ele>
        <time>2023-05-04T09:56:16Z</time>
      </trkpt>
      <trkpt lat="49.15849" lon="-0.38401">
        <ele>10.2</ele>
        <time>2023-05-04T09:56:17Z</time>
      </trkpt>
      <trkpt lat="49.15851" lon="-0.3841">
        <ele>10.6</ele>
        <time>2023-05-04T09:56:18Z</time>
      </trkpt>
      <trkpt lat="49.15852" lon="-0.3842">
        <ele>10.6</ele>
        <time>2023-05-04T09:56:19Z</time>
      </trkpt>
      <trkpt lat="49.15854" lon="-0.38429">
        <ele>10.6</ele>
        <time>2023-05-04T09:56:20Z</time>
      </trkpt>
      <trkpt lat="49.15856" lon="-0.38439">
        <ele>10.6</ele>
        <time>2023-05-04T09:56:21Z</time>
      </trkpt>
      <trkpt lat="49.15858" lon="-0.38448">
        <ele>10.6</ele>
        <time>2023-05-04T09:56:22Z</time>
      </trkpt>
      <trkpt lat="49.1586" lon="-0.38458">
        <ele>10.8</ele>
        <time>2023-05-04T09:56:23Z</time>
      </trkpt>
      <trkpt lat="49.15862" lon="-0.38468">
        <ele>10.8</ele>
        <time>2023-05-04T09:56:24Z</time>
      </trkpt>
      <trkpt lat="49.15863" lon="-0.38477">
        <ele>10.8</ele>
        <time>2023-05-04T09:56:25Z</time>
      </trkpt>
      <trkpt lat="49.15865" lon="-0.38487">
        <ele>10.8</ele>
        <time>2023-05-04T09:56:26Z</time>
      </trkpt>
      <trkpt lat="49.15867" lon="-0.38496">
        <ele>11</ele>
        <time>2023-05-04T09:56:27Z</time>
      </trkpt>
      <trkpt lat="49.15869" lon="-0.38506">
        <ele>11</ele>
        <time>2023-05-04T09:56:28Z</time>
      </trkpt>
      <trkpt lat="49.15871" lon="-0.38515">
        <ele>11</ele>
        <time>2023-05-04T09:56:29Z</time>
      </trkpt>
      <trkpt lat="49.15873" lon="-0.38525">
        <ele>11</ele>
        <time>2023-05-04T09:56:30Z</time>
      </trkpt>
      <trkpt lat="49.15874" lon="-0.38534">
        <ele>11</ele>
        <time>2023-05-04T09:56:31Z</time>
      </trkpt>
      <trkpt lat="49.15876" lon="-0.38543">
        <ele>11.2</ele>
        <time>2023-05-04T09:56:32Z</time>
      </trkpt>
      <trkpt lat="49.15878" lon="-0.38552">
        <ele>11.2</ele>
        <time>2023-05-04T09:56:33Z</time>
      </trkpt>
      <trkpt lat="49.1588" lon="-0.38561">
        <ele>11.2</ele>
        <time>2023-05-04T09:56:34Z</time>
      </trkpt>
      <trkpt lat="49.15882" lon="-0.38571">
        <ele>11.2</ele>
        <time>2023-05-04T09:56:35Z</time>
      </trkpt>
      <trkpt lat="49.15883" lon="-0.3858">
        <ele>11.2</ele>
        <time>2023-05-04T09:56:36Z</time>
      </trkpt>
      <trkpt lat="49.15885" lon="-0.38589">
        <ele>11.4</ele>
        <time>2023-05-04T09:56:37Z</time>
      </trkpt>
      <trkpt lat="49.15887" lon="-0.38598">
        <ele>11.6</ele>
        <time>2023-05-04T09:56:38Z</time>
      </trkpt>
      <trkpt lat="49.15889" lon="-0.38608">
        <ele>11.6</ele>
        <time>2023-05-04T09:56:39Z</time>
      </trkpt>
      <trkpt lat="49.15891" lon="-0.38617">
        <ele>11.8</ele>
        <time>2023-05-04T09:56:40Z</time>
      </trkpt>
      <trkpt lat="49.15893" lon="-0.38627">
        <ele>12</ele>
        <time>2023-05-04T09:56:41Z</time>
      </trkpt>
      <trkpt lat="49.15894" lon="-0.38637">
        <ele>12.2</ele>
        <time>2023-05-04T09:56:42Z</time>
      </trkpt>
      <trkpt lat="49.15896" lon="-0.38647">
        <ele>12.4</ele>
        <time>2023-05-04T09:56:43Z</time>
      </trkpt>
      <trkpt lat="49.15898" lon="-0.38657">
        <ele>12.4</ele>
        <time>2023-05-04T09:56:44Z</time>
      </trkpt>
      <trkpt lat="49.15899" lon="-0.38667">
        <ele>12.6</ele>
        <time>2023-05-04T09:56:45Z</time>
      </trkpt>
      <trkpt lat="49.15899" lon="-0.38677">
        <ele>12.4</ele>
        <time>2023-05-04T09:56:46Z</time>
      </trkpt>
      <trkpt lat="49.15899" lon="-0.38688">
        <ele>12</ele>
        <time>2023-05-04T09:56:47Z</time>
      </trkpt>
      <trkpt lat="49.15899" lon="-0.38697">
        <ele>11.6</ele>
        <time>2023-05-04T09:56:48Z</time>
      </trkpt>
      <trkpt lat="49.15899" lon="-0.38706">
        <ele>11.6</ele>
        <time>2023-05-04T09:56:49Z</time>
      </trkpt>
      <trkpt lat="49.15899" lon="-0.38714">
        <ele>11.4</ele>
        <time>2023-05-04T09:56:50Z</time>
      </trkpt>
      <trkpt lat="49.15901" lon="-0.38719">
        <ele>11.4</ele>
        <time>2023-05-04T09:56:51Z</time>
      </trkpt>
      <trkpt lat="49.15904" lon="-0.38723">
        <ele>11.4</ele>
        <time>2023-05-04T09:56:52Z</time>
      </trkpt>
      <trkpt lat="49.15907" lon="-0.38727">
        <ele>11.4</ele>
        <time>2023-05-04T09:56:53Z</time>
      </trkpt>
      <trkpt lat="49.15911" lon="-0.38732">
        <ele>11.4</ele>
        <time>2023-05-04T09:56:54Z</time>
      </trkpt>
      <trkpt lat="49.15912" lon="-0.38739">
        <ele>11.2</ele>
        <time>2023-05-04T09:56:55Z</time>
      </trkpt>
      <trkpt lat="49.15914" lon="-0.38747">
        <ele>11</ele>
        <time>2023-05-04T09:56:56Z</time>
      </trkpt>
      <trkpt lat="49.15916" lon="-0.38754">
        <ele>10.8</ele>
        <time>2023-05-04T09:56:57Z</time>
      </trkpt>
      <trkpt lat="49.15918" lon="-0.3876">
        <ele>10.8</ele>
        <time>2023-05-04T09:56:58Z</time>
      </trkpt>
      <trkpt lat="49.1592" lon="-0.38767">
        <ele>10.6</ele>
        <time>2023-05-04T09:56:59Z</time>
      </trkpt>
      <trkpt lat="49.15922" lon="-0.38774">
        <ele>10.6</ele>
        <time>2023-05-04T09:57:00Z</time>
      </trkpt>
      <trkpt lat="49.15923" lon="-0.38781">
        <ele>10.6</ele>
        <time>2023-05-04T09:57:01Z</time>
      </trkpt>
      <trkpt lat="49.15924" lon="-0.38788">
        <ele>10.4</ele>
        <time>2023-05-04T09:57:02Z</time>
      </trkpt>
      <trkpt lat="49.15925" lon="-0.38796">
        <ele>10.4</ele>
        <time>2023-05-04T09:57:03Z</time>
      </trkpt>
      <trkpt lat="49.15926" lon="-0.38803">
        <ele>10.4</ele>
        <time>2023-05-04T09:57:04Z</time>
      </trkpt>
      <trkpt lat="49.15928" lon="-0.3881">
        <ele>10.2</ele>
        <time>2023-05-04T09:57:05Z</time>
      </trkpt>
      <trkpt lat="49.15929" lon="-0.38817">
        <ele>10.2</ele>
        <time>2023-05-04T09:57:06Z</time>
      </trkpt>
      <trkpt lat="49.1593" lon="-0.38824">
        <ele>10.2</ele>
        <time>2023-05-04T09:57:07Z</time>
      </trkpt>
      <trkpt lat="49.15932" lon="-0.38832">
        <ele>10</ele>
        <time>2023-05-04T09:57:08Z</time>
      </trkpt>
      <trkpt lat="49.15933" lon="-0.38839">
        <ele>10</ele>
        <time>2023-05-04T09:57:09Z</time>
      </trkpt>
      <trkpt lat="49.15934" lon="-0.38846">
        <ele>9.8</ele>
        <time>2023-05-04T09:57:10Z</time>
      </trkpt>
      <trkpt lat="49.15936" lon="-0.38853">
        <ele>9.8</ele>
        <time>2023-05-04T09:57:11Z</time>
      </trkpt>
      <trkpt lat="49.15937" lon="-0.3886">
        <ele>9.8</ele>
        <time>2023-05-04T09:57:12Z</time>
      </trkpt>
      <trkpt lat="49.15939" lon="-0.38868">
        <ele>9.8</ele>
        <time>2023-05-04T09:57:13Z</time>
      </trkpt>
      <trkpt lat="49.1594" lon="-0.38875">
        <ele>9.8</ele>
        <time>2023-05-04T09:57:14Z</time>
      </trkpt>
      <trkpt lat="49.15942" lon="-0.38882">
        <ele>9.8</ele>
        <time>2023-05-04T09:57:15Z</time>
      </trkpt>
      <trkpt lat="49.15943" lon="-0.3889">
        <ele>10</ele>
        <time>2023-05-04T09:57:16Z</time>
      </trkpt>
      <trkpt lat="49.15945" lon="-0.38897">
        <ele>10</ele>
        <time>2023-05-04T09:57:17Z</time>
      </trkpt>
      <trkpt lat="49.15946" lon="-0.38904">
        <ele>10.2</ele>
        <time>2023-05-04T09:57:18Z</time>
      </trkpt>
      <trkpt lat="49.15948" lon="-0.38911">
        <ele>10.2</ele>
        <time>2023-05-04T09:57:19Z</time>
      </trkpt>
      <trkpt lat="49.15949" lon="-0.38918">
        <ele>10.2</ele>
        <time>2023-05-04T09:57:20Z</time>
      </trkpt>
      <trkpt lat="49.15951" lon="-0.38925">
        <ele>10.2</ele>
        <time>2023-05-04T09:57:21Z</time>
      </trkpt>
      <trkpt lat="49.15953" lon="-0.38933">
        <ele>10.2</ele>
        <time>2023-05-04T09:57:22Z</time>
      </trkpt>
      <trkpt lat="49.15954" lon="-0.3894">
        <ele>10.2</ele>
        <time>2023-05-04T09:57:23Z</time>
      </trkpt>
      <trkpt lat="49.15956" lon="-0.38947">
        <ele>10.2</ele>
        <time>2023-05-04T09:57:24Z</time>
      </trkpt>
      <trkpt lat="49.15957" lon="-0.38954">
        <ele>10</ele>
        <time>2023-05-04T09:57:25Z</time>
      </trkpt>
      <trkpt lat="49.15959" lon="-0.38961">
        <ele>10</ele>
        <time>2023-05-04T09:57:26Z</time>
      </trkpt>
      <trkpt lat="49.1596" lon="-0.38968">
        <ele>9.8</ele>
        <time>2023-05-04T09:57:27Z</time>
      </trkpt>
      <trkpt lat="49.15961" lon="-0.38975">
        <ele>9.8</ele>
        <time>2023-05-04T09:57:28Z</time>
      </trkpt>
      <trkpt lat="49.15963" lon="-0.38983">
        <ele>9.8</ele>
        <time>2023-05-04T09:57:29Z</time>
      </trkpt>
      <trkpt lat="49.15964" lon="-0.3899">
        <ele>9.6</ele>
        <time>2023-05-04T09:57:30Z</time>
      </trkpt>
      <trkpt lat="49.15965" lon="-0.38997">
        <ele>9.6</ele>
        <time>2023-05-04T09:57:31Z</time>
      </trkpt>
      <trkpt lat="49.15967" lon="-0.39005">
        <ele>9.6</ele>
        <time>2023-05-04T09:57:32Z</time>
      </trkpt>
      <trkpt lat="49.15968" lon="-0.39012">
        <ele>9.6</ele>
        <time>2023-05-04T09:57:33Z</time>
      </trkpt>
      <trkpt lat="49.15969" lon="-0.3902">
        <ele>9.8</ele>
        <time>2023-05-04T09:57:34Z</time>
      </trkpt>
      <trkpt lat="49.15971" lon="-0.39027">
        <ele>9.8</ele>
        <time>2023-05-04T09:57:35Z</time>
      </trkpt>
      <trkpt lat="49.15972" lon="-0.39035">
        <ele>9.8</ele>
        <time>2023-05-04T09:57:36Z</time>
      </trkpt>
      <trkpt lat="49.15974" lon="-0.39042">
        <ele>10</ele>
        <time>2023-05-04T09:57:37Z</time>
      </trkpt>
      <trkpt lat="49.15975" lon="-0.3905">
        <ele>10.2</ele>
        <time>2023-05-04T09:57:38Z</time>
      </trkpt>
      <trkpt lat="49.15977" lon="-0.39057">
        <ele>10.2</ele>
        <time>2023-05-04T09:57:39Z</time>
      </trkpt>
      <trkpt lat="49.15978" lon="-0.39065">
        <ele>10.2</ele>
        <time>2023-05-04T09:57:40Z</time>
      </trkpt>
      <trkpt lat="49.1598" lon="-0.39072">
        <ele>10.2</ele>
        <time>2023-05-04T09:57:41Z</time>
      </trkpt>
      <trkpt lat="49.15981" lon="-0.39079">
        <ele>10.2</ele>
        <time>2023-05-04T09:57:42Z</time>
      </trkpt>
      <trkpt lat="49.15982" lon="-0.39087">
        <ele>10.4</ele>
        <time>2023-05-04T09:57:43Z</time>
      </trkpt>
      <trkpt lat="49.15984" lon="-0.39094">
        <ele>10.4</ele>
        <time>2023-05-04T09:57:44Z</time>
      </trkpt>
      <trkpt lat="49.15985" lon="-0.39102">
        <ele>10.6</ele>
        <time>2023-05-04T09:57:45Z</time>
      </trkpt>
      <trkpt lat="49.15987" lon="-0.39109">
        <ele>10.6</ele>
        <time>2023-05-04T09:57:46Z</time>
      </trkpt>
      <trkpt lat="49.15988" lon="-0.39117">
        <ele>10.8</ele>
        <time>2023-05-04T09:57:47Z</time>
      </trkpt>
      <trkpt lat="49.1599" lon="-0.39124">
        <ele>11</ele>
        <time>2023-05-04T09:57:48Z</time>
      </trkpt>
      <trkpt lat="49.15991" lon="-0.39132">
        <ele>11.2</ele>
        <time>2023-05-04T09:57:49Z</time>
      </trkpt>
      <trkpt lat="49.15993" lon="-0.3914">
        <ele>11.4</ele>
        <time>2023-05-04T09:57:50Z</time>
      </trkpt>
      <trkpt lat="49.15994" lon="-0.39148">
        <ele>11.6</ele>
        <time>2023-05-04T09:57:51Z</time>
      </trkpt>
      <trkpt lat="49.15996" lon="-0.39156">
        <ele>11.8</ele>
        <time>2023-05-04T09:57:52Z</time>
      </trkpt>
      <trkpt lat="49.15998" lon="-0.39164">
        <ele>11.8</ele>
        <time>2023-05-04T09:57:53Z</time>
      </trkpt>
      <trkpt lat="49.15999" lon="-0.39172">
        <ele>12.2</ele>
        <time>2023-05-04T09:57:54Z</time>
      </trkpt>
      <trkpt lat="49.16001" lon="-0.3918">
        <ele>12.4</ele>
        <time>2023-05-04T09:57:55Z</time>
      </trkpt>
      <trkpt lat="49.16002" lon="-0.39188">
        <ele>12.4</ele>
        <time>2023-05-04T09:57:56Z</time>
      </trkpt>
      <trkpt lat="49.16003" lon="-0.39196">
        <ele>12.6</ele>
        <time>2023-05-04T09:57:57Z</time>
      </trkpt>
      <trkpt lat="49.16005" lon="-0.39204">
        <ele>12.6</ele>
        <time>2023-05-04T09:57:58Z</time>
      </trkpt>
      <trkpt lat="49.16006" lon="-0.39212">
        <ele>12.8</ele>
        <time>2023-05-04T09:57:59Z</time>
      </trkpt>
      <trkpt lat="49.16008" lon="-0.3922">
        <ele>13</ele>
        <time>2023-05-04T09:58:00Z</time>
      </trkpt>
      <trkpt lat="49.16009" lon="-0.39227">
        <ele>13.2</ele>
        <time>2023-05-04T09:58:01Z</time>
      </trkpt>
      <trkpt lat="49.16011" lon="-0.39235">
        <ele>13.4</ele>
        <time>2023-05-04T09:58:02Z</time>
      </trkpt>
      <trkpt lat="49.16012" lon="-0.39243">
        <ele>13.4</ele>
        <time>2023-05-04T09:58:03Z</time>
      </trkpt>
      <trkpt lat="49.16014" lon="-0.3925">
        <ele>13.6</ele>
        <time>2023-05-04T09:58:04Z</time>
      </trkpt>
      <trkpt lat="49.16015" lon="-0.39258">
        <ele>13.6</ele>
        <time>2023-05-04T09:58:05Z</time>
      </trkpt>
      <trkpt lat="49.16017" lon="-0.39265">
        <ele>13.6</ele>
        <time>2023-05-04T09:58:06Z</time>
      </trkpt>
      <trkpt lat="49.16018" lon="-0.39273">
        <ele>13.6</ele>
        <time>2023-05-04T09:58:07Z</time>
      </trkpt>
      <trkpt lat="49.16019" lon="-0.3928">
        <ele>13.6</ele>
        <time>2023-05-04T09:58:08Z</time>
      </trkpt>
      <trkpt lat="49.16021" lon="-0.39288">
        <ele>13.6</ele>
        <time>2023-05-04T09:58:09Z</time>
      </trkpt>
      <trkpt lat="49.16022" lon="-0.39296">
        <ele>13.6</ele>
        <time>2023-05-04T09:58:10Z</time>
      </trkpt>
      <trkpt lat="49.16024" lon="-0.39303">
        <ele>13.6</ele>
        <time>2023-05-04T09:58:11Z</time>
      </trkpt>
      <trkpt lat="49.16025" lon="-0.39311">
        <ele>13.6</ele>
        <time>2023-05-04T09:58:12Z</time>
      </trkpt>
      <trkpt lat="49.16027" lon="-0.39319">
        <ele>13.6</ele>
        <time>2023-05-04T09:58:13Z</time>
      </trkpt>
      <trkpt lat="49.16028" lon="-0.39327">
        <ele>13.6</ele>
        <time>2023-05-04T09:58:14Z</time>
      </trkpt>
      <trkpt lat="49.1603" lon="-0.39335">
        <ele>13.6</ele>
        <time>2023-05-04T09:58:15Z</time>
      </trkpt>
      <trkpt lat="49.16031" lon="-0.39342">
        <ele>13.6</ele>
        <time>2023-05-04T09:58:16Z</time>
      </trkpt>
      <trkpt lat="49.16032" lon="-0.3935">
        <ele>13.6</ele>
        <time>2023-05-04T09:58:17Z</time>
      </trkpt>
      <trkpt lat="49.16034" lon="-0.39358">
        <ele>13.6</ele>
        <time>2023-05-04T09:58:18Z</time>
      </trkpt>
      <trkpt lat="49.16036" lon="-0.39366">
        <ele>13.6</ele>
        <time>2023-05-04T09:58:19Z</time>
      </trkpt>
      <trkpt lat="49.16037" lon="-0.39374">
        <ele>13.4</ele>
        <time>2023-05-04T09:58:20Z</time>
      </trkpt>
      <trkpt lat="49.16039" lon="-0.39382">
        <ele>13.4</ele>
        <time>2023-05-04T09:58:21Z</time>
      </trkpt>
      <trkpt lat="49.16041" lon="-0.3939">
        <ele>13.4</ele>
        <time>2023-05-04T09:58:22Z</time>
      </trkpt>
      <trkpt lat="49.16043" lon="-0.39398">
        <ele>13.4</ele>
        <time>2023-05-04T09:58:23Z</time>
      </trkpt>
      <trkpt lat="49.16044" lon="-0.39406">
        <ele>13.4</ele>
        <time>2023-05-04T09:58:24Z</time>
      </trkpt>
      <trkpt lat="49.16046" lon="-0.39413">
        <ele>13.4</ele>
        <time>2023-05-04T09:58:25Z</time>
      </trkpt>
      <trkpt lat="49.16048" lon="-0.39421">
        <ele>13.4</ele>
        <time>2023-05-04T09:58:26Z</time>
      </trkpt>
      <trkpt lat="49.1605" lon="-0.39429">
        <ele>13.4</ele>
        <time>2023-05-04T09:58:27Z</time>
      </trkpt>
      <trkpt lat="49.16053" lon="-0.39436">
        <ele>13.2</ele>
        <time>2023-05-04T09:58:28Z</time>
      </trkpt>
      <trkpt lat="49.16057" lon="-0.39442">
        <ele>13</ele>
        <time>2023-05-04T09:58:29Z</time>
      </trkpt>
      <trkpt lat="49.16062" lon="-0.39445">
        <ele>12.8</ele>
        <time>2023-05-04T09:58:30Z</time>
      </trkpt>
      <trkpt lat="49.16068" lon="-0.39448">
        <ele>12.6</ele>
        <time>2023-05-04T09:58:31Z</time>
      </trkpt>
      <trkpt lat="49.16073" lon="-0.39452">
        <ele>12.4</ele>
        <time>2023-05-04T09:58:32Z</time>
      </trkpt>
      <trkpt lat="49.16078" lon="-0.39458">
        <ele>12.2</ele>
        <time>2023-05-04T09:58:33Z</time>
      </trkpt>
      <trkpt lat="49.16082" lon="-0.39466">
        <ele>12.2</ele>
        <time>2023-05-04T09:58:34Z</time>
      </trkpt>
      <trkpt lat="49.16084" lon="-0.39474">
        <ele>12</ele>
        <time>2023-05-04T09:58:35Z</time>
      </trkpt>
      <trkpt lat="49.16084" lon="-0.39484">
        <ele>11.8</ele>
        <time>2023-05-04T09:58:36Z</time>
      </trkpt>
      <trkpt lat="49.16083" lon="-0.39493">
        <ele>12</ele>
        <time>2023-05-04T09:58:37Z</time>
      </trkpt>
      <trkpt lat="49.16081" lon="-0.39502">
        <ele>12.2</ele>
        <time>2023-05-04T09:58:38Z</time>
      </trkpt>
      <trkpt lat="49.16078" lon="-0.3951">
        <ele>12.2</ele>
        <time>2023-05-04T09:58:39Z</time>
      </trkpt>
      <trkpt lat="49.16076" lon="-0.39519">
        <ele>12.2</ele>
        <time>2023-05-04T09:58:40Z</time>
      </trkpt>
      <trkpt lat="49.16074" lon="-0.39527">
        <ele>12.2</ele>
        <time>2023-05-04T09:58:41Z</time>
      </trkpt>
      <trkpt lat="49.16073" lon="-0.39536">
        <ele>12.2</ele>
        <time>2023-05-04T09:58:42Z</time>
      </trkpt>
      <trkpt lat="49.16073" lon="-0.39546">
        <ele>12</ele>
        <time>2023-05-04T09:58:43Z</time>
      </trkpt>
      <trkpt lat="49.16074" lon="-0.39555">
        <ele>11.8</ele>
        <time>2023-05-04T09:58:44Z</time>
      </trkpt>
      <trkpt lat="49.16075" lon="-0.39565">
        <ele>11.6</ele>
        <time>2023-05-04T09:58:45Z</time>
      </trkpt>
      <trkpt lat="49.16077" lon="-0.39574">
        <ele>11.6</ele>
        <time>2023-05-04T09:58:46Z</time>
      </trkpt>
      <trkpt lat="49.16079" lon="-0.39583">
        <ele>11.4</ele>
        <time>2023-05-04T09:58:47Z</time>
      </trkpt>
      <trkpt lat="49.1608" lon="-0.39593">
        <ele>10.8</ele>
        <time>2023-05-04T09:58:48Z</time>
      </trkpt>
      <trkpt lat="49.16082" lon="-0.39602">
        <ele>10.6</ele>
        <time>2023-05-04T09:58:49Z</time>
      </trkpt>
      <trkpt lat="49.16084" lon="-0.39612">
        <ele>10.4</ele>
        <time>2023-05-04T09:58:50Z</time>
      </trkpt>
      <trkpt lat="49.16086" lon="-0.39621">
        <ele>10</ele>
        <time>2023-05-04T09:58:51Z</time>
      </trkpt>
      <trkpt lat="49.16088" lon="-0.39631">
        <ele>9.8</ele>
        <time>2023-05-04T09:58:52Z</time>
      </trkpt>
      <trkpt lat="49.16089" lon="-0.39641">
        <ele>9.6</ele>
        <time>2023-05-04T09:58:53Z</time>
      </trkpt>
      <trkpt lat="49.16091" lon="-0.3965">
        <ele>9.4</ele>
        <time>2023-05-04T09:58:54Z</time>
      </trkpt>
      <trkpt lat="49.16093" lon="-0.3966">
        <ele>9.2</ele>
        <time>2023-05-04T09:58:55Z</time>
      </trkpt>
      <trkpt lat="49.16095" lon="-0.3967">
        <ele>9.2</ele>
        <time>2023-05-04T09:58:56Z</time>
      </trkpt>
      <trkpt lat="49.16096" lon="-0.39679">
        <ele>9.4</ele>
        <time>2023-05-04T09:58:57Z</time>
      </trkpt>
      <trkpt lat="49.16098" lon="-0.39689">
        <ele>9.6</ele>
        <time>2023-05-04T09:58:58Z</time>
      </trkpt>
      <trkpt lat="49.161" lon="-0.39698">
        <ele>9.8</ele>
        <time>2023-05-04T09:58:59Z</time>
      </trkpt>
      <trkpt lat="49.16102" lon="-0.39708">
        <ele>10</ele>
        <time>2023-05-04T09:59:00Z</time>
      </trkpt>
      <trkpt lat="49.16104" lon="-0.39718">
        <ele>10.2</ele>
        <time>2023-05-04T09:59:01Z</time>
      </trkpt>
      <trkpt lat="49.16106" lon="-0.39727">
        <ele>10.6</ele>
        <time>2023-05-04T09:59:02Z</time>
      </trkpt>
      <trkpt lat="49.16108" lon="-0.39737">
        <ele>10.6</ele>
        <time>2023-05-04T09:59:03Z</time>
      </trkpt>
      <trkpt lat="49.16109" lon="-0.39746">
        <ele>10.8</ele>
        <time>2023-05-04T09:59:04Z</time>
      </trkpt>
      <trkpt lat="49.16111" lon="-0.39756">
        <ele>11</ele>
        <time>2023-05-04T09:59:05Z</time>
      </trkpt>
      <trkpt lat="49.16113" lon="-0.39765">
        <ele>11.2</ele>
        <time>2023-05-04T09:59:06Z</time>
      </trkpt>
      <trkpt lat="49.16115" lon="-0.39774">
        <ele>11.2</ele>
        <time>2023-05-04T09:59:07Z</time>
      </trkpt>
      <trkpt lat="49.16117" lon="-0.39783">
        <ele>11.2</ele>
        <time>2023-05-04T09:59:08Z</time>
      </trkpt>
      <trkpt lat="49.16119" lon="-0.39792">
        <ele>11.2</ele>
        <time>2023-05-04T09:59:09Z</time>
      </trkpt>
      <trkpt lat="49.1612" lon="-0.39801">
        <ele>11.2</ele>
        <time>2023-05-04T09:59:10Z</time>
      </trkpt>
      <trkpt lat="49.16122" lon="-0.3981">
        <ele>11</ele>
        <time>2023-05-04T09:59:11Z</time>
      </trkpt>
      <trkpt lat="49.16124" lon="-0.39818">
        <ele>11</ele>
        <time>2023-05-04T09:59:12Z</time>
      </trkpt>
      <trkpt lat="49.16125" lon="-0.39825">
        <ele>11</ele>
        <time>2023-05-04T09:59:13Z</time>
      </trkpt>
      <trkpt lat="49.16127" lon="-0.39831">
        <ele>11</ele>
        <time>2023-05-04T09:59:14Z</time>
      </trkpt>
      <trkpt lat="49.16128" lon="-0.39835">
        <ele>10.8</ele>
        <time>2023-05-04T09:59:15Z</time>
      </trkpt>
      <trkpt lat="49.16128" lon="-0.39834">
        <ele>10.8</ele>
        <time>2023-05-04T09:59:16Z</time>
      </trkpt>
      <trkpt lat="49.16128" lon="-0.39834">
        <ele>10.8</ele>
        <time>2023-05-04T09:59:17Z</time>
      </trkpt>
      <trkpt lat="49.16128" lon="-0.39834">
        <ele>10.8</ele>
        <time>2023-05-04T09:59:18Z</time>
      </trkpt>
      <trkpt lat="49.16128" lon="-0.39834">
        <ele>10.8</ele>
        <time>2023-05-04T09:59:19Z</time>
      </trkpt>
      <trkpt lat="49.16128" lon="-0.39834">
        <ele>10.8</ele>
        <time>2023-05-04T09:59:20Z</time>
      </trkpt>
      <trkpt lat="49.16128" lon="-0.39834">
        <ele>10.8</ele>
        <time>2023-05-04T09:59:21Z</time>
      </trkpt>
      <trkpt lat="49.16128" lon="-0.39834">
        <ele>10.8</ele>
        <time>2023-05-04T09:59:22Z</time>
      </trkpt>
      <trkpt lat="49.16128" lon="-0.39834">
        <ele>10.8</ele>
        <time>2023-05-04T09:59:23Z</time>
      </trkpt>
      <trkpt lat="49.16128" lon="-0.39834">
        <ele>10.8</ele>
        <time>2023-05-04T09:59:24Z</time>
      </trkpt>
      <trkpt lat="49.16128" lon="-0.39834">
        <ele>10.8</ele>
        <time>2023-05-04T09:59:25Z</time>
      </trkpt>
      <trkpt lat="49.16128" lon="-0.39834">
        <ele>10.8</ele>
        <time>2023-05-04T09:59:26Z</time>
      </trkpt>
      <trkpt lat="49.16128" lon="-0.39834">
        <ele>10.8</ele>
        <time>2023-05-04T09:59:27Z</time>
      </trkpt>
      <trkpt lat="49.16128" lon="-0.39834">
        <ele>10.8</ele>
        <time>2023-05-04T09:59:28Z</time>
      </trkpt>
      <trkpt lat="49.16128" lon="-0.39834">
        <ele>10.8</ele>
        <time>2023-05-04T09:59:29Z</time>
      </trkpt>
      <trkpt lat="49.16128" lon="-0.39834">
        <ele>10.8</ele>
        <time>2023-05-04T09:59:30Z</time>
      </trkpt>
      <trkpt lat="49.16128" lon="-0.39834">
        <ele>10.8</ele>
        <time>2023-05-04T09:59:31Z</time>
      </trkpt>
      <trkpt lat="49.16128" lon="-0.39834">
        <ele>10.8</ele>
        <time>2023-05-04T09:59:32Z</time>
      </trkpt>
      <trkpt lat="49.16128" lon="-0.39834">
        <ele>10.8</ele>
        <time>2023-05-04T09:59:33Z</time>
      </trkpt>
      <trkpt lat="49.16128" lon="-0.39834">
        <ele>10.8</ele>
        <time>2023-05-04T09:59:34Z</time>
      </trkpt>
      <trkpt lat="49.16128" lon="-0.39834">
        <ele>10.8</ele>
        <time>2023-05-04T09:59:35Z</time>
      </trkpt>
      <trkpt lat="49.16128" lon="-0.39834">
        <ele>10.8</ele>
        <time>2023-05-04T09:59:36Z</time>
      </trkpt>
      <trkpt lat="49.16128" lon="-0.39834">
        <ele>10.8</ele>
        <time>2023-05-04T09:59:37Z</time>
      </trkpt>
      <trkpt lat="49.16128" lon="-0.39834">
        <ele>10.8</ele>
        <time>2023-05-04T09:59:38Z</time>
      </trkpt>
      <trkpt lat="49.16128" lon="-0.39834">
        <ele>10.8</ele>
        <time>2023-05-04T09:59:39Z</time>
      </trkpt>
      <trkpt lat="49.16128" lon="-0.39834">
        <ele>10.8</ele>
        <time>2023-05-04T09:59:40Z</time>
      </trkpt>
      <trkpt lat="49.16128" lon="-0.39834">
        <ele>10.8</ele>
        <time>2023-05-04T09:59:41Z</time>
      </trkpt>
      <trkpt lat="49.16128" lon="-0.39834">
        <ele>10.8</ele>
        <time>2023-05-04T09:59:42Z</time>
      </trkpt>
      <trkpt lat="49.16128" lon="-0.39834">
        <ele>10.8</ele>
        <time>2023-05-04T09:59:43Z</time>
      </trkpt>
      <trkpt lat="49.16128" lon="-0.39834">
        <ele>10.8</ele>
        <time>2023-05-04T09:59:44Z</time>
      </trkpt>
      <trkpt lat="49.16128" lon="-0.39834">
        <ele>10.8</ele>
        <time>2023-05-04T09:59:45Z</time>
      </trkpt>
      <trkpt lat="49.16128" lon="-0.39834">
        <ele>10.8</ele>
        <time>2023-05-04T09:59:46Z</time>
      </trkpt>
      <trkpt lat="49.16128" lon="-0.39834">
        <ele>10.8</ele>
        <time>2023-05-04T09:59:47Z</time>
      </trkpt>
      <trkpt lat="49.16128" lon="-0.39834">
        <ele>10.8</ele>
        <time>2023-05-04T09:59:48Z</time>
      </trkpt>
      <trkpt lat="49.16128" lon="-0.39834">
        <ele>10.8</ele>
        <time>2023-05-04T09:59:49Z</time>
      </trkpt>
      <trkpt lat="49.16128" lon="-0.39834">
        <ele>10.8</ele>
        <time>2023-05-04T09:59:50Z</time>
      </trkpt>
      <trkpt lat="49.16128" lon="-0.39834">
        <ele>10.8</ele>
        <time>2023-05-04T09:59:51Z</time>
      </trkpt>
      <trkpt lat="49.16128" lon="-0.39835">
        <ele>10.8</ele>
        <time>2023-05-04T09:59:52Z</time>
      </trkpt>
      <trkpt lat="49.16128" lon="-0.39836">
        <ele>10.8</ele>
        <time>2023-05-04T09:59:53Z</time>
      </trkpt>
      <trkpt lat="49.16128" lon="-0.39838">
        <ele>10.8</ele>
        <time>2023-05-04T09:59:54Z</time>
      </trkpt>
      <trkpt lat="49.16129" lon="-0.3984">
        <ele>10.8</ele>
        <time>2023-05-04T09:59:55Z</time>
      </trkpt>
      <trkpt lat="49.16129" lon="-0.39842">
        <ele>10.8</ele>
        <time>2023-05-04T09:59:56Z</time>
      </trkpt>
      <trkpt lat="49.1613" lon="-0.39845">
        <ele>10.8</ele>
        <time>2023-05-04T09:59:57Z</time>
      </trkpt>
      <trkpt lat="49.1613" lon="-0.39848">
        <ele>10.8</ele>
        <time>2023-05-04T09:59:58Z</time>
      </trkpt>
      <trkpt lat="49.16131" lon="-0.39851">
        <ele>10.8</ele>
        <time>2023-05-04T09:59:59Z</time>
      </trkpt>
      <trkpt lat="49.16131" lon="-0.39855">
        <ele>10.6</ele>
        <time>2023-05-04T10:00:00Z</time>
      </trkpt>
      <trkpt lat="49.16132" lon="-0.3986">
        <ele>10.6</ele>
        <time>2023-05-04T10:00:01Z</time>
      </trkpt>
      <trkpt lat="49.16132" lon="-0.39865">
        <ele>10.6</ele>
        <time>2023-05-04T10:00:02Z</time>
      </trkpt>
      <trkpt lat="49.16133" lon="-0.3987">
        <ele>10.6</ele>
        <time>2023-05-04T10:00:03Z</time>
      </trkpt>
      <trkpt lat="49.16135" lon="-0.39874">
        <ele>10.6</ele>
        <time>2023-05-04T10:00:04Z</time>
      </trkpt>
      <trkpt lat="49.16137" lon="-0.39877">
        <ele>10.6</ele>
        <time>2023-05-04T10:00:05Z</time>
      </trkpt>
      <trkpt lat="49.1614" lon="-0.3988">
        <ele>10.6</ele>
        <time>2023-05-04T10:00:06Z</time>
      </trkpt>
      <trkpt lat="49.16143" lon="-0.39882">
        <ele>10.4</ele>
        <time>2023-05-04T10:00:07Z</time>
      </trkpt>
      <trkpt lat="49.16145" lon="-0.39885">
        <ele>10.4</ele>
        <time>2023-05-04T10:00:08Z</time>
      </trkpt>
      <trkpt lat="49.16146" lon="-0.39888">
        <ele>10.4</ele>
        <time>2023-05-04T10:00:09Z</time>
      </trkpt>
      <trkpt lat="49.16147" lon="-0.39892">
        <ele>10.4</ele>
        <time>2023-05-04T10:00:10Z</time>
      </trkpt>
      <trkpt lat="49.16147" lon="-0.39896">
        <ele>10.4</ele>
        <time>2023-05-04T10:00:11Z</time>
      </trkpt>
      <trkpt lat="49.16146" lon="-0.39899">
        <ele>10.4</ele>
        <time>2023-05-04T10:00:12Z</time>
      </trkpt>
      <trkpt lat="49.16144" lon="-0.39903">
        <ele>10.4</ele>
        <time>2023-05-04T10:00:13Z</time>
      </trkpt>
      <trkpt lat="49.16143" lon="-0.39907">
        <ele>10.4</ele>
        <time>2023-05-04T10:00:14Z</time>
      </trkpt>
      <trkpt lat="49.16143" lon="-0.39912">
        <ele>10.4</ele>
        <time>2023-05-04T10:00:15Z</time>
      </trkpt>
      <trkpt lat="49.16143" lon="-0.39917">
        <ele>10.4</ele>
        <time>2023-05-04T10:00:16Z</time>
      </trkpt>
      <trkpt lat="49.16144" lon="-0.39923">
        <ele>10.4</ele>
        <time>2023-05-04T10:00:17Z</time>
      </trkpt>
      <trkpt lat="49.16145" lon="-0.39929">
        <ele>10.4</ele>
        <time>2023-05-04T10:00:18Z</time>
      </trkpt>
      <trkpt lat="49.16146" lon="-0.39936">
        <ele>10.4</ele>
        <time>2023-05-04T10:00:19Z</time>
      </trkpt>
      <trkpt lat="49.16148" lon="-0.39942">
        <ele>10.4</ele>
        <time>2023-05-04T10:00:20Z</time>
      </trkpt>
      <trkpt lat="49.16149" lon="-0.39949">
        <ele>10.4</ele>
        <time>2023-05-04T10:00:21Z</time>
      </trkpt>
      <trkpt lat="49.16151" lon="-0.39956">
        <ele>10.6</ele>
        <time>2023-05-04T10:00:22Z</time>
      </trkpt>
      <trkpt lat="49.16152" lon="-0.39963">
        <ele>10.6</ele>
        <time>2023-05-04T10:00:23Z</time>
      </trkpt>
      <trkpt lat="49.16153" lon="-0.3997">
        <ele>10.6</ele>
        <time>2023-05-04T10:00:24Z</time>
      </trkpt>
      <trkpt lat="49.16155" lon="-0.39978">
        <ele>10.6</ele>
        <time>2023-05-04T10:00:25Z</time>
      </trkpt>
      <trkpt lat="49.16156" lon="-0.39986">
        <ele>10.6</ele>
        <time>2023-05-04T10:00:26Z</time>
      </trkpt>
      <trkpt lat="49.16158" lon="-0.39994">
        <ele>10.8</ele>
        <time>2023-05-04T10:00:27Z</time>
      </trkpt>
      <trkpt lat="49.16159" lon="-0.40002">
        <ele>10.8</ele>
        <time>2023-05-04T10:00:28Z</time>
      </trkpt>
      <trkpt lat="49.1616" lon="-0.4001">
        <ele>11</ele>
        <time>2023-05-04T10:00:29Z</time>
      </trkpt>
      <trkpt lat="49.16162" lon="-0.40018">
        <ele>11.2</ele>
        <time>2023-05-04T10:00:30Z</time>
      </trkpt>
      <trkpt lat="49.16164" lon="-0.40026">
        <ele>11.4</ele>
        <time>2023-05-04T10:00:31Z</time>
      </trkpt>
      <trkpt lat="49.16166" lon="-0.40034">
        <ele>11.4</ele>
        <time>2023-05-04T10:00:32Z</time>
      </trkpt>
      <trkpt lat="49.16169" lon="-0.40041">
        <ele>11.4</ele>
        <time>2023-05-04T10:00:33Z</time>
      </trkpt>
      <trkpt lat="49.16172" lon="-0.40047">
        <ele>11.4</ele>
        <time>2023-05-04T10:00:34Z</time>
      </trkpt>
      <trkpt lat="49.16176" lon="-0.40053">
        <ele>11.4</ele>
        <time>2023-05-04T10:00:35Z</time>
      </trkpt>
      <trkpt lat="49.16181" lon="-0.40058">
        <ele>11.4</ele>
        <time>2023-05-04T10:00:36Z</time>
      </trkpt>
      <trkpt lat="49.16185" lon="-0.40061">
        <ele>11.2</ele>
        <time>2023-05-04T10:00:37Z</time>
      </trkpt>
      <trkpt lat="49.1619" lon="-0.40061">
        <ele>11</ele>
        <time>2023-05-04T10:00:38Z</time>
      </trkpt>
      <trkpt lat="49.16196" lon="-0.4006">
        <ele>10.8</ele>
        <time>2023-05-04T10:00:39Z</time>
      </trkpt>
      <trkpt lat="49.16201" lon="-0.4006">
        <ele>10.6</ele>
        <time>2023-05-04T10:00:40Z</time>
      </trkpt>
      <trkpt lat="49.16205" lon="-0.40063">
        <ele>10.6</ele>
        <time>2023-05-04T10:00:41Z</time>
      </trkpt>
      <trkpt lat="49.16208" lon="-0.40068">
        <ele>10.6</ele>
        <time>2023-05-04T10:00:42Z</time>
      </trkpt>
      <trkpt lat="49.16212" lon="-0.40073">
        <ele>10.4</ele>
        <time>2023-05-04T10:00:43Z</time>
      </trkpt>
      <trkpt lat="49.16215" lon="-0.40077">
        <ele>10.4</ele>
        <time>2023-05-04T10:00:44Z</time>
      </trkpt>
      <trkpt lat="49.16219" lon="-0.40082">
        <ele>10.2</ele>
        <time>2023-05-04T10:00:45Z</time>
      </trkpt>
      <trkpt lat="49.16222" lon="-0.40087">
        <ele>10</ele>
        <time>2023-05-04T10:00:46Z</time>
      </trkpt>
      <trkpt lat="49.16224" lon="-0.40092">
        <ele>9.8</ele>
        <time>2023-05-04T10:00:47Z</time>
      </trkpt>
      <trkpt lat="49.16223" lon="-0.40098">
        <ele>9.8</ele>
        <time>2023-05-04T10:00:48Z</time>
      </trkpt>
      <trkpt lat="49.16222" lon="-0.40104">
        <ele>9.8</ele>
        <time>2023-05-04T10:00:49Z</time>
      </trkpt>
      <trkpt lat="49.16223" lon="-0.4011">
        <ele>9.8</ele>
        <time>2023-05-04T10:00:50Z</time>
      </trkpt>
      <trkpt lat="49.16224" lon="-0.40116">
        <ele>9.8</ele>
        <time>2023-05-04T10:00:51Z</time>
      </trkpt>
      <trkpt lat="49.16224" lon="-0.40122">
        <ele>9.8</ele>
        <time>2023-05-04T10:00:52Z</time>
      </trkpt>
      <trkpt lat="49.16222" lon="-0.40128">
        <ele>9.8</ele>
        <time>2023-05-04T10:00:53Z</time>
      </trkpt>
      <trkpt lat="49.1622" lon="-0.40134">
        <ele>9.8</ele>
        <time>2023-05-04T10:00:54Z</time>
      </trkpt>
      <trkpt lat="49.16218" lon="-0.4014">
        <ele>9.8</ele>
        <time>2023-05-04T10:00:55Z</time>
      </trkpt>
      <trkpt lat="49.16215" lon="-0.40144">
        <ele>9.8</ele>
        <time>2023-05-04T10:00:56Z</time>
      </trkpt>
      <trkpt lat="49.16213" lon="-0.4015">
        <ele>10</ele>
        <time>2023-05-04T10:00:57Z</time>
      </trkpt>
      <trkpt lat="49.16212" lon="-0.40156">
        <ele>10</ele>
        <time>2023-05-04T10:00:58Z</time>
      </trkpt>
      <trkpt lat="49.16211" lon="-0.40163">
        <ele>10</ele>
        <time>2023-05-04T10:00:59Z</time>
      </trkpt>
      <trkpt lat="49.16211" lon="-0.4017">
        <ele>10</ele>
        <time>2023-05-04T10:01:00Z</time>
      </trkpt>
      <trkpt lat="49.16211" lon="-0.40178">
        <ele>10.2</ele>
        <time>2023-05-04T10:01:01Z</time>
      </trkpt>
      <trkpt lat="49.1621" lon="-0.40185">
        <ele>10.2</ele>
        <time>2023-05-04T10:01:02Z</time>
      </trkpt>
      <trkpt lat="49.1621" lon="-0.40192">
        <ele>10.4</ele>
        <time>2023-05-04T10:01:03Z</time>
      </trkpt>
      <trkpt lat="49.16209" lon="-0.402">
        <ele>10.4</ele>
        <time>2023-05-04T10:01:04Z</time>
      </trkpt>
      <trkpt lat="49.16209" lon="-0.40208">
        <ele>10.6</ele>
        <time>2023-05-04T10:01:05Z</time>
      </trkpt>
      <trkpt lat="49.16209" lon="-0.40216">
        <ele>10.6</ele>
        <time>2023-05-04T10:01:06Z</time>
      </trkpt>
      <trkpt lat="49.16209" lon="-0.40223">
        <ele>10.6</ele>
        <time>2023-05-04T10:01:07Z</time>
      </trkpt>
      <trkpt lat="49.16208" lon="-0.40231">
        <ele>10.8</ele>
        <time>2023-05-04T10:01:08Z</time>
      </trkpt>
      <trkpt lat="49.16208" lon="-0.40239">
        <ele>10.8</ele>
        <time>2023-05-04T10:01:09Z</time>
      </trkpt>
      <trkpt lat="49.16208" lon="-0.40247">
        <ele>11</ele>
        <time>2023-05-04T10:01:10Z</time>
      </trkpt>
      <trkpt lat="49.16209" lon="-0.40255">
        <ele>11.2</ele>
        <time>2023-05-04T10:01:11Z</time>
      </trkpt>
      <trkpt lat="49.1621" lon="-0.40263">
        <ele>11.2</ele>
        <time>2023-05-04T10:01:12Z</time>
      </trkpt>
      <trkpt lat="49.16211" lon="-0.40271">
        <ele>11.2</ele>
        <time>2023-05-04T10:01:13Z</time>
      </trkpt>
      <trkpt lat="49.16212" lon="-0.40279">
        <ele>11.4</ele>
        <time>2023-05-04T10:01:14Z</time>
      </trkpt>
      <trkpt lat="49.16214" lon="-0.40287">
        <ele>11.4</ele>
        <time>2023-05-04T10:01:15Z</time>
      </trkpt>
      <trkpt lat="49.16216" lon="-0.40295">
        <ele>11.4</ele>
        <time>2023-05-04T10:01:16Z</time>
      </trkpt>
      <trkpt lat="49.16217" lon="-0.40303">
        <ele>11.4</ele>
        <time>2023-05-04T10:01:17Z</time>
      </trkpt>
      <trkpt lat="49.16219" lon="-0.40311">
        <ele>11.6</ele>
        <time>2023-05-04T10:01:18Z</time>
      </trkpt>
      <trkpt lat="49.1622" lon="-0.4032">
        <ele>11.6</ele>
        <time>2023-05-04T10:01:19Z</time>
      </trkpt>
      <trkpt lat="49.16222" lon="-0.40328">
        <ele>11.6</ele>
        <time>2023-05-04T10:01:20Z</time>
      </trkpt>
      <trkpt lat="49.16223" lon="-0.40336">
        <ele>11.6</ele>
        <time>2023-05-04T10:01:21Z</time>
      </trkpt>
      <trkpt lat="49.16225" lon="-0.40344">
        <ele>11.6</ele>
        <time>2023-05-04T10:01:22Z</time>
      </trkpt>
      <trkpt lat="49.16227" lon="-0.40353">
        <ele>11.6</ele>
        <time>2023-05-04T10:01:23Z</time>
      </trkpt>
      <trkpt lat="49.16228" lon="-0.40361">
        <ele>11.8</ele>
        <time>2023-05-04T10:01:24Z</time>
      </trkpt>
      <trkpt lat="49.1623" lon="-0.40369">
        <ele>11.8</ele>
        <time>2023-05-04T10:01:25Z</time>
      </trkpt>
      <trkpt lat="49.16231" lon="-0.40377">
        <ele>11.8</ele>
        <time>2023-05-04T10:01:26Z</time>
      </trkpt>
      <trkpt lat="49.16233" lon="-0.40385">
        <ele>11.8</ele>
        <time>2023-05-04T10:01:27Z</time>
      </trkpt>
      <trkpt lat="49.16234" lon="-0.40393">
        <ele>12</ele>
        <time>2023-05-04T10:01:28Z</time>
      </trkpt>
      <trkpt lat="49.16236" lon="-0.40402">
        <ele>12</ele>
        <time>2023-05-04T10:01:29Z</time>
      </trkpt>
      <trkpt lat="49.16237" lon="-0.4041">
        <ele>12.2</ele>
        <time>2023-05-04T10:01:30Z</time>
      </trkpt>
      <trkpt lat="49.16239" lon="-0.40418">
        <ele>12.2</ele>
        <time>2023-05-04T10:01:31Z</time>
      </trkpt>
      <trkpt lat="49.1624" lon="-0.40426">
        <ele>12.4</ele>
        <time>2023-05-04T10:01:32Z</time>
      </trkpt>
      <trkpt lat="49.16242" lon="-0.40435">
        <ele>12.6</ele>
        <time>2023-05-04T10:01:33Z</time>
      </trkpt>
      <trkpt lat="49.16243" lon="-0.40443">
        <ele>12.6</ele>
        <time>2023-05-04T10:01:34Z</time>
      </trkpt>
      <trkpt lat="49.16245" lon="-0.40451">
        <ele>12.8</ele>
        <time>2023-05-04T10:01:35Z</time>
      </trkpt>
      <trkpt lat="49.16246" lon="-0.40459">
        <ele>13</ele>
        <time>2023-05-04T10:01:36Z</time>
      </trkpt>
      <trkpt lat="49.16248" lon="-0.40468">
        <ele>13.2</ele>
        <time>2023-05-04T10:01:37Z</time>
      </trkpt>
      <trkpt lat="49.16249" lon="-0.40476">
        <ele>13.4</ele>
        <time>2023-05-04T10:01:38Z</time>
      </trkpt>
      <trkpt lat="49.16251" lon="-0.40484">
        <ele>13.6</ele>
        <time>2023-05-04T10:01:39Z</time>
      </trkpt>
      <trkpt lat="49.16253" lon="-0.40492">
        <ele>13.6</ele>
        <time>2023-05-04T10:01:40Z</time>
      </trkpt>
      <trkpt lat="49.16255" lon="-0.405">
        <ele>13.8</ele>
        <time>2023-05-04T10:01:41Z</time>
      </trkpt>
      <trkpt lat="49.16257" lon="-0.40508">
        <ele>14</ele>
        <time>2023-05-04T10:01:42Z</time>
      </trkpt>
      <trkpt lat="49.16259" lon="-0.40516">
        <ele>14.2</ele>
        <time>2023-05-04T10:01:43Z</time>
      </trkpt>
      <trkpt lat="49.16262" lon="-0.40524">
        <ele>14.2</ele>
        <time>2023-05-04T10:01:44Z</time>
      </trkpt>
      <trkpt lat="49.16264" lon="-0.40531">
        <ele>14.4</ele>
        <time>2023-05-04T10:01:45Z</time>
      </trkpt>
      <trkpt lat="49.16267" lon="-0.40538">
        <ele>14.4</ele>
        <time>2023-05-04T10:01:46Z</time>
      </trkpt>
      <trkpt lat="49.16271" lon="-0.40546">
        <ele>14.6</ele>
        <time>2023-05-04T10:01:47Z</time>
      </trkpt>
      <trkpt lat="49.16274" lon="-0.40553">
        <ele>14.6</ele>
        <time>2023-05-04T10:01:48Z</time>
      </trkpt>
      <trkpt lat="49.16278" lon="-0.40559">
        <ele>14.6</ele>
        <time>2023-05-04T10:01:49Z</time>
      </trkpt>
      <trkpt lat="49.16283" lon="-0.40566">
        <ele>14.6</ele>
        <time>2023-05-04T10:01:50Z</time>
      </trkpt>
      <trkpt lat="49.16287" lon="-0.40572">
        <ele>14.6</ele>
        <time>2023-05-04T10:01:51Z</time>
      </trkpt>
      <trkpt lat="49.16291" lon="-0.40578">
        <ele>14.4</ele>
        <time>2023-05-04T10:01:52Z</time>
      </trkpt>
      <trkpt lat="49.16296" lon="-0.40583">
        <ele>14.4</ele>
        <time>2023-05-04T10:01:53Z</time>
      </trkpt>
      <trkpt lat="49.163" lon="-0.40589">
        <ele>14.2</ele>
        <time>2023-05-04T10:01:54Z</time>
      </trkpt>
      <trkpt lat="49.16305" lon="-0.40594">
        <ele>14</ele>
        <time>2023-05-04T10:01:55Z</time>
      </trkpt>
      <trkpt lat="49.1631" lon="-0.406">
        <ele>13.8</ele>
        <time>2023-05-04T10:01:56Z</time>
      </trkpt>
      <trkpt lat="49.16314" lon="-0.40605">
        <ele>13.8</ele>
        <time>2023-05-04T10:01:57Z</time>
      </trkpt>
      <trkpt lat="49.16318" lon="-0.4061">
        <ele>13.6</ele>
        <time>2023-05-04T10:01:58Z</time>
      </trkpt>
      <trkpt lat="49.16322" lon="-0.40615">
        <ele>13.6</ele>
        <time>2023-05-04T10:01:59Z</time>
      </trkpt>
      <trkpt lat="49.16326" lon="-0.40621">
        <ele>13.6</ele>
        <time>2023-05-04T10:02:00Z</time>
      </trkpt>
      <trkpt lat="49.1633" lon="-0.40627">
        <ele>13.6</ele>
        <time>2023-05-04T10:02:01Z</time>
      </trkpt>
      <trkpt lat="49.16334" lon="-0.40632">
        <ele>13.6</ele>
        <time>2023-05-04T10:02:02Z</time>
      </trkpt>
      <trkpt lat="49.16339" lon="-0.40638">
        <ele>13.4</ele>
        <time>2023-05-04T10:02:03Z</time>
      </trkpt>
      <trkpt lat="49.16344" lon="-0.40643">
        <ele>13.4</ele>
        <time>2023-05-04T10:02:04Z</time>
      </trkpt>
      <trkpt lat="49.16348" lon="-0.40648">
        <ele>13.2</ele>
        <time>2023-05-04T10:02:05Z</time>
      </trkpt>
      <trkpt lat="49.16353" lon="-0.40653">
        <ele>12.8</ele>
        <time>2023-05-04T10:02:06Z</time>
      </trkpt>
      <trkpt lat="49.16358" lon="-0.40658">
        <ele>12.6</ele>
        <time>2023-05-04T10:02:07Z</time>
      </trkpt>
      <trkpt lat="49.16363" lon="-0.40663">
        <ele>12.6</ele>
        <time>2023-05-04T10:02:08Z</time>
      </trkpt>
      <trkpt lat="49.16368" lon="-0.40668">
        <ele>12.4</ele>
        <time>2023-05-04T10:02:09Z</time>
      </trkpt>
      <trkpt lat="49.16373" lon="-0.40673">
        <ele>12</ele>
        <time>2023-05-04T10:02:10Z</time>
      </trkpt>
      <trkpt lat="49.16378" lon="-0.40678">
        <ele>11.6</ele>
        <time>2023-05-04T10:02:11Z</time>
      </trkpt>
      <trkpt lat="49.16383" lon="-0.40683">
        <ele>11.4</ele>
        <time>2023-05-04T10:02:12Z</time>
      </trkpt>
      <trkpt lat="49.16388" lon="-0.40688">
        <ele>11.2</ele>
        <time>2023-05-04T10:02:13Z</time>
      </trkpt>
      <trkpt lat="49.16394" lon="-0.40693">
        <ele>10.8</ele>
        <time>2023-05-04T10:02:14Z</time>
      </trkpt>
      <trkpt lat="49.16399" lon="-0.40697">
        <ele>10.6</ele>
        <time>2023-05-04T10:02:15Z</time>
      </trkpt>
      <trkpt lat="49.16405" lon="-0.40701">
        <ele>10.2</ele>
        <time>2023-05-04T10:02:16Z</time>
      </trkpt>
      <trkpt lat="49.16411" lon="-0.40702">
        <ele>9.8</ele>
        <time>2023-05-04T10:02:17Z</time>
      </trkpt>
      <trkpt lat="49.16417" lon="-0.40702">
        <ele>9.6</ele>
        <time>2023-05-04T10:02:18Z</time>
      </trkpt>
      <trkpt lat="49.16423" lon="-0.40702">
        <ele>9.4</ele>
        <time>2023-05-04T10:02:19Z</time>
      </trkpt>
      <trkpt lat="49.16428" lon="-0.407">
        <ele>9.2</ele>
        <time>2023-05-04T10:02:20Z</time>
      </trkpt>
      <trkpt lat="49.16434" lon="-0.40698">
        <ele>8.8</ele>
        <time>2023-05-04T10:02:21Z</time>
      </trkpt>
      <trkpt lat="49.16439" lon="-0.40695">
        <ele>8.6</ele>
        <time>2023-05-04T10:02:22Z</time>
      </trkpt>
      <trkpt lat="49.16444" lon="-0.40692">
        <ele>8.6</ele>
        <time>2023-05-04T10:02:23Z</time>
      </trkpt>
      <trkpt lat="49.1645" lon="-0.4069">
        <ele>8.2</ele>
        <time>2023-05-04T10:02:24Z</time>
      </trkpt>
      <trkpt lat="49.16455" lon="-0.40687">
        <ele>8</ele>
        <time>2023-05-04T10:02:25Z</time>
      </trkpt>
      <trkpt lat="49.1646" lon="-0.40685">
        <ele>7.8</ele>
        <time>2023-05-04T10:02:26Z</time>
      </trkpt>
      <trkpt lat="49.16466" lon="-0.40682">
        <ele>7.6</ele>
        <time>2023-05-04T10:02:27Z</time>
      </trkpt>
      <trkpt lat="49.16471" lon="-0.4068">
        <ele>7.4</ele>
        <time>2023-05-04T10:02:28Z</time>
      </trkpt>
      <trkpt lat="49.16476" lon="-0.40677">
        <ele>7</ele>
        <time>2023-05-04T10:02:29Z</time>
      </trkpt>
      <trkpt lat="49.16481" lon="-0.40673">
        <ele>7</ele>
        <time>2023-05-04T10:02:30Z</time>
      </trkpt>
      <trkpt lat="49.16486" lon="-0.4067">
        <ele>6.6</ele>
        <time>2023-05-04T10:02:31Z</time>
      </trkpt>
      <trkpt lat="49.1649" lon="-0.40667">
        <ele>6.6</ele>
        <time>2023-05-04T10:02:32Z</time>
      </trkpt>
      <trkpt lat="49.16494" lon="-0.40666">
        <ele>6.4</ele>
        <time>2023-05-04T10:02:33Z</time>
      </trkpt>
      <trkpt lat="49.16497" lon="-0.40666">
        <ele>6</ele>
        <time>2023-05-04T10:02:34Z</time>
      </trkpt>
      <trkpt lat="49.16499" lon="-0.40668">
        <ele>6</ele>
        <time>2023-05-04T10:02:35Z</time>
      </trkpt>
      <trkpt lat="49.16501" lon="-0.4067">
        <ele>6</ele>
        <time>2023-05-04T10:02:36Z</time>
      </trkpt>
      <trkpt lat="49.16503" lon="-0.40672">
        <ele>6</ele>
        <time>2023-05-04T10:02:37Z</time>
      </trkpt>
      <trkpt lat="49.16506" lon="-0.40674">
        <ele>6</ele>
        <time>2023-05-04T10:02:38Z</time>
      </trkpt>
      <trkpt lat="49.1651" lon="-0.40675">
        <ele>6</ele>
        <time>2023-05-04T10:02:39Z</time>
      </trkpt>
      <trkpt lat="49.16515" lon="-0.40676">
        <ele>6</ele>
        <time>2023-05-04T10:02:40Z</time>
      </trkpt>
      <trkpt lat="49.1652" lon="-0.40677">
        <ele>6</ele>
        <time>2023-05-04T10:02:41Z</time>
      </trkpt>
      <trkpt lat="49.16525" lon="-0.40678">
        <ele>6</ele>
        <time>2023-05-04T10:02:42Z</time>
      </trkpt>
      <trkpt lat="49.1653" lon="-0.40679">
        <ele>6</ele>
        <time>2023-05-04T10:02:43Z</time>
      </trkpt>
      <trkpt lat="49.16536" lon="-0.40681">
        <ele>6</ele>
        <time>2023-05-04T10:02:44Z</time>
      </trkpt>
      <trkpt lat="49.16541" lon="-0.40683">
        <ele>6</ele>
        <time>2023-05-04T10:02:45Z</time>
      </trkpt>
      <trkpt lat="49.16546" lon="-0.40685">
        <ele>6</ele>
        <time>2023-05-04T10:02:46Z</time>
      </trkpt>
      <trkpt lat="49.16551" lon="-0.40688">
        <ele>6</ele>
        <time>2023-05-04T10:02:47Z</time>
      </trkpt>
      <trkpt lat="49.16556" lon="-0.4069">
        <ele>6</ele>
        <time>2023-05-04T10:02:48Z</time>
      </trkpt>
      <trkpt lat="49.16562" lon="-0.40692">
        <ele>6</ele>
        <time>2023-05-04T10:02:49Z</time>
      </trkpt>
      <trkpt lat="49.16567" lon="-0.40695">
        <ele>6</ele>
        <time>2023-05-04T10:02:50Z</time>
      </trkpt>
      <trkpt lat="49.16573" lon="-0.40696">
        <ele>6</ele>
        <time>2023-05-04T10:02:51Z</time>
      </trkpt>
      <trkpt lat="49.16579" lon="-0.40698">
        <ele>6</ele>
        <time>2023-05-04T10:02:52Z</time>
      </trkpt>
      <trkpt lat="49.16585" lon="-0.407">
        <ele>6</ele>
        <time>2023-05-04T10:02:53Z</time>
      </trkpt>
      <trkpt lat="49.16591" lon="-0.40702">
        <ele>6</ele>
        <time>2023-05-04T10:02:54Z</time>
      </trkpt>
      <trkpt lat="49.16597" lon="-0.40703">
        <ele>6.2</ele>
        <time>2023-05-04T10:02:55Z</time>
      </trkpt>
      <trkpt lat="49.16602" lon="-0.40705">
        <ele>6.4</ele>
        <time>2023-05-04T10:02:56Z</time>
      </trkpt>
      <trkpt lat="49.16608" lon="-0.40707">
        <ele>6.4</ele>
        <time>2023-05-04T10:02:57Z</time>
      </trkpt>
      <trkpt lat="49.16614" lon="-0.40708">
        <ele>6.6</ele>
        <time>2023-05-04T10:02:58Z</time>
      </trkpt>
      <trkpt lat="49.16619" lon="-0.4071">
        <ele>6.6</ele>
        <time>2023-05-04T10:02:59Z</time>
      </trkpt>
      <trkpt lat="49.16625" lon="-0.40712">
        <ele>6.8</ele>
        <time>2023-05-04T10:03:00Z</time>
      </trkpt>
      <trkpt lat="49.1663" lon="-0.40714">
        <ele>7</ele>
        <time>2023-05-04T10:03:01Z</time>
      </trkpt>
      <trkpt lat="49.16636" lon="-0.40716">
        <ele>7</ele>
        <time>2023-05-04T10:03:02Z</time>
      </trkpt>
      <trkpt lat="49.16641" lon="-0.40717">
        <ele>7</ele>
        <time>2023-05-04T10:03:03Z</time>
      </trkpt>
      <trkpt lat="49.16647" lon="-0.40719">
        <ele>7.2</ele>
        <time>2023-05-04T10:03:04Z</time>
      </trkpt>
      <trkpt lat="49.16653" lon="-0.40721">
        <ele>7.4</ele>
        <time>2023-05-04T10:03:05Z</time>
      </trkpt>
      <trkpt lat="49.16659" lon="-0.40723">
        <ele>7.6</ele>
        <time>2023-05-04T10:03:06Z</time>
      </trkpt>
      <trkpt lat="49.16665" lon="-0.40725">
        <ele>7.6</ele>
        <time>2023-05-04T10:03:07Z</time>
      </trkpt>
      <trkpt lat="49.16672" lon="-0.40728">
        <ele>8</ele>
        <time>2023-05-04T10:03:08Z</time>
      </trkpt>
      <trkpt lat="49.16678" lon="-0.4073">
        <ele>8.2</ele>
        <time>2023-05-04T10:03:09Z</time>
      </trkpt>
      <trkpt lat="49.16685" lon="-0.40732">
        <ele>8.4</ele>
        <time>2023-05-04T10:03:10Z</time>
      </trkpt>
      <trkpt lat="49.16691" lon="-0.40734">
        <ele>8.6</ele>
        <time>2023-05-04T10:03:11Z</time>
      </trkpt>
      <trkpt lat="49.16697" lon="-0.40736">
        <ele>8.8</ele>
        <time>2023-05-04T10:03:12Z</time>
      </trkpt>
      <trkpt lat="49.16703" lon="-0.40738">
        <ele>9.2</ele>
        <time>2023-05-04T10:03:13Z</time>
      </trkpt>
      <trkpt lat="49.16709" lon="-0.40741">
        <ele>9.4</ele>
        <time>2023-05-04T10:03:14Z</time>
      </trkpt>
      <trkpt lat="49.16715" lon="-0.40743">
        <ele>9.6</ele>
        <time>2023-05-04T10:03:15Z</time>
      </trkpt>
      <trkpt lat="49.16721" lon="-0.40745">
        <ele>9.8</ele>
        <time>2023-05-04T10:03:16Z</time>
      </trkpt>
      <trkpt lat="49.16727" lon="-0.40747">
        <ele>10.2</ele>
        <time>2023-05-04T10:03:17Z</time>
      </trkpt>
      <trkpt lat="49.16733" lon="-0.40749">
        <ele>10.4</ele>
        <time>2023-05-04T10:03:18Z</time>
      </trkpt>
      <trkpt lat="49.16738" lon="-0.40751">
        <ele>10.6</ele>
        <time>2023-05-04T10:03:19Z</time>
      </trkpt>
      <trkpt lat="49.16743" lon="-0.40754">
        <ele>10.8</ele>
        <time>2023-05-04T10:03:20Z</time>
      </trkpt>
      <trkpt lat="49.16747" lon="-0.40759">
        <ele>11</ele>
        <time>2023-05-04T10:03:21Z</time>
      </trkpt>
      <trkpt lat="49.16751" lon="-0.40764">
        <ele>11.2</ele>
        <time>2023-05-04T10:03:22Z</time>
      </trkpt>
      <trkpt lat="49.16756" lon="-0.40768">
        <ele>11.4</ele>
        <time>2023-05-04T10:03:23Z</time>
      </trkpt>
      <trkpt lat="49.1676" lon="-0.4077">
        <ele>11.6</ele>
        <time>2023-05-04T10:03:24Z</time>
      </trkpt>
      <trkpt lat="49.16766" lon="-0.40772">
        <ele>11.6</ele>
        <time>2023-05-04T10:03:25Z</time>
      </trkpt>
      <trkpt lat="49.16771" lon="-0.40774">
        <ele>11.8</ele>
        <time>2023-05-04T10:03:26Z</time>
      </trkpt>
      <trkpt lat="49.16776" lon="-0.40775">
        <ele>12</ele>
        <time>2023-05-04T10:03:27Z</time>
      </trkpt>
      <trkpt lat="49.16781" lon="-0.40777">
        <ele>12.2</ele>
        <time>2023-05-04T10:03:28Z</time>
      </trkpt>
      <trkpt lat="49.16786" lon="-0.40779">
        <ele>12.4</ele>
        <time>2023-05-04T10:03:29Z</time>
      </trkpt>
      <trkpt lat="49.1679" lon="-0.40781">
        <ele>12.6</ele>
        <time>2023-05-04T10:03:30Z</time>
      </trkpt>
      <trkpt lat="49.16795" lon="-0.40783">
        <ele>12.6</ele>
        <time>2023-05-04T10:03:31Z</time>
      </trkpt>
      <trkpt lat="49.16799" lon="-0.40785">
        <ele>12.8</ele>
        <time>2023-05-04T10:03:32Z</time>
      </trkpt>
      <trkpt lat="49.16804" lon="-0.40787">
        <ele>13</ele>
        <time>2023-05-04T10:03:33Z</time>
      </trkpt>
      <trkpt lat="49.16809" lon="-0.40789">
        <ele>13.2</ele>
        <time>2023-05-04T10:03:34Z</time>
      </trkpt>
      <trkpt lat="49.16814" lon="-0.4079">
        <ele>13.4</ele>
        <time>2023-05-04T10:03:35Z</time>
      </trkpt>
      <trkpt lat="49.16818" lon="-0.40791">
        <ele>13.6</ele>
        <time>2023-05-04T10:03:36Z</time>
      </trkpt>
      <trkpt lat="49.16823" lon="-0.40792">
        <ele>13.6</ele>
        <time>2023-05-04T10:03:37Z</time>
      </trkpt>
      <trkpt lat="49.16826" lon="-0.40793">
        <ele>13.8</ele>
        <time>2023-05-04T10:03:38Z</time>
      </trkpt>
      <trkpt lat="49.16829" lon="-0.40793">
        <ele>13.8</ele>
        <time>2023-05-04T10:03:39Z</time>
      </trkpt>
      <trkpt lat="49.16831" lon="-0.40793">
        <ele>14</ele>
        <time>2023-05-04T10:03:40Z</time>
      </trkpt>
      <trkpt lat="49.16833" lon="-0.40791">
        <ele>14</ele>
        <time>2023-05-04T10:03:41Z</time>
      </trkpt>
      <trkpt lat="49.16834" lon="-0.4079">
        <ele>14</ele>
        <time>2023-05-04T10:03:42Z</time>
      </trkpt>
      <trkpt lat="49.16835" lon="-0.40788">
        <ele>13.8</ele>
        <time>2023-05-04T10:03:43Z</time>
      </trkpt>
      <trkpt lat="49.16836" lon="-0.40787">
        <ele>13.8</ele>
        <time>2023-05-04T10:03:44Z</time>
      </trkpt>
      <trkpt lat="49.16837" lon="-0.40785">
        <ele>13.8</ele>
        <time>2023-05-04T10:03:45Z</time>
      </trkpt>
      <trkpt lat="49.16838" lon="-0.40782">
        <ele>13.8</ele>
        <time>2023-05-04T10:03:46Z</time>
      </trkpt>
      <trkpt lat="49.16839" lon="-0.40779">
        <ele>13.8</ele>
        <time>2023-05-04T10:03:47Z</time>
      </trkpt>
      <trkpt lat="49.16841" lon="-0.40774">
        <ele>13.8</ele>
        <time>2023-05-04T10:03:48Z</time>
      </trkpt>
      <trkpt lat="49.16842" lon="-0.40769">
        <ele>13.6</ele>
        <time>2023-05-04T10:03:49Z</time>
      </trkpt>
      <trkpt lat="49.16844" lon="-0.40764">
        <ele>13.6</ele>
        <time>2023-05-04T10:03:50Z</time>
      </trkpt>
      <trkpt lat="49.16846" lon="-0.40758">
        <ele>13.6</ele>
        <time>2023-05-04T10:03:51Z</time>
      </trkpt>
      <trkpt lat="49.16848" lon="-0.40752">
        <ele>13.4</ele>
        <time>2023-05-04T10:03:52Z</time>
      </trkpt>
      <trkpt lat="49.1685" lon="-0.40746">
        <ele>13.4</ele>
        <time>2023-05-04T10:03:53Z</time>
      </trkpt>
      <trkpt lat="49.16852" lon="-0.4074">
        <ele>13.4</ele>
        <time>2023-05-04T10:03:54Z</time>
      </trkpt>
      <trkpt lat="49.16854" lon="-0.40734">
        <ele>13.4</ele>
        <time>2023-05-04T10:03:55Z</time>
      </trkpt>
      <trkpt lat="49.16856" lon="-0.40728">
        <ele>13.4</ele>
        <time>2023-05-04T10:03:56Z</time>
      </trkpt>
      <trkpt lat="49.16858" lon="-0.40722">
        <ele>13.4</ele>
        <time>2023-05-04T10:03:57Z</time>
      </trkpt>
      <trkpt lat="49.1686" lon="-0.40716">
        <ele>13.6</ele>
        <time>2023-05-04T10:03:58Z</time>
      </trkpt>
      <trkpt lat="49.16862" lon="-0.4071">
        <ele>13.6</ele>
        <time>2023-05-04T10:03:59Z</time>
      </trkpt>
      <trkpt lat="49.16864" lon="-0.40704">
        <ele>13.6</ele>
        <time>2023-05-04T10:04:00Z</time>
      </trkpt>
      <trkpt lat="49.16865" lon="-0.40699">
        <ele>13.6</ele>
        <time>2023-05-04T10:04:01Z</time>
      </trkpt>
      <trkpt lat="49.16867" lon="-0.40693">
        <ele>13.6</ele>
        <time>2023-05-04T10:04:02Z</time>
      </trkpt>
      <trkpt lat="49.16869" lon="-0.40687">
        <ele>13.8</ele>
        <time>2023-05-04T10:04:03Z</time>
      </trkpt>
      <trkpt lat="49.16871" lon="-0.40681">
        <ele>13.8</ele>
        <time>2023-05-04T10:04:04Z</time>
      </trkpt>
      <trkpt lat="49.16873" lon="-0.40676">
        <ele>13.8</ele>
        <time>2023-05-04T10:04:05Z</time>
      </trkpt>
      <trkpt lat="49.16875" lon="-0.4067">
        <ele>14</ele>
        <time>2023-05-04T10:04:06Z</time>
      </trkpt>
      <trkpt lat="49.16876" lon="-0.40664">
        <ele>14.2</ele>
        <time>2023-05-04T10:04:07Z</time>
      </trkpt>
      <trkpt lat="49.16878" lon="-0.40659">
        <ele>14.4</ele>
        <time>2023-05-04T10:04:08Z</time>
      </trkpt>
      <trkpt lat="49.1688" lon="-0.40653">
        <ele>14.6</ele>
        <time>2023-05-04T10:04:09Z</time>
      </trkpt>
      <trkpt lat="49.16882" lon="-0.40648">
        <ele>15</ele>
        <time>2023-05-04T10:04:10Z</time>
      </trkpt>
      <trkpt lat="49.16883" lon="-0.40643">
        <ele>15.4</ele>
        <time>2023-05-04T10:04:11Z</time>
      </trkpt>
      <trkpt lat="49.16885" lon="-0.40637">
        <ele>15.6</ele>
        <time>2023-05-04T10:04:12Z</time>
      </trkpt>
      <trkpt lat="49.16887" lon="-0.40632">
        <ele>15.8</ele>
        <time>2023-05-04T10:04:13Z</time>
      </trkpt>
      <trkpt lat="49.16889" lon="-0.40627">
        <ele>16.2</ele>
        <time>2023-05-04T10:04:14Z</time>
      </trkpt>
      <trkpt lat="49.1689" lon="-0.40622">
        <ele>16.6</ele>
        <time>2023-05-04T10:04:15Z</time>
      </trkpt>
      <trkpt lat="49.16892" lon="-0.40617">
        <ele>16.8</ele>
        <time>2023-05-04T10:04:16Z</time>
      </trkpt>
      <trkpt lat="49.16894" lon="-0.40612">
        <ele>17.2</ele>
        <time>2023-05-04T10:04:17Z</time>
      </trkpt>
      <trkpt lat="49.16895" lon="-0.40607">
        <ele>17.6</ele>
        <time>2023-05-04T10:04:18Z</time>
      </trkpt>
      <trkpt lat="49.16897" lon="-0.40602">
        <ele>17.8</ele>
        <time>2023-05-04T10:04:19Z</time>
      </trkpt>
      <trkpt lat="49.16899" lon="-0.40597">
        <ele>18.2</ele>
        <time>2023-05-04T10:04:20Z</time>
      </trkpt>
      <trkpt lat="49.169" lon="-0.40592">
        <ele>18.4</ele>
        <time>2023-05-04T10:04:21Z</time>
      </trkpt>
      <trkpt lat="49.16902" lon="-0.40587">
        <ele>18.8</ele>
        <time>2023-05-04T10:04:22Z</time>
      </trkpt>
      <trkpt lat="49.16904" lon="-0.40583">
        <ele>19.2</ele>
        <time>2023-05-04T10:04:23Z</time>
      </trkpt>
      <trkpt lat="49.16905" lon="-0.40578">
        <ele>19.4</ele>
        <time>2023-05-04T10:04:24Z</time>
      </trkpt>
      <trkpt lat="49.16907" lon="-0.40573">
        <ele>19.8</ele>
        <time>2023-05-04T10:04:25Z</time>
      </trkpt>
      <trkpt lat="49.16909" lon="-0.40568">
        <ele>20.2</ele>
        <time>2023-05-04T10:04:26Z</time>
      </trkpt>
      <trkpt lat="49.1691" lon="-0.40564">
        <ele>20.6</ele>
        <time>2023-05-04T10:04:27Z</time>
      </trkpt>
      <trkpt lat="49.16912" lon="-0.40559">
        <ele>20.8</ele>
        <time>2023-05-04T10:04:28Z</time>
      </trkpt>
      <trkpt lat="49.16914" lon="-0.40554">
        <ele>21.2</ele>
        <time>2023-05-04T10:04:29Z</time>
      </trkpt>
      <trkpt lat="49.16915" lon="-0.40549">
        <ele>21.6</ele>
        <time>2023-05-04T10:04:30Z</time>
      </trkpt>
      <trkpt lat="49.16917" lon="-0.40544">
        <ele>21.8</ele>
        <time>2023-05-04T10:04:31Z</time>
      </trkpt>
      <trkpt lat="49.16919" lon="-0.4054">
        <ele>22.2</ele>
        <time>2023-05-04T10:04:32Z</time>
      </trkpt>
      <trkpt lat="49.1692" lon="-0.40535">
        <ele>22.6</ele>
        <time>2023-05-04T10:04:33Z</time>
      </trkpt>
      <trkpt lat="49.16922" lon="-0.4053">
        <ele>22.8</ele>
        <time>2023-05-04T10:04:34Z</time>
      </trkpt>
      <trkpt lat="49.16923" lon="-0.40525">
        <ele>23.2</ele>
        <time>2023-05-04T10:04:35Z</time>
      </trkpt>
      <trkpt lat="49.16925" lon="-0.4052">
        <ele>23.4</ele>
        <time>2023-05-04T10:04:36Z</time>
      </trkpt>
      <trkpt lat="49.16927" lon="-0.40515">
        <ele>23.8</ele>
        <time>2023-05-04T10:04:37Z</time>
      </trkpt>
      <trkpt lat="49.16928" lon="-0.4051">
        <ele>24</ele>
        <time>2023-05-04T10:04:38Z</time>
      </trkpt>
      <trkpt lat="49.1693" lon="-0.40505">
        <ele>24.4</ele>
        <time>2023-05-04T10:04:39Z</time>
      </trkpt>
      <trkpt lat="49.16931" lon="-0.40501">
        <ele>24.8</ele>
        <time>2023-05-04T10:04:40Z</time>
      </trkpt>
      <trkpt lat="49.16933" lon="-0.40496">
        <ele>24.8</ele>
        <time>2023-05-04T10:04:41Z</time>
      </trkpt>
      <trkpt lat="49.16934" lon="-0.40492">
        <ele>25</ele>
        <time>2023-05-04T10:04:42Z</time>
      </trkpt>
      <trkpt lat="49.16936" lon="-0.40487">
        <ele>25.2</ele>
        <time>2023-05-04T10:04:43Z</time>
      </trkpt>
      <trkpt lat="49.16937" lon="-0.40482">
        <ele>25.2</ele>
        <time>2023-05-04T10:04:44Z</time>
      </trkpt>
      <trkpt lat="49.16939" lon="-0.40478">
        <ele>25.2</ele>
        <time>2023-05-04T10:04:45Z</time>
      </trkpt>
      <trkpt lat="49.1694" lon="-0.40473">
        <ele>25.6</ele>
        <time>2023-05-04T10:04:46Z</time>
      </trkpt>
      <trkpt lat="49.16942" lon="-0.40468">
        <ele>25.6</ele>
        <time>2023-05-04T10:04:47Z</time>
      </trkpt>
      <trkpt lat="49.16944" lon="-0.40463">
        <ele>25.8</ele>
        <time>2023-05-04T10:04:48Z</time>
      </trkpt>
      <trkpt lat="49.16945" lon="-0.40458">
        <ele>25.8</ele>
        <time>2023-05-04T10:04:49Z</time>
      </trkpt>
      <trkpt lat="49.16947" lon="-0.40453">
        <ele>26</ele>
        <time>2023-05-04T10:04:50Z</time>
      </trkpt>
      <trkpt lat="49.16949" lon="-0.40448">
        <ele>26.2</ele>
        <time>2023-05-04T10:04:51Z</time>
      </trkpt>
      <trkpt lat="49.1695" lon="-0.40443">
        <ele>26.2</ele>
        <time>2023-05-04T10:04:52Z</time>
      </trkpt>
      <trkpt lat="49.16952" lon="-0.40438">
        <ele>26.4</ele>
        <time>2023-05-04T10:04:53Z</time>
      </trkpt>
      <trkpt lat="49.16954" lon="-0.40433">
        <ele>26.6</ele>
        <time>2023-05-04T10:04:54Z</time>
      </trkpt>
      <trkpt lat="49.16955" lon="-0.40428">
        <ele>26.8</ele>
        <time>2023-05-04T10:04:55Z</time>
      </trkpt>
      <trkpt lat="49.16957" lon="-0.40423">
        <ele>26.8</ele>
        <time>2023-05-04T10:04:56Z</time>
      </trkpt>
      <trkpt lat="49.16959" lon="-0.40419">
        <ele>27</ele>
        <time>2023-05-04T10:04:57Z</time>
      </trkpt>
      <trkpt lat="49.1696" lon="-0.40414">
        <ele>27.2</ele>
        <time>2023-05-04T10:04:58Z</time>
      </trkpt>
      <trkpt lat="49.16962" lon="-0.40409">
        <ele>27.2</ele>
        <time>2023-05-04T10:04:59Z</time>
      </trkpt>
      <trkpt lat="49.16964" lon="-0.40404">
        <ele>27.6</ele>
        <time>2023-05-04T10:05:00Z</time>
      </trkpt>
      <trkpt lat="49.16965" lon="-0.40399">
        <ele>27.8</ele>
        <time>2023-05-04T10:05:01Z</time>
      </trkpt>
      <trkpt lat="49.16967" lon="-0.40395">
        <ele>27.8</ele>
        <time>2023-05-04T10:05:02Z</time>
      </trkpt>
      <trkpt lat="49.16968" lon="-0.4039">
        <ele>28</ele>
        <time>2023-05-04T10:05:03Z</time>
      </trkpt>
      <trkpt lat="49.1697" lon="-0.40385">
        <ele>28.2</ele>
        <time>2023-05-04T10:05:04Z</time>
      </trkpt>
      <trkpt lat="49.16972" lon="-0.4038">
        <ele>28.4</ele>
        <time>2023-05-04T10:05:05Z</time>
      </trkpt>
      <trkpt lat="49.16973" lon="-0.40375">
        <ele>28.6</ele>
        <time>2023-05-04T10:05:06Z</time>
      </trkpt>
      <trkpt lat="49.16975" lon="-0.4037">
        <ele>28.8</ele>
        <time>2023-05-04T10:05:07Z</time>
      </trkpt>
      <trkpt lat="49.16976" lon="-0.40365">
        <ele>28.8</ele>
        <time>2023-05-04T10:05:08Z</time>
      </trkpt>
      <trkpt lat="49.16978" lon="-0.4036">
        <ele>29.2</ele>
        <time>2023-05-04T10:05:09Z</time>
      </trkpt>
      <trkpt lat="49.16979" lon="-0.40356">
        <ele>29.2</ele>
        <time>2023-05-04T10:05:10Z</time>
      </trkpt>
      <trkpt lat="49.16981" lon="-0.4035">
        <ele>29.6</ele>
        <time>2023-05-04T10:05:11Z</time>
      </trkpt>
      <trkpt lat="49.16983" lon="-0.40346">
        <ele>29.8</ele>
        <time>2023-05-04T10:05:12Z</time>
      </trkpt>
      <trkpt lat="49.16984" lon="-0.40341">
        <ele>29.8</ele>
        <time>2023-05-04T10:05:13Z</time>
      </trkpt>
      <trkpt lat="49.16986" lon="-0.40336">
        <ele>30.2</ele>
        <time>2023-05-04T10:05:14Z</time>
      </trkpt>
      <trkpt lat="49.16988" lon="-0.40331">
        <ele>30.2</ele>
        <time>2023-05-04T10:05:15Z</time>
      </trkpt>
      <trkpt lat="49.16989" lon="-0.40327">
        <ele>30.6</ele>
        <time>2023-05-04T10:05:16Z</time>
      </trkpt>
      <trkpt lat="49.16991" lon="-0.40322">
        <ele>30.8</ele>
        <time>2023-05-04T10:05:17Z</time>
      </trkpt>
      <trkpt lat="49.16992" lon="-0.40318">
        <ele>31</ele>
        <time>2023-05-04T10:05:18Z</time>
      </trkpt>
      <trkpt lat="49.16994" lon="-0.40313">
        <ele>31.2</ele>
        <time>2023-05-04T10:05:19Z</time>
      </trkpt>
      <trkpt lat="49.16995" lon="-0.40308">
        <ele>31.6</ele>
        <time>2023-05-04T10:05:20Z</time>
      </trkpt>
      <trkpt lat="49.16997" lon="-0.40303">
        <ele>31.8</ele>
        <time>2023-05-04T10:05:21Z</time>
      </trkpt>
      <trkpt lat="49.16998" lon="-0.40298">
        <ele>32</ele>
        <time>2023-05-04T10:05:22Z</time>
      </trkpt>
      <trkpt lat="49.17" lon="-0.40294">
        <ele>32.4</ele>
        <time>2023-05-04T10:05:23Z</time>
      </trkpt>
      <trkpt lat="49.17002" lon="-0.40289">
        <ele>32.6</ele>
        <time>2023-05-04T10:05:24Z</time>
      </trkpt>
      <trkpt lat="49.17003" lon="-0.40284">
        <ele>33</ele>
        <time>2023-05-04T10:05:25Z</time>
      </trkpt>
      <trkpt lat="49.17005" lon="-0.4028">
        <ele>33</ele>
        <time>2023-05-04T10:05:26Z</time>
      </trkpt>
      <trkpt lat="49.17006" lon="-0.40276">
        <ele>33.2</ele>
        <time>2023-05-04T10:05:27Z</time>
      </trkpt>
      <trkpt lat="49.17008" lon="-0.40272">
        <ele>33.6</ele>
        <time>2023-05-04T10:05:28Z</time>
      </trkpt>
      <trkpt lat="49.17009" lon="-0.40267">
        <ele>33.8</ele>
        <time>2023-05-04T10:05:29Z</time>
      </trkpt>
      <trkpt lat="49.17011" lon="-0.40263">
        <ele>34</ele>
        <time>2023-05-04T10:05:30Z</time>
      </trkpt>
      <trkpt lat="49.17013" lon="-0.40258">
        <ele>34.2</ele>
        <time>2023-05-04T10:05:31Z</time>
      </trkpt>
      <trkpt lat="49.17014" lon="-0.40254">
        <ele>34.4</ele>
        <time>2023-05-04T10:05:32Z</time>
      </trkpt>
      <trkpt lat="49.17016" lon="-0.40249">
        <ele>34.6</ele>
        <time>2023-05-04T10:05:33Z</time>
      </trkpt>
      <trkpt lat="49.17018" lon="-0.40244">
        <ele>34.8</ele>
        <time>2023-05-04T10:05:34Z</time>
      </trkpt>
      <trkpt lat="49.17019" lon="-0.40239">
        <ele>35</ele>
        <time>2023-05-04T10:05:35Z</time>
      </trkpt>
      <trkpt lat="49.17021" lon="-0.40234">
        <ele>35</ele>
        <time>2023-05-04T10:05:36Z</time>
      </trkpt>
      <trkpt lat="49.17022" lon="-0.40229">
        <ele>35.2</ele>
        <time>2023-05-04T10:05:37Z</time>
      </trkpt>
      <trkpt lat="49.17024" lon="-0.40224">
        <ele>35.2</ele>
        <time>2023-05-04T10:05:38Z</time>
      </trkpt>
      <trkpt lat="49.17026" lon="-0.40219">
        <ele>35.4</ele>
        <time>2023-05-04T10:05:39Z</time>
      </trkpt>
      <trkpt lat="49.17027" lon="-0.40214">
        <ele>35.6</ele>
        <time>2023-05-04T10:05:40Z</time>
      </trkpt>
      <trkpt lat="49.17029" lon="-0.40209">
        <ele>35.8</ele>
        <time>2023-05-04T10:05:41Z</time>
      </trkpt>
      <trkpt lat="49.17031" lon="-0.40204">
        <ele>35.8</ele>
        <time>2023-05-04T10:05:42Z</time>
      </trkpt>
      <trkpt lat="49.17032" lon="-0.40199">
        <ele>36</ele>
        <time>2023-05-04T10:05:43Z</time>
      </trkpt>
      <trkpt lat="49.17034" lon="-0.40193">
        <ele>36</ele>
        <time>2023-05-04T10:05:44Z</time>
      </trkpt>
      <trkpt lat="49.17036" lon="-0.40188">
        <ele>36</ele>
        <time>2023-05-04T10:05:45Z</time>
      </trkpt>
      <trkpt lat="49.17038" lon="-0.40183">
        <ele>36.2</ele>
        <time>2023-05-04T10:05:46Z</time>
      </trkpt>
      <trkpt lat="49.17039" lon="-0.40177">
        <ele>36.2</ele>
        <time>2023-05-04T10:05:47Z</time>
      </trkpt>
      <trkpt lat="49.17041" lon="-0.40172">
        <ele>36.4</ele>
        <time>2023-05-04T10:05:48Z</time>
      </trkpt>
      <trkpt lat="49.17043" lon="-0.40167">
        <ele>36.6</ele>
        <time>2023-05-04T10:05:49Z</time>
      </trkpt>
      <trkpt lat="49.17045" lon="-0.40161">
        <ele>36.6</ele>
        <time>2023-05-04T10:05:50Z</time>
      </trkpt>
      <trkpt lat="49.17046" lon="-0.40156">
        <ele>36.6</ele>
        <time>2023-05-04T10:05:51Z</time>
      </trkpt>
      <trkpt lat="49.17048" lon="-0.4015">
        <ele>36.8</ele>
        <time>2023-05-04T10:05:52Z</time>
      </trkpt>
      <trkpt lat="49.1705" lon="-0.40145">
        <ele>36.8</ele>
        <time>2023-05-04T10:05:53Z</time>
      </trkpt>
      <trkpt lat="49.17052" lon="-0.4014">
        <ele>36.8</ele>
        <time>2023-05-04T10:05:54Z</time>
      </trkpt>
      <trkpt lat="49.17054" lon="-0.40134">
        <ele>37</ele>
        <time>2023-05-04T10:05:55Z</time>
      </trkpt>
      <trkpt lat="49.17055" lon="-0.40129">
        <ele>37</ele>
        <time>2023-05-04T10:05:56Z</time>
      </trkpt>
      <trkpt lat="49.17057" lon="-0.40123">
        <ele>37</ele>
        <time>2023-05-04T10:05:57Z</time>
      </trkpt>
      <trkpt lat="49.17059" lon="-0.40118">
        <ele>37</ele>
        <time>2023-05-04T10:05:58Z</time>
      </trkpt>
      <trkpt lat="49.17061" lon="-0.40112">
        <ele>37.2</ele>
        <time>2023-05-04T10:05:59Z</time>
      </trkpt>
      <trkpt lat="49.17063" lon="-0.40107">
        <ele>37.2</ele>
        <time>2023-05-04T10:06:00Z</time>
      </trkpt>
      <trkpt lat="49.17065" lon="-0.40101">
        <ele>37.4</ele>
        <time>2023-05-04T10:06:01Z</time>
      </trkpt>
      <trkpt lat="49.17067" lon="-0.40096">
        <ele>37.6</ele>
        <time>2023-05-04T10:06:02Z</time>
      </trkpt>
      <trkpt lat="49.17069" lon="-0.4009">
        <ele>37.6</ele>
        <time>2023-05-04T10:06:03Z</time>
      </trkpt>
      <trkpt lat="49.17071" lon="-0.40084">
        <ele>37.8</ele>
        <time>2023-05-04T10:06:04Z</time>
      </trkpt>
      <trkpt lat="49.17073" lon="-0.40078">
        <ele>37.6</ele>
        <time>2023-05-04T10:06:05Z</time>
      </trkpt>
      <trkpt lat="49.17075" lon="-0.40073">
        <ele>37.6</ele>
        <time>2023-05-04T10:06:06Z</time>
      </trkpt>
      <trkpt lat="49.17077" lon="-0.40067">
        <ele>37.6</ele>
        <time>2023-05-04T10:06:07Z</time>
      </trkpt>
      <trkpt lat="49.17079" lon="-0.40061">
        <ele>37.4</ele>
        <time>2023-05-04T10:06:08Z</time>
      </trkpt>
      <trkpt lat="49.17081" lon="-0.40055">
        <ele>37.2</ele>
        <time>2023-05-04T10:06:09Z</time>
      </trkpt>
      <trkpt lat="49.17084" lon="-0.4005">
        <ele>37.2</ele>
        <time>2023-05-04T10:06:10Z</time>
      </trkpt>
      <trkpt lat="49.17086" lon="-0.40044">
        <ele>37</ele>
        <time>2023-05-04T10:06:11Z</time>
      </trkpt>
      <trkpt lat="49.17088" lon="-0.40038">
        <ele>37</ele>
        <time>2023-05-04T10:06:12Z</time>
      </trkpt>
      <trkpt lat="49.1709" lon="-0.40033">
        <ele>37</ele>
        <time>2023-05-04T10:06:13Z</time>
      </trkpt>
      <trkpt lat="49.17092" lon="-0.40028">
        <ele>37</ele>
        <time>2023-05-04T10:06:14Z</time>
      </trkpt>
      <trkpt lat="49.17094" lon="-0.40022">
        <ele>37</ele>
        <time>2023-05-04T10:06:15Z</time>
      </trkpt>
      <trkpt lat="49.17095" lon="-0.40017">
        <ele>37</ele>
        <time>2023-05-04T10:06:16Z</time>
      </trkpt>
      <trkpt lat="49.17097" lon="-0.40012">
        <ele>37</ele>
        <time>2023-05-04T10:06:17Z</time>
      </trkpt>
      <trkpt lat="49.17099" lon="-0.40007">
        <ele>37</ele>
        <time>2023-05-04T10:06:18Z</time>
      </trkpt>
      <trkpt lat="49.17101" lon="-0.40002">
        <ele>37</ele>
        <time>2023-05-04T10:06:19Z</time>
      </trkpt>
      <trkpt lat="49.17102" lon="-0.39997">
        <ele>37</ele>
        <time>2023-05-04T10:06:20Z</time>
      </trkpt>
      <trkpt lat="49.17103" lon="-0.39993">
        <ele>37</ele>
        <time>2023-05-04T10:06:21Z</time>
      </trkpt>
      <trkpt lat="49.17105" lon="-0.39989">
        <ele>37</ele>
        <time>2023-05-04T10:06:22Z</time>
      </trkpt>
      <trkpt lat="49.17106" lon="-0.39985">
        <ele>37.2</ele>
        <time>2023-05-04T10:06:23Z</time>
      </trkpt>
      <trkpt lat="49.17107" lon="-0.39982">
        <ele>37.2</ele>
        <time>2023-05-04T10:06:24Z</time>
      </trkpt>
      <trkpt lat="49.17108" lon="-0.39979">
        <ele>37.4</ele>
        <time>2023-05-04T10:06:25Z</time>
      </trkpt>
      <trkpt lat="49.17109" lon="-0.39976">
        <ele>37.4</ele>
        <time>2023-05-04T10:06:26Z</time>
      </trkpt>
      <trkpt lat="49.17109" lon="-0.39974">
        <ele>37.6</ele>
        <time>2023-05-04T10:06:27Z</time>
      </trkpt>
      <trkpt lat="49.1711" lon="-0.39972">
        <ele>37.6</ele>
        <time>2023-05-04T10:06:28Z</time>
      </trkpt>
      <trkpt lat="49.1711" lon="-0.39972">
        <ele>37.6</ele>
        <time>2023-05-04T10:06:29Z</time>
      </trkpt>
      <trkpt lat="49.1711" lon="-0.39972">
        <ele>37.6</ele>
        <time>2023-05-04T10:06:30Z</time>
      </trkpt>
      <trkpt lat="49.1711" lon="-0.39972">
        <ele>37.6</ele>
        <time>2023-05-04T10:06:31Z</time>
      </trkpt>
      <trkpt lat="49.1711" lon="-0.39972">
        <ele>37.6</ele>
        <time>2023-05-04T10:06:32Z</time>
      </trkpt>
      <trkpt lat="49.1711" lon="-0.39972">
        <ele>37.6</ele>
        <time>2023-05-04T10:06:33Z</time>
      </trkpt>
      <trkpt lat="49.1711" lon="-0.39972">
        <ele>37.6</ele>
        <time>2023-05-04T10:06:34Z</time>
      </trkpt>
      <trkpt lat="49.1711" lon="-0.39972">
        <ele>37.6</ele>
        <time>2023-05-04T10:06:35Z</time>
      </trkpt>
      <trkpt lat="49.1711" lon="-0.39972">
        <ele>37.6</ele>
        <time>2023-05-04T10:06:36Z</time>
      </trkpt>
      <trkpt lat="49.1711" lon="-0.39972">
        <ele>37.6</ele>
        <time>2023-05-04T10:06:37Z</time>
      </trkpt>
      <trkpt lat="49.1711" lon="-0.39972">
        <ele>37.6</ele>
        <time>2023-05-04T10:06:38Z</time>
      </trkpt>
      <trkpt lat="49.17111" lon="-0.39971">
        <ele>37.6</ele>
        <time>2023-05-04T10:06:39Z</time>
      </trkpt>
      <trkpt lat="49.17111" lon="-0.39969">
        <ele>37.6</ele>
        <time>2023-05-04T10:06:40Z</time>
      </trkpt>
      <trkpt lat="49.17112" lon="-0.39966">
        <ele>37.6</ele>
        <time>2023-05-04T10:06:41Z</time>
      </trkpt>
      <trkpt lat="49.17113" lon="-0.39964">
        <ele>37.8</ele>
        <time>2023-05-04T10:06:42Z</time>
      </trkpt>
      <trkpt lat="49.17114" lon="-0.39961">
        <ele>37.8</ele>
        <time>2023-05-04T10:06:43Z</time>
      </trkpt>
      <trkpt lat="49.17115" lon="-0.39957">
        <ele>38</ele>
        <time>2023-05-04T10:06:44Z</time>
      </trkpt>
      <trkpt lat="49.17117" lon="-0.39953">
        <ele>38</ele>
        <time>2023-05-04T10:06:45Z</time>
      </trkpt>
      <trkpt lat="49.17118" lon="-0.39949">
        <ele>38</ele>
        <time>2023-05-04T10:06:46Z</time>
      </trkpt>
      <trkpt lat="49.17119" lon="-0.39945">
        <ele>38</ele>
        <time>2023-05-04T10:06:47Z</time>
      </trkpt>
      <trkpt lat="49.17121" lon="-0.3994">
        <ele>38.2</ele>
        <time>2023-05-04T10:06:48Z</time>
      </trkpt>
      <trkpt lat="49.17122" lon="-0.39936">
        <ele>38.2</ele>
        <time>2023-05-04T10:06:49Z</time>
      </trkpt>
      <trkpt lat="49.17123" lon="-0.39932">
        <ele>38.2</ele>
        <time>2023-05-04T10:06:50Z</time>
      </trkpt>
      <trkpt lat="49.17124" lon="-0.39928">
        <ele>38.4</ele>
        <time>2023-05-04T10:06:51Z</time>
      </trkpt>
      <trkpt lat="49.17126" lon="-0.39924">
        <ele>38.6</ele>
        <time>2023-05-04T10:06:52Z</time>
      </trkpt>
      <trkpt lat="49.17127" lon="-0.39921">
        <ele>38.6</ele>
        <time>2023-05-04T10:06:53Z</time>
      </trkpt>
      <trkpt lat="49.17127" lon="-0.39918">
        <ele>38.6</ele>
        <time>2023-05-04T10:06:54Z</time>
      </trkpt>
      <trkpt lat="49.17128" lon="-0.39916">
        <ele>38.6</ele>
        <time>2023-05-04T10:06:55Z</time>
      </trkpt>
      <trkpt lat="49.17128" lon="-0.39915">
        <ele>38.6</ele>
        <time>2023-05-04T10:06:56Z</time>
      </trkpt>
      <trkpt lat="49.17129" lon="-0.39913">
        <ele>38.8</ele>
        <time>2023-05-04T10:06:57Z</time>
      </trkpt>
      <trkpt lat="49.1713" lon="-0.39912">
        <ele>38.8</ele>
        <time>2023-05-04T10:06:58Z</time>
      </trkpt>
      <trkpt lat="49.1713" lon="-0.3991">
        <ele>38.8</ele>
        <time>2023-05-04T10:06:59Z</time>
      </trkpt>
      <trkpt lat="49.17131" lon="-0.39909">
        <ele>38.8</ele>
        <time>2023-05-04T10:07:00Z</time>
      </trkpt>
      <trkpt lat="49.17132" lon="-0.39907">
        <ele>38.8</ele>
        <time>2023-05-04T10:07:01Z</time>
      </trkpt>
      <trkpt lat="49.17133" lon="-0.39906">
        <ele>38.8</ele>
        <time>2023-05-04T10:07:02Z</time>
      </trkpt>
      <trkpt lat="49.17135" lon="-0.39906">
        <ele>39</ele>
        <time>2023-05-04T10:07:03Z</time>
      </trkpt>
      <trkpt lat="49.17137" lon="-0.39906">
        <ele>39</ele>
        <time>2023-05-04T10:07:04Z</time>
      </trkpt>
      <trkpt lat="49.1714" lon="-0.39907">
        <ele>39</ele>
        <time>2023-05-04T10:07:05Z</time>
      </trkpt>
      <trkpt lat="49.17143" lon="-0.39909">
        <ele>39.2</ele>
        <time>2023-05-04T10:07:06Z</time>
      </trkpt>
      <trkpt lat="49.17147" lon="-0.39911">
        <ele>39.2</ele>
        <time>2023-05-04T10:07:07Z</time>
      </trkpt>
      <trkpt lat="49.17151" lon="-0.39913">
        <ele>39.4</ele>
        <time>2023-05-04T10:07:08Z</time>
      </trkpt>
      <trkpt lat="49.17155" lon="-0.39915">
        <ele>39.6</ele>
        <time>2023-05-04T10:07:09Z</time>
      </trkpt>
      <trkpt lat="49.17159" lon="-0.39917">
        <ele>39.8</ele>
        <time>2023-05-04T10:07:10Z</time>
      </trkpt>
      <trkpt lat="49.17163" lon="-0.39919">
        <ele>40</ele>
        <time>2023-05-04T10:07:11Z</time>
      </trkpt>
      <trkpt lat="49.17167" lon="-0.39921">
        <ele>40</ele>
        <time>2023-05-04T10:07:12Z</time>
      </trkpt>
      <trkpt lat="49.17171" lon="-0.39923">
        <ele>40.2</ele>
        <time>2023-05-04T10:07:13Z</time>
      </trkpt>
      <trkpt lat="49.17176" lon="-0.39924">
        <ele>40.4</ele>
        <time>2023-05-04T10:07:14Z</time>
      </trkpt>
      <trkpt lat="49.1718" lon="-0.39927">
        <ele>40.6</ele>
        <time>2023-05-04T10:07:15Z</time>
      </trkpt>
      <trkpt lat="49.17184" lon="-0.39928">
        <ele>40.8</ele>
        <time>2023-05-04T10:07:16Z</time>
      </trkpt>
      <trkpt lat="49.17189" lon="-0.3993">
        <ele>41</ele>
        <time>2023-05-04T10:07:17Z</time>
      </trkpt>
      <trkpt lat="49.17193" lon="-0.39932">
        <ele>41</ele>
        <time>2023-05-04T10:07:18Z</time>
      </trkpt>
      <trkpt lat="49.17198" lon="-0.39934">
        <ele>41.2</ele>
        <time>2023-05-04T10:07:19Z</time>
      </trkpt>
      <trkpt lat="49.17202" lon="-0.39936">
        <ele>41.4</ele>
        <time>2023-05-04T10:07:20Z</time>
      </trkpt>
      <trkpt lat="49.17206" lon="-0.39937">
        <ele>41.6</ele>
        <time>2023-05-04T10:07:21Z</time>
      </trkpt>
      <trkpt lat="49.17211" lon="-0.39939">
        <ele>41.8</ele>
        <time>2023-05-04T10:07:22Z</time>
      </trkpt>
      <trkpt lat="49.17215" lon="-0.3994">
        <ele>42</ele>
        <time>2023-05-04T10:07:23Z</time>
      </trkpt>
      <trkpt lat="49.1722" lon="-0.3994">
        <ele>42</ele>
        <time>2023-05-04T10:07:24Z</time>
      </trkpt>
      <trkpt lat="49.17225" lon="-0.39941">
        <ele>42.2</ele>
        <time>2023-05-04T10:07:25Z</time>
      </trkpt>
      <trkpt lat="49.1723" lon="-0.39942">
        <ele>42.2</ele>
        <time>2023-05-04T10:07:26Z</time>
      </trkpt>
      <trkpt lat="49.17235" lon="-0.39943">
        <ele>42.6</ele>
        <time>2023-05-04T10:07:27Z</time>
      </trkpt>
      <trkpt lat="49.17239" lon="-0.39943">
        <ele>42.8</ele>
        <time>2023-05-04T10:07:28Z</time>
      </trkpt>
      <trkpt lat="49.17244" lon="-0.39944">
        <ele>42.8</ele>
        <time>2023-05-04T10:07:29Z</time>
      </trkpt>
      <trkpt lat="49.17249" lon="-0.39944">
        <ele>43</ele>
        <time>2023-05-04T10:07:30Z</time>
      </trkpt>
      <trkpt lat="49.17254" lon="-0.39944">
        <ele>43</ele>
        <time>2023-05-04T10:07:31Z</time>
      </trkpt>
      <trkpt lat="49.17258" lon="-0.39944">
        <ele>42.8</ele>
        <time>2023-05-04T10:07:32Z</time>
      </trkpt>
      <trkpt lat="49.17263" lon="-0.39944">
        <ele>42.8</ele>
        <time>2023-05-04T10:07:33Z</time>
      </trkpt>
      <trkpt lat="49.17268" lon="-0.39944">
        <ele>42.8</ele>
        <time>2023-05-04T10:07:34Z</time>
      </trkpt>
      <trkpt lat="49.17272" lon="-0.39944">
        <ele>42.6</ele>
        <time>2023-05-04T10:07:35Z</time>
      </trkpt>
      <trkpt lat="49.17276" lon="-0.39944">
        <ele>42.6</ele>
        <time>2023-05-04T10:07:36Z</time>
      </trkpt>
      <trkpt lat="49.1728" lon="-0.39944">
        <ele>42.4</ele>
        <time>2023-05-04T10:07:37Z</time>
      </trkpt>
      <trkpt lat="49.17284" lon="-0.39945">
        <ele>42.2</ele>
        <time>2023-05-04T10:07:38Z</time>
      </trkpt>
      <trkpt lat="49.17289" lon="-0.39945">
        <ele>42.2</ele>
        <time>2023-05-04T10:07:39Z</time>
      </trkpt>
      <trkpt lat="49.17293" lon="-0.39946">
        <ele>42</ele>
        <time>2023-05-04T10:07:40Z</time>
      </trkpt>
      <trkpt lat="49.17297" lon="-0.39946">
        <ele>42</ele>
        <time>2023-05-04T10:07:41Z</time>
      </trkpt>
      <trkpt lat="49.17301" lon="-0.39947">
        <ele>42</ele>
        <time>2023-05-04T10:07:42Z</time>
      </trkpt>
      <trkpt lat="49.17306" lon="-0.39948">
        <ele>41.8</ele>
        <time>2023-05-04T10:07:43Z</time>
      </trkpt>
      <trkpt lat="49.1731" lon="-0.39949">
        <ele>41.8</ele>
        <time>2023-05-04T10:07:44Z</time>
      </trkpt>
      <trkpt lat="49.17315" lon="-0.3995">
        <ele>41.6</ele>
        <time>2023-05-04T10:07:45Z</time>
      </trkpt>
      <trkpt lat="49.1732" lon="-0.39952">
        <ele>41.4</ele>
        <time>2023-05-04T10:07:46Z</time>
      </trkpt>
      <trkpt lat="49.17325" lon="-0.39955">
        <ele>41.2</ele>
        <time>2023-05-04T10:07:47Z</time>
      </trkpt>
      <trkpt lat="49.1733" lon="-0.39957">
        <ele>41</ele>
        <time>2023-05-04T10:07:48Z</time>
      </trkpt>
      <trkpt lat="49.17334" lon="-0.39961">
        <ele>41</ele>
        <time>2023-05-04T10:07:49Z</time>
      </trkpt>
      <trkpt lat="49.17339" lon="-0.39964">
        <ele>40.8</ele>
        <time>2023-05-04T10:07:50Z</time>
      </trkpt>
      <trkpt lat="49.17345" lon="-0.39968">
        <ele>40.6</ele>
        <time>2023-05-04T10:07:51Z</time>
      </trkpt>
      <trkpt lat="49.1735" lon="-0.39972">
        <ele>40.4</ele>
        <time>2023-05-04T10:07:52Z</time>
      </trkpt>
      <trkpt lat="49.17355" lon="-0.39975">
        <ele>40.2</ele>
        <time>2023-05-04T10:07:53Z</time>
      </trkpt>
      <trkpt lat="49.1736" lon="-0.39979">
        <ele>40</ele>
        <time>2023-05-04T10:07:54Z</time>
      </trkpt>
      <trkpt lat="49.17366" lon="-0.39982">
        <ele>40</ele>
        <time>2023-05-04T10:07:55Z</time>
      </trkpt>
      <trkpt lat="49.17371" lon="-0.39985">
        <ele>39.8</ele>
        <time>2023-05-04T10:07:56Z</time>
      </trkpt>
      <trkpt lat="49.17376" lon="-0.39988">
        <ele>39.8</ele>
        <time>2023-05-04T10:07:57Z</time>
      </trkpt>
      <trkpt lat="49.17381" lon="-0.39991">
        <ele>39.6</ele>
        <time>2023-05-04T10:07:58Z</time>
      </trkpt>
      <trkpt lat="49.17386" lon="-0.39993">
        <ele>39.6</ele>
        <time>2023-05-04T10:07:59Z</time>
      </trkpt>
      <trkpt lat="49.17389" lon="-0.39995">
        <ele>39.4</ele>
        <time>2023-05-04T10:08:00Z</time>
      </trkpt>
      <trkpt lat="49.17393" lon="-0.39996">
        <ele>39.2</ele>
        <time>2023-05-04T10:08:01Z</time>
      </trkpt>
      <trkpt lat="49.17396" lon="-0.39997">
        <ele>39.2</ele>
        <time>2023-05-04T10:08:02Z</time>
      </trkpt>
      <trkpt lat="49.174" lon="-0.4">
        <ele>39.2</ele>
        <time>2023-05-04T10:08:03Z</time>
      </trkpt>
      <trkpt lat="49.17404" lon="-0.40003">
        <ele>39</ele>
        <time>2023-05-04T10:08:04Z</time>
      </trkpt>
      <trkpt lat="49.17408" lon="-0.40006">
        <ele>39</ele>
        <time>2023-05-04T10:08:05Z</time>
      </trkpt>
      <trkpt lat="49.17411" lon="-0.40008">
        <ele>39</ele>
        <time>2023-05-04T10:08:06Z</time>
      </trkpt>
      <trkpt lat="49.17414" lon="-0.4001">
        <ele>39</ele>
        <time>2023-05-04T10:08:07Z</time>
      </trkpt>
      <trkpt lat="49.17417" lon="-0.40013">
        <ele>39</ele>
        <time>2023-05-04T10:08:08Z</time>
      </trkpt>
      <trkpt lat="49.17421" lon="-0.40016">
        <ele>39</ele>
        <time>2023-05-04T10:08:09Z</time>
      </trkpt>
      <trkpt lat="49.17425" lon="-0.40019">
        <ele>39.2</ele>
        <time>2023-05-04T10:08:10Z</time>
      </trkpt>
      <trkpt lat="49.17429" lon="-0.40022">
        <ele>39.2</ele>
        <time>2023-05-04T10:08:11Z</time>
      </trkpt>
      <trkpt lat="49.17434" lon="-0.40026">
        <ele>39.4</ele>
        <time>2023-05-04T10:08:12Z</time>
      </trkpt>
      <trkpt lat="49.17439" lon="-0.4003">
        <ele>39.4</ele>
        <time>2023-05-04T10:08:13Z</time>
      </trkpt>
      <trkpt lat="49.17444" lon="-0.40033">
        <ele>39.6</ele>
        <time>2023-05-04T10:08:14Z</time>
      </trkpt>
      <trkpt lat="49.1745" lon="-0.40036">
        <ele>39.6</ele>
        <time>2023-05-04T10:08:15Z</time>
      </trkpt>
      <trkpt lat="49.17455" lon="-0.40039">
        <ele>39.8</ele>
        <time>2023-05-04T10:08:16Z</time>
      </trkpt>
      <trkpt lat="49.1746" lon="-0.40042">
        <ele>39.8</ele>
        <time>2023-05-04T10:08:17Z</time>
      </trkpt>
      <trkpt lat="49.17465" lon="-0.40045">
        <ele>40</ele>
        <time>2023-05-04T10:08:18Z</time>
      </trkpt>
      <trkpt lat="49.17471" lon="-0.40049">
        <ele>40</ele>
        <time>2023-05-04T10:08:19Z</time>
      </trkpt>
      <trkpt lat="49.17475" lon="-0.40053">
        <ele>40</ele>
        <time>2023-05-04T10:08:20Z</time>
      </trkpt>
      <trkpt lat="49.17481" lon="-0.40057">
        <ele>40</ele>
        <time>2023-05-04T10:08:21Z</time>
      </trkpt>
      <trkpt lat="49.17485" lon="-0.40061">
        <ele>40</ele>
        <time>2023-05-04T10:08:22Z</time>
      </trkpt>
      <trkpt lat="49.17491" lon="-0.40065">
        <ele>40</ele>
        <time>2023-05-04T10:08:23Z</time>
      </trkpt>
      <trkpt lat="49.17495" lon="-0.40068">
        <ele>40</ele>
        <time>2023-05-04T10:08:24Z</time>
      </trkpt>
      <trkpt lat="49.17501" lon="-0.40072">
        <ele>40</ele>
        <time>2023-05-04T10:08:25Z</time>
      </trkpt>
      <trkpt lat="49.17505" lon="-0.40076">
        <ele>40</ele>
        <time>2023-05-04T10:08:26Z</time>
      </trkpt>
      <trkpt lat="49.17511" lon="-0.40079">
        <ele>40</ele>
        <time>2023-05-04T10:08:27Z</time>
      </trkpt>
      <trkpt lat="49.17516" lon="-0.40083">
        <ele>39.8</ele>
        <time>2023-05-04T10:08:28Z</time>
      </trkpt>
      <trkpt lat="49.17521" lon="-0.40086">
        <ele>39.8</ele>
        <time>2023-05-04T10:08:29Z</time>
      </trkpt>
      <trkpt lat="49.17526" lon="-0.4009">
        <ele>39.8</ele>
        <time>2023-05-04T10:08:30Z</time>
      </trkpt>
      <trkpt lat="49.17531" lon="-0.40093">
        <ele>39.6</ele>
        <time>2023-05-04T10:08:31Z</time>
      </trkpt>
      <trkpt lat="49.17536" lon="-0.40097">
        <ele>39.6</ele>
        <time>2023-05-04T10:08:32Z</time>
      </trkpt>
      <trkpt lat="49.17541" lon="-0.40101">
        <ele>39.4</ele>
        <time>2023-05-04T10:08:33Z</time>
      </trkpt>
      <trkpt lat="49.17546" lon="-0.40104">
        <ele>39.2</ele>
        <time>2023-05-04T10:08:34Z</time>
      </trkpt>
      <trkpt lat="49.17551" lon="-0.40106">
        <ele>39.2</ele>
        <time>2023-05-04T10:08:35Z</time>
      </trkpt>
      <trkpt lat="49.17556" lon="-0.40108">
        <ele>39</ele>
        <time>2023-05-04T10:08:36Z</time>
      </trkpt>
      <trkpt lat="49.17561" lon="-0.40112">
        <ele>39</ele>
        <time>2023-05-04T10:08:37Z</time>
      </trkpt>
      <trkpt lat="49.17566" lon="-0.40116">
        <ele>39</ele>
        <time>2023-05-04T10:08:38Z</time>
      </trkpt>
      <trkpt lat="49.1757" lon="-0.4012">
        <ele>38.8</ele>
        <time>2023-05-04T10:08:39Z</time>
      </trkpt>
      <trkpt lat="49.17575" lon="-0.40124">
        <ele>38.8</ele>
        <time>2023-05-04T10:08:40Z</time>
      </trkpt>
      <trkpt lat="49.1758" lon="-0.40127">
        <ele>38.6</ele>
        <time>2023-05-04T10:08:41Z</time>
      </trkpt>
      <trkpt lat="49.17584" lon="-0.40131">
        <ele>38.4</ele>
        <time>2023-05-04T10:08:42Z</time>
      </trkpt>
      <trkpt lat="49.17589" lon="-0.40134">
        <ele>38.4</ele>
        <time>2023-05-04T10:08:43Z</time>
      </trkpt>
      <trkpt lat="49.17594" lon="-0.40138">
        <ele>38.4</ele>
        <time>2023-05-04T10:08:44Z</time>
      </trkpt>
      <trkpt lat="49.17599" lon="-0.40141">
        <ele>38.4</ele>
        <time>2023-05-04T10:08:45Z</time>
      </trkpt>
      <trkpt lat="49.17604" lon="-0.40144">
        <ele>38.6</ele>
        <time>2023-05-04T10:08:46Z</time>
      </trkpt>
      <trkpt lat="49.1761" lon="-0.40147">
        <ele>38.6</ele>
        <time>2023-05-04T10:08:47Z</time>
      </trkpt>
      <trkpt lat="49.17615" lon="-0.40151">
        <ele>38.6</ele>
        <time>2023-05-04T10:08:48Z</time>
      </trkpt>
      <trkpt lat="49.1762" lon="-0.40154">
        <ele>38.6</ele>
        <time>2023-05-04T10:08:49Z</time>
      </trkpt>
      <trkpt lat="49.17625" lon="-0.40157">
        <ele>38.6</ele>
        <time>2023-05-04T10:08:50Z</time>
      </trkpt>
      <trkpt lat="49.1763" lon="-0.4016">
        <ele>38.6</ele>
        <time>2023-05-04T10:08:51Z</time>
      </trkpt>
      <trkpt lat="49.17635" lon="-0.40163">
        <ele>38.6</ele>
        <time>2023-05-04T10:08:52Z</time>
      </trkpt>
      <trkpt lat="49.1764" lon="-0.40167">
        <ele>38.8</ele>
        <time>2023-05-04T10:08:53Z</time>
      </trkpt>
      <trkpt lat="49.17645" lon="-0.4017">
        <ele>38.8</ele>
        <time>2023-05-04T10:08:54Z</time>
      </trkpt>
      <trkpt lat="49.17649" lon="-0.40173">
        <ele>38.8</ele>
        <time>2023-05-04T10:08:55Z</time>
      </trkpt>
      <trkpt lat="49.17654" lon="-0.40177">
        <ele>38.8</ele>
        <time>2023-05-04T10:08:56Z</time>
      </trkpt>
      <trkpt lat="49.17658" lon="-0.4018">
        <ele>38.8</ele>
        <time>2023-05-04T10:08:57Z</time>
      </trkpt>
      <trkpt lat="49.17662" lon="-0.40184">
        <ele>38.8</ele>
        <time>2023-05-04T10:08:58Z</time>
      </trkpt>
      <trkpt lat="49.17666" lon="-0.40187">
        <ele>38.8</ele>
        <time>2023-05-04T10:08:59Z</time>
      </trkpt>
      <trkpt lat="49.17671" lon="-0.4019">
        <ele>38.8</ele>
        <time>2023-05-04T10:09:00Z</time>
      </trkpt>
      <trkpt lat="49.17676" lon="-0.40193">
        <ele>38.8</ele>
        <time>2023-05-04T10:09:01Z</time>
      </trkpt>
      <trkpt lat="49.17681" lon="-0.40196">
        <ele>38.8</ele>
        <time>2023-05-04T10:09:02Z</time>
      </trkpt>
      <trkpt lat="49.17686" lon="-0.40198">
        <ele>38.8</ele>
        <time>2023-05-04T10:09:03Z</time>
      </trkpt>
      <trkpt lat="49.17691" lon="-0.40201">
        <ele>38.8</ele>
        <time>2023-05-04T10:09:04Z</time>
      </trkpt>
      <trkpt lat="49.17696" lon="-0.40204">
        <ele>38.8</ele>
        <time>2023-05-04T10:09:05Z</time>
      </trkpt>
      <trkpt lat="49.17701" lon="-0.40206">
        <ele>38.8</ele>
        <time>2023-05-04T10:09:06Z</time>
      </trkpt>
      <trkpt lat="49.17707" lon="-0.40209">
        <ele>38.8</ele>
        <time>2023-05-04T10:09:07Z</time>
      </trkpt>
      <trkpt lat="49.17712" lon="-0.40211">
        <ele>38.8</ele>
        <time>2023-05-04T10:09:08Z</time>
      </trkpt>
      <trkpt lat="49.17718" lon="-0.40213">
        <ele>38.8</ele>
        <time>2023-05-04T10:09:09Z</time>
      </trkpt>
      <trkpt lat="49.17723" lon="-0.40216">
        <ele>38.8</ele>
        <time>2023-05-04T10:09:10Z</time>
      </trkpt>
      <trkpt lat="49.17729" lon="-0.40218">
        <ele>38.8</ele>
        <time>2023-05-04T10:09:11Z</time>
      </trkpt>
      <trkpt lat="49.17734" lon="-0.4022">
        <ele>39</ele>
        <time>2023-05-04T10:09:12Z</time>
      </trkpt>
      <trkpt lat="49.1774" lon="-0.40222">
        <ele>39</ele>
        <time>2023-05-04T10:09:13Z</time>
      </trkpt>
      <trkpt lat="49.17746" lon="-0.40224">
        <ele>39</ele>
        <time>2023-05-04T10:09:14Z</time>
      </trkpt>
      <trkpt lat="49.17752" lon="-0.40226">
        <ele>39</ele>
        <time>2023-05-04T10:09:15Z</time>
      </trkpt>
      <trkpt lat="49.17758" lon="-0.40228">
        <ele>39</ele>
        <time>2023-05-04T10:09:16Z</time>
      </trkpt>
      <trkpt lat="49.17763" lon="-0.40229">
        <ele>39</ele>
        <time>2023-05-04T10:09:17Z</time>
      </trkpt>
      <trkpt lat="49.17769" lon="-0.4023">
        <ele>39</ele>
        <time>2023-05-04T10:09:18Z</time>
      </trkpt>
      <trkpt lat="49.17775" lon="-0.40231">
        <ele>39</ele>
        <time>2023-05-04T10:09:19Z</time>
      </trkpt>
      <trkpt lat="49.1778" lon="-0.40232">
        <ele>39</ele>
        <time>2023-05-04T10:09:20Z</time>
      </trkpt>
      <trkpt lat="49.17786" lon="-0.40234">
        <ele>39</ele>
        <time>2023-05-04T10:09:21Z</time>
      </trkpt>
      <trkpt lat="49.17792" lon="-0.40235">
        <ele>39</ele>
        <time>2023-05-04T10:09:22Z</time>
      </trkpt>
      <trkpt lat="49.17797" lon="-0.40235">
        <ele>39</ele>
        <time>2023-05-04T10:09:23Z</time>
      </trkpt>
      <trkpt lat="49.17802" lon="-0.40236">
        <ele>39</ele>
        <time>2023-05-04T10:09:24Z</time>
      </trkpt>
      <trkpt lat="49.17808" lon="-0.40237">
        <ele>39</ele>
        <time>2023-05-04T10:09:25Z</time>
      </trkpt>
      <trkpt lat="49.17813" lon="-0.40238">
        <ele>39</ele>
        <time>2023-05-04T10:09:26Z</time>
      </trkpt>
      <trkpt lat="49.17819" lon="-0.40238">
        <ele>39</ele>
        <time>2023-05-04T10:09:27Z</time>
      </trkpt>
      <trkpt lat="49.17824" lon="-0.40239">
        <ele>39</ele>
        <time>2023-05-04T10:09:28Z</time>
      </trkpt>
      <trkpt lat="49.17829" lon="-0.40239">
        <ele>39</ele>
        <time>2023-05-04T10:09:29Z</time>
      </trkpt>
      <trkpt lat="49.17835" lon="-0.40239">
        <ele>39</ele>
        <time>2023-05-04T10:09:30Z</time>
      </trkpt>
      <trkpt lat="49.1784" lon="-0.40239">
        <ele>39</ele>
        <time>2023-05-04T10:09:31Z</time>
      </trkpt>
      <trkpt lat="49.17846" lon="-0.40239">
        <ele>39.2</ele>
        <time>2023-05-04T10:09:32Z</time>
      </trkpt>
      <trkpt lat="49.17851" lon="-0.40239">
        <ele>39.2</ele>
        <time>2023-05-04T10:09:33Z</time>
      </trkpt>
      <trkpt lat="49.17857" lon="-0.40239">
        <ele>39.2</ele>
        <time>2023-05-04T10:09:34Z</time>
      </trkpt>
      <trkpt lat="49.17862" lon="-0.40239">
        <ele>39.4</ele>
        <time>2023-05-04T10:09:35Z</time>
      </trkpt>
      <trkpt lat="49.17868" lon="-0.40239">
        <ele>39.6</ele>
        <time>2023-05-04T10:09:36Z</time>
      </trkpt>
      <trkpt lat="49.17873" lon="-0.40238">
        <ele>39.6</ele>
        <time>2023-05-04T10:09:37Z</time>
      </trkpt>
      <trkpt lat="49.17879" lon="-0.40238">
        <ele>39.6</ele>
        <time>2023-05-04T10:09:38Z</time>
      </trkpt>
      <trkpt lat="49.17884" lon="-0.40237">
        <ele>39.8</ele>
        <time>2023-05-04T10:09:39Z</time>
      </trkpt>
      <trkpt lat="49.17889" lon="-0.40236">
        <ele>39.8</ele>
        <time>2023-05-04T10:09:40Z</time>
      </trkpt>
      <trkpt lat="49.17894" lon="-0.40235">
        <ele>40</ele>
        <time>2023-05-04T10:09:41Z</time>
      </trkpt>
      <trkpt lat="49.17899" lon="-0.40235">
        <ele>40</ele>
        <time>2023-05-04T10:09:42Z</time>
      </trkpt>
      <trkpt lat="49.17905" lon="-0.40234">
        <ele>40</ele>
        <time>2023-05-04T10:09:43Z</time>
      </trkpt>
      <trkpt lat="49.1791" lon="-0.40232">
        <ele>40</ele>
        <time>2023-05-04T10:09:44Z</time>
      </trkpt>
      <trkpt lat="49.17915" lon="-0.40231">
        <ele>40.2</ele>
        <time>2023-05-04T10:09:45Z</time>
      </trkpt>
      <trkpt lat="49.1792" lon="-0.4023">
        <ele>40.2</ele>
        <time>2023-05-04T10:09:46Z</time>
      </trkpt>
      <trkpt lat="49.17926" lon="-0.40229">
        <ele>40.2</ele>
        <time>2023-05-04T10:09:47Z</time>
      </trkpt>
      <trkpt lat="49.17931" lon="-0.40227">
        <ele>40.2</ele>
        <time>2023-05-04T10:09:48Z</time>
      </trkpt>
      <trkpt lat="49.17936" lon="-0.40225">
        <ele>40</ele>
        <time>2023-05-04T10:09:49Z</time>
      </trkpt>
      <trkpt lat="49.17942" lon="-0.40224">
        <ele>40</ele>
        <time>2023-05-04T10:09:50Z</time>
      </trkpt>
      <trkpt lat="49.17947" lon="-0.40222">
        <ele>40</ele>
        <time>2023-05-04T10:09:51Z</time>
      </trkpt>
      <trkpt lat="49.17952" lon="-0.4022">
        <ele>40</ele>
        <time>2023-05-04T10:09:52Z</time>
      </trkpt>
      <trkpt lat="49.17957" lon="-0.40218">
        <ele>40</ele>
        <time>2023-05-04T10:09:53Z</time>
      </trkpt>
      <trkpt lat="49.17962" lon="-0.40216">
        <ele>40</ele>
        <time>2023-05-04T10:09:54Z</time>
      </trkpt>
      <trkpt lat="49.17967" lon="-0.40214">
        <ele>40</ele>
        <time>2023-05-04T10:09:55Z</time>
      </trkpt>
      <trkpt lat="49.17973" lon="-0.40212">
        <ele>40</ele>
        <time>2023-05-04T10:09:56Z</time>
      </trkpt>
      <trkpt lat="49.17978" lon="-0.40209">
        <ele>40</ele>
        <time>2023-05-04T10:09:57Z</time>
      </trkpt>
      <trkpt lat="49.17983" lon="-0.40207">
        <ele>40</ele>
        <time>2023-05-04T10:09:58Z</time>
      </trkpt>
      <trkpt lat="49.17988" lon="-0.40205">
        <ele>40.2</ele>
        <time>2023-05-04T10:09:59Z</time>
      </trkpt>
      <trkpt lat="49.17993" lon="-0.40202">
        <ele>40.2</ele>
        <time>2023-05-04T10:10:00Z</time>
      </trkpt>
      <trkpt lat="49.17998" lon="-0.40199">
        <ele>40.2</ele>
        <time>2023-05-04T10:10:01Z</time>
      </trkpt>
      <trkpt lat="49.18003" lon="-0.40197">
        <ele>40.2</ele>
        <time>2023-05-04T10:10:02Z</time>
      </trkpt>
      <trkpt lat="49.18007" lon="-0.40194">
        <ele>40.4</ele>
        <time>2023-05-04T10:10:03Z</time>
      </trkpt>
      <trkpt lat="49.18012" lon="-0.40191">
        <ele>40.6</ele>
        <time>2023-05-04T10:10:04Z</time>
      </trkpt>
      <trkpt lat="49.18017" lon="-0.40188">
        <ele>40.6</ele>
        <time>2023-05-04T10:10:05Z</time>
      </trkpt>
      <trkpt lat="49.18022" lon="-0.40185">
        <ele>40.6</ele>
        <time>2023-05-04T10:10:06Z</time>
      </trkpt>
      <trkpt lat="49.18026" lon="-0.40182">
        <ele>40.8</ele>
        <time>2023-05-04T10:10:07Z</time>
      </trkpt>
      <trkpt lat="49.18031" lon="-0.40178">
        <ele>40.8</ele>
        <time>2023-05-04T10:10:08Z</time>
      </trkpt>
      <trkpt lat="49.18036" lon="-0.40175">
        <ele>40.8</ele>
        <time>2023-05-04T10:10:09Z</time>
      </trkpt>
      <trkpt lat="49.1804" lon="-0.40172">
        <ele>41</ele>
        <time>2023-05-04T10:10:10Z</time>
      </trkpt>
      <trkpt lat="49.18044" lon="-0.40169">
        <ele>41</ele>
        <time>2023-05-04T10:10:11Z</time>
      </trkpt>
      <trkpt lat="49.18049" lon="-0.40165">
        <ele>41</ele>
        <time>2023-05-04T10:10:12Z</time>
      </trkpt>
      <trkpt lat="49.18053" lon="-0.40162">
        <ele>41</ele>
        <time>2023-05-04T10:10:13Z</time>
      </trkpt>
      <trkpt lat="49.18057" lon="-0.40159">
        <ele>41</ele>
        <time>2023-05-04T10:10:14Z</time>
      </trkpt>
      <trkpt lat="49.18061" lon="-0.40156">
        <ele>41</ele>
        <time>2023-05-04T10:10:15Z</time>
      </trkpt>
      <trkpt lat="49.18064" lon="-0.40152">
        <ele>41</ele>
        <time>2023-05-04T10:10:16Z</time>
      </trkpt>
      <trkpt lat="49.18068" lon="-0.40149">
        <ele>40.8</ele>
        <time>2023-05-04T10:10:17Z</time>
      </trkpt>
      <trkpt lat="49.18072" lon="-0.40146">
        <ele>40.8</ele>
        <time>2023-05-04T10:10:18Z</time>
      </trkpt>
      <trkpt lat="49.18076" lon="-0.40143">
        <ele>40.8</ele>
        <time>2023-05-04T10:10:19Z</time>
      </trkpt>
      <trkpt lat="49.1808" lon="-0.40139">
        <ele>40.8</ele>
        <time>2023-05-04T10:10:20Z</time>
      </trkpt>
      <trkpt lat="49.18083" lon="-0.40136">
        <ele>40.6</ele>
        <time>2023-05-04T10:10:21Z</time>
      </trkpt>
      <trkpt lat="49.18087" lon="-0.40132">
        <ele>40.6</ele>
        <time>2023-05-04T10:10:22Z</time>
      </trkpt>
      <trkpt lat="49.18091" lon="-0.40129">
        <ele>40.4</ele>
        <time>2023-05-04T10:10:23Z</time>
      </trkpt>
      <trkpt lat="49.18094" lon="-0.40125">
        <ele>40.2</ele>
        <time>2023-05-04T10:10:24Z</time>
      </trkpt>
      <trkpt lat="49.18097" lon="-0.40121">
        <ele>40.2</ele>
        <time>2023-05-04T10:10:25Z</time>
      </trkpt>
      <trkpt lat="49.181" lon="-0.40117">
        <ele>40</ele>
        <time>2023-05-04T10:10:26Z</time>
      </trkpt>
      <trkpt lat="49.18103" lon="-0.40113">
        <ele>40</ele>
        <time>2023-05-04T10:10:27Z</time>
      </trkpt>
      <trkpt lat="49.18106" lon="-0.40109">
        <ele>40</ele>
        <time>2023-05-04T10:10:28Z</time>
      </trkpt>
      <trkpt lat="49.18109" lon="-0.40104">
        <ele>40</ele>
        <time>2023-05-04T10:10:29Z</time>
      </trkpt>
      <trkpt lat="49.18112" lon="-0.40099">
        <ele>39.8</ele>
        <time>2023-05-04T10:10:30Z</time>
      </trkpt>
      <trkpt lat="49.18114" lon="-0.40094">
        <ele>39.8</ele>
        <time>2023-05-04T10:10:31Z</time>
      </trkpt>
      <trkpt lat="49.18117" lon="-0.40088">
        <ele>39.6</ele>
        <time>2023-05-04T10:10:32Z</time>
      </trkpt>
      <trkpt lat="49.18119" lon="-0.40083">
        <ele>39.6</ele>
        <time>2023-05-04T10:10:33Z</time>
      </trkpt>
      <trkpt lat="49.18122" lon="-0.40078">
        <ele>39.6</ele>
        <time>2023-05-04T10:10:34Z</time>
      </trkpt>
      <trkpt lat="49.18125" lon="-0.40074">
        <ele>39.6</ele>
        <time>2023-05-04T10:10:35Z</time>
      </trkpt>
      <trkpt lat="49.18127" lon="-0.40071">
        <ele>39.6</ele>
        <time>2023-05-04T10:10:36Z</time>
      </trkpt>
      <trkpt lat="49.18129" lon="-0.40068">
        <ele>39.6</ele>
        <time>2023-05-04T10:10:37Z</time>
      </trkpt>
      <trkpt lat="49.18131" lon="-0.40066">
        <ele>39.6</ele>
        <time>2023-05-04T10:10:38Z</time>
      </trkpt>
      <trkpt lat="49.18133" lon="-0.40064">
        <ele>39.6</ele>
        <time>2023-05-04T10:10:39Z</time>
      </trkpt>
      <trkpt lat="49.18134" lon="-0.40062">
        <ele>39.6</ele>
        <time>2023-05-04T10:10:40Z</time>
      </trkpt>
      <trkpt lat="49.18135" lon="-0.40059">
        <ele>39.6</ele>
        <time>2023-05-04T10:10:41Z</time>
      </trkpt>
      <trkpt lat="49.18136" lon="-0.40055">
        <ele>39.6</ele>
        <time>2023-05-04T10:10:42Z</time>
      </trkpt>
      <trkpt lat="49.18138" lon="-0.4005">
        <ele>39.6</ele>
        <time>2023-05-04T10:10:43Z</time>
      </trkpt>
      <trkpt lat="49.1814" lon="-0.40044">
        <ele>39.6</ele>
        <time>2023-05-04T10:10:44Z</time>
      </trkpt>
      <trkpt lat="49.18143" lon="-0.40038">
        <ele>39.8</ele>
        <time>2023-05-04T10:10:45Z</time>
      </trkpt>
      <trkpt lat="49.18147" lon="-0.40034">
        <ele>39.8</ele>
        <time>2023-05-04T10:10:46Z</time>
      </trkpt>
      <trkpt lat="49.18152" lon="-0.40031">
        <ele>39.8</ele>
        <time>2023-05-04T10:10:47Z</time>
      </trkpt>
      <trkpt lat="49.18157" lon="-0.40029">
        <ele>39.8</ele>
        <time>2023-05-04T10:10:48Z</time>
      </trkpt>
      <trkpt lat="49.18162" lon="-0.4003">
        <ele>39.8</ele>
        <time>2023-05-04T10:10:49Z</time>
      </trkpt>
      <trkpt lat="49.18168" lon="-0.40032">
        <ele>39.6</ele>
        <time>2023-05-04T10:10:50Z</time>
      </trkpt>
      <trkpt lat="49.18173" lon="-0.40035">
        <ele>39.6</ele>
        <time>2023-05-04T10:10:51Z</time>
      </trkpt>
      <trkpt lat="49.18178" lon="-0.40037">
        <ele>39.6</ele>
        <time>2023-05-04T10:10:52Z</time>
      </trkpt>
      <trkpt lat="49.18183" lon="-0.40037">
        <ele>39.6</ele>
        <time>2023-05-04T10:10:53Z</time>
      </trkpt>
      <trkpt lat="49.18188" lon="-0.40036">
        <ele>39.6</ele>
        <time>2023-05-04T10:10:54Z</time>
      </trkpt>
      <trkpt lat="49.18192" lon="-0.40034">
        <ele>39.6</ele>
        <time>2023-05-04T10:10:55Z</time>
      </trkpt>
      <trkpt lat="49.18197" lon="-0.40031">
        <ele>39.6</ele>
        <time>2023-05-04T10:10:56Z</time>
      </trkpt>
      <trkpt lat="49.18202" lon="-0.40028">
        <ele>39.8</ele>
        <time>2023-05-04T10:10:57Z</time>
      </trkpt>
      <trkpt lat="49.18207" lon="-0.40026">
        <ele>39.8</ele>
        <time>2023-05-04T10:10:58Z</time>
      </trkpt>
      <trkpt lat="49.18212" lon="-0.40024">
        <ele>39.8</ele>
        <time>2023-05-04T10:10:59Z</time>
      </trkpt>
      <trkpt lat="49.18217" lon="-0.40022">
        <ele>39.8</ele>
        <time>2023-05-04T10:11:00Z</time>
      </trkpt>
      <trkpt lat="49.18222" lon="-0.4002">
        <ele>39.8</ele>
        <time>2023-05-04T10:11:01Z</time>
      </trkpt>
      <trkpt lat="49.18227" lon="-0.40018">
        <ele>39.8</ele>
        <time>2023-05-04T10:11:02Z</time>
      </trkpt>
      <trkpt lat="49.18232" lon="-0.40016">
        <ele>39.8</ele>
        <time>2023-05-04T10:11:03Z</time>
      </trkpt>
      <trkpt lat="49.18237" lon="-0.40013">
        <ele>39.8</ele>
        <time>2023-05-04T10:11:04Z</time>
      </trkpt>
      <trkpt lat="49.18242" lon="-0.40012">
        <ele>40</ele>
        <time>2023-05-04T10:11:05Z</time>
      </trkpt>
      <trkpt lat="49.18247" lon="-0.40009">
        <ele>40</ele>
        <time>2023-05-04T10:11:06Z</time>
      </trkpt>
      <trkpt lat="49.18252" lon="-0.40007">
        <ele>40</ele>
        <time>2023-05-04T10:11:07Z</time>
      </trkpt>
      <trkpt lat="49.18257" lon="-0.40005">
        <ele>40.4</ele>
        <time>2023-05-04T10:11:08Z</time>
      </trkpt>
      <trkpt lat="49.18262" lon="-0.40003">
        <ele>40.8</ele>
        <time>2023-05-04T10:11:09Z</time>
      </trkpt>
      <trkpt lat="49.18267" lon="-0.40001">
        <ele>41.2</ele>
        <time>2023-05-04T10:11:10Z</time>
      </trkpt>
      <trkpt lat="49.18272" lon="-0.39998">
        <ele>41.6</ele>
        <time>2023-05-04T10:11:11Z</time>
      </trkpt>
      <trkpt lat="49.18276" lon="-0.39996">
        <ele>42</ele>
        <time>2023-05-04T10:11:12Z</time>
      </trkpt>
      <trkpt lat="49.18282" lon="-0.39993">
        <ele>42.2</ele>
        <time>2023-05-04T10:11:13Z</time>
      </trkpt>
      <trkpt lat="49.18287" lon="-0.3999">
        <ele>42.6</ele>
        <time>2023-05-04T10:11:14Z</time>
      </trkpt>
      <trkpt lat="49.18292" lon="-0.39987">
        <ele>42.8</ele>
        <time>2023-05-04T10:11:15Z</time>
      </trkpt>
      <trkpt lat="49.18297" lon="-0.39985">
        <ele>43</ele>
        <time>2023-05-04T10:11:16Z</time>
      </trkpt>
      <trkpt lat="49.18302" lon="-0.39982">
        <ele>43.4</ele>
        <time>2023-05-04T10:11:17Z</time>
      </trkpt>
      <trkpt lat="49.18307" lon="-0.39979">
        <ele>43.6</ele>
        <time>2023-05-04T10:11:18Z</time>
      </trkpt>
      <trkpt lat="49.18311" lon="-0.39975">
        <ele>43.8</ele>
        <time>2023-05-04T10:11:19Z</time>
      </trkpt>
      <trkpt lat="49.18313" lon="-0.39969">
        <ele>43.6</ele>
        <time>2023-05-04T10:11:20Z</time>
      </trkpt>
      <trkpt lat="49.18312" lon="-0.39962">
        <ele>43.2</ele>
        <time>2023-05-04T10:11:21Z</time>
      </trkpt>
      <trkpt lat="49.18311" lon="-0.39955">
        <ele>43</ele>
        <time>2023-05-04T10:11:22Z</time>
      </trkpt>
      <trkpt lat="49.18309" lon="-0.39948">
        <ele>43</ele>
        <time>2023-05-04T10:11:23Z</time>
      </trkpt>
      <trkpt lat="49.18308" lon="-0.3994">
        <ele>42.6</ele>
        <time>2023-05-04T10:11:24Z</time>
      </trkpt>
      <trkpt lat="49.18307" lon="-0.39933">
        <ele>42.4</ele>
        <time>2023-05-04T10:11:25Z</time>
      </trkpt>
      <trkpt lat="49.18305" lon="-0.39924">
        <ele>42.2</ele>
        <time>2023-05-04T10:11:26Z</time>
      </trkpt>
      <trkpt lat="49.18304" lon="-0.39916">
        <ele>42</ele>
        <time>2023-05-04T10:11:27Z</time>
      </trkpt>
      <trkpt lat="49.18303" lon="-0.39908">
        <ele>42</ele>
        <time>2023-05-04T10:11:28Z</time>
      </trkpt>
      <trkpt lat="49.18302" lon="-0.399">
        <ele>42.2</ele>
        <time>2023-05-04T10:11:29Z</time>
      </trkpt>
      <trkpt lat="49.18302" lon="-0.39891">
        <ele>42.4</ele>
        <time>2023-05-04T10:11:30Z</time>
      </trkpt>
      <trkpt lat="49.18301" lon="-0.39883">
        <ele>42.6</ele>
        <time>2023-05-04T10:11:31Z</time>
      </trkpt>
      <trkpt lat="49.183" lon="-0.39875">
        <ele>42.6</ele>
        <time>2023-05-04T10:11:32Z</time>
      </trkpt>
      <trkpt lat="49.18299" lon="-0.39866">
        <ele>42.8</ele>
        <time>2023-05-04T10:11:33Z</time>
      </trkpt>
      <trkpt lat="49.18298" lon="-0.39858">
        <ele>42.8</ele>
        <time>2023-05-04T10:11:34Z</time>
      </trkpt>
      <trkpt lat="49.18298" lon="-0.39849">
        <ele>43</ele>
        <time>2023-05-04T10:11:35Z</time>
      </trkpt>
      <trkpt lat="49.18297" lon="-0.3984">
        <ele>43</ele>
        <time>2023-05-04T10:11:36Z</time>
      </trkpt>
      <trkpt lat="49.18296" lon="-0.39831">
        <ele>43</ele>
        <time>2023-05-04T10:11:37Z</time>
      </trkpt>
      <trkpt lat="49.18295" lon="-0.39823">
        <ele>43</ele>
        <time>2023-05-04T10:11:38Z</time>
      </trkpt>
      <trkpt lat="49.18294" lon="-0.39814">
        <ele>42.8</ele>
        <time>2023-05-04T10:11:39Z</time>
      </trkpt>
      <trkpt lat="49.18292" lon="-0.39805">
        <ele>42.8</ele>
        <time>2023-05-04T10:11:40Z</time>
      </trkpt>
      <trkpt lat="49.18291" lon="-0.39796">
        <ele>42.6</ele>
        <time>2023-05-04T10:11:41Z</time>
      </trkpt>
      <trkpt lat="49.1829" lon="-0.39787">
        <ele>42.4</ele>
        <time>2023-05-04T10:11:42Z</time>
      </trkpt>
      <trkpt lat="49.18289" lon="-0.39778">
        <ele>42.2</ele>
        <time>2023-05-04T10:11:43Z</time>
      </trkpt>
      <trkpt lat="49.18288" lon="-0.39769">
        <ele>42</ele>
        <time>2023-05-04T10:11:44Z</time>
      </trkpt>
      <trkpt lat="49.18287" lon="-0.39761">
        <ele>42</ele>
        <time>2023-05-04T10:11:45Z</time>
      </trkpt>
      <trkpt lat="49.18286" lon="-0.39752">
        <ele>41.8</ele>
        <time>2023-05-04T10:11:46Z</time>
      </trkpt>
      <trkpt lat="49.18285" lon="-0.39743">
        <ele>41.6</ele>
        <time>2023-05-04T10:11:47Z</time>
      </trkpt>
      <trkpt lat="49.18283" lon="-0.39734">
        <ele>41.2</ele>
        <time>2023-05-04T10:11:48Z</time>
      </trkpt>
      <trkpt lat="49.18282" lon="-0.39725">
        <ele>41</ele>
        <time>2023-05-04T10:11:49Z</time>
      </trkpt>
      <trkpt lat="49.18281" lon="-0.39716">
        <ele>40.6</ele>
        <time>2023-05-04T10:11:50Z</time>
      </trkpt>
      <trkpt lat="49.1828" lon="-0.39707">
        <ele>40.4</ele>
        <time>2023-05-04T10:11:51Z</time>
      </trkpt>
      <trkpt lat="49.18278" lon="-0.39698">
        <ele>40</ele>
        <time>2023-05-04T10:11:52Z</time>
      </trkpt>
      <trkpt lat="49.18277" lon="-0.39689">
        <ele>40</ele>
        <time>2023-05-04T10:11:53Z</time>
      </trkpt>
      <trkpt lat="49.18276" lon="-0.3968">
        <ele>39.6</ele>
        <time>2023-05-04T10:11:54Z</time>
      </trkpt>
      <trkpt lat="49.18274" lon="-0.39671">
        <ele>39.4</ele>
        <time>2023-05-04T10:11:55Z</time>
      </trkpt>
      <trkpt lat="49.18273" lon="-0.39662">
        <ele>39.2</ele>
        <time>2023-05-04T10:11:56Z</time>
      </trkpt>
      <trkpt lat="49.18271" lon="-0.39654">
        <ele>39.6</ele>
        <time>2023-05-04T10:11:57Z</time>
      </trkpt>
      <trkpt lat="49.1827" lon="-0.39645">
        <ele>39.6</ele>
        <time>2023-05-04T10:11:58Z</time>
      </trkpt>
      <trkpt lat="49.18269" lon="-0.39636">
        <ele>39.8</ele>
        <time>2023-05-04T10:11:59Z</time>
      </trkpt>
      <trkpt lat="49.18267" lon="-0.39627">
        <ele>40</ele>
        <time>2023-05-04T10:12:00Z</time>
      </trkpt>
      <trkpt lat="49.18266" lon="-0.39619">
        <ele>40</ele>
        <time>2023-05-04T10:12:01Z</time>
      </trkpt>
      <trkpt lat="49.18265" lon="-0.3961">
        <ele>40.2</ele>
        <time>2023-05-04T10:12:02Z</time>
      </trkpt>
      <trkpt lat="49.18264" lon="-0.39601">
        <ele>40.2</ele>
        <time>2023-05-04T10:12:03Z</time>
      </trkpt>
      <trkpt lat="49.18263" lon="-0.39593">
        <ele>40.6</ele>
        <time>2023-05-04T10:12:04Z</time>
      </trkpt>
      <trkpt lat="49.18262" lon="-0.39584">
        <ele>40.8</ele>
        <time>2023-05-04T10:12:05Z</time>
      </trkpt>
      <trkpt lat="49.18261" lon="-0.39576">
        <ele>40.8</ele>
        <time>2023-05-04T10:12:06Z</time>
      </trkpt>
      <trkpt lat="49.1826" lon="-0.39568">
        <ele>40.8</ele>
        <time>2023-05-04T10:12:07Z</time>
      </trkpt>
      <trkpt lat="49.18259" lon="-0.39559">
        <ele>40.8</ele>
        <time>2023-05-04T10:12:08Z</time>
      </trkpt>
      <trkpt lat="49.18258" lon="-0.39551">
        <ele>40.8</ele>
        <time>2023-05-04T10:12:09Z</time>
      </trkpt>
      <trkpt lat="49.18256" lon="-0.39544">
        <ele>40.8</ele>
        <time>2023-05-04T10:12:10Z</time>
      </trkpt>
      <trkpt lat="49.18255" lon="-0.39537">
        <ele>41</ele>
        <time>2023-05-04T10:12:11Z</time>
      </trkpt>
      <trkpt lat="49.18254" lon="-0.39531">
        <ele>41</ele>
        <time>2023-05-04T10:12:12Z</time>
      </trkpt>
      <trkpt lat="49.18253" lon="-0.39526">
        <ele>41</ele>
        <time>2023-05-04T10:12:13Z</time>
      </trkpt>
      <trkpt lat="49.18253" lon="-0.39522">
        <ele>41</ele>
        <time>2023-05-04T10:12:14Z</time>
      </trkpt>
      <trkpt lat="49.18254" lon="-0.39518">
        <ele>41</ele>
        <time>2023-05-04T10:12:15Z</time>
      </trkpt>
      <trkpt lat="49.18256" lon="-0.39515">
        <ele>40.8</ele>
        <time>2023-05-04T10:12:16Z</time>
      </trkpt>
      <trkpt lat="49.18259" lon="-0.39513">
        <ele>40.8</ele>
        <time>2023-05-04T10:12:17Z</time>
      </trkpt>
      <trkpt lat="49.18263" lon="-0.39512">
        <ele>40.8</ele>
        <time>2023-05-04T10:12:18Z</time>
      </trkpt>
      <trkpt lat="49.18267" lon="-0.3951">
        <ele>40.6</ele>
        <time>2023-05-04T10:12:19Z</time>
      </trkpt>
      <trkpt lat="49.18272" lon="-0.39509">
        <ele>40.6</ele>
        <time>2023-05-04T10:12:20Z</time>
      </trkpt>
      <trkpt lat="49.18276" lon="-0.39508">
        <ele>40.4</ele>
        <time>2023-05-04T10:12:21Z</time>
      </trkpt>
      <trkpt lat="49.18281" lon="-0.39506">
        <ele>40.2</ele>
        <time>2023-05-04T10:12:22Z</time>
      </trkpt>
      <trkpt lat="49.18286" lon="-0.39504">
        <ele>40</ele>
        <time>2023-05-04T10:12:23Z</time>
      </trkpt>
      <trkpt lat="49.18291" lon="-0.39502">
        <ele>40</ele>
        <time>2023-05-04T10:12:24Z</time>
      </trkpt>
      <trkpt lat="49.18296" lon="-0.395">
        <ele>40</ele>
        <time>2023-05-04T10:12:25Z</time>
      </trkpt>
      <trkpt lat="49.18301" lon="-0.39498">
        <ele>39.8</ele>
        <time>2023-05-04T10:12:26Z</time>
      </trkpt>
      <trkpt lat="49.18306" lon="-0.39496">
        <ele>39.6</ele>
        <time>2023-05-04T10:12:27Z</time>
      </trkpt>
      <trkpt lat="49.18312" lon="-0.39493">
        <ele>39.6</ele>
        <time>2023-05-04T10:12:28Z</time>
      </trkpt>
      <trkpt lat="49.18317" lon="-0.39491">
        <ele>39.4</ele>
        <time>2023-05-04T10:12:29Z</time>
      </trkpt>
      <trkpt lat="49.18322" lon="-0.39489">
        <ele>39.2</ele>
        <time>2023-05-04T10:12:30Z</time>
      </trkpt>
      <trkpt lat="49.18328" lon="-0.39486">
        <ele>39</ele>
        <time>2023-05-04T10:12:31Z</time>
      </trkpt>
      <trkpt lat="49.18333" lon="-0.39484">
        <ele>39</ele>
        <time>2023-05-04T10:12:32Z</time>
      </trkpt>
      <trkpt lat="49.18338" lon="-0.39482">
        <ele>39</ele>
        <time>2023-05-04T10:12:33Z</time>
      </trkpt>
      <trkpt lat="49.18343" lon="-0.39479">
        <ele>39</ele>
        <time>2023-05-04T10:12:34Z</time>
      </trkpt>
      <trkpt lat="49.18348" lon="-0.39477">
        <ele>39</ele>
        <time>2023-05-04T10:12:35Z</time>
      </trkpt>
      <trkpt lat="49.18354" lon="-0.39475">
        <ele>39</ele>
        <time>2023-05-04T10:12:36Z</time>
      </trkpt>
      <trkpt lat="49.18359" lon="-0.39472">
        <ele>39</ele>
        <time>2023-05-04T10:12:37Z</time>
      </trkpt>
      <trkpt lat="49.18364" lon="-0.39469">
        <ele>39</ele>
        <time>2023-05-04T10:12:38Z</time>
      </trkpt>
      <trkpt lat="49.18369" lon="-0.39467">
        <ele>39</ele>
        <time>2023-05-04T10:12:39Z</time>
      </trkpt>
      <trkpt lat="49.18374" lon="-0.39464">
        <ele>39</ele>
        <time>2023-05-04T10:12:40Z</time>
      </trkpt>
      <trkpt lat="49.18378" lon="-0.39461">
        <ele>39</ele>
        <time>2023-05-04T10:12:41Z</time>
      </trkpt>
      <trkpt lat="49.18383" lon="-0.39458">
        <ele>39</ele>
        <time>2023-05-04T10:12:42Z</time>
      </trkpt>
      <trkpt lat="49.18388" lon="-0.39456">
        <ele>39</ele>
        <time>2023-05-04T10:12:43Z</time>
      </trkpt>
      <trkpt lat="49.18392" lon="-0.39453">
        <ele>39</ele>
        <time>2023-05-04T10:12:44Z</time>
      </trkpt>
      <trkpt lat="49.18397" lon="-0.3945">
        <ele>39</ele>
        <time>2023-05-04T10:12:45Z</time>
      </trkpt>
      <trkpt lat="49.18401" lon="-0.39447">
        <ele>39</ele>
        <time>2023-05-04T10:12:46Z</time>
      </trkpt>
      <trkpt lat="49.18405" lon="-0.39445">
        <ele>39</ele>
        <time>2023-05-04T10:12:47Z</time>
      </trkpt>
      <trkpt lat="49.18409" lon="-0.39443">
        <ele>39</ele>
        <time>2023-05-04T10:12:48Z</time>
      </trkpt>
      <trkpt lat="49.18413" lon="-0.3944">
        <ele>39</ele>
        <time>2023-05-04T10:12:49Z</time>
      </trkpt>
      <trkpt lat="49.18417" lon="-0.39438">
        <ele>39</ele>
        <time>2023-05-04T10:12:50Z</time>
      </trkpt>
      <trkpt lat="49.18421" lon="-0.39436">
        <ele>39</ele>
        <time>2023-05-04T10:12:51Z</time>
      </trkpt>
      <trkpt lat="49.18424" lon="-0.39434">
        <ele>39</ele>
        <time>2023-05-04T10:12:52Z</time>
      </trkpt>
      <trkpt lat="49.18428" lon="-0.39432">
        <ele>39</ele>
        <time>2023-05-04T10:12:53Z</time>
      </trkpt>
      <trkpt lat="49.18431" lon="-0.39429">
        <ele>39</ele>
        <time>2023-05-04T10:12:54Z</time>
      </trkpt>
      <trkpt lat="49.18435" lon="-0.39427">
        <ele>38.8</ele>
        <time>2023-05-04T10:12:55Z</time>
      </trkpt>
      <trkpt lat="49.18438" lon="-0.39425">
        <ele>38.8</ele>
        <time>2023-05-04T10:12:56Z</time>
      </trkpt>
      <trkpt lat="49.18441" lon="-0.39423">
        <ele>38.8</ele>
        <time>2023-05-04T10:12:57Z</time>
      </trkpt>
      <trkpt lat="49.18444" lon="-0.39421">
        <ele>38.8</ele>
        <time>2023-05-04T10:12:58Z</time>
      </trkpt>
      <trkpt lat="49.18447" lon="-0.3942">
        <ele>38.8</ele>
        <time>2023-05-04T10:12:59Z</time>
      </trkpt>
      <trkpt lat="49.18449" lon="-0.39418">
        <ele>38.6</ele>
        <time>2023-05-04T10:13:00Z</time>
      </trkpt>
      <trkpt lat="49.18451" lon="-0.39417">
        <ele>38.6</ele>
        <time>2023-05-04T10:13:01Z</time>
      </trkpt>
      <trkpt lat="49.18453" lon="-0.39416">
        <ele>38.6</ele>
        <time>2023-05-04T10:13:02Z</time>
      </trkpt>
      <trkpt lat="49.18454" lon="-0.39415">
        <ele>38.6</ele>
        <time>2023-05-04T10:13:03Z</time>
      </trkpt>
      <trkpt lat="49.18455" lon="-0.39414">
        <ele>38.6</ele>
        <time>2023-05-04T10:13:04Z</time>
      </trkpt>
      <trkpt lat="49.18455" lon="-0.39414">
        <ele>38.6</ele>
        <time>2023-05-04T10:13:05Z</time>
      </trkpt>
      <trkpt lat="49.18455" lon="-0.39414">
        <ele>38.6</ele>
        <time>2023-05-04T10:13:06Z</time>
      </trkpt>
      <trkpt lat="49.18455" lon="-0.39414">
        <ele>38.6</ele>
        <time>2023-05-04T10:13:07Z</time>
      </trkpt>
      <trkpt lat="49.18455" lon="-0.39414">
        <ele>38.6</ele>
        <time>2023-05-04T10:13:08Z</time>
      </trkpt>
      <trkpt lat="49.18455" lon="-0.39413">
        <ele>38.6</ele>
        <time>2023-05-04T10:13:09Z</time>
      </trkpt>
      <trkpt lat="49.18456" lon="-0.39412">
        <ele>38.6</ele>
        <time>2023-05-04T10:13:10Z</time>
      </trkpt>
      <trkpt lat="49.18457" lon="-0.39411">
        <ele>38.4</ele>
        <time>2023-05-04T10:13:11Z</time>
      </trkpt>
      <trkpt lat="49.1846" lon="-0.39409">
        <ele>38.4</ele>
        <time>2023-05-04T10:13:12Z</time>
      </trkpt>
      <trkpt lat="49.18462" lon="-0.39408">
        <ele>38.2</ele>
        <time>2023-05-04T10:13:13Z</time>
      </trkpt>
      <trkpt lat="49.18465" lon="-0.39406">
        <ele>38.2</ele>
        <time>2023-05-04T10:13:14Z</time>
      </trkpt>
      <trkpt lat="49.18468" lon="-0.39404">
        <ele>38.2</ele>
        <time>2023-05-04T10:13:15Z</time>
      </trkpt>
      <trkpt lat="49.18472" lon="-0.39402">
        <ele>38.2</ele>
        <time>2023-05-04T10:13:16Z</time>
      </trkpt>
      <trkpt lat="49.18476" lon="-0.394">
        <ele>38</ele>
        <time>2023-05-04T10:13:17Z</time>
      </trkpt>
      <trkpt lat="49.1848" lon="-0.39397">
        <ele>38</ele>
        <time>2023-05-04T10:13:18Z</time>
      </trkpt>
      <trkpt lat="49.18485" lon="-0.39394">
        <ele>38</ele>
        <time>2023-05-04T10:13:19Z</time>
      </trkpt>
      <trkpt lat="49.1849" lon="-0.3939">
        <ele>37.8</ele>
        <time>2023-05-04T10:13:20Z</time>
      </trkpt>
      <trkpt lat="49.18495" lon="-0.39386">
        <ele>37.8</ele>
        <time>2023-05-04T10:13:21Z</time>
      </trkpt>
      <trkpt lat="49.185" lon="-0.39382">
        <ele>37.6</ele>
        <time>2023-05-04T10:13:22Z</time>
      </trkpt>
      <trkpt lat="49.18505" lon="-0.39378">
        <ele>37.6</ele>
        <time>2023-05-04T10:13:23Z</time>
      </trkpt>
      <trkpt lat="49.18511" lon="-0.39374">
        <ele>37.6</ele>
        <time>2023-05-04T10:13:24Z</time>
      </trkpt>
      <trkpt lat="49.18516" lon="-0.3937">
        <ele>37.6</ele>
        <time>2023-05-04T10:13:25Z</time>
      </trkpt>
      <trkpt lat="49.18521" lon="-0.39366">
        <ele>37.6</ele>
        <time>2023-05-04T10:13:26Z</time>
      </trkpt>
      <trkpt lat="49.18527" lon="-0.39362">
        <ele>37.6</ele>
        <time>2023-05-04T10:13:27Z</time>
      </trkpt>
      <trkpt lat="49.18532" lon="-0.39358">
        <ele>37.6</ele>
        <time>2023-05-04T10:13:28Z</time>
      </trkpt>
      <trkpt lat="49.18538" lon="-0.39354">
        <ele>37.6</ele>
        <time>2023-05-04T10:13:29Z</time>
      </trkpt>
      <trkpt lat="49.18543" lon="-0.3935">
        <ele>37.6</ele>
        <time>2023-05-04T10:13:30Z</time>
      </trkpt>
      <trkpt lat="49.18549" lon="-0.39346">
        <ele>37.6</ele>
        <time>2023-05-04T10:13:31Z</time>
      </trkpt>
      <trkpt lat="49.18554" lon="-0.39342">
        <ele>37.8</ele>
        <time>2023-05-04T10:13:32Z</time>
      </trkpt>
      <trkpt lat="49.1856" lon="-0.39339">
        <ele>37.8</ele>
        <time>2023-05-04T10:13:33Z</time>
      </trkpt>
      <trkpt lat="49.18565" lon="-0.39335">
        <ele>37.8</ele>
        <time>2023-05-04T10:13:34Z</time>
      </trkpt>
      <trkpt lat="49.1857" lon="-0.39331">
        <ele>37.8</ele>
        <time>2023-05-04T10:13:35Z</time>
      </trkpt>
      <trkpt lat="49.18576" lon="-0.39327">
        <ele>37.8</ele>
        <time>2023-05-04T10:13:36Z</time>
      </trkpt>
      <trkpt lat="49.18581" lon="-0.39323">
        <ele>37.8</ele>
        <time>2023-05-04T10:13:37Z</time>
      </trkpt>
      <trkpt lat="49.18587" lon="-0.39319">
        <ele>38</ele>
        <time>2023-05-04T10:13:38Z</time>
      </trkpt>
      <trkpt lat="49.18592" lon="-0.39315">
        <ele>38</ele>
        <time>2023-05-04T10:13:39Z</time>
      </trkpt>
      <trkpt lat="49.18597" lon="-0.39311">
        <ele>38</ele>
        <time>2023-05-04T10:13:40Z</time>
      </trkpt>
      <trkpt lat="49.18603" lon="-0.39307">
        <ele>38.2</ele>
        <time>2023-05-04T10:13:41Z</time>
      </trkpt>
      <trkpt lat="49.18608" lon="-0.39303">
        <ele>38.2</ele>
        <time>2023-05-04T10:13:42Z</time>
      </trkpt>
      <trkpt lat="49.18613" lon="-0.39299">
        <ele>38.6</ele>
        <time>2023-05-04T10:13:43Z</time>
      </trkpt>
      <trkpt lat="49.18618" lon="-0.39295">
        <ele>38.6</ele>
        <time>2023-05-04T10:13:44Z</time>
      </trkpt>
      <trkpt lat="49.18624" lon="-0.39291">
        <ele>38.8</ele>
        <time>2023-05-04T10:13:45Z</time>
      </trkpt>
      <trkpt lat="49.18629" lon="-0.39288">
        <ele>39</ele>
        <time>2023-05-04T10:13:46Z</time>
      </trkpt>
      <trkpt lat="49.18635" lon="-0.39284">
        <ele>39</ele>
        <time>2023-05-04T10:13:47Z</time>
      </trkpt>
      <trkpt lat="49.1864" lon="-0.3928">
        <ele>39.2</ele>
        <time>2023-05-04T10:13:48Z</time>
      </trkpt>
      <trkpt lat="49.18646" lon="-0.39276">
        <ele>39.2</ele>
        <time>2023-05-04T10:13:49Z</time>
      </trkpt>
      <trkpt lat="49.18651" lon="-0.39272">
        <ele>39.6</ele>
        <time>2023-05-04T10:13:50Z</time>
      </trkpt>
      <trkpt lat="49.18657" lon="-0.39269">
        <ele>39.8</ele>
        <time>2023-05-04T10:13:51Z</time>
      </trkpt>
      <trkpt lat="49.18662" lon="-0.39265">
        <ele>39.8</ele>
        <time>2023-05-04T10:13:52Z</time>
      </trkpt>
      <trkpt lat="49.18667" lon="-0.39261">
        <ele>40</ele>
        <time>2023-05-04T10:13:53Z</time>
      </trkpt>
      <trkpt lat="49.18672" lon="-0.39257">
        <ele>40</ele>
        <time>2023-05-04T10:13:54Z</time>
      </trkpt>
      <trkpt lat="49.18677" lon="-0.39253">
        <ele>40</ele>
        <time>2023-05-04T10:13:55Z</time>
      </trkpt>
      <trkpt lat="49.18681" lon="-0.39249">
        <ele>40</ele>
        <time>2023-05-04T10:13:56Z</time>
      </trkpt>
      <trkpt lat="49.18685" lon="-0.39245">
        <ele>40</ele>
        <time>2023-05-04T10:13:57Z</time>
      </trkpt>
      <trkpt lat="49.18689" lon="-0.39242">
        <ele>40</ele>
        <time>2023-05-04T10:13:58Z</time>
      </trkpt>
      <trkpt lat="49.18691" lon="-0.39239">
        <ele>40</ele>
        <time>2023-05-04T10:13:59Z</time>
      </trkpt>
      <trkpt lat="49.18694" lon="-0.39238">
        <ele>40</ele>
        <time>2023-05-04T10:14:00Z</time>
      </trkpt>
      <trkpt lat="49.18697" lon="-0.39239">
        <ele>40</ele>
        <time>2023-05-04T10:14:01Z</time>
      </trkpt>
      <trkpt lat="49.187" lon="-0.39242">
        <ele>40</ele>
        <time>2023-05-04T10:14:02Z</time>
      </trkpt>
      <trkpt lat="49.18703" lon="-0.39246">
        <ele>40</ele>
        <time>2023-05-04T10:14:03Z</time>
      </trkpt>
      <trkpt lat="49.18706" lon="-0.39251">
        <ele>40</ele>
        <time>2023-05-04T10:14:04Z</time>
      </trkpt>
      <trkpt lat="49.18709" lon="-0.39256">
        <ele>40</ele>
        <time>2023-05-04T10:14:05Z</time>
      </trkpt>
      <trkpt lat="49.18713" lon="-0.39263">
        <ele>40</ele>
        <time>2023-05-04T10:14:06Z</time>
      </trkpt>
      <trkpt lat="49.18716" lon="-0.39269">
        <ele>40</ele>
        <time>2023-05-04T10:14:07Z</time>
      </trkpt>
      <trkpt lat="49.18719" lon="-0.39275">
        <ele>40.2</ele>
        <time>2023-05-04T10:14:08Z</time>
      </trkpt>
      <trkpt lat="49.18723" lon="-0.39281">
        <ele>40.2</ele>
        <time>2023-05-04T10:14:09Z</time>
      </trkpt>
      <trkpt lat="49.18726" lon="-0.39288">
        <ele>40.2</ele>
        <time>2023-05-04T10:14:10Z</time>
      </trkpt>
      <trkpt lat="49.18729" lon="-0.39294">
        <ele>40.4</ele>
        <time>2023-05-04T10:14:11Z</time>
      </trkpt>
      <trkpt lat="49.18733" lon="-0.393">
        <ele>40.6</ele>
        <time>2023-05-04T10:14:12Z</time>
      </trkpt>
      <trkpt lat="49.18736" lon="-0.39307">
        <ele>40.6</ele>
        <time>2023-05-04T10:14:13Z</time>
      </trkpt>
      <trkpt lat="49.18739" lon="-0.39313">
        <ele>40.8</ele>
        <time>2023-05-04T10:14:14Z</time>
      </trkpt>
      <trkpt lat="49.18743" lon="-0.39319">
        <ele>40.8</ele>
        <time>2023-05-04T10:14:15Z</time>
      </trkpt>
      <trkpt lat="49.18746" lon="-0.39325">
        <ele>41</ele>
        <time>2023-05-04T10:14:16Z</time>
      </trkpt>
      <trkpt lat="49.1875" lon="-0.39331">
        <ele>41</ele>
        <time>2023-05-04T10:14:17Z</time>
      </trkpt>
      <trkpt lat="49.18753" lon="-0.39337">
        <ele>41</ele>
        <time>2023-05-04T10:14:18Z</time>
      </trkpt>
      <trkpt lat="49.18757" lon="-0.39343">
        <ele>41.2</ele>
        <time>2023-05-04T10:14:19Z</time>
      </trkpt>
      <trkpt lat="49.18761" lon="-0.39349">
        <ele>41.2</ele>
        <time>2023-05-04T10:14:20Z</time>
      </trkpt>
      <trkpt lat="49.18765" lon="-0.39355">
        <ele>41.4</ele>
        <time>2023-05-04T10:14:21Z</time>
      </trkpt>
      <trkpt lat="49.18768" lon="-0.3936">
        <ele>41.6</ele>
        <time>2023-05-04T10:14:22Z</time>
      </trkpt>
      <trkpt lat="49.18772" lon="-0.39365">
        <ele>41.8</ele>
        <time>2023-05-04T10:14:23Z</time>
      </trkpt>
      <trkpt lat="49.18776" lon="-0.39371">
        <ele>41.8</ele>
        <time>2023-05-04T10:14:24Z</time>
      </trkpt>
      <trkpt lat="49.1878" lon="-0.39376">
        <ele>42</ele>
        <time>2023-05-04T10:14:25Z</time>
      </trkpt>
      <trkpt lat="49.18784" lon="-0.39381">
        <ele>42</ele>
        <time>2023-05-04T10:14:26Z</time>
      </trkpt>
      <trkpt lat="49.18788" lon="-0.39386">
        <ele>42</ele>
        <time>2023-05-04T10:14:27Z</time>
      </trkpt>
      <trkpt lat="49.18791" lon="-0.39391">
        <ele>42.2</ele>
        <time>2023-05-04T10:14:28Z</time>
      </trkpt>
      <trkpt lat="49.18795" lon="-0.39396">
        <ele>42.2</ele>
        <time>2023-05-04T10:14:29Z</time>
      </trkpt>
      <trkpt lat="49.18799" lon="-0.39401">
        <ele>42.4</ele>
        <time>2023-05-04T10:14:30Z</time>
      </trkpt>
      <trkpt lat="49.18803" lon="-0.39406">
        <ele>42.6</ele>
        <time>2023-05-04T10:14:31Z</time>
      </trkpt>
      <trkpt lat="49.18807" lon="-0.39411">
        <ele>42.6</ele>
        <time>2023-05-04T10:14:32Z</time>
      </trkpt>
      <trkpt lat="49.18811" lon="-0.39415">
        <ele>42.8</ele>
        <time>2023-05-04T10:14:33Z</time>
      </trkpt>
      <trkpt lat="49.18814" lon="-0.3942">
        <ele>42.8</ele>
        <time>2023-05-04T10:14:34Z</time>
      </trkpt>
      <trkpt lat="49.18818" lon="-0.39424">
        <ele>43</ele>
        <time>2023-05-04T10:14:35Z</time>
      </trkpt>
      <trkpt lat="49.18823" lon="-0.39428">
        <ele>43</ele>
        <time>2023-05-04T10:14:36Z</time>
      </trkpt>
      <trkpt lat="49.18827" lon="-0.39433">
        <ele>43.2</ele>
        <time>2023-05-04T10:14:37Z</time>
      </trkpt>
      <trkpt lat="49.18831" lon="-0.39437">
        <ele>43.4</ele>
        <time>2023-05-04T10:14:38Z</time>
      </trkpt>
      <trkpt lat="49.18835" lon="-0.3944">
        <ele>43.6</ele>
        <time>2023-05-04T10:14:39Z</time>
      </trkpt>
      <trkpt lat="49.18839" lon="-0.39444">
        <ele>43.8</ele>
        <time>2023-05-04T10:14:40Z</time>
      </trkpt>
      <trkpt lat="49.18843" lon="-0.39448">
        <ele>44</ele>
        <time>2023-05-04T10:14:41Z</time>
      </trkpt>
      <trkpt lat="49.18847" lon="-0.39451">
        <ele>44.2</ele>
        <time>2023-05-04T10:14:42Z</time>
      </trkpt>
      <trkpt lat="49.18851" lon="-0.39455">
        <ele>44.4</ele>
        <time>2023-05-04T10:14:43Z</time>
      </trkpt>
      <trkpt lat="49.18856" lon="-0.39459">
        <ele>44.6</ele>
        <time>2023-05-04T10:14:44Z</time>
      </trkpt>
      <trkpt lat="49.1886" lon="-0.39463">
        <ele>44.8</ele>
        <time>2023-05-04T10:14:45Z</time>
      </trkpt>
      <trkpt lat="49.18863" lon="-0.39467">
        <ele>45</ele>
        <time>2023-05-04T10:14:46Z</time>
      </trkpt>
      <trkpt lat="49.18867" lon="-0.3947">
        <ele>45</ele>
        <time>2023-05-04T10:14:47Z</time>
      </trkpt>
      <trkpt lat="49.18871" lon="-0.39474">
        <ele>45.2</ele>
        <time>2023-05-04T10:14:48Z</time>
      </trkpt>
      <trkpt lat="49.18875" lon="-0.39478">
        <ele>45.6</ele>
        <time>2023-05-04T10:14:49Z</time>
      </trkpt>
      <trkpt lat="49.18879" lon="-0.39482">
        <ele>45.8</ele>
        <time>2023-05-04T10:14:50Z</time>
      </trkpt>
      <trkpt lat="49.18883" lon="-0.39486">
        <ele>45.8</ele>
        <time>2023-05-04T10:14:51Z</time>
      </trkpt>
      <trkpt lat="49.18886" lon="-0.3949">
        <ele>46</ele>
        <time>2023-05-04T10:14:52Z</time>
      </trkpt>
      <trkpt lat="49.1889" lon="-0.39493">
        <ele>46.2</ele>
        <time>2023-05-04T10:14:53Z</time>
      </trkpt>
      <trkpt lat="49.18894" lon="-0.39497">
        <ele>46.4</ele>
        <time>2023-05-04T10:14:54Z</time>
      </trkpt>
      <trkpt lat="49.18898" lon="-0.395">
        <ele>46.6</ele>
        <time>2023-05-04T10:14:55Z</time>
      </trkpt>
      <trkpt lat="49.18901" lon="-0.39503">
        <ele>46.8</ele>
        <time>2023-05-04T10:14:56Z</time>
      </trkpt>
      <trkpt lat="49.18904" lon="-0.39506">
        <ele>47</ele>
        <time>2023-05-04T10:14:57Z</time>
      </trkpt>
      <trkpt lat="49.18907" lon="-0.39509">
        <ele>47</ele>
        <time>2023-05-04T10:14:58Z</time>
      </trkpt>
      <trkpt lat="49.1891" lon="-0.39511">
        <ele>47.2</ele>
        <time>2023-05-04T10:14:59Z</time>
      </trkpt>
      <trkpt lat="49.18912" lon="-0.39513">
        <ele>47.2</ele>
        <time>2023-05-04T10:15:00Z</time>
      </trkpt>
      <trkpt lat="49.18914" lon="-0.39515">
        <ele>47.6</ele>
        <time>2023-05-04T10:15:01Z</time>
      </trkpt>
      <trkpt lat="49.18916" lon="-0.39517">
        <ele>47.6</ele>
        <time>2023-05-04T10:15:02Z</time>
      </trkpt>
      <trkpt lat="49.18918" lon="-0.3952">
        <ele>47.8</ele>
        <time>2023-05-04T10:15:03Z</time>
      </trkpt>
      <trkpt lat="49.1892" lon="-0.39523">
        <ele>48</ele>
        <time>2023-05-04T10:15:04Z</time>
      </trkpt>
      <trkpt lat="49.18923" lon="-0.39527">
        <ele>48</ele>
        <time>2023-05-04T10:15:05Z</time>
      </trkpt>
      <trkpt lat="49.18926" lon="-0.39531">
        <ele>48.2</ele>
        <time>2023-05-04T10:15:06Z</time>
      </trkpt>
      <trkpt lat="49.1893" lon="-0.39534">
        <ele>48.6</ele>
        <time>2023-05-04T10:15:07Z</time>
      </trkpt>
      <trkpt lat="49.18933" lon="-0.39537">
        <ele>48.8</ele>
        <time>2023-05-04T10:15:08Z</time>
      </trkpt>
      <trkpt lat="49.18937" lon="-0.39541">
        <ele>48.8</ele>
        <time>2023-05-04T10:15:09Z</time>
      </trkpt>
      <trkpt lat="49.18939" lon="-0.39546">
        <ele>49</ele>
        <time>2023-05-04T10:15:10Z</time>
      </trkpt>
      <trkpt lat="49.18939" lon="-0.39551">
        <ele>49.2</ele>
        <time>2023-05-04T10:15:11Z</time>
      </trkpt>
      <trkpt lat="49.18938" lon="-0.39556">
        <ele>49.2</ele>
        <time>2023-05-04T10:15:12Z</time>
      </trkpt>
      <trkpt lat="49.18936" lon="-0.39561">
        <ele>49.4</ele>
        <time>2023-05-04T10:15:13Z</time>
      </trkpt>
      <trkpt lat="49.18934" lon="-0.39567">
        <ele>49.6</ele>
        <time>2023-05-04T10:15:14Z</time>
      </trkpt>
      <trkpt lat="49.18932" lon="-0.39572">
        <ele>49.8</ele>
        <time>2023-05-04T10:15:15Z</time>
      </trkpt>
      <trkpt lat="49.18929" lon="-0.39578">
        <ele>49.8</ele>
        <time>2023-05-04T10:15:16Z</time>
      </trkpt>
      <trkpt lat="49.18927" lon="-0.39584">
        <ele>50</ele>
        <time>2023-05-04T10:15:17Z</time>
      </trkpt>
      <trkpt lat="49.18925" lon="-0.39589">
        <ele>50.2</ele>
        <time>2023-05-04T10:15:18Z</time>
      </trkpt>
      <trkpt lat="49.18923" lon="-0.39595">
        <ele>50.2</ele>
        <time>2023-05-04T10:15:19Z</time>
      </trkpt>
      <trkpt lat="49.18921" lon="-0.39601">
        <ele>50.4</ele>
        <time>2023-05-04T10:15:20Z</time>
      </trkpt>
      <trkpt lat="49.18919" lon="-0.39608">
        <ele>50.6</ele>
        <time>2023-05-04T10:15:21Z</time>
      </trkpt>
      <trkpt lat="49.18917" lon="-0.39614">
        <ele>50.8</ele>
        <time>2023-05-04T10:15:22Z</time>
      </trkpt>
      <trkpt lat="49.18916" lon="-0.39621">
        <ele>50.8</ele>
        <time>2023-05-04T10:15:23Z</time>
      </trkpt>
      <trkpt lat="49.18914" lon="-0.39627">
        <ele>51</ele>
        <time>2023-05-04T10:15:24Z</time>
      </trkpt>
      <trkpt lat="49.18912" lon="-0.39634">
        <ele>51</ele>
        <time>2023-05-04T10:15:25Z</time>
      </trkpt>
      <trkpt lat="49.18911" lon="-0.39641">
        <ele>51</ele>
        <time>2023-05-04T10:15:26Z</time>
      </trkpt>
      <trkpt lat="49.1891" lon="-0.39648">
        <ele>51</ele>
        <time>2023-05-04T10:15:27Z</time>
      </trkpt>
      <trkpt lat="49.18909" lon="-0.39655">
        <ele>51.2</ele>
        <time>2023-05-04T10:15:28Z</time>
      </trkpt>
      <trkpt lat="49.18908" lon="-0.39662">
        <ele>51.2</ele>
        <time>2023-05-04T10:15:29Z</time>
      </trkpt>
      <trkpt lat="49.18908" lon="-0.39669">
        <ele>51.2</ele>
        <time>2023-05-04T10:15:30Z</time>
      </trkpt>
      <trkpt lat="49.18907" lon="-0.39676">
        <ele>51.2</ele>
        <time>2023-05-04T10:15:31Z</time>
      </trkpt>
      <trkpt lat="49.18906" lon="-0.39684">
        <ele>51.2</ele>
        <time>2023-05-04T10:15:32Z</time>
      </trkpt>
      <trkpt lat="49.18906" lon="-0.39691">
        <ele>51.2</ele>
        <time>2023-05-04T10:15:33Z</time>
      </trkpt>
      <trkpt lat="49.18906" lon="-0.39698">
        <ele>51.2</ele>
        <time>2023-05-04T10:15:34Z</time>
      </trkpt>
      <trkpt lat="49.18905" lon="-0.39705">
        <ele>51</ele>
        <time>2023-05-04T10:15:35Z</time>
      </trkpt>
      <trkpt lat="49.18905" lon="-0.39712">
        <ele>51</ele>
        <time>2023-05-04T10:15:36Z</time>
      </trkpt>
      <trkpt lat="49.18905" lon="-0.39719">
        <ele>51</ele>
        <time>2023-05-04T10:15:37Z</time>
      </trkpt>
      <trkpt lat="49.18904" lon="-0.39726">
        <ele>51</ele>
        <time>2023-05-04T10:15:38Z</time>
      </trkpt>
      <trkpt lat="49.18904" lon="-0.39732">
        <ele>51</ele>
        <time>2023-05-04T10:15:39Z</time>
      </trkpt>
      <trkpt lat="49.18904" lon="-0.39739">
        <ele>51</ele>
        <time>2023-05-04T10:15:40Z</time>
      </trkpt>
      <trkpt lat="49.18904" lon="-0.39746">
        <ele>51</ele>
        <time>2023-05-04T10:15:41Z</time>
      </trkpt>
      <trkpt lat="49.18904" lon="-0.39753">
        <ele>51</ele>
        <time>2023-05-04T10:15:42Z</time>
      </trkpt>
      <trkpt lat="49.18904" lon="-0.3976">
        <ele>51</ele>
        <time>2023-05-04T10:15:43Z</time>
      </trkpt>
      <trkpt lat="49.18904" lon="-0.39767">
        <ele>51</ele>
        <time>2023-05-04T10:15:44Z</time>
      </trkpt>
      <trkpt lat="49.18905" lon="-0.39774">
        <ele>51.2</ele>
        <time>2023-05-04T10:15:45Z</time>
      </trkpt>
      <trkpt lat="49.18905" lon="-0.39781">
        <ele>51.2</ele>
        <time>2023-05-04T10:15:46Z</time>
      </trkpt>
      <trkpt lat="49.18906" lon="-0.39788">
        <ele>51.6</ele>
        <time>2023-05-04T10:15:47Z</time>
      </trkpt>
      <trkpt lat="49.18906" lon="-0.39795">
        <ele>51.6</ele>
        <time>2023-05-04T10:15:48Z</time>
      </trkpt>
      <trkpt lat="49.18906" lon="-0.39802">
        <ele>51.8</ele>
        <time>2023-05-04T10:15:49Z</time>
      </trkpt>
      <trkpt lat="49.18907" lon="-0.39808">
        <ele>51.8</ele>
        <time>2023-05-04T10:15:50Z</time>
      </trkpt>
      <trkpt lat="49.18908" lon="-0.39815">
        <ele>52</ele>
        <time>2023-05-04T10:15:51Z</time>
      </trkpt>
      <trkpt lat="49.18908" lon="-0.39822">
        <ele>52</ele>
        <time>2023-05-04T10:15:52Z</time>
      </trkpt>
      <trkpt lat="49.18909" lon="-0.39828">
        <ele>52.2</ele>
        <time>2023-05-04T10:15:53Z</time>
      </trkpt>
      <trkpt lat="49.18909" lon="-0.39835">
        <ele>52.2</ele>
        <time>2023-05-04T10:15:54Z</time>
      </trkpt>
      <trkpt lat="49.1891" lon="-0.39842">
        <ele>52.4</ele>
        <time>2023-05-04T10:15:55Z</time>
      </trkpt>
      <trkpt lat="49.1891" lon="-0.39848">
        <ele>52.4</ele>
        <time>2023-05-04T10:15:56Z</time>
      </trkpt>
      <trkpt lat="49.18911" lon="-0.39855">
        <ele>52.6</ele>
        <time>2023-05-04T10:15:57Z</time>
      </trkpt>
      <trkpt lat="49.18911" lon="-0.39862">
        <ele>52.6</ele>
        <time>2023-05-04T10:15:58Z</time>
      </trkpt>
      <trkpt lat="49.18912" lon="-0.39868">
        <ele>52.6</ele>
        <time>2023-05-04T10:15:59Z</time>
      </trkpt>
      <trkpt lat="49.18912" lon="-0.39875">
        <ele>52.6</ele>
        <time>2023-05-04T10:16:00Z</time>
      </trkpt>
      <trkpt lat="49.18913" lon="-0.39881">
        <ele>52.8</ele>
        <time>2023-05-04T10:16:01Z</time>
      </trkpt>
      <trkpt lat="49.18913" lon="-0.39888">
        <ele>52.8</ele>
        <time>2023-05-04T10:16:02Z</time>
      </trkpt>
      <trkpt lat="49.18913" lon="-0.39894">
        <ele>52.8</ele>
        <time>2023-05-04T10:16:03Z</time>
      </trkpt>
      <trkpt lat="49.18913" lon="-0.399">
        <ele>52.8</ele>
        <time>2023-05-04T10:16:04Z</time>
      </trkpt>
      <trkpt lat="49.18914" lon="-0.39907">
        <ele>52.8</ele>
        <time>2023-05-04T10:16:05Z</time>
      </trkpt>
      <trkpt lat="49.18914" lon="-0.39913">
        <ele>52.8</ele>
        <time>2023-05-04T10:16:06Z</time>
      </trkpt>
      <trkpt lat="49.18914" lon="-0.3992">
        <ele>53</ele>
        <time>2023-05-04T10:16:07Z</time>
      </trkpt>
      <trkpt lat="49.18915" lon="-0.39926">
        <ele>53</ele>
        <time>2023-05-04T10:16:08Z</time>
      </trkpt>
      <trkpt lat="49.18915" lon="-0.39933">
        <ele>53.2</ele>
        <time>2023-05-04T10:16:09Z</time>
      </trkpt>
      <trkpt lat="49.18915" lon="-0.39939">
        <ele>53.4</ele>
        <time>2023-05-04T10:16:10Z</time>
      </trkpt>
      <trkpt lat="49.18915" lon="-0.39946">
        <ele>53.6</ele>
        <time>2023-05-04T10:16:11Z</time>
      </trkpt>
      <trkpt lat="49.18915" lon="-0.39953">
        <ele>53.8</ele>
        <time>2023-05-04T10:16:12Z</time>
      </trkpt>
      <trkpt lat="49.18915" lon="-0.39959">
        <ele>54</ele>
        <time>2023-05-04T10:16:13Z</time>
      </trkpt>
      <trkpt lat="49.18915" lon="-0.39966">
        <ele>54</ele>
        <time>2023-05-04T10:16:14Z</time>
      </trkpt>
      <trkpt lat="49.18914" lon="-0.39972">
        <ele>54.2</ele>
        <time>2023-05-04T10:16:15Z</time>
      </trkpt>
      <trkpt lat="49.18914" lon="-0.39979">
        <ele>54.2</ele>
        <time>2023-05-04T10:16:16Z</time>
      </trkpt>
      <trkpt lat="49.18913" lon="-0.39985">
        <ele>54.4</ele>
        <time>2023-05-04T10:16:17Z</time>
      </trkpt>
      <trkpt lat="49.18913" lon="-0.39992">
        <ele>54.6</ele>
        <time>2023-05-04T10:16:18Z</time>
      </trkpt>
      <trkpt lat="49.18912" lon="-0.39998">
        <ele>54.6</ele>
        <time>2023-05-04T10:16:19Z</time>
      </trkpt>
      <trkpt lat="49.18911" lon="-0.40005">
        <ele>54.8</ele>
        <time>2023-05-04T10:16:20Z</time>
      </trkpt>
      <trkpt lat="49.1891" lon="-0.40012">
        <ele>54.8</ele>
        <time>2023-05-04T10:16:21Z</time>
      </trkpt>
      <trkpt lat="49.18909" lon="-0.40018">
        <ele>54.8</ele>
        <time>2023-05-04T10:16:22Z</time>
      </trkpt>
      <trkpt lat="49.18909" lon="-0.40025">
        <ele>54.8</ele>
        <time>2023-05-04T10:16:23Z</time>
      </trkpt>
      <trkpt lat="49.18908" lon="-0.40032">
        <ele>54.8</ele>
        <time>2023-05-04T10:16:24Z</time>
      </trkpt>
      <trkpt lat="49.18907" lon="-0.40038">
        <ele>54.8</ele>
        <time>2023-05-04T10:16:25Z</time>
      </trkpt>
      <trkpt lat="49.18906" lon="-0.40045">
        <ele>54.8</ele>
        <time>2023-05-04T10:16:26Z</time>
      </trkpt>
      <trkpt lat="49.18906" lon="-0.40051">
        <ele>54.8</ele>
        <time>2023-05-04T10:16:27Z</time>
      </trkpt>
      <trkpt lat="49.18904" lon="-0.40058">
        <ele>54.8</ele>
        <time>2023-05-04T10:16:28Z</time>
      </trkpt>
      <trkpt lat="49.18903" lon="-0.40064">
        <ele>54.8</ele>
        <time>2023-05-04T10:16:29Z</time>
      </trkpt>
      <trkpt lat="49.18902" lon="-0.4007">
        <ele>54.8</ele>
        <time>2023-05-04T10:16:30Z</time>
      </trkpt>
      <trkpt lat="49.189" lon="-0.40076">
        <ele>54.8</ele>
        <time>2023-05-04T10:16:31Z</time>
      </trkpt>
      <trkpt lat="49.18899" lon="-0.40081">
        <ele>54.8</ele>
        <time>2023-05-04T10:16:32Z</time>
      </trkpt>
      <trkpt lat="49.18897" lon="-0.40087">
        <ele>54.6</ele>
        <time>2023-05-04T10:16:33Z</time>
      </trkpt>
      <trkpt lat="49.18896" lon="-0.40092">
        <ele>54.6</ele>
        <time>2023-05-04T10:16:34Z</time>
      </trkpt>
      <trkpt lat="49.18895" lon="-0.40097">
        <ele>54.6</ele>
        <time>2023-05-04T10:16:35Z</time>
      </trkpt>
      <trkpt lat="49.18893" lon="-0.40101">
        <ele>54.4</ele>
        <time>2023-05-04T10:16:36Z</time>
      </trkpt>
      <trkpt lat="49.18891" lon="-0.40106">
        <ele>54.2</ele>
        <time>2023-05-04T10:16:37Z</time>
      </trkpt>
      <trkpt lat="49.1889" lon="-0.4011">
        <ele>54</ele>
        <time>2023-05-04T10:16:38Z</time>
      </trkpt>
      <trkpt lat="49.18888" lon="-0.40113">
        <ele>54</ele>
        <time>2023-05-04T10:16:39Z</time>
      </trkpt>
      <trkpt lat="49.18886" lon="-0.40116">
        <ele>54</ele>
        <time>2023-05-04T10:16:40Z</time>
      </trkpt>
      <trkpt lat="49.18884" lon="-0.40119">
        <ele>53.8</ele>
        <time>2023-05-04T10:16:41Z</time>
      </trkpt>
      <trkpt lat="49.18883" lon="-0.4012">
        <ele>53.8</ele>
        <time>2023-05-04T10:16:42Z</time>
      </trkpt>
      <trkpt lat="49.18882" lon="-0.40122">
        <ele>53.8</ele>
        <time>2023-05-04T10:16:43Z</time>
      </trkpt>
      <trkpt lat="49.18882" lon="-0.40122">
        <ele>53.8</ele>
        <time>2023-05-04T10:16:44Z</time>
      </trkpt>
      <trkpt lat="49.18881" lon="-0.40122">
        <ele>53.6</ele>
        <time>2023-05-04T10:16:45Z</time>
      </trkpt>
      <trkpt lat="49.18881" lon="-0.40122">
        <ele>53.6</ele>
        <time>2023-05-04T10:16:46Z</time>
      </trkpt>
      <trkpt lat="49.18881" lon="-0.40121">
        <ele>53.6</ele>
        <time>2023-05-04T10:16:47Z</time>
      </trkpt>
      <trkpt lat="49.18881" lon="-0.40121">
        <ele>53.6</ele>
        <time>2023-05-04T10:16:48Z</time>
      </trkpt>
      <trkpt lat="49.18881" lon="-0.40121">
        <ele>53.6</ele>
        <time>2023-05-04T10:16:49Z</time>
      </trkpt>
    </trkseg>
  </trk>
</gpx>